<?xml version="1.0" encoding="UTF-8"?>
<gpx creator="Alpha 200" version="1.1" schemaLocation="http://www.topografix.com/GPX/1/1 http://www.topografix.com/GPX/1/1/gpx.xsd http://www.garmin.com/xmlschemas/GpxExtensions/v3 http://www8.garmin.com/xmlschemas/GpxExtensionsv3.xsd http://www.garmin.com/xmlschemas/TrackStatsExtension/v1 http://www8.garmin.com/xmlschemas/TrackStatsExtension.xsd http://www.garmin.com/xmlschemas/WaypointExtension/v1 http://www8.garmin.com/xmlschemas/WaypointExtensionv1.xsd http://www.garmin.com/xmlschemas/TrackPointExtension/v1 http://www.garmin.com/xmlschemas/TrackPointExtensionv1.xsd" xmlns="http://www.topografix.com/GPX/1/1" xmlns:xsi="http://www.w3.org/2001/XMLSchema-instance" xsi:schemaLocation="http://www.topografix.com/GPX/1/1 http://www.topografix.com/GPX/1/1/gpx.xsd http://www.garmin.com/xmlschemas/GpxExtensions/v3 http://www.garmin.com/xmlschemas/GpxExtensionsv3.xsd http://www.garmin.com/xmlschemas/TrackPointExtension/v1 http://www.garmin.com/xmlschemas/TrackPointExtensionv1.xsd http://www.garmin.com/xmlschemas/PowerExtension/v1 http://www.garmin.com/xmlschemas/PowerExtensionv1.xsd http://www.topografix.com/GPX/gpx_style/0/2 http://www.topografix.com/GPX/gpx_style/0/2/gpx_style.xsd" xmlns:gpxtpx="http://www.garmin.com/xmlschemas/TrackPointExtension/v1" xmlns:gpxx="http://www.garmin.com/xmlschemas/GpxExtensions/v3" xmlns:gpxpx="http://www.garmin.com/xmlschemas/PowerExtension/v1" xmlns:gpx_style="http://www.topografix.com/GPX/gpx_style/0/2">
  <metadata>
    <name>Трек_Асуна-2026-04-22 15.48.45</name>
    <author>
      <name>gpx.studio</name>
      <link href="https://gpx.studio"/>
    </author>
    <link href="http://www.garmin.com">
      <text>Garmin International</text>
    </link>
    <time>2026-04-22T12:48:47.000Z</time>
  </metadata>
  <trk>
    <name>Асуна-2026-04-22 15:48:45</name>
    <trkseg>
      <trkpt lat="59.0924334526" lon="29.9876332283">
        <time>2026-04-22T07:42:21.000Z</time>
      </trkpt>
      <trkpt lat="59.0924549103" lon="29.9877405167">
        <time>2026-04-22T07:42:23.000Z</time>
      </trkpt>
      <trkpt lat="59.0926265717" lon="29.9884700775">
        <time>2026-04-22T07:42:33.000Z</time>
      </trkpt>
      <trkpt lat="59.0925836563" lon="29.9885129929">
        <time>2026-04-22T07:42:36.000Z</time>
      </trkpt>
      <trkpt lat="59.092605114" lon="29.9886417389">
        <time>2026-04-22T07:42:38.000Z</time>
      </trkpt>
      <trkpt lat="59.0926265717" lon="29.9886631966">
        <time>2026-04-22T07:42:41.000Z</time>
      </trkpt>
      <trkpt lat="59.0926265717" lon="29.9886631966">
        <time>2026-04-22T07:42:43.000Z</time>
      </trkpt>
      <trkpt lat="59.0926480293" lon="29.9887704849">
        <time>2026-04-22T07:42:46.000Z</time>
      </trkpt>
      <trkpt lat="59.092669487" lon="29.9888777733">
        <time>2026-04-22T07:42:48.000Z</time>
      </trkpt>
      <trkpt lat="59.0926909447" lon="29.9889206886">
        <time>2026-04-22T07:42:51.000Z</time>
      </trkpt>
      <trkpt lat="59.092669487" lon="29.9889206886">
        <time>2026-04-22T07:42:53.000Z</time>
      </trkpt>
      <trkpt lat="59.0926909447" lon="29.9889206886">
        <time>2026-04-22T07:42:56.000Z</time>
      </trkpt>
      <trkpt lat="59.0926909447" lon="29.9888777733">
        <time>2026-04-22T07:42:58.000Z</time>
      </trkpt>
      <trkpt lat="59.0926480293" lon="29.9887919426">
        <time>2026-04-22T07:43:01.000Z</time>
      </trkpt>
      <trkpt lat="59.0926480293" lon="29.9887061119">
        <time>2026-04-22T07:43:03.000Z</time>
      </trkpt>
      <trkpt lat="59.0926265717" lon="29.9886631966">
        <time>2026-04-22T07:43:06.000Z</time>
      </trkpt>
      <trkpt lat="59.0926265717" lon="29.9886631966">
        <time>2026-04-22T07:43:08.000Z</time>
      </trkpt>
      <trkpt lat="59.0926265717" lon="29.9886631966">
        <time>2026-04-22T07:43:11.000Z</time>
      </trkpt>
      <trkpt lat="59.0926265717" lon="29.9886631966">
        <time>2026-04-22T07:43:13.000Z</time>
      </trkpt>
      <trkpt lat="59.0926265717" lon="29.9886631966">
        <time>2026-04-22T07:43:16.000Z</time>
      </trkpt>
      <trkpt lat="59.0926265717" lon="29.9886631966">
        <time>2026-04-22T07:43:18.000Z</time>
      </trkpt>
      <trkpt lat="59.0926265717" lon="29.9886631966">
        <time>2026-04-22T07:43:21.000Z</time>
      </trkpt>
      <trkpt lat="59.0926480293" lon="29.9887061119">
        <time>2026-04-22T07:43:23.000Z</time>
      </trkpt>
      <trkpt lat="59.0927124023" lon="29.989027977">
        <time>2026-04-22T07:43:26.000Z</time>
      </trkpt>
      <trkpt lat="59.09273386" lon="29.9892425537">
        <time>2026-04-22T07:43:28.000Z</time>
      </trkpt>
      <trkpt lat="59.09273386" lon="29.9892640114">
        <time>2026-04-22T07:43:31.000Z</time>
      </trkpt>
      <trkpt lat="59.0927124023" lon="29.9891996384">
        <time>2026-04-22T07:43:33.000Z</time>
      </trkpt>
      <trkpt lat="59.0926909447" lon="29.9891352654">
        <time>2026-04-22T07:43:36.000Z</time>
      </trkpt>
      <trkpt lat="59.0926909447" lon="29.98909235">
        <time>2026-04-22T07:43:38.000Z</time>
      </trkpt>
      <trkpt lat="59.0926909447" lon="29.98909235">
        <time>2026-04-22T07:43:41.000Z</time>
      </trkpt>
      <trkpt lat="59.0926909447" lon="29.9890708923">
        <time>2026-04-22T07:43:43.000Z</time>
      </trkpt>
      <trkpt lat="59.0926909447" lon="29.9890708923">
        <time>2026-04-22T07:43:46.000Z</time>
      </trkpt>
      <trkpt lat="59.0926909447" lon="29.9890708923">
        <time>2026-04-22T07:43:48.000Z</time>
      </trkpt>
      <trkpt lat="59.0926909447" lon="29.9890708923">
        <time>2026-04-22T07:43:51.000Z</time>
      </trkpt>
      <trkpt lat="59.0926909447" lon="29.9890708923">
        <time>2026-04-22T07:43:53.000Z</time>
      </trkpt>
      <trkpt lat="59.0926909447" lon="29.9890708923">
        <time>2026-04-22T07:43:56.000Z</time>
      </trkpt>
      <trkpt lat="59.092669487" lon="29.989027977">
        <time>2026-04-22T07:43:58.000Z</time>
      </trkpt>
      <trkpt lat="59.092669487" lon="29.9890065193">
        <time>2026-04-22T07:44:01.000Z</time>
      </trkpt>
      <trkpt lat="59.092669487" lon="29.9889850616">
        <time>2026-04-22T07:44:03.000Z</time>
      </trkpt>
      <trkpt lat="59.0926480293" lon="29.9889206886">
        <time>2026-04-22T07:44:06.000Z</time>
      </trkpt>
      <trkpt lat="59.0926480293" lon="29.988899231">
        <time>2026-04-22T07:44:08.000Z</time>
      </trkpt>
      <trkpt lat="59.0926265717" lon="29.9888563156">
        <time>2026-04-22T07:44:11.000Z</time>
      </trkpt>
      <trkpt lat="59.0926265717" lon="29.9888348579">
        <time>2026-04-22T07:44:13.000Z</time>
      </trkpt>
      <trkpt lat="59.0926265717" lon="29.9888134003">
        <time>2026-04-22T07:44:16.000Z</time>
      </trkpt>
      <trkpt lat="59.0926265717" lon="29.9888134003">
        <time>2026-04-22T07:44:18.000Z</time>
      </trkpt>
      <trkpt lat="59.0926265717" lon="29.9888348579">
        <time>2026-04-22T07:44:21.000Z</time>
      </trkpt>
      <trkpt lat="59.0926480293" lon="29.9888348579">
        <time>2026-04-22T07:44:23.000Z</time>
      </trkpt>
      <trkpt lat="59.0926480293" lon="29.9888134003">
        <time>2026-04-22T07:44:26.000Z</time>
      </trkpt>
      <trkpt lat="59.0926480293" lon="29.9888134003">
        <time>2026-04-22T07:44:28.000Z</time>
      </trkpt>
      <trkpt lat="59.0926480293" lon="29.9888134003">
        <time>2026-04-22T07:44:31.000Z</time>
      </trkpt>
      <trkpt lat="59.0926480293" lon="29.9888134003">
        <time>2026-04-22T07:44:33.000Z</time>
      </trkpt>
      <trkpt lat="59.0926480293" lon="29.9888134003">
        <time>2026-04-22T07:44:36.000Z</time>
      </trkpt>
      <trkpt lat="59.0926480293" lon="29.9888134003">
        <time>2026-04-22T07:44:38.000Z</time>
      </trkpt>
      <trkpt lat="59.0926480293" lon="29.9888134003">
        <time>2026-04-22T07:44:41.000Z</time>
      </trkpt>
      <trkpt lat="59.0926480293" lon="29.9888134003">
        <time>2026-04-22T07:44:43.000Z</time>
      </trkpt>
      <trkpt lat="59.0926480293" lon="29.9888348579">
        <time>2026-04-22T07:44:46.000Z</time>
      </trkpt>
      <trkpt lat="59.0926480293" lon="29.9888348579">
        <time>2026-04-22T07:44:48.000Z</time>
      </trkpt>
      <trkpt lat="59.092669487" lon="29.9888563156">
        <time>2026-04-22T07:44:51.000Z</time>
      </trkpt>
      <trkpt lat="59.092669487" lon="29.9888777733">
        <time>2026-04-22T07:44:53.000Z</time>
      </trkpt>
      <trkpt lat="59.092669487" lon="29.9888777733">
        <time>2026-04-22T07:44:56.000Z</time>
      </trkpt>
      <trkpt lat="59.092669487" lon="29.9888777733">
        <time>2026-04-22T07:44:58.000Z</time>
      </trkpt>
      <trkpt lat="59.092669487" lon="29.9888777733">
        <time>2026-04-22T07:45:01.000Z</time>
      </trkpt>
      <trkpt lat="59.092669487" lon="29.988899231">
        <time>2026-04-22T07:45:03.000Z</time>
      </trkpt>
      <trkpt lat="59.0926909447" lon="29.988899231">
        <time>2026-04-22T07:45:06.000Z</time>
      </trkpt>
      <trkpt lat="59.0926909447" lon="29.988899231">
        <time>2026-04-22T07:45:08.000Z</time>
      </trkpt>
      <trkpt lat="59.0926909447" lon="29.988899231">
        <time>2026-04-22T07:45:11.000Z</time>
      </trkpt>
      <trkpt lat="59.0927124023" lon="29.9890065193">
        <time>2026-04-22T07:45:13.000Z</time>
      </trkpt>
      <trkpt lat="59.0927124023" lon="29.9891138077">
        <time>2026-04-22T07:45:16.000Z</time>
      </trkpt>
      <trkpt lat="59.0927124023" lon="29.989156723">
        <time>2026-04-22T07:45:18.000Z</time>
      </trkpt>
      <trkpt lat="59.09273386" lon="29.9893069267">
        <time>2026-04-22T07:45:21.000Z</time>
      </trkpt>
      <trkpt lat="59.0927553177" lon="29.9894356728">
        <time>2026-04-22T07:45:23.000Z</time>
      </trkpt>
      <trkpt lat="59.0927767754" lon="29.9894571304">
        <time>2026-04-22T07:45:26.000Z</time>
      </trkpt>
      <trkpt lat="59.0927767754" lon="29.9894356728">
        <time>2026-04-22T07:45:28.000Z</time>
      </trkpt>
      <trkpt lat="59.0927767754" lon="29.9894142151">
        <time>2026-04-22T07:45:31.000Z</time>
      </trkpt>
      <trkpt lat="59.0927767754" lon="29.9894142151">
        <time>2026-04-22T07:45:33.000Z</time>
      </trkpt>
      <trkpt lat="59.0927767754" lon="29.9894142151">
        <time>2026-04-22T07:45:36.000Z</time>
      </trkpt>
      <trkpt lat="59.0927767754" lon="29.9894356728">
        <time>2026-04-22T07:45:38.000Z</time>
      </trkpt>
      <trkpt lat="59.0927767754" lon="29.9895215034">
        <time>2026-04-22T07:45:41.000Z</time>
      </trkpt>
      <trkpt lat="59.0928196907" lon="29.9896717072">
        <time>2026-04-22T07:45:43.000Z</time>
      </trkpt>
      <trkpt lat="59.0928196907" lon="29.9898004532">
        <time>2026-04-22T07:45:46.000Z</time>
      </trkpt>
      <trkpt lat="59.0928196907" lon="29.9898648262">
        <time>2026-04-22T07:45:48.000Z</time>
      </trkpt>
      <trkpt lat="59.092862606" lon="29.9899935722">
        <time>2026-04-22T07:45:51.000Z</time>
      </trkpt>
      <trkpt lat="59.0928840637" lon="29.9901223183">
        <time>2026-04-22T07:45:53.000Z</time>
      </trkpt>
      <trkpt lat="59.0928840637" lon="29.9901008606">
        <time>2026-04-22T07:45:56.000Z</time>
      </trkpt>
      <trkpt lat="59.0928840637" lon="29.9901008606">
        <time>2026-04-22T07:45:58.000Z</time>
      </trkpt>
      <trkpt lat="59.0929269791" lon="29.9901437759">
        <time>2026-04-22T07:46:01.000Z</time>
      </trkpt>
      <trkpt lat="59.0929269791" lon="29.9901223183">
        <time>2026-04-22T07:46:03.000Z</time>
      </trkpt>
      <trkpt lat="59.0929055214" lon="29.9901223183">
        <time>2026-04-22T07:46:06.000Z</time>
      </trkpt>
      <trkpt lat="59.0929269791" lon="29.9901652336">
        <time>2026-04-22T07:46:08.000Z</time>
      </trkpt>
      <trkpt lat="59.0929698944" lon="29.990401268">
        <time>2026-04-22T07:46:11.000Z</time>
      </trkpt>
      <trkpt lat="59.0929913521" lon="29.9905943871">
        <time>2026-04-22T07:46:13.000Z</time>
      </trkpt>
      <trkpt lat="59.0930342674" lon="29.9907660484">
        <time>2026-04-22T07:46:16.000Z</time>
      </trkpt>
      <trkpt lat="59.0930342674" lon="29.9907875061">
        <time>2026-04-22T07:46:18.000Z</time>
      </trkpt>
      <trkpt lat="59.0930342674" lon="29.9907660484">
        <time>2026-04-22T07:46:21.000Z</time>
      </trkpt>
      <trkpt lat="59.0930342674" lon="29.9907660484">
        <time>2026-04-22T07:46:23.000Z</time>
      </trkpt>
      <trkpt lat="59.0930342674" lon="29.9908089638">
        <time>2026-04-22T07:46:26.000Z</time>
      </trkpt>
      <trkpt lat="59.0930557251" lon="29.9909377098">
        <time>2026-04-22T07:46:28.000Z</time>
      </trkpt>
      <trkpt lat="59.0930771828" lon="29.9910664558">
        <time>2026-04-22T07:46:31.000Z</time>
      </trkpt>
      <trkpt lat="59.0931200981" lon="29.9911952019">
        <time>2026-04-22T07:46:33.000Z</time>
      </trkpt>
      <trkpt lat="59.0931415558" lon="29.9913024902">
        <time>2026-04-22T07:46:36.000Z</time>
      </trkpt>
      <trkpt lat="59.0931415558" lon="29.9913454056">
        <time>2026-04-22T07:46:38.000Z</time>
      </trkpt>
      <trkpt lat="59.0931415558" lon="29.9913454056">
        <time>2026-04-22T07:46:41.000Z</time>
      </trkpt>
      <trkpt lat="59.0931415558" lon="29.9913454056">
        <time>2026-04-22T07:46:43.000Z</time>
      </trkpt>
      <trkpt lat="59.0931415558" lon="29.9913454056">
        <time>2026-04-22T07:46:46.000Z</time>
      </trkpt>
      <trkpt lat="59.0931415558" lon="29.9913668633">
        <time>2026-04-22T07:46:48.000Z</time>
      </trkpt>
      <trkpt lat="59.0931630135" lon="29.9914741516">
        <time>2026-04-22T07:46:51.000Z</time>
      </trkpt>
      <trkpt lat="59.0931844711" lon="29.99158144">
        <time>2026-04-22T07:46:53.000Z</time>
      </trkpt>
      <trkpt lat="59.0931844711" lon="29.9916028976">
        <time>2026-04-22T07:46:56.000Z</time>
      </trkpt>
      <trkpt lat="59.0931844711" lon="29.9916028976">
        <time>2026-04-22T07:46:58.000Z</time>
      </trkpt>
      <trkpt lat="59.0931844711" lon="29.9916243553">
        <time>2026-04-22T07:47:01.000Z</time>
      </trkpt>
      <trkpt lat="59.0932059288" lon="29.991710186">
        <time>2026-04-22T07:47:03.000Z</time>
      </trkpt>
      <trkpt lat="59.0932273865" lon="29.991838932">
        <time>2026-04-22T07:47:06.000Z</time>
      </trkpt>
      <trkpt lat="59.0932488441" lon="29.9919247627">
        <time>2026-04-22T07:47:08.000Z</time>
      </trkpt>
      <trkpt lat="59.0932488441" lon="29.9919462204">
        <time>2026-04-22T07:47:11.000Z</time>
      </trkpt>
      <trkpt lat="59.0932703018" lon="29.9919891357">
        <time>2026-04-22T07:47:13.000Z</time>
      </trkpt>
      <trkpt lat="59.0932703018" lon="29.9920749664">
        <time>2026-04-22T07:47:16.000Z</time>
      </trkpt>
      <trkpt lat="59.0932917595" lon="29.9921393394">
        <time>2026-04-22T07:47:18.000Z</time>
      </trkpt>
      <trkpt lat="59.0933132172" lon="29.9922466278">
        <time>2026-04-22T07:47:21.000Z</time>
      </trkpt>
      <trkpt lat="59.0933346748" lon="29.9923324585">
        <time>2026-04-22T07:47:23.000Z</time>
      </trkpt>
      <trkpt lat="59.0933346748" lon="29.9923968315">
        <time>2026-04-22T07:47:26.000Z</time>
      </trkpt>
      <trkpt lat="59.0933346748" lon="29.9924397469">
        <time>2026-04-22T07:47:28.000Z</time>
      </trkpt>
      <trkpt lat="59.0933561325" lon="29.9925255775">
        <time>2026-04-22T07:47:31.000Z</time>
      </trkpt>
      <trkpt lat="59.0933775902" lon="29.9925899506">
        <time>2026-04-22T07:47:33.000Z</time>
      </trkpt>
      <trkpt lat="59.0933775902" lon="29.9926114082">
        <time>2026-04-22T07:47:36.000Z</time>
      </trkpt>
      <trkpt lat="59.0933775902" lon="29.9926543236">
        <time>2026-04-22T07:47:38.000Z</time>
      </trkpt>
      <trkpt lat="59.0933775902" lon="29.9927616119">
        <time>2026-04-22T07:47:41.000Z</time>
      </trkpt>
      <trkpt lat="59.0933990479" lon="29.9928474426">
        <time>2026-04-22T07:47:43.000Z</time>
      </trkpt>
      <trkpt lat="59.0933990479" lon="29.9929118156">
        <time>2026-04-22T07:47:46.000Z</time>
      </trkpt>
      <trkpt lat="59.0933990479" lon="29.993019104">
        <time>2026-04-22T07:47:48.000Z</time>
      </trkpt>
      <trkpt lat="59.0934419632" lon="29.9931907654">
        <time>2026-04-22T07:47:53.000Z</time>
      </trkpt>
      <trkpt lat="59.0934634209" lon="29.9932765961">
        <time>2026-04-22T07:47:56.000Z</time>
      </trkpt>
      <trkpt lat="59.0934848785" lon="29.9932980537">
        <time>2026-04-22T07:47:58.000Z</time>
      </trkpt>
      <trkpt lat="59.0934848785" lon="29.9933624268">
        <time>2026-04-22T07:48:01.000Z</time>
      </trkpt>
      <trkpt lat="59.0934848785" lon="29.9933624268">
        <time>2026-04-22T07:48:03.000Z</time>
      </trkpt>
      <trkpt lat="59.0935063362" lon="29.9934053421">
        <time>2026-04-22T07:48:06.000Z</time>
      </trkpt>
      <trkpt lat="59.0935707092" lon="29.9936199188">
        <time>2026-04-22T07:48:08.000Z</time>
      </trkpt>
      <trkpt lat="59.0936136246" lon="29.9937915802">
        <time>2026-04-22T07:48:11.000Z</time>
      </trkpt>
      <trkpt lat="59.0936136246" lon="29.9938774109">
        <time>2026-04-22T07:48:13.000Z</time>
      </trkpt>
      <trkpt lat="59.0936136246" lon="29.9938559532">
        <time>2026-04-22T07:48:16.000Z</time>
      </trkpt>
      <trkpt lat="59.0936350822" lon="29.9938988686">
        <time>2026-04-22T07:48:18.000Z</time>
      </trkpt>
      <trkpt lat="59.0936350822" lon="29.9940276146">
        <time>2026-04-22T07:48:21.000Z</time>
      </trkpt>
      <trkpt lat="59.0936565399" lon="29.994134903">
        <time>2026-04-22T07:48:23.000Z</time>
      </trkpt>
      <trkpt lat="59.0936779976" lon="29.9941563606">
        <time>2026-04-22T07:48:26.000Z</time>
      </trkpt>
      <trkpt lat="59.0936779976" lon="29.9941563606">
        <time>2026-04-22T07:48:28.000Z</time>
      </trkpt>
      <trkpt lat="59.0936779976" lon="29.994263649">
        <time>2026-04-22T07:48:31.000Z</time>
      </trkpt>
      <trkpt lat="59.0936779976" lon="29.9943494797">
        <time>2026-04-22T07:48:33.000Z</time>
      </trkpt>
      <trkpt lat="59.0936779976" lon="29.9943709373">
        <time>2026-04-22T07:48:36.000Z</time>
      </trkpt>
      <trkpt lat="59.0936779976" lon="29.9943709373">
        <time>2026-04-22T07:48:38.000Z</time>
      </trkpt>
      <trkpt lat="59.0936779976" lon="29.9943709373">
        <time>2026-04-22T07:48:41.000Z</time>
      </trkpt>
      <trkpt lat="59.0936779976" lon="29.9943709373">
        <time>2026-04-22T07:48:43.000Z</time>
      </trkpt>
      <trkpt lat="59.0936779976" lon="29.994392395">
        <time>2026-04-22T07:48:46.000Z</time>
      </trkpt>
      <trkpt lat="59.0936350822" lon="29.994456768">
        <time>2026-04-22T07:48:48.000Z</time>
      </trkpt>
      <trkpt lat="59.0935492516" lon="29.9944996834">
        <time>2026-04-22T07:48:51.000Z</time>
      </trkpt>
      <trkpt lat="59.0934419632" lon="29.9945211411">
        <time>2026-04-22T07:48:53.000Z</time>
      </trkpt>
      <trkpt lat="59.0934205055" lon="29.9945211411">
        <time>2026-04-22T07:48:56.000Z</time>
      </trkpt>
      <trkpt lat="59.0934419632" lon="29.9945211411">
        <time>2026-04-22T07:48:58.000Z</time>
      </trkpt>
      <trkpt lat="59.0934634209" lon="29.9945211411">
        <time>2026-04-22T07:49:01.000Z</time>
      </trkpt>
      <trkpt lat="59.0934634209" lon="29.9945211411">
        <time>2026-04-22T07:49:03.000Z</time>
      </trkpt>
      <trkpt lat="59.0934634209" lon="29.9945211411">
        <time>2026-04-22T07:49:06.000Z</time>
      </trkpt>
      <trkpt lat="59.0934634209" lon="29.9945211411">
        <time>2026-04-22T07:49:08.000Z</time>
      </trkpt>
      <trkpt lat="59.0934634209" lon="29.9945211411">
        <time>2026-04-22T07:49:11.000Z</time>
      </trkpt>
      <trkpt lat="59.0934634209" lon="29.9945211411">
        <time>2026-04-22T07:49:13.000Z</time>
      </trkpt>
      <trkpt lat="59.0934634209" lon="29.9945211411">
        <time>2026-04-22T07:49:16.000Z</time>
      </trkpt>
      <trkpt lat="59.0934634209" lon="29.9945211411">
        <time>2026-04-22T07:49:18.000Z</time>
      </trkpt>
      <trkpt lat="59.0934634209" lon="29.9945211411">
        <time>2026-04-22T07:49:21.000Z</time>
      </trkpt>
      <trkpt lat="59.0934634209" lon="29.9945211411">
        <time>2026-04-22T07:49:23.000Z</time>
      </trkpt>
      <trkpt lat="59.0934634209" lon="29.9945211411">
        <time>2026-04-22T07:49:26.000Z</time>
      </trkpt>
      <trkpt lat="59.0934634209" lon="29.9945211411">
        <time>2026-04-22T07:49:28.000Z</time>
      </trkpt>
      <trkpt lat="59.0934634209" lon="29.9945211411">
        <time>2026-04-22T07:49:31.000Z</time>
      </trkpt>
      <trkpt lat="59.0934634209" lon="29.9945211411">
        <time>2026-04-22T07:49:33.000Z</time>
      </trkpt>
      <trkpt lat="59.0934634209" lon="29.9945211411">
        <time>2026-04-22T07:49:36.000Z</time>
      </trkpt>
      <trkpt lat="59.0933990479" lon="29.9945211411">
        <time>2026-04-22T07:49:38.000Z</time>
      </trkpt>
      <trkpt lat="59.0933132172" lon="29.9944996834">
        <time>2026-04-22T07:49:41.000Z</time>
      </trkpt>
      <trkpt lat="59.0932273865" lon="29.9945425987">
        <time>2026-04-22T07:49:43.000Z</time>
      </trkpt>
      <trkpt lat="59.0931630135" lon="29.9945211411">
        <time>2026-04-22T07:49:46.000Z</time>
      </trkpt>
      <trkpt lat="59.0931415558" lon="29.9944996834">
        <time>2026-04-22T07:49:48.000Z</time>
      </trkpt>
      <trkpt lat="59.0931630135" lon="29.9945211411">
        <time>2026-04-22T07:49:51.000Z</time>
      </trkpt>
      <trkpt lat="59.0931630135" lon="29.9945211411">
        <time>2026-04-22T07:49:53.000Z</time>
      </trkpt>
      <trkpt lat="59.0931415558" lon="29.9944996834">
        <time>2026-04-22T07:49:56.000Z</time>
      </trkpt>
      <trkpt lat="59.0930771828" lon="29.9944782257">
        <time>2026-04-22T07:49:58.000Z</time>
      </trkpt>
      <trkpt lat="59.0930128098" lon="29.9944138527">
        <time>2026-04-22T07:50:01.000Z</time>
      </trkpt>
      <trkpt lat="59.0929698944" lon="29.994392395">
        <time>2026-04-22T07:50:03.000Z</time>
      </trkpt>
      <trkpt lat="59.0929484367" lon="29.994392395">
        <time>2026-04-22T07:50:06.000Z</time>
      </trkpt>
      <trkpt lat="59.0929055214" lon="29.994392395">
        <time>2026-04-22T07:50:08.000Z</time>
      </trkpt>
      <trkpt lat="59.092862606" lon="29.9944138527">
        <time>2026-04-22T07:50:11.000Z</time>
      </trkpt>
      <trkpt lat="59.0928196907" lon="29.9943709373">
        <time>2026-04-22T07:50:13.000Z</time>
      </trkpt>
      <trkpt lat="59.092798233" lon="29.9943065643">
        <time>2026-04-22T07:50:16.000Z</time>
      </trkpt>
      <trkpt lat="59.0927553177" lon="29.9943065643">
        <time>2026-04-22T07:50:18.000Z</time>
      </trkpt>
      <trkpt lat="59.0926909447" lon="29.9943065643">
        <time>2026-04-22T07:50:21.000Z</time>
      </trkpt>
      <trkpt lat="59.0926265717" lon="29.9942851067">
        <time>2026-04-22T07:50:23.000Z</time>
      </trkpt>
      <trkpt lat="59.0925836563" lon="29.9943065643">
        <time>2026-04-22T07:50:26.000Z</time>
      </trkpt>
      <trkpt lat="59.092540741" lon="29.994328022">
        <time>2026-04-22T07:50:28.000Z</time>
      </trkpt>
      <trkpt lat="59.0924978256" lon="29.9943709373">
        <time>2026-04-22T07:50:31.000Z</time>
      </trkpt>
      <trkpt lat="59.0924978256" lon="29.9943709373">
        <time>2026-04-22T07:50:33.000Z</time>
      </trkpt>
      <trkpt lat="59.0925192833" lon="29.9943494797">
        <time>2026-04-22T07:50:36.000Z</time>
      </trkpt>
      <trkpt lat="59.0925192833" lon="29.9942851067">
        <time>2026-04-22T07:50:38.000Z</time>
      </trkpt>
      <trkpt lat="59.0924549103" lon="29.9942851067">
        <time>2026-04-22T07:50:41.000Z</time>
      </trkpt>
      <trkpt lat="59.0923905373" lon="29.9943065643">
        <time>2026-04-22T07:50:43.000Z</time>
      </trkpt>
      <trkpt lat="59.0923047066" lon="29.994328022">
        <time>2026-04-22T07:50:46.000Z</time>
      </trkpt>
      <trkpt lat="59.0922617912" lon="29.9944353104">
        <time>2026-04-22T07:50:48.000Z</time>
      </trkpt>
      <trkpt lat="59.0923047066" lon="29.9943709373">
        <time>2026-04-22T07:50:51.000Z</time>
      </trkpt>
      <trkpt lat="59.0922832489" lon="29.9942207336">
        <time>2026-04-22T07:50:53.000Z</time>
      </trkpt>
      <trkpt lat="59.0922403336" lon="29.9941778183">
        <time>2026-04-22T07:50:56.000Z</time>
      </trkpt>
      <trkpt lat="59.0922188759" lon="29.9941563606">
        <time>2026-04-22T07:50:58.000Z</time>
      </trkpt>
      <trkpt lat="59.0921759605" lon="29.994134903">
        <time>2026-04-22T07:51:01.000Z</time>
      </trkpt>
      <trkpt lat="59.0921115875" lon="29.9941134453">
        <time>2026-04-22T07:51:03.000Z</time>
      </trkpt>
      <trkpt lat="59.0920042992" lon="29.9941134453">
        <time>2026-04-22T07:51:06.000Z</time>
      </trkpt>
      <trkpt lat="59.0918755531" lon="29.9940276146">
        <time>2026-04-22T07:51:08.000Z</time>
      </trkpt>
      <trkpt lat="59.0917682648" lon="29.9939846992">
        <time>2026-04-22T07:51:11.000Z</time>
      </trkpt>
      <trkpt lat="59.0916609764" lon="29.9939632416">
        <time>2026-04-22T07:51:13.000Z</time>
      </trkpt>
      <trkpt lat="59.0915751457" lon="29.9939203262">
        <time>2026-04-22T07:51:16.000Z</time>
      </trkpt>
      <trkpt lat="59.0915107727" lon="29.9938988686">
        <time>2026-04-22T07:51:18.000Z</time>
      </trkpt>
      <trkpt lat="59.0916180611" lon="29.9939203262">
        <time>2026-04-22T07:51:21.000Z</time>
      </trkpt>
      <trkpt lat="59.0917897224" lon="29.9939846992">
        <time>2026-04-22T07:51:23.000Z</time>
      </trkpt>
      <trkpt lat="59.0919399261" lon="29.9940490723">
        <time>2026-04-22T07:51:26.000Z</time>
      </trkpt>
      <trkpt lat="59.0918755531" lon="29.9939846992">
        <time>2026-04-22T07:51:28.000Z</time>
      </trkpt>
      <trkpt lat="59.0917468071" lon="29.9939417839">
        <time>2026-04-22T07:51:31.000Z</time>
      </trkpt>
      <trkpt lat="59.091553688" lon="29.9938988686">
        <time>2026-04-22T07:51:33.000Z</time>
      </trkpt>
      <trkpt lat="59.0914034843" lon="29.9938344955">
        <time>2026-04-22T07:51:36.000Z</time>
      </trkpt>
      <trkpt lat="59.091231823" lon="29.9937915802">
        <time>2026-04-22T07:51:38.000Z</time>
      </trkpt>
      <trkpt lat="59.0911030769" lon="29.9936842918">
        <time>2026-04-22T07:51:41.000Z</time>
      </trkpt>
      <trkpt lat="59.0909957886" lon="29.9935984612">
        <time>2026-04-22T07:51:43.000Z</time>
      </trkpt>
      <trkpt lat="59.0909528732" lon="29.9935984612">
        <time>2026-04-22T07:51:46.000Z</time>
      </trkpt>
      <trkpt lat="59.0909528732" lon="29.9935984612">
        <time>2026-04-22T07:51:48.000Z</time>
      </trkpt>
      <trkpt lat="59.0909528732" lon="29.9935984612">
        <time>2026-04-22T07:51:51.000Z</time>
      </trkpt>
      <trkpt lat="59.0910601616" lon="29.9936628342">
        <time>2026-04-22T07:51:53.000Z</time>
      </trkpt>
      <trkpt lat="59.091231823" lon="29.9937915802">
        <time>2026-04-22T07:51:56.000Z</time>
      </trkpt>
      <trkpt lat="59.091424942" lon="29.9938559532">
        <time>2026-04-22T07:51:58.000Z</time>
      </trkpt>
      <trkpt lat="59.0915107727" lon="29.9938774109">
        <time>2026-04-22T07:52:01.000Z</time>
      </trkpt>
      <trkpt lat="59.0914463997" lon="29.9938559532">
        <time>2026-04-22T07:52:03.000Z</time>
      </trkpt>
      <trkpt lat="59.0913391113" lon="29.9938130379">
        <time>2026-04-22T07:52:06.000Z</time>
      </trkpt>
      <trkpt lat="59.0912747383" lon="29.9938130379">
        <time>2026-04-22T07:52:08.000Z</time>
      </trkpt>
      <trkpt lat="59.0912532806" lon="29.9938130379">
        <time>2026-04-22T07:52:11.000Z</time>
      </trkpt>
      <trkpt lat="59.0912532806" lon="29.9938130379">
        <time>2026-04-22T07:52:13.000Z</time>
      </trkpt>
      <trkpt lat="59.0912532806" lon="29.9938130379">
        <time>2026-04-22T07:52:16.000Z</time>
      </trkpt>
      <trkpt lat="59.0912532806" lon="29.9938130379">
        <time>2026-04-22T07:52:18.000Z</time>
      </trkpt>
      <trkpt lat="59.0912532806" lon="29.9938130379">
        <time>2026-04-22T07:52:21.000Z</time>
      </trkpt>
      <trkpt lat="59.0912532806" lon="29.9938130379">
        <time>2026-04-22T07:52:23.000Z</time>
      </trkpt>
      <trkpt lat="59.0912532806" lon="29.9938130379">
        <time>2026-04-22T07:52:26.000Z</time>
      </trkpt>
      <trkpt lat="59.0912532806" lon="29.9938130379">
        <time>2026-04-22T07:52:28.000Z</time>
      </trkpt>
      <trkpt lat="59.0912532806" lon="29.9938130379">
        <time>2026-04-22T07:52:31.000Z</time>
      </trkpt>
      <trkpt lat="59.0912532806" lon="29.9938130379">
        <time>2026-04-22T07:52:33.000Z</time>
      </trkpt>
      <trkpt lat="59.0912532806" lon="29.9938130379">
        <time>2026-04-22T07:52:36.000Z</time>
      </trkpt>
      <trkpt lat="59.0912532806" lon="29.9938130379">
        <time>2026-04-22T07:52:38.000Z</time>
      </trkpt>
      <trkpt lat="59.0912532806" lon="29.9938130379">
        <time>2026-04-22T07:52:41.000Z</time>
      </trkpt>
      <trkpt lat="59.0912532806" lon="29.9938130379">
        <time>2026-04-22T07:52:43.000Z</time>
      </trkpt>
      <trkpt lat="59.0912532806" lon="29.9938130379">
        <time>2026-04-22T07:52:46.000Z</time>
      </trkpt>
      <trkpt lat="59.091231823" lon="29.9938559532">
        <time>2026-04-22T07:52:48.000Z</time>
      </trkpt>
      <trkpt lat="59.091231823" lon="29.9940061569">
        <time>2026-04-22T07:52:51.000Z</time>
      </trkpt>
      <trkpt lat="59.091231823" lon="29.9941134453">
        <time>2026-04-22T07:52:53.000Z</time>
      </trkpt>
      <trkpt lat="59.0912747383" lon="29.994134903">
        <time>2026-04-22T07:52:56.000Z</time>
      </trkpt>
      <trkpt lat="59.091296196" lon="29.9940490723">
        <time>2026-04-22T07:52:58.000Z</time>
      </trkpt>
      <trkpt lat="59.0913176537" lon="29.9938774109">
        <time>2026-04-22T07:53:01.000Z</time>
      </trkpt>
      <trkpt lat="59.0912103653" lon="29.9937915802">
        <time>2026-04-22T07:53:03.000Z</time>
      </trkpt>
      <trkpt lat="59.0909957886" lon="29.9936413765">
        <time>2026-04-22T07:53:06.000Z</time>
      </trkpt>
      <trkpt lat="59.0908670425" lon="29.9936199188">
        <time>2026-04-22T07:53:08.000Z</time>
      </trkpt>
      <trkpt lat="59.0906953812" lon="29.9935770035">
        <time>2026-04-22T07:53:11.000Z</time>
      </trkpt>
      <trkpt lat="59.0905451775" lon="29.9934911728">
        <time>2026-04-22T07:53:13.000Z</time>
      </trkpt>
      <trkpt lat="59.0904378891" lon="29.9933838844">
        <time>2026-04-22T07:53:16.000Z</time>
      </trkpt>
      <trkpt lat="59.0903949738" lon="29.9933195114">
        <time>2026-04-22T07:53:18.000Z</time>
      </trkpt>
      <trkpt lat="59.0904164314" lon="29.9933409691">
        <time>2026-04-22T07:53:21.000Z</time>
      </trkpt>
      <trkpt lat="59.0904378891" lon="29.9933624268">
        <time>2026-04-22T07:53:23.000Z</time>
      </trkpt>
      <trkpt lat="59.0904378891" lon="29.9933838844">
        <time>2026-04-22T07:53:26.000Z</time>
      </trkpt>
      <trkpt lat="59.0904593468" lon="29.9933838844">
        <time>2026-04-22T07:53:28.000Z</time>
      </trkpt>
      <trkpt lat="59.0904378891" lon="29.9933838844">
        <time>2026-04-22T07:53:31.000Z</time>
      </trkpt>
      <trkpt lat="59.0904378891" lon="29.9933838844">
        <time>2026-04-22T07:53:33.000Z</time>
      </trkpt>
      <trkpt lat="59.0904378891" lon="29.9933838844">
        <time>2026-04-22T07:53:36.000Z</time>
      </trkpt>
      <trkpt lat="59.0903520584" lon="29.9933195114">
        <time>2026-04-22T07:53:38.000Z</time>
      </trkpt>
      <trkpt lat="59.0902447701" lon="29.9933195114">
        <time>2026-04-22T07:53:41.000Z</time>
      </trkpt>
      <trkpt lat="59.090180397" lon="29.9933195114">
        <time>2026-04-22T07:53:43.000Z</time>
      </trkpt>
      <trkpt lat="59.0900731087" lon="29.9932765961">
        <time>2026-04-22T07:53:46.000Z</time>
      </trkpt>
      <trkpt lat="59.0899658203" lon="29.9932122231">
        <time>2026-04-22T07:53:48.000Z</time>
      </trkpt>
      <trkpt lat="59.0899443626" lon="29.9931907654">
        <time>2026-04-22T07:53:51.000Z</time>
      </trkpt>
      <trkpt lat="59.0899443626" lon="29.9931907654">
        <time>2026-04-22T07:53:53.000Z</time>
      </trkpt>
      <trkpt lat="59.0899443626" lon="29.9931907654">
        <time>2026-04-22T07:53:56.000Z</time>
      </trkpt>
      <trkpt lat="59.0899443626" lon="29.9931263924">
        <time>2026-04-22T07:53:58.000Z</time>
      </trkpt>
      <trkpt lat="59.0899443626" lon="29.9931263924">
        <time>2026-04-22T07:54:01.000Z</time>
      </trkpt>
      <trkpt lat="59.0899658203" lon="29.9932122231">
        <time>2026-04-22T07:54:03.000Z</time>
      </trkpt>
      <trkpt lat="59.0900731087" lon="29.9933195114">
        <time>2026-04-22T07:54:06.000Z</time>
      </trkpt>
      <trkpt lat="59.090180397" lon="29.9933409691">
        <time>2026-04-22T07:54:08.000Z</time>
      </trkpt>
      <trkpt lat="59.0902447701" lon="29.9933838844">
        <time>2026-04-22T07:54:11.000Z</time>
      </trkpt>
      <trkpt lat="59.0902018547" lon="29.9933624268">
        <time>2026-04-22T07:54:13.000Z</time>
      </trkpt>
      <trkpt lat="59.090116024" lon="29.9933624268">
        <time>2026-04-22T07:54:16.000Z</time>
      </trkpt>
      <trkpt lat="59.0900301933" lon="29.9933624268">
        <time>2026-04-22T07:54:18.000Z</time>
      </trkpt>
      <trkpt lat="59.089922905" lon="29.9933409691">
        <time>2026-04-22T07:54:21.000Z</time>
      </trkpt>
      <trkpt lat="59.0898156166" lon="29.9933195114">
        <time>2026-04-22T07:54:23.000Z</time>
      </trkpt>
      <trkpt lat="59.0897941589" lon="29.9931907654">
        <time>2026-04-22T07:54:26.000Z</time>
      </trkpt>
      <trkpt lat="59.0897512436" lon="29.9931049347">
        <time>2026-04-22T07:54:28.000Z</time>
      </trkpt>
      <trkpt lat="59.0897297859" lon="29.9931049347">
        <time>2026-04-22T07:54:31.000Z</time>
      </trkpt>
      <trkpt lat="59.0897297859" lon="29.9931049347">
        <time>2026-04-22T07:54:33.000Z</time>
      </trkpt>
      <trkpt lat="59.0897083282" lon="29.9931049347">
        <time>2026-04-22T07:54:36.000Z</time>
      </trkpt>
      <trkpt lat="59.0896439552" lon="29.993083477">
        <time>2026-04-22T07:54:38.000Z</time>
      </trkpt>
      <trkpt lat="59.0896010399" lon="29.993083477">
        <time>2026-04-22T07:54:41.000Z</time>
      </trkpt>
      <trkpt lat="59.0895795822" lon="29.993083477">
        <time>2026-04-22T07:54:43.000Z</time>
      </trkpt>
      <trkpt lat="59.0895795822" lon="29.9930620193">
        <time>2026-04-22T07:54:46.000Z</time>
      </trkpt>
      <trkpt lat="59.0895581245" lon="29.9930405617">
        <time>2026-04-22T07:54:48.000Z</time>
      </trkpt>
      <trkpt lat="59.0895152092" lon="29.9930405617">
        <time>2026-04-22T07:54:51.000Z</time>
      </trkpt>
      <trkpt lat="59.0894508362" lon="29.993083477">
        <time>2026-04-22T07:54:53.000Z</time>
      </trkpt>
      <trkpt lat="59.0894293785" lon="29.993083477">
        <time>2026-04-22T07:54:56.000Z</time>
      </trkpt>
      <trkpt lat="59.0893650055" lon="29.993083477">
        <time>2026-04-22T07:54:58.000Z</time>
      </trkpt>
      <trkpt lat="59.0892791748" lon="29.9930405617">
        <time>2026-04-22T07:55:01.000Z</time>
      </trkpt>
      <trkpt lat="59.0891933441" lon="29.993019104">
        <time>2026-04-22T07:55:03.000Z</time>
      </trkpt>
      <trkpt lat="59.0892148018" lon="29.9929976463">
        <time>2026-04-22T07:55:06.000Z</time>
      </trkpt>
      <trkpt lat="59.0891933441" lon="29.9929976463">
        <time>2026-04-22T07:55:08.000Z</time>
      </trkpt>
      <trkpt lat="59.0891718864" lon="29.9929118156">
        <time>2026-04-22T07:55:11.000Z</time>
      </trkpt>
      <trkpt lat="59.0891075134" lon="29.992890358">
        <time>2026-04-22T07:55:13.000Z</time>
      </trkpt>
      <trkpt lat="59.0890860558" lon="29.9929118156">
        <time>2026-04-22T07:55:16.000Z</time>
      </trkpt>
      <trkpt lat="59.0890645981" lon="29.992890358">
        <time>2026-04-22T07:55:18.000Z</time>
      </trkpt>
      <trkpt lat="59.0890216827" lon="29.9928689003">
        <time>2026-04-22T07:55:21.000Z</time>
      </trkpt>
      <trkpt lat="59.0890216827" lon="29.9928689003">
        <time>2026-04-22T07:55:23.000Z</time>
      </trkpt>
      <trkpt lat="59.0890216827" lon="29.9928689003">
        <time>2026-04-22T07:55:26.000Z</time>
      </trkpt>
      <trkpt lat="59.0890216827" lon="29.9928689003">
        <time>2026-04-22T07:55:28.000Z</time>
      </trkpt>
      <trkpt lat="59.0890216827" lon="29.9928689003">
        <time>2026-04-22T07:55:31.000Z</time>
      </trkpt>
      <trkpt lat="59.0890216827" lon="29.9928689003">
        <time>2026-04-22T07:55:33.000Z</time>
      </trkpt>
      <trkpt lat="59.0890216827" lon="29.9928689003">
        <time>2026-04-22T07:55:36.000Z</time>
      </trkpt>
      <trkpt lat="59.0889358521" lon="29.9928474426">
        <time>2026-04-22T07:55:38.000Z</time>
      </trkpt>
      <trkpt lat="59.088742733" lon="29.9927830696">
        <time>2026-04-22T07:55:41.000Z</time>
      </trkpt>
      <trkpt lat="59.088613987" lon="29.9927186966">
        <time>2026-04-22T07:55:43.000Z</time>
      </trkpt>
      <trkpt lat="59.0885281563" lon="29.9927401543">
        <time>2026-04-22T07:55:46.000Z</time>
      </trkpt>
      <trkpt lat="59.0884852409" lon="29.9928689003">
        <time>2026-04-22T07:55:48.000Z</time>
      </trkpt>
      <trkpt lat="59.0883994102" lon="29.9930405617">
        <time>2026-04-22T07:55:51.000Z</time>
      </trkpt>
      <trkpt lat="59.0883564949" lon="29.9930620193">
        <time>2026-04-22T07:55:53.000Z</time>
      </trkpt>
      <trkpt lat="59.0883994102" lon="29.9929976463">
        <time>2026-04-22T07:55:56.000Z</time>
      </trkpt>
      <trkpt lat="59.0884637833" lon="29.9928689003">
        <time>2026-04-22T07:55:58.000Z</time>
      </trkpt>
      <trkpt lat="59.088549614" lon="29.9927186966">
        <time>2026-04-22T07:56:01.000Z</time>
      </trkpt>
      <trkpt lat="59.088613987" lon="29.992825985">
        <time>2026-04-22T07:56:03.000Z</time>
      </trkpt>
      <trkpt lat="59.0885281563" lon="29.9929976463">
        <time>2026-04-22T07:56:06.000Z</time>
      </trkpt>
      <trkpt lat="59.0884423256" lon="29.9929976463">
        <time>2026-04-22T07:56:08.000Z</time>
      </trkpt>
      <trkpt lat="59.0883779526" lon="29.9929761887">
        <time>2026-04-22T07:56:11.000Z</time>
      </trkpt>
      <trkpt lat="59.0883994102" lon="29.9929976463">
        <time>2026-04-22T07:56:13.000Z</time>
      </trkpt>
      <trkpt lat="59.0883994102" lon="29.9929761887">
        <time>2026-04-22T07:56:16.000Z</time>
      </trkpt>
      <trkpt lat="59.0883994102" lon="29.9929761887">
        <time>2026-04-22T07:56:18.000Z</time>
      </trkpt>
      <trkpt lat="59.0883779526" lon="29.9929761887">
        <time>2026-04-22T07:56:21.000Z</time>
      </trkpt>
      <trkpt lat="59.0883135796" lon="29.992954731">
        <time>2026-04-22T07:56:23.000Z</time>
      </trkpt>
      <trkpt lat="59.0882706642" lon="29.9929332733">
        <time>2026-04-22T07:56:26.000Z</time>
      </trkpt>
      <trkpt lat="59.0882492065" lon="29.9929118156">
        <time>2026-04-22T07:56:28.000Z</time>
      </trkpt>
      <trkpt lat="59.0882277489" lon="29.9929118156">
        <time>2026-04-22T07:56:31.000Z</time>
      </trkpt>
      <trkpt lat="59.0882277489" lon="29.9929118156">
        <time>2026-04-22T07:56:33.000Z</time>
      </trkpt>
      <trkpt lat="59.0882277489" lon="29.9929118156">
        <time>2026-04-22T07:56:36.000Z</time>
      </trkpt>
      <trkpt lat="59.0882277489" lon="29.9929118156">
        <time>2026-04-22T07:56:38.000Z</time>
      </trkpt>
      <trkpt lat="59.0882062912" lon="29.9929118156">
        <time>2026-04-22T07:56:41.000Z</time>
      </trkpt>
      <trkpt lat="59.0881633759" lon="29.9929761887">
        <time>2026-04-22T07:56:43.000Z</time>
      </trkpt>
      <trkpt lat="59.0881419182" lon="29.9930620193">
        <time>2026-04-22T07:56:46.000Z</time>
      </trkpt>
      <trkpt lat="59.0880990028" lon="29.9931049347">
        <time>2026-04-22T07:56:48.000Z</time>
      </trkpt>
      <trkpt lat="59.0881204605" lon="29.9932122231">
        <time>2026-04-22T07:56:51.000Z</time>
      </trkpt>
      <trkpt lat="59.0881848335" lon="29.9932122231">
        <time>2026-04-22T07:56:53.000Z</time>
      </trkpt>
      <trkpt lat="59.0882492065" lon="29.993083477">
        <time>2026-04-22T07:56:56.000Z</time>
      </trkpt>
      <trkpt lat="59.0882492065" lon="29.9928689003">
        <time>2026-04-22T07:56:58.000Z</time>
      </trkpt>
      <trkpt lat="59.0882277489" lon="29.9928045273">
        <time>2026-04-22T07:57:01.000Z</time>
      </trkpt>
      <trkpt lat="59.0882062912" lon="29.9927401543">
        <time>2026-04-22T07:57:03.000Z</time>
      </trkpt>
      <trkpt lat="59.0880775452" lon="29.9928474426">
        <time>2026-04-22T07:57:06.000Z</time>
      </trkpt>
      <trkpt lat="59.0880346298" lon="29.9930620193">
        <time>2026-04-22T07:57:08.000Z</time>
      </trkpt>
      <trkpt lat="59.0879487991" lon="29.9932122231">
        <time>2026-04-22T07:57:11.000Z</time>
      </trkpt>
      <trkpt lat="59.0879058838" lon="29.9931907654">
        <time>2026-04-22T07:57:13.000Z</time>
      </trkpt>
      <trkpt lat="59.0878844261" lon="29.9931263924">
        <time>2026-04-22T07:57:16.000Z</time>
      </trkpt>
      <trkpt lat="59.0879058838" lon="29.9930405617">
        <time>2026-04-22T07:57:18.000Z</time>
      </trkpt>
      <trkpt lat="59.0879058838" lon="29.9929976463">
        <time>2026-04-22T07:57:21.000Z</time>
      </trkpt>
      <trkpt lat="59.0878844261" lon="29.9929761887">
        <time>2026-04-22T07:57:23.000Z</time>
      </trkpt>
      <trkpt lat="59.0877985954" lon="29.9929761887">
        <time>2026-04-22T07:57:26.000Z</time>
      </trkpt>
      <trkpt lat="59.0877127647" lon="29.9929332733">
        <time>2026-04-22T07:57:28.000Z</time>
      </trkpt>
      <trkpt lat="59.087562561" lon="29.9928689003">
        <time>2026-04-22T07:57:31.000Z</time>
      </trkpt>
      <trkpt lat="59.087498188" lon="29.9927186966">
        <time>2026-04-22T07:57:33.000Z</time>
      </trkpt>
      <trkpt lat="59.087562561" lon="29.9925899506">
        <time>2026-04-22T07:57:36.000Z</time>
      </trkpt>
      <trkpt lat="59.0876913071" lon="29.9924826622">
        <time>2026-04-22T07:57:38.000Z</time>
      </trkpt>
      <trkpt lat="59.0878200531" lon="29.9924397469">
        <time>2026-04-22T07:57:41.000Z</time>
      </trkpt>
      <trkpt lat="59.0879487991" lon="29.9924612045">
        <time>2026-04-22T07:57:43.000Z</time>
      </trkpt>
      <trkpt lat="59.0879273415" lon="29.9925470352">
        <time>2026-04-22T07:57:46.000Z</time>
      </trkpt>
      <trkpt lat="59.0879058838" lon="29.9927616119">
        <time>2026-04-22T07:57:48.000Z</time>
      </trkpt>
      <trkpt lat="59.0878629684" lon="29.9929761887">
        <time>2026-04-22T07:57:51.000Z</time>
      </trkpt>
      <trkpt lat="59.0878415108" lon="29.9931263924">
        <time>2026-04-22T07:57:53.000Z</time>
      </trkpt>
      <trkpt lat="59.0877985954" lon="29.9932122231">
        <time>2026-04-22T07:57:56.000Z</time>
      </trkpt>
      <trkpt lat="59.0877342224" lon="29.9931907654">
        <time>2026-04-22T07:57:58.000Z</time>
      </trkpt>
      <trkpt lat="59.0877127647" lon="29.9931049347">
        <time>2026-04-22T07:58:01.000Z</time>
      </trkpt>
      <trkpt lat="59.0876698494" lon="29.9931263924">
        <time>2026-04-22T07:58:03.000Z</time>
      </trkpt>
      <trkpt lat="59.0875411034" lon="29.9930620193">
        <time>2026-04-22T07:58:06.000Z</time>
      </trkpt>
      <trkpt lat="59.087433815" lon="29.9929976463">
        <time>2026-04-22T07:58:08.000Z</time>
      </trkpt>
      <trkpt lat="59.0874552727" lon="29.992954731">
        <time>2026-04-22T07:58:11.000Z</time>
      </trkpt>
      <trkpt lat="59.0874767303" lon="29.992890358">
        <time>2026-04-22T07:58:13.000Z</time>
      </trkpt>
      <trkpt lat="59.0875196457" lon="29.9927616119">
        <time>2026-04-22T07:58:16.000Z</time>
      </trkpt>
      <trkpt lat="59.087562561" lon="29.9927616119">
        <time>2026-04-22T07:58:18.000Z</time>
      </trkpt>
      <trkpt lat="59.0875411034" lon="29.9927616119">
        <time>2026-04-22T07:58:21.000Z</time>
      </trkpt>
      <trkpt lat="59.0875196457" lon="29.9926972389">
        <time>2026-04-22T07:58:23.000Z</time>
      </trkpt>
      <trkpt lat="59.0874123573" lon="29.9926543236">
        <time>2026-04-22T07:58:26.000Z</time>
      </trkpt>
      <trkpt lat="59.087305069" lon="29.9926972389">
        <time>2026-04-22T07:58:28.000Z</time>
      </trkpt>
      <trkpt lat="59.0871977806" lon="29.9926543236">
        <time>2026-04-22T07:58:31.000Z</time>
      </trkpt>
      <trkpt lat="59.0871548653" lon="29.9926328659">
        <time>2026-04-22T07:58:33.000Z</time>
      </trkpt>
      <trkpt lat="59.0870904922" lon="29.9926114082">
        <time>2026-04-22T07:58:36.000Z</time>
      </trkpt>
      <trkpt lat="59.0870904922" lon="29.9926114082">
        <time>2026-04-22T07:58:38.000Z</time>
      </trkpt>
      <trkpt lat="59.0871119499" lon="29.9926114082">
        <time>2026-04-22T07:58:41.000Z</time>
      </trkpt>
      <trkpt lat="59.0871334076" lon="29.9925470352">
        <time>2026-04-22T07:58:43.000Z</time>
      </trkpt>
      <trkpt lat="59.0871334076" lon="29.9924182892">
        <time>2026-04-22T07:58:46.000Z</time>
      </trkpt>
      <trkpt lat="59.0871334076" lon="29.9924182892">
        <time>2026-04-22T07:58:48.000Z</time>
      </trkpt>
      <trkpt lat="59.0871334076" lon="29.9924182892">
        <time>2026-04-22T07:58:51.000Z</time>
      </trkpt>
      <trkpt lat="59.0871548653" lon="29.9923539162">
        <time>2026-04-22T07:58:53.000Z</time>
      </trkpt>
      <trkpt lat="59.0870904922" lon="29.9922251701">
        <time>2026-04-22T07:58:56.000Z</time>
      </trkpt>
      <trkpt lat="59.0870475769" lon="29.9922251701">
        <time>2026-04-22T07:58:58.000Z</time>
      </trkpt>
      <trkpt lat="59.0869832039" lon="29.9922466278">
        <time>2026-04-22T07:59:01.000Z</time>
      </trkpt>
      <trkpt lat="59.0869402885" lon="29.9922251701">
        <time>2026-04-22T07:59:03.000Z</time>
      </trkpt>
      <trkpt lat="59.0868973732" lon="29.9921822548">
        <time>2026-04-22T07:59:06.000Z</time>
      </trkpt>
      <trkpt lat="59.0868544579" lon="29.9921822548">
        <time>2026-04-22T07:59:08.000Z</time>
      </trkpt>
      <trkpt lat="59.0868115425" lon="29.9922037125">
        <time>2026-04-22T07:59:11.000Z</time>
      </trkpt>
      <trkpt lat="59.0867686272" lon="29.9921822548">
        <time>2026-04-22T07:59:13.000Z</time>
      </trkpt>
      <trkpt lat="59.0867042542" lon="29.9921607971">
        <time>2026-04-22T07:59:16.000Z</time>
      </trkpt>
      <trkpt lat="59.0866613388" lon="29.9921393394">
        <time>2026-04-22T07:59:18.000Z</time>
      </trkpt>
      <trkpt lat="59.0866613388" lon="29.9921393394">
        <time>2026-04-22T07:59:21.000Z</time>
      </trkpt>
      <trkpt lat="59.0866613388" lon="29.9921393394">
        <time>2026-04-22T07:59:23.000Z</time>
      </trkpt>
      <trkpt lat="59.0865969658" lon="29.9921178818">
        <time>2026-04-22T07:59:26.000Z</time>
      </trkpt>
      <trkpt lat="59.0865111351" lon="29.9920964241">
        <time>2026-04-22T07:59:28.000Z</time>
      </trkpt>
      <trkpt lat="59.0864253044" lon="29.9920535088">
        <time>2026-04-22T07:59:31.000Z</time>
      </trkpt>
      <trkpt lat="59.0863823891" lon="29.9920320511">
        <time>2026-04-22T07:59:33.000Z</time>
      </trkpt>
      <trkpt lat="59.0864038467" lon="29.9920535088">
        <time>2026-04-22T07:59:36.000Z</time>
      </trkpt>
      <trkpt lat="59.0864038467" lon="29.9920535088">
        <time>2026-04-22T07:59:38.000Z</time>
      </trkpt>
      <trkpt lat="59.0864038467" lon="29.9920535088">
        <time>2026-04-22T07:59:41.000Z</time>
      </trkpt>
      <trkpt lat="59.0863609314" lon="29.9920320511">
        <time>2026-04-22T07:59:43.000Z</time>
      </trkpt>
      <trkpt lat="59.0862321854" lon="29.9920105934">
        <time>2026-04-22T07:59:46.000Z</time>
      </trkpt>
      <trkpt lat="59.086124897" lon="29.9919891357">
        <time>2026-04-22T07:59:48.000Z</time>
      </trkpt>
      <trkpt lat="59.0860176086" lon="29.9919676781">
        <time>2026-04-22T07:59:51.000Z</time>
      </trkpt>
      <trkpt lat="59.0859746933" lon="29.9919676781">
        <time>2026-04-22T07:59:53.000Z</time>
      </trkpt>
      <trkpt lat="59.0859746933" lon="29.9919676781">
        <time>2026-04-22T07:59:56.000Z</time>
      </trkpt>
      <trkpt lat="59.0859746933" lon="29.9919676781">
        <time>2026-04-22T07:59:58.000Z</time>
      </trkpt>
      <trkpt lat="59.085996151" lon="29.9919676781">
        <time>2026-04-22T08:00:01.000Z</time>
      </trkpt>
      <trkpt lat="59.085996151" lon="29.9919676781">
        <time>2026-04-22T08:00:03.000Z</time>
      </trkpt>
      <trkpt lat="59.085996151" lon="29.9919676781">
        <time>2026-04-22T08:00:06.000Z</time>
      </trkpt>
      <trkpt lat="59.085996151" lon="29.9919676781">
        <time>2026-04-22T08:00:08.000Z</time>
      </trkpt>
      <trkpt lat="59.085996151" lon="29.9919676781">
        <time>2026-04-22T08:00:11.000Z</time>
      </trkpt>
      <trkpt lat="59.0859746933" lon="29.9919462204">
        <time>2026-04-22T08:00:13.000Z</time>
      </trkpt>
      <trkpt lat="59.085931778" lon="29.9918818474">
        <time>2026-04-22T08:00:16.000Z</time>
      </trkpt>
      <trkpt lat="59.0858459473" lon="29.9918603897">
        <time>2026-04-22T08:00:18.000Z</time>
      </trkpt>
      <trkpt lat="59.0858244896" lon="29.9918174744">
        <time>2026-04-22T08:00:21.000Z</time>
      </trkpt>
      <trkpt lat="59.0858244896" lon="29.9918174744">
        <time>2026-04-22T08:00:23.000Z</time>
      </trkpt>
      <trkpt lat="59.0857386589" lon="29.991774559">
        <time>2026-04-22T08:00:26.000Z</time>
      </trkpt>
      <trkpt lat="59.0856957436" lon="29.9917531013">
        <time>2026-04-22T08:00:28.000Z</time>
      </trkpt>
      <trkpt lat="59.0856528282" lon="29.9917316437">
        <time>2026-04-22T08:00:31.000Z</time>
      </trkpt>
      <trkpt lat="59.0855884552" lon="29.991710186">
        <time>2026-04-22T08:00:33.000Z</time>
      </trkpt>
      <trkpt lat="59.0855884552" lon="29.9917316437">
        <time>2026-04-22T08:00:36.000Z</time>
      </trkpt>
      <trkpt lat="59.0855884552" lon="29.991710186">
        <time>2026-04-22T08:00:38.000Z</time>
      </trkpt>
      <trkpt lat="59.0855026245" lon="29.991710186">
        <time>2026-04-22T08:00:41.000Z</time>
      </trkpt>
      <trkpt lat="59.0854167938" lon="29.9916887283">
        <time>2026-04-22T08:00:43.000Z</time>
      </trkpt>
      <trkpt lat="59.0853095055" lon="29.9916672707">
        <time>2026-04-22T08:00:46.000Z</time>
      </trkpt>
      <trkpt lat="59.0852451324" lon="29.991645813">
        <time>2026-04-22T08:00:48.000Z</time>
      </trkpt>
      <trkpt lat="59.0852665901" lon="29.991645813">
        <time>2026-04-22T08:00:51.000Z</time>
      </trkpt>
      <trkpt lat="59.0852665901" lon="29.9916672707">
        <time>2026-04-22T08:00:53.000Z</time>
      </trkpt>
      <trkpt lat="59.0853524208" lon="29.9916887283">
        <time>2026-04-22T08:00:56.000Z</time>
      </trkpt>
      <trkpt lat="59.0854382515" lon="29.9916887283">
        <time>2026-04-22T08:00:58.000Z</time>
      </trkpt>
      <trkpt lat="59.0854167938" lon="29.9916672707">
        <time>2026-04-22T08:01:01.000Z</time>
      </trkpt>
      <trkpt lat="59.0853738785" lon="29.9916887283">
        <time>2026-04-22T08:01:03.000Z</time>
      </trkpt>
      <trkpt lat="59.0852451324" lon="29.991645813">
        <time>2026-04-22T08:01:06.000Z</time>
      </trkpt>
      <trkpt lat="59.0851378441" lon="29.9916243553">
        <time>2026-04-22T08:01:08.000Z</time>
      </trkpt>
      <trkpt lat="59.0850305557" lon="29.9916243553">
        <time>2026-04-22T08:01:11.000Z</time>
      </trkpt>
      <trkpt lat="59.084944725" lon="29.9916028976">
        <time>2026-04-22T08:01:13.000Z</time>
      </trkpt>
      <trkpt lat="59.084880352" lon="29.9915599823">
        <time>2026-04-22T08:01:16.000Z</time>
      </trkpt>
      <trkpt lat="59.0848374367" lon="29.9915385246">
        <time>2026-04-22T08:01:18.000Z</time>
      </trkpt>
      <trkpt lat="59.0848588943" lon="29.9915599823">
        <time>2026-04-22T08:01:21.000Z</time>
      </trkpt>
      <trkpt lat="59.0849232674" lon="29.9916028976">
        <time>2026-04-22T08:01:23.000Z</time>
      </trkpt>
      <trkpt lat="59.0850734711" lon="29.991645813">
        <time>2026-04-22T08:01:26.000Z</time>
      </trkpt>
      <trkpt lat="59.0851807594" lon="29.991710186">
        <time>2026-04-22T08:01:28.000Z</time>
      </trkpt>
      <trkpt lat="59.0851593018" lon="29.991838932">
        <time>2026-04-22T08:01:31.000Z</time>
      </trkpt>
      <trkpt lat="59.0851378441" lon="29.9919462204">
        <time>2026-04-22T08:01:33.000Z</time>
      </trkpt>
      <trkpt lat="59.0851593018" lon="29.9919462204">
        <time>2026-04-22T08:01:36.000Z</time>
      </trkpt>
      <trkpt lat="59.0851807594" lon="29.9919676781">
        <time>2026-04-22T08:01:38.000Z</time>
      </trkpt>
      <trkpt lat="59.0851807594" lon="29.9920105934">
        <time>2026-04-22T08:01:41.000Z</time>
      </trkpt>
      <trkpt lat="59.0851807594" lon="29.9920105934">
        <time>2026-04-22T08:01:43.000Z</time>
      </trkpt>
      <trkpt lat="59.0851807594" lon="29.9920105934">
        <time>2026-04-22T08:01:46.000Z</time>
      </trkpt>
      <trkpt lat="59.0851807594" lon="29.9920105934">
        <time>2026-04-22T08:01:48.000Z</time>
      </trkpt>
      <trkpt lat="59.0851807594" lon="29.9920105934">
        <time>2026-04-22T08:01:51.000Z</time>
      </trkpt>
      <trkpt lat="59.0851807594" lon="29.9920105934">
        <time>2026-04-22T08:01:53.000Z</time>
      </trkpt>
      <trkpt lat="59.0851807594" lon="29.9919891357">
        <time>2026-04-22T08:01:56.000Z</time>
      </trkpt>
      <trkpt lat="59.0851163864" lon="29.9919247627">
        <time>2026-04-22T08:01:58.000Z</time>
      </trkpt>
      <trkpt lat="59.0850734711" lon="29.9919033051">
        <time>2026-04-22T08:02:01.000Z</time>
      </trkpt>
      <trkpt lat="59.0850520134" lon="29.991838932">
        <time>2026-04-22T08:02:03.000Z</time>
      </trkpt>
      <trkpt lat="59.0850520134" lon="29.9918174744">
        <time>2026-04-22T08:02:06.000Z</time>
      </trkpt>
      <trkpt lat="59.0850305557" lon="29.991774559">
        <time>2026-04-22T08:02:08.000Z</time>
      </trkpt>
      <trkpt lat="59.0849876404" lon="29.991645813">
        <time>2026-04-22T08:02:11.000Z</time>
      </trkpt>
      <trkpt lat="59.0849232674" lon="29.9916028976">
        <time>2026-04-22T08:02:13.000Z</time>
      </trkpt>
      <trkpt lat="59.0848374367" lon="29.9915599823">
        <time>2026-04-22T08:02:16.000Z</time>
      </trkpt>
      <trkpt lat="59.084815979" lon="29.99158144">
        <time>2026-04-22T08:02:18.000Z</time>
      </trkpt>
      <trkpt lat="59.0848374367" lon="29.9916028976">
        <time>2026-04-22T08:02:21.000Z</time>
      </trkpt>
      <trkpt lat="59.0848374367" lon="29.9917531013">
        <time>2026-04-22T08:02:23.000Z</time>
      </trkpt>
      <trkpt lat="59.084815979" lon="29.991774559">
        <time>2026-04-22T08:02:26.000Z</time>
      </trkpt>
      <trkpt lat="59.0847945213" lon="29.9917531013">
        <time>2026-04-22T08:02:28.000Z</time>
      </trkpt>
      <trkpt lat="59.084751606" lon="29.9917316437">
        <time>2026-04-22T08:02:31.000Z</time>
      </trkpt>
      <trkpt lat="59.0847086906" lon="29.9916887283">
        <time>2026-04-22T08:02:33.000Z</time>
      </trkpt>
      <trkpt lat="59.0847086906" lon="29.991710186">
        <time>2026-04-22T08:02:36.000Z</time>
      </trkpt>
      <trkpt lat="59.0847086906" lon="29.9916887283">
        <time>2026-04-22T08:02:38.000Z</time>
      </trkpt>
      <trkpt lat="59.084687233" lon="29.991645813">
        <time>2026-04-22T08:02:41.000Z</time>
      </trkpt>
      <trkpt lat="59.0846443176" lon="29.9916243553">
        <time>2026-04-22T08:02:43.000Z</time>
      </trkpt>
      <trkpt lat="59.08462286" lon="29.9916243553">
        <time>2026-04-22T08:02:46.000Z</time>
      </trkpt>
      <trkpt lat="59.0845799446" lon="29.99158144">
        <time>2026-04-22T08:02:48.000Z</time>
      </trkpt>
      <trkpt lat="59.0845370293" lon="29.991517067">
        <time>2026-04-22T08:02:51.000Z</time>
      </trkpt>
      <trkpt lat="59.0845370293" lon="29.9914526939">
        <time>2026-04-22T08:02:53.000Z</time>
      </trkpt>
      <trkpt lat="59.0845155716" lon="29.9914097786">
        <time>2026-04-22T08:02:56.000Z</time>
      </trkpt>
      <trkpt lat="59.0844726562" lon="29.9914097786">
        <time>2026-04-22T08:02:58.000Z</time>
      </trkpt>
      <trkpt lat="59.0844297409" lon="29.9914097786">
        <time>2026-04-22T08:03:01.000Z</time>
      </trkpt>
      <trkpt lat="59.0843868256" lon="29.9914312363">
        <time>2026-04-22T08:03:03.000Z</time>
      </trkpt>
      <trkpt lat="59.0843868256" lon="29.9914312363">
        <time>2026-04-22T08:03:06.000Z</time>
      </trkpt>
      <trkpt lat="59.0843868256" lon="29.9915385246">
        <time>2026-04-22T08:03:08.000Z</time>
      </trkpt>
      <trkpt lat="59.0844082832" lon="29.9916243553">
        <time>2026-04-22T08:03:11.000Z</time>
      </trkpt>
      <trkpt lat="59.0843653679" lon="29.991645813">
        <time>2026-04-22T08:03:13.000Z</time>
      </trkpt>
      <trkpt lat="59.0843009949" lon="29.991645813">
        <time>2026-04-22T08:03:16.000Z</time>
      </trkpt>
      <trkpt lat="59.0842795372" lon="29.9916243553">
        <time>2026-04-22T08:03:18.000Z</time>
      </trkpt>
      <trkpt lat="59.0842580795" lon="29.991645813">
        <time>2026-04-22T08:03:21.000Z</time>
      </trkpt>
      <trkpt lat="59.0842151642" lon="29.9916243553">
        <time>2026-04-22T08:03:23.000Z</time>
      </trkpt>
      <trkpt lat="59.0841722488" lon="29.9916243553">
        <time>2026-04-22T08:03:26.000Z</time>
      </trkpt>
      <trkpt lat="59.0841507912" lon="29.9916028976">
        <time>2026-04-22T08:03:28.000Z</time>
      </trkpt>
      <trkpt lat="59.0841293335" lon="29.99158144">
        <time>2026-04-22T08:03:31.000Z</time>
      </trkpt>
      <trkpt lat="59.0841078758" lon="29.9915599823">
        <time>2026-04-22T08:03:33.000Z</time>
      </trkpt>
      <trkpt lat="59.0840435028" lon="29.99158144">
        <time>2026-04-22T08:03:36.000Z</time>
      </trkpt>
      <trkpt lat="59.0840220451" lon="29.991645813">
        <time>2026-04-22T08:03:38.000Z</time>
      </trkpt>
      <trkpt lat="59.0840220451" lon="29.9916243553">
        <time>2026-04-22T08:03:41.000Z</time>
      </trkpt>
      <trkpt lat="59.0840005875" lon="29.9916672707">
        <time>2026-04-22T08:03:43.000Z</time>
      </trkpt>
      <trkpt lat="59.0839791298" lon="29.991774559">
        <time>2026-04-22T08:03:46.000Z</time>
      </trkpt>
      <trkpt lat="59.0839576721" lon="29.9917960167">
        <time>2026-04-22T08:03:48.000Z</time>
      </trkpt>
      <trkpt lat="59.0839791298" lon="29.9917960167">
        <time>2026-04-22T08:03:51.000Z</time>
      </trkpt>
      <trkpt lat="59.0839791298" lon="29.9917960167">
        <time>2026-04-22T08:03:53.000Z</time>
      </trkpt>
      <trkpt lat="59.0839791298" lon="29.9917960167">
        <time>2026-04-22T08:03:56.000Z</time>
      </trkpt>
      <trkpt lat="59.0839791298" lon="29.9917960167">
        <time>2026-04-22T08:03:58.000Z</time>
      </trkpt>
      <trkpt lat="59.0839791298" lon="29.9917960167">
        <time>2026-04-22T08:04:01.000Z</time>
      </trkpt>
      <trkpt lat="59.0839791298" lon="29.9917960167">
        <time>2026-04-22T08:04:03.000Z</time>
      </trkpt>
      <trkpt lat="59.0839791298" lon="29.9917960167">
        <time>2026-04-22T08:04:06.000Z</time>
      </trkpt>
      <trkpt lat="59.0839791298" lon="29.9917960167">
        <time>2026-04-22T08:04:08.000Z</time>
      </trkpt>
      <trkpt lat="59.0839791298" lon="29.9917960167">
        <time>2026-04-22T08:04:11.000Z</time>
      </trkpt>
      <trkpt lat="59.0839791298" lon="29.9917960167">
        <time>2026-04-22T08:04:13.000Z</time>
      </trkpt>
      <trkpt lat="59.0839791298" lon="29.9917960167">
        <time>2026-04-22T08:04:16.000Z</time>
      </trkpt>
      <trkpt lat="59.0839791298" lon="29.9917960167">
        <time>2026-04-22T08:04:18.000Z</time>
      </trkpt>
      <trkpt lat="59.0839576721" lon="29.9916243553">
        <time>2026-04-22T08:04:21.000Z</time>
      </trkpt>
      <trkpt lat="59.0838718414" lon="29.9915599823">
        <time>2026-04-22T08:04:23.000Z</time>
      </trkpt>
      <trkpt lat="59.0838074684" lon="29.9914956093">
        <time>2026-04-22T08:04:26.000Z</time>
      </trkpt>
      <trkpt lat="59.0837645531" lon="29.9914956093">
        <time>2026-04-22T08:04:28.000Z</time>
      </trkpt>
      <trkpt lat="59.0837216377" lon="29.9914741516">
        <time>2026-04-22T08:04:31.000Z</time>
      </trkpt>
      <trkpt lat="59.0836787224" lon="29.9914526939">
        <time>2026-04-22T08:04:33.000Z</time>
      </trkpt>
      <trkpt lat="59.083635807" lon="29.9914312363">
        <time>2026-04-22T08:04:36.000Z</time>
      </trkpt>
      <trkpt lat="59.0836143494" lon="29.9914526939">
        <time>2026-04-22T08:04:38.000Z</time>
      </trkpt>
      <trkpt lat="59.0835928917" lon="29.9914097786">
        <time>2026-04-22T08:04:41.000Z</time>
      </trkpt>
      <trkpt lat="59.0835285187" lon="29.9913883209">
        <time>2026-04-22T08:04:43.000Z</time>
      </trkpt>
      <trkpt lat="59.083507061" lon="29.9913883209">
        <time>2026-04-22T08:04:46.000Z</time>
      </trkpt>
      <trkpt lat="59.0834856033" lon="29.9914312363">
        <time>2026-04-22T08:04:48.000Z</time>
      </trkpt>
      <trkpt lat="59.0834856033" lon="29.9914741516">
        <time>2026-04-22T08:04:51.000Z</time>
      </trkpt>
      <trkpt lat="59.0834641457" lon="29.991517067">
        <time>2026-04-22T08:04:53.000Z</time>
      </trkpt>
      <trkpt lat="59.083442688" lon="29.991517067">
        <time>2026-04-22T08:04:56.000Z</time>
      </trkpt>
      <trkpt lat="59.0834212303" lon="29.9914741516">
        <time>2026-04-22T08:04:58.000Z</time>
      </trkpt>
      <trkpt lat="59.0834212303" lon="29.9913668633">
        <time>2026-04-22T08:05:01.000Z</time>
      </trkpt>
      <trkpt lat="59.083378315" lon="29.9913239479">
        <time>2026-04-22T08:05:03.000Z</time>
      </trkpt>
      <trkpt lat="59.083313942" lon="29.9913239479">
        <time>2026-04-22T08:05:06.000Z</time>
      </trkpt>
      <trkpt lat="59.0832710266" lon="29.9913024902">
        <time>2026-04-22T08:05:08.000Z</time>
      </trkpt>
      <trkpt lat="59.0832281113" lon="29.9912810326">
        <time>2026-04-22T08:05:11.000Z</time>
      </trkpt>
      <trkpt lat="59.0832066536" lon="29.9911952019">
        <time>2026-04-22T08:05:13.000Z</time>
      </trkpt>
      <trkpt lat="59.0832066536" lon="29.9912166595">
        <time>2026-04-22T08:05:16.000Z</time>
      </trkpt>
      <trkpt lat="59.0831637383" lon="29.9912381172">
        <time>2026-04-22T08:05:18.000Z</time>
      </trkpt>
      <trkpt lat="59.0831208229" lon="29.9912381172">
        <time>2026-04-22T08:05:21.000Z</time>
      </trkpt>
      <trkpt lat="59.0830779076" lon="29.9912595749">
        <time>2026-04-22T08:05:23.000Z</time>
      </trkpt>
      <trkpt lat="59.0830993652" lon="29.9912381172">
        <time>2026-04-22T08:05:26.000Z</time>
      </trkpt>
      <trkpt lat="59.0831422806" lon="29.9911093712">
        <time>2026-04-22T08:05:28.000Z</time>
      </trkpt>
      <trkpt lat="59.0830993652" lon="29.9911308289">
        <time>2026-04-22T08:05:31.000Z</time>
      </trkpt>
      <trkpt lat="59.0830135345" lon="29.9910664558">
        <time>2026-04-22T08:05:33.000Z</time>
      </trkpt>
      <trkpt lat="59.0829491615" lon="29.9910235405">
        <time>2026-04-22T08:05:36.000Z</time>
      </trkpt>
      <trkpt lat="59.0828847885" lon="29.9910020828">
        <time>2026-04-22T08:05:38.000Z</time>
      </trkpt>
      <trkpt lat="59.0828418732" lon="29.9910020828">
        <time>2026-04-22T08:05:41.000Z</time>
      </trkpt>
      <trkpt lat="59.0827989578" lon="29.9909806252">
        <time>2026-04-22T08:05:43.000Z</time>
      </trkpt>
      <trkpt lat="59.0827775002" lon="29.9910020828">
        <time>2026-04-22T08:05:46.000Z</time>
      </trkpt>
      <trkpt lat="59.0827989578" lon="29.9910020828">
        <time>2026-04-22T08:05:48.000Z</time>
      </trkpt>
      <trkpt lat="59.0828418732" lon="29.9909162521">
        <time>2026-04-22T08:05:51.000Z</time>
      </trkpt>
      <trkpt lat="59.0828418732" lon="29.9907875061">
        <time>2026-04-22T08:05:53.000Z</time>
      </trkpt>
      <trkpt lat="59.0827775002" lon="29.9907660484">
        <time>2026-04-22T08:05:56.000Z</time>
      </trkpt>
      <trkpt lat="59.0827345848" lon="29.9907660484">
        <time>2026-04-22T08:05:58.000Z</time>
      </trkpt>
      <trkpt lat="59.0827560425" lon="29.9908518791">
        <time>2026-04-22T08:06:01.000Z</time>
      </trkpt>
      <trkpt lat="59.0826916695" lon="29.9909591675">
        <time>2026-04-22T08:06:03.000Z</time>
      </trkpt>
      <trkpt lat="59.0825414658" lon="29.9909162521">
        <time>2026-04-22T08:06:06.000Z</time>
      </trkpt>
      <trkpt lat="59.0824341774" lon="29.9908947945">
        <time>2026-04-22T08:06:08.000Z</time>
      </trkpt>
      <trkpt lat="59.0823483467" lon="29.9908947945">
        <time>2026-04-22T08:06:11.000Z</time>
      </trkpt>
      <trkpt lat="59.0822839737" lon="29.9908518791">
        <time>2026-04-22T08:06:13.000Z</time>
      </trkpt>
      <trkpt lat="59.082262516" lon="29.9908518791">
        <time>2026-04-22T08:06:16.000Z</time>
      </trkpt>
      <trkpt lat="59.0823054314" lon="29.9908733368">
        <time>2026-04-22T08:06:18.000Z</time>
      </trkpt>
      <trkpt lat="59.0824127197" lon="29.9908947945">
        <time>2026-04-22T08:06:21.000Z</time>
      </trkpt>
      <trkpt lat="59.0824770927" lon="29.9908947945">
        <time>2026-04-22T08:06:23.000Z</time>
      </trkpt>
      <trkpt lat="59.0824341774" lon="29.9908733368">
        <time>2026-04-22T08:06:26.000Z</time>
      </trkpt>
      <trkpt lat="59.0823912621" lon="29.9908733368">
        <time>2026-04-22T08:06:28.000Z</time>
      </trkpt>
      <trkpt lat="59.0823483467" lon="29.9908304214">
        <time>2026-04-22T08:06:31.000Z</time>
      </trkpt>
      <trkpt lat="59.082262516" lon="29.9908518791">
        <time>2026-04-22T08:06:33.000Z</time>
      </trkpt>
      <trkpt lat="59.0821766853" lon="29.9907875061">
        <time>2026-04-22T08:06:36.000Z</time>
      </trkpt>
      <trkpt lat="59.0820908546" lon="29.9907875061">
        <time>2026-04-22T08:06:38.000Z</time>
      </trkpt>
      <trkpt lat="59.0820908546" lon="29.9908089638">
        <time>2026-04-22T08:06:41.000Z</time>
      </trkpt>
      <trkpt lat="59.0820908546" lon="29.9907875061">
        <time>2026-04-22T08:06:43.000Z</time>
      </trkpt>
      <trkpt lat="59.0820479393" lon="29.9908089638">
        <time>2026-04-22T08:06:46.000Z</time>
      </trkpt>
      <trkpt lat="59.0820264816" lon="29.9907875061">
        <time>2026-04-22T08:06:48.000Z</time>
      </trkpt>
      <trkpt lat="59.0819621086" lon="29.9907445908">
        <time>2026-04-22T08:06:51.000Z</time>
      </trkpt>
      <trkpt lat="59.0819191933" lon="29.9907445908">
        <time>2026-04-22T08:06:53.000Z</time>
      </trkpt>
      <trkpt lat="59.0818977356" lon="29.9907445908">
        <time>2026-04-22T08:06:56.000Z</time>
      </trkpt>
      <trkpt lat="59.0818977356" lon="29.9907231331">
        <time>2026-04-22T08:06:58.000Z</time>
      </trkpt>
      <trkpt lat="59.0818333626" lon="29.9907016754">
        <time>2026-04-22T08:07:01.000Z</time>
      </trkpt>
      <trkpt lat="59.0817689896" lon="29.9906802177">
        <time>2026-04-22T08:07:03.000Z</time>
      </trkpt>
      <trkpt lat="59.0817046165" lon="29.9906587601">
        <time>2026-04-22T08:07:06.000Z</time>
      </trkpt>
      <trkpt lat="59.0816831589" lon="29.9906802177">
        <time>2026-04-22T08:07:08.000Z</time>
      </trkpt>
      <trkpt lat="59.0816831589" lon="29.9907231331">
        <time>2026-04-22T08:07:11.000Z</time>
      </trkpt>
      <trkpt lat="59.0816402435" lon="29.9907875061">
        <time>2026-04-22T08:07:13.000Z</time>
      </trkpt>
      <trkpt lat="59.0816187859" lon="29.9907445908">
        <time>2026-04-22T08:07:16.000Z</time>
      </trkpt>
      <trkpt lat="59.0816187859" lon="29.9907445908">
        <time>2026-04-22T08:07:18.000Z</time>
      </trkpt>
      <trkpt lat="59.0816187859" lon="29.9907016754">
        <time>2026-04-22T08:07:21.000Z</time>
      </trkpt>
      <trkpt lat="59.0815973282" lon="29.9906373024">
        <time>2026-04-22T08:07:23.000Z</time>
      </trkpt>
      <trkpt lat="59.0815329552" lon="29.9906158447">
        <time>2026-04-22T08:07:26.000Z</time>
      </trkpt>
      <trkpt lat="59.0815114975" lon="29.9905943871">
        <time>2026-04-22T08:07:28.000Z</time>
      </trkpt>
      <trkpt lat="59.0814900398" lon="29.9906587601">
        <time>2026-04-22T08:07:31.000Z</time>
      </trkpt>
      <trkpt lat="59.0814900398" lon="29.9906587601">
        <time>2026-04-22T08:07:33.000Z</time>
      </trkpt>
      <trkpt lat="59.0814900398" lon="29.9906587601">
        <time>2026-04-22T08:07:36.000Z</time>
      </trkpt>
      <trkpt lat="59.0814685822" lon="29.9906802177">
        <time>2026-04-22T08:07:38.000Z</time>
      </trkpt>
      <trkpt lat="59.0814685822" lon="29.9907016754">
        <time>2026-04-22T08:07:41.000Z</time>
      </trkpt>
      <trkpt lat="59.0814471245" lon="29.9907016754">
        <time>2026-04-22T08:07:43.000Z</time>
      </trkpt>
      <trkpt lat="59.0814471245" lon="29.9907016754">
        <time>2026-04-22T08:07:46.000Z</time>
      </trkpt>
      <trkpt lat="59.0814471245" lon="29.9907016754">
        <time>2026-04-22T08:07:48.000Z</time>
      </trkpt>
      <trkpt lat="59.0814042091" lon="29.9905943871">
        <time>2026-04-22T08:07:51.000Z</time>
      </trkpt>
      <trkpt lat="59.0813398361" lon="29.990530014">
        <time>2026-04-22T08:07:53.000Z</time>
      </trkpt>
      <trkpt lat="59.0812540054" lon="29.9905514717">
        <time>2026-04-22T08:07:56.000Z</time>
      </trkpt>
      <trkpt lat="59.0811681747" lon="29.990465641">
        <time>2026-04-22T08:07:58.000Z</time>
      </trkpt>
      <trkpt lat="59.0811252594" lon="29.9904441833">
        <time>2026-04-22T08:08:01.000Z</time>
      </trkpt>
      <trkpt lat="59.0811038017" lon="29.990465641">
        <time>2026-04-22T08:08:03.000Z</time>
      </trkpt>
      <trkpt lat="59.0811038017" lon="29.9905085564">
        <time>2026-04-22T08:08:06.000Z</time>
      </trkpt>
      <trkpt lat="59.0811038017" lon="29.990530014">
        <time>2026-04-22T08:08:08.000Z</time>
      </trkpt>
      <trkpt lat="59.0811038017" lon="29.9905514717">
        <time>2026-04-22T08:08:11.000Z</time>
      </trkpt>
      <trkpt lat="59.0810823441" lon="29.9905085564">
        <time>2026-04-22T08:08:13.000Z</time>
      </trkpt>
      <trkpt lat="59.0809965134" lon="29.990401268">
        <time>2026-04-22T08:08:16.000Z</time>
      </trkpt>
      <trkpt lat="59.0809321404" lon="29.9904227257">
        <time>2026-04-22T08:08:18.000Z</time>
      </trkpt>
      <trkpt lat="59.0809106827" lon="29.9904441833">
        <time>2026-04-22T08:08:21.000Z</time>
      </trkpt>
      <trkpt lat="59.0808677673" lon="29.990401268">
        <time>2026-04-22T08:08:23.000Z</time>
      </trkpt>
      <trkpt lat="59.0808033943" lon="29.990401268">
        <time>2026-04-22T08:08:26.000Z</time>
      </trkpt>
      <trkpt lat="59.0808033943" lon="29.990465641">
        <time>2026-04-22T08:08:28.000Z</time>
      </trkpt>
      <trkpt lat="59.0808033943" lon="29.990465641">
        <time>2026-04-22T08:08:31.000Z</time>
      </trkpt>
      <trkpt lat="59.0808033943" lon="29.990465641">
        <time>2026-04-22T08:08:33.000Z</time>
      </trkpt>
      <trkpt lat="59.0808033943" lon="29.9904870987">
        <time>2026-04-22T08:08:36.000Z</time>
      </trkpt>
      <trkpt lat="59.080760479" lon="29.9905085564">
        <time>2026-04-22T08:08:38.000Z</time>
      </trkpt>
      <trkpt lat="59.080760479" lon="29.990530014">
        <time>2026-04-22T08:08:41.000Z</time>
      </trkpt>
      <trkpt lat="59.0807819366" lon="29.9905729294">
        <time>2026-04-22T08:08:43.000Z</time>
      </trkpt>
      <trkpt lat="59.0807819366" lon="29.9906373024">
        <time>2026-04-22T08:08:46.000Z</time>
      </trkpt>
      <trkpt lat="59.0808033943" lon="29.9906802177">
        <time>2026-04-22T08:08:48.000Z</time>
      </trkpt>
      <trkpt lat="59.0808033943" lon="29.9907445908">
        <time>2026-04-22T08:08:51.000Z</time>
      </trkpt>
      <trkpt lat="59.0808033943" lon="29.9908304214">
        <time>2026-04-22T08:08:53.000Z</time>
      </trkpt>
      <trkpt lat="59.0808033943" lon="29.9908518791">
        <time>2026-04-22T08:08:56.000Z</time>
      </trkpt>
      <trkpt lat="59.0808033943" lon="29.9908947945">
        <time>2026-04-22T08:08:58.000Z</time>
      </trkpt>
      <trkpt lat="59.0807819366" lon="29.9909377098">
        <time>2026-04-22T08:09:01.000Z</time>
      </trkpt>
      <trkpt lat="59.080760479" lon="29.9909591675">
        <time>2026-04-22T08:09:03.000Z</time>
      </trkpt>
      <trkpt lat="59.080760479" lon="29.9909591675">
        <time>2026-04-22T08:09:06.000Z</time>
      </trkpt>
      <trkpt lat="59.0807819366" lon="29.9909806252">
        <time>2026-04-22T08:09:08.000Z</time>
      </trkpt>
      <trkpt lat="59.0808463097" lon="29.9910235405">
        <time>2026-04-22T08:09:11.000Z</time>
      </trkpt>
      <trkpt lat="59.0809106827" lon="29.9910449982">
        <time>2026-04-22T08:09:13.000Z</time>
      </trkpt>
      <trkpt lat="59.0809106827" lon="29.9910664558">
        <time>2026-04-22T08:09:16.000Z</time>
      </trkpt>
      <trkpt lat="59.0809106827" lon="29.9910664558">
        <time>2026-04-22T08:09:18.000Z</time>
      </trkpt>
      <trkpt lat="59.0809106827" lon="29.9910879135">
        <time>2026-04-22T08:09:21.000Z</time>
      </trkpt>
      <trkpt lat="59.0809106827" lon="29.9910664558">
        <time>2026-04-22T08:09:23.000Z</time>
      </trkpt>
      <trkpt lat="59.0809106827" lon="29.9910664558">
        <time>2026-04-22T08:09:26.000Z</time>
      </trkpt>
      <trkpt lat="59.0809106827" lon="29.9910664558">
        <time>2026-04-22T08:09:28.000Z</time>
      </trkpt>
      <trkpt lat="59.0809106827" lon="29.9910664558">
        <time>2026-04-22T08:09:31.000Z</time>
      </trkpt>
      <trkpt lat="59.0809106827" lon="29.9910664558">
        <time>2026-04-22T08:09:33.000Z</time>
      </trkpt>
      <trkpt lat="59.0809106827" lon="29.9910664558">
        <time>2026-04-22T08:09:36.000Z</time>
      </trkpt>
      <trkpt lat="59.0809106827" lon="29.9910664558">
        <time>2026-04-22T08:09:38.000Z</time>
      </trkpt>
      <trkpt lat="59.0809106827" lon="29.9910664558">
        <time>2026-04-22T08:09:41.000Z</time>
      </trkpt>
      <trkpt lat="59.0809106827" lon="29.9910664558">
        <time>2026-04-22T08:09:43.000Z</time>
      </trkpt>
      <trkpt lat="59.0809106827" lon="29.9910664558">
        <time>2026-04-22T08:09:46.000Z</time>
      </trkpt>
      <trkpt lat="59.0809106827" lon="29.9910664558">
        <time>2026-04-22T08:09:48.000Z</time>
      </trkpt>
      <trkpt lat="59.0809106827" lon="29.9910664558">
        <time>2026-04-22T08:09:51.000Z</time>
      </trkpt>
      <trkpt lat="59.0809106827" lon="29.9910664558">
        <time>2026-04-22T08:09:53.000Z</time>
      </trkpt>
      <trkpt lat="59.0809106827" lon="29.9911952019">
        <time>2026-04-22T08:09:56.000Z</time>
      </trkpt>
      <trkpt lat="59.0809106827" lon="29.9913024902">
        <time>2026-04-22T08:09:58.000Z</time>
      </trkpt>
      <trkpt lat="59.0809321404" lon="29.9913883209">
        <time>2026-04-22T08:10:01.000Z</time>
      </trkpt>
      <trkpt lat="59.0809321404" lon="29.9914097786">
        <time>2026-04-22T08:10:03.000Z</time>
      </trkpt>
      <trkpt lat="59.0809106827" lon="29.9914956093">
        <time>2026-04-22T08:10:06.000Z</time>
      </trkpt>
      <trkpt lat="59.080889225" lon="29.9914741516">
        <time>2026-04-22T08:10:08.000Z</time>
      </trkpt>
      <trkpt lat="59.0809321404" lon="29.9914741516">
        <time>2026-04-22T08:10:11.000Z</time>
      </trkpt>
      <trkpt lat="59.080953598" lon="29.9914312363">
        <time>2026-04-22T08:10:13.000Z</time>
      </trkpt>
      <trkpt lat="59.080953598" lon="29.9914741516">
        <time>2026-04-22T08:10:16.000Z</time>
      </trkpt>
      <trkpt lat="59.080953598" lon="29.9914312363">
        <time>2026-04-22T08:10:18.000Z</time>
      </trkpt>
      <trkpt lat="59.080953598" lon="29.9914741516">
        <time>2026-04-22T08:10:21.000Z</time>
      </trkpt>
      <trkpt lat="59.0809750557" lon="29.9916243553">
        <time>2026-04-22T08:10:23.000Z</time>
      </trkpt>
      <trkpt lat="59.081017971" lon="29.9918603897">
        <time>2026-04-22T08:10:26.000Z</time>
      </trkpt>
      <trkpt lat="59.081017971" lon="29.9919891357">
        <time>2026-04-22T08:10:28.000Z</time>
      </trkpt>
      <trkpt lat="59.0810608864" lon="29.9920535088">
        <time>2026-04-22T08:10:31.000Z</time>
      </trkpt>
      <trkpt lat="59.0810823441" lon="29.9921178818">
        <time>2026-04-22T08:10:33.000Z</time>
      </trkpt>
      <trkpt lat="59.0810823441" lon="29.9922466278">
        <time>2026-04-22T08:10:36.000Z</time>
      </trkpt>
      <trkpt lat="59.0811038017" lon="29.9922466278">
        <time>2026-04-22T08:10:38.000Z</time>
      </trkpt>
      <trkpt lat="59.0810823441" lon="29.9922037125">
        <time>2026-04-22T08:10:41.000Z</time>
      </trkpt>
      <trkpt lat="59.0811038017" lon="29.9920964241">
        <time>2026-04-22T08:10:43.000Z</time>
      </trkpt>
      <trkpt lat="59.0811467171" lon="29.9920749664">
        <time>2026-04-22T08:10:46.000Z</time>
      </trkpt>
      <trkpt lat="59.0811896324" lon="29.9922037125">
        <time>2026-04-22T08:10:48.000Z</time>
      </trkpt>
      <trkpt lat="59.0811467171" lon="29.9923753738">
        <time>2026-04-22T08:10:51.000Z</time>
      </trkpt>
      <trkpt lat="59.0811038017" lon="29.9924612045">
        <time>2026-04-22T08:10:53.000Z</time>
      </trkpt>
      <trkpt lat="59.0810823441" lon="29.9925470352">
        <time>2026-04-22T08:10:56.000Z</time>
      </trkpt>
      <trkpt lat="59.0810823441" lon="29.9925899506">
        <time>2026-04-22T08:10:58.000Z</time>
      </trkpt>
      <trkpt lat="59.0811038017" lon="29.9926757813">
        <time>2026-04-22T08:11:01.000Z</time>
      </trkpt>
      <trkpt lat="59.0811038017" lon="29.9927186966">
        <time>2026-04-22T08:11:03.000Z</time>
      </trkpt>
      <trkpt lat="59.0811252594" lon="29.9927830696">
        <time>2026-04-22T08:11:06.000Z</time>
      </trkpt>
      <trkpt lat="59.0811038017" lon="29.9927830696">
        <time>2026-04-22T08:11:08.000Z</time>
      </trkpt>
      <trkpt lat="59.0811252594" lon="29.9928474426">
        <time>2026-04-22T08:11:11.000Z</time>
      </trkpt>
      <trkpt lat="59.0811467171" lon="29.9929332733">
        <time>2026-04-22T08:11:13.000Z</time>
      </trkpt>
      <trkpt lat="59.0811467171" lon="29.993019104">
        <time>2026-04-22T08:11:16.000Z</time>
      </trkpt>
      <trkpt lat="59.0811681747" lon="29.9931049347">
        <time>2026-04-22T08:11:18.000Z</time>
      </trkpt>
      <trkpt lat="59.0811896324" lon="29.9932122231">
        <time>2026-04-22T08:11:21.000Z</time>
      </trkpt>
      <trkpt lat="59.0811896324" lon="29.9932765961">
        <time>2026-04-22T08:11:23.000Z</time>
      </trkpt>
      <trkpt lat="59.0811896324" lon="29.9933409691">
        <time>2026-04-22T08:11:26.000Z</time>
      </trkpt>
      <trkpt lat="59.0812110901" lon="29.9934053421">
        <time>2026-04-22T08:11:28.000Z</time>
      </trkpt>
      <trkpt lat="59.0812325478" lon="29.9934697151">
        <time>2026-04-22T08:11:31.000Z</time>
      </trkpt>
      <trkpt lat="59.0812325478" lon="29.9934911728">
        <time>2026-04-22T08:11:33.000Z</time>
      </trkpt>
      <trkpt lat="59.0812325478" lon="29.9935126305">
        <time>2026-04-22T08:11:36.000Z</time>
      </trkpt>
      <trkpt lat="59.0812540054" lon="29.9935555458">
        <time>2026-04-22T08:11:38.000Z</time>
      </trkpt>
      <trkpt lat="59.0812325478" lon="29.9935555458">
        <time>2026-04-22T08:11:41.000Z</time>
      </trkpt>
      <trkpt lat="59.0812325478" lon="29.9935770035">
        <time>2026-04-22T08:11:43.000Z</time>
      </trkpt>
      <trkpt lat="59.0812540054" lon="29.9936413765">
        <time>2026-04-22T08:11:46.000Z</time>
      </trkpt>
      <trkpt lat="59.0812754631" lon="29.9937486649">
        <time>2026-04-22T08:11:48.000Z</time>
      </trkpt>
      <trkpt lat="59.0812754631" lon="29.9939417839">
        <time>2026-04-22T08:11:51.000Z</time>
      </trkpt>
      <trkpt lat="59.0812969208" lon="29.9940705299">
        <time>2026-04-22T08:11:53.000Z</time>
      </trkpt>
      <trkpt lat="59.0812969208" lon="29.9941563606">
        <time>2026-04-22T08:11:56.000Z</time>
      </trkpt>
      <trkpt lat="59.0812969208" lon="29.9942207336">
        <time>2026-04-22T08:11:58.000Z</time>
      </trkpt>
      <trkpt lat="59.0813183784" lon="29.9942421913">
        <time>2026-04-22T08:12:01.000Z</time>
      </trkpt>
      <trkpt lat="59.0813183784" lon="29.9942421913">
        <time>2026-04-22T08:12:03.000Z</time>
      </trkpt>
      <trkpt lat="59.0812754631" lon="29.9941134453">
        <time>2026-04-22T08:12:06.000Z</time>
      </trkpt>
      <trkpt lat="59.0812754631" lon="29.9938988686">
        <time>2026-04-22T08:12:08.000Z</time>
      </trkpt>
      <trkpt lat="59.0812969208" lon="29.9938559532">
        <time>2026-04-22T08:12:11.000Z</time>
      </trkpt>
      <trkpt lat="59.0813398361" lon="29.9938130379">
        <time>2026-04-22T08:12:13.000Z</time>
      </trkpt>
      <trkpt lat="59.0813183784" lon="29.9938130379">
        <time>2026-04-22T08:12:16.000Z</time>
      </trkpt>
      <trkpt lat="59.0812969208" lon="29.9939417839">
        <time>2026-04-22T08:12:18.000Z</time>
      </trkpt>
      <trkpt lat="59.0813183784" lon="29.9941778183">
        <time>2026-04-22T08:12:21.000Z</time>
      </trkpt>
      <trkpt lat="59.0813398361" lon="29.9943494797">
        <time>2026-04-22T08:12:23.000Z</time>
      </trkpt>
      <trkpt lat="59.0813612938" lon="29.9945211411">
        <time>2026-04-22T08:12:26.000Z</time>
      </trkpt>
      <trkpt lat="59.0813612938" lon="29.9945425987">
        <time>2026-04-22T08:12:28.000Z</time>
      </trkpt>
      <trkpt lat="59.0813612938" lon="29.9945211411">
        <time>2026-04-22T08:12:31.000Z</time>
      </trkpt>
      <trkpt lat="59.0813612938" lon="29.9944353104">
        <time>2026-04-22T08:12:33.000Z</time>
      </trkpt>
      <trkpt lat="59.0813183784" lon="29.9943709373">
        <time>2026-04-22T08:12:36.000Z</time>
      </trkpt>
      <trkpt lat="59.0813398361" lon="29.9944138527">
        <time>2026-04-22T08:12:38.000Z</time>
      </trkpt>
      <trkpt lat="59.0813827515" lon="29.994456768">
        <time>2026-04-22T08:12:41.000Z</time>
      </trkpt>
      <trkpt lat="59.0814471245" lon="29.9945211411">
        <time>2026-04-22T08:12:43.000Z</time>
      </trkpt>
      <trkpt lat="59.0814900398" lon="29.9946284294">
        <time>2026-04-22T08:12:46.000Z</time>
      </trkpt>
      <trkpt lat="59.0815114975" lon="29.9946928024">
        <time>2026-04-22T08:12:48.000Z</time>
      </trkpt>
      <trkpt lat="59.0815114975" lon="29.9947142601">
        <time>2026-04-22T08:12:51.000Z</time>
      </trkpt>
      <trkpt lat="59.0815114975" lon="29.9946713448">
        <time>2026-04-22T08:12:53.000Z</time>
      </trkpt>
      <trkpt lat="59.0814471245" lon="29.9946713448">
        <time>2026-04-22T08:12:56.000Z</time>
      </trkpt>
      <trkpt lat="59.0814471245" lon="29.9947786331">
        <time>2026-04-22T08:12:58.000Z</time>
      </trkpt>
      <trkpt lat="59.0814256668" lon="29.9948859215">
        <time>2026-04-22T08:13:01.000Z</time>
      </trkpt>
      <trkpt lat="59.0814256668" lon="29.9949932098">
        <time>2026-04-22T08:13:03.000Z</time>
      </trkpt>
      <trkpt lat="59.0814471245" lon="29.9950790405">
        <time>2026-04-22T08:13:06.000Z</time>
      </trkpt>
      <trkpt lat="59.0814471245" lon="29.9950790405">
        <time>2026-04-22T08:13:08.000Z</time>
      </trkpt>
      <trkpt lat="59.0814900398" lon="29.9951219559">
        <time>2026-04-22T08:13:11.000Z</time>
      </trkpt>
      <trkpt lat="59.0814900398" lon="29.9951863289">
        <time>2026-04-22T08:13:13.000Z</time>
      </trkpt>
      <trkpt lat="59.0814900398" lon="29.9952077866">
        <time>2026-04-22T08:13:16.000Z</time>
      </trkpt>
      <trkpt lat="59.0814900398" lon="29.9952077866">
        <time>2026-04-22T08:13:18.000Z</time>
      </trkpt>
      <trkpt lat="59.0814900398" lon="29.9952292442">
        <time>2026-04-22T08:13:21.000Z</time>
      </trkpt>
      <trkpt lat="59.0815329552" lon="29.9952721596">
        <time>2026-04-22T08:13:23.000Z</time>
      </trkpt>
      <trkpt lat="59.0815758705" lon="29.9954223633">
        <time>2026-04-22T08:13:26.000Z</time>
      </trkpt>
      <trkpt lat="59.0815973282" lon="29.9955511093">
        <time>2026-04-22T08:13:28.000Z</time>
      </trkpt>
      <trkpt lat="59.0815973282" lon="29.9956583977">
        <time>2026-04-22T08:13:31.000Z</time>
      </trkpt>
      <trkpt lat="59.0815758705" lon="29.9957227707">
        <time>2026-04-22T08:13:33.000Z</time>
      </trkpt>
      <trkpt lat="59.0815758705" lon="29.995765686">
        <time>2026-04-22T08:13:36.000Z</time>
      </trkpt>
      <trkpt lat="59.0815544128" lon="29.9957227707">
        <time>2026-04-22T08:13:38.000Z</time>
      </trkpt>
      <trkpt lat="59.0815544128" lon="29.9957227707">
        <time>2026-04-22T08:13:41.000Z</time>
      </trkpt>
      <trkpt lat="59.0815114975" lon="29.9957442284">
        <time>2026-04-22T08:13:43.000Z</time>
      </trkpt>
      <trkpt lat="59.0814685822" lon="29.9957871437">
        <time>2026-04-22T08:13:46.000Z</time>
      </trkpt>
      <trkpt lat="59.0814471245" lon="29.9958300591">
        <time>2026-04-22T08:13:48.000Z</time>
      </trkpt>
      <trkpt lat="59.0814042091" lon="29.9959158897">
        <time>2026-04-22T08:13:51.000Z</time>
      </trkpt>
      <trkpt lat="59.0814042091" lon="29.9960446358">
        <time>2026-04-22T08:13:53.000Z</time>
      </trkpt>
      <trkpt lat="59.0814685822" lon="29.9961948395">
        <time>2026-04-22T08:13:56.000Z</time>
      </trkpt>
      <trkpt lat="59.0815329552" lon="29.9963235855">
        <time>2026-04-22T08:13:58.000Z</time>
      </trkpt>
      <trkpt lat="59.0815758705" lon="29.9963021278">
        <time>2026-04-22T08:14:01.000Z</time>
      </trkpt>
      <trkpt lat="59.0815544128" lon="29.9963021278">
        <time>2026-04-22T08:14:03.000Z</time>
      </trkpt>
      <trkpt lat="59.0815758705" lon="29.9963235855">
        <time>2026-04-22T08:14:06.000Z</time>
      </trkpt>
      <trkpt lat="59.0815973282" lon="29.9964308739">
        <time>2026-04-22T08:14:08.000Z</time>
      </trkpt>
      <trkpt lat="59.0815973282" lon="29.9964523315">
        <time>2026-04-22T08:14:11.000Z</time>
      </trkpt>
      <trkpt lat="59.0815973282" lon="29.9964523315">
        <time>2026-04-22T08:14:13.000Z</time>
      </trkpt>
      <trkpt lat="59.0815973282" lon="29.9964523315">
        <time>2026-04-22T08:14:16.000Z</time>
      </trkpt>
      <trkpt lat="59.0815973282" lon="29.9964523315">
        <time>2026-04-22T08:14:18.000Z</time>
      </trkpt>
      <trkpt lat="59.0815973282" lon="29.9964523315">
        <time>2026-04-22T08:14:21.000Z</time>
      </trkpt>
      <trkpt lat="59.0815973282" lon="29.9964523315">
        <time>2026-04-22T08:14:23.000Z</time>
      </trkpt>
      <trkpt lat="59.0815973282" lon="29.9964523315">
        <time>2026-04-22T08:14:26.000Z</time>
      </trkpt>
      <trkpt lat="59.0815973282" lon="29.9964523315">
        <time>2026-04-22T08:14:28.000Z</time>
      </trkpt>
      <trkpt lat="59.0815973282" lon="29.9964523315">
        <time>2026-04-22T08:14:31.000Z</time>
      </trkpt>
      <trkpt lat="59.0815973282" lon="29.9964523315">
        <time>2026-04-22T08:14:33.000Z</time>
      </trkpt>
      <trkpt lat="59.0815973282" lon="29.9964523315">
        <time>2026-04-22T08:14:36.000Z</time>
      </trkpt>
      <trkpt lat="59.0815758705" lon="29.9964094162">
        <time>2026-04-22T08:14:38.000Z</time>
      </trkpt>
      <trkpt lat="59.0815758705" lon="29.9963879585">
        <time>2026-04-22T08:14:41.000Z</time>
      </trkpt>
      <trkpt lat="59.0815758705" lon="29.9963879585">
        <time>2026-04-22T08:14:43.000Z</time>
      </trkpt>
      <trkpt lat="59.0815758705" lon="29.9963879585">
        <time>2026-04-22T08:14:46.000Z</time>
      </trkpt>
      <trkpt lat="59.0815758705" lon="29.9963879585">
        <time>2026-04-22T08:14:48.000Z</time>
      </trkpt>
      <trkpt lat="59.0815758705" lon="29.9963879585">
        <time>2026-04-22T08:14:51.000Z</time>
      </trkpt>
      <trkpt lat="59.0815758705" lon="29.9963665009">
        <time>2026-04-22T08:14:53.000Z</time>
      </trkpt>
      <trkpt lat="59.0815544128" lon="29.9963450432">
        <time>2026-04-22T08:14:56.000Z</time>
      </trkpt>
      <trkpt lat="59.0815758705" lon="29.9964308739">
        <time>2026-04-22T08:14:58.000Z</time>
      </trkpt>
      <trkpt lat="59.0816187859" lon="29.9966239929">
        <time>2026-04-22T08:15:01.000Z</time>
      </trkpt>
      <trkpt lat="59.0816187859" lon="29.996752739">
        <time>2026-04-22T08:15:03.000Z</time>
      </trkpt>
      <trkpt lat="59.0816402435" lon="29.996881485">
        <time>2026-04-22T08:15:06.000Z</time>
      </trkpt>
      <trkpt lat="59.0816617012" lon="29.996881485">
        <time>2026-04-22T08:15:08.000Z</time>
      </trkpt>
      <trkpt lat="59.0816617012" lon="29.9969029427">
        <time>2026-04-22T08:15:11.000Z</time>
      </trkpt>
      <trkpt lat="59.0816617012" lon="29.9970316887">
        <time>2026-04-22T08:15:13.000Z</time>
      </trkpt>
      <trkpt lat="59.0816831589" lon="29.9972033501">
        <time>2026-04-22T08:15:16.000Z</time>
      </trkpt>
      <trkpt lat="59.0817046165" lon="29.9973750114">
        <time>2026-04-22T08:15:18.000Z</time>
      </trkpt>
      <trkpt lat="59.0817260742" lon="29.9975895882">
        <time>2026-04-22T08:15:21.000Z</time>
      </trkpt>
      <trkpt lat="59.0817260742" lon="29.9976968765">
        <time>2026-04-22T08:15:23.000Z</time>
      </trkpt>
      <trkpt lat="59.0817260742" lon="29.9976754189">
        <time>2026-04-22T08:15:26.000Z</time>
      </trkpt>
      <trkpt lat="59.0817046165" lon="29.9976110458">
        <time>2026-04-22T08:15:28.000Z</time>
      </trkpt>
      <trkpt lat="59.0816831589" lon="29.9973964691">
        <time>2026-04-22T08:15:31.000Z</time>
      </trkpt>
      <trkpt lat="59.0816617012" lon="29.9972248077">
        <time>2026-04-22T08:15:33.000Z</time>
      </trkpt>
      <trkpt lat="59.0816617012" lon="29.9972891808">
        <time>2026-04-22T08:15:36.000Z</time>
      </trkpt>
      <trkpt lat="59.0816831589" lon="29.9973535538">
        <time>2026-04-22T08:15:38.000Z</time>
      </trkpt>
      <trkpt lat="59.0817260742" lon="29.9976110458">
        <time>2026-04-22T08:15:41.000Z</time>
      </trkpt>
      <trkpt lat="59.0817689896" lon="29.9979543686">
        <time>2026-04-22T08:15:43.000Z</time>
      </trkpt>
      <trkpt lat="59.0818333626" lon="29.9982976913">
        <time>2026-04-22T08:15:46.000Z</time>
      </trkpt>
      <trkpt lat="59.0818548203" lon="29.9986195564">
        <time>2026-04-22T08:15:48.000Z</time>
      </trkpt>
      <trkpt lat="59.0818977356" lon="29.9988555908">
        <time>2026-04-22T08:15:51.000Z</time>
      </trkpt>
      <trkpt lat="59.0818977356" lon="29.9988985062">
        <time>2026-04-22T08:15:53.000Z</time>
      </trkpt>
      <trkpt lat="59.0818977356" lon="29.9989628792">
        <time>2026-04-22T08:15:56.000Z</time>
      </trkpt>
      <trkpt lat="59.0819191933" lon="29.9990487099">
        <time>2026-04-22T08:15:58.000Z</time>
      </trkpt>
      <trkpt lat="59.0819191933" lon="29.9991345406">
        <time>2026-04-22T08:16:01.000Z</time>
      </trkpt>
      <trkpt lat="59.0819191933" lon="29.9991345406">
        <time>2026-04-22T08:16:03.000Z</time>
      </trkpt>
      <trkpt lat="59.0818977356" lon="29.9991130829">
        <time>2026-04-22T08:16:06.000Z</time>
      </trkpt>
      <trkpt lat="59.0819191933" lon="29.9989628792">
        <time>2026-04-22T08:16:08.000Z</time>
      </trkpt>
      <trkpt lat="59.0818548203" lon="29.9986839294">
        <time>2026-04-22T08:16:11.000Z</time>
      </trkpt>
      <trkpt lat="59.0818333626" lon="29.9983620644">
        <time>2026-04-22T08:16:13.000Z</time>
      </trkpt>
      <trkpt lat="59.0818548203" lon="29.998383522">
        <time>2026-04-22T08:16:16.000Z</time>
      </trkpt>
      <trkpt lat="59.0818548203" lon="29.9984693527">
        <time>2026-04-22T08:16:18.000Z</time>
      </trkpt>
      <trkpt lat="59.0818977356" lon="29.9985551834">
        <time>2026-04-22T08:16:21.000Z</time>
      </trkpt>
      <trkpt lat="59.0819621086" lon="29.9985551834">
        <time>2026-04-22T08:16:23.000Z</time>
      </trkpt>
      <trkpt lat="59.0819835663" lon="29.9986839294">
        <time>2026-04-22T08:16:26.000Z</time>
      </trkpt>
      <trkpt lat="59.082005024" lon="29.9988770485">
        <time>2026-04-22T08:16:28.000Z</time>
      </trkpt>
      <trkpt lat="59.082005024" lon="29.9990701675">
        <time>2026-04-22T08:16:31.000Z</time>
      </trkpt>
      <trkpt lat="59.082005024" lon="29.9992418289">
        <time>2026-04-22T08:16:33.000Z</time>
      </trkpt>
      <trkpt lat="59.0820479393" lon="29.9991989136">
        <time>2026-04-22T08:16:36.000Z</time>
      </trkpt>
      <trkpt lat="59.0820264816" lon="29.9991130829">
        <time>2026-04-22T08:16:38.000Z</time>
      </trkpt>
      <trkpt lat="59.0819406509" lon="29.9991130829">
        <time>2026-04-22T08:16:41.000Z</time>
      </trkpt>
      <trkpt lat="59.0819191933" lon="29.9990272522">
        <time>2026-04-22T08:16:43.000Z</time>
      </trkpt>
      <trkpt lat="59.0818977356" lon="29.9990487099">
        <time>2026-04-22T08:16:46.000Z</time>
      </trkpt>
      <trkpt lat="59.0818977356" lon="29.9991989136">
        <time>2026-04-22T08:16:48.000Z</time>
      </trkpt>
      <trkpt lat="59.0819406509" lon="29.9993920326">
        <time>2026-04-22T08:16:51.000Z</time>
      </trkpt>
      <trkpt lat="59.0819621086" lon="29.999628067">
        <time>2026-04-22T08:16:53.000Z</time>
      </trkpt>
      <trkpt lat="59.0819835663" lon="29.9998211861">
        <time>2026-04-22T08:16:56.000Z</time>
      </trkpt>
      <trkpt lat="59.082005024" lon="29.9999499321">
        <time>2026-04-22T08:16:58.000Z</time>
      </trkpt>
      <trkpt lat="59.082005024" lon="29.9999499321">
        <time>2026-04-22T08:17:01.000Z</time>
      </trkpt>
      <trkpt lat="59.082005024" lon="29.9999713898">
        <time>2026-04-22T08:17:03.000Z</time>
      </trkpt>
      <trkpt lat="59.082005024" lon="29.9999713898">
        <time>2026-04-22T08:17:06.000Z</time>
      </trkpt>
      <trkpt lat="59.082005024" lon="29.9999928474">
        <time>2026-04-22T08:17:08.000Z</time>
      </trkpt>
      <trkpt lat="59.082005024" lon="29.9999928474">
        <time>2026-04-22T08:17:11.000Z</time>
      </trkpt>
      <trkpt lat="59.0820264816" lon="30.0000357628">
        <time>2026-04-22T08:17:13.000Z</time>
      </trkpt>
      <trkpt lat="59.0820264816" lon="30.0001645088">
        <time>2026-04-22T08:17:16.000Z</time>
      </trkpt>
      <trkpt lat="59.082069397" lon="30.0002932549">
        <time>2026-04-22T08:17:18.000Z</time>
      </trkpt>
      <trkpt lat="59.0821123123" lon="30.0005292892">
        <time>2026-04-22T08:17:21.000Z</time>
      </trkpt>
      <trkpt lat="59.0821123123" lon="30.0006580353">
        <time>2026-04-22T08:17:23.000Z</time>
      </trkpt>
      <trkpt lat="59.0821123123" lon="30.0006365776">
        <time>2026-04-22T08:17:26.000Z</time>
      </trkpt>
      <trkpt lat="59.0821123123" lon="30.0006365776">
        <time>2026-04-22T08:17:28.000Z</time>
      </trkpt>
      <trkpt lat="59.0821123123" lon="30.0006365776">
        <time>2026-04-22T08:17:31.000Z</time>
      </trkpt>
      <trkpt lat="59.0821123123" lon="30.0005936623">
        <time>2026-04-22T08:17:33.000Z</time>
      </trkpt>
      <trkpt lat="59.0820908546" lon="30.0005078316">
        <time>2026-04-22T08:17:36.000Z</time>
      </trkpt>
      <trkpt lat="59.0820479393" lon="30.0004220009">
        <time>2026-04-22T08:17:38.000Z</time>
      </trkpt>
      <trkpt lat="59.0820479393" lon="30.0003790855">
        <time>2026-04-22T08:17:41.000Z</time>
      </trkpt>
      <trkpt lat="59.0821123123" lon="30.0003576279">
        <time>2026-04-22T08:17:43.000Z</time>
      </trkpt>
      <trkpt lat="59.0820908546" lon="30.0004220009">
        <time>2026-04-22T08:17:46.000Z</time>
      </trkpt>
      <trkpt lat="59.0820908546" lon="30.0005292892">
        <time>2026-04-22T08:17:48.000Z</time>
      </trkpt>
      <trkpt lat="59.0821123123" lon="30.000679493">
        <time>2026-04-22T08:17:51.000Z</time>
      </trkpt>
      <trkpt lat="59.0821552277" lon="30.000872612">
        <time>2026-04-22T08:17:53.000Z</time>
      </trkpt>
      <trkpt lat="59.0821766853" lon="30.0010442734">
        <time>2026-04-22T08:17:56.000Z</time>
      </trkpt>
      <trkpt lat="59.082198143" lon="30.0011730194">
        <time>2026-04-22T08:17:58.000Z</time>
      </trkpt>
      <trkpt lat="59.082198143" lon="30.0011944771">
        <time>2026-04-22T08:18:01.000Z</time>
      </trkpt>
      <trkpt lat="59.082198143" lon="30.0011944771">
        <time>2026-04-22T08:18:03.000Z</time>
      </trkpt>
      <trkpt lat="59.082198143" lon="30.0011944771">
        <time>2026-04-22T08:18:06.000Z</time>
      </trkpt>
      <trkpt lat="59.082198143" lon="30.0011944771">
        <time>2026-04-22T08:18:08.000Z</time>
      </trkpt>
      <trkpt lat="59.082198143" lon="30.0012588501">
        <time>2026-04-22T08:18:11.000Z</time>
      </trkpt>
      <trkpt lat="59.082198143" lon="30.0013017654">
        <time>2026-04-22T08:18:13.000Z</time>
      </trkpt>
      <trkpt lat="59.0822196007" lon="30.0014090538">
        <time>2026-04-22T08:18:16.000Z</time>
      </trkpt>
      <trkpt lat="59.0822410583" lon="30.0015163422">
        <time>2026-04-22T08:18:18.000Z</time>
      </trkpt>
      <trkpt lat="59.0822410583" lon="30.0015592575">
        <time>2026-04-22T08:18:21.000Z</time>
      </trkpt>
      <trkpt lat="59.0822410583" lon="30.0015592575">
        <time>2026-04-22T08:18:23.000Z</time>
      </trkpt>
      <trkpt lat="59.0822410583" lon="30.0015592575">
        <time>2026-04-22T08:18:26.000Z</time>
      </trkpt>
      <trkpt lat="59.0822410583" lon="30.0015807152">
        <time>2026-04-22T08:18:28.000Z</time>
      </trkpt>
      <trkpt lat="59.082262516" lon="30.0017094612">
        <time>2026-04-22T08:18:31.000Z</time>
      </trkpt>
      <trkpt lat="59.082262516" lon="30.0019025803">
        <time>2026-04-22T08:18:33.000Z</time>
      </trkpt>
      <trkpt lat="59.082262516" lon="30.0019454956">
        <time>2026-04-22T08:18:36.000Z</time>
      </trkpt>
      <trkpt lat="59.082262516" lon="30.0019454956">
        <time>2026-04-22T08:18:38.000Z</time>
      </trkpt>
      <trkpt lat="59.082262516" lon="30.0019454956">
        <time>2026-04-22T08:18:41.000Z</time>
      </trkpt>
      <trkpt lat="59.082262516" lon="30.0019454956">
        <time>2026-04-22T08:18:43.000Z</time>
      </trkpt>
      <trkpt lat="59.0822839737" lon="30.0019454956">
        <time>2026-04-22T08:18:46.000Z</time>
      </trkpt>
      <trkpt lat="59.082262516" lon="30.0019454956">
        <time>2026-04-22T08:18:48.000Z</time>
      </trkpt>
      <trkpt lat="59.082262516" lon="30.0019454956">
        <time>2026-04-22T08:18:51.000Z</time>
      </trkpt>
      <trkpt lat="59.0822839737" lon="30.0019454956">
        <time>2026-04-22T08:18:53.000Z</time>
      </trkpt>
      <trkpt lat="59.0823054314" lon="30.0020098686">
        <time>2026-04-22T08:18:56.000Z</time>
      </trkpt>
      <trkpt lat="59.0823054314" lon="30.0020956993">
        <time>2026-04-22T08:18:58.000Z</time>
      </trkpt>
      <trkpt lat="59.0823054314" lon="30.00218153">
        <time>2026-04-22T08:19:01.000Z</time>
      </trkpt>
      <trkpt lat="59.0823054314" lon="30.0022888184">
        <time>2026-04-22T08:19:03.000Z</time>
      </trkpt>
      <trkpt lat="59.082326889" lon="30.0024175644">
        <time>2026-04-22T08:19:06.000Z</time>
      </trkpt>
      <trkpt lat="59.082326889" lon="30.0025033951">
        <time>2026-04-22T08:19:08.000Z</time>
      </trkpt>
      <trkpt lat="59.082326889" lon="30.0026535988">
        <time>2026-04-22T08:19:11.000Z</time>
      </trkpt>
      <trkpt lat="59.082326889" lon="30.0027823448">
        <time>2026-04-22T08:19:13.000Z</time>
      </trkpt>
      <trkpt lat="59.0823483467" lon="30.0027823448">
        <time>2026-04-22T08:19:16.000Z</time>
      </trkpt>
      <trkpt lat="59.0823483467" lon="30.0027608871">
        <time>2026-04-22T08:19:18.000Z</time>
      </trkpt>
      <trkpt lat="59.0823483467" lon="30.0027608871">
        <time>2026-04-22T08:19:21.000Z</time>
      </trkpt>
      <trkpt lat="59.0823483467" lon="30.0027608871">
        <time>2026-04-22T08:19:23.000Z</time>
      </trkpt>
      <trkpt lat="59.0823483467" lon="30.0027823448">
        <time>2026-04-22T08:19:26.000Z</time>
      </trkpt>
      <trkpt lat="59.0823698044" lon="30.0028252602">
        <time>2026-04-22T08:19:28.000Z</time>
      </trkpt>
      <trkpt lat="59.0823698044" lon="30.0029540062">
        <time>2026-04-22T08:19:31.000Z</time>
      </trkpt>
      <trkpt lat="59.0823483467" lon="30.0030398369">
        <time>2026-04-22T08:19:33.000Z</time>
      </trkpt>
      <trkpt lat="59.0823698044" lon="30.0030612946">
        <time>2026-04-22T08:19:36.000Z</time>
      </trkpt>
      <trkpt lat="59.0823698044" lon="30.0030612946">
        <time>2026-04-22T08:19:38.000Z</time>
      </trkpt>
      <trkpt lat="59.0823698044" lon="30.0031256676">
        <time>2026-04-22T08:19:41.000Z</time>
      </trkpt>
      <trkpt lat="59.0823912621" lon="30.0032758713">
        <time>2026-04-22T08:19:43.000Z</time>
      </trkpt>
      <trkpt lat="59.0824341774" lon="30.003554821">
        <time>2026-04-22T08:19:46.000Z</time>
      </trkpt>
      <trkpt lat="59.0824556351" lon="30.0037693977">
        <time>2026-04-22T08:19:48.000Z</time>
      </trkpt>
      <trkpt lat="59.0824770927" lon="30.0039410591">
        <time>2026-04-22T08:19:51.000Z</time>
      </trkpt>
      <trkpt lat="59.0824985504" lon="30.0040268898">
        <time>2026-04-22T08:19:53.000Z</time>
      </trkpt>
      <trkpt lat="59.0824770927" lon="30.0039625168">
        <time>2026-04-22T08:19:56.000Z</time>
      </trkpt>
      <trkpt lat="59.0824556351" lon="30.0038766861">
        <time>2026-04-22T08:19:58.000Z</time>
      </trkpt>
      <trkpt lat="59.0824341774" lon="30.0038766861">
        <time>2026-04-22T08:20:01.000Z</time>
      </trkpt>
      <trkpt lat="59.0824341774" lon="30.0038766861">
        <time>2026-04-22T08:20:03.000Z</time>
      </trkpt>
      <trkpt lat="59.0824341774" lon="30.0038552284">
        <time>2026-04-22T08:20:06.000Z</time>
      </trkpt>
      <trkpt lat="59.0824341774" lon="30.0038552284">
        <time>2026-04-22T08:20:08.000Z</time>
      </trkpt>
      <trkpt lat="59.0824341774" lon="30.0038552284">
        <time>2026-04-22T08:20:11.000Z</time>
      </trkpt>
      <trkpt lat="59.0824341774" lon="30.0038766861">
        <time>2026-04-22T08:20:13.000Z</time>
      </trkpt>
      <trkpt lat="59.0824556351" lon="30.0038766861">
        <time>2026-04-22T08:20:16.000Z</time>
      </trkpt>
      <trkpt lat="59.0824556351" lon="30.0038766861">
        <time>2026-04-22T08:20:18.000Z</time>
      </trkpt>
      <trkpt lat="59.0824556351" lon="30.0038766861">
        <time>2026-04-22T08:20:21.000Z</time>
      </trkpt>
      <trkpt lat="59.0824556351" lon="30.0038766861">
        <time>2026-04-22T08:20:23.000Z</time>
      </trkpt>
      <trkpt lat="59.0824770927" lon="30.0038766861">
        <time>2026-04-22T08:20:26.000Z</time>
      </trkpt>
      <trkpt lat="59.0824556351" lon="30.0038766861">
        <time>2026-04-22T08:20:28.000Z</time>
      </trkpt>
      <trkpt lat="59.0824556351" lon="30.0038766861">
        <time>2026-04-22T08:20:31.000Z</time>
      </trkpt>
      <trkpt lat="59.0824556351" lon="30.0038766861">
        <time>2026-04-22T08:20:33.000Z</time>
      </trkpt>
      <trkpt lat="59.0824770927" lon="30.0038766861">
        <time>2026-04-22T08:20:36.000Z</time>
      </trkpt>
      <trkpt lat="59.0824770927" lon="30.0038766861">
        <time>2026-04-22T08:20:38.000Z</time>
      </trkpt>
      <trkpt lat="59.0824770927" lon="30.0038766861">
        <time>2026-04-22T08:20:41.000Z</time>
      </trkpt>
      <trkpt lat="59.0824770927" lon="30.0038766861">
        <time>2026-04-22T08:20:43.000Z</time>
      </trkpt>
      <trkpt lat="59.0824770927" lon="30.0038766861">
        <time>2026-04-22T08:20:46.000Z</time>
      </trkpt>
      <trkpt lat="59.0824770927" lon="30.0038766861">
        <time>2026-04-22T08:20:48.000Z</time>
      </trkpt>
      <trkpt lat="59.0824770927" lon="30.0038766861">
        <time>2026-04-22T08:20:51.000Z</time>
      </trkpt>
      <trkpt lat="59.0824556351" lon="30.0038766861">
        <time>2026-04-22T08:20:53.000Z</time>
      </trkpt>
      <trkpt lat="59.0824770927" lon="30.0039839745">
        <time>2026-04-22T08:20:56.000Z</time>
      </trkpt>
      <trkpt lat="59.0824985504" lon="30.0042200089">
        <time>2026-04-22T08:20:58.000Z</time>
      </trkpt>
      <trkpt lat="59.0825414658" lon="30.0044775009">
        <time>2026-04-22T08:21:01.000Z</time>
      </trkpt>
      <trkpt lat="59.0825629234" lon="30.00467062">
        <time>2026-04-22T08:21:03.000Z</time>
      </trkpt>
      <trkpt lat="59.0826058388" lon="30.004928112">
        <time>2026-04-22T08:21:06.000Z</time>
      </trkpt>
      <trkpt lat="59.0826272964" lon="30.0050568581">
        <time>2026-04-22T08:21:08.000Z</time>
      </trkpt>
      <trkpt lat="59.0826272964" lon="30.004992485">
        <time>2026-04-22T08:21:11.000Z</time>
      </trkpt>
      <trkpt lat="59.0826058388" lon="30.0048851967">
        <time>2026-04-22T08:21:13.000Z</time>
      </trkpt>
      <trkpt lat="59.0825629234" lon="30.0046062469">
        <time>2026-04-22T08:21:16.000Z</time>
      </trkpt>
      <trkpt lat="59.0825414658" lon="30.0044345856">
        <time>2026-04-22T08:21:18.000Z</time>
      </trkpt>
      <trkpt lat="59.0825200081" lon="30.0043272972">
        <time>2026-04-22T08:21:21.000Z</time>
      </trkpt>
      <trkpt lat="59.0825200081" lon="30.0042629242">
        <time>2026-04-22T08:21:23.000Z</time>
      </trkpt>
      <trkpt lat="59.0825200081" lon="30.0042843819">
        <time>2026-04-22T08:21:26.000Z</time>
      </trkpt>
      <trkpt lat="59.0825414658" lon="30.0043916702">
        <time>2026-04-22T08:21:28.000Z</time>
      </trkpt>
      <trkpt lat="59.0825843811" lon="30.0045633316">
        <time>2026-04-22T08:21:31.000Z</time>
      </trkpt>
      <trkpt lat="59.0826058388" lon="30.0047564507">
        <time>2026-04-22T08:21:33.000Z</time>
      </trkpt>
      <trkpt lat="59.0825843811" lon="30.0047564507">
        <time>2026-04-22T08:21:36.000Z</time>
      </trkpt>
      <trkpt lat="59.0826058388" lon="30.0047564507">
        <time>2026-04-22T08:21:38.000Z</time>
      </trkpt>
      <trkpt lat="59.0825843811" lon="30.0047564507">
        <time>2026-04-22T08:21:41.000Z</time>
      </trkpt>
      <trkpt lat="59.0826058388" lon="30.0047779083">
        <time>2026-04-22T08:21:43.000Z</time>
      </trkpt>
      <trkpt lat="59.0826487541" lon="30.0050139427">
        <time>2026-04-22T08:21:46.000Z</time>
      </trkpt>
      <trkpt lat="59.0826702118" lon="30.0052499771">
        <time>2026-04-22T08:21:48.000Z</time>
      </trkpt>
      <trkpt lat="59.0826916695" lon="30.0053358078">
        <time>2026-04-22T08:21:51.000Z</time>
      </trkpt>
      <trkpt lat="59.0826916695" lon="30.0053358078">
        <time>2026-04-22T08:21:53.000Z</time>
      </trkpt>
      <trkpt lat="59.0826916695" lon="30.0053358078">
        <time>2026-04-22T08:21:56.000Z</time>
      </trkpt>
      <trkpt lat="59.0826916695" lon="30.0053358078">
        <time>2026-04-22T08:21:58.000Z</time>
      </trkpt>
      <trkpt lat="59.0826916695" lon="30.0053358078">
        <time>2026-04-22T08:22:01.000Z</time>
      </trkpt>
      <trkpt lat="59.0826916695" lon="30.0053358078">
        <time>2026-04-22T08:22:03.000Z</time>
      </trkpt>
      <trkpt lat="59.0826916695" lon="30.0053358078">
        <time>2026-04-22T08:22:06.000Z</time>
      </trkpt>
      <trkpt lat="59.0826916695" lon="30.0053358078">
        <time>2026-04-22T08:22:08.000Z</time>
      </trkpt>
      <trkpt lat="59.0826916695" lon="30.0053358078">
        <time>2026-04-22T08:22:11.000Z</time>
      </trkpt>
      <trkpt lat="59.0826916695" lon="30.0053358078">
        <time>2026-04-22T08:22:13.000Z</time>
      </trkpt>
      <trkpt lat="59.0826916695" lon="30.0053358078">
        <time>2026-04-22T08:22:16.000Z</time>
      </trkpt>
      <trkpt lat="59.0826916695" lon="30.0053358078">
        <time>2026-04-22T08:22:18.000Z</time>
      </trkpt>
      <trkpt lat="59.0826916695" lon="30.0053358078">
        <time>2026-04-22T08:22:21.000Z</time>
      </trkpt>
      <trkpt lat="59.0826916695" lon="30.0053358078">
        <time>2026-04-22T08:22:23.000Z</time>
      </trkpt>
      <trkpt lat="59.0826916695" lon="30.0053572655">
        <time>2026-04-22T08:22:26.000Z</time>
      </trkpt>
      <trkpt lat="59.0826916695" lon="30.0053572655">
        <time>2026-04-22T08:22:28.000Z</time>
      </trkpt>
      <trkpt lat="59.0826916695" lon="30.0053572655">
        <time>2026-04-22T08:22:31.000Z</time>
      </trkpt>
      <trkpt lat="59.0826916695" lon="30.0053572655">
        <time>2026-04-22T08:22:33.000Z</time>
      </trkpt>
      <trkpt lat="59.0826916695" lon="30.0053572655">
        <time>2026-04-22T08:22:36.000Z</time>
      </trkpt>
      <trkpt lat="59.0826916695" lon="30.0053572655">
        <time>2026-04-22T08:22:38.000Z</time>
      </trkpt>
      <trkpt lat="59.0827345848" lon="30.0055718422">
        <time>2026-04-22T08:22:41.000Z</time>
      </trkpt>
      <trkpt lat="59.0827775002" lon="30.0058078766">
        <time>2026-04-22T08:22:43.000Z</time>
      </trkpt>
      <trkpt lat="59.0827775002" lon="30.0060224533">
        <time>2026-04-22T08:22:46.000Z</time>
      </trkpt>
      <trkpt lat="59.0827989578" lon="30.0061297417">
        <time>2026-04-22T08:22:48.000Z</time>
      </trkpt>
      <trkpt lat="59.0828204155" lon="30.006172657">
        <time>2026-04-22T08:22:51.000Z</time>
      </trkpt>
      <trkpt lat="59.0828204155" lon="30.006172657">
        <time>2026-04-22T08:22:53.000Z</time>
      </trkpt>
      <trkpt lat="59.0828204155" lon="30.006172657">
        <time>2026-04-22T08:22:56.000Z</time>
      </trkpt>
      <trkpt lat="59.0828204155" lon="30.0061297417">
        <time>2026-04-22T08:22:58.000Z</time>
      </trkpt>
      <trkpt lat="59.0828204155" lon="30.0061297417">
        <time>2026-04-22T08:23:01.000Z</time>
      </trkpt>
      <trkpt lat="59.0828204155" lon="30.0061297417">
        <time>2026-04-22T08:23:03.000Z</time>
      </trkpt>
      <trkpt lat="59.0828418732" lon="30.006172657">
        <time>2026-04-22T08:23:06.000Z</time>
      </trkpt>
      <trkpt lat="59.0828633308" lon="30.0062584877">
        <time>2026-04-22T08:23:08.000Z</time>
      </trkpt>
      <trkpt lat="59.0828633308" lon="30.0063872337">
        <time>2026-04-22T08:23:11.000Z</time>
      </trkpt>
      <trkpt lat="59.0828847885" lon="30.0065159798">
        <time>2026-04-22T08:23:13.000Z</time>
      </trkpt>
      <trkpt lat="59.0829062462" lon="30.0066661835">
        <time>2026-04-22T08:23:16.000Z</time>
      </trkpt>
      <trkpt lat="59.0829277039" lon="30.0068378448">
        <time>2026-04-22T08:23:18.000Z</time>
      </trkpt>
      <trkpt lat="59.0829277039" lon="30.0070095062">
        <time>2026-04-22T08:23:21.000Z</time>
      </trkpt>
      <trkpt lat="59.0829277039" lon="30.0071597099">
        <time>2026-04-22T08:23:23.000Z</time>
      </trkpt>
      <trkpt lat="59.0829491615" lon="30.0072455406">
        <time>2026-04-22T08:23:26.000Z</time>
      </trkpt>
      <trkpt lat="59.0829491615" lon="30.0073313713">
        <time>2026-04-22T08:23:28.000Z</time>
      </trkpt>
      <trkpt lat="59.0829491615" lon="30.0073313713">
        <time>2026-04-22T08:23:31.000Z</time>
      </trkpt>
      <trkpt lat="59.0829277039" lon="30.0073099136">
        <time>2026-04-22T08:23:33.000Z</time>
      </trkpt>
      <trkpt lat="59.0829277039" lon="30.0071597099">
        <time>2026-04-22T08:23:36.000Z</time>
      </trkpt>
      <trkpt lat="59.0829277039" lon="30.0071382523">
        <time>2026-04-22T08:23:38.000Z</time>
      </trkpt>
      <trkpt lat="59.0829277039" lon="30.0072455406">
        <time>2026-04-22T08:23:41.000Z</time>
      </trkpt>
      <trkpt lat="59.0829491615" lon="30.0073742867">
        <time>2026-04-22T08:23:43.000Z</time>
      </trkpt>
      <trkpt lat="59.0829491615" lon="30.0075030327">
        <time>2026-04-22T08:23:46.000Z</time>
      </trkpt>
      <trkpt lat="59.0829706192" lon="30.007610321">
        <time>2026-04-22T08:23:48.000Z</time>
      </trkpt>
      <trkpt lat="59.0829706192" lon="30.0077176094">
        <time>2026-04-22T08:23:51.000Z</time>
      </trkpt>
      <trkpt lat="59.0829706192" lon="30.0078034401">
        <time>2026-04-22T08:23:53.000Z</time>
      </trkpt>
      <trkpt lat="59.0829920769" lon="30.0078678131">
        <time>2026-04-22T08:23:56.000Z</time>
      </trkpt>
      <trkpt lat="59.0829920769" lon="30.0078892708">
        <time>2026-04-22T08:23:58.000Z</time>
      </trkpt>
      <trkpt lat="59.0830349922" lon="30.0079751015">
        <time>2026-04-22T08:24:01.000Z</time>
      </trkpt>
      <trkpt lat="59.0830564499" lon="30.0081682205">
        <time>2026-04-22T08:24:03.000Z</time>
      </trkpt>
      <trkpt lat="59.0830993652" lon="30.0084042549">
        <time>2026-04-22T08:24:06.000Z</time>
      </trkpt>
      <trkpt lat="59.0831422806" lon="30.0086832047">
        <time>2026-04-22T08:24:08.000Z</time>
      </trkpt>
      <trkpt lat="59.0831208229" lon="30.008790493">
        <time>2026-04-22T08:24:11.000Z</time>
      </trkpt>
      <trkpt lat="59.0830349922" lon="30.008790493">
        <time>2026-04-22T08:24:13.000Z</time>
      </trkpt>
      <trkpt lat="59.0829920769" lon="30.0087046623">
        <time>2026-04-22T08:24:16.000Z</time>
      </trkpt>
      <trkpt lat="59.0829491615" lon="30.0085759163">
        <time>2026-04-22T08:24:18.000Z</time>
      </trkpt>
      <trkpt lat="59.0829920769" lon="30.0084686279">
        <time>2026-04-22T08:24:21.000Z</time>
      </trkpt>
      <trkpt lat="59.0830349922" lon="30.0083827972">
        <time>2026-04-22T08:24:23.000Z</time>
      </trkpt>
      <trkpt lat="59.0830564499" lon="30.0082111359">
        <time>2026-04-22T08:24:26.000Z</time>
      </trkpt>
      <trkpt lat="59.0830135345" lon="30.0080180168">
        <time>2026-04-22T08:24:28.000Z</time>
      </trkpt>
      <trkpt lat="59.0829706192" lon="30.0079321861">
        <time>2026-04-22T08:24:31.000Z</time>
      </trkpt>
      <trkpt lat="59.0829920769" lon="30.0080609322">
        <time>2026-04-22T08:24:33.000Z</time>
      </trkpt>
      <trkpt lat="59.0830349922" lon="30.0082111359">
        <time>2026-04-22T08:24:36.000Z</time>
      </trkpt>
      <trkpt lat="59.0830779076" lon="30.0084471703">
        <time>2026-04-22T08:24:38.000Z</time>
      </trkpt>
      <trkpt lat="59.0831208229" lon="30.0085330009">
        <time>2026-04-22T08:24:41.000Z</time>
      </trkpt>
      <trkpt lat="59.0830993652" lon="30.0084686279">
        <time>2026-04-22T08:24:43.000Z</time>
      </trkpt>
      <trkpt lat="59.0831422806" lon="30.0084900856">
        <time>2026-04-22T08:24:46.000Z</time>
      </trkpt>
      <trkpt lat="59.0831422806" lon="30.0085330009">
        <time>2026-04-22T08:24:48.000Z</time>
      </trkpt>
      <trkpt lat="59.0831637383" lon="30.0085330009">
        <time>2026-04-22T08:24:51.000Z</time>
      </trkpt>
      <trkpt lat="59.0832281113" lon="30.0085759163">
        <time>2026-04-22T08:24:53.000Z</time>
      </trkpt>
      <trkpt lat="59.0831851959" lon="30.008597374">
        <time>2026-04-22T08:24:56.000Z</time>
      </trkpt>
      <trkpt lat="59.0831637383" lon="30.008597374">
        <time>2026-04-22T08:24:58.000Z</time>
      </trkpt>
      <trkpt lat="59.0831851959" lon="30.0085759163">
        <time>2026-04-22T08:25:01.000Z</time>
      </trkpt>
      <trkpt lat="59.0831851959" lon="30.0085330009">
        <time>2026-04-22T08:25:03.000Z</time>
      </trkpt>
      <trkpt lat="59.0831851959" lon="30.0083827972">
        <time>2026-04-22T08:25:06.000Z</time>
      </trkpt>
      <trkpt lat="59.0832281113" lon="30.0082755089">
        <time>2026-04-22T08:25:08.000Z</time>
      </trkpt>
      <trkpt lat="59.0832281113" lon="30.0081038475">
        <time>2026-04-22T08:25:13.000Z</time>
      </trkpt>
      <trkpt lat="59.0832710266" lon="30.0081682205">
        <time>2026-04-22T08:25:16.000Z</time>
      </trkpt>
      <trkpt lat="59.083313942" lon="30.0083184242">
        <time>2026-04-22T08:25:18.000Z</time>
      </trkpt>
      <trkpt lat="59.083313942" lon="30.0084900856">
        <time>2026-04-22T08:25:21.000Z</time>
      </trkpt>
      <trkpt lat="59.0832710266" lon="30.008661747">
        <time>2026-04-22T08:25:23.000Z</time>
      </trkpt>
      <trkpt lat="59.0831637383" lon="30.0087475777">
        <time>2026-04-22T08:25:26.000Z</time>
      </trkpt>
      <trkpt lat="59.0831208229" lon="30.0087690353">
        <time>2026-04-22T08:25:28.000Z</time>
      </trkpt>
      <trkpt lat="59.0831208229" lon="30.008919239">
        <time>2026-04-22T08:25:31.000Z</time>
      </trkpt>
      <trkpt lat="59.0831637383" lon="30.0090909004">
        <time>2026-04-22T08:25:33.000Z</time>
      </trkpt>
      <trkpt lat="59.0831851959" lon="30.0091981888">
        <time>2026-04-22T08:25:36.000Z</time>
      </trkpt>
      <trkpt lat="59.0832066536" lon="30.0093054771">
        <time>2026-04-22T08:25:38.000Z</time>
      </trkpt>
      <trkpt lat="59.0832066536" lon="30.0092840195">
        <time>2026-04-22T08:25:41.000Z</time>
      </trkpt>
      <trkpt lat="59.0831851959" lon="30.0092625618">
        <time>2026-04-22T08:25:43.000Z</time>
      </trkpt>
      <trkpt lat="59.0832066536" lon="30.0092625618">
        <time>2026-04-22T08:25:46.000Z</time>
      </trkpt>
      <trkpt lat="59.0832066536" lon="30.0092840195">
        <time>2026-04-22T08:25:48.000Z</time>
      </trkpt>
      <trkpt lat="59.0832066536" lon="30.0093698502">
        <time>2026-04-22T08:25:51.000Z</time>
      </trkpt>
      <trkpt lat="59.0832066536" lon="30.0093913078">
        <time>2026-04-22T08:25:53.000Z</time>
      </trkpt>
      <trkpt lat="59.0832066536" lon="30.0094556808">
        <time>2026-04-22T08:25:56.000Z</time>
      </trkpt>
      <trkpt lat="59.0832066536" lon="30.0095629692">
        <time>2026-04-22T08:25:58.000Z</time>
      </trkpt>
      <trkpt lat="59.0832281113" lon="30.0096273422">
        <time>2026-04-22T08:26:01.000Z</time>
      </trkpt>
      <trkpt lat="59.0832281113" lon="30.0097131729">
        <time>2026-04-22T08:26:03.000Z</time>
      </trkpt>
      <trkpt lat="59.0832281113" lon="30.0097990036">
        <time>2026-04-22T08:26:06.000Z</time>
      </trkpt>
      <trkpt lat="59.0832495689" lon="30.0098848343">
        <time>2026-04-22T08:26:08.000Z</time>
      </trkpt>
      <trkpt lat="59.0832495689" lon="30.0099921227">
        <time>2026-04-22T08:26:11.000Z</time>
      </trkpt>
      <trkpt lat="59.0832710266" lon="30.0101423264">
        <time>2026-04-22T08:26:13.000Z</time>
      </trkpt>
      <trkpt lat="59.0832924843" lon="30.0102496147">
        <time>2026-04-22T08:26:16.000Z</time>
      </trkpt>
      <trkpt lat="59.0832924843" lon="30.0103569031">
        <time>2026-04-22T08:26:18.000Z</time>
      </trkpt>
      <trkpt lat="59.0833353996" lon="30.0105500221">
        <time>2026-04-22T08:26:21.000Z</time>
      </trkpt>
      <trkpt lat="59.0833568573" lon="30.0108289719">
        <time>2026-04-22T08:26:23.000Z</time>
      </trkpt>
      <trkpt lat="59.083378315" lon="30.0111508369">
        <time>2026-04-22T08:26:26.000Z</time>
      </trkpt>
      <trkpt lat="59.0834212303" lon="30.0114512444">
        <time>2026-04-22T08:26:28.000Z</time>
      </trkpt>
      <trkpt lat="59.0834641457" lon="30.0116658211">
        <time>2026-04-22T08:26:31.000Z</time>
      </trkpt>
      <trkpt lat="59.0834856033" lon="30.0116658211">
        <time>2026-04-22T08:26:33.000Z</time>
      </trkpt>
      <trkpt lat="59.0835928917" lon="30.0115799904">
        <time>2026-04-22T08:26:36.000Z</time>
      </trkpt>
      <trkpt lat="59.0836143494" lon="30.0116443634">
        <time>2026-04-22T08:26:38.000Z</time>
      </trkpt>
      <trkpt lat="59.0835928917" lon="30.0117087364">
        <time>2026-04-22T08:26:41.000Z</time>
      </trkpt>
      <trkpt lat="59.083635807" lon="30.0117301941">
        <time>2026-04-22T08:26:43.000Z</time>
      </trkpt>
      <trkpt lat="59.0836143494" lon="30.0116229057">
        <time>2026-04-22T08:26:46.000Z</time>
      </trkpt>
      <trkpt lat="59.083571434" lon="30.011408329">
        <time>2026-04-22T08:26:48.000Z</time>
      </trkpt>
      <trkpt lat="59.083507061" lon="30.011279583">
        <time>2026-04-22T08:26:51.000Z</time>
      </trkpt>
      <trkpt lat="59.083442688" lon="30.0111937523">
        <time>2026-04-22T08:26:53.000Z</time>
      </trkpt>
      <trkpt lat="59.0834212303" lon="30.0110435486">
        <time>2026-04-22T08:26:56.000Z</time>
      </trkpt>
      <trkpt lat="59.083442688" lon="30.0110006332">
        <time>2026-04-22T08:26:58.000Z</time>
      </trkpt>
      <trkpt lat="59.083442688" lon="30.0111079216">
        <time>2026-04-22T08:27:01.000Z</time>
      </trkpt>
      <trkpt lat="59.0834641457" lon="30.0112366676">
        <time>2026-04-22T08:27:03.000Z</time>
      </trkpt>
      <trkpt lat="59.0834641457" lon="30.0114297867">
        <time>2026-04-22T08:27:06.000Z</time>
      </trkpt>
      <trkpt lat="59.0834856033" lon="30.0116229057">
        <time>2026-04-22T08:27:08.000Z</time>
      </trkpt>
      <trkpt lat="59.083507061" lon="30.0117731094">
        <time>2026-04-22T08:27:11.000Z</time>
      </trkpt>
      <trkpt lat="59.083507061" lon="30.0118589401">
        <time>2026-04-22T08:27:13.000Z</time>
      </trkpt>
      <trkpt lat="59.083507061" lon="30.0119447708">
        <time>2026-04-22T08:27:16.000Z</time>
      </trkpt>
      <trkpt lat="59.083507061" lon="30.0120091438">
        <time>2026-04-22T08:27:18.000Z</time>
      </trkpt>
      <trkpt lat="59.0835285187" lon="30.0120520592">
        <time>2026-04-22T08:27:21.000Z</time>
      </trkpt>
      <trkpt lat="59.0835285187" lon="30.0120306015">
        <time>2026-04-22T08:27:23.000Z</time>
      </trkpt>
      <trkpt lat="59.0835285187" lon="30.0120520592">
        <time>2026-04-22T08:27:26.000Z</time>
      </trkpt>
      <trkpt lat="59.0835285187" lon="30.0120306015">
        <time>2026-04-22T08:27:28.000Z</time>
      </trkpt>
      <trkpt lat="59.083507061" lon="30.0119233131">
        <time>2026-04-22T08:27:31.000Z</time>
      </trkpt>
      <trkpt lat="59.083507061" lon="30.0118803978">
        <time>2026-04-22T08:27:33.000Z</time>
      </trkpt>
      <trkpt lat="59.083507061" lon="30.0119233131">
        <time>2026-04-22T08:27:36.000Z</time>
      </trkpt>
      <trkpt lat="59.0834856033" lon="30.0120735168">
        <time>2026-04-22T08:27:38.000Z</time>
      </trkpt>
      <trkpt lat="59.083507061" lon="30.0122880936">
        <time>2026-04-22T08:27:41.000Z</time>
      </trkpt>
      <trkpt lat="59.0835285187" lon="30.0125026703">
        <time>2026-04-22T08:27:43.000Z</time>
      </trkpt>
      <trkpt lat="59.0835499763" lon="30.0126314163">
        <time>2026-04-22T08:27:46.000Z</time>
      </trkpt>
      <trkpt lat="59.083571434" lon="30.012717247">
        <time>2026-04-22T08:27:48.000Z</time>
      </trkpt>
      <trkpt lat="59.083571434" lon="30.0128030777">
        <time>2026-04-22T08:27:51.000Z</time>
      </trkpt>
      <trkpt lat="59.0835928917" lon="30.0128889084">
        <time>2026-04-22T08:27:53.000Z</time>
      </trkpt>
      <trkpt lat="59.0835928917" lon="30.0129532814">
        <time>2026-04-22T08:27:56.000Z</time>
      </trkpt>
      <trkpt lat="59.0835928917" lon="30.0129532814">
        <time>2026-04-22T08:27:58.000Z</time>
      </trkpt>
      <trkpt lat="59.0835928917" lon="30.0129318237">
        <time>2026-04-22T08:28:01.000Z</time>
      </trkpt>
      <trkpt lat="59.0835928917" lon="30.0129318237">
        <time>2026-04-22T08:28:03.000Z</time>
      </trkpt>
      <trkpt lat="59.0835928917" lon="30.0129532814">
        <time>2026-04-22T08:28:06.000Z</time>
      </trkpt>
      <trkpt lat="59.0835928917" lon="30.0130176544">
        <time>2026-04-22T08:28:08.000Z</time>
      </trkpt>
      <trkpt lat="59.0836143494" lon="30.0131249428">
        <time>2026-04-22T08:28:11.000Z</time>
      </trkpt>
      <trkpt lat="59.0836143494" lon="30.0132107735">
        <time>2026-04-22T08:28:13.000Z</time>
      </trkpt>
      <trkpt lat="59.083635807" lon="30.0133180618">
        <time>2026-04-22T08:28:16.000Z</time>
      </trkpt>
      <trkpt lat="59.0836572647" lon="30.0134468079">
        <time>2026-04-22T08:28:18.000Z</time>
      </trkpt>
      <trkpt lat="59.0836787224" lon="30.0135540962">
        <time>2026-04-22T08:28:21.000Z</time>
      </trkpt>
      <trkpt lat="59.0836787224" lon="30.0135540962">
        <time>2026-04-22T08:28:23.000Z</time>
      </trkpt>
      <trkpt lat="59.0836572647" lon="30.0135540962">
        <time>2026-04-22T08:28:26.000Z</time>
      </trkpt>
      <trkpt lat="59.0836572647" lon="30.0135755539">
        <time>2026-04-22T08:28:28.000Z</time>
      </trkpt>
      <trkpt lat="59.0836572647" lon="30.0135540962">
        <time>2026-04-22T08:28:31.000Z</time>
      </trkpt>
      <trkpt lat="59.0836572647" lon="30.0135111809">
        <time>2026-04-22T08:28:33.000Z</time>
      </trkpt>
      <trkpt lat="59.0836787224" lon="30.0135111809">
        <time>2026-04-22T08:28:36.000Z</time>
      </trkpt>
      <trkpt lat="59.0837001801" lon="30.0135755539">
        <time>2026-04-22T08:28:38.000Z</time>
      </trkpt>
      <trkpt lat="59.0837001801" lon="30.0136399269">
        <time>2026-04-22T08:28:41.000Z</time>
      </trkpt>
      <trkpt lat="59.0837001801" lon="30.0136399269">
        <time>2026-04-22T08:28:43.000Z</time>
      </trkpt>
      <trkpt lat="59.0837001801" lon="30.0136399269">
        <time>2026-04-22T08:28:46.000Z</time>
      </trkpt>
      <trkpt lat="59.0837001801" lon="30.0136399269">
        <time>2026-04-22T08:28:48.000Z</time>
      </trkpt>
      <trkpt lat="59.0837001801" lon="30.0136184692">
        <time>2026-04-22T08:28:51.000Z</time>
      </trkpt>
      <trkpt lat="59.0837216377" lon="30.0136613846">
        <time>2026-04-22T08:28:53.000Z</time>
      </trkpt>
      <trkpt lat="59.0837430954" lon="30.013897419">
        <time>2026-04-22T08:28:56.000Z</time>
      </trkpt>
      <trkpt lat="59.0837645531" lon="30.0139832497">
        <time>2026-04-22T08:28:58.000Z</time>
      </trkpt>
      <trkpt lat="59.0837645531" lon="30.0140047073">
        <time>2026-04-22T08:29:01.000Z</time>
      </trkpt>
      <trkpt lat="59.0837860107" lon="30.0140476227">
        <time>2026-04-22T08:29:03.000Z</time>
      </trkpt>
      <trkpt lat="59.0838074684" lon="30.014154911">
        <time>2026-04-22T08:29:06.000Z</time>
      </trkpt>
      <trkpt lat="59.0838074684" lon="30.0141978264">
        <time>2026-04-22T08:29:08.000Z</time>
      </trkpt>
      <trkpt lat="59.0838074684" lon="30.0141763687">
        <time>2026-04-22T08:29:11.000Z</time>
      </trkpt>
      <trkpt lat="59.0838074684" lon="30.0141763687">
        <time>2026-04-22T08:29:13.000Z</time>
      </trkpt>
      <trkpt lat="59.0838074684" lon="30.0141763687">
        <time>2026-04-22T08:29:16.000Z</time>
      </trkpt>
      <trkpt lat="59.0838074684" lon="30.0141763687">
        <time>2026-04-22T08:29:18.000Z</time>
      </trkpt>
      <trkpt lat="59.0837860107" lon="30.0141119957">
        <time>2026-04-22T08:29:21.000Z</time>
      </trkpt>
      <trkpt lat="59.0837645531" lon="30.014026165">
        <time>2026-04-22T08:29:23.000Z</time>
      </trkpt>
      <trkpt lat="59.0837645531" lon="30.0139832497">
        <time>2026-04-22T08:29:26.000Z</time>
      </trkpt>
      <trkpt lat="59.0837645531" lon="30.0139832497">
        <time>2026-04-22T08:29:28.000Z</time>
      </trkpt>
      <trkpt lat="59.0837645531" lon="30.0140047073">
        <time>2026-04-22T08:29:31.000Z</time>
      </trkpt>
      <trkpt lat="59.0837645531" lon="30.0139832497">
        <time>2026-04-22T08:29:33.000Z</time>
      </trkpt>
      <trkpt lat="59.0837645531" lon="30.0139832497">
        <time>2026-04-22T08:29:36.000Z</time>
      </trkpt>
      <trkpt lat="59.0837645531" lon="30.014026165">
        <time>2026-04-22T08:29:38.000Z</time>
      </trkpt>
      <trkpt lat="59.0837860107" lon="30.0142621994">
        <time>2026-04-22T08:29:41.000Z</time>
      </trkpt>
      <trkpt lat="59.0838074684" lon="30.0144553185">
        <time>2026-04-22T08:29:43.000Z</time>
      </trkpt>
      <trkpt lat="59.0838289261" lon="30.0146484375">
        <time>2026-04-22T08:29:46.000Z</time>
      </trkpt>
      <trkpt lat="59.0838503838" lon="30.0147986412">
        <time>2026-04-22T08:29:48.000Z</time>
      </trkpt>
      <trkpt lat="59.0838503838" lon="30.0149273872">
        <time>2026-04-22T08:29:51.000Z</time>
      </trkpt>
      <trkpt lat="59.0838718414" lon="30.0150346756">
        <time>2026-04-22T08:29:53.000Z</time>
      </trkpt>
      <trkpt lat="59.0838718414" lon="30.0150346756">
        <time>2026-04-22T08:29:56.000Z</time>
      </trkpt>
      <trkpt lat="59.0838718414" lon="30.0150775909">
        <time>2026-04-22T08:29:58.000Z</time>
      </trkpt>
      <trkpt lat="59.0838718414" lon="30.0151848793">
        <time>2026-04-22T08:30:01.000Z</time>
      </trkpt>
      <trkpt lat="59.0839147568" lon="30.01527071">
        <time>2026-04-22T08:30:03.000Z</time>
      </trkpt>
      <trkpt lat="59.0839147568" lon="30.01527071">
        <time>2026-04-22T08:30:06.000Z</time>
      </trkpt>
      <trkpt lat="59.0839147568" lon="30.015206337">
        <time>2026-04-22T08:30:08.000Z</time>
      </trkpt>
      <trkpt lat="59.0838718414" lon="30.0149488449">
        <time>2026-04-22T08:30:11.000Z</time>
      </trkpt>
      <trkpt lat="59.0838503838" lon="30.0146484375">
        <time>2026-04-22T08:30:13.000Z</time>
      </trkpt>
      <trkpt lat="59.0838074684" lon="30.0143909454">
        <time>2026-04-22T08:30:16.000Z</time>
      </trkpt>
      <trkpt lat="59.0837860107" lon="30.0141978264">
        <time>2026-04-22T08:30:18.000Z</time>
      </trkpt>
      <trkpt lat="59.0837860107" lon="30.0142836571">
        <time>2026-04-22T08:30:21.000Z</time>
      </trkpt>
      <trkpt lat="59.0837860107" lon="30.0142836571">
        <time>2026-04-22T08:30:23.000Z</time>
      </trkpt>
      <trkpt lat="59.0837860107" lon="30.0142836571">
        <time>2026-04-22T08:30:26.000Z</time>
      </trkpt>
      <trkpt lat="59.0837860107" lon="30.0142836571">
        <time>2026-04-22T08:30:28.000Z</time>
      </trkpt>
      <trkpt lat="59.0837860107" lon="30.0142836571">
        <time>2026-04-22T08:30:31.000Z</time>
      </trkpt>
      <trkpt lat="59.0837860107" lon="30.0142621994">
        <time>2026-04-22T08:30:33.000Z</time>
      </trkpt>
      <trkpt lat="59.0837860107" lon="30.0142621994">
        <time>2026-04-22T08:30:36.000Z</time>
      </trkpt>
      <trkpt lat="59.0837860107" lon="30.0142836571">
        <time>2026-04-22T08:30:38.000Z</time>
      </trkpt>
      <trkpt lat="59.0837860107" lon="30.0143265724">
        <time>2026-04-22T08:30:41.000Z</time>
      </trkpt>
      <trkpt lat="59.0837860107" lon="30.0143265724">
        <time>2026-04-22T08:30:43.000Z</time>
      </trkpt>
      <trkpt lat="59.0837860107" lon="30.0143480301">
        <time>2026-04-22T08:30:46.000Z</time>
      </trkpt>
      <trkpt lat="59.0837860107" lon="30.0143480301">
        <time>2026-04-22T08:30:48.000Z</time>
      </trkpt>
      <trkpt lat="59.0837860107" lon="30.0143480301">
        <time>2026-04-22T08:30:51.000Z</time>
      </trkpt>
      <trkpt lat="59.0837860107" lon="30.0143480301">
        <time>2026-04-22T08:30:53.000Z</time>
      </trkpt>
      <trkpt lat="59.0837860107" lon="30.0143265724">
        <time>2026-04-22T08:30:56.000Z</time>
      </trkpt>
      <trkpt lat="59.0837860107" lon="30.0143265724">
        <time>2026-04-22T08:30:58.000Z</time>
      </trkpt>
      <trkpt lat="59.0837860107" lon="30.0143265724">
        <time>2026-04-22T08:31:01.000Z</time>
      </trkpt>
      <trkpt lat="59.0837860107" lon="30.0143265724">
        <time>2026-04-22T08:31:03.000Z</time>
      </trkpt>
      <trkpt lat="59.0837860107" lon="30.0143265724">
        <time>2026-04-22T08:31:06.000Z</time>
      </trkpt>
      <trkpt lat="59.0837860107" lon="30.0143265724">
        <time>2026-04-22T08:31:08.000Z</time>
      </trkpt>
      <trkpt lat="59.0837860107" lon="30.0143265724">
        <time>2026-04-22T08:31:11.000Z</time>
      </trkpt>
      <trkpt lat="59.0837860107" lon="30.0143265724">
        <time>2026-04-22T08:31:13.000Z</time>
      </trkpt>
      <trkpt lat="59.0837860107" lon="30.0143265724">
        <time>2026-04-22T08:31:16.000Z</time>
      </trkpt>
      <trkpt lat="59.0837860107" lon="30.0143265724">
        <time>2026-04-22T08:31:18.000Z</time>
      </trkpt>
      <trkpt lat="59.0837860107" lon="30.0143265724">
        <time>2026-04-22T08:31:21.000Z</time>
      </trkpt>
      <trkpt lat="59.0837860107" lon="30.0143265724">
        <time>2026-04-22T08:31:23.000Z</time>
      </trkpt>
      <trkpt lat="59.0837860107" lon="30.0143265724">
        <time>2026-04-22T08:31:26.000Z</time>
      </trkpt>
      <trkpt lat="59.0837860107" lon="30.0143265724">
        <time>2026-04-22T08:31:28.000Z</time>
      </trkpt>
      <trkpt lat="59.0837860107" lon="30.0143265724">
        <time>2026-04-22T08:31:31.000Z</time>
      </trkpt>
      <trkpt lat="59.0837860107" lon="30.0143265724">
        <time>2026-04-22T08:31:33.000Z</time>
      </trkpt>
      <trkpt lat="59.0837860107" lon="30.0143265724">
        <time>2026-04-22T08:31:36.000Z</time>
      </trkpt>
      <trkpt lat="59.0837860107" lon="30.0143265724">
        <time>2026-04-22T08:31:38.000Z</time>
      </trkpt>
      <trkpt lat="59.0838074684" lon="30.0143480301">
        <time>2026-04-22T08:31:41.000Z</time>
      </trkpt>
      <trkpt lat="59.0838289261" lon="30.0144982338">
        <time>2026-04-22T08:31:43.000Z</time>
      </trkpt>
      <trkpt lat="59.0838503838" lon="30.0146269798">
        <time>2026-04-22T08:31:46.000Z</time>
      </trkpt>
      <trkpt lat="59.0838718414" lon="30.0147342682">
        <time>2026-04-22T08:31:48.000Z</time>
      </trkpt>
      <trkpt lat="59.0838932991" lon="30.0148415565">
        <time>2026-04-22T08:31:51.000Z</time>
      </trkpt>
      <trkpt lat="59.0838932991" lon="30.0149488449">
        <time>2026-04-22T08:31:53.000Z</time>
      </trkpt>
      <trkpt lat="59.0838932991" lon="30.0150132179">
        <time>2026-04-22T08:31:56.000Z</time>
      </trkpt>
      <trkpt lat="59.0838932991" lon="30.0150775909">
        <time>2026-04-22T08:31:58.000Z</time>
      </trkpt>
      <trkpt lat="59.0839147568" lon="30.015206337">
        <time>2026-04-22T08:32:01.000Z</time>
      </trkpt>
      <trkpt lat="59.0839576721" lon="30.0153136253">
        <time>2026-04-22T08:32:03.000Z</time>
      </trkpt>
      <trkpt lat="59.0839576721" lon="30.0154209137">
        <time>2026-04-22T08:32:06.000Z</time>
      </trkpt>
      <trkpt lat="59.0839791298" lon="30.0154423714">
        <time>2026-04-22T08:32:08.000Z</time>
      </trkpt>
      <trkpt lat="59.0839576721" lon="30.0154423714">
        <time>2026-04-22T08:32:11.000Z</time>
      </trkpt>
      <trkpt lat="59.0839362144" lon="30.015463829">
        <time>2026-04-22T08:32:13.000Z</time>
      </trkpt>
      <trkpt lat="59.0839576721" lon="30.0155282021">
        <time>2026-04-22T08:32:16.000Z</time>
      </trkpt>
      <trkpt lat="59.0839791298" lon="30.0156784058">
        <time>2026-04-22T08:32:18.000Z</time>
      </trkpt>
      <trkpt lat="59.0839791298" lon="30.0158500671">
        <time>2026-04-22T08:32:21.000Z</time>
      </trkpt>
      <trkpt lat="59.0840005875" lon="30.0159788132">
        <time>2026-04-22T08:32:23.000Z</time>
      </trkpt>
      <trkpt lat="59.0840220451" lon="30.0160431862">
        <time>2026-04-22T08:32:26.000Z</time>
      </trkpt>
      <trkpt lat="59.0840005875" lon="30.0160217285">
        <time>2026-04-22T08:32:28.000Z</time>
      </trkpt>
      <trkpt lat="59.0840005875" lon="30.0160002708">
        <time>2026-04-22T08:32:31.000Z</time>
      </trkpt>
      <trkpt lat="59.0840005875" lon="30.0160217285">
        <time>2026-04-22T08:32:33.000Z</time>
      </trkpt>
      <trkpt lat="59.0840005875" lon="30.0160217285">
        <time>2026-04-22T08:32:36.000Z</time>
      </trkpt>
      <trkpt lat="59.0840220451" lon="30.0161075592">
        <time>2026-04-22T08:32:38.000Z</time>
      </trkpt>
      <trkpt lat="59.0840435028" lon="30.0162577629">
        <time>2026-04-22T08:32:41.000Z</time>
      </trkpt>
      <trkpt lat="59.0840435028" lon="30.0163650513">
        <time>2026-04-22T08:32:43.000Z</time>
      </trkpt>
      <trkpt lat="59.0840649605" lon="30.0164294243">
        <time>2026-04-22T08:32:46.000Z</time>
      </trkpt>
      <trkpt lat="59.0840649605" lon="30.016515255">
        <time>2026-04-22T08:32:48.000Z</time>
      </trkpt>
      <trkpt lat="59.0840649605" lon="30.0166010857">
        <time>2026-04-22T08:32:51.000Z</time>
      </trkpt>
      <trkpt lat="59.0840864182" lon="30.0166654587">
        <time>2026-04-22T08:32:53.000Z</time>
      </trkpt>
      <trkpt lat="59.0840864182" lon="30.016644001">
        <time>2026-04-22T08:32:56.000Z</time>
      </trkpt>
      <trkpt lat="59.0840864182" lon="30.016644001">
        <time>2026-04-22T08:32:58.000Z</time>
      </trkpt>
      <trkpt lat="59.0840864182" lon="30.016772747">
        <time>2026-04-22T08:33:01.000Z</time>
      </trkpt>
      <trkpt lat="59.0841078758" lon="30.0169444084">
        <time>2026-04-22T08:33:03.000Z</time>
      </trkpt>
      <trkpt lat="59.0841293335" lon="30.0171375275">
        <time>2026-04-22T08:33:06.000Z</time>
      </trkpt>
      <trkpt lat="59.0841507912" lon="30.0172662735">
        <time>2026-04-22T08:33:08.000Z</time>
      </trkpt>
      <trkpt lat="59.0841507912" lon="30.0173091888">
        <time>2026-04-22T08:33:11.000Z</time>
      </trkpt>
      <trkpt lat="59.0841507912" lon="30.0173091888">
        <time>2026-04-22T08:33:13.000Z</time>
      </trkpt>
      <trkpt lat="59.0841507912" lon="30.0173091888">
        <time>2026-04-22T08:33:16.000Z</time>
      </trkpt>
      <trkpt lat="59.0841507912" lon="30.0173091888">
        <time>2026-04-22T08:33:18.000Z</time>
      </trkpt>
      <trkpt lat="59.0841507912" lon="30.0173521042">
        <time>2026-04-22T08:33:21.000Z</time>
      </trkpt>
      <trkpt lat="59.0841722488" lon="30.0174379349">
        <time>2026-04-22T08:33:23.000Z</time>
      </trkpt>
      <trkpt lat="59.0841937065" lon="30.0175023079">
        <time>2026-04-22T08:33:26.000Z</time>
      </trkpt>
      <trkpt lat="59.0841937065" lon="30.0175237656">
        <time>2026-04-22T08:33:28.000Z</time>
      </trkpt>
      <trkpt lat="59.0841722488" lon="30.0175237656">
        <time>2026-04-22T08:33:31.000Z</time>
      </trkpt>
      <trkpt lat="59.0841722488" lon="30.0175023079">
        <time>2026-04-22T08:33:33.000Z</time>
      </trkpt>
      <trkpt lat="59.0841937065" lon="30.0175666809">
        <time>2026-04-22T08:33:36.000Z</time>
      </trkpt>
      <trkpt lat="59.0842580795" lon="30.0176525116">
        <time>2026-04-22T08:33:38.000Z</time>
      </trkpt>
      <trkpt lat="59.0843009949" lon="30.0178670883">
        <time>2026-04-22T08:33:41.000Z</time>
      </trkpt>
      <trkpt lat="59.0843224525" lon="30.018017292">
        <time>2026-04-22T08:33:43.000Z</time>
      </trkpt>
      <trkpt lat="59.0843009949" lon="30.0180602074">
        <time>2026-04-22T08:33:46.000Z</time>
      </trkpt>
      <trkpt lat="59.0843009949" lon="30.0180602074">
        <time>2026-04-22T08:33:48.000Z</time>
      </trkpt>
      <trkpt lat="59.0843009949" lon="30.0181674957">
        <time>2026-04-22T08:33:51.000Z</time>
      </trkpt>
      <trkpt lat="59.0843224525" lon="30.0182533264">
        <time>2026-04-22T08:33:53.000Z</time>
      </trkpt>
      <trkpt lat="59.0843009949" lon="30.0183820724">
        <time>2026-04-22T08:33:56.000Z</time>
      </trkpt>
      <trkpt lat="59.0843224525" lon="30.0184679031">
        <time>2026-04-22T08:33:58.000Z</time>
      </trkpt>
      <trkpt lat="59.0843009949" lon="30.0183606148">
        <time>2026-04-22T08:34:01.000Z</time>
      </trkpt>
      <trkpt lat="59.0842795372" lon="30.0182747841">
        <time>2026-04-22T08:34:03.000Z</time>
      </trkpt>
      <trkpt lat="59.0842795372" lon="30.0182747841">
        <time>2026-04-22T08:34:06.000Z</time>
      </trkpt>
      <trkpt lat="59.0843009949" lon="30.0183820724">
        <time>2026-04-22T08:34:08.000Z</time>
      </trkpt>
      <trkpt lat="59.0843224525" lon="30.0186181068">
        <time>2026-04-22T08:34:11.000Z</time>
      </trkpt>
      <trkpt lat="59.0843224525" lon="30.0188112259">
        <time>2026-04-22T08:34:13.000Z</time>
      </trkpt>
      <trkpt lat="59.0843009949" lon="30.0188755989">
        <time>2026-04-22T08:34:16.000Z</time>
      </trkpt>
      <trkpt lat="59.0842580795" lon="30.0188970566">
        <time>2026-04-22T08:34:18.000Z</time>
      </trkpt>
      <trkpt lat="59.0842151642" lon="30.0189185143">
        <time>2026-04-22T08:34:21.000Z</time>
      </trkpt>
      <trkpt lat="59.0842580795" lon="30.0188970566">
        <time>2026-04-22T08:34:23.000Z</time>
      </trkpt>
      <trkpt lat="59.0843224525" lon="30.0188970566">
        <time>2026-04-22T08:34:26.000Z</time>
      </trkpt>
      <trkpt lat="59.0843439102" lon="30.0189185143">
        <time>2026-04-22T08:34:28.000Z</time>
      </trkpt>
      <trkpt lat="59.0843653679" lon="30.0189614296">
        <time>2026-04-22T08:34:31.000Z</time>
      </trkpt>
      <trkpt lat="59.0843868256" lon="30.0190043449">
        <time>2026-04-22T08:34:33.000Z</time>
      </trkpt>
      <trkpt lat="59.0844082832" lon="30.019133091">
        <time>2026-04-22T08:34:36.000Z</time>
      </trkpt>
      <trkpt lat="59.0843868256" lon="30.0191545486">
        <time>2026-04-22T08:34:38.000Z</time>
      </trkpt>
      <trkpt lat="59.0843868256" lon="30.019261837">
        <time>2026-04-22T08:34:41.000Z</time>
      </trkpt>
      <trkpt lat="59.0843653679" lon="30.0193691254">
        <time>2026-04-22T08:34:43.000Z</time>
      </trkpt>
      <trkpt lat="59.0843868256" lon="30.0192832947">
        <time>2026-04-22T08:34:46.000Z</time>
      </trkpt>
      <trkpt lat="59.0844297409" lon="30.019261837">
        <time>2026-04-22T08:34:48.000Z</time>
      </trkpt>
      <trkpt lat="59.0844511986" lon="30.01932621">
        <time>2026-04-22T08:34:51.000Z</time>
      </trkpt>
      <trkpt lat="59.0844511986" lon="30.0194549561">
        <time>2026-04-22T08:34:53.000Z</time>
      </trkpt>
      <trkpt lat="59.0844511986" lon="30.0195622444">
        <time>2026-04-22T08:34:56.000Z</time>
      </trkpt>
      <trkpt lat="59.0844511986" lon="30.0196051598">
        <time>2026-04-22T08:34:58.000Z</time>
      </trkpt>
      <trkpt lat="59.0844511986" lon="30.0195622444">
        <time>2026-04-22T08:35:01.000Z</time>
      </trkpt>
      <trkpt lat="59.0844297409" lon="30.0194549561">
        <time>2026-04-22T08:35:03.000Z</time>
      </trkpt>
      <trkpt lat="59.0844082832" lon="30.0193047523">
        <time>2026-04-22T08:35:06.000Z</time>
      </trkpt>
      <trkpt lat="59.0844082832" lon="30.019197464">
        <time>2026-04-22T08:35:08.000Z</time>
      </trkpt>
      <trkpt lat="59.0844297409" lon="30.0191760063">
        <time>2026-04-22T08:35:11.000Z</time>
      </trkpt>
      <trkpt lat="59.0844511986" lon="30.0191760063">
        <time>2026-04-22T08:35:13.000Z</time>
      </trkpt>
      <trkpt lat="59.0844511986" lon="30.019133091">
        <time>2026-04-22T08:35:16.000Z</time>
      </trkpt>
      <trkpt lat="59.0844726562" lon="30.0191545486">
        <time>2026-04-22T08:35:18.000Z</time>
      </trkpt>
      <trkpt lat="59.0844726562" lon="30.0191760063">
        <time>2026-04-22T08:35:21.000Z</time>
      </trkpt>
      <trkpt lat="59.0844511986" lon="30.0191545486">
        <time>2026-04-22T08:35:23.000Z</time>
      </trkpt>
      <trkpt lat="59.0844511986" lon="30.019133091">
        <time>2026-04-22T08:35:26.000Z</time>
      </trkpt>
      <trkpt lat="59.0844511986" lon="30.019133091">
        <time>2026-04-22T08:35:28.000Z</time>
      </trkpt>
      <trkpt lat="59.0844511986" lon="30.019133091">
        <time>2026-04-22T08:35:31.000Z</time>
      </trkpt>
      <trkpt lat="59.0844511986" lon="30.019133091">
        <time>2026-04-22T08:35:33.000Z</time>
      </trkpt>
      <trkpt lat="59.0844511986" lon="30.019133091">
        <time>2026-04-22T08:35:36.000Z</time>
      </trkpt>
      <trkpt lat="59.0844511986" lon="30.0191545486">
        <time>2026-04-22T08:35:38.000Z</time>
      </trkpt>
      <trkpt lat="59.0844511986" lon="30.019261837">
        <time>2026-04-22T08:35:41.000Z</time>
      </trkpt>
      <trkpt lat="59.0844726562" lon="30.019390583">
        <time>2026-04-22T08:35:43.000Z</time>
      </trkpt>
      <trkpt lat="59.0844297409" lon="30.0195407867">
        <time>2026-04-22T08:35:46.000Z</time>
      </trkpt>
      <trkpt lat="59.0844297409" lon="30.0197553635">
        <time>2026-04-22T08:35:48.000Z</time>
      </trkpt>
      <trkpt lat="59.0844511986" lon="30.0200343132">
        <time>2026-04-22T08:35:51.000Z</time>
      </trkpt>
      <trkpt lat="59.0844726562" lon="30.0202274323">
        <time>2026-04-22T08:35:53.000Z</time>
      </trkpt>
      <trkpt lat="59.0844726562" lon="30.0203132629">
        <time>2026-04-22T08:35:56.000Z</time>
      </trkpt>
      <trkpt lat="59.0844511986" lon="30.0203561783">
        <time>2026-04-22T08:35:58.000Z</time>
      </trkpt>
      <trkpt lat="59.0844726562" lon="30.0202918053">
        <time>2026-04-22T08:36:01.000Z</time>
      </trkpt>
      <trkpt lat="59.0844726562" lon="30.0201845169">
        <time>2026-04-22T08:36:03.000Z</time>
      </trkpt>
      <trkpt lat="59.0844726562" lon="30.0200772285">
        <time>2026-04-22T08:36:06.000Z</time>
      </trkpt>
      <trkpt lat="59.0844511986" lon="30.0200128555">
        <time>2026-04-22T08:36:08.000Z</time>
      </trkpt>
      <trkpt lat="59.0844511986" lon="30.0200343132">
        <time>2026-04-22T08:36:11.000Z</time>
      </trkpt>
      <trkpt lat="59.0844511986" lon="30.0200343132">
        <time>2026-04-22T08:36:13.000Z</time>
      </trkpt>
      <trkpt lat="59.0844511986" lon="30.0200343132">
        <time>2026-04-22T08:36:16.000Z</time>
      </trkpt>
      <trkpt lat="59.0844511986" lon="30.0200343132">
        <time>2026-04-22T08:36:18.000Z</time>
      </trkpt>
      <trkpt lat="59.0844511986" lon="30.0200343132">
        <time>2026-04-22T08:36:21.000Z</time>
      </trkpt>
      <trkpt lat="59.0844511986" lon="30.0200343132">
        <time>2026-04-22T08:36:23.000Z</time>
      </trkpt>
      <trkpt lat="59.0844511986" lon="30.0200343132">
        <time>2026-04-22T08:36:26.000Z</time>
      </trkpt>
      <trkpt lat="59.0844511986" lon="30.0200343132">
        <time>2026-04-22T08:36:28.000Z</time>
      </trkpt>
      <trkpt lat="59.0844082832" lon="30.0200128555">
        <time>2026-04-22T08:36:31.000Z</time>
      </trkpt>
      <trkpt lat="59.0843653679" lon="30.0200128555">
        <time>2026-04-22T08:36:33.000Z</time>
      </trkpt>
      <trkpt lat="59.0843439102" lon="30.0200557709">
        <time>2026-04-22T08:36:36.000Z</time>
      </trkpt>
      <trkpt lat="59.0843224525" lon="30.0200772285">
        <time>2026-04-22T08:36:38.000Z</time>
      </trkpt>
      <trkpt lat="59.0843009949" lon="30.0200772285">
        <time>2026-04-22T08:36:41.000Z</time>
      </trkpt>
      <trkpt lat="59.0843009949" lon="30.0200772285">
        <time>2026-04-22T08:36:43.000Z</time>
      </trkpt>
      <trkpt lat="59.0842795372" lon="30.0200557709">
        <time>2026-04-22T08:36:46.000Z</time>
      </trkpt>
      <trkpt lat="59.0842366219" lon="30.0200557709">
        <time>2026-04-22T08:36:48.000Z</time>
      </trkpt>
      <trkpt lat="59.0842151642" lon="30.0201845169">
        <time>2026-04-22T08:36:51.000Z</time>
      </trkpt>
      <trkpt lat="59.0841937065" lon="30.0203347206">
        <time>2026-04-22T08:36:53.000Z</time>
      </trkpt>
      <trkpt lat="59.0841507912" lon="30.0203990936">
        <time>2026-04-22T08:36:56.000Z</time>
      </trkpt>
      <trkpt lat="59.0841293335" lon="30.0204205513">
        <time>2026-04-22T08:36:58.000Z</time>
      </trkpt>
      <trkpt lat="59.0841293335" lon="30.020377636">
        <time>2026-04-22T08:37:01.000Z</time>
      </trkpt>
      <trkpt lat="59.0840864182" lon="30.0203132629">
        <time>2026-04-22T08:37:03.000Z</time>
      </trkpt>
      <trkpt lat="59.0840435028" lon="30.0202488899">
        <time>2026-04-22T08:37:06.000Z</time>
      </trkpt>
      <trkpt lat="59.0840220451" lon="30.0202703476">
        <time>2026-04-22T08:37:08.000Z</time>
      </trkpt>
      <trkpt lat="59.0840220451" lon="30.0202488899">
        <time>2026-04-22T08:37:11.000Z</time>
      </trkpt>
      <trkpt lat="59.0840005875" lon="30.0202059746">
        <time>2026-04-22T08:37:13.000Z</time>
      </trkpt>
      <trkpt lat="59.0839791298" lon="30.0200557709">
        <time>2026-04-22T08:37:16.000Z</time>
      </trkpt>
      <trkpt lat="59.0839362144" lon="30.0199913979">
        <time>2026-04-22T08:37:18.000Z</time>
      </trkpt>
      <trkpt lat="59.0839147568" lon="30.0199270248">
        <time>2026-04-22T08:37:21.000Z</time>
      </trkpt>
      <trkpt lat="59.0839147568" lon="30.0198197365">
        <time>2026-04-22T08:37:23.000Z</time>
      </trkpt>
      <trkpt lat="59.0838718414" lon="30.0197982788">
        <time>2026-04-22T08:37:26.000Z</time>
      </trkpt>
      <trkpt lat="59.0838074684" lon="30.0199055672">
        <time>2026-04-22T08:37:28.000Z</time>
      </trkpt>
      <trkpt lat="59.0837430954" lon="30.0200343132">
        <time>2026-04-22T08:37:31.000Z</time>
      </trkpt>
      <trkpt lat="59.0837645531" lon="30.0201630592">
        <time>2026-04-22T08:37:33.000Z</time>
      </trkpt>
      <trkpt lat="59.0838074684" lon="30.0203132629">
        <time>2026-04-22T08:37:36.000Z</time>
      </trkpt>
      <trkpt lat="59.0838932991" lon="30.020377636">
        <time>2026-04-22T08:37:38.000Z</time>
      </trkpt>
      <trkpt lat="59.0839362144" lon="30.0203347206">
        <time>2026-04-22T08:37:41.000Z</time>
      </trkpt>
      <trkpt lat="59.0839362144" lon="30.0203347206">
        <time>2026-04-22T08:37:43.000Z</time>
      </trkpt>
      <trkpt lat="59.0839362144" lon="30.0203347206">
        <time>2026-04-22T08:37:46.000Z</time>
      </trkpt>
      <trkpt lat="59.0839362144" lon="30.0203347206">
        <time>2026-04-22T08:37:48.000Z</time>
      </trkpt>
      <trkpt lat="59.0839147568" lon="30.0203347206">
        <time>2026-04-22T08:37:51.000Z</time>
      </trkpt>
      <trkpt lat="59.0838932991" lon="30.0202703476">
        <time>2026-04-22T08:37:53.000Z</time>
      </trkpt>
      <trkpt lat="59.0838718414" lon="30.0202918053">
        <time>2026-04-22T08:37:56.000Z</time>
      </trkpt>
      <trkpt lat="59.0838932991" lon="30.0203561783">
        <time>2026-04-22T08:37:58.000Z</time>
      </trkpt>
      <trkpt lat="59.0838503838" lon="30.0203990936">
        <time>2026-04-22T08:38:01.000Z</time>
      </trkpt>
      <trkpt lat="59.0838289261" lon="30.0203990936">
        <time>2026-04-22T08:38:03.000Z</time>
      </trkpt>
      <trkpt lat="59.0837645531" lon="30.0204205513">
        <time>2026-04-22T08:38:06.000Z</time>
      </trkpt>
      <trkpt lat="59.0837430954" lon="30.0204849243">
        <time>2026-04-22T08:38:08.000Z</time>
      </trkpt>
      <trkpt lat="59.0837430954" lon="30.0205492973">
        <time>2026-04-22T08:38:11.000Z</time>
      </trkpt>
      <trkpt lat="59.0837645531" lon="30.0205278397">
        <time>2026-04-22T08:38:13.000Z</time>
      </trkpt>
      <trkpt lat="59.0837430954" lon="30.0204634666">
        <time>2026-04-22T08:38:16.000Z</time>
      </trkpt>
      <trkpt lat="59.0837001801" lon="30.0204205513">
        <time>2026-04-22T08:38:18.000Z</time>
      </trkpt>
      <trkpt lat="59.0836572647" lon="30.0204205513">
        <time>2026-04-22T08:38:21.000Z</time>
      </trkpt>
      <trkpt lat="59.083635807" lon="30.0203990936">
        <time>2026-04-22T08:38:23.000Z</time>
      </trkpt>
      <trkpt lat="59.0836143494" lon="30.0203990936">
        <time>2026-04-22T08:38:26.000Z</time>
      </trkpt>
      <trkpt lat="59.0836143494" lon="30.0204205513">
        <time>2026-04-22T08:38:28.000Z</time>
      </trkpt>
      <trkpt lat="59.0836143494" lon="30.0204849243">
        <time>2026-04-22T08:38:31.000Z</time>
      </trkpt>
      <trkpt lat="59.083571434" lon="30.020506382">
        <time>2026-04-22T08:38:33.000Z</time>
      </trkpt>
      <trkpt lat="59.083571434" lon="30.0204849243">
        <time>2026-04-22T08:38:36.000Z</time>
      </trkpt>
      <trkpt lat="59.083571434" lon="30.0204634666">
        <time>2026-04-22T08:38:38.000Z</time>
      </trkpt>
      <trkpt lat="59.0835499763" lon="30.0204634666">
        <time>2026-04-22T08:38:41.000Z</time>
      </trkpt>
      <trkpt lat="59.0834856033" lon="30.0204849243">
        <time>2026-04-22T08:38:43.000Z</time>
      </trkpt>
      <trkpt lat="59.083507061" lon="30.0204634666">
        <time>2026-04-22T08:38:46.000Z</time>
      </trkpt>
      <trkpt lat="59.083507061" lon="30.0205278397">
        <time>2026-04-22T08:38:48.000Z</time>
      </trkpt>
      <trkpt lat="59.0834641457" lon="30.020635128">
        <time>2026-04-22T08:38:51.000Z</time>
      </trkpt>
      <trkpt lat="59.0834212303" lon="30.020699501">
        <time>2026-04-22T08:38:53.000Z</time>
      </trkpt>
      <trkpt lat="59.0833997726" lon="30.0207424164">
        <time>2026-04-22T08:38:56.000Z</time>
      </trkpt>
      <trkpt lat="59.083378315" lon="30.0208282471">
        <time>2026-04-22T08:38:58.000Z</time>
      </trkpt>
      <trkpt lat="59.083378315" lon="30.0209140778">
        <time>2026-04-22T08:39:01.000Z</time>
      </trkpt>
      <trkpt lat="59.0833997726" lon="30.0209569931">
        <time>2026-04-22T08:39:03.000Z</time>
      </trkpt>
      <trkpt lat="59.0834212303" lon="30.0209140778">
        <time>2026-04-22T08:39:06.000Z</time>
      </trkpt>
      <trkpt lat="59.0833997726" lon="30.0208282471">
        <time>2026-04-22T08:39:08.000Z</time>
      </trkpt>
      <trkpt lat="59.0833353996" lon="30.0207424164">
        <time>2026-04-22T08:39:11.000Z</time>
      </trkpt>
      <trkpt lat="59.0832710266" lon="30.0206565857">
        <time>2026-04-22T08:39:13.000Z</time>
      </trkpt>
      <trkpt lat="59.0832066536" lon="30.020699501">
        <time>2026-04-22T08:39:16.000Z</time>
      </trkpt>
      <trkpt lat="59.0831637383" lon="30.0207638741">
        <time>2026-04-22T08:39:18.000Z</time>
      </trkpt>
      <trkpt lat="59.0831637383" lon="30.0207638741">
        <time>2026-04-22T08:39:21.000Z</time>
      </trkpt>
      <trkpt lat="59.0831851959" lon="30.0208067894">
        <time>2026-04-22T08:39:23.000Z</time>
      </trkpt>
      <trkpt lat="59.0831637383" lon="30.0208926201">
        <time>2026-04-22T08:39:26.000Z</time>
      </trkpt>
      <trkpt lat="59.0831422806" lon="30.0209355354">
        <time>2026-04-22T08:39:28.000Z</time>
      </trkpt>
      <trkpt lat="59.0831422806" lon="30.0209999084">
        <time>2026-04-22T08:39:31.000Z</time>
      </trkpt>
      <trkpt lat="59.0831422806" lon="30.0209355354">
        <time>2026-04-22T08:39:33.000Z</time>
      </trkpt>
      <trkpt lat="59.0830779076" lon="30.0209140778">
        <time>2026-04-22T08:39:36.000Z</time>
      </trkpt>
      <trkpt lat="59.0830135345" lon="30.0209140778">
        <time>2026-04-22T08:39:38.000Z</time>
      </trkpt>
      <trkpt lat="59.0830135345" lon="30.0209140778">
        <time>2026-04-22T08:39:41.000Z</time>
      </trkpt>
      <trkpt lat="59.0829920769" lon="30.0209140778">
        <time>2026-04-22T08:39:43.000Z</time>
      </trkpt>
      <trkpt lat="59.0829920769" lon="30.0209140778">
        <time>2026-04-22T08:39:46.000Z</time>
      </trkpt>
      <trkpt lat="59.0830135345" lon="30.0209140778">
        <time>2026-04-22T08:39:48.000Z</time>
      </trkpt>
      <trkpt lat="59.0829920769" lon="30.0209569931">
        <time>2026-04-22T08:39:51.000Z</time>
      </trkpt>
      <trkpt lat="59.0829706192" lon="30.0209784508">
        <time>2026-04-22T08:39:53.000Z</time>
      </trkpt>
      <trkpt lat="59.0829920769" lon="30.0209999084">
        <time>2026-04-22T08:39:56.000Z</time>
      </trkpt>
      <trkpt lat="59.0829706192" lon="30.0209999084">
        <time>2026-04-22T08:39:58.000Z</time>
      </trkpt>
      <trkpt lat="59.0829491615" lon="30.0209784508">
        <time>2026-04-22T08:40:01.000Z</time>
      </trkpt>
      <trkpt lat="59.0829062462" lon="30.0209784508">
        <time>2026-04-22T08:40:03.000Z</time>
      </trkpt>
      <trkpt lat="59.0828847885" lon="30.0209569931">
        <time>2026-04-22T08:40:06.000Z</time>
      </trkpt>
      <trkpt lat="59.0828847885" lon="30.0209569931">
        <time>2026-04-22T08:40:08.000Z</time>
      </trkpt>
      <trkpt lat="59.0828847885" lon="30.0209355354">
        <time>2026-04-22T08:40:11.000Z</time>
      </trkpt>
      <trkpt lat="59.0828847885" lon="30.0209140778">
        <time>2026-04-22T08:40:13.000Z</time>
      </trkpt>
      <trkpt lat="59.0828204155" lon="30.0208711624">
        <time>2026-04-22T08:40:16.000Z</time>
      </trkpt>
      <trkpt lat="59.0827989578" lon="30.0208282471">
        <time>2026-04-22T08:40:18.000Z</time>
      </trkpt>
      <trkpt lat="59.0827775002" lon="30.0208711624">
        <time>2026-04-22T08:40:21.000Z</time>
      </trkpt>
      <trkpt lat="59.0827775002" lon="30.0209569931">
        <time>2026-04-22T08:40:23.000Z</time>
      </trkpt>
      <trkpt lat="59.0827560425" lon="30.0210213661">
        <time>2026-04-22T08:40:26.000Z</time>
      </trkpt>
      <trkpt lat="59.0827131271" lon="30.0210428238">
        <time>2026-04-22T08:40:28.000Z</time>
      </trkpt>
      <trkpt lat="59.0826916695" lon="30.0210428238">
        <time>2026-04-22T08:40:31.000Z</time>
      </trkpt>
      <trkpt lat="59.0826702118" lon="30.0210213661">
        <time>2026-04-22T08:40:33.000Z</time>
      </trkpt>
      <trkpt lat="59.0826702118" lon="30.0210428238">
        <time>2026-04-22T08:40:36.000Z</time>
      </trkpt>
      <trkpt lat="59.0826702118" lon="30.0210428238">
        <time>2026-04-22T08:40:38.000Z</time>
      </trkpt>
      <trkpt lat="59.0826487541" lon="30.0210213661">
        <time>2026-04-22T08:40:41.000Z</time>
      </trkpt>
      <trkpt lat="59.0826487541" lon="30.0209784508">
        <time>2026-04-22T08:40:43.000Z</time>
      </trkpt>
      <trkpt lat="59.0826272964" lon="30.0210213661">
        <time>2026-04-22T08:40:46.000Z</time>
      </trkpt>
      <trkpt lat="59.0826058388" lon="30.0210642815">
        <time>2026-04-22T08:40:48.000Z</time>
      </trkpt>
      <trkpt lat="59.0826272964" lon="30.0210857391">
        <time>2026-04-22T08:40:51.000Z</time>
      </trkpt>
      <trkpt lat="59.0826272964" lon="30.0210857391">
        <time>2026-04-22T08:40:53.000Z</time>
      </trkpt>
      <trkpt lat="59.0826272964" lon="30.0210857391">
        <time>2026-04-22T08:40:56.000Z</time>
      </trkpt>
      <trkpt lat="59.0826058388" lon="30.0210857391">
        <time>2026-04-22T08:40:58.000Z</time>
      </trkpt>
      <trkpt lat="59.0825629234" lon="30.0210428238">
        <time>2026-04-22T08:41:01.000Z</time>
      </trkpt>
      <trkpt lat="59.0825629234" lon="30.0210213661">
        <time>2026-04-22T08:41:03.000Z</time>
      </trkpt>
      <trkpt lat="59.0825200081" lon="30.0209569931">
        <time>2026-04-22T08:41:06.000Z</time>
      </trkpt>
      <trkpt lat="59.0824770927" lon="30.0209569931">
        <time>2026-04-22T08:41:08.000Z</time>
      </trkpt>
      <trkpt lat="59.0824341774" lon="30.0209784508">
        <time>2026-04-22T08:41:11.000Z</time>
      </trkpt>
      <trkpt lat="59.0824341774" lon="30.0210213661">
        <time>2026-04-22T08:41:13.000Z</time>
      </trkpt>
      <trkpt lat="59.0824127197" lon="30.0209569931">
        <time>2026-04-22T08:41:16.000Z</time>
      </trkpt>
      <trkpt lat="59.0823912621" lon="30.0209569931">
        <time>2026-04-22T08:41:18.000Z</time>
      </trkpt>
      <trkpt lat="59.0823912621" lon="30.0209355354">
        <time>2026-04-22T08:41:21.000Z</time>
      </trkpt>
      <trkpt lat="59.0824127197" lon="30.0208926201">
        <time>2026-04-22T08:41:23.000Z</time>
      </trkpt>
      <trkpt lat="59.0824341774" lon="30.0207853317">
        <time>2026-04-22T08:41:26.000Z</time>
      </trkpt>
      <trkpt lat="59.0824556351" lon="30.0208282471">
        <time>2026-04-22T08:41:28.000Z</time>
      </trkpt>
      <trkpt lat="59.0825200081" lon="30.0208067894">
        <time>2026-04-22T08:41:31.000Z</time>
      </trkpt>
      <trkpt lat="59.0825414658" lon="30.0207638741">
        <time>2026-04-22T08:41:33.000Z</time>
      </trkpt>
      <trkpt lat="59.0824770927" lon="30.0209140778">
        <time>2026-04-22T08:41:36.000Z</time>
      </trkpt>
      <trkpt lat="59.0824341774" lon="30.0209784508">
        <time>2026-04-22T08:41:38.000Z</time>
      </trkpt>
      <trkpt lat="59.0824341774" lon="30.0209569931">
        <time>2026-04-22T08:41:41.000Z</time>
      </trkpt>
      <trkpt lat="59.0824127197" lon="30.0210642815">
        <time>2026-04-22T08:41:43.000Z</time>
      </trkpt>
      <trkpt lat="59.0824127197" lon="30.0211715698">
        <time>2026-04-22T08:41:46.000Z</time>
      </trkpt>
      <trkpt lat="59.0823912621" lon="30.0211501122">
        <time>2026-04-22T08:41:48.000Z</time>
      </trkpt>
      <trkpt lat="59.0823054314" lon="30.0211071968">
        <time>2026-04-22T08:41:51.000Z</time>
      </trkpt>
      <trkpt lat="59.082262516" lon="30.0211071968">
        <time>2026-04-22T08:41:53.000Z</time>
      </trkpt>
      <trkpt lat="59.082198143" lon="30.0211286545">
        <time>2026-04-22T08:41:56.000Z</time>
      </trkpt>
      <trkpt lat="59.0821552277" lon="30.0211286545">
        <time>2026-04-22T08:41:58.000Z</time>
      </trkpt>
      <trkpt lat="59.0821552277" lon="30.0210642815">
        <time>2026-04-22T08:42:01.000Z</time>
      </trkpt>
      <trkpt lat="59.08213377" lon="30.0210213661">
        <time>2026-04-22T08:42:03.000Z</time>
      </trkpt>
      <trkpt lat="59.08213377" lon="30.0211071968">
        <time>2026-04-22T08:42:06.000Z</time>
      </trkpt>
      <trkpt lat="59.0820908546" lon="30.0211930275">
        <time>2026-04-22T08:42:08.000Z</time>
      </trkpt>
      <trkpt lat="59.0820908546" lon="30.0211930275">
        <time>2026-04-22T08:42:11.000Z</time>
      </trkpt>
      <trkpt lat="59.0820479393" lon="30.0211715698">
        <time>2026-04-22T08:42:13.000Z</time>
      </trkpt>
      <trkpt lat="59.0819835663" lon="30.0211501122">
        <time>2026-04-22T08:42:16.000Z</time>
      </trkpt>
      <trkpt lat="59.0819835663" lon="30.0211501122">
        <time>2026-04-22T08:42:18.000Z</time>
      </trkpt>
      <trkpt lat="59.0819835663" lon="30.0211501122">
        <time>2026-04-22T08:42:21.000Z</time>
      </trkpt>
      <trkpt lat="59.0819835663" lon="30.0211715698">
        <time>2026-04-22T08:42:23.000Z</time>
      </trkpt>
      <trkpt lat="59.0819835663" lon="30.0212359428">
        <time>2026-04-22T08:42:26.000Z</time>
      </trkpt>
      <trkpt lat="59.0819835663" lon="30.0213003159">
        <time>2026-04-22T08:42:28.000Z</time>
      </trkpt>
      <trkpt lat="59.0819835663" lon="30.0213003159">
        <time>2026-04-22T08:42:31.000Z</time>
      </trkpt>
      <trkpt lat="59.0819835663" lon="30.0213003159">
        <time>2026-04-22T08:42:33.000Z</time>
      </trkpt>
      <trkpt lat="59.0819835663" lon="30.0212574005">
        <time>2026-04-22T08:42:36.000Z</time>
      </trkpt>
      <trkpt lat="59.0819835663" lon="30.0212144852">
        <time>2026-04-22T08:42:38.000Z</time>
      </trkpt>
      <trkpt lat="59.0819621086" lon="30.0211715698">
        <time>2026-04-22T08:42:41.000Z</time>
      </trkpt>
      <trkpt lat="59.0819621086" lon="30.0211715698">
        <time>2026-04-22T08:42:43.000Z</time>
      </trkpt>
      <trkpt lat="59.0819621086" lon="30.0211715698">
        <time>2026-04-22T08:42:46.000Z</time>
      </trkpt>
      <trkpt lat="59.0819621086" lon="30.0211715698">
        <time>2026-04-22T08:42:48.000Z</time>
      </trkpt>
      <trkpt lat="59.0819621086" lon="30.0211715698">
        <time>2026-04-22T08:42:51.000Z</time>
      </trkpt>
      <trkpt lat="59.0819621086" lon="30.0211715698">
        <time>2026-04-22T08:42:53.000Z</time>
      </trkpt>
      <trkpt lat="59.0819621086" lon="30.0211715698">
        <time>2026-04-22T08:42:56.000Z</time>
      </trkpt>
      <trkpt lat="59.0819621086" lon="30.0211715698">
        <time>2026-04-22T08:42:58.000Z</time>
      </trkpt>
      <trkpt lat="59.0819621086" lon="30.0211286545">
        <time>2026-04-22T08:43:01.000Z</time>
      </trkpt>
      <trkpt lat="59.0819406509" lon="30.0211071968">
        <time>2026-04-22T08:43:03.000Z</time>
      </trkpt>
      <trkpt lat="59.0819406509" lon="30.0211286545">
        <time>2026-04-22T08:43:06.000Z</time>
      </trkpt>
      <trkpt lat="59.0819191933" lon="30.0211286545">
        <time>2026-04-22T08:43:08.000Z</time>
      </trkpt>
      <trkpt lat="59.0819191933" lon="30.0211286545">
        <time>2026-04-22T08:43:11.000Z</time>
      </trkpt>
      <trkpt lat="59.0819191933" lon="30.0211286545">
        <time>2026-04-22T08:43:13.000Z</time>
      </trkpt>
      <trkpt lat="59.0819191933" lon="30.0211286545">
        <time>2026-04-22T08:43:16.000Z</time>
      </trkpt>
      <trkpt lat="59.0819191933" lon="30.0211286545">
        <time>2026-04-22T08:43:18.000Z</time>
      </trkpt>
      <trkpt lat="59.0819191933" lon="30.0211286545">
        <time>2026-04-22T08:43:21.000Z</time>
      </trkpt>
      <trkpt lat="59.0819191933" lon="30.0211286545">
        <time>2026-04-22T08:43:23.000Z</time>
      </trkpt>
      <trkpt lat="59.0819406509" lon="30.0211501122">
        <time>2026-04-22T08:43:26.000Z</time>
      </trkpt>
      <trkpt lat="59.0819621086" lon="30.0211501122">
        <time>2026-04-22T08:43:28.000Z</time>
      </trkpt>
      <trkpt lat="59.082005024" lon="30.0212144852">
        <time>2026-04-22T08:43:31.000Z</time>
      </trkpt>
      <trkpt lat="59.0819835663" lon="30.0213432312">
        <time>2026-04-22T08:43:33.000Z</time>
      </trkpt>
      <trkpt lat="59.082005024" lon="30.0214934349">
        <time>2026-04-22T08:43:36.000Z</time>
      </trkpt>
      <trkpt lat="59.082005024" lon="30.0215792656">
        <time>2026-04-22T08:43:38.000Z</time>
      </trkpt>
      <trkpt lat="59.082005024" lon="30.0216007233">
        <time>2026-04-22T08:43:41.000Z</time>
      </trkpt>
      <trkpt lat="59.0819835663" lon="30.0216221809">
        <time>2026-04-22T08:43:43.000Z</time>
      </trkpt>
      <trkpt lat="59.0819835663" lon="30.0216221809">
        <time>2026-04-22T08:43:46.000Z</time>
      </trkpt>
      <trkpt lat="59.0819835663" lon="30.0216650963">
        <time>2026-04-22T08:43:48.000Z</time>
      </trkpt>
      <trkpt lat="59.0819621086" lon="30.0217294693">
        <time>2026-04-22T08:43:51.000Z</time>
      </trkpt>
      <trkpt lat="59.0819406509" lon="30.021750927">
        <time>2026-04-22T08:43:53.000Z</time>
      </trkpt>
      <trkpt lat="59.0819406509" lon="30.0218153">
        <time>2026-04-22T08:43:56.000Z</time>
      </trkpt>
      <trkpt lat="59.0819406509" lon="30.0218367577">
        <time>2026-04-22T08:43:58.000Z</time>
      </trkpt>
      <trkpt lat="59.0819406509" lon="30.0218153">
        <time>2026-04-22T08:44:01.000Z</time>
      </trkpt>
      <trkpt lat="59.0819621086" lon="30.0218367577">
        <time>2026-04-22T08:44:03.000Z</time>
      </trkpt>
      <trkpt lat="59.082005024" lon="30.0218367577">
        <time>2026-04-22T08:44:06.000Z</time>
      </trkpt>
      <trkpt lat="59.0820264816" lon="30.0219225883">
        <time>2026-04-22T08:44:08.000Z</time>
      </trkpt>
      <trkpt lat="59.0820479393" lon="30.022008419">
        <time>2026-04-22T08:44:11.000Z</time>
      </trkpt>
      <trkpt lat="59.0820479393" lon="30.0220942497">
        <time>2026-04-22T08:44:13.000Z</time>
      </trkpt>
      <trkpt lat="59.082069397" lon="30.0221371651">
        <time>2026-04-22T08:44:16.000Z</time>
      </trkpt>
      <trkpt lat="59.082069397" lon="30.0221157074">
        <time>2026-04-22T08:44:18.000Z</time>
      </trkpt>
      <trkpt lat="59.0820479393" lon="30.0221800804">
        <time>2026-04-22T08:44:21.000Z</time>
      </trkpt>
      <trkpt lat="59.0820479393" lon="30.0222659111">
        <time>2026-04-22T08:44:23.000Z</time>
      </trkpt>
      <trkpt lat="59.0820479393" lon="30.0223088264">
        <time>2026-04-22T08:44:26.000Z</time>
      </trkpt>
      <trkpt lat="59.0820479393" lon="30.0223946571">
        <time>2026-04-22T08:44:28.000Z</time>
      </trkpt>
      <trkpt lat="59.0820264816" lon="30.0223946571">
        <time>2026-04-22T08:44:31.000Z</time>
      </trkpt>
      <trkpt lat="59.0820479393" lon="30.0223302841">
        <time>2026-04-22T08:44:33.000Z</time>
      </trkpt>
      <trkpt lat="59.082069397" lon="30.0223302841">
        <time>2026-04-22T08:44:36.000Z</time>
      </trkpt>
      <trkpt lat="59.082069397" lon="30.0223517418">
        <time>2026-04-22T08:44:38.000Z</time>
      </trkpt>
      <trkpt lat="59.0820908546" lon="30.0223731995">
        <time>2026-04-22T08:44:41.000Z</time>
      </trkpt>
      <trkpt lat="59.0820908546" lon="30.0224375725">
        <time>2026-04-22T08:44:43.000Z</time>
      </trkpt>
      <trkpt lat="59.0820908546" lon="30.0224804878">
        <time>2026-04-22T08:44:46.000Z</time>
      </trkpt>
      <trkpt lat="59.0820908546" lon="30.0224804878">
        <time>2026-04-22T08:44:48.000Z</time>
      </trkpt>
      <trkpt lat="59.0820479393" lon="30.0225234032">
        <time>2026-04-22T08:44:51.000Z</time>
      </trkpt>
      <trkpt lat="59.0820264816" lon="30.0225448608">
        <time>2026-04-22T08:44:53.000Z</time>
      </trkpt>
      <trkpt lat="59.0820264816" lon="30.0225877762">
        <time>2026-04-22T08:44:56.000Z</time>
      </trkpt>
      <trkpt lat="59.0820264816" lon="30.0226306915">
        <time>2026-04-22T08:44:58.000Z</time>
      </trkpt>
      <trkpt lat="59.0820264816" lon="30.0226950645">
        <time>2026-04-22T08:45:01.000Z</time>
      </trkpt>
      <trkpt lat="59.082005024" lon="30.0227379799">
        <time>2026-04-22T08:45:03.000Z</time>
      </trkpt>
      <trkpt lat="59.082005024" lon="30.0227808952">
        <time>2026-04-22T08:45:06.000Z</time>
      </trkpt>
      <trkpt lat="59.0819835663" lon="30.0228238106">
        <time>2026-04-22T08:45:08.000Z</time>
      </trkpt>
      <trkpt lat="59.0819621086" lon="30.0228667259">
        <time>2026-04-22T08:45:11.000Z</time>
      </trkpt>
      <trkpt lat="59.0819835663" lon="30.0228881836">
        <time>2026-04-22T08:45:13.000Z</time>
      </trkpt>
      <trkpt lat="59.0819835663" lon="30.0228881836">
        <time>2026-04-22T08:45:16.000Z</time>
      </trkpt>
      <trkpt lat="59.0820264816" lon="30.0228881836">
        <time>2026-04-22T08:45:18.000Z</time>
      </trkpt>
      <trkpt lat="59.0820479393" lon="30.0229525566">
        <time>2026-04-22T08:45:21.000Z</time>
      </trkpt>
      <trkpt lat="59.082069397" lon="30.022995472">
        <time>2026-04-22T08:45:23.000Z</time>
      </trkpt>
      <trkpt lat="59.082069397" lon="30.0230383873">
        <time>2026-04-22T08:45:26.000Z</time>
      </trkpt>
      <trkpt lat="59.082069397" lon="30.0230813026">
        <time>2026-04-22T08:45:28.000Z</time>
      </trkpt>
      <trkpt lat="59.082069397" lon="30.0230813026">
        <time>2026-04-22T08:45:31.000Z</time>
      </trkpt>
      <trkpt lat="59.0821123123" lon="30.0230813026">
        <time>2026-04-22T08:45:33.000Z</time>
      </trkpt>
      <trkpt lat="59.0821123123" lon="30.023124218">
        <time>2026-04-22T08:45:36.000Z</time>
      </trkpt>
      <trkpt lat="59.0821123123" lon="30.0231671333">
        <time>2026-04-22T08:45:38.000Z</time>
      </trkpt>
      <trkpt lat="59.0821123123" lon="30.0231671333">
        <time>2026-04-22T08:45:41.000Z</time>
      </trkpt>
      <trkpt lat="59.0821123123" lon="30.023188591">
        <time>2026-04-22T08:45:43.000Z</time>
      </trkpt>
      <trkpt lat="59.08213377" lon="30.0232100487">
        <time>2026-04-22T08:45:46.000Z</time>
      </trkpt>
      <trkpt lat="59.08213377" lon="30.023252964">
        <time>2026-04-22T08:45:48.000Z</time>
      </trkpt>
      <trkpt lat="59.0821552277" lon="30.0232315063">
        <time>2026-04-22T08:45:51.000Z</time>
      </trkpt>
      <trkpt lat="59.0821766853" lon="30.0232315063">
        <time>2026-04-22T08:45:53.000Z</time>
      </trkpt>
      <trkpt lat="59.0821766853" lon="30.0232958794">
        <time>2026-04-22T08:45:56.000Z</time>
      </trkpt>
      <trkpt lat="59.0821766853" lon="30.0233387947">
        <time>2026-04-22T08:45:58.000Z</time>
      </trkpt>
      <trkpt lat="59.0822196007" lon="30.0233387947">
        <time>2026-04-22T08:46:01.000Z</time>
      </trkpt>
      <trkpt lat="59.0822410583" lon="30.0234031677">
        <time>2026-04-22T08:46:03.000Z</time>
      </trkpt>
      <trkpt lat="59.0822839737" lon="30.0234246254">
        <time>2026-04-22T08:46:06.000Z</time>
      </trkpt>
      <trkpt lat="59.0822839737" lon="30.0234460831">
        <time>2026-04-22T08:46:08.000Z</time>
      </trkpt>
      <trkpt lat="59.0822839737" lon="30.0234460831">
        <time>2026-04-22T08:46:11.000Z</time>
      </trkpt>
      <trkpt lat="59.0822839737" lon="30.0234460831">
        <time>2026-04-22T08:46:13.000Z</time>
      </trkpt>
      <trkpt lat="59.082262516" lon="30.0234246254">
        <time>2026-04-22T08:46:16.000Z</time>
      </trkpt>
      <trkpt lat="59.0822410583" lon="30.0234675407">
        <time>2026-04-22T08:46:18.000Z</time>
      </trkpt>
      <trkpt lat="59.0822410583" lon="30.0234889984">
        <time>2026-04-22T08:46:21.000Z</time>
      </trkpt>
      <trkpt lat="59.082198143" lon="30.0234460831">
        <time>2026-04-22T08:46:23.000Z</time>
      </trkpt>
      <trkpt lat="59.0821552277" lon="30.0234675407">
        <time>2026-04-22T08:46:26.000Z</time>
      </trkpt>
      <trkpt lat="59.0821123123" lon="30.0234889984">
        <time>2026-04-22T08:46:28.000Z</time>
      </trkpt>
      <trkpt lat="59.0821123123" lon="30.0235748291">
        <time>2026-04-22T08:46:31.000Z</time>
      </trkpt>
      <trkpt lat="59.0820908546" lon="30.0236177444">
        <time>2026-04-22T08:46:33.000Z</time>
      </trkpt>
      <trkpt lat="59.082069397" lon="30.0236606598">
        <time>2026-04-22T08:46:36.000Z</time>
      </trkpt>
      <trkpt lat="59.082069397" lon="30.0236606598">
        <time>2026-04-22T08:46:38.000Z</time>
      </trkpt>
      <trkpt lat="59.0820908546" lon="30.0236821175">
        <time>2026-04-22T08:46:41.000Z</time>
      </trkpt>
      <trkpt lat="59.0820908546" lon="30.0237250328">
        <time>2026-04-22T08:46:43.000Z</time>
      </trkpt>
      <trkpt lat="59.082069397" lon="30.0238323212">
        <time>2026-04-22T08:46:46.000Z</time>
      </trkpt>
      <trkpt lat="59.0820479393" lon="30.0239181519">
        <time>2026-04-22T08:46:48.000Z</time>
      </trkpt>
      <trkpt lat="59.0820264816" lon="30.0239825249">
        <time>2026-04-22T08:46:51.000Z</time>
      </trkpt>
      <trkpt lat="59.0820264816" lon="30.0239610672">
        <time>2026-04-22T08:46:53.000Z</time>
      </trkpt>
      <trkpt lat="59.0820908546" lon="30.0238966942">
        <time>2026-04-22T08:46:56.000Z</time>
      </trkpt>
      <trkpt lat="59.0821766853" lon="30.0238966942">
        <time>2026-04-22T08:46:58.000Z</time>
      </trkpt>
      <trkpt lat="59.08213377" lon="30.0239181519">
        <time>2026-04-22T08:47:01.000Z</time>
      </trkpt>
      <trkpt lat="59.08213377" lon="30.0239825249">
        <time>2026-04-22T08:47:03.000Z</time>
      </trkpt>
      <trkpt lat="59.08213377" lon="30.0240468979">
        <time>2026-04-22T08:47:06.000Z</time>
      </trkpt>
      <trkpt lat="59.08213377" lon="30.0240039825">
        <time>2026-04-22T08:47:08.000Z</time>
      </trkpt>
      <trkpt lat="59.08213377" lon="30.0240683556">
        <time>2026-04-22T08:47:11.000Z</time>
      </trkpt>
      <trkpt lat="59.0821552277" lon="30.0241327286">
        <time>2026-04-22T08:47:13.000Z</time>
      </trkpt>
      <trkpt lat="59.0821552277" lon="30.0241756439">
        <time>2026-04-22T08:47:16.000Z</time>
      </trkpt>
      <trkpt lat="59.0821552277" lon="30.0241756439">
        <time>2026-04-22T08:47:18.000Z</time>
      </trkpt>
      <trkpt lat="59.0821552277" lon="30.0241756439">
        <time>2026-04-22T08:47:21.000Z</time>
      </trkpt>
      <trkpt lat="59.0821766853" lon="30.0241756439">
        <time>2026-04-22T08:47:23.000Z</time>
      </trkpt>
      <trkpt lat="59.082198143" lon="30.0241541862">
        <time>2026-04-22T08:47:26.000Z</time>
      </trkpt>
      <trkpt lat="59.0822196007" lon="30.0241541862">
        <time>2026-04-22T08:47:28.000Z</time>
      </trkpt>
      <trkpt lat="59.0822196007" lon="30.0241971016">
        <time>2026-04-22T08:47:31.000Z</time>
      </trkpt>
      <trkpt lat="59.0822196007" lon="30.0241971016">
        <time>2026-04-22T08:47:33.000Z</time>
      </trkpt>
      <trkpt lat="59.0822410583" lon="30.0241756439">
        <time>2026-04-22T08:47:36.000Z</time>
      </trkpt>
      <trkpt lat="59.0822839737" lon="30.0242185593">
        <time>2026-04-22T08:47:38.000Z</time>
      </trkpt>
      <trkpt lat="59.0823054314" lon="30.0242614746">
        <time>2026-04-22T08:47:41.000Z</time>
      </trkpt>
      <trkpt lat="59.0823054314" lon="30.0242400169">
        <time>2026-04-22T08:47:43.000Z</time>
      </trkpt>
      <trkpt lat="59.0823054314" lon="30.0242400169">
        <time>2026-04-22T08:47:46.000Z</time>
      </trkpt>
      <trkpt lat="59.0823054314" lon="30.0242185593">
        <time>2026-04-22T08:47:48.000Z</time>
      </trkpt>
      <trkpt lat="59.0822839737" lon="30.02430439">
        <time>2026-04-22T08:47:51.000Z</time>
      </trkpt>
      <trkpt lat="59.0823054314" lon="30.0244116783">
        <time>2026-04-22T08:47:53.000Z</time>
      </trkpt>
      <trkpt lat="59.0823054314" lon="30.024368763">
        <time>2026-04-22T08:47:56.000Z</time>
      </trkpt>
      <trkpt lat="59.0823483467" lon="30.0243258476">
        <time>2026-04-22T08:47:58.000Z</time>
      </trkpt>
      <trkpt lat="59.0823912621" lon="30.02430439">
        <time>2026-04-22T08:48:01.000Z</time>
      </trkpt>
      <trkpt lat="59.0824341774" lon="30.02430439">
        <time>2026-04-22T08:48:03.000Z</time>
      </trkpt>
      <trkpt lat="59.0824556351" lon="30.0242614746">
        <time>2026-04-22T08:48:06.000Z</time>
      </trkpt>
      <trkpt lat="59.0824341774" lon="30.02430439">
        <time>2026-04-22T08:48:08.000Z</time>
      </trkpt>
      <trkpt lat="59.0823912621" lon="30.0243258476">
        <time>2026-04-22T08:48:11.000Z</time>
      </trkpt>
      <trkpt lat="59.0823483467" lon="30.0243902206">
        <time>2026-04-22T08:48:13.000Z</time>
      </trkpt>
      <trkpt lat="59.082326889" lon="30.0245189667">
        <time>2026-04-22T08:48:16.000Z</time>
      </trkpt>
      <trkpt lat="59.082326889" lon="30.0246477127">
        <time>2026-04-22T08:48:18.000Z</time>
      </trkpt>
      <trkpt lat="59.082326889" lon="30.0247764587">
        <time>2026-04-22T08:48:21.000Z</time>
      </trkpt>
      <trkpt lat="59.082326889" lon="30.0247550011">
        <time>2026-04-22T08:48:23.000Z</time>
      </trkpt>
      <trkpt lat="59.082326889" lon="30.0247550011">
        <time>2026-04-22T08:48:26.000Z</time>
      </trkpt>
      <trkpt lat="59.0823054314" lon="30.0247550011">
        <time>2026-04-22T08:48:28.000Z</time>
      </trkpt>
      <trkpt lat="59.0823054314" lon="30.0248193741">
        <time>2026-04-22T08:48:31.000Z</time>
      </trkpt>
      <trkpt lat="59.082326889" lon="30.0249695778">
        <time>2026-04-22T08:48:33.000Z</time>
      </trkpt>
      <trkpt lat="59.0823054314" lon="30.0250339508">
        <time>2026-04-22T08:48:36.000Z</time>
      </trkpt>
      <trkpt lat="59.0823054314" lon="30.0250339508">
        <time>2026-04-22T08:48:38.000Z</time>
      </trkpt>
      <trkpt lat="59.0823054314" lon="30.0250124931">
        <time>2026-04-22T08:48:41.000Z</time>
      </trkpt>
      <trkpt lat="59.0823054314" lon="30.0250124931">
        <time>2026-04-22T08:48:43.000Z</time>
      </trkpt>
      <trkpt lat="59.0823054314" lon="30.0250339508">
        <time>2026-04-22T08:48:46.000Z</time>
      </trkpt>
      <trkpt lat="59.0823054314" lon="30.0250339508">
        <time>2026-04-22T08:48:48.000Z</time>
      </trkpt>
      <trkpt lat="59.0823054314" lon="30.0250339508">
        <time>2026-04-22T08:48:51.000Z</time>
      </trkpt>
      <trkpt lat="59.0823054314" lon="30.0250339508">
        <time>2026-04-22T08:48:53.000Z</time>
      </trkpt>
      <trkpt lat="59.0823054314" lon="30.0250339508">
        <time>2026-04-22T08:48:56.000Z</time>
      </trkpt>
      <trkpt lat="59.0823054314" lon="30.0250124931">
        <time>2026-04-22T08:48:58.000Z</time>
      </trkpt>
      <trkpt lat="59.0823054314" lon="30.0249695778">
        <time>2026-04-22T08:49:01.000Z</time>
      </trkpt>
      <trkpt lat="59.0823054314" lon="30.0249481201">
        <time>2026-04-22T08:49:03.000Z</time>
      </trkpt>
      <trkpt lat="59.082326889" lon="30.0249266624">
        <time>2026-04-22T08:49:06.000Z</time>
      </trkpt>
      <trkpt lat="59.0823483467" lon="30.0249481201">
        <time>2026-04-22T08:49:08.000Z</time>
      </trkpt>
      <trkpt lat="59.0823483467" lon="30.0249266624">
        <time>2026-04-22T08:49:11.000Z</time>
      </trkpt>
      <trkpt lat="59.0823483467" lon="30.0249266624">
        <time>2026-04-22T08:49:13.000Z</time>
      </trkpt>
      <trkpt lat="59.0823483467" lon="30.0249266624">
        <time>2026-04-22T08:49:16.000Z</time>
      </trkpt>
      <trkpt lat="59.0823698044" lon="30.0249266624">
        <time>2026-04-22T08:49:18.000Z</time>
      </trkpt>
      <trkpt lat="59.0823912621" lon="30.0249481201">
        <time>2026-04-22T08:49:21.000Z</time>
      </trkpt>
      <trkpt lat="59.0824556351" lon="30.0249481201">
        <time>2026-04-22T08:49:23.000Z</time>
      </trkpt>
      <trkpt lat="59.0824985504" lon="30.0249910355">
        <time>2026-04-22T08:49:26.000Z</time>
      </trkpt>
      <trkpt lat="59.0825414658" lon="30.0250339508">
        <time>2026-04-22T08:49:28.000Z</time>
      </trkpt>
      <trkpt lat="59.0825843811" lon="30.0250124931">
        <time>2026-04-22T08:49:31.000Z</time>
      </trkpt>
      <trkpt lat="59.0826058388" lon="30.0249052048">
        <time>2026-04-22T08:49:33.000Z</time>
      </trkpt>
      <trkpt lat="59.0825843811" lon="30.0249481201">
        <time>2026-04-22T08:49:36.000Z</time>
      </trkpt>
      <trkpt lat="59.0825414658" lon="30.0249481201">
        <time>2026-04-22T08:49:38.000Z</time>
      </trkpt>
      <trkpt lat="59.0825843811" lon="30.0249695778">
        <time>2026-04-22T08:49:41.000Z</time>
      </trkpt>
      <trkpt lat="59.0826487541" lon="30.0250983238">
        <time>2026-04-22T08:49:43.000Z</time>
      </trkpt>
      <trkpt lat="59.0826916695" lon="30.0251841545">
        <time>2026-04-22T08:49:46.000Z</time>
      </trkpt>
      <trkpt lat="59.0827345848" lon="30.0252270699">
        <time>2026-04-22T08:49:48.000Z</time>
      </trkpt>
      <trkpt lat="59.0827775002" lon="30.0252056122">
        <time>2026-04-22T08:49:51.000Z</time>
      </trkpt>
      <trkpt lat="59.0827989578" lon="30.0251412392">
        <time>2026-04-22T08:49:53.000Z</time>
      </trkpt>
      <trkpt lat="59.0827989578" lon="30.0250339508">
        <time>2026-04-22T08:49:56.000Z</time>
      </trkpt>
      <trkpt lat="59.0828204155" lon="30.0249695778">
        <time>2026-04-22T08:49:58.000Z</time>
      </trkpt>
      <trkpt lat="59.0828633308" lon="30.0249695778">
        <time>2026-04-22T08:50:01.000Z</time>
      </trkpt>
      <trkpt lat="59.0828847885" lon="30.0249481201">
        <time>2026-04-22T08:50:03.000Z</time>
      </trkpt>
      <trkpt lat="59.0828633308" lon="30.0250124931">
        <time>2026-04-22T08:50:06.000Z</time>
      </trkpt>
      <trkpt lat="59.0828418732" lon="30.0250768661">
        <time>2026-04-22T08:50:08.000Z</time>
      </trkpt>
      <trkpt lat="59.0828204155" lon="30.0250983238">
        <time>2026-04-22T08:50:11.000Z</time>
      </trkpt>
      <trkpt lat="59.0828204155" lon="30.0250983238">
        <time>2026-04-22T08:50:13.000Z</time>
      </trkpt>
      <trkpt lat="59.0828204155" lon="30.0250983238">
        <time>2026-04-22T08:50:16.000Z</time>
      </trkpt>
      <trkpt lat="59.0828418732" lon="30.0251412392">
        <time>2026-04-22T08:50:18.000Z</time>
      </trkpt>
      <trkpt lat="59.0829277039" lon="30.0252485275">
        <time>2026-04-22T08:50:21.000Z</time>
      </trkpt>
      <trkpt lat="59.0829920769" lon="30.0252270699">
        <time>2026-04-22T08:50:23.000Z</time>
      </trkpt>
      <trkpt lat="59.0830135345" lon="30.0251626968">
        <time>2026-04-22T08:50:26.000Z</time>
      </trkpt>
      <trkpt lat="59.0830349922" lon="30.0251412392">
        <time>2026-04-22T08:50:28.000Z</time>
      </trkpt>
      <trkpt lat="59.0830564499" lon="30.0250339508">
        <time>2026-04-22T08:50:31.000Z</time>
      </trkpt>
      <trkpt lat="59.0830779076" lon="30.0250339508">
        <time>2026-04-22T08:50:33.000Z</time>
      </trkpt>
      <trkpt lat="59.0830564499" lon="30.0250768661">
        <time>2026-04-22T08:50:36.000Z</time>
      </trkpt>
      <trkpt lat="59.0830779076" lon="30.0250983238">
        <time>2026-04-22T08:50:38.000Z</time>
      </trkpt>
      <trkpt lat="59.0830779076" lon="30.0251197815">
        <time>2026-04-22T08:50:41.000Z</time>
      </trkpt>
      <trkpt lat="59.0830779076" lon="30.0250768661">
        <time>2026-04-22T08:50:43.000Z</time>
      </trkpt>
      <trkpt lat="59.0830993652" lon="30.0249910355">
        <time>2026-04-22T08:50:46.000Z</time>
      </trkpt>
      <trkpt lat="59.0830993652" lon="30.0249910355">
        <time>2026-04-22T08:50:48.000Z</time>
      </trkpt>
      <trkpt lat="59.0830993652" lon="30.0250124931">
        <time>2026-04-22T08:50:51.000Z</time>
      </trkpt>
      <trkpt lat="59.0830564499" lon="30.0250554085">
        <time>2026-04-22T08:50:53.000Z</time>
      </trkpt>
      <trkpt lat="59.0830135345" lon="30.0251626968">
        <time>2026-04-22T08:50:56.000Z</time>
      </trkpt>
      <trkpt lat="59.0830779076" lon="30.0252485275">
        <time>2026-04-22T08:50:58.000Z</time>
      </trkpt>
      <trkpt lat="59.0831422806" lon="30.0252914429">
        <time>2026-04-22T08:51:01.000Z</time>
      </trkpt>
      <trkpt lat="59.0832066536" lon="30.0253772736">
        <time>2026-04-22T08:51:03.000Z</time>
      </trkpt>
      <trkpt lat="59.0832710266" lon="30.0254416466">
        <time>2026-04-22T08:51:06.000Z</time>
      </trkpt>
      <trkpt lat="59.0833353996" lon="30.0253558159">
        <time>2026-04-22T08:51:08.000Z</time>
      </trkpt>
      <trkpt lat="59.0833568573" lon="30.0252485275">
        <time>2026-04-22T08:51:11.000Z</time>
      </trkpt>
      <trkpt lat="59.0833568573" lon="30.0251412392">
        <time>2026-04-22T08:51:16.000Z</time>
      </trkpt>
      <trkpt lat="59.0832924843" lon="30.0251841545">
        <time>2026-04-22T08:51:18.000Z</time>
      </trkpt>
      <trkpt lat="59.0832066536" lon="30.0252914429">
        <time>2026-04-22T08:51:21.000Z</time>
      </trkpt>
      <trkpt lat="59.0831422806" lon="30.0253558159">
        <time>2026-04-22T08:51:23.000Z</time>
      </trkpt>
      <trkpt lat="59.0830349922" lon="30.0253343582">
        <time>2026-04-22T08:51:26.000Z</time>
      </trkpt>
      <trkpt lat="59.0830135345" lon="30.0253343582">
        <time>2026-04-22T08:51:28.000Z</time>
      </trkpt>
      <trkpt lat="59.0830349922" lon="30.0251841545">
        <time>2026-04-22T08:51:31.000Z</time>
      </trkpt>
      <trkpt lat="59.0831208229" lon="30.0250339508">
        <time>2026-04-22T08:51:33.000Z</time>
      </trkpt>
      <trkpt lat="59.0832066536" lon="30.0250124931">
        <time>2026-04-22T08:51:36.000Z</time>
      </trkpt>
      <trkpt lat="59.0832924843" lon="30.0250554085">
        <time>2026-04-22T08:51:38.000Z</time>
      </trkpt>
      <trkpt lat="59.0833568573" lon="30.0250768661">
        <time>2026-04-22T08:51:41.000Z</time>
      </trkpt>
      <trkpt lat="59.0834212303" lon="30.0250983238">
        <time>2026-04-22T08:51:43.000Z</time>
      </trkpt>
      <trkpt lat="59.0834856033" lon="30.0250983238">
        <time>2026-04-22T08:51:46.000Z</time>
      </trkpt>
      <trkpt lat="59.0835285187" lon="30.0251412392">
        <time>2026-04-22T08:51:48.000Z</time>
      </trkpt>
      <trkpt lat="59.0835285187" lon="30.0251626968">
        <time>2026-04-22T08:51:51.000Z</time>
      </trkpt>
      <trkpt lat="59.083507061" lon="30.0251841545">
        <time>2026-04-22T08:51:53.000Z</time>
      </trkpt>
      <trkpt lat="59.083507061" lon="30.0252485275">
        <time>2026-04-22T08:51:56.000Z</time>
      </trkpt>
      <trkpt lat="59.0834856033" lon="30.0252914429">
        <time>2026-04-22T08:51:58.000Z</time>
      </trkpt>
      <trkpt lat="59.083507061" lon="30.0253343582">
        <time>2026-04-22T08:52:01.000Z</time>
      </trkpt>
      <trkpt lat="59.0835499763" lon="30.0253129005">
        <time>2026-04-22T08:52:03.000Z</time>
      </trkpt>
      <trkpt lat="59.0835928917" lon="30.0252914429">
        <time>2026-04-22T08:52:06.000Z</time>
      </trkpt>
      <trkpt lat="59.0836143494" lon="30.0252914429">
        <time>2026-04-22T08:52:08.000Z</time>
      </trkpt>
      <trkpt lat="59.083635807" lon="30.0253343582">
        <time>2026-04-22T08:52:11.000Z</time>
      </trkpt>
      <trkpt lat="59.0836572647" lon="30.0253558159">
        <time>2026-04-22T08:52:13.000Z</time>
      </trkpt>
      <trkpt lat="59.083635807" lon="30.0254201889">
        <time>2026-04-22T08:52:16.000Z</time>
      </trkpt>
      <trkpt lat="59.0836143494" lon="30.0254845619">
        <time>2026-04-22T08:52:18.000Z</time>
      </trkpt>
      <trkpt lat="59.0835928917" lon="30.0255918503">
        <time>2026-04-22T08:52:21.000Z</time>
      </trkpt>
      <trkpt lat="59.0836143494" lon="30.025677681">
        <time>2026-04-22T08:52:23.000Z</time>
      </trkpt>
      <trkpt lat="59.083635807" lon="30.0256991386">
        <time>2026-04-22T08:52:26.000Z</time>
      </trkpt>
      <trkpt lat="59.083635807" lon="30.0256991386">
        <time>2026-04-22T08:52:28.000Z</time>
      </trkpt>
      <trkpt lat="59.083635807" lon="30.0257205963">
        <time>2026-04-22T08:52:31.000Z</time>
      </trkpt>
      <trkpt lat="59.083635807" lon="30.025806427">
        <time>2026-04-22T08:52:33.000Z</time>
      </trkpt>
      <trkpt lat="59.0836572647" lon="30.0258922577">
        <time>2026-04-22T08:52:36.000Z</time>
      </trkpt>
      <trkpt lat="59.0836787224" lon="30.025935173">
        <time>2026-04-22T08:52:38.000Z</time>
      </trkpt>
      <trkpt lat="59.0836787224" lon="30.0259137154">
        <time>2026-04-22T08:52:41.000Z</time>
      </trkpt>
      <trkpt lat="59.0836572647" lon="30.025935173">
        <time>2026-04-22T08:52:43.000Z</time>
      </trkpt>
      <trkpt lat="59.0836787224" lon="30.0260210037">
        <time>2026-04-22T08:52:46.000Z</time>
      </trkpt>
      <trkpt lat="59.0837001801" lon="30.0260424614">
        <time>2026-04-22T08:52:48.000Z</time>
      </trkpt>
      <trkpt lat="59.0837216377" lon="30.0260853767">
        <time>2026-04-22T08:52:51.000Z</time>
      </trkpt>
      <trkpt lat="59.0837216377" lon="30.0261068344">
        <time>2026-04-22T08:52:53.000Z</time>
      </trkpt>
      <trkpt lat="59.0837001801" lon="30.0261926651">
        <time>2026-04-22T08:52:56.000Z</time>
      </trkpt>
      <trkpt lat="59.0837430954" lon="30.0262355804">
        <time>2026-04-22T08:52:58.000Z</time>
      </trkpt>
      <trkpt lat="59.0837860107" lon="30.0262999535">
        <time>2026-04-22T08:53:01.000Z</time>
      </trkpt>
      <trkpt lat="59.0838074684" lon="30.0263643265">
        <time>2026-04-22T08:53:03.000Z</time>
      </trkpt>
      <trkpt lat="59.0838289261" lon="30.0263857841">
        <time>2026-04-22T08:53:06.000Z</time>
      </trkpt>
      <trkpt lat="59.0838289261" lon="30.0264072418">
        <time>2026-04-22T08:53:08.000Z</time>
      </trkpt>
      <trkpt lat="59.0838289261" lon="30.0264930725">
        <time>2026-04-22T08:53:11.000Z</time>
      </trkpt>
      <trkpt lat="59.0838503838" lon="30.0265359879">
        <time>2026-04-22T08:53:13.000Z</time>
      </trkpt>
      <trkpt lat="59.0838503838" lon="30.0265359879">
        <time>2026-04-22T08:53:16.000Z</time>
      </trkpt>
      <trkpt lat="59.0838503838" lon="30.0265789032">
        <time>2026-04-22T08:53:18.000Z</time>
      </trkpt>
      <trkpt lat="59.0838718414" lon="30.0266432762">
        <time>2026-04-22T08:53:21.000Z</time>
      </trkpt>
      <trkpt lat="59.0838718414" lon="30.0267076492">
        <time>2026-04-22T08:53:23.000Z</time>
      </trkpt>
      <trkpt lat="59.0839147568" lon="30.0267505646">
        <time>2026-04-22T08:53:26.000Z</time>
      </trkpt>
      <trkpt lat="59.0839362144" lon="30.0267934799">
        <time>2026-04-22T08:53:28.000Z</time>
      </trkpt>
      <trkpt lat="59.0839576721" lon="30.0267934799">
        <time>2026-04-22T08:53:31.000Z</time>
      </trkpt>
      <trkpt lat="59.0839362144" lon="30.0267934799">
        <time>2026-04-22T08:53:33.000Z</time>
      </trkpt>
      <trkpt lat="59.0838932991" lon="30.0268149376">
        <time>2026-04-22T08:53:36.000Z</time>
      </trkpt>
      <trkpt lat="59.0839147568" lon="30.0268793106">
        <time>2026-04-22T08:53:38.000Z</time>
      </trkpt>
      <trkpt lat="59.0839147568" lon="30.0269007683">
        <time>2026-04-22T08:53:41.000Z</time>
      </trkpt>
      <trkpt lat="59.0839147568" lon="30.0269007683">
        <time>2026-04-22T08:53:43.000Z</time>
      </trkpt>
      <trkpt lat="59.0838932991" lon="30.026922226">
        <time>2026-04-22T08:53:46.000Z</time>
      </trkpt>
      <trkpt lat="59.0839147568" lon="30.0269651413">
        <time>2026-04-22T08:53:48.000Z</time>
      </trkpt>
      <trkpt lat="59.0839362144" lon="30.0270080566">
        <time>2026-04-22T08:53:51.000Z</time>
      </trkpt>
      <trkpt lat="59.0839576721" lon="30.027050972">
        <time>2026-04-22T08:53:53.000Z</time>
      </trkpt>
      <trkpt lat="59.0839576721" lon="30.0270724297">
        <time>2026-04-22T08:53:56.000Z</time>
      </trkpt>
      <trkpt lat="59.0839576721" lon="30.0270724297">
        <time>2026-04-22T08:53:58.000Z</time>
      </trkpt>
      <trkpt lat="59.0839791298" lon="30.0271368027">
        <time>2026-04-22T08:54:01.000Z</time>
      </trkpt>
      <trkpt lat="59.0840005875" lon="30.0272226334">
        <time>2026-04-22T08:54:03.000Z</time>
      </trkpt>
      <trkpt lat="59.0840220451" lon="30.027244091">
        <time>2026-04-22T08:54:06.000Z</time>
      </trkpt>
      <trkpt lat="59.0840435028" lon="30.0272655487">
        <time>2026-04-22T08:54:08.000Z</time>
      </trkpt>
      <trkpt lat="59.0840649605" lon="30.0272870064">
        <time>2026-04-22T08:54:11.000Z</time>
      </trkpt>
      <trkpt lat="59.0840649605" lon="30.0273299217">
        <time>2026-04-22T08:54:13.000Z</time>
      </trkpt>
      <trkpt lat="59.0840649605" lon="30.0273942947">
        <time>2026-04-22T08:54:16.000Z</time>
      </trkpt>
      <trkpt lat="59.0840649605" lon="30.0274586678">
        <time>2026-04-22T08:54:18.000Z</time>
      </trkpt>
      <trkpt lat="59.0840864182" lon="30.0275444984">
        <time>2026-04-22T08:54:21.000Z</time>
      </trkpt>
      <trkpt lat="59.0841078758" lon="30.0275874138">
        <time>2026-04-22T08:54:23.000Z</time>
      </trkpt>
      <trkpt lat="59.0841293335" lon="30.0276517868">
        <time>2026-04-22T08:54:26.000Z</time>
      </trkpt>
      <trkpt lat="59.0841507912" lon="30.0276947021">
        <time>2026-04-22T08:54:28.000Z</time>
      </trkpt>
      <trkpt lat="59.0841722488" lon="30.0277161598">
        <time>2026-04-22T08:54:31.000Z</time>
      </trkpt>
      <trkpt lat="59.0841722488" lon="30.0276947021">
        <time>2026-04-22T08:54:33.000Z</time>
      </trkpt>
      <trkpt lat="59.0841722488" lon="30.0276947021">
        <time>2026-04-22T08:54:36.000Z</time>
      </trkpt>
      <trkpt lat="59.0841722488" lon="30.0276947021">
        <time>2026-04-22T08:54:38.000Z</time>
      </trkpt>
      <trkpt lat="59.0841937065" lon="30.0276517868">
        <time>2026-04-22T08:54:41.000Z</time>
      </trkpt>
      <trkpt lat="59.0841937065" lon="30.0276947021">
        <time>2026-04-22T08:54:43.000Z</time>
      </trkpt>
      <trkpt lat="59.0841937065" lon="30.0277590752">
        <time>2026-04-22T08:54:46.000Z</time>
      </trkpt>
      <trkpt lat="59.0842151642" lon="30.0278663635">
        <time>2026-04-22T08:54:48.000Z</time>
      </trkpt>
      <trkpt lat="59.0842366219" lon="30.0279736519">
        <time>2026-04-22T08:54:51.000Z</time>
      </trkpt>
      <trkpt lat="59.0842366219" lon="30.0280165672">
        <time>2026-04-22T08:54:53.000Z</time>
      </trkpt>
      <trkpt lat="59.0842366219" lon="30.0279951096">
        <time>2026-04-22T08:54:56.000Z</time>
      </trkpt>
      <trkpt lat="59.0842366219" lon="30.0280809402">
        <time>2026-04-22T08:54:58.000Z</time>
      </trkpt>
      <trkpt lat="59.0842366219" lon="30.0282096863">
        <time>2026-04-22T08:55:01.000Z</time>
      </trkpt>
      <trkpt lat="59.0842366219" lon="30.028295517">
        <time>2026-04-22T08:55:03.000Z</time>
      </trkpt>
      <trkpt lat="59.0842580795" lon="30.0284028053">
        <time>2026-04-22T08:55:06.000Z</time>
      </trkpt>
      <trkpt lat="59.0842580795" lon="30.028488636">
        <time>2026-04-22T08:55:08.000Z</time>
      </trkpt>
      <trkpt lat="59.0843009949" lon="30.028553009">
        <time>2026-04-22T08:55:11.000Z</time>
      </trkpt>
      <trkpt lat="59.0843224525" lon="30.028617382">
        <time>2026-04-22T08:55:13.000Z</time>
      </trkpt>
      <trkpt lat="59.0843009949" lon="30.0285744667">
        <time>2026-04-22T08:55:16.000Z</time>
      </trkpt>
      <trkpt lat="59.0842795372" lon="30.028488636">
        <time>2026-04-22T08:55:18.000Z</time>
      </trkpt>
      <trkpt lat="59.0842795372" lon="30.028488636">
        <time>2026-04-22T08:55:21.000Z</time>
      </trkpt>
      <trkpt lat="59.0842795372" lon="30.028488636">
        <time>2026-04-22T08:55:23.000Z</time>
      </trkpt>
      <trkpt lat="59.0842795372" lon="30.028488636">
        <time>2026-04-22T08:55:26.000Z</time>
      </trkpt>
      <trkpt lat="59.0842795372" lon="30.028488636">
        <time>2026-04-22T08:55:31.000Z</time>
      </trkpt>
      <trkpt lat="59.0842795372" lon="30.028488636">
        <time>2026-04-22T08:55:33.000Z</time>
      </trkpt>
      <trkpt lat="59.0842795372" lon="30.028488636">
        <time>2026-04-22T08:55:36.000Z</time>
      </trkpt>
      <trkpt lat="59.0842795372" lon="30.028488636">
        <time>2026-04-22T08:55:38.000Z</time>
      </trkpt>
      <trkpt lat="59.0842795372" lon="30.028488636">
        <time>2026-04-22T08:55:41.000Z</time>
      </trkpt>
      <trkpt lat="59.0842795372" lon="30.0284671783">
        <time>2026-04-22T08:55:43.000Z</time>
      </trkpt>
      <trkpt lat="59.0842795372" lon="30.0284457207">
        <time>2026-04-22T08:55:46.000Z</time>
      </trkpt>
      <trkpt lat="59.0842795372" lon="30.028424263">
        <time>2026-04-22T08:55:48.000Z</time>
      </trkpt>
      <trkpt lat="59.0842795372" lon="30.028424263">
        <time>2026-04-22T08:55:51.000Z</time>
      </trkpt>
      <trkpt lat="59.0843009949" lon="30.0284457207">
        <time>2026-04-22T08:55:53.000Z</time>
      </trkpt>
      <trkpt lat="59.0843224525" lon="30.0285315514">
        <time>2026-04-22T08:55:56.000Z</time>
      </trkpt>
      <trkpt lat="59.0843653679" lon="30.0287032127">
        <time>2026-04-22T08:55:58.000Z</time>
      </trkpt>
      <trkpt lat="59.0843868256" lon="30.0288963318">
        <time>2026-04-22T08:56:01.000Z</time>
      </trkpt>
      <trkpt lat="59.0844297409" lon="30.0290036201">
        <time>2026-04-22T08:56:03.000Z</time>
      </trkpt>
      <trkpt lat="59.0844726562" lon="30.0290679932">
        <time>2026-04-22T08:56:06.000Z</time>
      </trkpt>
      <trkpt lat="59.0844726562" lon="30.0291323662">
        <time>2026-04-22T08:56:08.000Z</time>
      </trkpt>
      <trkpt lat="59.0844726562" lon="30.0291323662">
        <time>2026-04-22T08:56:11.000Z</time>
      </trkpt>
      <trkpt lat="59.0844726562" lon="30.0291323662">
        <time>2026-04-22T08:56:13.000Z</time>
      </trkpt>
      <trkpt lat="59.0844726562" lon="30.0290894508">
        <time>2026-04-22T08:56:16.000Z</time>
      </trkpt>
      <trkpt lat="59.0844297409" lon="30.0289821625">
        <time>2026-04-22T08:56:18.000Z</time>
      </trkpt>
      <trkpt lat="59.0844297409" lon="30.0289821625">
        <time>2026-04-22T08:56:21.000Z</time>
      </trkpt>
      <trkpt lat="59.0844726562" lon="30.0290465355">
        <time>2026-04-22T08:56:23.000Z</time>
      </trkpt>
      <trkpt lat="59.0845155716" lon="30.0292396545">
        <time>2026-04-22T08:56:26.000Z</time>
      </trkpt>
      <trkpt lat="59.0845584869" lon="30.0293684006">
        <time>2026-04-22T08:56:28.000Z</time>
      </trkpt>
      <trkpt lat="59.0845584869" lon="30.0293254852">
        <time>2026-04-22T08:56:31.000Z</time>
      </trkpt>
      <trkpt lat="59.0845799446" lon="30.0292611122">
        <time>2026-04-22T08:56:33.000Z</time>
      </trkpt>
      <trkpt lat="59.08462286" lon="30.0292611122">
        <time>2026-04-22T08:56:36.000Z</time>
      </trkpt>
      <trkpt lat="59.0846657753" lon="30.0291967392">
        <time>2026-04-22T08:56:38.000Z</time>
      </trkpt>
      <trkpt lat="59.084687233" lon="30.0291109085">
        <time>2026-04-22T08:56:41.000Z</time>
      </trkpt>
      <trkpt lat="59.0846443176" lon="30.0291538239">
        <time>2026-04-22T08:56:43.000Z</time>
      </trkpt>
      <trkpt lat="59.0845799446" lon="30.0293254852">
        <time>2026-04-22T08:56:46.000Z</time>
      </trkpt>
      <trkpt lat="59.0845799446" lon="30.0294756889">
        <time>2026-04-22T08:56:48.000Z</time>
      </trkpt>
      <trkpt lat="59.0846657753" lon="30.0296902657">
        <time>2026-04-22T08:56:51.000Z</time>
      </trkpt>
      <trkpt lat="59.084751606" lon="30.0298833847">
        <time>2026-04-22T08:56:53.000Z</time>
      </trkpt>
      <trkpt lat="59.084815979" lon="30.0300979614">
        <time>2026-04-22T08:56:56.000Z</time>
      </trkpt>
      <trkpt lat="59.0848588943" lon="30.0303125381">
        <time>2026-04-22T08:56:58.000Z</time>
      </trkpt>
      <trkpt lat="59.084944725" lon="30.0304627419">
        <time>2026-04-22T08:57:01.000Z</time>
      </trkpt>
      <trkpt lat="59.0850090981" lon="30.0306344032">
        <time>2026-04-22T08:57:03.000Z</time>
      </trkpt>
      <trkpt lat="59.0850305557" lon="30.0308275223">
        <time>2026-04-22T08:57:06.000Z</time>
      </trkpt>
      <trkpt lat="59.0850520134" lon="30.031042099">
        <time>2026-04-22T08:57:08.000Z</time>
      </trkpt>
      <trkpt lat="59.0850734711" lon="30.031170845">
        <time>2026-04-22T08:57:11.000Z</time>
      </trkpt>
      <trkpt lat="59.0850734711" lon="30.0311279297">
        <time>2026-04-22T08:57:13.000Z</time>
      </trkpt>
      <trkpt lat="59.0850305557" lon="30.0308918953">
        <time>2026-04-22T08:57:16.000Z</time>
      </trkpt>
      <trkpt lat="59.0850090981" lon="30.0306773186">
        <time>2026-04-22T08:57:18.000Z</time>
      </trkpt>
      <trkpt lat="59.0849232674" lon="30.0304412842">
        <time>2026-04-22T08:57:21.000Z</time>
      </trkpt>
      <trkpt lat="59.0848374367" lon="30.0302481651">
        <time>2026-04-22T08:57:23.000Z</time>
      </trkpt>
      <trkpt lat="59.084815979" lon="30.0302267075">
        <time>2026-04-22T08:57:26.000Z</time>
      </trkpt>
      <trkpt lat="59.0848374367" lon="30.0302481651">
        <time>2026-04-22T08:57:28.000Z</time>
      </trkpt>
      <trkpt lat="59.084880352" lon="30.0303554535">
        <time>2026-04-22T08:57:31.000Z</time>
      </trkpt>
      <trkpt lat="59.084944725" lon="30.0305056572">
        <time>2026-04-22T08:57:33.000Z</time>
      </trkpt>
      <trkpt lat="59.0849876404" lon="30.0305271149">
        <time>2026-04-22T08:57:36.000Z</time>
      </trkpt>
      <trkpt lat="59.084944725" lon="30.0304841995">
        <time>2026-04-22T08:57:38.000Z</time>
      </trkpt>
      <trkpt lat="59.0849232674" lon="30.0304412842">
        <time>2026-04-22T08:57:41.000Z</time>
      </trkpt>
      <trkpt lat="59.0849232674" lon="30.0305056572">
        <time>2026-04-22T08:57:43.000Z</time>
      </trkpt>
      <trkpt lat="59.0849876404" lon="30.0307202339">
        <time>2026-04-22T08:57:46.000Z</time>
      </trkpt>
      <trkpt lat="59.0850520134" lon="30.0309348106">
        <time>2026-04-22T08:57:48.000Z</time>
      </trkpt>
      <trkpt lat="59.0851163864" lon="30.0310850143">
        <time>2026-04-22T08:57:51.000Z</time>
      </trkpt>
      <trkpt lat="59.0850734711" lon="30.031170845">
        <time>2026-04-22T08:57:53.000Z</time>
      </trkpt>
      <trkpt lat="59.0850305557" lon="30.0312995911">
        <time>2026-04-22T08:57:56.000Z</time>
      </trkpt>
      <trkpt lat="59.0850305557" lon="30.0314927101">
        <time>2026-04-22T08:57:58.000Z</time>
      </trkpt>
      <trkpt lat="59.0850734711" lon="30.0316858292">
        <time>2026-04-22T08:58:01.000Z</time>
      </trkpt>
      <trkpt lat="59.0850949287" lon="30.0318360329">
        <time>2026-04-22T08:58:03.000Z</time>
      </trkpt>
      <trkpt lat="59.0850734711" lon="30.0319647789">
        <time>2026-04-22T08:58:06.000Z</time>
      </trkpt>
      <trkpt lat="59.0849876404" lon="30.0320076942">
        <time>2026-04-22T08:58:08.000Z</time>
      </trkpt>
      <trkpt lat="59.0849232674" lon="30.0319433212">
        <time>2026-04-22T08:58:11.000Z</time>
      </trkpt>
      <trkpt lat="59.0849232674" lon="30.0318360329">
        <time>2026-04-22T08:58:13.000Z</time>
      </trkpt>
      <trkpt lat="59.0849876404" lon="30.0317287445">
        <time>2026-04-22T08:58:16.000Z</time>
      </trkpt>
      <trkpt lat="59.0850305557" lon="30.0316858292">
        <time>2026-04-22T08:58:18.000Z</time>
      </trkpt>
      <trkpt lat="59.0850305557" lon="30.0316858292">
        <time>2026-04-22T08:58:21.000Z</time>
      </trkpt>
      <trkpt lat="59.0850305557" lon="30.0316858292">
        <time>2026-04-22T08:58:23.000Z</time>
      </trkpt>
      <trkpt lat="59.0850305557" lon="30.0316858292">
        <time>2026-04-22T08:58:26.000Z</time>
      </trkpt>
      <trkpt lat="59.0850305557" lon="30.0316858292">
        <time>2026-04-22T08:58:28.000Z</time>
      </trkpt>
      <trkpt lat="59.0850305557" lon="30.0316858292">
        <time>2026-04-22T08:58:31.000Z</time>
      </trkpt>
      <trkpt lat="59.0850305557" lon="30.0316858292">
        <time>2026-04-22T08:58:33.000Z</time>
      </trkpt>
      <trkpt lat="59.0850305557" lon="30.0316858292">
        <time>2026-04-22T08:58:36.000Z</time>
      </trkpt>
      <trkpt lat="59.0850520134" lon="30.0316214561">
        <time>2026-04-22T08:58:38.000Z</time>
      </trkpt>
      <trkpt lat="59.0850520134" lon="30.0313854218">
        <time>2026-04-22T08:58:41.000Z</time>
      </trkpt>
      <trkpt lat="59.0850305557" lon="30.0311279297">
        <time>2026-04-22T08:58:43.000Z</time>
      </trkpt>
      <trkpt lat="59.0850305557" lon="30.030913353">
        <time>2026-04-22T08:58:46.000Z</time>
      </trkpt>
      <trkpt lat="59.0850305557" lon="30.0309348106">
        <time>2026-04-22T08:58:48.000Z</time>
      </trkpt>
      <trkpt lat="59.0850520134" lon="30.0310206413">
        <time>2026-04-22T08:58:51.000Z</time>
      </trkpt>
      <trkpt lat="59.0850734711" lon="30.0311279297">
        <time>2026-04-22T08:58:53.000Z</time>
      </trkpt>
      <trkpt lat="59.0850520134" lon="30.031235218">
        <time>2026-04-22T08:58:56.000Z</time>
      </trkpt>
      <trkpt lat="59.0850520134" lon="30.031235218">
        <time>2026-04-22T08:58:58.000Z</time>
      </trkpt>
      <trkpt lat="59.0850520134" lon="30.031235218">
        <time>2026-04-22T08:59:01.000Z</time>
      </trkpt>
      <trkpt lat="59.0850520134" lon="30.031235218">
        <time>2026-04-22T08:59:03.000Z</time>
      </trkpt>
      <trkpt lat="59.0850520134" lon="30.031235218">
        <time>2026-04-22T08:59:06.000Z</time>
      </trkpt>
      <trkpt lat="59.0850520134" lon="30.031235218">
        <time>2026-04-22T08:59:08.000Z</time>
      </trkpt>
      <trkpt lat="59.0850520134" lon="30.031235218">
        <time>2026-04-22T08:59:11.000Z</time>
      </trkpt>
      <trkpt lat="59.0850520134" lon="30.0313639641">
        <time>2026-04-22T08:59:13.000Z</time>
      </trkpt>
      <trkpt lat="59.0850949287" lon="30.0315999985">
        <time>2026-04-22T08:59:16.000Z</time>
      </trkpt>
      <trkpt lat="59.0850734711" lon="30.0317072868">
        <time>2026-04-22T08:59:18.000Z</time>
      </trkpt>
      <trkpt lat="59.0851378441" lon="30.0318145752">
        <time>2026-04-22T08:59:21.000Z</time>
      </trkpt>
      <trkpt lat="59.0851807594" lon="30.0319218636">
        <time>2026-04-22T08:59:23.000Z</time>
      </trkpt>
      <trkpt lat="59.0851378441" lon="30.0320291519">
        <time>2026-04-22T08:59:26.000Z</time>
      </trkpt>
      <trkpt lat="59.0850734711" lon="30.0319862366">
        <time>2026-04-22T08:59:28.000Z</time>
      </trkpt>
      <trkpt lat="59.0850949287" lon="30.0320076942">
        <time>2026-04-22T08:59:31.000Z</time>
      </trkpt>
      <trkpt lat="59.0850949287" lon="30.0320076942">
        <time>2026-04-22T08:59:33.000Z</time>
      </trkpt>
      <trkpt lat="59.0850949287" lon="30.0321364403">
        <time>2026-04-22T08:59:36.000Z</time>
      </trkpt>
      <trkpt lat="59.0851163864" lon="30.032286644">
        <time>2026-04-22T08:59:38.000Z</time>
      </trkpt>
      <trkpt lat="59.0851378441" lon="30.032479763">
        <time>2026-04-22T08:59:41.000Z</time>
      </trkpt>
      <trkpt lat="59.0850949287" lon="30.0325870514">
        <time>2026-04-22T08:59:43.000Z</time>
      </trkpt>
      <trkpt lat="59.0850949287" lon="30.0327372551">
        <time>2026-04-22T08:59:46.000Z</time>
      </trkpt>
      <trkpt lat="59.0851378441" lon="30.0329089165">
        <time>2026-04-22T08:59:51.000Z</time>
      </trkpt>
      <trkpt lat="59.0850949287" lon="30.0328016281">
        <time>2026-04-22T08:59:53.000Z</time>
      </trkpt>
      <trkpt lat="59.0850949287" lon="30.0326299667">
        <time>2026-04-22T08:59:56.000Z</time>
      </trkpt>
      <trkpt lat="59.0850949287" lon="30.0324583054">
        <time>2026-04-22T08:59:58.000Z</time>
      </trkpt>
      <trkpt lat="59.0851163864" lon="30.0324583054">
        <time>2026-04-22T09:00:01.000Z</time>
      </trkpt>
      <trkpt lat="59.0850949287" lon="30.0324583054">
        <time>2026-04-22T09:00:03.000Z</time>
      </trkpt>
      <trkpt lat="59.0850949287" lon="30.0324583054">
        <time>2026-04-22T09:00:06.000Z</time>
      </trkpt>
      <trkpt lat="59.0850949287" lon="30.0324583054">
        <time>2026-04-22T09:00:08.000Z</time>
      </trkpt>
      <trkpt lat="59.0850949287" lon="30.0324368477">
        <time>2026-04-22T09:00:11.000Z</time>
      </trkpt>
      <trkpt lat="59.0850949287" lon="30.0323939323">
        <time>2026-04-22T09:00:13.000Z</time>
      </trkpt>
      <trkpt lat="59.0851163864" lon="30.032351017">
        <time>2026-04-22T09:00:16.000Z</time>
      </trkpt>
      <trkpt lat="59.0851163864" lon="30.0322437286">
        <time>2026-04-22T09:00:18.000Z</time>
      </trkpt>
      <trkpt lat="59.0851163864" lon="30.0320720673">
        <time>2026-04-22T09:00:21.000Z</time>
      </trkpt>
      <trkpt lat="59.0850949287" lon="30.0319433212">
        <time>2026-04-22T09:00:23.000Z</time>
      </trkpt>
      <trkpt lat="59.0851163864" lon="30.0319647789">
        <time>2026-04-22T09:00:26.000Z</time>
      </trkpt>
      <trkpt lat="59.0851163864" lon="30.0319862366">
        <time>2026-04-22T09:00:28.000Z</time>
      </trkpt>
      <trkpt lat="59.0851163864" lon="30.0319862366">
        <time>2026-04-22T09:00:31.000Z</time>
      </trkpt>
      <trkpt lat="59.0851163864" lon="30.0319647789">
        <time>2026-04-22T09:00:33.000Z</time>
      </trkpt>
      <trkpt lat="59.0851163864" lon="30.0319862366">
        <time>2026-04-22T09:00:36.000Z</time>
      </trkpt>
      <trkpt lat="59.0851163864" lon="30.0319862366">
        <time>2026-04-22T09:00:38.000Z</time>
      </trkpt>
      <trkpt lat="59.0851163864" lon="30.0319433212">
        <time>2026-04-22T09:00:41.000Z</time>
      </trkpt>
      <trkpt lat="59.0851593018" lon="30.0318360329">
        <time>2026-04-22T09:00:43.000Z</time>
      </trkpt>
      <trkpt lat="59.0851378441" lon="30.0317716599">
        <time>2026-04-22T09:00:46.000Z</time>
      </trkpt>
      <trkpt lat="59.0851163864" lon="30.0317072868">
        <time>2026-04-22T09:00:48.000Z</time>
      </trkpt>
      <trkpt lat="59.0851163864" lon="30.0316214561">
        <time>2026-04-22T09:00:51.000Z</time>
      </trkpt>
      <trkpt lat="59.0851163864" lon="30.0315785408">
        <time>2026-04-22T09:00:53.000Z</time>
      </trkpt>
      <trkpt lat="59.0851163864" lon="30.0315785408">
        <time>2026-04-22T09:00:56.000Z</time>
      </trkpt>
      <trkpt lat="59.0850949287" lon="30.0314927101">
        <time>2026-04-22T09:00:58.000Z</time>
      </trkpt>
      <trkpt lat="59.0850949287" lon="30.0314283371">
        <time>2026-04-22T09:01:01.000Z</time>
      </trkpt>
      <trkpt lat="59.0850949287" lon="30.0314068794">
        <time>2026-04-22T09:01:03.000Z</time>
      </trkpt>
      <trkpt lat="59.0850734711" lon="30.0313210487">
        <time>2026-04-22T09:01:06.000Z</time>
      </trkpt>
      <trkpt lat="59.0850734711" lon="30.0312566757">
        <time>2026-04-22T09:01:08.000Z</time>
      </trkpt>
      <trkpt lat="59.0850734711" lon="30.0312137604">
        <time>2026-04-22T09:01:11.000Z</time>
      </trkpt>
      <trkpt lat="59.0850734711" lon="30.031170845">
        <time>2026-04-22T09:01:13.000Z</time>
      </trkpt>
      <trkpt lat="59.0850734711" lon="30.031106472">
        <time>2026-04-22T09:01:16.000Z</time>
      </trkpt>
      <trkpt lat="59.0850734711" lon="30.0310635567">
        <time>2026-04-22T09:01:18.000Z</time>
      </trkpt>
      <trkpt lat="59.0850520134" lon="30.030977726">
        <time>2026-04-22T09:01:21.000Z</time>
      </trkpt>
      <trkpt lat="59.0850520134" lon="30.0309348106">
        <time>2026-04-22T09:01:23.000Z</time>
      </trkpt>
      <trkpt lat="59.0850520134" lon="30.0309562683">
        <time>2026-04-22T09:01:26.000Z</time>
      </trkpt>
      <trkpt lat="59.0850520134" lon="30.0309348106">
        <time>2026-04-22T09:01:28.000Z</time>
      </trkpt>
      <trkpt lat="59.0850305557" lon="30.0308489799">
        <time>2026-04-22T09:01:31.000Z</time>
      </trkpt>
      <trkpt lat="59.0850305557" lon="30.0307631493">
        <time>2026-04-22T09:01:33.000Z</time>
      </trkpt>
      <trkpt lat="59.0850520134" lon="30.0306773186">
        <time>2026-04-22T09:01:36.000Z</time>
      </trkpt>
      <trkpt lat="59.0850520134" lon="30.0306129456">
        <time>2026-04-22T09:01:38.000Z</time>
      </trkpt>
      <trkpt lat="59.0850305557" lon="30.0306129456">
        <time>2026-04-22T09:01:41.000Z</time>
      </trkpt>
      <trkpt lat="59.0850090981" lon="30.0305485725">
        <time>2026-04-22T09:01:43.000Z</time>
      </trkpt>
      <trkpt lat="59.0849876404" lon="30.0304627419">
        <time>2026-04-22T09:01:46.000Z</time>
      </trkpt>
      <trkpt lat="59.0850305557" lon="30.0304412842">
        <time>2026-04-22T09:01:48.000Z</time>
      </trkpt>
      <trkpt lat="59.0851163864" lon="30.0305056572">
        <time>2026-04-22T09:01:51.000Z</time>
      </trkpt>
      <trkpt lat="59.0851807594" lon="30.0304841995">
        <time>2026-04-22T09:01:53.000Z</time>
      </trkpt>
      <trkpt lat="59.0851593018" lon="30.0304627419">
        <time>2026-04-22T09:01:56.000Z</time>
      </trkpt>
      <trkpt lat="59.0851807594" lon="30.0304412842">
        <time>2026-04-22T09:01:58.000Z</time>
      </trkpt>
      <trkpt lat="59.0852022171" lon="30.0304198265">
        <time>2026-04-22T09:02:01.000Z</time>
      </trkpt>
      <trkpt lat="59.0852451324" lon="30.0304198265">
        <time>2026-04-22T09:02:03.000Z</time>
      </trkpt>
      <trkpt lat="59.0852236748" lon="30.0304198265">
        <time>2026-04-22T09:02:06.000Z</time>
      </trkpt>
      <trkpt lat="59.0852451324" lon="30.0304627419">
        <time>2026-04-22T09:02:08.000Z</time>
      </trkpt>
      <trkpt lat="59.0852880478" lon="30.0304412842">
        <time>2026-04-22T09:02:11.000Z</time>
      </trkpt>
      <trkpt lat="59.0852880478" lon="30.0304198265">
        <time>2026-04-22T09:02:13.000Z</time>
      </trkpt>
      <trkpt lat="59.0852665901" lon="30.0303125381">
        <time>2026-04-22T09:02:16.000Z</time>
      </trkpt>
      <trkpt lat="59.0852665901" lon="30.0302052498">
        <time>2026-04-22T09:02:18.000Z</time>
      </trkpt>
      <trkpt lat="59.0852880478" lon="30.0301194191">
        <time>2026-04-22T09:02:21.000Z</time>
      </trkpt>
      <trkpt lat="59.0853309631" lon="30.0300550461">
        <time>2026-04-22T09:02:23.000Z</time>
      </trkpt>
      <trkpt lat="59.0853309631" lon="30.0300550461">
        <time>2026-04-22T09:02:26.000Z</time>
      </trkpt>
      <trkpt lat="59.0853309631" lon="30.0301194191">
        <time>2026-04-22T09:02:28.000Z</time>
      </trkpt>
      <trkpt lat="59.0853309631" lon="30.0301194191">
        <time>2026-04-22T09:02:31.000Z</time>
      </trkpt>
      <trkpt lat="59.0853524208" lon="30.0301408768">
        <time>2026-04-22T09:02:33.000Z</time>
      </trkpt>
      <trkpt lat="59.0853953362" lon="30.0301194191">
        <time>2026-04-22T09:02:36.000Z</time>
      </trkpt>
      <trkpt lat="59.0854167938" lon="30.0301623344">
        <time>2026-04-22T09:02:38.000Z</time>
      </trkpt>
      <trkpt lat="59.0854382515" lon="30.0302052498">
        <time>2026-04-22T09:02:41.000Z</time>
      </trkpt>
      <trkpt lat="59.0854597092" lon="30.0302481651">
        <time>2026-04-22T09:02:43.000Z</time>
      </trkpt>
      <trkpt lat="59.0854597092" lon="30.0302267075">
        <time>2026-04-22T09:02:46.000Z</time>
      </trkpt>
      <trkpt lat="59.0854811668" lon="30.0302052498">
        <time>2026-04-22T09:02:48.000Z</time>
      </trkpt>
      <trkpt lat="59.0855026245" lon="30.0302267075">
        <time>2026-04-22T09:02:51.000Z</time>
      </trkpt>
      <trkpt lat="59.0855240822" lon="30.0302481651">
        <time>2026-04-22T09:02:53.000Z</time>
      </trkpt>
      <trkpt lat="59.0855669975" lon="30.0302910805">
        <time>2026-04-22T09:02:56.000Z</time>
      </trkpt>
      <trkpt lat="59.0855884552" lon="30.0303339958">
        <time>2026-04-22T09:02:58.000Z</time>
      </trkpt>
      <trkpt lat="59.0856313705" lon="30.0303983688">
        <time>2026-04-22T09:03:01.000Z</time>
      </trkpt>
      <trkpt lat="59.0856528282" lon="30.0303769112">
        <time>2026-04-22T09:03:03.000Z</time>
      </trkpt>
      <trkpt lat="59.0856742859" lon="30.0302910805">
        <time>2026-04-22T09:03:06.000Z</time>
      </trkpt>
      <trkpt lat="59.0856313705" lon="30.0302267075">
        <time>2026-04-22T09:03:08.000Z</time>
      </trkpt>
      <trkpt lat="59.0856313705" lon="30.0302052498">
        <time>2026-04-22T09:03:11.000Z</time>
      </trkpt>
      <trkpt lat="59.0856313705" lon="30.0301623344">
        <time>2026-04-22T09:03:13.000Z</time>
      </trkpt>
      <trkpt lat="59.0856313705" lon="30.0301623344">
        <time>2026-04-22T09:03:16.000Z</time>
      </trkpt>
      <trkpt lat="59.0856313705" lon="30.0301194191">
        <time>2026-04-22T09:03:18.000Z</time>
      </trkpt>
      <trkpt lat="59.0856313705" lon="30.0301408768">
        <time>2026-04-22T09:03:21.000Z</time>
      </trkpt>
      <trkpt lat="59.0856742859" lon="30.0301194191">
        <time>2026-04-22T09:03:23.000Z</time>
      </trkpt>
      <trkpt lat="59.0856742859" lon="30.0301194191">
        <time>2026-04-22T09:03:26.000Z</time>
      </trkpt>
      <trkpt lat="59.0856742859" lon="30.0301408768">
        <time>2026-04-22T09:03:28.000Z</time>
      </trkpt>
      <trkpt lat="59.0857172012" lon="30.0300979614">
        <time>2026-04-22T09:03:31.000Z</time>
      </trkpt>
      <trkpt lat="59.0857172012" lon="30.0300979614">
        <time>2026-04-22T09:03:33.000Z</time>
      </trkpt>
      <trkpt lat="59.0857172012" lon="30.0301194191">
        <time>2026-04-22T09:03:36.000Z</time>
      </trkpt>
      <trkpt lat="59.0857386589" lon="30.0301623344">
        <time>2026-04-22T09:03:38.000Z</time>
      </trkpt>
      <trkpt lat="59.0857386589" lon="30.0301408768">
        <time>2026-04-22T09:03:41.000Z</time>
      </trkpt>
      <trkpt lat="59.0857815742" lon="30.0301194191">
        <time>2026-04-22T09:03:43.000Z</time>
      </trkpt>
      <trkpt lat="59.0858244896" lon="30.0300765038">
        <time>2026-04-22T09:03:46.000Z</time>
      </trkpt>
      <trkpt lat="59.0858459473" lon="30.0300550461">
        <time>2026-04-22T09:03:48.000Z</time>
      </trkpt>
      <trkpt lat="59.0858459473" lon="30.0300335884">
        <time>2026-04-22T09:03:51.000Z</time>
      </trkpt>
      <trkpt lat="59.0858888626" lon="30.0300121307">
        <time>2026-04-22T09:03:53.000Z</time>
      </trkpt>
      <trkpt lat="59.0859103203" lon="30.0300335884">
        <time>2026-04-22T09:03:56.000Z</time>
      </trkpt>
      <trkpt lat="59.0859103203" lon="30.0300335884">
        <time>2026-04-22T09:03:58.000Z</time>
      </trkpt>
      <trkpt lat="59.085931778" lon="30.0300121307">
        <time>2026-04-22T09:04:01.000Z</time>
      </trkpt>
      <trkpt lat="59.0859532356" lon="30.0300121307">
        <time>2026-04-22T09:04:03.000Z</time>
      </trkpt>
      <trkpt lat="59.085996151" lon="30.0299692154">
        <time>2026-04-22T09:04:06.000Z</time>
      </trkpt>
      <trkpt lat="59.0859746933" lon="30.0299048424">
        <time>2026-04-22T09:04:08.000Z</time>
      </trkpt>
      <trkpt lat="59.0860176086" lon="30.0299048424">
        <time>2026-04-22T09:04:11.000Z</time>
      </trkpt>
      <trkpt lat="59.0860390663" lon="30.0298833847">
        <time>2026-04-22T09:04:13.000Z</time>
      </trkpt>
      <trkpt lat="59.0860176086" lon="30.0299263">
        <time>2026-04-22T09:04:16.000Z</time>
      </trkpt>
      <trkpt lat="59.0860176086" lon="30.0299692154">
        <time>2026-04-22T09:04:18.000Z</time>
      </trkpt>
      <trkpt lat="59.0860390663" lon="30.0299906731">
        <time>2026-04-22T09:04:21.000Z</time>
      </trkpt>
      <trkpt lat="59.086060524" lon="30.0300335884">
        <time>2026-04-22T09:04:23.000Z</time>
      </trkpt>
      <trkpt lat="59.0860819817" lon="30.0299906731">
        <time>2026-04-22T09:04:26.000Z</time>
      </trkpt>
      <trkpt lat="59.086124897" lon="30.0299263">
        <time>2026-04-22T09:04:28.000Z</time>
      </trkpt>
      <trkpt lat="59.08618927" lon="30.0298404694">
        <time>2026-04-22T09:04:31.000Z</time>
      </trkpt>
      <trkpt lat="59.0862107277" lon="30.0298833847">
        <time>2026-04-22T09:04:33.000Z</time>
      </trkpt>
      <trkpt lat="59.0862321854" lon="30.0298833847">
        <time>2026-04-22T09:04:36.000Z</time>
      </trkpt>
      <trkpt lat="59.0862321854" lon="30.0298833847">
        <time>2026-04-22T09:04:38.000Z</time>
      </trkpt>
      <trkpt lat="59.0862107277" lon="30.029797554">
        <time>2026-04-22T09:04:41.000Z</time>
      </trkpt>
      <trkpt lat="59.0862321854" lon="30.029733181">
        <time>2026-04-22T09:04:43.000Z</time>
      </trkpt>
      <trkpt lat="59.086253643" lon="30.029797554">
        <time>2026-04-22T09:04:46.000Z</time>
      </trkpt>
      <trkpt lat="59.0862751007" lon="30.0298404694">
        <time>2026-04-22T09:04:48.000Z</time>
      </trkpt>
      <trkpt lat="59.0862751007" lon="30.0298190117">
        <time>2026-04-22T09:04:51.000Z</time>
      </trkpt>
      <trkpt lat="59.0862751007" lon="30.0298404694">
        <time>2026-04-22T09:04:53.000Z</time>
      </trkpt>
      <trkpt lat="59.0863180161" lon="30.0298404694">
        <time>2026-04-22T09:04:56.000Z</time>
      </trkpt>
      <trkpt lat="59.0863180161" lon="30.0299048424">
        <time>2026-04-22T09:04:58.000Z</time>
      </trkpt>
      <trkpt lat="59.0863180161" lon="30.029861927">
        <time>2026-04-22T09:05:01.000Z</time>
      </trkpt>
      <trkpt lat="59.0863609314" lon="30.0298190117">
        <time>2026-04-22T09:05:03.000Z</time>
      </trkpt>
      <trkpt lat="59.0864253044" lon="30.029861927">
        <time>2026-04-22T09:05:06.000Z</time>
      </trkpt>
      <trkpt lat="59.0864467621" lon="30.0298833847">
        <time>2026-04-22T09:05:08.000Z</time>
      </trkpt>
      <trkpt lat="59.0864467621" lon="30.0298404694">
        <time>2026-04-22T09:05:11.000Z</time>
      </trkpt>
      <trkpt lat="59.0864896774" lon="30.0298833847">
        <time>2026-04-22T09:05:13.000Z</time>
      </trkpt>
      <trkpt lat="59.0865325928" lon="30.0299048424">
        <time>2026-04-22T09:05:16.000Z</time>
      </trkpt>
      <trkpt lat="59.0865755081" lon="30.0299477577">
        <time>2026-04-22T09:05:18.000Z</time>
      </trkpt>
      <trkpt lat="59.0866398811" lon="30.0298833847">
        <time>2026-04-22T09:05:21.000Z</time>
      </trkpt>
      <trkpt lat="59.0866398811" lon="30.029861927">
        <time>2026-04-22T09:05:23.000Z</time>
      </trkpt>
      <trkpt lat="59.0866613388" lon="30.029797554">
        <time>2026-04-22T09:05:26.000Z</time>
      </trkpt>
      <trkpt lat="59.0866613388" lon="30.029797554">
        <time>2026-04-22T09:05:28.000Z</time>
      </trkpt>
      <trkpt lat="59.0866827965" lon="30.0298190117">
        <time>2026-04-22T09:05:31.000Z</time>
      </trkpt>
      <trkpt lat="59.0867257118" lon="30.029797554">
        <time>2026-04-22T09:05:33.000Z</time>
      </trkpt>
      <trkpt lat="59.0867686272" lon="30.0297760963">
        <time>2026-04-22T09:05:36.000Z</time>
      </trkpt>
      <trkpt lat="59.0868330002" lon="30.0297546387">
        <time>2026-04-22T09:05:38.000Z</time>
      </trkpt>
      <trkpt lat="59.0869188309" lon="30.0296258926">
        <time>2026-04-22T09:05:41.000Z</time>
      </trkpt>
      <trkpt lat="59.0869832039" lon="30.0294971466">
        <time>2026-04-22T09:05:43.000Z</time>
      </trkpt>
      <trkpt lat="59.0870046616" lon="30.0294113159">
        <time>2026-04-22T09:05:46.000Z</time>
      </trkpt>
      <trkpt lat="59.0869617462" lon="30.0294327736">
        <time>2026-04-22T09:05:48.000Z</time>
      </trkpt>
      <trkpt lat="59.0868973732" lon="30.029540062">
        <time>2026-04-22T09:05:51.000Z</time>
      </trkpt>
      <trkpt lat="59.0868544579" lon="30.0296902657">
        <time>2026-04-22T09:05:53.000Z</time>
      </trkpt>
      <trkpt lat="59.0868973732" lon="30.0298833847">
        <time>2026-04-22T09:05:56.000Z</time>
      </trkpt>
      <trkpt lat="59.0868973732" lon="30.0299263">
        <time>2026-04-22T09:05:58.000Z</time>
      </trkpt>
      <trkpt lat="59.0868759155" lon="30.029861927">
        <time>2026-04-22T09:06:01.000Z</time>
      </trkpt>
      <trkpt lat="59.0868759155" lon="30.0297760963">
        <time>2026-04-22T09:06:03.000Z</time>
      </trkpt>
      <trkpt lat="59.0868759155" lon="30.0297117233">
        <time>2026-04-22T09:06:06.000Z</time>
      </trkpt>
      <trkpt lat="59.0868973732" lon="30.0297117233">
        <time>2026-04-22T09:06:08.000Z</time>
      </trkpt>
      <trkpt lat="59.0869402885" lon="30.0296473503">
        <time>2026-04-22T09:06:11.000Z</time>
      </trkpt>
      <trkpt lat="59.0869832039" lon="30.0296258926">
        <time>2026-04-22T09:06:13.000Z</time>
      </trkpt>
      <trkpt lat="59.0870261192" lon="30.029668808">
        <time>2026-04-22T09:06:16.000Z</time>
      </trkpt>
      <trkpt lat="59.0870690346" lon="30.0296902657">
        <time>2026-04-22T09:06:18.000Z</time>
      </trkpt>
      <trkpt lat="59.0870904922" lon="30.029668808">
        <time>2026-04-22T09:06:21.000Z</time>
      </trkpt>
      <trkpt lat="59.0871334076" lon="30.029604435">
        <time>2026-04-22T09:06:23.000Z</time>
      </trkpt>
      <trkpt lat="59.0871763229" lon="30.0295829773">
        <time>2026-04-22T09:06:26.000Z</time>
      </trkpt>
      <trkpt lat="59.0871977806" lon="30.0295186043">
        <time>2026-04-22T09:06:28.000Z</time>
      </trkpt>
      <trkpt lat="59.0871977806" lon="30.0294542313">
        <time>2026-04-22T09:06:31.000Z</time>
      </trkpt>
      <trkpt lat="59.0871977806" lon="30.0294542313">
        <time>2026-04-22T09:06:33.000Z</time>
      </trkpt>
      <trkpt lat="59.0872192383" lon="30.0294542313">
        <time>2026-04-22T09:06:36.000Z</time>
      </trkpt>
      <trkpt lat="59.087240696" lon="30.0294756889">
        <time>2026-04-22T09:06:38.000Z</time>
      </trkpt>
      <trkpt lat="59.0872836113" lon="30.0295186043">
        <time>2026-04-22T09:06:41.000Z</time>
      </trkpt>
      <trkpt lat="59.087305069" lon="30.0295829773">
        <time>2026-04-22T09:06:43.000Z</time>
      </trkpt>
      <trkpt lat="59.0873479843" lon="30.029604435">
        <time>2026-04-22T09:06:46.000Z</time>
      </trkpt>
      <trkpt lat="59.087369442" lon="30.0296473503">
        <time>2026-04-22T09:06:48.000Z</time>
      </trkpt>
      <trkpt lat="59.0873908997" lon="30.029668808">
        <time>2026-04-22T09:06:51.000Z</time>
      </trkpt>
      <trkpt lat="59.0873908997" lon="30.029668808">
        <time>2026-04-22T09:06:53.000Z</time>
      </trkpt>
      <trkpt lat="59.0873908997" lon="30.0295615196">
        <time>2026-04-22T09:06:56.000Z</time>
      </trkpt>
      <trkpt lat="59.0874123573" lon="30.0294542313">
        <time>2026-04-22T09:06:58.000Z</time>
      </trkpt>
      <trkpt lat="59.087433815" lon="30.0293040276">
        <time>2026-04-22T09:07:01.000Z</time>
      </trkpt>
      <trkpt lat="59.0874552727" lon="30.0292396545">
        <time>2026-04-22T09:07:03.000Z</time>
      </trkpt>
      <trkpt lat="59.0875196457" lon="30.0292181969">
        <time>2026-04-22T09:07:06.000Z</time>
      </trkpt>
      <trkpt lat="59.0875411034" lon="30.0291538239">
        <time>2026-04-22T09:07:08.000Z</time>
      </trkpt>
      <trkpt lat="59.0875196457" lon="30.0291752815">
        <time>2026-04-22T09:07:11.000Z</time>
      </trkpt>
      <trkpt lat="59.0875196457" lon="30.0292611122">
        <time>2026-04-22T09:07:13.000Z</time>
      </trkpt>
      <trkpt lat="59.0875196457" lon="30.0293254852">
        <time>2026-04-22T09:07:16.000Z</time>
      </trkpt>
      <trkpt lat="59.0875196457" lon="30.0294327736">
        <time>2026-04-22T09:07:18.000Z</time>
      </trkpt>
      <trkpt lat="59.0875196457" lon="30.029540062">
        <time>2026-04-22T09:07:21.000Z</time>
      </trkpt>
      <trkpt lat="59.0875411034" lon="30.029540062">
        <time>2026-04-22T09:07:23.000Z</time>
      </trkpt>
      <trkpt lat="59.087562561" lon="30.0294971466">
        <time>2026-04-22T09:07:26.000Z</time>
      </trkpt>
      <trkpt lat="59.0876054764" lon="30.0294327736">
        <time>2026-04-22T09:07:28.000Z</time>
      </trkpt>
      <trkpt lat="59.0876483917" lon="30.0293469429">
        <time>2026-04-22T09:07:31.000Z</time>
      </trkpt>
      <trkpt lat="59.0877127647" lon="30.0293254852">
        <time>2026-04-22T09:07:33.000Z</time>
      </trkpt>
      <trkpt lat="59.0877556801" lon="30.0293684006">
        <time>2026-04-22T09:07:36.000Z</time>
      </trkpt>
      <trkpt lat="59.0877556801" lon="30.0294327736">
        <time>2026-04-22T09:07:38.000Z</time>
      </trkpt>
      <trkpt lat="59.0877985954" lon="30.0293898582">
        <time>2026-04-22T09:07:41.000Z</time>
      </trkpt>
      <trkpt lat="59.0877985954" lon="30.0293254852">
        <time>2026-04-22T09:07:43.000Z</time>
      </trkpt>
      <trkpt lat="59.0877556801" lon="30.0293469429">
        <time>2026-04-22T09:07:46.000Z</time>
      </trkpt>
      <trkpt lat="59.0877127647" lon="30.0293684006">
        <time>2026-04-22T09:07:48.000Z</time>
      </trkpt>
      <trkpt lat="59.0876913071" lon="30.0292825699">
        <time>2026-04-22T09:07:51.000Z</time>
      </trkpt>
      <trkpt lat="59.0876483917" lon="30.0292825699">
        <time>2026-04-22T09:07:53.000Z</time>
      </trkpt>
      <trkpt lat="59.0876483917" lon="30.0293254852">
        <time>2026-04-22T09:07:56.000Z</time>
      </trkpt>
      <trkpt lat="59.0876483917" lon="30.0293254852">
        <time>2026-04-22T09:07:58.000Z</time>
      </trkpt>
      <trkpt lat="59.0876483917" lon="30.0293254852">
        <time>2026-04-22T09:08:01.000Z</time>
      </trkpt>
      <trkpt lat="59.0876913071" lon="30.0293040276">
        <time>2026-04-22T09:08:03.000Z</time>
      </trkpt>
      <trkpt lat="59.0877342224" lon="30.0292825699">
        <time>2026-04-22T09:08:06.000Z</time>
      </trkpt>
      <trkpt lat="59.0877985954" lon="30.0292396545">
        <time>2026-04-22T09:08:08.000Z</time>
      </trkpt>
      <trkpt lat="59.0878629684" lon="30.0292611122">
        <time>2026-04-22T09:08:11.000Z</time>
      </trkpt>
      <trkpt lat="59.0878844261" lon="30.0292825699">
        <time>2026-04-22T09:08:13.000Z</time>
      </trkpt>
      <trkpt lat="59.0878844261" lon="30.0292611122">
        <time>2026-04-22T09:08:16.000Z</time>
      </trkpt>
      <trkpt lat="59.0878415108" lon="30.0291752815">
        <time>2026-04-22T09:08:18.000Z</time>
      </trkpt>
      <trkpt lat="59.0878629684" lon="30.0290894508">
        <time>2026-04-22T09:08:21.000Z</time>
      </trkpt>
      <trkpt lat="59.0879058838" lon="30.0290465355">
        <time>2026-04-22T09:08:23.000Z</time>
      </trkpt>
      <trkpt lat="59.0879487991" lon="30.0289607048">
        <time>2026-04-22T09:08:26.000Z</time>
      </trkpt>
      <trkpt lat="59.0879487991" lon="30.0289392471">
        <time>2026-04-22T09:08:28.000Z</time>
      </trkpt>
      <trkpt lat="59.0879487991" lon="30.0289607048">
        <time>2026-04-22T09:08:31.000Z</time>
      </trkpt>
      <trkpt lat="59.0879487991" lon="30.0290250778">
        <time>2026-04-22T09:08:33.000Z</time>
      </trkpt>
      <trkpt lat="59.0880131721" lon="30.0290465355">
        <time>2026-04-22T09:08:36.000Z</time>
      </trkpt>
      <trkpt lat="59.0880775452" lon="30.0290465355">
        <time>2026-04-22T09:08:38.000Z</time>
      </trkpt>
      <trkpt lat="59.0881419182" lon="30.0290250778">
        <time>2026-04-22T09:08:41.000Z</time>
      </trkpt>
      <trkpt lat="59.0881204605" lon="30.0290465355">
        <time>2026-04-22T09:08:43.000Z</time>
      </trkpt>
      <trkpt lat="59.0880990028" lon="30.0290036201">
        <time>2026-04-22T09:08:46.000Z</time>
      </trkpt>
      <trkpt lat="59.0881204605" lon="30.0289821625">
        <time>2026-04-22T09:08:48.000Z</time>
      </trkpt>
      <trkpt lat="59.0881633759" lon="30.0289392471">
        <time>2026-04-22T09:08:51.000Z</time>
      </trkpt>
      <trkpt lat="59.0882277489" lon="30.0288748741">
        <time>2026-04-22T09:08:53.000Z</time>
      </trkpt>
      <trkpt lat="59.0882706642" lon="30.0289177895">
        <time>2026-04-22T09:08:56.000Z</time>
      </trkpt>
      <trkpt lat="59.0882706642" lon="30.0289607048">
        <time>2026-04-22T09:08:58.000Z</time>
      </trkpt>
      <trkpt lat="59.0882492065" lon="30.0289607048">
        <time>2026-04-22T09:09:01.000Z</time>
      </trkpt>
      <trkpt lat="59.0882277489" lon="30.0288963318">
        <time>2026-04-22T09:09:03.000Z</time>
      </trkpt>
      <trkpt lat="59.0882706642" lon="30.0288534164">
        <time>2026-04-22T09:09:06.000Z</time>
      </trkpt>
      <trkpt lat="59.0883135796" lon="30.0287675858">
        <time>2026-04-22T09:09:08.000Z</time>
      </trkpt>
      <trkpt lat="59.0883350372" lon="30.0287246704">
        <time>2026-04-22T09:09:11.000Z</time>
      </trkpt>
      <trkpt lat="59.0883994102" lon="30.0286817551">
        <time>2026-04-22T09:09:13.000Z</time>
      </trkpt>
      <trkpt lat="59.0884208679" lon="30.0287246704">
        <time>2026-04-22T09:09:16.000Z</time>
      </trkpt>
      <trkpt lat="59.0884637833" lon="30.0287890434">
        <time>2026-04-22T09:09:18.000Z</time>
      </trkpt>
      <trkpt lat="59.0884637833" lon="30.0288105011">
        <time>2026-04-22T09:09:21.000Z</time>
      </trkpt>
      <trkpt lat="59.0884637833" lon="30.0288105011">
        <time>2026-04-22T09:09:23.000Z</time>
      </trkpt>
      <trkpt lat="59.0884637833" lon="30.0287675858">
        <time>2026-04-22T09:09:26.000Z</time>
      </trkpt>
      <trkpt lat="59.0884423256" lon="30.0287246704">
        <time>2026-04-22T09:09:28.000Z</time>
      </trkpt>
      <trkpt lat="59.0884208679" lon="30.0286817551">
        <time>2026-04-22T09:09:31.000Z</time>
      </trkpt>
      <trkpt lat="59.0884423256" lon="30.0286817551">
        <time>2026-04-22T09:09:33.000Z</time>
      </trkpt>
      <trkpt lat="59.0884423256" lon="30.0287032127">
        <time>2026-04-22T09:09:36.000Z</time>
      </trkpt>
      <trkpt lat="59.0884423256" lon="30.0287032127">
        <time>2026-04-22T09:09:38.000Z</time>
      </trkpt>
      <trkpt lat="59.0884423256" lon="30.0287032127">
        <time>2026-04-22T09:09:41.000Z</time>
      </trkpt>
      <trkpt lat="59.0884423256" lon="30.0287032127">
        <time>2026-04-22T09:09:43.000Z</time>
      </trkpt>
      <trkpt lat="59.0884423256" lon="30.0287032127">
        <time>2026-04-22T09:09:46.000Z</time>
      </trkpt>
      <trkpt lat="59.0884423256" lon="30.0287032127">
        <time>2026-04-22T09:09:48.000Z</time>
      </trkpt>
      <trkpt lat="59.0884423256" lon="30.0287032127">
        <time>2026-04-22T09:09:51.000Z</time>
      </trkpt>
      <trkpt lat="59.0884423256" lon="30.0287032127">
        <time>2026-04-22T09:09:53.000Z</time>
      </trkpt>
      <trkpt lat="59.0884423256" lon="30.0287032127">
        <time>2026-04-22T09:09:56.000Z</time>
      </trkpt>
      <trkpt lat="59.0884423256" lon="30.0287032127">
        <time>2026-04-22T09:09:58.000Z</time>
      </trkpt>
      <trkpt lat="59.0884423256" lon="30.0287032127">
        <time>2026-04-22T09:10:01.000Z</time>
      </trkpt>
      <trkpt lat="59.0884423256" lon="30.0287032127">
        <time>2026-04-22T09:10:03.000Z</time>
      </trkpt>
      <trkpt lat="59.0884423256" lon="30.0287032127">
        <time>2026-04-22T09:10:06.000Z</time>
      </trkpt>
      <trkpt lat="59.0884208679" lon="30.0287032127">
        <time>2026-04-22T09:10:08.000Z</time>
      </trkpt>
      <trkpt lat="59.0883564949" lon="30.0286817551">
        <time>2026-04-22T09:10:11.000Z</time>
      </trkpt>
      <trkpt lat="59.0883350372" lon="30.0286602974">
        <time>2026-04-22T09:10:13.000Z</time>
      </trkpt>
      <trkpt lat="59.0883350372" lon="30.0286388397">
        <time>2026-04-22T09:10:16.000Z</time>
      </trkpt>
      <trkpt lat="59.0883135796" lon="30.028617382">
        <time>2026-04-22T09:10:18.000Z</time>
      </trkpt>
      <trkpt lat="59.0883564949" lon="30.0285315514">
        <time>2026-04-22T09:10:21.000Z</time>
      </trkpt>
      <trkpt lat="59.0883779526" lon="30.028424263">
        <time>2026-04-22T09:10:23.000Z</time>
      </trkpt>
      <trkpt lat="59.0883564949" lon="30.0283169746">
        <time>2026-04-22T09:10:26.000Z</time>
      </trkpt>
      <trkpt lat="59.0883779526" lon="30.028295517">
        <time>2026-04-22T09:10:28.000Z</time>
      </trkpt>
      <trkpt lat="59.0883779526" lon="30.028231144">
        <time>2026-04-22T09:10:31.000Z</time>
      </trkpt>
      <trkpt lat="59.0883564949" lon="30.0281667709">
        <time>2026-04-22T09:10:33.000Z</time>
      </trkpt>
      <trkpt lat="59.0883779526" lon="30.0281882286">
        <time>2026-04-22T09:10:36.000Z</time>
      </trkpt>
      <trkpt lat="59.0883564949" lon="30.0281882286">
        <time>2026-04-22T09:10:38.000Z</time>
      </trkpt>
      <trkpt lat="59.0883564949" lon="30.0281023979">
        <time>2026-04-22T09:10:41.000Z</time>
      </trkpt>
      <trkpt lat="59.0883350372" lon="30.0280809402">
        <time>2026-04-22T09:10:43.000Z</time>
      </trkpt>
      <trkpt lat="59.0883350372" lon="30.0280594826">
        <time>2026-04-22T09:10:46.000Z</time>
      </trkpt>
      <trkpt lat="59.0883135796" lon="30.0280380249">
        <time>2026-04-22T09:10:48.000Z</time>
      </trkpt>
      <trkpt lat="59.0882921219" lon="30.0279951096">
        <time>2026-04-22T09:10:51.000Z</time>
      </trkpt>
      <trkpt lat="59.0883135796" lon="30.0279092789">
        <time>2026-04-22T09:10:53.000Z</time>
      </trkpt>
      <trkpt lat="59.0883135796" lon="30.0277376175">
        <time>2026-04-22T09:10:56.000Z</time>
      </trkpt>
      <trkpt lat="59.0883350372" lon="30.0276303291">
        <time>2026-04-22T09:10:58.000Z</time>
      </trkpt>
      <trkpt lat="59.0883135796" lon="30.0276517868">
        <time>2026-04-22T09:11:01.000Z</time>
      </trkpt>
      <trkpt lat="59.0882921219" lon="30.0277161598">
        <time>2026-04-22T09:11:03.000Z</time>
      </trkpt>
      <trkpt lat="59.0882277489" lon="30.0277590752">
        <time>2026-04-22T09:11:06.000Z</time>
      </trkpt>
      <trkpt lat="59.0882277489" lon="30.0276732445">
        <time>2026-04-22T09:11:08.000Z</time>
      </trkpt>
      <trkpt lat="59.0882492065" lon="30.0275874138">
        <time>2026-04-22T09:11:11.000Z</time>
      </trkpt>
      <trkpt lat="59.0882492065" lon="30.0275874138">
        <time>2026-04-22T09:11:13.000Z</time>
      </trkpt>
      <trkpt lat="59.0882492065" lon="30.0275874138">
        <time>2026-04-22T09:11:16.000Z</time>
      </trkpt>
      <trkpt lat="59.0882492065" lon="30.0275659561">
        <time>2026-04-22T09:11:18.000Z</time>
      </trkpt>
      <trkpt lat="59.0882492065" lon="30.0275659561">
        <time>2026-04-22T09:11:21.000Z</time>
      </trkpt>
      <trkpt lat="59.0882492065" lon="30.0275874138">
        <time>2026-04-22T09:11:23.000Z</time>
      </trkpt>
      <trkpt lat="59.0882492065" lon="30.0275874138">
        <time>2026-04-22T09:11:26.000Z</time>
      </trkpt>
      <trkpt lat="59.0882492065" lon="30.0275874138">
        <time>2026-04-22T09:11:28.000Z</time>
      </trkpt>
      <trkpt lat="59.0882492065" lon="30.0275874138">
        <time>2026-04-22T09:11:31.000Z</time>
      </trkpt>
      <trkpt lat="59.0882492065" lon="30.0275874138">
        <time>2026-04-22T09:11:33.000Z</time>
      </trkpt>
      <trkpt lat="59.0882492065" lon="30.0275874138">
        <time>2026-04-22T09:11:36.000Z</time>
      </trkpt>
      <trkpt lat="59.0882492065" lon="30.0275874138">
        <time>2026-04-22T09:11:38.000Z</time>
      </trkpt>
      <trkpt lat="59.0882492065" lon="30.0275874138">
        <time>2026-04-22T09:11:41.000Z</time>
      </trkpt>
      <trkpt lat="59.0882492065" lon="30.0275874138">
        <time>2026-04-22T09:11:43.000Z</time>
      </trkpt>
      <trkpt lat="59.0882492065" lon="30.0275874138">
        <time>2026-04-22T09:11:46.000Z</time>
      </trkpt>
      <trkpt lat="59.0882492065" lon="30.0276517868">
        <time>2026-04-22T09:11:48.000Z</time>
      </trkpt>
      <trkpt lat="59.0882492065" lon="30.0276517868">
        <time>2026-04-22T09:11:51.000Z</time>
      </trkpt>
      <trkpt lat="59.0882492065" lon="30.0276517868">
        <time>2026-04-22T09:11:53.000Z</time>
      </trkpt>
      <trkpt lat="59.0882492065" lon="30.0276517868">
        <time>2026-04-22T09:11:56.000Z</time>
      </trkpt>
      <trkpt lat="59.0882492065" lon="30.0276517868">
        <time>2026-04-22T09:11:58.000Z</time>
      </trkpt>
      <trkpt lat="59.0882492065" lon="30.0276517868">
        <time>2026-04-22T09:12:01.000Z</time>
      </trkpt>
      <trkpt lat="59.0882492065" lon="30.0276517868">
        <time>2026-04-22T09:12:03.000Z</time>
      </trkpt>
      <trkpt lat="59.0882492065" lon="30.0276517868">
        <time>2026-04-22T09:12:06.000Z</time>
      </trkpt>
      <trkpt lat="59.0882492065" lon="30.0276517868">
        <time>2026-04-22T09:12:08.000Z</time>
      </trkpt>
      <trkpt lat="59.0882492065" lon="30.0276517868">
        <time>2026-04-22T09:12:11.000Z</time>
      </trkpt>
      <trkpt lat="59.0882492065" lon="30.0276517868">
        <time>2026-04-22T09:12:13.000Z</time>
      </trkpt>
      <trkpt lat="59.0882492065" lon="30.0276517868">
        <time>2026-04-22T09:12:16.000Z</time>
      </trkpt>
      <trkpt lat="59.0882492065" lon="30.0276517868">
        <time>2026-04-22T09:12:18.000Z</time>
      </trkpt>
      <trkpt lat="59.0882492065" lon="30.0276517868">
        <time>2026-04-22T09:12:21.000Z</time>
      </trkpt>
      <trkpt lat="59.0882492065" lon="30.0276517868">
        <time>2026-04-22T09:12:23.000Z</time>
      </trkpt>
      <trkpt lat="59.0882492065" lon="30.0276517868">
        <time>2026-04-22T09:12:26.000Z</time>
      </trkpt>
      <trkpt lat="59.0882492065" lon="30.0276517868">
        <time>2026-04-22T09:12:28.000Z</time>
      </trkpt>
      <trkpt lat="59.0882492065" lon="30.0276517868">
        <time>2026-04-22T09:12:31.000Z</time>
      </trkpt>
      <trkpt lat="59.0882492065" lon="30.0276517868">
        <time>2026-04-22T09:12:33.000Z</time>
      </trkpt>
      <trkpt lat="59.0882492065" lon="30.0276517868">
        <time>2026-04-22T09:12:36.000Z</time>
      </trkpt>
      <trkpt lat="59.0882492065" lon="30.0276517868">
        <time>2026-04-22T09:12:38.000Z</time>
      </trkpt>
      <trkpt lat="59.0882492065" lon="30.0276517868">
        <time>2026-04-22T09:12:41.000Z</time>
      </trkpt>
      <trkpt lat="59.0882492065" lon="30.0276517868">
        <time>2026-04-22T09:12:43.000Z</time>
      </trkpt>
      <trkpt lat="59.0882492065" lon="30.0276517868">
        <time>2026-04-22T09:12:46.000Z</time>
      </trkpt>
      <trkpt lat="59.0882492065" lon="30.0276517868">
        <time>2026-04-22T09:12:48.000Z</time>
      </trkpt>
      <trkpt lat="59.0882492065" lon="30.0276517868">
        <time>2026-04-22T09:12:51.000Z</time>
      </trkpt>
      <trkpt lat="59.0882492065" lon="30.0276517868">
        <time>2026-04-22T09:12:53.000Z</time>
      </trkpt>
      <trkpt lat="59.0882492065" lon="30.0276517868">
        <time>2026-04-22T09:12:56.000Z</time>
      </trkpt>
      <trkpt lat="59.0882706642" lon="30.0276517868">
        <time>2026-04-22T09:12:58.000Z</time>
      </trkpt>
      <trkpt lat="59.0882706642" lon="30.0276303291">
        <time>2026-04-22T09:13:01.000Z</time>
      </trkpt>
      <trkpt lat="59.0882706642" lon="30.0276303291">
        <time>2026-04-22T09:13:03.000Z</time>
      </trkpt>
      <trkpt lat="59.0882706642" lon="30.0276303291">
        <time>2026-04-22T09:13:06.000Z</time>
      </trkpt>
      <trkpt lat="59.0882706642" lon="30.0276303291">
        <time>2026-04-22T09:13:08.000Z</time>
      </trkpt>
      <trkpt lat="59.0882706642" lon="30.0276303291">
        <time>2026-04-22T09:13:11.000Z</time>
      </trkpt>
      <trkpt lat="59.0882706642" lon="30.0276303291">
        <time>2026-04-22T09:13:13.000Z</time>
      </trkpt>
      <trkpt lat="59.0882921219" lon="30.0275444984">
        <time>2026-04-22T09:13:16.000Z</time>
      </trkpt>
      <trkpt lat="59.0883135796" lon="30.0274157524">
        <time>2026-04-22T09:13:18.000Z</time>
      </trkpt>
      <trkpt lat="59.0882921219" lon="30.0273728371">
        <time>2026-04-22T09:13:21.000Z</time>
      </trkpt>
      <trkpt lat="59.0882706642" lon="30.0273084641">
        <time>2026-04-22T09:13:23.000Z</time>
      </trkpt>
      <trkpt lat="59.0882706642" lon="30.0272870064">
        <time>2026-04-22T09:13:26.000Z</time>
      </trkpt>
      <trkpt lat="59.0882706642" lon="30.0272870064">
        <time>2026-04-22T09:13:28.000Z</time>
      </trkpt>
      <trkpt lat="59.0882706642" lon="30.0272870064">
        <time>2026-04-22T09:13:31.000Z</time>
      </trkpt>
      <trkpt lat="59.0882706642" lon="30.0272870064">
        <time>2026-04-22T09:13:33.000Z</time>
      </trkpt>
      <trkpt lat="59.0882921219" lon="30.0272870064">
        <time>2026-04-22T09:13:36.000Z</time>
      </trkpt>
      <trkpt lat="59.0882706642" lon="30.0272870064">
        <time>2026-04-22T09:13:38.000Z</time>
      </trkpt>
      <trkpt lat="59.0882706642" lon="30.0272870064">
        <time>2026-04-22T09:13:41.000Z</time>
      </trkpt>
      <trkpt lat="59.0882706642" lon="30.0272870064">
        <time>2026-04-22T09:13:43.000Z</time>
      </trkpt>
      <trkpt lat="59.0882706642" lon="30.0272870064">
        <time>2026-04-22T09:13:46.000Z</time>
      </trkpt>
      <trkpt lat="59.0882706642" lon="30.0272870064">
        <time>2026-04-22T09:13:48.000Z</time>
      </trkpt>
      <trkpt lat="59.0882706642" lon="30.0272870064">
        <time>2026-04-22T09:13:51.000Z</time>
      </trkpt>
      <trkpt lat="59.0882706642" lon="30.0272870064">
        <time>2026-04-22T09:13:53.000Z</time>
      </trkpt>
      <trkpt lat="59.0882921219" lon="30.0272870064">
        <time>2026-04-22T09:13:56.000Z</time>
      </trkpt>
      <trkpt lat="59.0882706642" lon="30.0273942947">
        <time>2026-04-22T09:13:58.000Z</time>
      </trkpt>
      <trkpt lat="59.0882062912" lon="30.0275230408">
        <time>2026-04-22T09:14:01.000Z</time>
      </trkpt>
      <trkpt lat="59.0881848335" lon="30.0276088715">
        <time>2026-04-22T09:14:03.000Z</time>
      </trkpt>
      <trkpt lat="59.0881419182" lon="30.0276947021">
        <time>2026-04-22T09:14:06.000Z</time>
      </trkpt>
      <trkpt lat="59.0881419182" lon="30.0276732445">
        <time>2026-04-22T09:14:08.000Z</time>
      </trkpt>
      <trkpt lat="59.0881419182" lon="30.0276732445">
        <time>2026-04-22T09:14:11.000Z</time>
      </trkpt>
      <trkpt lat="59.0881204605" lon="30.0277161598">
        <time>2026-04-22T09:14:13.000Z</time>
      </trkpt>
      <trkpt lat="59.0880775452" lon="30.0277161598">
        <time>2026-04-22T09:14:16.000Z</time>
      </trkpt>
      <trkpt lat="59.0880775452" lon="30.0276947021">
        <time>2026-04-22T09:14:18.000Z</time>
      </trkpt>
      <trkpt lat="59.0880560875" lon="30.0276947021">
        <time>2026-04-22T09:14:21.000Z</time>
      </trkpt>
      <trkpt lat="59.0880560875" lon="30.0276947021">
        <time>2026-04-22T09:14:23.000Z</time>
      </trkpt>
      <trkpt lat="59.0879917145" lon="30.0277161598">
        <time>2026-04-22T09:14:26.000Z</time>
      </trkpt>
      <trkpt lat="59.0879273415" lon="30.0277590752">
        <time>2026-04-22T09:14:28.000Z</time>
      </trkpt>
      <trkpt lat="59.0878844261" lon="30.0276947021">
        <time>2026-04-22T09:14:31.000Z</time>
      </trkpt>
      <trkpt lat="59.0878200531" lon="30.0275874138">
        <time>2026-04-22T09:14:33.000Z</time>
      </trkpt>
      <trkpt lat="59.0877556801" lon="30.0275659561">
        <time>2026-04-22T09:14:36.000Z</time>
      </trkpt>
      <trkpt lat="59.0877771378" lon="30.0276517868">
        <time>2026-04-22T09:14:38.000Z</time>
      </trkpt>
      <trkpt lat="59.0877556801" lon="30.0277805328">
        <time>2026-04-22T09:14:41.000Z</time>
      </trkpt>
      <trkpt lat="59.0877771378" lon="30.0278234482">
        <time>2026-04-22T09:14:43.000Z</time>
      </trkpt>
      <trkpt lat="59.0877556801" lon="30.0278019905">
        <time>2026-04-22T09:14:46.000Z</time>
      </trkpt>
      <trkpt lat="59.0877342224" lon="30.0278019905">
        <time>2026-04-22T09:14:48.000Z</time>
      </trkpt>
      <trkpt lat="59.0876054764" lon="30.0278878212">
        <time>2026-04-22T09:14:51.000Z</time>
      </trkpt>
      <trkpt lat="59.087498188" lon="30.0279307365">
        <time>2026-04-22T09:14:53.000Z</time>
      </trkpt>
      <trkpt lat="59.0874552727" lon="30.0278878212">
        <time>2026-04-22T09:14:56.000Z</time>
      </trkpt>
      <trkpt lat="59.0874123573" lon="30.0277590752">
        <time>2026-04-22T09:14:58.000Z</time>
      </trkpt>
      <trkpt lat="59.0874123573" lon="30.0275874138">
        <time>2026-04-22T09:15:01.000Z</time>
      </trkpt>
      <trkpt lat="59.0873479843" lon="30.0273942947">
        <time>2026-04-22T09:15:03.000Z</time>
      </trkpt>
      <trkpt lat="59.0872836113" lon="30.0271368027">
        <time>2026-04-22T09:15:06.000Z</time>
      </trkpt>
      <trkpt lat="59.0872836113" lon="30.0268793106">
        <time>2026-04-22T09:15:08.000Z</time>
      </trkpt>
      <trkpt lat="59.087305069" lon="30.0266218185">
        <time>2026-04-22T09:15:11.000Z</time>
      </trkpt>
      <trkpt lat="59.0873479843" lon="30.0262784958">
        <time>2026-04-22T09:15:13.000Z</time>
      </trkpt>
      <trkpt lat="59.087369442" lon="30.0259780884">
        <time>2026-04-22T09:15:16.000Z</time>
      </trkpt>
      <trkpt lat="59.087305069" lon="30.025935173">
        <time>2026-04-22T09:15:18.000Z</time>
      </trkpt>
      <trkpt lat="59.0871977806" lon="30.0260639191">
        <time>2026-04-22T09:15:21.000Z</time>
      </trkpt>
      <trkpt lat="59.0870690346" lon="30.0261282921">
        <time>2026-04-22T09:15:23.000Z</time>
      </trkpt>
      <trkpt lat="59.0869832039" lon="30.0261068344">
        <time>2026-04-22T09:15:26.000Z</time>
      </trkpt>
      <trkpt lat="59.0869617462" lon="30.0261497498">
        <time>2026-04-22T09:15:28.000Z</time>
      </trkpt>
      <trkpt lat="59.0869832039" lon="30.0262570381">
        <time>2026-04-22T09:15:31.000Z</time>
      </trkpt>
      <trkpt lat="59.0870046616" lon="30.0264716148">
        <time>2026-04-22T09:15:33.000Z</time>
      </trkpt>
      <trkpt lat="59.0870475769" lon="30.0267934799">
        <time>2026-04-22T09:15:36.000Z</time>
      </trkpt>
      <trkpt lat="59.0870690346" lon="30.0270724297">
        <time>2026-04-22T09:15:38.000Z</time>
      </trkpt>
      <trkpt lat="59.0871334076" lon="30.0272870064">
        <time>2026-04-22T09:15:41.000Z</time>
      </trkpt>
      <trkpt lat="59.0872621536" lon="30.0273299217">
        <time>2026-04-22T09:15:43.000Z</time>
      </trkpt>
      <trkpt lat="59.087369442" lon="30.0274801254">
        <time>2026-04-22T09:15:46.000Z</time>
      </trkpt>
      <trkpt lat="59.0874767303" lon="30.0277161598">
        <time>2026-04-22T09:15:48.000Z</time>
      </trkpt>
      <trkpt lat="59.087562561" lon="30.0279307365">
        <time>2026-04-22T09:15:51.000Z</time>
      </trkpt>
      <trkpt lat="59.0875840187" lon="30.0279736519">
        <time>2026-04-22T09:15:53.000Z</time>
      </trkpt>
      <trkpt lat="59.087562561" lon="30.0279951096">
        <time>2026-04-22T09:15:56.000Z</time>
      </trkpt>
      <trkpt lat="59.0875196457" lon="30.0280165672">
        <time>2026-04-22T09:15:58.000Z</time>
      </trkpt>
      <trkpt lat="59.0874552727" lon="30.0280594826">
        <time>2026-04-22T09:16:01.000Z</time>
      </trkpt>
      <trkpt lat="59.0874123573" lon="30.0280809402">
        <time>2026-04-22T09:16:03.000Z</time>
      </trkpt>
      <trkpt lat="59.0874123573" lon="30.0280594826">
        <time>2026-04-22T09:16:06.000Z</time>
      </trkpt>
      <trkpt lat="59.0874123573" lon="30.0280165672">
        <time>2026-04-22T09:16:08.000Z</time>
      </trkpt>
      <trkpt lat="59.087369442" lon="30.0279951096">
        <time>2026-04-22T09:16:11.000Z</time>
      </trkpt>
      <trkpt lat="59.0873265266" lon="30.0279951096">
        <time>2026-04-22T09:16:13.000Z</time>
      </trkpt>
      <trkpt lat="59.087305069" lon="30.0279521942">
        <time>2026-04-22T09:16:16.000Z</time>
      </trkpt>
      <trkpt lat="59.0872621536" lon="30.0279951096">
        <time>2026-04-22T09:16:18.000Z</time>
      </trkpt>
      <trkpt lat="59.0872192383" lon="30.0280594826">
        <time>2026-04-22T09:16:21.000Z</time>
      </trkpt>
      <trkpt lat="59.0871977806" lon="30.0280380249">
        <time>2026-04-22T09:16:23.000Z</time>
      </trkpt>
      <trkpt lat="59.0871977806" lon="30.0280594826">
        <time>2026-04-22T09:16:26.000Z</time>
      </trkpt>
      <trkpt lat="59.0871977806" lon="30.0281238556">
        <time>2026-04-22T09:16:28.000Z</time>
      </trkpt>
      <trkpt lat="59.0871548653" lon="30.0281453133">
        <time>2026-04-22T09:16:31.000Z</time>
      </trkpt>
      <trkpt lat="59.0871334076" lon="30.0281453133">
        <time>2026-04-22T09:16:33.000Z</time>
      </trkpt>
      <trkpt lat="59.0870690346" lon="30.0281453133">
        <time>2026-04-22T09:16:36.000Z</time>
      </trkpt>
      <trkpt lat="59.0870475769" lon="30.0281238556">
        <time>2026-04-22T09:16:38.000Z</time>
      </trkpt>
      <trkpt lat="59.0870261192" lon="30.0280809402">
        <time>2026-04-22T09:16:41.000Z</time>
      </trkpt>
      <trkpt lat="59.0869832039" lon="30.0280380249">
        <time>2026-04-22T09:16:43.000Z</time>
      </trkpt>
      <trkpt lat="59.0869617462" lon="30.0280165672">
        <time>2026-04-22T09:16:46.000Z</time>
      </trkpt>
      <trkpt lat="59.0868973732" lon="30.0279951096">
        <time>2026-04-22T09:16:48.000Z</time>
      </trkpt>
      <trkpt lat="59.0868330002" lon="30.0280165672">
        <time>2026-04-22T09:16:51.000Z</time>
      </trkpt>
      <trkpt lat="59.0867686272" lon="30.0280380249">
        <time>2026-04-22T09:16:53.000Z</time>
      </trkpt>
      <trkpt lat="59.0867257118" lon="30.0281023979">
        <time>2026-04-22T09:16:56.000Z</time>
      </trkpt>
      <trkpt lat="59.0867471695" lon="30.0281238556">
        <time>2026-04-22T09:16:58.000Z</time>
      </trkpt>
      <trkpt lat="59.0868115425" lon="30.0281882286">
        <time>2026-04-22T09:17:01.000Z</time>
      </trkpt>
      <trkpt lat="59.0868544579" lon="30.028295517">
        <time>2026-04-22T09:17:03.000Z</time>
      </trkpt>
      <trkpt lat="59.0868759155" lon="30.028295517">
        <time>2026-04-22T09:17:06.000Z</time>
      </trkpt>
      <trkpt lat="59.0868544579" lon="30.028295517">
        <time>2026-04-22T09:17:08.000Z</time>
      </trkpt>
      <trkpt lat="59.0868115425" lon="30.0282526016">
        <time>2026-04-22T09:17:11.000Z</time>
      </trkpt>
      <trkpt lat="59.0867900848" lon="30.0282740593">
        <time>2026-04-22T09:17:13.000Z</time>
      </trkpt>
      <trkpt lat="59.0867686272" lon="30.0282740593">
        <time>2026-04-22T09:17:16.000Z</time>
      </trkpt>
      <trkpt lat="59.0867257118" lon="30.0282740593">
        <time>2026-04-22T09:17:18.000Z</time>
      </trkpt>
      <trkpt lat="59.0866398811" lon="30.0283384323">
        <time>2026-04-22T09:17:21.000Z</time>
      </trkpt>
      <trkpt lat="59.0865755081" lon="30.0283813477">
        <time>2026-04-22T09:17:23.000Z</time>
      </trkpt>
      <trkpt lat="59.0865755081" lon="30.0284028053">
        <time>2026-04-22T09:17:26.000Z</time>
      </trkpt>
      <trkpt lat="59.0866398811" lon="30.0284457207">
        <time>2026-04-22T09:17:28.000Z</time>
      </trkpt>
      <trkpt lat="59.0866184235" lon="30.0284671783">
        <time>2026-04-22T09:17:31.000Z</time>
      </trkpt>
      <trkpt lat="59.0865755081" lon="30.0284671783">
        <time>2026-04-22T09:17:33.000Z</time>
      </trkpt>
      <trkpt lat="59.0865111351" lon="30.0284671783">
        <time>2026-04-22T09:17:36.000Z</time>
      </trkpt>
      <trkpt lat="59.0864253044" lon="30.028424263">
        <time>2026-04-22T09:17:38.000Z</time>
      </trkpt>
      <trkpt lat="59.0864253044" lon="30.028424263">
        <time>2026-04-22T09:17:41.000Z</time>
      </trkpt>
      <trkpt lat="59.0864038467" lon="30.0284457207">
        <time>2026-04-22T09:17:43.000Z</time>
      </trkpt>
      <trkpt lat="59.0863609314" lon="30.0284671783">
        <time>2026-04-22T09:17:46.000Z</time>
      </trkpt>
      <trkpt lat="59.0863823891" lon="30.028424263">
        <time>2026-04-22T09:17:48.000Z</time>
      </trkpt>
      <trkpt lat="59.0863609314" lon="30.0284028053">
        <time>2026-04-22T09:17:51.000Z</time>
      </trkpt>
      <trkpt lat="59.0862321854" lon="30.0283169746">
        <time>2026-04-22T09:17:56.000Z</time>
      </trkpt>
      <trkpt lat="59.086253643" lon="30.0282740593">
        <time>2026-04-22T09:17:58.000Z</time>
      </trkpt>
      <trkpt lat="59.0862107277" lon="30.0282096863">
        <time>2026-04-22T09:18:01.000Z</time>
      </trkpt>
      <trkpt lat="59.0861678123" lon="30.0281667709">
        <time>2026-04-22T09:18:03.000Z</time>
      </trkpt>
      <trkpt lat="59.0861678123" lon="30.0280809402">
        <time>2026-04-22T09:18:06.000Z</time>
      </trkpt>
      <trkpt lat="59.0862107277" lon="30.0279951096">
        <time>2026-04-22T09:18:08.000Z</time>
      </trkpt>
      <trkpt lat="59.08618927" lon="30.0279307365">
        <time>2026-04-22T09:18:11.000Z</time>
      </trkpt>
      <trkpt lat="59.086124897" lon="30.0281023979">
        <time>2026-04-22T09:18:16.000Z</time>
      </trkpt>
      <trkpt lat="59.086124897" lon="30.0281453133">
        <time>2026-04-22T09:18:18.000Z</time>
      </trkpt>
      <trkpt lat="59.086124897" lon="30.0281667709">
        <time>2026-04-22T09:18:21.000Z</time>
      </trkpt>
      <trkpt lat="59.0861034393" lon="30.0282096863">
        <time>2026-04-22T09:18:23.000Z</time>
      </trkpt>
      <trkpt lat="59.086124897" lon="30.0282526016">
        <time>2026-04-22T09:18:26.000Z</time>
      </trkpt>
      <trkpt lat="59.086124897" lon="30.0283813477">
        <time>2026-04-22T09:18:28.000Z</time>
      </trkpt>
      <trkpt lat="59.0860819817" lon="30.0284457207">
        <time>2026-04-22T09:18:31.000Z</time>
      </trkpt>
      <trkpt lat="59.086060524" lon="30.028424263">
        <time>2026-04-22T09:18:33.000Z</time>
      </trkpt>
      <trkpt lat="59.0860176086" lon="30.028424263">
        <time>2026-04-22T09:18:36.000Z</time>
      </trkpt>
      <trkpt lat="59.0859746933" lon="30.028424263">
        <time>2026-04-22T09:18:38.000Z</time>
      </trkpt>
      <trkpt lat="59.085931778" lon="30.0284671783">
        <time>2026-04-22T09:18:41.000Z</time>
      </trkpt>
      <trkpt lat="59.0859103203" lon="30.0285315514">
        <time>2026-04-22T09:18:43.000Z</time>
      </trkpt>
      <trkpt lat="59.0858888626" lon="30.0285744667">
        <time>2026-04-22T09:18:46.000Z</time>
      </trkpt>
      <trkpt lat="59.0858888626" lon="30.0286388397">
        <time>2026-04-22T09:18:48.000Z</time>
      </trkpt>
      <trkpt lat="59.085931778" lon="30.0286602974">
        <time>2026-04-22T09:18:51.000Z</time>
      </trkpt>
      <trkpt lat="59.0859103203" lon="30.0286388397">
        <time>2026-04-22T09:18:53.000Z</time>
      </trkpt>
      <trkpt lat="59.0858674049" lon="30.028617382">
        <time>2026-04-22T09:18:56.000Z</time>
      </trkpt>
      <trkpt lat="59.0858459473" lon="30.0285100937">
        <time>2026-04-22T09:18:58.000Z</time>
      </trkpt>
      <trkpt lat="59.0857815742" lon="30.0285315514">
        <time>2026-04-22T09:19:01.000Z</time>
      </trkpt>
      <trkpt lat="59.0857386589" lon="30.0285100937">
        <time>2026-04-22T09:19:03.000Z</time>
      </trkpt>
      <trkpt lat="59.0857601166" lon="30.0285315514">
        <time>2026-04-22T09:19:06.000Z</time>
      </trkpt>
      <trkpt lat="59.0857601166" lon="30.0285959244">
        <time>2026-04-22T09:19:08.000Z</time>
      </trkpt>
      <trkpt lat="59.0857815742" lon="30.0286388397">
        <time>2026-04-22T09:19:11.000Z</time>
      </trkpt>
      <trkpt lat="59.0857601166" lon="30.0286388397">
        <time>2026-04-22T09:19:13.000Z</time>
      </trkpt>
      <trkpt lat="59.0857172012" lon="30.0286602974">
        <time>2026-04-22T09:19:16.000Z</time>
      </trkpt>
      <trkpt lat="59.0856742859" lon="30.0286817551">
        <time>2026-04-22T09:19:18.000Z</time>
      </trkpt>
      <trkpt lat="59.0856528282" lon="30.0286602974">
        <time>2026-04-22T09:19:21.000Z</time>
      </trkpt>
      <trkpt lat="59.0856528282" lon="30.0286602974">
        <time>2026-04-22T09:19:23.000Z</time>
      </trkpt>
      <trkpt lat="59.0856313705" lon="30.0286817551">
        <time>2026-04-22T09:19:26.000Z</time>
      </trkpt>
      <trkpt lat="59.0856313705" lon="30.0286602974">
        <time>2026-04-22T09:19:28.000Z</time>
      </trkpt>
      <trkpt lat="59.0856313705" lon="30.0286602974">
        <time>2026-04-22T09:19:31.000Z</time>
      </trkpt>
      <trkpt lat="59.0856313705" lon="30.0286602974">
        <time>2026-04-22T09:19:33.000Z</time>
      </trkpt>
      <trkpt lat="59.0856099129" lon="30.0286388397">
        <time>2026-04-22T09:19:36.000Z</time>
      </trkpt>
      <trkpt lat="59.0856099129" lon="30.028617382">
        <time>2026-04-22T09:19:38.000Z</time>
      </trkpt>
      <trkpt lat="59.0856099129" lon="30.0285959244">
        <time>2026-04-22T09:19:41.000Z</time>
      </trkpt>
      <trkpt lat="59.0855884552" lon="30.0285315514">
        <time>2026-04-22T09:19:43.000Z</time>
      </trkpt>
      <trkpt lat="59.0855884552" lon="30.028488636">
        <time>2026-04-22T09:19:46.000Z</time>
      </trkpt>
      <trkpt lat="59.0855669975" lon="30.0284457207">
        <time>2026-04-22T09:19:48.000Z</time>
      </trkpt>
      <trkpt lat="59.0855669975" lon="30.028424263">
        <time>2026-04-22T09:19:51.000Z</time>
      </trkpt>
      <trkpt lat="59.0855669975" lon="30.0284457207">
        <time>2026-04-22T09:19:53.000Z</time>
      </trkpt>
      <trkpt lat="59.0855669975" lon="30.028488636">
        <time>2026-04-22T09:19:56.000Z</time>
      </trkpt>
      <trkpt lat="59.0855669975" lon="30.0285315514">
        <time>2026-04-22T09:19:58.000Z</time>
      </trkpt>
      <trkpt lat="59.0855455399" lon="30.0285744667">
        <time>2026-04-22T09:20:01.000Z</time>
      </trkpt>
      <trkpt lat="59.0855455399" lon="30.0285959244">
        <time>2026-04-22T09:20:03.000Z</time>
      </trkpt>
      <trkpt lat="59.0855455399" lon="30.0285744667">
        <time>2026-04-22T09:20:06.000Z</time>
      </trkpt>
      <trkpt lat="59.0855455399" lon="30.0285744667">
        <time>2026-04-22T09:20:08.000Z</time>
      </trkpt>
      <trkpt lat="59.0855455399" lon="30.0285744667">
        <time>2026-04-22T09:20:11.000Z</time>
      </trkpt>
      <trkpt lat="59.0855455399" lon="30.0285959244">
        <time>2026-04-22T09:20:13.000Z</time>
      </trkpt>
      <trkpt lat="59.0855455399" lon="30.0286388397">
        <time>2026-04-22T09:20:16.000Z</time>
      </trkpt>
      <trkpt lat="59.0855455399" lon="30.0286817551">
        <time>2026-04-22T09:20:18.000Z</time>
      </trkpt>
      <trkpt lat="59.0855455399" lon="30.0287032127">
        <time>2026-04-22T09:20:21.000Z</time>
      </trkpt>
      <trkpt lat="59.0855455399" lon="30.0287032127">
        <time>2026-04-22T09:20:23.000Z</time>
      </trkpt>
      <trkpt lat="59.0855240822" lon="30.0287032127">
        <time>2026-04-22T09:20:26.000Z</time>
      </trkpt>
      <trkpt lat="59.0855240822" lon="30.0286817551">
        <time>2026-04-22T09:20:28.000Z</time>
      </trkpt>
      <trkpt lat="59.0855026245" lon="30.0287246704">
        <time>2026-04-22T09:20:31.000Z</time>
      </trkpt>
      <trkpt lat="59.0855026245" lon="30.0288105011">
        <time>2026-04-22T09:20:33.000Z</time>
      </trkpt>
      <trkpt lat="59.0855026245" lon="30.0288319588">
        <time>2026-04-22T09:20:36.000Z</time>
      </trkpt>
      <trkpt lat="59.0854811668" lon="30.0288748741">
        <time>2026-04-22T09:20:38.000Z</time>
      </trkpt>
      <trkpt lat="59.0854167938" lon="30.0288963318">
        <time>2026-04-22T09:20:41.000Z</time>
      </trkpt>
      <trkpt lat="59.0853738785" lon="30.0288963318">
        <time>2026-04-22T09:20:43.000Z</time>
      </trkpt>
      <trkpt lat="59.0853738785" lon="30.0288963318">
        <time>2026-04-22T09:20:46.000Z</time>
      </trkpt>
      <trkpt lat="59.0853738785" lon="30.0289177895">
        <time>2026-04-22T09:20:48.000Z</time>
      </trkpt>
      <trkpt lat="59.0853524208" lon="30.0289392471">
        <time>2026-04-22T09:20:51.000Z</time>
      </trkpt>
      <trkpt lat="59.0853309631" lon="30.0289177895">
        <time>2026-04-22T09:20:53.000Z</time>
      </trkpt>
      <trkpt lat="59.0853309631" lon="30.0289177895">
        <time>2026-04-22T09:20:56.000Z</time>
      </trkpt>
      <trkpt lat="59.0853095055" lon="30.0289177895">
        <time>2026-04-22T09:20:58.000Z</time>
      </trkpt>
      <trkpt lat="59.0852665901" lon="30.0289392471">
        <time>2026-04-22T09:21:01.000Z</time>
      </trkpt>
      <trkpt lat="59.0852451324" lon="30.0289177895">
        <time>2026-04-22T09:21:03.000Z</time>
      </trkpt>
      <trkpt lat="59.0852236748" lon="30.0289392471">
        <time>2026-04-22T09:21:06.000Z</time>
      </trkpt>
      <trkpt lat="59.0852022171" lon="30.0289607048">
        <time>2026-04-22T09:21:08.000Z</time>
      </trkpt>
      <trkpt lat="59.0851807594" lon="30.0290036201">
        <time>2026-04-22T09:21:11.000Z</time>
      </trkpt>
      <trkpt lat="59.0851807594" lon="30.0290036201">
        <time>2026-04-22T09:21:13.000Z</time>
      </trkpt>
      <trkpt lat="59.0851593018" lon="30.0289821625">
        <time>2026-04-22T09:21:16.000Z</time>
      </trkpt>
      <trkpt lat="59.0851378441" lon="30.0289177895">
        <time>2026-04-22T09:21:18.000Z</time>
      </trkpt>
      <trkpt lat="59.0851163864" lon="30.0288534164">
        <time>2026-04-22T09:21:21.000Z</time>
      </trkpt>
      <trkpt lat="59.0851163864" lon="30.0288319588">
        <time>2026-04-22T09:21:23.000Z</time>
      </trkpt>
      <trkpt lat="59.0851163864" lon="30.0287890434">
        <time>2026-04-22T09:21:26.000Z</time>
      </trkpt>
      <trkpt lat="59.0851378441" lon="30.0287890434">
        <time>2026-04-22T09:21:28.000Z</time>
      </trkpt>
      <trkpt lat="59.0851378441" lon="30.0287675858">
        <time>2026-04-22T09:21:31.000Z</time>
      </trkpt>
      <trkpt lat="59.0851163864" lon="30.0287461281">
        <time>2026-04-22T09:21:33.000Z</time>
      </trkpt>
      <trkpt lat="59.0850734711" lon="30.0287246704">
        <time>2026-04-22T09:21:36.000Z</time>
      </trkpt>
      <trkpt lat="59.0850520134" lon="30.0286817551">
        <time>2026-04-22T09:21:38.000Z</time>
      </trkpt>
      <trkpt lat="59.0850305557" lon="30.0286388397">
        <time>2026-04-22T09:21:41.000Z</time>
      </trkpt>
      <trkpt lat="59.0850305557" lon="30.0286388397">
        <time>2026-04-22T09:21:43.000Z</time>
      </trkpt>
      <trkpt lat="59.0850520134" lon="30.0286388397">
        <time>2026-04-22T09:21:46.000Z</time>
      </trkpt>
      <trkpt lat="59.0850734711" lon="30.0286817551">
        <time>2026-04-22T09:21:48.000Z</time>
      </trkpt>
      <trkpt lat="59.0850949287" lon="30.0286388397">
        <time>2026-04-22T09:21:51.000Z</time>
      </trkpt>
      <trkpt lat="59.0850734711" lon="30.0285959244">
        <time>2026-04-22T09:21:53.000Z</time>
      </trkpt>
      <trkpt lat="59.0850520134" lon="30.0285744667">
        <time>2026-04-22T09:21:56.000Z</time>
      </trkpt>
      <trkpt lat="59.0850520134" lon="30.028553009">
        <time>2026-04-22T09:21:58.000Z</time>
      </trkpt>
      <trkpt lat="59.0850305557" lon="30.0285315514">
        <time>2026-04-22T09:22:01.000Z</time>
      </trkpt>
      <trkpt lat="59.0850520134" lon="30.0284671783">
        <time>2026-04-22T09:22:03.000Z</time>
      </trkpt>
      <trkpt lat="59.0850520134" lon="30.0283813477">
        <time>2026-04-22T09:22:06.000Z</time>
      </trkpt>
      <trkpt lat="59.0850734711" lon="30.0283169746">
        <time>2026-04-22T09:22:08.000Z</time>
      </trkpt>
      <trkpt lat="59.0850305557" lon="30.0282526016">
        <time>2026-04-22T09:22:11.000Z</time>
      </trkpt>
      <trkpt lat="59.0850090981" lon="30.0282096863">
        <time>2026-04-22T09:22:13.000Z</time>
      </trkpt>
      <trkpt lat="59.0850090981" lon="30.0281238556">
        <time>2026-04-22T09:22:16.000Z</time>
      </trkpt>
      <trkpt lat="59.0849876404" lon="30.0281023979">
        <time>2026-04-22T09:22:18.000Z</time>
      </trkpt>
      <trkpt lat="59.0849876404" lon="30.0281667709">
        <time>2026-04-22T09:22:21.000Z</time>
      </trkpt>
      <trkpt lat="59.0850090981" lon="30.0282096863">
        <time>2026-04-22T09:22:23.000Z</time>
      </trkpt>
      <trkpt lat="59.0849876404" lon="30.0282096863">
        <time>2026-04-22T09:22:26.000Z</time>
      </trkpt>
      <trkpt lat="59.0849876404" lon="30.0282096863">
        <time>2026-04-22T09:22:28.000Z</time>
      </trkpt>
      <trkpt lat="59.084944725" lon="30.0281453133">
        <time>2026-04-22T09:22:31.000Z</time>
      </trkpt>
      <trkpt lat="59.0849232674" lon="30.0281238556">
        <time>2026-04-22T09:22:33.000Z</time>
      </trkpt>
      <trkpt lat="59.084944725" lon="30.0280809402">
        <time>2026-04-22T09:22:36.000Z</time>
      </trkpt>
      <trkpt lat="59.084944725" lon="30.0280380249">
        <time>2026-04-22T09:22:38.000Z</time>
      </trkpt>
      <trkpt lat="59.084944725" lon="30.0280380249">
        <time>2026-04-22T09:22:41.000Z</time>
      </trkpt>
      <trkpt lat="59.0849232674" lon="30.0280380249">
        <time>2026-04-22T09:22:43.000Z</time>
      </trkpt>
      <trkpt lat="59.084880352" lon="30.0279736519">
        <time>2026-04-22T09:22:46.000Z</time>
      </trkpt>
      <trkpt lat="59.0848374367" lon="30.0278878212">
        <time>2026-04-22T09:22:48.000Z</time>
      </trkpt>
      <trkpt lat="59.084815979" lon="30.0277805328">
        <time>2026-04-22T09:22:51.000Z</time>
      </trkpt>
      <trkpt lat="59.0847945213" lon="30.0276947021">
        <time>2026-04-22T09:22:53.000Z</time>
      </trkpt>
      <trkpt lat="59.084815979" lon="30.0276517868">
        <time>2026-04-22T09:22:56.000Z</time>
      </trkpt>
      <trkpt lat="59.084815979" lon="30.0276517868">
        <time>2026-04-22T09:22:58.000Z</time>
      </trkpt>
      <trkpt lat="59.084815979" lon="30.0276947021">
        <time>2026-04-22T09:23:01.000Z</time>
      </trkpt>
      <trkpt lat="59.0848588943" lon="30.0277161598">
        <time>2026-04-22T09:23:03.000Z</time>
      </trkpt>
      <trkpt lat="59.0849018097" lon="30.0276947021">
        <time>2026-04-22T09:23:06.000Z</time>
      </trkpt>
      <trkpt lat="59.0849232674" lon="30.0277161598">
        <time>2026-04-22T09:23:08.000Z</time>
      </trkpt>
      <trkpt lat="59.0849018097" lon="30.0277161598">
        <time>2026-04-22T09:23:11.000Z</time>
      </trkpt>
      <trkpt lat="59.0849232674" lon="30.0276732445">
        <time>2026-04-22T09:23:13.000Z</time>
      </trkpt>
      <trkpt lat="59.0849232674" lon="30.0275659561">
        <time>2026-04-22T09:23:16.000Z</time>
      </trkpt>
      <trkpt lat="59.084944725" lon="30.0275659561">
        <time>2026-04-22T09:23:18.000Z</time>
      </trkpt>
      <trkpt lat="59.0849232674" lon="30.0275444984">
        <time>2026-04-22T09:23:21.000Z</time>
      </trkpt>
      <trkpt lat="59.0849018097" lon="30.0275015831">
        <time>2026-04-22T09:23:23.000Z</time>
      </trkpt>
      <trkpt lat="59.084880352" lon="30.0274801254">
        <time>2026-04-22T09:23:26.000Z</time>
      </trkpt>
      <trkpt lat="59.0848374367" lon="30.0274801254">
        <time>2026-04-22T09:23:28.000Z</time>
      </trkpt>
      <trkpt lat="59.084815979" lon="30.0274372101">
        <time>2026-04-22T09:23:31.000Z</time>
      </trkpt>
      <trkpt lat="59.0847945213" lon="30.0274372101">
        <time>2026-04-22T09:23:33.000Z</time>
      </trkpt>
      <trkpt lat="59.084815979" lon="30.0274586678">
        <time>2026-04-22T09:23:36.000Z</time>
      </trkpt>
      <trkpt lat="59.0848374367" lon="30.0274586678">
        <time>2026-04-22T09:23:38.000Z</time>
      </trkpt>
      <trkpt lat="59.0848374367" lon="30.0274586678">
        <time>2026-04-22T09:23:41.000Z</time>
      </trkpt>
      <trkpt lat="59.0848374367" lon="30.0274586678">
        <time>2026-04-22T09:23:43.000Z</time>
      </trkpt>
      <trkpt lat="59.0848374367" lon="30.0274586678">
        <time>2026-04-22T09:23:46.000Z</time>
      </trkpt>
      <trkpt lat="59.0848374367" lon="30.0274586678">
        <time>2026-04-22T09:23:48.000Z</time>
      </trkpt>
      <trkpt lat="59.0848374367" lon="30.0274586678">
        <time>2026-04-22T09:23:51.000Z</time>
      </trkpt>
      <trkpt lat="59.0848374367" lon="30.0274586678">
        <time>2026-04-22T09:23:53.000Z</time>
      </trkpt>
      <trkpt lat="59.0848374367" lon="30.0274586678">
        <time>2026-04-22T09:23:56.000Z</time>
      </trkpt>
      <trkpt lat="59.0848374367" lon="30.0274586678">
        <time>2026-04-22T09:23:58.000Z</time>
      </trkpt>
      <trkpt lat="59.0848374367" lon="30.0274586678">
        <time>2026-04-22T09:24:01.000Z</time>
      </trkpt>
      <trkpt lat="59.0848374367" lon="30.0274586678">
        <time>2026-04-22T09:24:03.000Z</time>
      </trkpt>
      <trkpt lat="59.0848374367" lon="30.0274372101">
        <time>2026-04-22T09:24:06.000Z</time>
      </trkpt>
      <trkpt lat="59.0848588943" lon="30.0273728371">
        <time>2026-04-22T09:24:08.000Z</time>
      </trkpt>
      <trkpt lat="59.0849018097" lon="30.0273728371">
        <time>2026-04-22T09:24:11.000Z</time>
      </trkpt>
      <trkpt lat="59.0849018097" lon="30.0274157524">
        <time>2026-04-22T09:24:13.000Z</time>
      </trkpt>
      <trkpt lat="59.084944725" lon="30.0275444984">
        <time>2026-04-22T09:24:16.000Z</time>
      </trkpt>
      <trkpt lat="59.0850090981" lon="30.0275874138">
        <time>2026-04-22T09:24:18.000Z</time>
      </trkpt>
      <trkpt lat="59.0850520134" lon="30.0276088715">
        <time>2026-04-22T09:24:21.000Z</time>
      </trkpt>
      <trkpt lat="59.0850734711" lon="30.0275444984">
        <time>2026-04-22T09:24:23.000Z</time>
      </trkpt>
      <trkpt lat="59.0850520134" lon="30.0275015831">
        <time>2026-04-22T09:24:26.000Z</time>
      </trkpt>
      <trkpt lat="59.0850734711" lon="30.0275015831">
        <time>2026-04-22T09:24:28.000Z</time>
      </trkpt>
      <trkpt lat="59.0850949287" lon="30.0275015831">
        <time>2026-04-22T09:24:31.000Z</time>
      </trkpt>
      <trkpt lat="59.0851163864" lon="30.0275230408">
        <time>2026-04-22T09:24:33.000Z</time>
      </trkpt>
      <trkpt lat="59.0851163864" lon="30.0275444984">
        <time>2026-04-22T09:24:36.000Z</time>
      </trkpt>
      <trkpt lat="59.0851163864" lon="30.0275015831">
        <time>2026-04-22T09:24:38.000Z</time>
      </trkpt>
      <trkpt lat="59.0851163864" lon="30.0274372101">
        <time>2026-04-22T09:24:41.000Z</time>
      </trkpt>
      <trkpt lat="59.0851378441" lon="30.0273942947">
        <time>2026-04-22T09:24:43.000Z</time>
      </trkpt>
      <trkpt lat="59.0851378441" lon="30.0274157524">
        <time>2026-04-22T09:24:46.000Z</time>
      </trkpt>
      <trkpt lat="59.0851807594" lon="30.0273942947">
        <time>2026-04-22T09:24:48.000Z</time>
      </trkpt>
      <trkpt lat="59.0852236748" lon="30.0273728371">
        <time>2026-04-22T09:24:51.000Z</time>
      </trkpt>
      <trkpt lat="59.0852451324" lon="30.0273513794">
        <time>2026-04-22T09:24:53.000Z</time>
      </trkpt>
      <trkpt lat="59.0852665901" lon="30.0273299217">
        <time>2026-04-22T09:24:56.000Z</time>
      </trkpt>
      <trkpt lat="59.0852451324" lon="30.0273299217">
        <time>2026-04-22T09:24:58.000Z</time>
      </trkpt>
      <trkpt lat="59.0852451324" lon="30.0273299217">
        <time>2026-04-22T09:25:01.000Z</time>
      </trkpt>
      <trkpt lat="59.0852451324" lon="30.0273299217">
        <time>2026-04-22T09:25:03.000Z</time>
      </trkpt>
      <trkpt lat="59.0852880478" lon="30.0273728371">
        <time>2026-04-22T09:25:06.000Z</time>
      </trkpt>
      <trkpt lat="59.0853095055" lon="30.0273728371">
        <time>2026-04-22T09:25:08.000Z</time>
      </trkpt>
      <trkpt lat="59.0853309631" lon="30.0274157524">
        <time>2026-04-22T09:25:11.000Z</time>
      </trkpt>
      <trkpt lat="59.0853524208" lon="30.0274157524">
        <time>2026-04-22T09:25:13.000Z</time>
      </trkpt>
      <trkpt lat="59.0853524208" lon="30.0273942947">
        <time>2026-04-22T09:25:16.000Z</time>
      </trkpt>
      <trkpt lat="59.0853524208" lon="30.0273728371">
        <time>2026-04-22T09:25:18.000Z</time>
      </trkpt>
      <trkpt lat="59.0853738785" lon="30.0273513794">
        <time>2026-04-22T09:25:21.000Z</time>
      </trkpt>
      <trkpt lat="59.0853738785" lon="30.0273513794">
        <time>2026-04-22T09:25:23.000Z</time>
      </trkpt>
      <trkpt lat="59.0854167938" lon="30.0273728371">
        <time>2026-04-22T09:25:26.000Z</time>
      </trkpt>
      <trkpt lat="59.0854382515" lon="30.0273513794">
        <time>2026-04-22T09:25:28.000Z</time>
      </trkpt>
      <trkpt lat="59.0854597092" lon="30.0272655487">
        <time>2026-04-22T09:25:31.000Z</time>
      </trkpt>
      <trkpt lat="59.0854597092" lon="30.0272655487">
        <time>2026-04-22T09:25:33.000Z</time>
      </trkpt>
      <trkpt lat="59.0854597092" lon="30.0272655487">
        <time>2026-04-22T09:25:36.000Z</time>
      </trkpt>
      <trkpt lat="59.0854597092" lon="30.0272655487">
        <time>2026-04-22T09:25:38.000Z</time>
      </trkpt>
      <trkpt lat="59.0854597092" lon="30.0272655487">
        <time>2026-04-22T09:25:41.000Z</time>
      </trkpt>
      <trkpt lat="59.0854811668" lon="30.027244091">
        <time>2026-04-22T09:25:43.000Z</time>
      </trkpt>
      <trkpt lat="59.0854597092" lon="30.0272011757">
        <time>2026-04-22T09:25:46.000Z</time>
      </trkpt>
      <trkpt lat="59.0854811668" lon="30.027244091">
        <time>2026-04-22T09:25:48.000Z</time>
      </trkpt>
      <trkpt lat="59.0855026245" lon="30.0272870064">
        <time>2026-04-22T09:25:51.000Z</time>
      </trkpt>
      <trkpt lat="59.0855455399" lon="30.0273299217">
        <time>2026-04-22T09:25:53.000Z</time>
      </trkpt>
      <trkpt lat="59.0855669975" lon="30.0273513794">
        <time>2026-04-22T09:25:56.000Z</time>
      </trkpt>
      <trkpt lat="59.0856099129" lon="30.0273942947">
        <time>2026-04-22T09:25:58.000Z</time>
      </trkpt>
      <trkpt lat="59.0855884552" lon="30.0273513794">
        <time>2026-04-22T09:26:01.000Z</time>
      </trkpt>
      <trkpt lat="59.0856099129" lon="30.027244091">
        <time>2026-04-22T09:26:03.000Z</time>
      </trkpt>
      <trkpt lat="59.0856099129" lon="30.0271368027">
        <time>2026-04-22T09:26:06.000Z</time>
      </trkpt>
      <trkpt lat="59.0856313705" lon="30.027115345">
        <time>2026-04-22T09:26:08.000Z</time>
      </trkpt>
      <trkpt lat="59.0856957436" lon="30.0270938873">
        <time>2026-04-22T09:26:11.000Z</time>
      </trkpt>
      <trkpt lat="59.0856742859" lon="30.0271368027">
        <time>2026-04-22T09:26:13.000Z</time>
      </trkpt>
      <trkpt lat="59.0856957436" lon="30.0271368027">
        <time>2026-04-22T09:26:16.000Z</time>
      </trkpt>
      <trkpt lat="59.0856957436" lon="30.0270724297">
        <time>2026-04-22T09:26:18.000Z</time>
      </trkpt>
      <trkpt lat="59.0857386589" lon="30.0270080566">
        <time>2026-04-22T09:26:21.000Z</time>
      </trkpt>
      <trkpt lat="59.0858030319" lon="30.026986599">
        <time>2026-04-22T09:26:23.000Z</time>
      </trkpt>
      <trkpt lat="59.0858674049" lon="30.026986599">
        <time>2026-04-22T09:26:26.000Z</time>
      </trkpt>
      <trkpt lat="59.085931778" lon="30.026986599">
        <time>2026-04-22T09:26:28.000Z</time>
      </trkpt>
      <trkpt lat="59.0859532356" lon="30.0269436836">
        <time>2026-04-22T09:26:31.000Z</time>
      </trkpt>
      <trkpt lat="59.085931778" lon="30.0269007683">
        <time>2026-04-22T09:26:33.000Z</time>
      </trkpt>
      <trkpt lat="59.0859532356" lon="30.0268363953">
        <time>2026-04-22T09:26:36.000Z</time>
      </trkpt>
      <trkpt lat="59.085996151" lon="30.0267934799">
        <time>2026-04-22T09:26:38.000Z</time>
      </trkpt>
      <trkpt lat="59.0860176086" lon="30.0268578529">
        <time>2026-04-22T09:26:41.000Z</time>
      </trkpt>
      <trkpt lat="59.086060524" lon="30.0269436836">
        <time>2026-04-22T09:26:43.000Z</time>
      </trkpt>
      <trkpt lat="59.0860390663" lon="30.0269436836">
        <time>2026-04-22T09:26:46.000Z</time>
      </trkpt>
      <trkpt lat="59.0860176086" lon="30.0269651413">
        <time>2026-04-22T09:26:48.000Z</time>
      </trkpt>
      <trkpt lat="59.0860390663" lon="30.0269436836">
        <time>2026-04-22T09:26:51.000Z</time>
      </trkpt>
      <trkpt lat="59.086060524" lon="30.0269436836">
        <time>2026-04-22T09:26:53.000Z</time>
      </trkpt>
      <trkpt lat="59.0860819817" lon="30.026986599">
        <time>2026-04-22T09:26:56.000Z</time>
      </trkpt>
      <trkpt lat="59.0860819817" lon="30.026986599">
        <time>2026-04-22T09:26:58.000Z</time>
      </trkpt>
      <trkpt lat="59.0861034393" lon="30.027050972">
        <time>2026-04-22T09:27:01.000Z</time>
      </trkpt>
      <trkpt lat="59.0861463547" lon="30.0270724297">
        <time>2026-04-22T09:27:03.000Z</time>
      </trkpt>
      <trkpt lat="59.0861678123" lon="30.027050972">
        <time>2026-04-22T09:27:06.000Z</time>
      </trkpt>
      <trkpt lat="59.08618927" lon="30.026986599">
        <time>2026-04-22T09:27:08.000Z</time>
      </trkpt>
      <trkpt lat="59.08618927" lon="30.026986599">
        <time>2026-04-22T09:27:11.000Z</time>
      </trkpt>
      <trkpt lat="59.08618927" lon="30.026986599">
        <time>2026-04-22T09:27:13.000Z</time>
      </trkpt>
      <trkpt lat="59.08618927" lon="30.026986599">
        <time>2026-04-22T09:27:16.000Z</time>
      </trkpt>
      <trkpt lat="59.08618927" lon="30.026986599">
        <time>2026-04-22T09:27:18.000Z</time>
      </trkpt>
      <trkpt lat="59.08618927" lon="30.026986599">
        <time>2026-04-22T09:27:21.000Z</time>
      </trkpt>
      <trkpt lat="59.0862107277" lon="30.0269651413">
        <time>2026-04-22T09:27:23.000Z</time>
      </trkpt>
      <trkpt lat="59.086253643" lon="30.0269007683">
        <time>2026-04-22T09:27:26.000Z</time>
      </trkpt>
      <trkpt lat="59.0862751007" lon="30.0268793106">
        <time>2026-04-22T09:27:28.000Z</time>
      </trkpt>
      <trkpt lat="59.0863180161" lon="30.0269436836">
        <time>2026-04-22T09:27:31.000Z</time>
      </trkpt>
      <trkpt lat="59.0863394737" lon="30.0270080566">
        <time>2026-04-22T09:27:33.000Z</time>
      </trkpt>
      <trkpt lat="59.0863609314" lon="30.0270724297">
        <time>2026-04-22T09:27:36.000Z</time>
      </trkpt>
      <trkpt lat="59.0863609314" lon="30.0270295143">
        <time>2026-04-22T09:27:38.000Z</time>
      </trkpt>
      <trkpt lat="59.0863609314" lon="30.0269651413">
        <time>2026-04-22T09:27:41.000Z</time>
      </trkpt>
      <trkpt lat="59.0863823891" lon="30.0269007683">
        <time>2026-04-22T09:27:43.000Z</time>
      </trkpt>
      <trkpt lat="59.0864253044" lon="30.0268363953">
        <time>2026-04-22T09:27:46.000Z</time>
      </trkpt>
      <trkpt lat="59.0864682198" lon="30.0268363953">
        <time>2026-04-22T09:27:48.000Z</time>
      </trkpt>
      <trkpt lat="59.0865111351" lon="30.0267934799">
        <time>2026-04-22T09:27:51.000Z</time>
      </trkpt>
      <trkpt lat="59.0865540504" lon="30.0267720222">
        <time>2026-04-22T09:27:53.000Z</time>
      </trkpt>
      <trkpt lat="59.0865969658" lon="30.0267291069">
        <time>2026-04-22T09:27:56.000Z</time>
      </trkpt>
      <trkpt lat="59.0865969658" lon="30.0267076492">
        <time>2026-04-22T09:27:58.000Z</time>
      </trkpt>
      <trkpt lat="59.0865969658" lon="30.0267076492">
        <time>2026-04-22T09:28:01.000Z</time>
      </trkpt>
      <trkpt lat="59.0865755081" lon="30.0266218185">
        <time>2026-04-22T09:28:03.000Z</time>
      </trkpt>
      <trkpt lat="59.0865755081" lon="30.0266003609">
        <time>2026-04-22T09:28:06.000Z</time>
      </trkpt>
      <trkpt lat="59.0866184235" lon="30.0266432762">
        <time>2026-04-22T09:28:08.000Z</time>
      </trkpt>
      <trkpt lat="59.0866398811" lon="30.0266647339">
        <time>2026-04-22T09:28:11.000Z</time>
      </trkpt>
      <trkpt lat="59.0866827965" lon="30.0266861916">
        <time>2026-04-22T09:28:13.000Z</time>
      </trkpt>
      <trkpt lat="59.0866827965" lon="30.0266861916">
        <time>2026-04-22T09:28:16.000Z</time>
      </trkpt>
      <trkpt lat="59.0867042542" lon="30.0267505646">
        <time>2026-04-22T09:28:18.000Z</time>
      </trkpt>
      <trkpt lat="59.0867686272" lon="30.0267505646">
        <time>2026-04-22T09:28:21.000Z</time>
      </trkpt>
      <trkpt lat="59.0868544579" lon="30.0267076492">
        <time>2026-04-22T09:28:23.000Z</time>
      </trkpt>
      <trkpt lat="59.0868544579" lon="30.0265574455">
        <time>2026-04-22T09:28:26.000Z</time>
      </trkpt>
      <trkpt lat="59.0868544579" lon="30.0264286995">
        <time>2026-04-22T09:28:28.000Z</time>
      </trkpt>
      <trkpt lat="59.0868973732" lon="30.0262999535">
        <time>2026-04-22T09:28:31.000Z</time>
      </trkpt>
      <trkpt lat="59.0869832039" lon="30.0261497498">
        <time>2026-04-22T09:28:33.000Z</time>
      </trkpt>
      <trkpt lat="59.0869832039" lon="30.0261497498">
        <time>2026-04-22T09:28:36.000Z</time>
      </trkpt>
      <trkpt lat="59.0869617462" lon="30.0261926651">
        <time>2026-04-22T09:28:38.000Z</time>
      </trkpt>
      <trkpt lat="59.0869188309" lon="30.0262999535">
        <time>2026-04-22T09:28:41.000Z</time>
      </trkpt>
      <trkpt lat="59.0868973732" lon="30.0264501572">
        <time>2026-04-22T09:28:43.000Z</time>
      </trkpt>
      <trkpt lat="59.0868759155" lon="30.0265145302">
        <time>2026-04-22T09:28:46.000Z</time>
      </trkpt>
      <trkpt lat="59.0868973732" lon="30.0265145302">
        <time>2026-04-22T09:28:48.000Z</time>
      </trkpt>
      <trkpt lat="59.0868973732" lon="30.0265145302">
        <time>2026-04-22T09:28:51.000Z</time>
      </trkpt>
      <trkpt lat="59.0868973732" lon="30.0264716148">
        <time>2026-04-22T09:28:53.000Z</time>
      </trkpt>
      <trkpt lat="59.0869617462" lon="30.0264286995">
        <time>2026-04-22T09:28:56.000Z</time>
      </trkpt>
      <trkpt lat="59.0869832039" lon="30.0263643265">
        <time>2026-04-22T09:28:58.000Z</time>
      </trkpt>
      <trkpt lat="59.0869832039" lon="30.0263214111">
        <time>2026-04-22T09:29:01.000Z</time>
      </trkpt>
      <trkpt lat="59.0869832039" lon="30.0262999535">
        <time>2026-04-22T09:29:03.000Z</time>
      </trkpt>
      <trkpt lat="59.0869832039" lon="30.0262999535">
        <time>2026-04-22T09:29:06.000Z</time>
      </trkpt>
      <trkpt lat="59.0870046616" lon="30.0262570381">
        <time>2026-04-22T09:29:08.000Z</time>
      </trkpt>
      <trkpt lat="59.0870261192" lon="30.0261926651">
        <time>2026-04-22T09:29:11.000Z</time>
      </trkpt>
      <trkpt lat="59.0870261192" lon="30.0262141228">
        <time>2026-04-22T09:29:13.000Z</time>
      </trkpt>
      <trkpt lat="59.0870046616" lon="30.0261712074">
        <time>2026-04-22T09:29:16.000Z</time>
      </trkpt>
      <trkpt lat="59.0870046616" lon="30.0260853767">
        <time>2026-04-22T09:29:18.000Z</time>
      </trkpt>
      <trkpt lat="59.0870475769" lon="30.0260424614">
        <time>2026-04-22T09:29:21.000Z</time>
      </trkpt>
      <trkpt lat="59.0870690346" lon="30.0259995461">
        <time>2026-04-22T09:29:23.000Z</time>
      </trkpt>
      <trkpt lat="59.0870904922" lon="30.0259780884">
        <time>2026-04-22T09:29:26.000Z</time>
      </trkpt>
      <trkpt lat="59.0870904922" lon="30.0259566307">
        <time>2026-04-22T09:29:28.000Z</time>
      </trkpt>
      <trkpt lat="59.0870904922" lon="30.0259566307">
        <time>2026-04-22T09:29:31.000Z</time>
      </trkpt>
      <trkpt lat="59.0870690346" lon="30.0259566307">
        <time>2026-04-22T09:29:33.000Z</time>
      </trkpt>
      <trkpt lat="59.0870690346" lon="30.0259566307">
        <time>2026-04-22T09:29:36.000Z</time>
      </trkpt>
      <trkpt lat="59.0870690346" lon="30.0259566307">
        <time>2026-04-22T09:29:38.000Z</time>
      </trkpt>
      <trkpt lat="59.0870690346" lon="30.025935173">
        <time>2026-04-22T09:29:41.000Z</time>
      </trkpt>
      <trkpt lat="59.0870690346" lon="30.025935173">
        <time>2026-04-22T09:29:43.000Z</time>
      </trkpt>
      <trkpt lat="59.0870904922" lon="30.025935173">
        <time>2026-04-22T09:29:46.000Z</time>
      </trkpt>
      <trkpt lat="59.0870904922" lon="30.025935173">
        <time>2026-04-22T09:29:48.000Z</time>
      </trkpt>
      <trkpt lat="59.0870904922" lon="30.025935173">
        <time>2026-04-22T09:29:51.000Z</time>
      </trkpt>
      <trkpt lat="59.0870904922" lon="30.025935173">
        <time>2026-04-22T09:29:53.000Z</time>
      </trkpt>
      <trkpt lat="59.0870904922" lon="30.025935173">
        <time>2026-04-22T09:29:56.000Z</time>
      </trkpt>
      <trkpt lat="59.0870904922" lon="30.025935173">
        <time>2026-04-22T09:29:58.000Z</time>
      </trkpt>
      <trkpt lat="59.0870904922" lon="30.025935173">
        <time>2026-04-22T09:30:01.000Z</time>
      </trkpt>
      <trkpt lat="59.0870904922" lon="30.025935173">
        <time>2026-04-22T09:30:03.000Z</time>
      </trkpt>
      <trkpt lat="59.0870904922" lon="30.025935173">
        <time>2026-04-22T09:30:06.000Z</time>
      </trkpt>
      <trkpt lat="59.0870904922" lon="30.025935173">
        <time>2026-04-22T09:30:08.000Z</time>
      </trkpt>
      <trkpt lat="59.0870690346" lon="30.025935173">
        <time>2026-04-22T09:30:11.000Z</time>
      </trkpt>
      <trkpt lat="59.0870690346" lon="30.025935173">
        <time>2026-04-22T09:30:13.000Z</time>
      </trkpt>
      <trkpt lat="59.0870690346" lon="30.025935173">
        <time>2026-04-22T09:30:16.000Z</time>
      </trkpt>
      <trkpt lat="59.0870690346" lon="30.025935173">
        <time>2026-04-22T09:30:18.000Z</time>
      </trkpt>
      <trkpt lat="59.0870261192" lon="30.0260424614">
        <time>2026-04-22T09:30:21.000Z</time>
      </trkpt>
      <trkpt lat="59.0870046616" lon="30.0260853767">
        <time>2026-04-22T09:30:23.000Z</time>
      </trkpt>
      <trkpt lat="59.0870046616" lon="30.0261497498">
        <time>2026-04-22T09:30:26.000Z</time>
      </trkpt>
      <trkpt lat="59.0870046616" lon="30.0262355804">
        <time>2026-04-22T09:30:28.000Z</time>
      </trkpt>
      <trkpt lat="59.0869832039" lon="30.0262784958">
        <time>2026-04-22T09:30:31.000Z</time>
      </trkpt>
      <trkpt lat="59.0869832039" lon="30.0263428688">
        <time>2026-04-22T09:30:33.000Z</time>
      </trkpt>
      <trkpt lat="59.0869832039" lon="30.0263428688">
        <time>2026-04-22T09:30:36.000Z</time>
      </trkpt>
      <trkpt lat="59.0869832039" lon="30.0263643265">
        <time>2026-04-22T09:30:38.000Z</time>
      </trkpt>
      <trkpt lat="59.0869617462" lon="30.0264716148">
        <time>2026-04-22T09:30:41.000Z</time>
      </trkpt>
      <trkpt lat="59.0869832039" lon="30.0265789032">
        <time>2026-04-22T09:30:43.000Z</time>
      </trkpt>
      <trkpt lat="59.0870046616" lon="30.0266218185">
        <time>2026-04-22T09:30:46.000Z</time>
      </trkpt>
      <trkpt lat="59.0870475769" lon="30.0266218185">
        <time>2026-04-22T09:30:48.000Z</time>
      </trkpt>
      <trkpt lat="59.0870904922" lon="30.0266647339">
        <time>2026-04-22T09:30:51.000Z</time>
      </trkpt>
      <trkpt lat="59.0870904922" lon="30.0266218185">
        <time>2026-04-22T09:30:53.000Z</time>
      </trkpt>
      <trkpt lat="59.0870690346" lon="30.0265789032">
        <time>2026-04-22T09:30:56.000Z</time>
      </trkpt>
      <trkpt lat="59.0870904922" lon="30.0265574455">
        <time>2026-04-22T09:30:58.000Z</time>
      </trkpt>
      <trkpt lat="59.0871548653" lon="30.0265789032">
        <time>2026-04-22T09:31:01.000Z</time>
      </trkpt>
      <trkpt lat="59.0872192383" lon="30.0265359879">
        <time>2026-04-22T09:31:03.000Z</time>
      </trkpt>
      <trkpt lat="59.087240696" lon="30.0264072418">
        <time>2026-04-22T09:31:06.000Z</time>
      </trkpt>
      <trkpt lat="59.0872836113" lon="30.0263214111">
        <time>2026-04-22T09:31:08.000Z</time>
      </trkpt>
      <trkpt lat="59.0872836113" lon="30.0263214111">
        <time>2026-04-22T09:31:11.000Z</time>
      </trkpt>
      <trkpt lat="59.087305069" lon="30.0263214111">
        <time>2026-04-22T09:31:13.000Z</time>
      </trkpt>
      <trkpt lat="59.0873908997" lon="30.0263857841">
        <time>2026-04-22T09:31:16.000Z</time>
      </trkpt>
      <trkpt lat="59.0874552727" lon="30.0264716148">
        <time>2026-04-22T09:31:18.000Z</time>
      </trkpt>
      <trkpt lat="59.087433815" lon="30.0265359879">
        <time>2026-04-22T09:31:21.000Z</time>
      </trkpt>
      <trkpt lat="59.087433815" lon="30.0265359879">
        <time>2026-04-22T09:31:23.000Z</time>
      </trkpt>
      <trkpt lat="59.087433815" lon="30.0265145302">
        <time>2026-04-22T09:31:26.000Z</time>
      </trkpt>
      <trkpt lat="59.0874552727" lon="30.0264930725">
        <time>2026-04-22T09:31:28.000Z</time>
      </trkpt>
      <trkpt lat="59.0875196457" lon="30.0264501572">
        <time>2026-04-22T09:31:31.000Z</time>
      </trkpt>
      <trkpt lat="59.087562561" lon="30.0264286995">
        <time>2026-04-22T09:31:33.000Z</time>
      </trkpt>
      <trkpt lat="59.0876269341" lon="30.0263857841">
        <time>2026-04-22T09:31:36.000Z</time>
      </trkpt>
      <trkpt lat="59.0876698494" lon="30.0263428688">
        <time>2026-04-22T09:31:38.000Z</time>
      </trkpt>
      <trkpt lat="59.0876913071" lon="30.0262999535">
        <time>2026-04-22T09:31:41.000Z</time>
      </trkpt>
      <trkpt lat="59.0876913071" lon="30.0262999535">
        <time>2026-04-22T09:31:43.000Z</time>
      </trkpt>
      <trkpt lat="59.0876913071" lon="30.0262999535">
        <time>2026-04-22T09:31:46.000Z</time>
      </trkpt>
      <trkpt lat="59.0877127647" lon="30.0262999535">
        <time>2026-04-22T09:31:48.000Z</time>
      </trkpt>
      <trkpt lat="59.0877127647" lon="30.0262999535">
        <time>2026-04-22T09:31:51.000Z</time>
      </trkpt>
      <trkpt lat="59.0876913071" lon="30.0263214111">
        <time>2026-04-22T09:31:53.000Z</time>
      </trkpt>
      <trkpt lat="59.0877342224" lon="30.0263643265">
        <time>2026-04-22T09:31:56.000Z</time>
      </trkpt>
      <trkpt lat="59.0877771378" lon="30.0264286995">
        <time>2026-04-22T09:31:58.000Z</time>
      </trkpt>
      <trkpt lat="59.0878629684" lon="30.0264501572">
        <time>2026-04-22T09:32:01.000Z</time>
      </trkpt>
      <trkpt lat="59.0879273415" lon="30.0264072418">
        <time>2026-04-22T09:32:03.000Z</time>
      </trkpt>
      <trkpt lat="59.0879917145" lon="30.0263214111">
        <time>2026-04-22T09:32:06.000Z</time>
      </trkpt>
      <trkpt lat="59.0880775452" lon="30.0262784958">
        <time>2026-04-22T09:32:08.000Z</time>
      </trkpt>
      <trkpt lat="59.0881419182" lon="30.0261712074">
        <time>2026-04-22T09:32:11.000Z</time>
      </trkpt>
      <trkpt lat="59.0881204605" lon="30.0261926651">
        <time>2026-04-22T09:32:13.000Z</time>
      </trkpt>
      <trkpt lat="59.0881204605" lon="30.0261926651">
        <time>2026-04-22T09:32:16.000Z</time>
      </trkpt>
      <trkpt lat="59.0881204605" lon="30.0261926651">
        <time>2026-04-22T09:32:18.000Z</time>
      </trkpt>
      <trkpt lat="59.0881204605" lon="30.0261926651">
        <time>2026-04-22T09:32:21.000Z</time>
      </trkpt>
      <trkpt lat="59.0881419182" lon="30.0261926651">
        <time>2026-04-22T09:32:23.000Z</time>
      </trkpt>
      <trkpt lat="59.0882277489" lon="30.0262784958">
        <time>2026-04-22T09:32:26.000Z</time>
      </trkpt>
      <trkpt lat="59.0882706642" lon="30.0262784958">
        <time>2026-04-22T09:32:28.000Z</time>
      </trkpt>
      <trkpt lat="59.0881848335" lon="30.0262999535">
        <time>2026-04-22T09:32:31.000Z</time>
      </trkpt>
      <trkpt lat="59.0881204605" lon="30.0262999535">
        <time>2026-04-22T09:32:33.000Z</time>
      </trkpt>
      <trkpt lat="59.0881419182" lon="30.0262355804">
        <time>2026-04-22T09:32:36.000Z</time>
      </trkpt>
      <trkpt lat="59.0881419182" lon="30.0261497498">
        <time>2026-04-22T09:32:38.000Z</time>
      </trkpt>
      <trkpt lat="59.0881204605" lon="30.0261282921">
        <time>2026-04-22T09:32:41.000Z</time>
      </trkpt>
      <trkpt lat="59.0881204605" lon="30.0260853767">
        <time>2026-04-22T09:32:43.000Z</time>
      </trkpt>
      <trkpt lat="59.0881204605" lon="30.0261068344">
        <time>2026-04-22T09:32:46.000Z</time>
      </trkpt>
      <trkpt lat="59.0881204605" lon="30.0260424614">
        <time>2026-04-22T09:32:48.000Z</time>
      </trkpt>
      <trkpt lat="59.0881204605" lon="30.0259566307">
        <time>2026-04-22T09:32:51.000Z</time>
      </trkpt>
      <trkpt lat="59.0881204605" lon="30.0258708">
        <time>2026-04-22T09:32:53.000Z</time>
      </trkpt>
      <trkpt lat="59.0880346298" lon="30.0258708">
        <time>2026-04-22T09:32:56.000Z</time>
      </trkpt>
      <trkpt lat="59.0879487991" lon="30.0258278847">
        <time>2026-04-22T09:32:58.000Z</time>
      </trkpt>
      <trkpt lat="59.0879273415" lon="30.025677681">
        <time>2026-04-22T09:33:01.000Z</time>
      </trkpt>
      <trkpt lat="59.0879273415" lon="30.0255274773">
        <time>2026-04-22T09:33:03.000Z</time>
      </trkpt>
      <trkpt lat="59.0878844261" lon="30.0253343582">
        <time>2026-04-22T09:33:06.000Z</time>
      </trkpt>
      <trkpt lat="59.0878844261" lon="30.0251412392">
        <time>2026-04-22T09:33:08.000Z</time>
      </trkpt>
      <trkpt lat="59.0878844261" lon="30.0252699852">
        <time>2026-04-22T09:33:11.000Z</time>
      </trkpt>
      <trkpt lat="59.0878844261" lon="30.0255060196">
        <time>2026-04-22T09:33:13.000Z</time>
      </trkpt>
      <trkpt lat="59.0879487991" lon="30.025613308">
        <time>2026-04-22T09:33:16.000Z</time>
      </trkpt>
      <trkpt lat="59.0880560875" lon="30.025677681">
        <time>2026-04-22T09:33:18.000Z</time>
      </trkpt>
      <trkpt lat="59.0881633759" lon="30.0257635117">
        <time>2026-04-22T09:33:21.000Z</time>
      </trkpt>
      <trkpt lat="59.0882492065" lon="30.0258278847">
        <time>2026-04-22T09:33:23.000Z</time>
      </trkpt>
      <trkpt lat="59.0883135796" lon="30.0259780884">
        <time>2026-04-22T09:33:26.000Z</time>
      </trkpt>
      <trkpt lat="59.0882921219" lon="30.0261497498">
        <time>2026-04-22T09:33:28.000Z</time>
      </trkpt>
      <trkpt lat="59.0882277489" lon="30.0260639191">
        <time>2026-04-22T09:33:31.000Z</time>
      </trkpt>
      <trkpt lat="59.0881633759" lon="30.025935173">
        <time>2026-04-22T09:33:33.000Z</time>
      </trkpt>
      <trkpt lat="59.0882062912" lon="30.0258922577">
        <time>2026-04-22T09:33:36.000Z</time>
      </trkpt>
      <trkpt lat="59.0882062912" lon="30.0259566307">
        <time>2026-04-22T09:33:38.000Z</time>
      </trkpt>
      <trkpt lat="59.0881419182" lon="30.0259566307">
        <time>2026-04-22T09:33:41.000Z</time>
      </trkpt>
      <trkpt lat="59.0880775452" lon="30.0259137154">
        <time>2026-04-22T09:33:43.000Z</time>
      </trkpt>
      <trkpt lat="59.0879702568" lon="30.0258922577">
        <time>2026-04-22T09:33:46.000Z</time>
      </trkpt>
      <trkpt lat="59.0878629684" lon="30.025806427">
        <time>2026-04-22T09:33:48.000Z</time>
      </trkpt>
      <trkpt lat="59.0877342224" lon="30.0255703926">
        <time>2026-04-22T09:33:51.000Z</time>
      </trkpt>
      <trkpt lat="59.0877556801" lon="30.0253129005">
        <time>2026-04-22T09:33:53.000Z</time>
      </trkpt>
      <trkpt lat="59.0877771378" lon="30.0253343582">
        <time>2026-04-22T09:33:56.000Z</time>
      </trkpt>
      <trkpt lat="59.0877985954" lon="30.0253987312">
        <time>2026-04-22T09:33:58.000Z</time>
      </trkpt>
      <trkpt lat="59.0878415108" lon="30.0254201889">
        <time>2026-04-22T09:34:01.000Z</time>
      </trkpt>
      <trkpt lat="59.0878844261" lon="30.0253343582">
        <time>2026-04-22T09:34:03.000Z</time>
      </trkpt>
      <trkpt lat="59.0879058838" lon="30.0251841545">
        <time>2026-04-22T09:34:06.000Z</time>
      </trkpt>
      <trkpt lat="59.0879058838" lon="30.0251841545">
        <time>2026-04-22T09:34:08.000Z</time>
      </trkpt>
      <trkpt lat="59.0879487991" lon="30.0252270699">
        <time>2026-04-22T09:34:11.000Z</time>
      </trkpt>
      <trkpt lat="59.0880131721" lon="30.0251412392">
        <time>2026-04-22T09:34:13.000Z</time>
      </trkpt>
      <trkpt lat="59.0880775452" lon="30.0249481201">
        <time>2026-04-22T09:34:16.000Z</time>
      </trkpt>
      <trkpt lat="59.0882062912" lon="30.0248622894">
        <time>2026-04-22T09:34:18.000Z</time>
      </trkpt>
      <trkpt lat="59.0882706642" lon="30.0247979164">
        <time>2026-04-22T09:34:21.000Z</time>
      </trkpt>
      <trkpt lat="59.0882062912" lon="30.0247550011">
        <time>2026-04-22T09:34:23.000Z</time>
      </trkpt>
      <trkpt lat="59.0880990028" lon="30.0248622894">
        <time>2026-04-22T09:34:26.000Z</time>
      </trkpt>
      <trkpt lat="59.0880560875" lon="30.0250554085">
        <time>2026-04-22T09:34:28.000Z</time>
      </trkpt>
      <trkpt lat="59.0879917145" lon="30.0250554085">
        <time>2026-04-22T09:34:31.000Z</time>
      </trkpt>
      <trkpt lat="59.0879487991" lon="30.0250339508">
        <time>2026-04-22T09:34:33.000Z</time>
      </trkpt>
      <trkpt lat="59.0879487991" lon="30.0249266624">
        <time>2026-04-22T09:34:36.000Z</time>
      </trkpt>
      <trkpt lat="59.0879917145" lon="30.0249910355">
        <time>2026-04-22T09:34:38.000Z</time>
      </trkpt>
      <trkpt lat="59.0880775452" lon="30.0251412392">
        <time>2026-04-22T09:34:41.000Z</time>
      </trkpt>
      <trkpt lat="59.0881204605" lon="30.0251841545">
        <time>2026-04-22T09:34:43.000Z</time>
      </trkpt>
      <trkpt lat="59.0880990028" lon="30.0250983238">
        <time>2026-04-22T09:34:46.000Z</time>
      </trkpt>
      <trkpt lat="59.0880775452" lon="30.0250768661">
        <time>2026-04-22T09:34:48.000Z</time>
      </trkpt>
      <trkpt lat="59.0880775452" lon="30.0249910355">
        <time>2026-04-22T09:34:51.000Z</time>
      </trkpt>
      <trkpt lat="59.0880560875" lon="30.0248622894">
        <time>2026-04-22T09:34:53.000Z</time>
      </trkpt>
      <trkpt lat="59.0880775452" lon="30.0246047974">
        <time>2026-04-22T09:34:56.000Z</time>
      </trkpt>
      <trkpt lat="59.0881419182" lon="30.0244760513">
        <time>2026-04-22T09:34:58.000Z</time>
      </trkpt>
      <trkpt lat="59.0882277489" lon="30.024497509">
        <time>2026-04-22T09:35:01.000Z</time>
      </trkpt>
      <trkpt lat="59.0882921219" lon="30.0245833397">
        <time>2026-04-22T09:35:03.000Z</time>
      </trkpt>
      <trkpt lat="59.0882492065" lon="30.0246477127">
        <time>2026-04-22T09:35:06.000Z</time>
      </trkpt>
      <trkpt lat="59.0882277489" lon="30.0245833397">
        <time>2026-04-22T09:35:11.000Z</time>
      </trkpt>
      <trkpt lat="59.0882277489" lon="30.0245833397">
        <time>2026-04-22T09:35:13.000Z</time>
      </trkpt>
      <trkpt lat="59.0882277489" lon="30.0245833397">
        <time>2026-04-22T09:35:16.000Z</time>
      </trkpt>
      <trkpt lat="59.0882277489" lon="30.0245833397">
        <time>2026-04-22T09:35:18.000Z</time>
      </trkpt>
      <trkpt lat="59.0882277489" lon="30.0245833397">
        <time>2026-04-22T09:35:21.000Z</time>
      </trkpt>
      <trkpt lat="59.0882277489" lon="30.0245833397">
        <time>2026-04-22T09:35:23.000Z</time>
      </trkpt>
      <trkpt lat="59.0882277489" lon="30.0245833397">
        <time>2026-04-22T09:35:26.000Z</time>
      </trkpt>
      <trkpt lat="59.0882277489" lon="30.0245833397">
        <time>2026-04-22T09:35:28.000Z</time>
      </trkpt>
      <trkpt lat="59.0882277489" lon="30.0245833397">
        <time>2026-04-22T09:35:31.000Z</time>
      </trkpt>
      <trkpt lat="59.0882277489" lon="30.0245833397">
        <time>2026-04-22T09:35:33.000Z</time>
      </trkpt>
      <trkpt lat="59.0882277489" lon="30.0247979164">
        <time>2026-04-22T09:35:36.000Z</time>
      </trkpt>
      <trkpt lat="59.0882921219" lon="30.0249910355">
        <time>2026-04-22T09:35:38.000Z</time>
      </trkpt>
      <trkpt lat="59.0883779526" lon="30.0251841545">
        <time>2026-04-22T09:35:41.000Z</time>
      </trkpt>
      <trkpt lat="59.0883994102" lon="30.0254416466">
        <time>2026-04-22T09:35:43.000Z</time>
      </trkpt>
      <trkpt lat="59.0883135796" lon="30.025613308">
        <time>2026-04-22T09:35:46.000Z</time>
      </trkpt>
      <trkpt lat="59.0881848335" lon="30.0256991386">
        <time>2026-04-22T09:35:48.000Z</time>
      </trkpt>
      <trkpt lat="59.0881204605" lon="30.0256562233">
        <time>2026-04-22T09:35:53.000Z</time>
      </trkpt>
      <trkpt lat="59.0880775452" lon="30.0253772736">
        <time>2026-04-22T09:35:56.000Z</time>
      </trkpt>
      <trkpt lat="59.0880346298" lon="30.0251841545">
        <time>2026-04-22T09:35:58.000Z</time>
      </trkpt>
      <trkpt lat="59.0880346298" lon="30.0250339508">
        <time>2026-04-22T09:36:01.000Z</time>
      </trkpt>
      <trkpt lat="59.0880346298" lon="30.0248837471">
        <time>2026-04-22T09:36:03.000Z</time>
      </trkpt>
      <trkpt lat="59.0880131721" lon="30.0247979164">
        <time>2026-04-22T09:36:06.000Z</time>
      </trkpt>
      <trkpt lat="59.0880131721" lon="30.0247550011">
        <time>2026-04-22T09:36:08.000Z</time>
      </trkpt>
      <trkpt lat="59.0879917145" lon="30.0246906281">
        <time>2026-04-22T09:36:11.000Z</time>
      </trkpt>
      <trkpt lat="59.0879487991" lon="30.0246477127">
        <time>2026-04-22T09:36:13.000Z</time>
      </trkpt>
      <trkpt lat="59.0879273415" lon="30.0245833397">
        <time>2026-04-22T09:36:16.000Z</time>
      </trkpt>
      <trkpt lat="59.0878844261" lon="30.024497509">
        <time>2026-04-22T09:36:18.000Z</time>
      </trkpt>
      <trkpt lat="59.0878629684" lon="30.0244760513">
        <time>2026-04-22T09:36:21.000Z</time>
      </trkpt>
      <trkpt lat="59.0878629684" lon="30.0244545937">
        <time>2026-04-22T09:36:23.000Z</time>
      </trkpt>
      <trkpt lat="59.0878844261" lon="30.0244116783">
        <time>2026-04-22T09:36:26.000Z</time>
      </trkpt>
      <trkpt lat="59.0878629684" lon="30.0244116783">
        <time>2026-04-22T09:36:28.000Z</time>
      </trkpt>
      <trkpt lat="59.0877985954" lon="30.0244760513">
        <time>2026-04-22T09:36:31.000Z</time>
      </trkpt>
      <trkpt lat="59.0876913071" lon="30.024433136">
        <time>2026-04-22T09:36:36.000Z</time>
      </trkpt>
      <trkpt lat="59.0876483917" lon="30.02430439">
        <time>2026-04-22T09:36:38.000Z</time>
      </trkpt>
      <trkpt lat="59.0877127647" lon="30.0242829323">
        <time>2026-04-22T09:36:41.000Z</time>
      </trkpt>
      <trkpt lat="59.0877342224" lon="30.0242614746">
        <time>2026-04-22T09:36:46.000Z</time>
      </trkpt>
      <trkpt lat="59.0877342224" lon="30.0242614746">
        <time>2026-04-22T09:36:48.000Z</time>
      </trkpt>
      <trkpt lat="59.0876913071" lon="30.0242185593">
        <time>2026-04-22T09:36:53.000Z</time>
      </trkpt>
      <trkpt lat="59.0876698494" lon="30.0241327286">
        <time>2026-04-22T09:36:56.000Z</time>
      </trkpt>
      <trkpt lat="59.0877127647" lon="30.0241327286">
        <time>2026-04-22T09:36:58.000Z</time>
      </trkpt>
      <trkpt lat="59.0878415108" lon="30.0241112709">
        <time>2026-04-22T09:37:01.000Z</time>
      </trkpt>
      <trkpt lat="59.0879487991" lon="30.0240898132">
        <time>2026-04-22T09:37:03.000Z</time>
      </trkpt>
      <trkpt lat="59.0880346298" lon="30.0239610672">
        <time>2026-04-22T09:37:06.000Z</time>
      </trkpt>
      <trkpt lat="59.0880775452" lon="30.0238537788">
        <time>2026-04-22T09:37:08.000Z</time>
      </trkpt>
      <trkpt lat="59.0881419182" lon="30.0240039825">
        <time>2026-04-22T09:37:21.000Z</time>
      </trkpt>
      <trkpt lat="59.0881419182" lon="30.0240468979">
        <time>2026-04-22T09:37:23.000Z</time>
      </trkpt>
      <trkpt lat="59.0881848335" lon="30.0241971016">
        <time>2026-04-22T09:37:26.000Z</time>
      </trkpt>
      <trkpt lat="59.0881633759" lon="30.0242400169">
        <time>2026-04-22T09:37:28.000Z</time>
      </trkpt>
      <trkpt lat="59.0881633759" lon="30.0240898132">
        <time>2026-04-22T09:37:31.000Z</time>
      </trkpt>
      <trkpt lat="59.0881633759" lon="30.0239610672">
        <time>2026-04-22T09:37:33.000Z</time>
      </trkpt>
      <trkpt lat="59.0880990028" lon="30.0238966942">
        <time>2026-04-22T09:37:38.000Z</time>
      </trkpt>
      <trkpt lat="59.0881419182" lon="30.0238537788">
        <time>2026-04-22T09:37:41.000Z</time>
      </trkpt>
      <trkpt lat="59.0881848335" lon="30.0237894058">
        <time>2026-04-22T09:37:43.000Z</time>
      </trkpt>
      <trkpt lat="59.0881419182" lon="30.0237679482">
        <time>2026-04-22T09:37:46.000Z</time>
      </trkpt>
      <trkpt lat="59.0881419182" lon="30.0237464905">
        <time>2026-04-22T09:37:48.000Z</time>
      </trkpt>
      <trkpt lat="59.0881419182" lon="30.0237679482">
        <time>2026-04-22T09:37:51.000Z</time>
      </trkpt>
      <trkpt lat="59.0880560875" lon="30.0239181519">
        <time>2026-04-22T09:37:56.000Z</time>
      </trkpt>
      <trkpt lat="59.0880346298" lon="30.0240898132">
        <time>2026-04-22T09:37:58.000Z</time>
      </trkpt>
      <trkpt lat="59.0879917145" lon="30.0242400169">
        <time>2026-04-22T09:38:01.000Z</time>
      </trkpt>
      <trkpt lat="59.0879917145" lon="30.024368763">
        <time>2026-04-22T09:38:03.000Z</time>
      </trkpt>
      <trkpt lat="59.0879702568" lon="30.024497509">
        <time>2026-04-22T09:38:06.000Z</time>
      </trkpt>
      <trkpt lat="59.0879702568" lon="30.024561882">
        <time>2026-04-22T09:38:08.000Z</time>
      </trkpt>
      <trkpt lat="59.0879702568" lon="30.024561882">
        <time>2026-04-22T09:38:11.000Z</time>
      </trkpt>
      <trkpt lat="59.0879917145" lon="30.024561882">
        <time>2026-04-22T09:38:13.000Z</time>
      </trkpt>
      <trkpt lat="59.0879917145" lon="30.0245833397">
        <time>2026-04-22T09:38:16.000Z</time>
      </trkpt>
      <trkpt lat="59.0879917145" lon="30.0245833397">
        <time>2026-04-22T09:38:18.000Z</time>
      </trkpt>
      <trkpt lat="59.0879702568" lon="30.0245833397">
        <time>2026-04-22T09:38:21.000Z</time>
      </trkpt>
      <trkpt lat="59.0879487991" lon="30.024561882">
        <time>2026-04-22T09:38:23.000Z</time>
      </trkpt>
      <trkpt lat="59.0879487991" lon="30.024561882">
        <time>2026-04-22T09:38:26.000Z</time>
      </trkpt>
      <trkpt lat="59.0879702568" lon="30.0246477127">
        <time>2026-04-22T09:38:28.000Z</time>
      </trkpt>
      <trkpt lat="59.0879702568" lon="30.0246477127">
        <time>2026-04-22T09:38:31.000Z</time>
      </trkpt>
      <trkpt lat="59.0879702568" lon="30.0246477127">
        <time>2026-04-22T09:38:33.000Z</time>
      </trkpt>
      <trkpt lat="59.0879702568" lon="30.0246477127">
        <time>2026-04-22T09:38:36.000Z</time>
      </trkpt>
      <trkpt lat="59.0879702568" lon="30.0246477127">
        <time>2026-04-22T09:38:38.000Z</time>
      </trkpt>
      <trkpt lat="59.0879702568" lon="30.0246477127">
        <time>2026-04-22T09:38:41.000Z</time>
      </trkpt>
      <trkpt lat="59.0879702568" lon="30.0246477127">
        <time>2026-04-22T09:38:43.000Z</time>
      </trkpt>
      <trkpt lat="59.0879702568" lon="30.0246477127">
        <time>2026-04-22T09:38:46.000Z</time>
      </trkpt>
      <trkpt lat="59.0879702568" lon="30.0246477127">
        <time>2026-04-22T09:38:48.000Z</time>
      </trkpt>
      <trkpt lat="59.0879702568" lon="30.0246477127">
        <time>2026-04-22T09:38:51.000Z</time>
      </trkpt>
      <trkpt lat="59.0879702568" lon="30.0246477127">
        <time>2026-04-22T09:38:53.000Z</time>
      </trkpt>
      <trkpt lat="59.0879702568" lon="30.0246477127">
        <time>2026-04-22T09:38:56.000Z</time>
      </trkpt>
      <trkpt lat="59.0879702568" lon="30.0246477127">
        <time>2026-04-22T09:38:58.000Z</time>
      </trkpt>
      <trkpt lat="59.0879702568" lon="30.0246477127">
        <time>2026-04-22T09:39:01.000Z</time>
      </trkpt>
      <trkpt lat="59.0879702568" lon="30.0246477127">
        <time>2026-04-22T09:39:03.000Z</time>
      </trkpt>
      <trkpt lat="59.0879702568" lon="30.0246477127">
        <time>2026-04-22T09:39:06.000Z</time>
      </trkpt>
      <trkpt lat="59.0879702568" lon="30.0246477127">
        <time>2026-04-22T09:39:08.000Z</time>
      </trkpt>
      <trkpt lat="59.0879702568" lon="30.0246477127">
        <time>2026-04-22T09:39:11.000Z</time>
      </trkpt>
      <trkpt lat="59.0879702568" lon="30.0246477127">
        <time>2026-04-22T09:39:13.000Z</time>
      </trkpt>
      <trkpt lat="59.0879702568" lon="30.0246477127">
        <time>2026-04-22T09:39:16.000Z</time>
      </trkpt>
      <trkpt lat="59.0879702568" lon="30.0246477127">
        <time>2026-04-22T09:39:18.000Z</time>
      </trkpt>
      <trkpt lat="59.0879702568" lon="30.0246477127">
        <time>2026-04-22T09:39:21.000Z</time>
      </trkpt>
      <trkpt lat="59.0879702568" lon="30.0246477127">
        <time>2026-04-22T09:39:23.000Z</time>
      </trkpt>
      <trkpt lat="59.0879702568" lon="30.0246477127">
        <time>2026-04-22T09:39:26.000Z</time>
      </trkpt>
      <trkpt lat="59.0879702568" lon="30.0246477127">
        <time>2026-04-22T09:39:28.000Z</time>
      </trkpt>
      <trkpt lat="59.0879702568" lon="30.0246477127">
        <time>2026-04-22T09:39:31.000Z</time>
      </trkpt>
      <trkpt lat="59.0879917145" lon="30.0246477127">
        <time>2026-04-22T09:39:33.000Z</time>
      </trkpt>
      <trkpt lat="59.0879917145" lon="30.0246477127">
        <time>2026-04-22T09:39:36.000Z</time>
      </trkpt>
      <trkpt lat="59.0879917145" lon="30.0246477127">
        <time>2026-04-22T09:39:38.000Z</time>
      </trkpt>
      <trkpt lat="59.0879917145" lon="30.0246477127">
        <time>2026-04-22T09:39:41.000Z</time>
      </trkpt>
      <trkpt lat="59.0879917145" lon="30.0246477127">
        <time>2026-04-22T09:39:43.000Z</time>
      </trkpt>
      <trkpt lat="59.0879917145" lon="30.0246477127">
        <time>2026-04-22T09:39:46.000Z</time>
      </trkpt>
      <trkpt lat="59.0879917145" lon="30.0246477127">
        <time>2026-04-22T09:39:48.000Z</time>
      </trkpt>
      <trkpt lat="59.0879917145" lon="30.0246691704">
        <time>2026-04-22T09:39:51.000Z</time>
      </trkpt>
      <trkpt lat="59.0879917145" lon="30.0246691704">
        <time>2026-04-22T09:39:58.000Z</time>
      </trkpt>
      <trkpt lat="59.0879917145" lon="30.0246691704">
        <time>2026-04-22T09:40:01.000Z</time>
      </trkpt>
      <trkpt lat="59.0879917145" lon="30.0246691704">
        <time>2026-04-22T09:40:03.000Z</time>
      </trkpt>
      <trkpt lat="59.0879917145" lon="30.0246691704">
        <time>2026-04-22T09:40:06.000Z</time>
      </trkpt>
      <trkpt lat="59.0879917145" lon="30.0246691704">
        <time>2026-04-22T09:40:08.000Z</time>
      </trkpt>
      <trkpt lat="59.0879917145" lon="30.0246691704">
        <time>2026-04-22T09:40:11.000Z</time>
      </trkpt>
      <trkpt lat="59.0879917145" lon="30.0246691704">
        <time>2026-04-22T09:40:13.000Z</time>
      </trkpt>
      <trkpt lat="59.0879917145" lon="30.0246691704">
        <time>2026-04-22T09:40:16.000Z</time>
      </trkpt>
      <trkpt lat="59.0879917145" lon="30.0246691704">
        <time>2026-04-22T09:40:18.000Z</time>
      </trkpt>
      <trkpt lat="59.0879917145" lon="30.0246691704">
        <time>2026-04-22T09:40:21.000Z</time>
      </trkpt>
      <trkpt lat="59.0879917145" lon="30.0246691704">
        <time>2026-04-22T09:40:23.000Z</time>
      </trkpt>
      <trkpt lat="59.0879917145" lon="30.0246691704">
        <time>2026-04-22T09:40:26.000Z</time>
      </trkpt>
      <trkpt lat="59.0879917145" lon="30.0246691704">
        <time>2026-04-22T09:40:28.000Z</time>
      </trkpt>
      <trkpt lat="59.0879917145" lon="30.0246691704">
        <time>2026-04-22T09:40:31.000Z</time>
      </trkpt>
      <trkpt lat="59.0879917145" lon="30.0246691704">
        <time>2026-04-22T09:40:33.000Z</time>
      </trkpt>
      <trkpt lat="59.0879917145" lon="30.0246691704">
        <time>2026-04-22T09:40:36.000Z</time>
      </trkpt>
      <trkpt lat="59.0879917145" lon="30.0246691704">
        <time>2026-04-22T09:40:38.000Z</time>
      </trkpt>
      <trkpt lat="59.0879702568" lon="30.0246691704">
        <time>2026-04-22T09:40:41.000Z</time>
      </trkpt>
      <trkpt lat="59.0879702568" lon="30.0246691704">
        <time>2026-04-22T09:40:43.000Z</time>
      </trkpt>
      <trkpt lat="59.0879702568" lon="30.0246691704">
        <time>2026-04-22T09:40:46.000Z</time>
      </trkpt>
      <trkpt lat="59.0879702568" lon="30.0246691704">
        <time>2026-04-22T09:40:48.000Z</time>
      </trkpt>
      <trkpt lat="59.0879702568" lon="30.0246691704">
        <time>2026-04-22T09:40:51.000Z</time>
      </trkpt>
      <trkpt lat="59.0879702568" lon="30.0246691704">
        <time>2026-04-22T09:40:53.000Z</time>
      </trkpt>
      <trkpt lat="59.0879702568" lon="30.0246691704">
        <time>2026-04-22T09:40:56.000Z</time>
      </trkpt>
      <trkpt lat="59.0879702568" lon="30.0246691704">
        <time>2026-04-22T09:40:58.000Z</time>
      </trkpt>
      <trkpt lat="59.0879702568" lon="30.0246691704">
        <time>2026-04-22T09:41:01.000Z</time>
      </trkpt>
      <trkpt lat="59.0879702568" lon="30.0246691704">
        <time>2026-04-22T09:41:03.000Z</time>
      </trkpt>
      <trkpt lat="59.0879702568" lon="30.0246691704">
        <time>2026-04-22T09:41:06.000Z</time>
      </trkpt>
      <trkpt lat="59.0879702568" lon="30.0246691704">
        <time>2026-04-22T09:41:08.000Z</time>
      </trkpt>
      <trkpt lat="59.0879702568" lon="30.0246691704">
        <time>2026-04-22T09:41:11.000Z</time>
      </trkpt>
      <trkpt lat="59.0879702568" lon="30.0246691704">
        <time>2026-04-22T09:41:13.000Z</time>
      </trkpt>
      <trkpt lat="59.0879702568" lon="30.0246691704">
        <time>2026-04-22T09:41:16.000Z</time>
      </trkpt>
      <trkpt lat="59.0879702568" lon="30.0246691704">
        <time>2026-04-22T09:41:18.000Z</time>
      </trkpt>
      <trkpt lat="59.0879702568" lon="30.0246691704">
        <time>2026-04-22T09:41:21.000Z</time>
      </trkpt>
      <trkpt lat="59.0879702568" lon="30.0246691704">
        <time>2026-04-22T09:41:23.000Z</time>
      </trkpt>
      <trkpt lat="59.0879702568" lon="30.0246691704">
        <time>2026-04-22T09:41:26.000Z</time>
      </trkpt>
      <trkpt lat="59.0879702568" lon="30.0246691704">
        <time>2026-04-22T09:41:28.000Z</time>
      </trkpt>
      <trkpt lat="59.0879702568" lon="30.0246906281">
        <time>2026-04-22T09:41:31.000Z</time>
      </trkpt>
      <trkpt lat="59.0879702568" lon="30.0246906281">
        <time>2026-04-22T09:41:33.000Z</time>
      </trkpt>
      <trkpt lat="59.0879702568" lon="30.0246906281">
        <time>2026-04-22T09:41:36.000Z</time>
      </trkpt>
      <trkpt lat="59.0879702568" lon="30.0246906281">
        <time>2026-04-22T09:41:38.000Z</time>
      </trkpt>
      <trkpt lat="59.0879702568" lon="30.0246906281">
        <time>2026-04-22T09:41:41.000Z</time>
      </trkpt>
      <trkpt lat="59.0879702568" lon="30.0246906281">
        <time>2026-04-22T09:41:43.000Z</time>
      </trkpt>
      <trkpt lat="59.0879702568" lon="30.0246906281">
        <time>2026-04-22T09:41:46.000Z</time>
      </trkpt>
      <trkpt lat="59.0879702568" lon="30.0246906281">
        <time>2026-04-22T09:41:48.000Z</time>
      </trkpt>
      <trkpt lat="59.0879702568" lon="30.0246906281">
        <time>2026-04-22T09:41:51.000Z</time>
      </trkpt>
      <trkpt lat="59.0879702568" lon="30.0246906281">
        <time>2026-04-22T09:41:53.000Z</time>
      </trkpt>
      <trkpt lat="59.0879702568" lon="30.0246906281">
        <time>2026-04-22T09:41:56.000Z</time>
      </trkpt>
      <trkpt lat="59.0879702568" lon="30.0246906281">
        <time>2026-04-22T09:41:58.000Z</time>
      </trkpt>
      <trkpt lat="59.0879702568" lon="30.0246906281">
        <time>2026-04-22T09:42:01.000Z</time>
      </trkpt>
      <trkpt lat="59.0879702568" lon="30.0246906281">
        <time>2026-04-22T09:42:03.000Z</time>
      </trkpt>
      <trkpt lat="59.0879702568" lon="30.0246906281">
        <time>2026-04-22T09:42:06.000Z</time>
      </trkpt>
      <trkpt lat="59.0879702568" lon="30.0246906281">
        <time>2026-04-22T09:42:08.000Z</time>
      </trkpt>
      <trkpt lat="59.0879702568" lon="30.0246906281">
        <time>2026-04-22T09:42:11.000Z</time>
      </trkpt>
      <trkpt lat="59.0879702568" lon="30.0246906281">
        <time>2026-04-22T09:42:13.000Z</time>
      </trkpt>
      <trkpt lat="59.0879702568" lon="30.0246906281">
        <time>2026-04-22T09:42:16.000Z</time>
      </trkpt>
      <trkpt lat="59.0879702568" lon="30.0246906281">
        <time>2026-04-22T09:42:18.000Z</time>
      </trkpt>
      <trkpt lat="59.0879702568" lon="30.0246906281">
        <time>2026-04-22T09:42:21.000Z</time>
      </trkpt>
      <trkpt lat="59.0879702568" lon="30.0246906281">
        <time>2026-04-22T09:42:23.000Z</time>
      </trkpt>
      <trkpt lat="59.0879702568" lon="30.0246906281">
        <time>2026-04-22T09:42:26.000Z</time>
      </trkpt>
      <trkpt lat="59.0879702568" lon="30.0246906281">
        <time>2026-04-22T09:42:28.000Z</time>
      </trkpt>
      <trkpt lat="59.0879487991" lon="30.0247120857">
        <time>2026-04-22T09:42:31.000Z</time>
      </trkpt>
      <trkpt lat="59.0879273415" lon="30.0247764587">
        <time>2026-04-22T09:42:33.000Z</time>
      </trkpt>
      <trkpt lat="59.0879487991" lon="30.0249266624">
        <time>2026-04-22T09:42:36.000Z</time>
      </trkpt>
      <trkpt lat="59.0879058838" lon="30.0250339508">
        <time>2026-04-22T09:42:38.000Z</time>
      </trkpt>
      <trkpt lat="59.0878844261" lon="30.0251626968">
        <time>2026-04-22T09:42:41.000Z</time>
      </trkpt>
      <trkpt lat="59.0878844261" lon="30.0251412392">
        <time>2026-04-22T09:42:43.000Z</time>
      </trkpt>
      <trkpt lat="59.0878844261" lon="30.0251197815">
        <time>2026-04-22T09:42:46.000Z</time>
      </trkpt>
      <trkpt lat="59.0878629684" lon="30.0250339508">
        <time>2026-04-22T09:42:48.000Z</time>
      </trkpt>
      <trkpt lat="59.0877985954" lon="30.0249266624">
        <time>2026-04-22T09:42:51.000Z</time>
      </trkpt>
      <trkpt lat="59.0877771378" lon="30.0248837471">
        <time>2026-04-22T09:42:53.000Z</time>
      </trkpt>
      <trkpt lat="59.0877771378" lon="30.0247979164">
        <time>2026-04-22T09:42:56.000Z</time>
      </trkpt>
      <trkpt lat="59.0877342224" lon="30.0248408318">
        <time>2026-04-22T09:42:58.000Z</time>
      </trkpt>
      <trkpt lat="59.0876913071" lon="30.0248837471">
        <time>2026-04-22T09:43:01.000Z</time>
      </trkpt>
      <trkpt lat="59.0876483917" lon="30.0249052048">
        <time>2026-04-22T09:43:03.000Z</time>
      </trkpt>
      <trkpt lat="59.0876269341" lon="30.0249266624">
        <time>2026-04-22T09:43:06.000Z</time>
      </trkpt>
      <trkpt lat="59.0876269341" lon="30.0249266624">
        <time>2026-04-22T09:43:08.000Z</time>
      </trkpt>
      <trkpt lat="59.0876054764" lon="30.0249266624">
        <time>2026-04-22T09:43:11.000Z</time>
      </trkpt>
      <trkpt lat="59.087562561" lon="30.0249266624">
        <time>2026-04-22T09:43:13.000Z</time>
      </trkpt>
      <trkpt lat="59.0875196457" lon="30.0249481201">
        <time>2026-04-22T09:43:16.000Z</time>
      </trkpt>
      <trkpt lat="59.087498188" lon="30.0249266624">
        <time>2026-04-22T09:43:18.000Z</time>
      </trkpt>
      <trkpt lat="59.087498188" lon="30.0248622894">
        <time>2026-04-22T09:43:21.000Z</time>
      </trkpt>
      <trkpt lat="59.087498188" lon="30.0248837471">
        <time>2026-04-22T09:43:23.000Z</time>
      </trkpt>
      <trkpt lat="59.087498188" lon="30.0249481201">
        <time>2026-04-22T09:43:26.000Z</time>
      </trkpt>
      <trkpt lat="59.0874767303" lon="30.0250554085">
        <time>2026-04-22T09:43:28.000Z</time>
      </trkpt>
      <trkpt lat="59.0874123573" lon="30.0252056122">
        <time>2026-04-22T09:43:31.000Z</time>
      </trkpt>
      <trkpt lat="59.0873908997" lon="30.0252485275">
        <time>2026-04-22T09:43:33.000Z</time>
      </trkpt>
      <trkpt lat="59.0873908997" lon="30.0252270699">
        <time>2026-04-22T09:43:36.000Z</time>
      </trkpt>
      <trkpt lat="59.0873908997" lon="30.0252270699">
        <time>2026-04-22T09:43:38.000Z</time>
      </trkpt>
      <trkpt lat="59.0873908997" lon="30.0251626968">
        <time>2026-04-22T09:43:41.000Z</time>
      </trkpt>
      <trkpt lat="59.0873479843" lon="30.0251412392">
        <time>2026-04-22T09:43:43.000Z</time>
      </trkpt>
      <trkpt lat="59.087305069" lon="30.0250983238">
        <time>2026-04-22T09:43:46.000Z</time>
      </trkpt>
      <trkpt lat="59.0872621536" lon="30.0250983238">
        <time>2026-04-22T09:43:48.000Z</time>
      </trkpt>
      <trkpt lat="59.0871763229" lon="30.0250983238">
        <time>2026-04-22T09:43:51.000Z</time>
      </trkpt>
      <trkpt lat="59.0871548653" lon="30.0251626968">
        <time>2026-04-22T09:43:53.000Z</time>
      </trkpt>
      <trkpt lat="59.0871548653" lon="30.0251841545">
        <time>2026-04-22T09:43:56.000Z</time>
      </trkpt>
      <trkpt lat="59.0871548653" lon="30.0251841545">
        <time>2026-04-22T09:43:58.000Z</time>
      </trkpt>
      <trkpt lat="59.0871548653" lon="30.0251841545">
        <time>2026-04-22T09:44:01.000Z</time>
      </trkpt>
      <trkpt lat="59.0871548653" lon="30.0251841545">
        <time>2026-04-22T09:44:03.000Z</time>
      </trkpt>
      <trkpt lat="59.0871548653" lon="30.0251841545">
        <time>2026-04-22T09:44:06.000Z</time>
      </trkpt>
      <trkpt lat="59.0871548653" lon="30.0251841545">
        <time>2026-04-22T09:44:08.000Z</time>
      </trkpt>
      <trkpt lat="59.0871548653" lon="30.0251841545">
        <time>2026-04-22T09:44:11.000Z</time>
      </trkpt>
      <trkpt lat="59.0871548653" lon="30.0251197815">
        <time>2026-04-22T09:44:13.000Z</time>
      </trkpt>
      <trkpt lat="59.0871548653" lon="30.0250124931">
        <time>2026-04-22T09:44:16.000Z</time>
      </trkpt>
      <trkpt lat="59.0871548653" lon="30.0249695778">
        <time>2026-04-22T09:44:18.000Z</time>
      </trkpt>
      <trkpt lat="59.0871548653" lon="30.0249695778">
        <time>2026-04-22T09:44:21.000Z</time>
      </trkpt>
      <trkpt lat="59.0871548653" lon="30.0250554085">
        <time>2026-04-22T09:44:23.000Z</time>
      </trkpt>
      <trkpt lat="59.0871334076" lon="30.0252056122">
        <time>2026-04-22T09:44:26.000Z</time>
      </trkpt>
      <trkpt lat="59.0871119499" lon="30.0253558159">
        <time>2026-04-22T09:44:28.000Z</time>
      </trkpt>
      <trkpt lat="59.0870904922" lon="30.0254631042">
        <time>2026-04-22T09:44:31.000Z</time>
      </trkpt>
      <trkpt lat="59.0870690346" lon="30.0255918503">
        <time>2026-04-22T09:44:33.000Z</time>
      </trkpt>
      <trkpt lat="59.0870475769" lon="30.025613308">
        <time>2026-04-22T09:44:36.000Z</time>
      </trkpt>
      <trkpt lat="59.0870475769" lon="30.025613308">
        <time>2026-04-22T09:44:38.000Z</time>
      </trkpt>
      <trkpt lat="59.0870261192" lon="30.025613308">
        <time>2026-04-22T09:44:41.000Z</time>
      </trkpt>
      <trkpt lat="59.0869402885" lon="30.0255274773">
        <time>2026-04-22T09:44:43.000Z</time>
      </trkpt>
      <trkpt lat="59.0868759155" lon="30.0254845619">
        <time>2026-04-22T09:44:46.000Z</time>
      </trkpt>
      <trkpt lat="59.0868544579" lon="30.0255274773">
        <time>2026-04-22T09:44:48.000Z</time>
      </trkpt>
      <trkpt lat="59.0868330002" lon="30.0255489349">
        <time>2026-04-22T09:44:51.000Z</time>
      </trkpt>
      <trkpt lat="59.0868330002" lon="30.0255274773">
        <time>2026-04-22T09:44:53.000Z</time>
      </trkpt>
      <trkpt lat="59.0868544579" lon="30.0254416466">
        <time>2026-04-22T09:44:56.000Z</time>
      </trkpt>
      <trkpt lat="59.0868544579" lon="30.0253772736">
        <time>2026-04-22T09:44:58.000Z</time>
      </trkpt>
      <trkpt lat="59.0868330002" lon="30.0253343582">
        <time>2026-04-22T09:45:01.000Z</time>
      </trkpt>
      <trkpt lat="59.0868115425" lon="30.0253129005">
        <time>2026-04-22T09:45:03.000Z</time>
      </trkpt>
      <trkpt lat="59.0868115425" lon="30.0253129005">
        <time>2026-04-22T09:45:06.000Z</time>
      </trkpt>
      <trkpt lat="59.0867900848" lon="30.0252699852">
        <time>2026-04-22T09:45:08.000Z</time>
      </trkpt>
      <trkpt lat="59.0867471695" lon="30.0252270699">
        <time>2026-04-22T09:45:11.000Z</time>
      </trkpt>
      <trkpt lat="59.0867471695" lon="30.0252270699">
        <time>2026-04-22T09:45:13.000Z</time>
      </trkpt>
      <trkpt lat="59.0867257118" lon="30.0252485275">
        <time>2026-04-22T09:45:16.000Z</time>
      </trkpt>
      <trkpt lat="59.0866613388" lon="30.0252699852">
        <time>2026-04-22T09:45:18.000Z</time>
      </trkpt>
      <trkpt lat="59.0866184235" lon="30.0253129005">
        <time>2026-04-22T09:45:21.000Z</time>
      </trkpt>
      <trkpt lat="59.0865969658" lon="30.0253772736">
        <time>2026-04-22T09:45:23.000Z</time>
      </trkpt>
      <trkpt lat="59.0865755081" lon="30.0254201889">
        <time>2026-04-22T09:45:26.000Z</time>
      </trkpt>
      <trkpt lat="59.0865540504" lon="30.0254631042">
        <time>2026-04-22T09:45:28.000Z</time>
      </trkpt>
      <trkpt lat="59.0865325928" lon="30.0254631042">
        <time>2026-04-22T09:45:31.000Z</time>
      </trkpt>
      <trkpt lat="59.0865325928" lon="30.0254631042">
        <time>2026-04-22T09:45:33.000Z</time>
      </trkpt>
      <trkpt lat="59.0865325928" lon="30.0254631042">
        <time>2026-04-22T09:45:36.000Z</time>
      </trkpt>
      <trkpt lat="59.0865325928" lon="30.0255274773">
        <time>2026-04-22T09:45:38.000Z</time>
      </trkpt>
      <trkpt lat="59.0865111351" lon="30.025613308">
        <time>2026-04-22T09:45:41.000Z</time>
      </trkpt>
      <trkpt lat="59.0864896774" lon="30.0256347656">
        <time>2026-04-22T09:45:43.000Z</time>
      </trkpt>
      <trkpt lat="59.0864467621" lon="30.0256991386">
        <time>2026-04-22T09:45:46.000Z</time>
      </trkpt>
      <trkpt lat="59.0864253044" lon="30.0257635117">
        <time>2026-04-22T09:45:48.000Z</time>
      </trkpt>
      <trkpt lat="59.0864253044" lon="30.0257849693">
        <time>2026-04-22T09:45:51.000Z</time>
      </trkpt>
      <trkpt lat="59.0864253044" lon="30.0257849693">
        <time>2026-04-22T09:45:53.000Z</time>
      </trkpt>
      <trkpt lat="59.0863823891" lon="30.0258493423">
        <time>2026-04-22T09:45:56.000Z</time>
      </trkpt>
      <trkpt lat="59.0863609314" lon="30.0258922577">
        <time>2026-04-22T09:45:58.000Z</time>
      </trkpt>
      <trkpt lat="59.0863394737" lon="30.0258493423">
        <time>2026-04-22T09:46:01.000Z</time>
      </trkpt>
      <trkpt lat="59.0863180161" lon="30.0258493423">
        <time>2026-04-22T09:46:03.000Z</time>
      </trkpt>
      <trkpt lat="59.0863180161" lon="30.0258278847">
        <time>2026-04-22T09:46:06.000Z</time>
      </trkpt>
      <trkpt lat="59.0862965584" lon="30.025742054">
        <time>2026-04-22T09:46:08.000Z</time>
      </trkpt>
      <trkpt lat="59.0862751007" lon="30.025742054">
        <time>2026-04-22T09:46:11.000Z</time>
      </trkpt>
      <trkpt lat="59.086253643" lon="30.0256991386">
        <time>2026-04-22T09:46:13.000Z</time>
      </trkpt>
      <trkpt lat="59.086253643" lon="30.0256991386">
        <time>2026-04-22T09:46:16.000Z</time>
      </trkpt>
      <trkpt lat="59.086253643" lon="30.025677681">
        <time>2026-04-22T09:46:18.000Z</time>
      </trkpt>
      <trkpt lat="59.086253643" lon="30.0256991386">
        <time>2026-04-22T09:46:21.000Z</time>
      </trkpt>
      <trkpt lat="59.086253643" lon="30.0256991386">
        <time>2026-04-22T09:46:23.000Z</time>
      </trkpt>
      <trkpt lat="59.086253643" lon="30.025677681">
        <time>2026-04-22T09:46:26.000Z</time>
      </trkpt>
      <trkpt lat="59.086253643" lon="30.0255918503">
        <time>2026-04-22T09:46:28.000Z</time>
      </trkpt>
      <trkpt lat="59.0862321854" lon="30.0255703926">
        <time>2026-04-22T09:46:31.000Z</time>
      </trkpt>
      <trkpt lat="59.08618927" lon="30.0255060196">
        <time>2026-04-22T09:46:33.000Z</time>
      </trkpt>
      <trkpt lat="59.0861678123" lon="30.0254631042">
        <time>2026-04-22T09:46:36.000Z</time>
      </trkpt>
      <trkpt lat="59.0861678123" lon="30.0253772736">
        <time>2026-04-22T09:46:38.000Z</time>
      </trkpt>
      <trkpt lat="59.0861463547" lon="30.0253558159">
        <time>2026-04-22T09:46:41.000Z</time>
      </trkpt>
      <trkpt lat="59.0861463547" lon="30.0253558159">
        <time>2026-04-22T09:46:43.000Z</time>
      </trkpt>
      <trkpt lat="59.0861463547" lon="30.0253772736">
        <time>2026-04-22T09:46:46.000Z</time>
      </trkpt>
      <trkpt lat="59.086124897" lon="30.0253772736">
        <time>2026-04-22T09:46:48.000Z</time>
      </trkpt>
      <trkpt lat="59.0861034393" lon="30.0254416466">
        <time>2026-04-22T09:46:51.000Z</time>
      </trkpt>
      <trkpt lat="59.0860819817" lon="30.0254201889">
        <time>2026-04-22T09:46:53.000Z</time>
      </trkpt>
      <trkpt lat="59.086060524" lon="30.0253558159">
        <time>2026-04-22T09:46:56.000Z</time>
      </trkpt>
      <trkpt lat="59.086060524" lon="30.0253558159">
        <time>2026-04-22T09:46:58.000Z</time>
      </trkpt>
      <trkpt lat="59.0860390663" lon="30.0254416466">
        <time>2026-04-22T09:47:01.000Z</time>
      </trkpt>
      <trkpt lat="59.085996151" lon="30.0255489349">
        <time>2026-04-22T09:47:03.000Z</time>
      </trkpt>
      <trkpt lat="59.0859746933" lon="30.0256347656">
        <time>2026-04-22T09:47:06.000Z</time>
      </trkpt>
      <trkpt lat="59.0859532356" lon="30.0257205963">
        <time>2026-04-22T09:47:08.000Z</time>
      </trkpt>
      <trkpt lat="59.0858888626" lon="30.025806427">
        <time>2026-04-22T09:47:11.000Z</time>
      </trkpt>
      <trkpt lat="59.0858459473" lon="30.0258278847">
        <time>2026-04-22T09:47:13.000Z</time>
      </trkpt>
      <trkpt lat="59.0858244896" lon="30.0258493423">
        <time>2026-04-22T09:47:16.000Z</time>
      </trkpt>
      <trkpt lat="59.0858244896" lon="30.0258493423">
        <time>2026-04-22T09:47:18.000Z</time>
      </trkpt>
      <trkpt lat="59.0857815742" lon="30.0258493423">
        <time>2026-04-22T09:47:21.000Z</time>
      </trkpt>
      <trkpt lat="59.0857386589" lon="30.0258922577">
        <time>2026-04-22T09:47:23.000Z</time>
      </trkpt>
      <trkpt lat="59.0856957436" lon="30.0259137154">
        <time>2026-04-22T09:47:26.000Z</time>
      </trkpt>
      <trkpt lat="59.0856528282" lon="30.0259137154">
        <time>2026-04-22T09:47:28.000Z</time>
      </trkpt>
      <trkpt lat="59.0856313705" lon="30.025935173">
        <time>2026-04-22T09:47:31.000Z</time>
      </trkpt>
      <trkpt lat="59.0856313705" lon="30.0259137154">
        <time>2026-04-22T09:47:33.000Z</time>
      </trkpt>
      <trkpt lat="59.0856099129" lon="30.0258708">
        <time>2026-04-22T09:47:36.000Z</time>
      </trkpt>
      <trkpt lat="59.0855884552" lon="30.025806427">
        <time>2026-04-22T09:47:38.000Z</time>
      </trkpt>
      <trkpt lat="59.0855455399" lon="30.025806427">
        <time>2026-04-22T09:47:41.000Z</time>
      </trkpt>
      <trkpt lat="59.0855026245" lon="30.0257635117">
        <time>2026-04-22T09:47:43.000Z</time>
      </trkpt>
      <trkpt lat="59.0854597092" lon="30.0256991386">
        <time>2026-04-22T09:47:46.000Z</time>
      </trkpt>
      <trkpt lat="59.0854382515" lon="30.0256991386">
        <time>2026-04-22T09:47:48.000Z</time>
      </trkpt>
      <trkpt lat="59.0854167938" lon="30.025742054">
        <time>2026-04-22T09:47:51.000Z</time>
      </trkpt>
      <trkpt lat="59.0854167938" lon="30.0258278847">
        <time>2026-04-22T09:47:53.000Z</time>
      </trkpt>
      <trkpt lat="59.0853738785" lon="30.0259137154">
        <time>2026-04-22T09:47:56.000Z</time>
      </trkpt>
      <trkpt lat="59.0853524208" lon="30.025935173">
        <time>2026-04-22T09:47:58.000Z</time>
      </trkpt>
      <trkpt lat="59.0853309631" lon="30.0259566307">
        <time>2026-04-22T09:48:01.000Z</time>
      </trkpt>
      <trkpt lat="59.0853309631" lon="30.0259566307">
        <time>2026-04-22T09:48:03.000Z</time>
      </trkpt>
      <trkpt lat="59.0853309631" lon="30.0259566307">
        <time>2026-04-22T09:48:06.000Z</time>
      </trkpt>
      <trkpt lat="59.0853309631" lon="30.0259566307">
        <time>2026-04-22T09:48:08.000Z</time>
      </trkpt>
      <trkpt lat="59.0853095055" lon="30.0259566307">
        <time>2026-04-22T09:48:11.000Z</time>
      </trkpt>
      <trkpt lat="59.0853309631" lon="30.0259566307">
        <time>2026-04-22T09:48:13.000Z</time>
      </trkpt>
      <trkpt lat="59.0853309631" lon="30.0259566307">
        <time>2026-04-22T09:48:16.000Z</time>
      </trkpt>
      <trkpt lat="59.0853309631" lon="30.0259566307">
        <time>2026-04-22T09:48:18.000Z</time>
      </trkpt>
      <trkpt lat="59.0853309631" lon="30.0259566307">
        <time>2026-04-22T09:48:21.000Z</time>
      </trkpt>
      <trkpt lat="59.0853309631" lon="30.0259566307">
        <time>2026-04-22T09:48:23.000Z</time>
      </trkpt>
      <trkpt lat="59.0853309631" lon="30.0259566307">
        <time>2026-04-22T09:48:26.000Z</time>
      </trkpt>
      <trkpt lat="59.0853309631" lon="30.0259566307">
        <time>2026-04-22T09:48:28.000Z</time>
      </trkpt>
      <trkpt lat="59.0853309631" lon="30.0259566307">
        <time>2026-04-22T09:48:31.000Z</time>
      </trkpt>
      <trkpt lat="59.0853309631" lon="30.0259566307">
        <time>2026-04-22T09:48:33.000Z</time>
      </trkpt>
      <trkpt lat="59.0853309631" lon="30.0259566307">
        <time>2026-04-22T09:48:36.000Z</time>
      </trkpt>
      <trkpt lat="59.0853309631" lon="30.0259566307">
        <time>2026-04-22T09:48:38.000Z</time>
      </trkpt>
      <trkpt lat="59.0853309631" lon="30.0259566307">
        <time>2026-04-22T09:48:41.000Z</time>
      </trkpt>
      <trkpt lat="59.0853095055" lon="30.0259780884">
        <time>2026-04-22T09:48:43.000Z</time>
      </trkpt>
      <trkpt lat="59.0852451324" lon="30.0260210037">
        <time>2026-04-22T09:48:46.000Z</time>
      </trkpt>
      <trkpt lat="59.0852236748" lon="30.0260424614">
        <time>2026-04-22T09:48:48.000Z</time>
      </trkpt>
      <trkpt lat="59.0852236748" lon="30.0260639191">
        <time>2026-04-22T09:48:51.000Z</time>
      </trkpt>
      <trkpt lat="59.0852236748" lon="30.0260639191">
        <time>2026-04-22T09:48:53.000Z</time>
      </trkpt>
      <trkpt lat="59.0852022171" lon="30.0260424614">
        <time>2026-04-22T09:48:56.000Z</time>
      </trkpt>
      <trkpt lat="59.0852022171" lon="30.0260424614">
        <time>2026-04-22T09:48:58.000Z</time>
      </trkpt>
      <trkpt lat="59.0851593018" lon="30.0260424614">
        <time>2026-04-22T09:49:01.000Z</time>
      </trkpt>
      <trkpt lat="59.0851378441" lon="30.0260424614">
        <time>2026-04-22T09:49:03.000Z</time>
      </trkpt>
      <trkpt lat="59.0850949287" lon="30.0260424614">
        <time>2026-04-22T09:49:06.000Z</time>
      </trkpt>
      <trkpt lat="59.0850520134" lon="30.0259780884">
        <time>2026-04-22T09:49:08.000Z</time>
      </trkpt>
      <trkpt lat="59.0850734711" lon="30.0259995461">
        <time>2026-04-22T09:49:11.000Z</time>
      </trkpt>
      <trkpt lat="59.0850949287" lon="30.0260639191">
        <time>2026-04-22T09:49:13.000Z</time>
      </trkpt>
      <trkpt lat="59.0850734711" lon="30.0260853767">
        <time>2026-04-22T09:49:16.000Z</time>
      </trkpt>
      <trkpt lat="59.0850520134" lon="30.0261497498">
        <time>2026-04-22T09:49:18.000Z</time>
      </trkpt>
      <trkpt lat="59.0850090981" lon="30.0262141228">
        <time>2026-04-22T09:49:21.000Z</time>
      </trkpt>
      <trkpt lat="59.0849661827" lon="30.0262570381">
        <time>2026-04-22T09:49:23.000Z</time>
      </trkpt>
      <trkpt lat="59.084944725" lon="30.0262784958">
        <time>2026-04-22T09:49:26.000Z</time>
      </trkpt>
      <trkpt lat="59.0849232674" lon="30.0263214111">
        <time>2026-04-22T09:49:28.000Z</time>
      </trkpt>
      <trkpt lat="59.0849018097" lon="30.0262570381">
        <time>2026-04-22T09:49:31.000Z</time>
      </trkpt>
      <trkpt lat="59.084880352" lon="30.0262355804">
        <time>2026-04-22T09:49:33.000Z</time>
      </trkpt>
      <trkpt lat="59.0848588943" lon="30.0262355804">
        <time>2026-04-22T09:49:36.000Z</time>
      </trkpt>
      <trkpt lat="59.0848374367" lon="30.0262570381">
        <time>2026-04-22T09:49:38.000Z</time>
      </trkpt>
      <trkpt lat="59.0848374367" lon="30.0262570381">
        <time>2026-04-22T09:49:41.000Z</time>
      </trkpt>
      <trkpt lat="59.0848374367" lon="30.0262570381">
        <time>2026-04-22T09:49:43.000Z</time>
      </trkpt>
      <trkpt lat="59.084815979" lon="30.0262355804">
        <time>2026-04-22T09:49:46.000Z</time>
      </trkpt>
      <trkpt lat="59.084815979" lon="30.0262355804">
        <time>2026-04-22T09:49:48.000Z</time>
      </trkpt>
      <trkpt lat="59.084815979" lon="30.0262999535">
        <time>2026-04-22T09:49:51.000Z</time>
      </trkpt>
      <trkpt lat="59.084815979" lon="30.0263643265">
        <time>2026-04-22T09:49:53.000Z</time>
      </trkpt>
      <trkpt lat="59.0847945213" lon="30.0264286995">
        <time>2026-04-22T09:49:56.000Z</time>
      </trkpt>
      <trkpt lat="59.084751606" lon="30.0264501572">
        <time>2026-04-22T09:49:58.000Z</time>
      </trkpt>
      <trkpt lat="59.084751606" lon="30.0264716148">
        <time>2026-04-22T09:50:01.000Z</time>
      </trkpt>
      <trkpt lat="59.0847730637" lon="30.0264716148">
        <time>2026-04-22T09:50:03.000Z</time>
      </trkpt>
      <trkpt lat="59.084751606" lon="30.0264930725">
        <time>2026-04-22T09:50:06.000Z</time>
      </trkpt>
      <trkpt lat="59.0847301483" lon="30.0264501572">
        <time>2026-04-22T09:50:08.000Z</time>
      </trkpt>
      <trkpt lat="59.0846657753" lon="30.0263857841">
        <time>2026-04-22T09:50:11.000Z</time>
      </trkpt>
      <trkpt lat="59.0846014023" lon="30.0263643265">
        <time>2026-04-22T09:50:13.000Z</time>
      </trkpt>
      <trkpt lat="59.0845799446" lon="30.0263428688">
        <time>2026-04-22T09:50:16.000Z</time>
      </trkpt>
      <trkpt lat="59.0845584869" lon="30.0263214111">
        <time>2026-04-22T09:50:18.000Z</time>
      </trkpt>
      <trkpt lat="59.0845584869" lon="30.0263857841">
        <time>2026-04-22T09:50:21.000Z</time>
      </trkpt>
      <trkpt lat="59.0845584869" lon="30.0264501572">
        <time>2026-04-22T09:50:23.000Z</time>
      </trkpt>
      <trkpt lat="59.0845370293" lon="30.0264930725">
        <time>2026-04-22T09:50:26.000Z</time>
      </trkpt>
      <trkpt lat="59.0845155716" lon="30.0265145302">
        <time>2026-04-22T09:50:28.000Z</time>
      </trkpt>
      <trkpt lat="59.0844511986" lon="30.0265574455">
        <time>2026-04-22T09:50:31.000Z</time>
      </trkpt>
      <trkpt lat="59.0844511986" lon="30.0266003609">
        <time>2026-04-22T09:50:33.000Z</time>
      </trkpt>
      <trkpt lat="59.0844082832" lon="30.0266218185">
        <time>2026-04-22T09:50:36.000Z</time>
      </trkpt>
      <trkpt lat="59.0843653679" lon="30.0266003609">
        <time>2026-04-22T09:50:38.000Z</time>
      </trkpt>
      <trkpt lat="59.0843439102" lon="30.0265359879">
        <time>2026-04-22T09:50:41.000Z</time>
      </trkpt>
      <trkpt lat="59.0843653679" lon="30.0264930725">
        <time>2026-04-22T09:50:43.000Z</time>
      </trkpt>
      <trkpt lat="59.0843868256" lon="30.0264930725">
        <time>2026-04-22T09:50:46.000Z</time>
      </trkpt>
      <trkpt lat="59.0843653679" lon="30.0264930725">
        <time>2026-04-22T09:50:48.000Z</time>
      </trkpt>
      <trkpt lat="59.0843224525" lon="30.0264716148">
        <time>2026-04-22T09:50:51.000Z</time>
      </trkpt>
      <trkpt lat="59.0842795372" lon="30.0264286995">
        <time>2026-04-22T09:50:53.000Z</time>
      </trkpt>
      <trkpt lat="59.0842366219" lon="30.0264286995">
        <time>2026-04-22T09:50:56.000Z</time>
      </trkpt>
      <trkpt lat="59.0842151642" lon="30.0264716148">
        <time>2026-04-22T09:50:58.000Z</time>
      </trkpt>
      <trkpt lat="59.0841937065" lon="30.0265145302">
        <time>2026-04-22T09:51:01.000Z</time>
      </trkpt>
      <trkpt lat="59.0841937065" lon="30.0265789032">
        <time>2026-04-22T09:51:03.000Z</time>
      </trkpt>
      <trkpt lat="59.0841937065" lon="30.0265359879">
        <time>2026-04-22T09:51:06.000Z</time>
      </trkpt>
      <trkpt lat="59.0841722488" lon="30.0264930725">
        <time>2026-04-22T09:51:08.000Z</time>
      </trkpt>
      <trkpt lat="59.0841507912" lon="30.0264286995">
        <time>2026-04-22T09:51:11.000Z</time>
      </trkpt>
      <trkpt lat="59.0841507912" lon="30.0263428688">
        <time>2026-04-22T09:51:13.000Z</time>
      </trkpt>
      <trkpt lat="59.0841293335" lon="30.0262999535">
        <time>2026-04-22T09:51:16.000Z</time>
      </trkpt>
      <trkpt lat="59.0841507912" lon="30.0262784958">
        <time>2026-04-22T09:51:18.000Z</time>
      </trkpt>
      <trkpt lat="59.0841937065" lon="30.0262141228">
        <time>2026-04-22T09:51:21.000Z</time>
      </trkpt>
      <trkpt lat="59.0841937065" lon="30.0262141228">
        <time>2026-04-22T09:51:23.000Z</time>
      </trkpt>
      <trkpt lat="59.0841722488" lon="30.0261282921">
        <time>2026-04-22T09:51:26.000Z</time>
      </trkpt>
      <trkpt lat="59.0841937065" lon="30.0260210037">
        <time>2026-04-22T09:51:28.000Z</time>
      </trkpt>
      <trkpt lat="59.0842366219" lon="30.0259780884">
        <time>2026-04-22T09:51:31.000Z</time>
      </trkpt>
      <trkpt lat="59.0842795372" lon="30.0259566307">
        <time>2026-04-22T09:51:33.000Z</time>
      </trkpt>
      <trkpt lat="59.0842795372" lon="30.0259137154">
        <time>2026-04-22T09:51:36.000Z</time>
      </trkpt>
      <trkpt lat="59.0842795372" lon="30.0258278847">
        <time>2026-04-22T09:51:38.000Z</time>
      </trkpt>
      <trkpt lat="59.0843009949" lon="30.0257635117">
        <time>2026-04-22T09:51:41.000Z</time>
      </trkpt>
      <trkpt lat="59.0842795372" lon="30.025742054">
        <time>2026-04-22T09:51:43.000Z</time>
      </trkpt>
      <trkpt lat="59.0842580795" lon="30.0257205963">
        <time>2026-04-22T09:51:46.000Z</time>
      </trkpt>
      <trkpt lat="59.0842151642" lon="30.0257205963">
        <time>2026-04-22T09:51:48.000Z</time>
      </trkpt>
      <trkpt lat="59.0842151642" lon="30.0256991386">
        <time>2026-04-22T09:51:51.000Z</time>
      </trkpt>
      <trkpt lat="59.0842151642" lon="30.0256562233">
        <time>2026-04-22T09:51:53.000Z</time>
      </trkpt>
      <trkpt lat="59.0841937065" lon="30.025677681">
        <time>2026-04-22T09:51:56.000Z</time>
      </trkpt>
      <trkpt lat="59.0841507912" lon="30.025677681">
        <time>2026-04-22T09:51:58.000Z</time>
      </trkpt>
      <trkpt lat="59.0841078758" lon="30.0256347656">
        <time>2026-04-22T09:52:01.000Z</time>
      </trkpt>
      <trkpt lat="59.0841078758" lon="30.0255703926">
        <time>2026-04-22T09:52:03.000Z</time>
      </trkpt>
      <trkpt lat="59.0840864182" lon="30.0255489349">
        <time>2026-04-22T09:52:06.000Z</time>
      </trkpt>
      <trkpt lat="59.0840864182" lon="30.0255274773">
        <time>2026-04-22T09:52:08.000Z</time>
      </trkpt>
      <trkpt lat="59.0840864182" lon="30.0255274773">
        <time>2026-04-22T09:52:11.000Z</time>
      </trkpt>
      <trkpt lat="59.0840864182" lon="30.0255274773">
        <time>2026-04-22T09:52:13.000Z</time>
      </trkpt>
      <trkpt lat="59.0840864182" lon="30.0255274773">
        <time>2026-04-22T09:52:16.000Z</time>
      </trkpt>
      <trkpt lat="59.0840864182" lon="30.0255274773">
        <time>2026-04-22T09:52:18.000Z</time>
      </trkpt>
      <trkpt lat="59.0840864182" lon="30.0255274773">
        <time>2026-04-22T09:52:21.000Z</time>
      </trkpt>
      <trkpt lat="59.0840649605" lon="30.0255060196">
        <time>2026-04-22T09:52:23.000Z</time>
      </trkpt>
      <trkpt lat="59.0840435028" lon="30.0253343582">
        <time>2026-04-22T09:52:26.000Z</time>
      </trkpt>
      <trkpt lat="59.0840220451" lon="30.0252699852">
        <time>2026-04-22T09:52:28.000Z</time>
      </trkpt>
      <trkpt lat="59.0839791298" lon="30.0252485275">
        <time>2026-04-22T09:52:31.000Z</time>
      </trkpt>
      <trkpt lat="59.0839576721" lon="30.0252485275">
        <time>2026-04-22T09:52:33.000Z</time>
      </trkpt>
      <trkpt lat="59.0839362144" lon="30.0252056122">
        <time>2026-04-22T09:52:36.000Z</time>
      </trkpt>
      <trkpt lat="59.0839147568" lon="30.0252056122">
        <time>2026-04-22T09:52:38.000Z</time>
      </trkpt>
      <trkpt lat="59.0839147568" lon="30.0252056122">
        <time>2026-04-22T09:52:41.000Z</time>
      </trkpt>
      <trkpt lat="59.0839147568" lon="30.0252056122">
        <time>2026-04-22T09:52:43.000Z</time>
      </trkpt>
      <trkpt lat="59.0839147568" lon="30.0252056122">
        <time>2026-04-22T09:52:46.000Z</time>
      </trkpt>
      <trkpt lat="59.0839147568" lon="30.0252056122">
        <time>2026-04-22T09:52:48.000Z</time>
      </trkpt>
      <trkpt lat="59.0839147568" lon="30.0252056122">
        <time>2026-04-22T09:52:51.000Z</time>
      </trkpt>
      <trkpt lat="59.0839147568" lon="30.0252056122">
        <time>2026-04-22T09:52:53.000Z</time>
      </trkpt>
      <trkpt lat="59.0839147568" lon="30.0252056122">
        <time>2026-04-22T09:52:56.000Z</time>
      </trkpt>
      <trkpt lat="59.0839147568" lon="30.0252056122">
        <time>2026-04-22T09:52:58.000Z</time>
      </trkpt>
      <trkpt lat="59.0839147568" lon="30.0252056122">
        <time>2026-04-22T09:53:01.000Z</time>
      </trkpt>
      <trkpt lat="59.0839147568" lon="30.0252056122">
        <time>2026-04-22T09:53:03.000Z</time>
      </trkpt>
      <trkpt lat="59.0839147568" lon="30.0252056122">
        <time>2026-04-22T09:53:06.000Z</time>
      </trkpt>
      <trkpt lat="59.0839147568" lon="30.0252056122">
        <time>2026-04-22T09:53:08.000Z</time>
      </trkpt>
      <trkpt lat="59.0839147568" lon="30.0252056122">
        <time>2026-04-22T09:53:11.000Z</time>
      </trkpt>
      <trkpt lat="59.0839147568" lon="30.0252056122">
        <time>2026-04-22T09:53:13.000Z</time>
      </trkpt>
      <trkpt lat="59.0839791298" lon="30.0252056122">
        <time>2026-04-22T09:53:16.000Z</time>
      </trkpt>
      <trkpt lat="59.0840005875" lon="30.0251626968">
        <time>2026-04-22T09:53:18.000Z</time>
      </trkpt>
      <trkpt lat="59.0840649605" lon="30.0251626968">
        <time>2026-04-22T09:53:21.000Z</time>
      </trkpt>
      <trkpt lat="59.0841078758" lon="30.0251412392">
        <time>2026-04-22T09:53:23.000Z</time>
      </trkpt>
      <trkpt lat="59.0841507912" lon="30.0250768661">
        <time>2026-04-22T09:53:26.000Z</time>
      </trkpt>
      <trkpt lat="59.0841722488" lon="30.0250554085">
        <time>2026-04-22T09:53:28.000Z</time>
      </trkpt>
      <trkpt lat="59.0841937065" lon="30.0250768661">
        <time>2026-04-22T09:53:31.000Z</time>
      </trkpt>
      <trkpt lat="59.0842366219" lon="30.0250983238">
        <time>2026-04-22T09:53:33.000Z</time>
      </trkpt>
      <trkpt lat="59.0842580795" lon="30.0250768661">
        <time>2026-04-22T09:53:36.000Z</time>
      </trkpt>
      <trkpt lat="59.0842366219" lon="30.0250768661">
        <time>2026-04-22T09:53:38.000Z</time>
      </trkpt>
      <trkpt lat="59.0842580795" lon="30.0250339508">
        <time>2026-04-22T09:53:41.000Z</time>
      </trkpt>
      <trkpt lat="59.0842580795" lon="30.0250339508">
        <time>2026-04-22T09:53:43.000Z</time>
      </trkpt>
      <trkpt lat="59.0842366219" lon="30.0250554085">
        <time>2026-04-22T09:53:46.000Z</time>
      </trkpt>
      <trkpt lat="59.0842795372" lon="30.0250983238">
        <time>2026-04-22T09:53:48.000Z</time>
      </trkpt>
      <trkpt lat="59.0843009949" lon="30.0250983238">
        <time>2026-04-22T09:53:51.000Z</time>
      </trkpt>
      <trkpt lat="59.0843224525" lon="30.0250983238">
        <time>2026-04-22T09:53:53.000Z</time>
      </trkpt>
      <trkpt lat="59.0843224525" lon="30.0250554085">
        <time>2026-04-22T09:53:56.000Z</time>
      </trkpt>
      <trkpt lat="59.0843439102" lon="30.0250124931">
        <time>2026-04-22T09:53:58.000Z</time>
      </trkpt>
      <trkpt lat="59.0843868256" lon="30.0249695778">
        <time>2026-04-22T09:54:01.000Z</time>
      </trkpt>
      <trkpt lat="59.0844082832" lon="30.0249481201">
        <time>2026-04-22T09:54:03.000Z</time>
      </trkpt>
      <trkpt lat="59.0844082832" lon="30.0249481201">
        <time>2026-04-22T09:54:06.000Z</time>
      </trkpt>
      <trkpt lat="59.0844082832" lon="30.0249481201">
        <time>2026-04-22T09:54:08.000Z</time>
      </trkpt>
      <trkpt lat="59.0844082832" lon="30.0249481201">
        <time>2026-04-22T09:54:11.000Z</time>
      </trkpt>
      <trkpt lat="59.0844297409" lon="30.0249481201">
        <time>2026-04-22T09:54:13.000Z</time>
      </trkpt>
      <trkpt lat="59.0844726562" lon="30.0249266624">
        <time>2026-04-22T09:54:16.000Z</time>
      </trkpt>
      <trkpt lat="59.0844726562" lon="30.0248622894">
        <time>2026-04-22T09:54:18.000Z</time>
      </trkpt>
      <trkpt lat="59.0844726562" lon="30.0247764587">
        <time>2026-04-22T09:54:21.000Z</time>
      </trkpt>
      <trkpt lat="59.0844726562" lon="30.0247550011">
        <time>2026-04-22T09:54:23.000Z</time>
      </trkpt>
      <trkpt lat="59.0844726562" lon="30.0247550011">
        <time>2026-04-22T09:54:26.000Z</time>
      </trkpt>
      <trkpt lat="59.0844511986" lon="30.0247550011">
        <time>2026-04-22T09:54:28.000Z</time>
      </trkpt>
      <trkpt lat="59.0844082832" lon="30.0247979164">
        <time>2026-04-22T09:54:31.000Z</time>
      </trkpt>
      <trkpt lat="59.0843868256" lon="30.0248622894">
        <time>2026-04-22T09:54:33.000Z</time>
      </trkpt>
      <trkpt lat="59.0843868256" lon="30.0248622894">
        <time>2026-04-22T09:54:36.000Z</time>
      </trkpt>
      <trkpt lat="59.0843868256" lon="30.0248622894">
        <time>2026-04-22T09:54:38.000Z</time>
      </trkpt>
      <trkpt lat="59.0843868256" lon="30.0248408318">
        <time>2026-04-22T09:54:41.000Z</time>
      </trkpt>
      <trkpt lat="59.0844082832" lon="30.0247979164">
        <time>2026-04-22T09:54:43.000Z</time>
      </trkpt>
      <trkpt lat="59.0844511986" lon="30.0247335434">
        <time>2026-04-22T09:54:46.000Z</time>
      </trkpt>
      <trkpt lat="59.0844941139" lon="30.0247335434">
        <time>2026-04-22T09:54:48.000Z</time>
      </trkpt>
      <trkpt lat="59.0845155716" lon="30.0247764587">
        <time>2026-04-22T09:54:51.000Z</time>
      </trkpt>
      <trkpt lat="59.0845155716" lon="30.0247979164">
        <time>2026-04-22T09:54:53.000Z</time>
      </trkpt>
      <trkpt lat="59.0845370293" lon="30.0247335434">
        <time>2026-04-22T09:54:56.000Z</time>
      </trkpt>
      <trkpt lat="59.0845584869" lon="30.0246691704">
        <time>2026-04-22T09:54:58.000Z</time>
      </trkpt>
      <trkpt lat="59.08462286" lon="30.024626255">
        <time>2026-04-22T09:55:01.000Z</time>
      </trkpt>
      <trkpt lat="59.0846443176" lon="30.0246047974">
        <time>2026-04-22T09:55:03.000Z</time>
      </trkpt>
      <trkpt lat="59.0846657753" lon="30.0246906281">
        <time>2026-04-22T09:55:08.000Z</time>
      </trkpt>
      <trkpt lat="59.0846443176" lon="30.0246691704">
        <time>2026-04-22T09:55:11.000Z</time>
      </trkpt>
      <trkpt lat="59.0846657753" lon="30.0246906281">
        <time>2026-04-22T09:55:13.000Z</time>
      </trkpt>
      <trkpt lat="59.084687233" lon="30.0247120857">
        <time>2026-04-22T09:55:16.000Z</time>
      </trkpt>
      <trkpt lat="59.0847301483" lon="30.0247120857">
        <time>2026-04-22T09:55:18.000Z</time>
      </trkpt>
      <trkpt lat="59.084751606" lon="30.0247120857">
        <time>2026-04-22T09:55:21.000Z</time>
      </trkpt>
      <trkpt lat="59.084751606" lon="30.0247120857">
        <time>2026-04-22T09:55:23.000Z</time>
      </trkpt>
      <trkpt lat="59.084751606" lon="30.0246906281">
        <time>2026-04-22T09:55:26.000Z</time>
      </trkpt>
      <trkpt lat="59.084751606" lon="30.0246906281">
        <time>2026-04-22T09:55:28.000Z</time>
      </trkpt>
      <trkpt lat="59.084751606" lon="30.0246906281">
        <time>2026-04-22T09:55:31.000Z</time>
      </trkpt>
      <trkpt lat="59.084751606" lon="30.0247120857">
        <time>2026-04-22T09:55:33.000Z</time>
      </trkpt>
      <trkpt lat="59.084751606" lon="30.0247120857">
        <time>2026-04-22T09:55:36.000Z</time>
      </trkpt>
      <trkpt lat="59.084751606" lon="30.0247120857">
        <time>2026-04-22T09:55:38.000Z</time>
      </trkpt>
      <trkpt lat="59.084751606" lon="30.0247120857">
        <time>2026-04-22T09:55:41.000Z</time>
      </trkpt>
      <trkpt lat="59.084751606" lon="30.0246691704">
        <time>2026-04-22T09:55:43.000Z</time>
      </trkpt>
      <trkpt lat="59.0847730637" lon="30.024561882">
        <time>2026-04-22T09:55:46.000Z</time>
      </trkpt>
      <trkpt lat="59.0847730637" lon="30.0245189667">
        <time>2026-04-22T09:55:48.000Z</time>
      </trkpt>
      <trkpt lat="59.0847730637" lon="30.024497509">
        <time>2026-04-22T09:55:51.000Z</time>
      </trkpt>
      <trkpt lat="59.0847730637" lon="30.0245404243">
        <time>2026-04-22T09:55:53.000Z</time>
      </trkpt>
      <trkpt lat="59.0847730637" lon="30.0246477127">
        <time>2026-04-22T09:55:56.000Z</time>
      </trkpt>
      <trkpt lat="59.0847945213" lon="30.0246906281">
        <time>2026-04-22T09:55:58.000Z</time>
      </trkpt>
      <trkpt lat="59.084815979" lon="30.0246906281">
        <time>2026-04-22T09:56:01.000Z</time>
      </trkpt>
      <trkpt lat="59.084815979" lon="30.0246906281">
        <time>2026-04-22T09:56:03.000Z</time>
      </trkpt>
      <trkpt lat="59.084815979" lon="30.0246906281">
        <time>2026-04-22T09:56:06.000Z</time>
      </trkpt>
      <trkpt lat="59.084815979" lon="30.0246906281">
        <time>2026-04-22T09:56:08.000Z</time>
      </trkpt>
      <trkpt lat="59.084815979" lon="30.0246906281">
        <time>2026-04-22T09:56:11.000Z</time>
      </trkpt>
      <trkpt lat="59.084815979" lon="30.0247120857">
        <time>2026-04-22T09:56:13.000Z</time>
      </trkpt>
      <trkpt lat="59.0848588943" lon="30.0247120857">
        <time>2026-04-22T09:56:16.000Z</time>
      </trkpt>
      <trkpt lat="59.0848588943" lon="30.0246691704">
        <time>2026-04-22T09:56:18.000Z</time>
      </trkpt>
      <trkpt lat="59.0848588943" lon="30.024626255">
        <time>2026-04-22T09:56:21.000Z</time>
      </trkpt>
      <trkpt lat="59.084880352" lon="30.0245189667">
        <time>2026-04-22T09:56:23.000Z</time>
      </trkpt>
      <trkpt lat="59.0849232674" lon="30.024368763">
        <time>2026-04-22T09:56:26.000Z</time>
      </trkpt>
      <trkpt lat="59.084944725" lon="30.02430439">
        <time>2026-04-22T09:56:28.000Z</time>
      </trkpt>
      <trkpt lat="59.0849661827" lon="30.0243258476">
        <time>2026-04-22T09:56:31.000Z</time>
      </trkpt>
      <trkpt lat="59.0850090981" lon="30.02430439">
        <time>2026-04-22T09:56:33.000Z</time>
      </trkpt>
      <trkpt lat="59.0850305557" lon="30.0242400169">
        <time>2026-04-22T09:56:36.000Z</time>
      </trkpt>
      <trkpt lat="59.0850520134" lon="30.0242400169">
        <time>2026-04-22T09:56:38.000Z</time>
      </trkpt>
      <trkpt lat="59.0850734711" lon="30.0242829323">
        <time>2026-04-22T09:56:41.000Z</time>
      </trkpt>
      <trkpt lat="59.0851163864" lon="30.024368763">
        <time>2026-04-22T09:56:43.000Z</time>
      </trkpt>
      <trkpt lat="59.0851163864" lon="30.024497509">
        <time>2026-04-22T09:56:46.000Z</time>
      </trkpt>
      <trkpt lat="59.0851163864" lon="30.0245404243">
        <time>2026-04-22T09:56:48.000Z</time>
      </trkpt>
      <trkpt lat="59.0851378441" lon="30.0244760513">
        <time>2026-04-22T09:56:51.000Z</time>
      </trkpt>
      <trkpt lat="59.0851378441" lon="30.0243902206">
        <time>2026-04-22T09:56:53.000Z</time>
      </trkpt>
      <trkpt lat="59.0851163864" lon="30.0242614746">
        <time>2026-04-22T09:56:56.000Z</time>
      </trkpt>
      <trkpt lat="59.0850949287" lon="30.0241541862">
        <time>2026-04-22T09:56:58.000Z</time>
      </trkpt>
      <trkpt lat="59.0850520134" lon="30.0241112709">
        <time>2026-04-22T09:57:01.000Z</time>
      </trkpt>
      <trkpt lat="59.0850520134" lon="30.0241112709">
        <time>2026-04-22T09:57:03.000Z</time>
      </trkpt>
      <trkpt lat="59.0850734711" lon="30.0242614746">
        <time>2026-04-22T09:57:08.000Z</time>
      </trkpt>
      <trkpt lat="59.0850949287" lon="30.02430439">
        <time>2026-04-22T09:57:11.000Z</time>
      </trkpt>
      <trkpt lat="59.0851163864" lon="30.0243902206">
        <time>2026-04-22T09:57:13.000Z</time>
      </trkpt>
      <trkpt lat="59.0851378441" lon="30.024497509">
        <time>2026-04-22T09:57:16.000Z</time>
      </trkpt>
      <trkpt lat="59.0851593018" lon="30.0245404243">
        <time>2026-04-22T09:57:18.000Z</time>
      </trkpt>
      <trkpt lat="59.0851807594" lon="30.024561882">
        <time>2026-04-22T09:57:21.000Z</time>
      </trkpt>
      <trkpt lat="59.0852022171" lon="30.0246047974">
        <time>2026-04-22T09:57:23.000Z</time>
      </trkpt>
      <trkpt lat="59.0852022171" lon="30.024561882">
        <time>2026-04-22T09:57:26.000Z</time>
      </trkpt>
      <trkpt lat="59.0852451324" lon="30.0245404243">
        <time>2026-04-22T09:57:28.000Z</time>
      </trkpt>
      <trkpt lat="59.0852665901" lon="30.0245833397">
        <time>2026-04-22T09:57:31.000Z</time>
      </trkpt>
      <trkpt lat="59.0852665901" lon="30.0246477127">
        <time>2026-04-22T09:57:33.000Z</time>
      </trkpt>
      <trkpt lat="59.0853095055" lon="30.0246906281">
        <time>2026-04-22T09:57:36.000Z</time>
      </trkpt>
      <trkpt lat="59.0853095055" lon="30.0247335434">
        <time>2026-04-22T09:57:38.000Z</time>
      </trkpt>
      <trkpt lat="59.0853095055" lon="30.0247550011">
        <time>2026-04-22T09:57:41.000Z</time>
      </trkpt>
      <trkpt lat="59.0853309631" lon="30.0247120857">
        <time>2026-04-22T09:57:43.000Z</time>
      </trkpt>
      <trkpt lat="59.0853953362" lon="30.0246477127">
        <time>2026-04-22T09:57:46.000Z</time>
      </trkpt>
      <trkpt lat="59.0854167938" lon="30.024561882">
        <time>2026-04-22T09:57:48.000Z</time>
      </trkpt>
      <trkpt lat="59.0854167938" lon="30.0245404243">
        <time>2026-04-22T09:57:51.000Z</time>
      </trkpt>
      <trkpt lat="59.0854382515" lon="30.0245189667">
        <time>2026-04-22T09:57:53.000Z</time>
      </trkpt>
      <trkpt lat="59.0854811668" lon="30.0244116783">
        <time>2026-04-22T09:57:56.000Z</time>
      </trkpt>
      <trkpt lat="59.0855240822" lon="30.0243258476">
        <time>2026-04-22T09:57:58.000Z</time>
      </trkpt>
      <trkpt lat="59.0855669975" lon="30.0242400169">
        <time>2026-04-22T09:58:01.000Z</time>
      </trkpt>
      <trkpt lat="59.0855884552" lon="30.0241971016">
        <time>2026-04-22T09:58:03.000Z</time>
      </trkpt>
      <trkpt lat="59.0856313705" lon="30.0242400169">
        <time>2026-04-22T09:58:06.000Z</time>
      </trkpt>
      <trkpt lat="59.0856742859" lon="30.0242614746">
        <time>2026-04-22T09:58:08.000Z</time>
      </trkpt>
      <trkpt lat="59.0856957436" lon="30.0242829323">
        <time>2026-04-22T09:58:11.000Z</time>
      </trkpt>
      <trkpt lat="59.0856957436" lon="30.0242829323">
        <time>2026-04-22T09:58:13.000Z</time>
      </trkpt>
      <trkpt lat="59.0857386589" lon="30.02430439">
        <time>2026-04-22T09:58:18.000Z</time>
      </trkpt>
      <trkpt lat="59.0857815742" lon="30.0242829323">
        <time>2026-04-22T09:58:21.000Z</time>
      </trkpt>
      <trkpt lat="59.0857815742" lon="30.0242400169">
        <time>2026-04-22T09:58:23.000Z</time>
      </trkpt>
      <trkpt lat="59.0858244896" lon="30.0241971016">
        <time>2026-04-22T09:58:26.000Z</time>
      </trkpt>
      <trkpt lat="59.0858674049" lon="30.0242400169">
        <time>2026-04-22T09:58:28.000Z</time>
      </trkpt>
      <trkpt lat="59.0858888626" lon="30.0242829323">
        <time>2026-04-22T09:58:31.000Z</time>
      </trkpt>
      <trkpt lat="59.0859103203" lon="30.0242829323">
        <time>2026-04-22T09:58:33.000Z</time>
      </trkpt>
      <trkpt lat="59.085931778" lon="30.0242400169">
        <time>2026-04-22T09:58:36.000Z</time>
      </trkpt>
      <trkpt lat="59.085931778" lon="30.0241971016">
        <time>2026-04-22T09:58:38.000Z</time>
      </trkpt>
      <trkpt lat="59.085931778" lon="30.0241112709">
        <time>2026-04-22T09:58:41.000Z</time>
      </trkpt>
      <trkpt lat="59.085931778" lon="30.0240683556">
        <time>2026-04-22T09:58:43.000Z</time>
      </trkpt>
      <trkpt lat="59.0859532356" lon="30.0240254402">
        <time>2026-04-22T09:58:46.000Z</time>
      </trkpt>
      <trkpt lat="59.085996151" lon="30.0239396095">
        <time>2026-04-22T09:58:48.000Z</time>
      </trkpt>
      <trkpt lat="59.0860176086" lon="30.0239610672">
        <time>2026-04-22T09:58:51.000Z</time>
      </trkpt>
      <trkpt lat="59.0860390663" lon="30.0239825249">
        <time>2026-04-22T09:58:53.000Z</time>
      </trkpt>
      <trkpt lat="59.0860390663" lon="30.0239825249">
        <time>2026-04-22T09:58:56.000Z</time>
      </trkpt>
      <trkpt lat="59.0860390663" lon="30.0239825249">
        <time>2026-04-22T09:58:58.000Z</time>
      </trkpt>
      <trkpt lat="59.086060524" lon="30.0240039825">
        <time>2026-04-22T09:59:01.000Z</time>
      </trkpt>
      <trkpt lat="59.0860390663" lon="30.0240468979">
        <time>2026-04-22T09:59:03.000Z</time>
      </trkpt>
      <trkpt lat="59.0860819817" lon="30.0241112709">
        <time>2026-04-22T09:59:06.000Z</time>
      </trkpt>
      <trkpt lat="59.0861034393" lon="30.0241541862">
        <time>2026-04-22T09:59:08.000Z</time>
      </trkpt>
      <trkpt lat="59.086124897" lon="30.0241971016">
        <time>2026-04-22T09:59:11.000Z</time>
      </trkpt>
      <trkpt lat="59.0861678123" lon="30.0242185593">
        <time>2026-04-22T09:59:13.000Z</time>
      </trkpt>
      <trkpt lat="59.08618927" lon="30.0241971016">
        <time>2026-04-22T09:59:16.000Z</time>
      </trkpt>
      <trkpt lat="59.0862107277" lon="30.0241756439">
        <time>2026-04-22T09:59:18.000Z</time>
      </trkpt>
      <trkpt lat="59.0862321854" lon="30.0241327286">
        <time>2026-04-22T09:59:21.000Z</time>
      </trkpt>
      <trkpt lat="59.0862751007" lon="30.0241327286">
        <time>2026-04-22T09:59:23.000Z</time>
      </trkpt>
      <trkpt lat="59.0862965584" lon="30.0240898132">
        <time>2026-04-22T09:59:26.000Z</time>
      </trkpt>
      <trkpt lat="59.0862965584" lon="30.0240683556">
        <time>2026-04-22T09:59:28.000Z</time>
      </trkpt>
      <trkpt lat="59.0862965584" lon="30.0240683556">
        <time>2026-04-22T09:59:31.000Z</time>
      </trkpt>
      <trkpt lat="59.0862965584" lon="30.0240683556">
        <time>2026-04-22T09:59:33.000Z</time>
      </trkpt>
      <trkpt lat="59.0862965584" lon="30.0240683556">
        <time>2026-04-22T09:59:36.000Z</time>
      </trkpt>
      <trkpt lat="59.0862965584" lon="30.0240683556">
        <time>2026-04-22T09:59:38.000Z</time>
      </trkpt>
      <trkpt lat="59.0862965584" lon="30.0240683556">
        <time>2026-04-22T09:59:41.000Z</time>
      </trkpt>
      <trkpt lat="59.0862965584" lon="30.0240683556">
        <time>2026-04-22T09:59:43.000Z</time>
      </trkpt>
      <trkpt lat="59.0862965584" lon="30.0240683556">
        <time>2026-04-22T09:59:46.000Z</time>
      </trkpt>
      <trkpt lat="59.0862965584" lon="30.0240683556">
        <time>2026-04-22T09:59:48.000Z</time>
      </trkpt>
      <trkpt lat="59.0862965584" lon="30.0240683556">
        <time>2026-04-22T09:59:51.000Z</time>
      </trkpt>
      <trkpt lat="59.0862965584" lon="30.0240683556">
        <time>2026-04-22T09:59:53.000Z</time>
      </trkpt>
      <trkpt lat="59.0862965584" lon="30.0240683556">
        <time>2026-04-22T09:59:56.000Z</time>
      </trkpt>
      <trkpt lat="59.0862965584" lon="30.0240683556">
        <time>2026-04-22T09:59:58.000Z</time>
      </trkpt>
      <trkpt lat="59.0862965584" lon="30.0240683556">
        <time>2026-04-22T10:00:01.000Z</time>
      </trkpt>
      <trkpt lat="59.0862965584" lon="30.0240683556">
        <time>2026-04-22T10:00:03.000Z</time>
      </trkpt>
      <trkpt lat="59.0862965584" lon="30.0240683556">
        <time>2026-04-22T10:00:06.000Z</time>
      </trkpt>
      <trkpt lat="59.0862965584" lon="30.0240683556">
        <time>2026-04-22T10:00:08.000Z</time>
      </trkpt>
      <trkpt lat="59.0862965584" lon="30.0240683556">
        <time>2026-04-22T10:00:11.000Z</time>
      </trkpt>
      <trkpt lat="59.0862965584" lon="30.0240683556">
        <time>2026-04-22T10:00:13.000Z</time>
      </trkpt>
      <trkpt lat="59.0862965584" lon="30.0240683556">
        <time>2026-04-22T10:00:16.000Z</time>
      </trkpt>
      <trkpt lat="59.0862965584" lon="30.0240683556">
        <time>2026-04-22T10:00:18.000Z</time>
      </trkpt>
      <trkpt lat="59.0862965584" lon="30.0240683556">
        <time>2026-04-22T10:00:21.000Z</time>
      </trkpt>
      <trkpt lat="59.0862965584" lon="30.0240683556">
        <time>2026-04-22T10:00:23.000Z</time>
      </trkpt>
      <trkpt lat="59.0862965584" lon="30.0240468979">
        <time>2026-04-22T10:00:26.000Z</time>
      </trkpt>
      <trkpt lat="59.0863394737" lon="30.0240039825">
        <time>2026-04-22T10:00:28.000Z</time>
      </trkpt>
      <trkpt lat="59.0863823891" lon="30.0239825249">
        <time>2026-04-22T10:00:31.000Z</time>
      </trkpt>
      <trkpt lat="59.0863823891" lon="30.0239610672">
        <time>2026-04-22T10:00:33.000Z</time>
      </trkpt>
      <trkpt lat="59.0864038467" lon="30.0238966942">
        <time>2026-04-22T10:00:36.000Z</time>
      </trkpt>
      <trkpt lat="59.0864038467" lon="30.0238966942">
        <time>2026-04-22T10:00:38.000Z</time>
      </trkpt>
      <trkpt lat="59.0864467621" lon="30.0238752365">
        <time>2026-04-22T10:00:41.000Z</time>
      </trkpt>
      <trkpt lat="59.0864682198" lon="30.0238966942">
        <time>2026-04-22T10:00:43.000Z</time>
      </trkpt>
      <trkpt lat="59.0865111351" lon="30.0238966942">
        <time>2026-04-22T10:00:46.000Z</time>
      </trkpt>
      <trkpt lat="59.0865325928" lon="30.0238752365">
        <time>2026-04-22T10:00:48.000Z</time>
      </trkpt>
      <trkpt lat="59.0865755081" lon="30.0238752365">
        <time>2026-04-22T10:00:51.000Z</time>
      </trkpt>
      <trkpt lat="59.0865969658" lon="30.0238966942">
        <time>2026-04-22T10:00:53.000Z</time>
      </trkpt>
      <trkpt lat="59.0866184235" lon="30.0239181519">
        <time>2026-04-22T10:00:56.000Z</time>
      </trkpt>
      <trkpt lat="59.0866613388" lon="30.0239610672">
        <time>2026-04-22T10:00:58.000Z</time>
      </trkpt>
      <trkpt lat="59.0866827965" lon="30.0239825249">
        <time>2026-04-22T10:01:01.000Z</time>
      </trkpt>
      <trkpt lat="59.0867042542" lon="30.0240039825">
        <time>2026-04-22T10:01:03.000Z</time>
      </trkpt>
      <trkpt lat="59.0867257118" lon="30.0240039825">
        <time>2026-04-22T10:01:06.000Z</time>
      </trkpt>
      <trkpt lat="59.0867257118" lon="30.0239610672">
        <time>2026-04-22T10:01:08.000Z</time>
      </trkpt>
      <trkpt lat="59.0867257118" lon="30.0238966942">
        <time>2026-04-22T10:01:11.000Z</time>
      </trkpt>
      <trkpt lat="59.0867471695" lon="30.0238537788">
        <time>2026-04-22T10:01:13.000Z</time>
      </trkpt>
      <trkpt lat="59.0867471695" lon="30.0238108635">
        <time>2026-04-22T10:01:16.000Z</time>
      </trkpt>
      <trkpt lat="59.0867686272" lon="30.0237464905">
        <time>2026-04-22T10:01:18.000Z</time>
      </trkpt>
      <trkpt lat="59.0867900848" lon="30.0236821175">
        <time>2026-04-22T10:01:21.000Z</time>
      </trkpt>
      <trkpt lat="59.0868115425" lon="30.0236606598">
        <time>2026-04-22T10:01:23.000Z</time>
      </trkpt>
      <trkpt lat="59.0868544579" lon="30.0236177444">
        <time>2026-04-22T10:01:26.000Z</time>
      </trkpt>
      <trkpt lat="59.0868544579" lon="30.0235748291">
        <time>2026-04-22T10:01:28.000Z</time>
      </trkpt>
      <trkpt lat="59.0868544579" lon="30.0235962868">
        <time>2026-04-22T10:01:31.000Z</time>
      </trkpt>
      <trkpt lat="59.0868544579" lon="30.0235962868">
        <time>2026-04-22T10:01:33.000Z</time>
      </trkpt>
      <trkpt lat="59.0868544579" lon="30.0235962868">
        <time>2026-04-22T10:01:36.000Z</time>
      </trkpt>
      <trkpt lat="59.0868544579" lon="30.0235962868">
        <time>2026-04-22T10:01:38.000Z</time>
      </trkpt>
      <trkpt lat="59.0868544579" lon="30.0235962868">
        <time>2026-04-22T10:01:41.000Z</time>
      </trkpt>
      <trkpt lat="59.0868330002" lon="30.0236392021">
        <time>2026-04-22T10:01:43.000Z</time>
      </trkpt>
      <trkpt lat="59.0868544579" lon="30.0237035751">
        <time>2026-04-22T10:01:46.000Z</time>
      </trkpt>
      <trkpt lat="59.0868759155" lon="30.0236821175">
        <time>2026-04-22T10:01:48.000Z</time>
      </trkpt>
      <trkpt lat="59.0868759155" lon="30.0236821175">
        <time>2026-04-22T10:01:51.000Z</time>
      </trkpt>
      <trkpt lat="59.0868973732" lon="30.0237250328">
        <time>2026-04-22T10:01:53.000Z</time>
      </trkpt>
      <trkpt lat="59.0869188309" lon="30.0237464905">
        <time>2026-04-22T10:01:56.000Z</time>
      </trkpt>
      <trkpt lat="59.0869402885" lon="30.0237464905">
        <time>2026-04-22T10:01:58.000Z</time>
      </trkpt>
      <trkpt lat="59.0869402885" lon="30.0237464905">
        <time>2026-04-22T10:02:01.000Z</time>
      </trkpt>
      <trkpt lat="59.0869402885" lon="30.0237464905">
        <time>2026-04-22T10:02:03.000Z</time>
      </trkpt>
      <trkpt lat="59.0869188309" lon="30.0237894058">
        <time>2026-04-22T10:02:06.000Z</time>
      </trkpt>
      <trkpt lat="59.0868759155" lon="30.0237679482">
        <time>2026-04-22T10:02:08.000Z</time>
      </trkpt>
      <trkpt lat="59.0868759155" lon="30.0238108635">
        <time>2026-04-22T10:02:11.000Z</time>
      </trkpt>
      <trkpt lat="59.0868973732" lon="30.0238108635">
        <time>2026-04-22T10:02:13.000Z</time>
      </trkpt>
      <trkpt lat="59.0869188309" lon="30.0238537788">
        <time>2026-04-22T10:02:16.000Z</time>
      </trkpt>
      <trkpt lat="59.0869188309" lon="30.0238752365">
        <time>2026-04-22T10:02:18.000Z</time>
      </trkpt>
      <trkpt lat="59.0869402885" lon="30.0238966942">
        <time>2026-04-22T10:02:21.000Z</time>
      </trkpt>
      <trkpt lat="59.0869402885" lon="30.0239396095">
        <time>2026-04-22T10:02:23.000Z</time>
      </trkpt>
      <trkpt lat="59.0869617462" lon="30.0239610672">
        <time>2026-04-22T10:02:26.000Z</time>
      </trkpt>
      <trkpt lat="59.0870046616" lon="30.0240039825">
        <time>2026-04-22T10:02:28.000Z</time>
      </trkpt>
      <trkpt lat="59.0870475769" lon="30.0240898132">
        <time>2026-04-22T10:02:31.000Z</time>
      </trkpt>
      <trkpt lat="59.0870690346" lon="30.0241541862">
        <time>2026-04-22T10:02:33.000Z</time>
      </trkpt>
      <trkpt lat="59.0870904922" lon="30.0241756439">
        <time>2026-04-22T10:02:36.000Z</time>
      </trkpt>
      <trkpt lat="59.0871334076" lon="30.0241541862">
        <time>2026-04-22T10:02:38.000Z</time>
      </trkpt>
      <trkpt lat="59.0871548653" lon="30.0241756439">
        <time>2026-04-22T10:02:41.000Z</time>
      </trkpt>
      <trkpt lat="59.0871977806" lon="30.0241756439">
        <time>2026-04-22T10:02:43.000Z</time>
      </trkpt>
      <trkpt lat="59.087240696" lon="30.0241541862">
        <time>2026-04-22T10:02:46.000Z</time>
      </trkpt>
      <trkpt lat="59.0872621536" lon="30.0241327286">
        <time>2026-04-22T10:02:48.000Z</time>
      </trkpt>
      <trkpt lat="59.087305069" lon="30.0240898132">
        <time>2026-04-22T10:02:51.000Z</time>
      </trkpt>
      <trkpt lat="59.0873265266" lon="30.0240039825">
        <time>2026-04-22T10:02:53.000Z</time>
      </trkpt>
      <trkpt lat="59.087305069" lon="30.0238537788">
        <time>2026-04-22T10:02:56.000Z</time>
      </trkpt>
      <trkpt lat="59.0872836113" lon="30.0237250328">
        <time>2026-04-22T10:02:58.000Z</time>
      </trkpt>
      <trkpt lat="59.0872621536" lon="30.0236177444">
        <time>2026-04-22T10:03:01.000Z</time>
      </trkpt>
      <trkpt lat="59.0872621536" lon="30.0235533714">
        <time>2026-04-22T10:03:03.000Z</time>
      </trkpt>
      <trkpt lat="59.087240696" lon="30.0234675407">
        <time>2026-04-22T10:03:06.000Z</time>
      </trkpt>
      <trkpt lat="59.0872192383" lon="30.0234675407">
        <time>2026-04-22T10:03:08.000Z</time>
      </trkpt>
      <trkpt lat="59.0872192383" lon="30.0234675407">
        <time>2026-04-22T10:03:11.000Z</time>
      </trkpt>
      <trkpt lat="59.0871977806" lon="30.0234460831">
        <time>2026-04-22T10:03:13.000Z</time>
      </trkpt>
      <trkpt lat="59.0871977806" lon="30.0234675407">
        <time>2026-04-22T10:03:16.000Z</time>
      </trkpt>
      <trkpt lat="59.0871977806" lon="30.0234675407">
        <time>2026-04-22T10:03:18.000Z</time>
      </trkpt>
      <trkpt lat="59.0871977806" lon="30.0235104561">
        <time>2026-04-22T10:03:21.000Z</time>
      </trkpt>
      <trkpt lat="59.0872192383" lon="30.0235319138">
        <time>2026-04-22T10:03:23.000Z</time>
      </trkpt>
      <trkpt lat="59.0872192383" lon="30.0235533714">
        <time>2026-04-22T10:03:26.000Z</time>
      </trkpt>
      <trkpt lat="59.0872192383" lon="30.0235748291">
        <time>2026-04-22T10:03:28.000Z</time>
      </trkpt>
      <trkpt lat="59.0872192383" lon="30.0235533714">
        <time>2026-04-22T10:03:31.000Z</time>
      </trkpt>
      <trkpt lat="59.087240696" lon="30.0235104561">
        <time>2026-04-22T10:03:33.000Z</time>
      </trkpt>
      <trkpt lat="59.0872621536" lon="30.0235104561">
        <time>2026-04-22T10:03:36.000Z</time>
      </trkpt>
      <trkpt lat="59.0872836113" lon="30.0235104561">
        <time>2026-04-22T10:03:38.000Z</time>
      </trkpt>
      <trkpt lat="59.087305069" lon="30.0235104561">
        <time>2026-04-22T10:03:41.000Z</time>
      </trkpt>
      <trkpt lat="59.0873265266" lon="30.0234889984">
        <time>2026-04-22T10:03:43.000Z</time>
      </trkpt>
      <trkpt lat="59.0873908997" lon="30.0234460831">
        <time>2026-04-22T10:03:46.000Z</time>
      </trkpt>
      <trkpt lat="59.087433815" lon="30.0234675407">
        <time>2026-04-22T10:03:48.000Z</time>
      </trkpt>
      <trkpt lat="59.0874123573" lon="30.0234031677">
        <time>2026-04-22T10:03:51.000Z</time>
      </trkpt>
      <trkpt lat="59.087433815" lon="30.0233387947">
        <time>2026-04-22T10:03:53.000Z</time>
      </trkpt>
      <trkpt lat="59.087433815" lon="30.0233602524">
        <time>2026-04-22T10:03:56.000Z</time>
      </trkpt>
      <trkpt lat="59.087433815" lon="30.0233602524">
        <time>2026-04-22T10:03:58.000Z</time>
      </trkpt>
      <trkpt lat="59.087433815" lon="30.0233817101">
        <time>2026-04-22T10:04:01.000Z</time>
      </trkpt>
      <trkpt lat="59.0874767303" lon="30.0234246254">
        <time>2026-04-22T10:04:03.000Z</time>
      </trkpt>
      <trkpt lat="59.0875196457" lon="30.0234460831">
        <time>2026-04-22T10:04:06.000Z</time>
      </trkpt>
      <trkpt lat="59.0875411034" lon="30.0234031677">
        <time>2026-04-22T10:04:08.000Z</time>
      </trkpt>
      <trkpt lat="59.087562561" lon="30.0234031677">
        <time>2026-04-22T10:04:11.000Z</time>
      </trkpt>
      <trkpt lat="59.0875840187" lon="30.0234031677">
        <time>2026-04-22T10:04:13.000Z</time>
      </trkpt>
      <trkpt lat="59.0875840187" lon="30.0234675407">
        <time>2026-04-22T10:04:16.000Z</time>
      </trkpt>
      <trkpt lat="59.0876269341" lon="30.0234889984">
        <time>2026-04-22T10:04:18.000Z</time>
      </trkpt>
      <trkpt lat="59.0876698494" lon="30.0234460831">
        <time>2026-04-22T10:04:21.000Z</time>
      </trkpt>
      <trkpt lat="59.0876698494" lon="30.0233602524">
        <time>2026-04-22T10:04:23.000Z</time>
      </trkpt>
      <trkpt lat="59.0876698494" lon="30.0232958794">
        <time>2026-04-22T10:04:26.000Z</time>
      </trkpt>
      <trkpt lat="59.0876698494" lon="30.0232958794">
        <time>2026-04-22T10:04:28.000Z</time>
      </trkpt>
      <trkpt lat="59.0877342224" lon="30.0234460831">
        <time>2026-04-22T10:04:31.000Z</time>
      </trkpt>
      <trkpt lat="59.0877127647" lon="30.0235533714">
        <time>2026-04-22T10:04:33.000Z</time>
      </trkpt>
      <trkpt lat="59.0877342224" lon="30.0235962868">
        <time>2026-04-22T10:04:36.000Z</time>
      </trkpt>
      <trkpt lat="59.0877342224" lon="30.0235962868">
        <time>2026-04-22T10:04:38.000Z</time>
      </trkpt>
      <trkpt lat="59.0877342224" lon="30.0236177444">
        <time>2026-04-22T10:04:41.000Z</time>
      </trkpt>
      <trkpt lat="59.0877342224" lon="30.0236177444">
        <time>2026-04-22T10:04:43.000Z</time>
      </trkpt>
      <trkpt lat="59.0877342224" lon="30.0236821175">
        <time>2026-04-22T10:04:46.000Z</time>
      </trkpt>
      <trkpt lat="59.0877556801" lon="30.0237679482">
        <time>2026-04-22T10:04:48.000Z</time>
      </trkpt>
      <trkpt lat="59.0877771378" lon="30.0237679482">
        <time>2026-04-22T10:04:51.000Z</time>
      </trkpt>
      <trkpt lat="59.0877985954" lon="30.0237250328">
        <time>2026-04-22T10:04:53.000Z</time>
      </trkpt>
      <trkpt lat="59.0877985954" lon="30.0237250328">
        <time>2026-04-22T10:04:56.000Z</time>
      </trkpt>
      <trkpt lat="59.0877985954" lon="30.0237250328">
        <time>2026-04-22T10:04:58.000Z</time>
      </trkpt>
      <trkpt lat="59.0878200531" lon="30.0237035751">
        <time>2026-04-22T10:05:01.000Z</time>
      </trkpt>
      <trkpt lat="59.0877985954" lon="30.0237250328">
        <time>2026-04-22T10:05:03.000Z</time>
      </trkpt>
      <trkpt lat="59.0877771378" lon="30.0237679482">
        <time>2026-04-22T10:05:06.000Z</time>
      </trkpt>
      <trkpt lat="59.0877342224" lon="30.0237679482">
        <time>2026-04-22T10:05:08.000Z</time>
      </trkpt>
      <trkpt lat="59.0877342224" lon="30.0237035751">
        <time>2026-04-22T10:05:11.000Z</time>
      </trkpt>
      <trkpt lat="59.0877771378" lon="30.0236177444">
        <time>2026-04-22T10:05:13.000Z</time>
      </trkpt>
      <trkpt lat="59.0878415108" lon="30.0236177444">
        <time>2026-04-22T10:05:16.000Z</time>
      </trkpt>
      <trkpt lat="59.0878844261" lon="30.0235748291">
        <time>2026-04-22T10:05:18.000Z</time>
      </trkpt>
      <trkpt lat="59.0879702568" lon="30.0235533714">
        <time>2026-04-22T10:05:21.000Z</time>
      </trkpt>
      <trkpt lat="59.0880131721" lon="30.0235319138">
        <time>2026-04-22T10:05:23.000Z</time>
      </trkpt>
      <trkpt lat="59.0880560875" lon="30.0234675407">
        <time>2026-04-22T10:05:26.000Z</time>
      </trkpt>
      <trkpt lat="59.0880775452" lon="30.0234460831">
        <time>2026-04-22T10:05:28.000Z</time>
      </trkpt>
      <trkpt lat="59.0880775452" lon="30.0234246254">
        <time>2026-04-22T10:05:31.000Z</time>
      </trkpt>
      <trkpt lat="59.0880775452" lon="30.0233817101">
        <time>2026-04-22T10:05:33.000Z</time>
      </trkpt>
      <trkpt lat="59.0880775452" lon="30.0234246254">
        <time>2026-04-22T10:05:36.000Z</time>
      </trkpt>
      <trkpt lat="59.0881419182" lon="30.0234246254">
        <time>2026-04-22T10:05:38.000Z</time>
      </trkpt>
      <trkpt lat="59.0881848335" lon="30.0234675407">
        <time>2026-04-22T10:05:41.000Z</time>
      </trkpt>
      <trkpt lat="59.0882062912" lon="30.0235319138">
        <time>2026-04-22T10:05:43.000Z</time>
      </trkpt>
      <trkpt lat="59.0882277489" lon="30.0235319138">
        <time>2026-04-22T10:05:46.000Z</time>
      </trkpt>
      <trkpt lat="59.0882492065" lon="30.0235319138">
        <time>2026-04-22T10:05:48.000Z</time>
      </trkpt>
      <trkpt lat="59.0882492065" lon="30.0235319138">
        <time>2026-04-22T10:05:51.000Z</time>
      </trkpt>
      <trkpt lat="59.0882062912" lon="30.0235104561">
        <time>2026-04-22T10:05:53.000Z</time>
      </trkpt>
      <trkpt lat="59.0881204605" lon="30.0234675407">
        <time>2026-04-22T10:05:56.000Z</time>
      </trkpt>
      <trkpt lat="59.0880560875" lon="30.0234031677">
        <time>2026-04-22T10:05:58.000Z</time>
      </trkpt>
      <trkpt lat="59.0879702568" lon="30.0232958794">
        <time>2026-04-22T10:06:01.000Z</time>
      </trkpt>
      <trkpt lat="59.0879273415" lon="30.0232315063">
        <time>2026-04-22T10:06:03.000Z</time>
      </trkpt>
      <trkpt lat="59.0879058838" lon="30.0232100487">
        <time>2026-04-22T10:06:06.000Z</time>
      </trkpt>
      <trkpt lat="59.0878629684" lon="30.0231671333">
        <time>2026-04-22T10:06:08.000Z</time>
      </trkpt>
      <trkpt lat="59.0878629684" lon="30.023188591">
        <time>2026-04-22T10:06:11.000Z</time>
      </trkpt>
      <trkpt lat="59.0878629684" lon="30.0232315063">
        <time>2026-04-22T10:06:13.000Z</time>
      </trkpt>
      <trkpt lat="59.0878629684" lon="30.0232958794">
        <time>2026-04-22T10:06:16.000Z</time>
      </trkpt>
      <trkpt lat="59.0878844261" lon="30.0232958794">
        <time>2026-04-22T10:06:18.000Z</time>
      </trkpt>
      <trkpt lat="59.0878844261" lon="30.0232958794">
        <time>2026-04-22T10:06:21.000Z</time>
      </trkpt>
      <trkpt lat="59.0878844261" lon="30.0232958794">
        <time>2026-04-22T10:06:23.000Z</time>
      </trkpt>
      <trkpt lat="59.0878844261" lon="30.0232958794">
        <time>2026-04-22T10:06:26.000Z</time>
      </trkpt>
      <trkpt lat="59.0878844261" lon="30.0232958794">
        <time>2026-04-22T10:06:28.000Z</time>
      </trkpt>
      <trkpt lat="59.0878415108" lon="30.0232958794">
        <time>2026-04-22T10:06:31.000Z</time>
      </trkpt>
      <trkpt lat="59.0878415108" lon="30.0232958794">
        <time>2026-04-22T10:06:33.000Z</time>
      </trkpt>
      <trkpt lat="59.0878415108" lon="30.0232744217">
        <time>2026-04-22T10:06:36.000Z</time>
      </trkpt>
      <trkpt lat="59.0878200531" lon="30.0232744217">
        <time>2026-04-22T10:06:38.000Z</time>
      </trkpt>
      <trkpt lat="59.0878415108" lon="30.0232958794">
        <time>2026-04-22T10:06:41.000Z</time>
      </trkpt>
      <trkpt lat="59.0878200531" lon="30.023317337">
        <time>2026-04-22T10:06:43.000Z</time>
      </trkpt>
      <trkpt lat="59.0878200531" lon="30.0232958794">
        <time>2026-04-22T10:06:46.000Z</time>
      </trkpt>
      <trkpt lat="59.0878200531" lon="30.0232958794">
        <time>2026-04-22T10:06:53.000Z</time>
      </trkpt>
      <trkpt lat="59.0878200531" lon="30.0232958794">
        <time>2026-04-22T10:06:56.000Z</time>
      </trkpt>
      <trkpt lat="59.0878200531" lon="30.0232958794">
        <time>2026-04-22T10:06:58.000Z</time>
      </trkpt>
      <trkpt lat="59.0878200531" lon="30.0232958794">
        <time>2026-04-22T10:07:01.000Z</time>
      </trkpt>
      <trkpt lat="59.0878200531" lon="30.0232958794">
        <time>2026-04-22T10:07:03.000Z</time>
      </trkpt>
      <trkpt lat="59.0878200531" lon="30.0232958794">
        <time>2026-04-22T10:07:06.000Z</time>
      </trkpt>
      <trkpt lat="59.0878200531" lon="30.0232958794">
        <time>2026-04-22T10:07:08.000Z</time>
      </trkpt>
      <trkpt lat="59.0878200531" lon="30.0232958794">
        <time>2026-04-22T10:07:11.000Z</time>
      </trkpt>
      <trkpt lat="59.0878200531" lon="30.0232958794">
        <time>2026-04-22T10:07:13.000Z</time>
      </trkpt>
      <trkpt lat="59.0878200531" lon="30.0232958794">
        <time>2026-04-22T10:07:16.000Z</time>
      </trkpt>
      <trkpt lat="59.0878200531" lon="30.0232958794">
        <time>2026-04-22T10:07:18.000Z</time>
      </trkpt>
      <trkpt lat="59.0878200531" lon="30.0232958794">
        <time>2026-04-22T10:07:21.000Z</time>
      </trkpt>
      <trkpt lat="59.0878200531" lon="30.0232958794">
        <time>2026-04-22T10:07:23.000Z</time>
      </trkpt>
      <trkpt lat="59.0877985954" lon="30.0232958794">
        <time>2026-04-22T10:07:26.000Z</time>
      </trkpt>
      <trkpt lat="59.0877985954" lon="30.0232958794">
        <time>2026-04-22T10:07:28.000Z</time>
      </trkpt>
      <trkpt lat="59.0877985954" lon="30.023317337">
        <time>2026-04-22T10:07:31.000Z</time>
      </trkpt>
      <trkpt lat="59.0877985954" lon="30.023317337">
        <time>2026-04-22T10:07:33.000Z</time>
      </trkpt>
      <trkpt lat="59.0877985954" lon="30.023317337">
        <time>2026-04-22T10:07:36.000Z</time>
      </trkpt>
      <trkpt lat="59.0877985954" lon="30.023317337">
        <time>2026-04-22T10:07:38.000Z</time>
      </trkpt>
      <trkpt lat="59.0878200531" lon="30.0232958794">
        <time>2026-04-22T10:07:41.000Z</time>
      </trkpt>
      <trkpt lat="59.0878200531" lon="30.0232958794">
        <time>2026-04-22T10:07:43.000Z</time>
      </trkpt>
      <trkpt lat="59.0878200531" lon="30.0232958794">
        <time>2026-04-22T10:07:46.000Z</time>
      </trkpt>
      <trkpt lat="59.0878200531" lon="30.0232958794">
        <time>2026-04-22T10:07:48.000Z</time>
      </trkpt>
      <trkpt lat="59.0878200531" lon="30.023317337">
        <time>2026-04-22T10:07:51.000Z</time>
      </trkpt>
      <trkpt lat="59.0878200531" lon="30.023317337">
        <time>2026-04-22T10:07:53.000Z</time>
      </trkpt>
      <trkpt lat="59.0878200531" lon="30.023317337">
        <time>2026-04-22T10:07:56.000Z</time>
      </trkpt>
      <trkpt lat="59.0878200531" lon="30.023317337">
        <time>2026-04-22T10:07:58.000Z</time>
      </trkpt>
      <trkpt lat="59.0877985954" lon="30.0233387947">
        <time>2026-04-22T10:08:01.000Z</time>
      </trkpt>
      <trkpt lat="59.0877985954" lon="30.0233387947">
        <time>2026-04-22T10:08:03.000Z</time>
      </trkpt>
      <trkpt lat="59.0877985954" lon="30.0233602524">
        <time>2026-04-22T10:08:06.000Z</time>
      </trkpt>
      <trkpt lat="59.0877985954" lon="30.0233602524">
        <time>2026-04-22T10:08:08.000Z</time>
      </trkpt>
      <trkpt lat="59.0878200531" lon="30.0233602524">
        <time>2026-04-22T10:08:11.000Z</time>
      </trkpt>
      <trkpt lat="59.0877985954" lon="30.0233602524">
        <time>2026-04-22T10:08:13.000Z</time>
      </trkpt>
      <trkpt lat="59.0877985954" lon="30.0233602524">
        <time>2026-04-22T10:08:16.000Z</time>
      </trkpt>
      <trkpt lat="59.0877985954" lon="30.0233602524">
        <time>2026-04-22T10:08:18.000Z</time>
      </trkpt>
      <trkpt lat="59.0878200531" lon="30.0233602524">
        <time>2026-04-22T10:08:21.000Z</time>
      </trkpt>
      <trkpt lat="59.0878200531" lon="30.0233602524">
        <time>2026-04-22T10:08:23.000Z</time>
      </trkpt>
      <trkpt lat="59.0878200531" lon="30.0233387947">
        <time>2026-04-22T10:08:26.000Z</time>
      </trkpt>
      <trkpt lat="59.0878200531" lon="30.023317337">
        <time>2026-04-22T10:08:28.000Z</time>
      </trkpt>
      <trkpt lat="59.0878200531" lon="30.023317337">
        <time>2026-04-22T10:08:31.000Z</time>
      </trkpt>
      <trkpt lat="59.0878200531" lon="30.023317337">
        <time>2026-04-22T10:08:33.000Z</time>
      </trkpt>
      <trkpt lat="59.0878200531" lon="30.023317337">
        <time>2026-04-22T10:08:36.000Z</time>
      </trkpt>
      <trkpt lat="59.0878200531" lon="30.023317337">
        <time>2026-04-22T10:08:38.000Z</time>
      </trkpt>
      <trkpt lat="59.0878200531" lon="30.023317337">
        <time>2026-04-22T10:08:41.000Z</time>
      </trkpt>
      <trkpt lat="59.0878200531" lon="30.023317337">
        <time>2026-04-22T10:08:43.000Z</time>
      </trkpt>
      <trkpt lat="59.0878200531" lon="30.023317337">
        <time>2026-04-22T10:08:46.000Z</time>
      </trkpt>
      <trkpt lat="59.0877985954" lon="30.023317337">
        <time>2026-04-22T10:08:48.000Z</time>
      </trkpt>
      <trkpt lat="59.0877985954" lon="30.023317337">
        <time>2026-04-22T10:08:51.000Z</time>
      </trkpt>
      <trkpt lat="59.0877985954" lon="30.023317337">
        <time>2026-04-22T10:08:53.000Z</time>
      </trkpt>
      <trkpt lat="59.0877985954" lon="30.023317337">
        <time>2026-04-22T10:08:56.000Z</time>
      </trkpt>
      <trkpt lat="59.0877985954" lon="30.023317337">
        <time>2026-04-22T10:08:58.000Z</time>
      </trkpt>
      <trkpt lat="59.0877985954" lon="30.023317337">
        <time>2026-04-22T10:09:01.000Z</time>
      </trkpt>
      <trkpt lat="59.0877985954" lon="30.023317337">
        <time>2026-04-22T10:09:03.000Z</time>
      </trkpt>
      <trkpt lat="59.0877985954" lon="30.023317337">
        <time>2026-04-22T10:09:06.000Z</time>
      </trkpt>
      <trkpt lat="59.0877985954" lon="30.023317337">
        <time>2026-04-22T10:09:08.000Z</time>
      </trkpt>
      <trkpt lat="59.0877985954" lon="30.023317337">
        <time>2026-04-22T10:09:11.000Z</time>
      </trkpt>
      <trkpt lat="59.0877985954" lon="30.023317337">
        <time>2026-04-22T10:09:13.000Z</time>
      </trkpt>
      <trkpt lat="59.0877985954" lon="30.023317337">
        <time>2026-04-22T10:09:16.000Z</time>
      </trkpt>
      <trkpt lat="59.0877985954" lon="30.023317337">
        <time>2026-04-22T10:09:18.000Z</time>
      </trkpt>
      <trkpt lat="59.0877985954" lon="30.023317337">
        <time>2026-04-22T10:09:21.000Z</time>
      </trkpt>
      <trkpt lat="59.0877985954" lon="30.023317337">
        <time>2026-04-22T10:09:23.000Z</time>
      </trkpt>
      <trkpt lat="59.0877985954" lon="30.023317337">
        <time>2026-04-22T10:09:26.000Z</time>
      </trkpt>
      <trkpt lat="59.0877985954" lon="30.023317337">
        <time>2026-04-22T10:09:28.000Z</time>
      </trkpt>
      <trkpt lat="59.0877985954" lon="30.023317337">
        <time>2026-04-22T10:09:31.000Z</time>
      </trkpt>
      <trkpt lat="59.0877985954" lon="30.023317337">
        <time>2026-04-22T10:09:33.000Z</time>
      </trkpt>
      <trkpt lat="59.0877985954" lon="30.023317337">
        <time>2026-04-22T10:09:36.000Z</time>
      </trkpt>
      <trkpt lat="59.0877985954" lon="30.023317337">
        <time>2026-04-22T10:09:38.000Z</time>
      </trkpt>
      <trkpt lat="59.0877985954" lon="30.023317337">
        <time>2026-04-22T10:09:41.000Z</time>
      </trkpt>
      <trkpt lat="59.0877985954" lon="30.023317337">
        <time>2026-04-22T10:09:43.000Z</time>
      </trkpt>
      <trkpt lat="59.0877985954" lon="30.023317337">
        <time>2026-04-22T10:09:46.000Z</time>
      </trkpt>
      <trkpt lat="59.0877985954" lon="30.023317337">
        <time>2026-04-22T10:09:48.000Z</time>
      </trkpt>
      <trkpt lat="59.0877985954" lon="30.023317337">
        <time>2026-04-22T10:09:51.000Z</time>
      </trkpt>
      <trkpt lat="59.0877985954" lon="30.023317337">
        <time>2026-04-22T10:09:53.000Z</time>
      </trkpt>
      <trkpt lat="59.0877985954" lon="30.023317337">
        <time>2026-04-22T10:09:56.000Z</time>
      </trkpt>
      <trkpt lat="59.0877985954" lon="30.023317337">
        <time>2026-04-22T10:09:58.000Z</time>
      </trkpt>
      <trkpt lat="59.0877985954" lon="30.023317337">
        <time>2026-04-22T10:10:01.000Z</time>
      </trkpt>
      <trkpt lat="59.0878200531" lon="30.023317337">
        <time>2026-04-22T10:10:03.000Z</time>
      </trkpt>
      <trkpt lat="59.0878200531" lon="30.023317337">
        <time>2026-04-22T10:10:06.000Z</time>
      </trkpt>
      <trkpt lat="59.0878200531" lon="30.023317337">
        <time>2026-04-22T10:10:08.000Z</time>
      </trkpt>
      <trkpt lat="59.0878200531" lon="30.023317337">
        <time>2026-04-22T10:10:11.000Z</time>
      </trkpt>
      <trkpt lat="59.0878200531" lon="30.023317337">
        <time>2026-04-22T10:10:13.000Z</time>
      </trkpt>
      <trkpt lat="59.0878200531" lon="30.023317337">
        <time>2026-04-22T10:10:16.000Z</time>
      </trkpt>
      <trkpt lat="59.0878200531" lon="30.023317337">
        <time>2026-04-22T10:10:18.000Z</time>
      </trkpt>
      <trkpt lat="59.0878200531" lon="30.023317337">
        <time>2026-04-22T10:10:21.000Z</time>
      </trkpt>
      <trkpt lat="59.0878200531" lon="30.023317337">
        <time>2026-04-22T10:10:23.000Z</time>
      </trkpt>
      <trkpt lat="59.0878200531" lon="30.023317337">
        <time>2026-04-22T10:10:26.000Z</time>
      </trkpt>
      <trkpt lat="59.0878200531" lon="30.023317337">
        <time>2026-04-22T10:10:28.000Z</time>
      </trkpt>
      <trkpt lat="59.0878200531" lon="30.023317337">
        <time>2026-04-22T10:10:31.000Z</time>
      </trkpt>
      <trkpt lat="59.0878200531" lon="30.023317337">
        <time>2026-04-22T10:10:33.000Z</time>
      </trkpt>
      <trkpt lat="59.0878200531" lon="30.023317337">
        <time>2026-04-22T10:10:36.000Z</time>
      </trkpt>
      <trkpt lat="59.0878200531" lon="30.023317337">
        <time>2026-04-22T10:10:38.000Z</time>
      </trkpt>
      <trkpt lat="59.0877985954" lon="30.023317337">
        <time>2026-04-22T10:10:41.000Z</time>
      </trkpt>
      <trkpt lat="59.0877985954" lon="30.023317337">
        <time>2026-04-22T10:10:43.000Z</time>
      </trkpt>
      <trkpt lat="59.0877985954" lon="30.023317337">
        <time>2026-04-22T10:10:46.000Z</time>
      </trkpt>
      <trkpt lat="59.0877985954" lon="30.023317337">
        <time>2026-04-22T10:10:48.000Z</time>
      </trkpt>
      <trkpt lat="59.0877985954" lon="30.023317337">
        <time>2026-04-22T10:10:51.000Z</time>
      </trkpt>
      <trkpt lat="59.0877985954" lon="30.023317337">
        <time>2026-04-22T10:10:53.000Z</time>
      </trkpt>
      <trkpt lat="59.0877985954" lon="30.023317337">
        <time>2026-04-22T10:10:56.000Z</time>
      </trkpt>
      <trkpt lat="59.0877985954" lon="30.023317337">
        <time>2026-04-22T10:10:58.000Z</time>
      </trkpt>
      <trkpt lat="59.0877985954" lon="30.023317337">
        <time>2026-04-22T10:11:01.000Z</time>
      </trkpt>
      <trkpt lat="59.0877985954" lon="30.023317337">
        <time>2026-04-22T10:11:03.000Z</time>
      </trkpt>
      <trkpt lat="59.0877985954" lon="30.023317337">
        <time>2026-04-22T10:11:06.000Z</time>
      </trkpt>
      <trkpt lat="59.0877985954" lon="30.023317337">
        <time>2026-04-22T10:11:08.000Z</time>
      </trkpt>
      <trkpt lat="59.0877985954" lon="30.023317337">
        <time>2026-04-22T10:11:11.000Z</time>
      </trkpt>
      <trkpt lat="59.0877985954" lon="30.023317337">
        <time>2026-04-22T10:11:13.000Z</time>
      </trkpt>
      <trkpt lat="59.0877985954" lon="30.023317337">
        <time>2026-04-22T10:11:16.000Z</time>
      </trkpt>
      <trkpt lat="59.0877985954" lon="30.023317337">
        <time>2026-04-22T10:11:18.000Z</time>
      </trkpt>
      <trkpt lat="59.0877985954" lon="30.023317337">
        <time>2026-04-22T10:11:21.000Z</time>
      </trkpt>
      <trkpt lat="59.0877985954" lon="30.023317337">
        <time>2026-04-22T10:11:23.000Z</time>
      </trkpt>
      <trkpt lat="59.0877985954" lon="30.023317337">
        <time>2026-04-22T10:11:26.000Z</time>
      </trkpt>
      <trkpt lat="59.0877985954" lon="30.023317337">
        <time>2026-04-22T10:11:28.000Z</time>
      </trkpt>
      <trkpt lat="59.0877985954" lon="30.023317337">
        <time>2026-04-22T10:11:31.000Z</time>
      </trkpt>
      <trkpt lat="59.0877985954" lon="30.023317337">
        <time>2026-04-22T10:11:33.000Z</time>
      </trkpt>
      <trkpt lat="59.0877985954" lon="30.023317337">
        <time>2026-04-22T10:11:36.000Z</time>
      </trkpt>
      <trkpt lat="59.0877985954" lon="30.023317337">
        <time>2026-04-22T10:11:38.000Z</time>
      </trkpt>
      <trkpt lat="59.0877985954" lon="30.023317337">
        <time>2026-04-22T10:11:41.000Z</time>
      </trkpt>
      <trkpt lat="59.0877985954" lon="30.023317337">
        <time>2026-04-22T10:11:43.000Z</time>
      </trkpt>
      <trkpt lat="59.0877985954" lon="30.023317337">
        <time>2026-04-22T10:11:46.000Z</time>
      </trkpt>
      <trkpt lat="59.0877985954" lon="30.023317337">
        <time>2026-04-22T10:11:48.000Z</time>
      </trkpt>
      <trkpt lat="59.0877985954" lon="30.023317337">
        <time>2026-04-22T10:11:51.000Z</time>
      </trkpt>
      <trkpt lat="59.0877985954" lon="30.023317337">
        <time>2026-04-22T10:11:53.000Z</time>
      </trkpt>
      <trkpt lat="59.0877985954" lon="30.0233387947">
        <time>2026-04-22T10:11:56.000Z</time>
      </trkpt>
      <trkpt lat="59.0877985954" lon="30.0233387947">
        <time>2026-04-22T10:11:58.000Z</time>
      </trkpt>
      <trkpt lat="59.0877985954" lon="30.0233387947">
        <time>2026-04-22T10:12:01.000Z</time>
      </trkpt>
      <trkpt lat="59.0877985954" lon="30.0233387947">
        <time>2026-04-22T10:12:03.000Z</time>
      </trkpt>
      <trkpt lat="59.0877985954" lon="30.0233387947">
        <time>2026-04-22T10:12:06.000Z</time>
      </trkpt>
      <trkpt lat="59.0877985954" lon="30.0233387947">
        <time>2026-04-22T10:12:08.000Z</time>
      </trkpt>
      <trkpt lat="59.0877985954" lon="30.0233387947">
        <time>2026-04-22T10:12:11.000Z</time>
      </trkpt>
      <trkpt lat="59.0877985954" lon="30.0233387947">
        <time>2026-04-22T10:12:13.000Z</time>
      </trkpt>
      <trkpt lat="59.0877985954" lon="30.0233387947">
        <time>2026-04-22T10:12:16.000Z</time>
      </trkpt>
      <trkpt lat="59.0877985954" lon="30.0233387947">
        <time>2026-04-22T10:12:18.000Z</time>
      </trkpt>
      <trkpt lat="59.0877985954" lon="30.0233387947">
        <time>2026-04-22T10:12:21.000Z</time>
      </trkpt>
      <trkpt lat="59.0877985954" lon="30.0233387947">
        <time>2026-04-22T10:12:23.000Z</time>
      </trkpt>
      <trkpt lat="59.0877985954" lon="30.0233387947">
        <time>2026-04-22T10:12:26.000Z</time>
      </trkpt>
      <trkpt lat="59.0877985954" lon="30.0233387947">
        <time>2026-04-22T10:12:28.000Z</time>
      </trkpt>
      <trkpt lat="59.0877985954" lon="30.0233387947">
        <time>2026-04-22T10:12:31.000Z</time>
      </trkpt>
      <trkpt lat="59.0877985954" lon="30.0233387947">
        <time>2026-04-22T10:12:33.000Z</time>
      </trkpt>
      <trkpt lat="59.0877985954" lon="30.0233387947">
        <time>2026-04-22T10:12:36.000Z</time>
      </trkpt>
      <trkpt lat="59.0877985954" lon="30.0233387947">
        <time>2026-04-22T10:12:38.000Z</time>
      </trkpt>
      <trkpt lat="59.0877985954" lon="30.0233387947">
        <time>2026-04-22T10:12:41.000Z</time>
      </trkpt>
      <trkpt lat="59.0877985954" lon="30.0233387947">
        <time>2026-04-22T10:12:43.000Z</time>
      </trkpt>
      <trkpt lat="59.0877985954" lon="30.0233387947">
        <time>2026-04-22T10:12:46.000Z</time>
      </trkpt>
      <trkpt lat="59.0877985954" lon="30.0233387947">
        <time>2026-04-22T10:12:48.000Z</time>
      </trkpt>
      <trkpt lat="59.0877985954" lon="30.0233387947">
        <time>2026-04-22T10:12:51.000Z</time>
      </trkpt>
      <trkpt lat="59.0877985954" lon="30.0233387947">
        <time>2026-04-22T10:12:53.000Z</time>
      </trkpt>
      <trkpt lat="59.0877985954" lon="30.0233387947">
        <time>2026-04-22T10:12:56.000Z</time>
      </trkpt>
      <trkpt lat="59.0877985954" lon="30.0233387947">
        <time>2026-04-22T10:12:58.000Z</time>
      </trkpt>
      <trkpt lat="59.0877985954" lon="30.0233387947">
        <time>2026-04-22T10:13:01.000Z</time>
      </trkpt>
      <trkpt lat="59.0877985954" lon="30.0233387947">
        <time>2026-04-22T10:13:03.000Z</time>
      </trkpt>
      <trkpt lat="59.0877985954" lon="30.0233387947">
        <time>2026-04-22T10:13:06.000Z</time>
      </trkpt>
      <trkpt lat="59.0877985954" lon="30.0233387947">
        <time>2026-04-22T10:13:08.000Z</time>
      </trkpt>
      <trkpt lat="59.0877985954" lon="30.0233387947">
        <time>2026-04-22T10:13:11.000Z</time>
      </trkpt>
      <trkpt lat="59.0877985954" lon="30.0233387947">
        <time>2026-04-22T10:13:13.000Z</time>
      </trkpt>
      <trkpt lat="59.0877985954" lon="30.0233387947">
        <time>2026-04-22T10:13:16.000Z</time>
      </trkpt>
      <trkpt lat="59.0877985954" lon="30.0233387947">
        <time>2026-04-22T10:13:18.000Z</time>
      </trkpt>
      <trkpt lat="59.0877985954" lon="30.0233387947">
        <time>2026-04-22T10:13:21.000Z</time>
      </trkpt>
      <trkpt lat="59.0877985954" lon="30.0233387947">
        <time>2026-04-22T10:13:23.000Z</time>
      </trkpt>
      <trkpt lat="59.0877985954" lon="30.0233387947">
        <time>2026-04-22T10:13:26.000Z</time>
      </trkpt>
      <trkpt lat="59.0877985954" lon="30.0233387947">
        <time>2026-04-22T10:13:28.000Z</time>
      </trkpt>
      <trkpt lat="59.0877985954" lon="30.0233387947">
        <time>2026-04-22T10:13:31.000Z</time>
      </trkpt>
      <trkpt lat="59.0877985954" lon="30.0233387947">
        <time>2026-04-22T10:13:33.000Z</time>
      </trkpt>
      <trkpt lat="59.0877985954" lon="30.0233387947">
        <time>2026-04-22T10:13:36.000Z</time>
      </trkpt>
      <trkpt lat="59.0877985954" lon="30.0233387947">
        <time>2026-04-22T10:13:38.000Z</time>
      </trkpt>
      <trkpt lat="59.0877985954" lon="30.0233387947">
        <time>2026-04-22T10:13:41.000Z</time>
      </trkpt>
      <trkpt lat="59.0877985954" lon="30.0233387947">
        <time>2026-04-22T10:13:43.000Z</time>
      </trkpt>
      <trkpt lat="59.0877985954" lon="30.0233387947">
        <time>2026-04-22T10:13:46.000Z</time>
      </trkpt>
      <trkpt lat="59.0877985954" lon="30.0233387947">
        <time>2026-04-22T10:13:48.000Z</time>
      </trkpt>
      <trkpt lat="59.0877985954" lon="30.0233387947">
        <time>2026-04-22T10:13:51.000Z</time>
      </trkpt>
      <trkpt lat="59.0877985954" lon="30.0233387947">
        <time>2026-04-22T10:13:53.000Z</time>
      </trkpt>
      <trkpt lat="59.0877985954" lon="30.0233387947">
        <time>2026-04-22T10:13:56.000Z</time>
      </trkpt>
      <trkpt lat="59.0877985954" lon="30.0233387947">
        <time>2026-04-22T10:13:58.000Z</time>
      </trkpt>
      <trkpt lat="59.0877985954" lon="30.0233387947">
        <time>2026-04-22T10:14:01.000Z</time>
      </trkpt>
      <trkpt lat="59.0877985954" lon="30.0233387947">
        <time>2026-04-22T10:14:03.000Z</time>
      </trkpt>
      <trkpt lat="59.0877985954" lon="30.0233387947">
        <time>2026-04-22T10:14:06.000Z</time>
      </trkpt>
      <trkpt lat="59.0877985954" lon="30.0233387947">
        <time>2026-04-22T10:14:08.000Z</time>
      </trkpt>
      <trkpt lat="59.0877985954" lon="30.0233387947">
        <time>2026-04-22T10:14:11.000Z</time>
      </trkpt>
      <trkpt lat="59.0877985954" lon="30.0233387947">
        <time>2026-04-22T10:14:13.000Z</time>
      </trkpt>
      <trkpt lat="59.0877985954" lon="30.0233387947">
        <time>2026-04-22T10:14:16.000Z</time>
      </trkpt>
      <trkpt lat="59.0877985954" lon="30.0233387947">
        <time>2026-04-22T10:14:18.000Z</time>
      </trkpt>
      <trkpt lat="59.0877985954" lon="30.0233387947">
        <time>2026-04-22T10:14:21.000Z</time>
      </trkpt>
      <trkpt lat="59.0877985954" lon="30.0233387947">
        <time>2026-04-22T10:14:23.000Z</time>
      </trkpt>
      <trkpt lat="59.0877985954" lon="30.0233387947">
        <time>2026-04-22T10:14:26.000Z</time>
      </trkpt>
      <trkpt lat="59.0877985954" lon="30.0233387947">
        <time>2026-04-22T10:14:28.000Z</time>
      </trkpt>
      <trkpt lat="59.0877985954" lon="30.0233387947">
        <time>2026-04-22T10:14:31.000Z</time>
      </trkpt>
      <trkpt lat="59.0877985954" lon="30.0233387947">
        <time>2026-04-22T10:14:33.000Z</time>
      </trkpt>
      <trkpt lat="59.0877985954" lon="30.0233387947">
        <time>2026-04-22T10:14:36.000Z</time>
      </trkpt>
      <trkpt lat="59.0877985954" lon="30.0233387947">
        <time>2026-04-22T10:14:38.000Z</time>
      </trkpt>
      <trkpt lat="59.0877985954" lon="30.0233387947">
        <time>2026-04-22T10:14:41.000Z</time>
      </trkpt>
      <trkpt lat="59.0877985954" lon="30.0233387947">
        <time>2026-04-22T10:14:43.000Z</time>
      </trkpt>
      <trkpt lat="59.0877985954" lon="30.0233387947">
        <time>2026-04-22T10:14:46.000Z</time>
      </trkpt>
      <trkpt lat="59.0877985954" lon="30.0233387947">
        <time>2026-04-22T10:14:48.000Z</time>
      </trkpt>
      <trkpt lat="59.0877985954" lon="30.0233387947">
        <time>2026-04-22T10:14:51.000Z</time>
      </trkpt>
      <trkpt lat="59.0877985954" lon="30.0233387947">
        <time>2026-04-22T10:14:53.000Z</time>
      </trkpt>
      <trkpt lat="59.0877985954" lon="30.0233387947">
        <time>2026-04-22T10:14:56.000Z</time>
      </trkpt>
      <trkpt lat="59.0877985954" lon="30.0233387947">
        <time>2026-04-22T10:14:58.000Z</time>
      </trkpt>
      <trkpt lat="59.0877985954" lon="30.0233387947">
        <time>2026-04-22T10:15:01.000Z</time>
      </trkpt>
      <trkpt lat="59.0877985954" lon="30.0233387947">
        <time>2026-04-22T10:15:03.000Z</time>
      </trkpt>
      <trkpt lat="59.0877985954" lon="30.0233387947">
        <time>2026-04-22T10:15:06.000Z</time>
      </trkpt>
      <trkpt lat="59.0877985954" lon="30.0233387947">
        <time>2026-04-22T10:15:08.000Z</time>
      </trkpt>
      <trkpt lat="59.0877985954" lon="30.0233387947">
        <time>2026-04-22T10:15:11.000Z</time>
      </trkpt>
      <trkpt lat="59.0877985954" lon="30.0233387947">
        <time>2026-04-22T10:15:13.000Z</time>
      </trkpt>
      <trkpt lat="59.0877985954" lon="30.0233387947">
        <time>2026-04-22T10:15:16.000Z</time>
      </trkpt>
      <trkpt lat="59.0877985954" lon="30.0233387947">
        <time>2026-04-22T10:15:18.000Z</time>
      </trkpt>
      <trkpt lat="59.0877985954" lon="30.0233387947">
        <time>2026-04-22T10:15:21.000Z</time>
      </trkpt>
      <trkpt lat="59.0877985954" lon="30.0233387947">
        <time>2026-04-22T10:15:23.000Z</time>
      </trkpt>
      <trkpt lat="59.0877985954" lon="30.0233387947">
        <time>2026-04-22T10:15:26.000Z</time>
      </trkpt>
      <trkpt lat="59.0877985954" lon="30.0233387947">
        <time>2026-04-22T10:15:28.000Z</time>
      </trkpt>
      <trkpt lat="59.0877985954" lon="30.0233387947">
        <time>2026-04-22T10:15:31.000Z</time>
      </trkpt>
      <trkpt lat="59.0877985954" lon="30.0233387947">
        <time>2026-04-22T10:15:33.000Z</time>
      </trkpt>
      <trkpt lat="59.0877985954" lon="30.0233387947">
        <time>2026-04-22T10:15:36.000Z</time>
      </trkpt>
      <trkpt lat="59.0877985954" lon="30.0233387947">
        <time>2026-04-22T10:15:38.000Z</time>
      </trkpt>
      <trkpt lat="59.0877985954" lon="30.0233387947">
        <time>2026-04-22T10:15:41.000Z</time>
      </trkpt>
      <trkpt lat="59.0877985954" lon="30.0233387947">
        <time>2026-04-22T10:15:43.000Z</time>
      </trkpt>
      <trkpt lat="59.0877985954" lon="30.0233387947">
        <time>2026-04-22T10:15:46.000Z</time>
      </trkpt>
      <trkpt lat="59.0877985954" lon="30.0233387947">
        <time>2026-04-22T10:15:48.000Z</time>
      </trkpt>
      <trkpt lat="59.0877985954" lon="30.0233387947">
        <time>2026-04-22T10:15:51.000Z</time>
      </trkpt>
      <trkpt lat="59.0877985954" lon="30.0233387947">
        <time>2026-04-22T10:15:53.000Z</time>
      </trkpt>
      <trkpt lat="59.0877985954" lon="30.0233387947">
        <time>2026-04-22T10:15:56.000Z</time>
      </trkpt>
      <trkpt lat="59.0877985954" lon="30.0233387947">
        <time>2026-04-22T10:15:58.000Z</time>
      </trkpt>
      <trkpt lat="59.0878415108" lon="30.0233817101">
        <time>2026-04-22T10:16:01.000Z</time>
      </trkpt>
      <trkpt lat="59.0879487991" lon="30.0234889984">
        <time>2026-04-22T10:16:03.000Z</time>
      </trkpt>
      <trkpt lat="59.0880131721" lon="30.0236177444">
        <time>2026-04-22T10:16:06.000Z</time>
      </trkpt>
      <trkpt lat="59.0880346298" lon="30.0236606598">
        <time>2026-04-22T10:16:08.000Z</time>
      </trkpt>
      <trkpt lat="59.0880775452" lon="30.0237250328">
        <time>2026-04-22T10:16:11.000Z</time>
      </trkpt>
      <trkpt lat="59.0880775452" lon="30.0237250328">
        <time>2026-04-22T10:16:13.000Z</time>
      </trkpt>
      <trkpt lat="59.0880775452" lon="30.0237464905">
        <time>2026-04-22T10:16:16.000Z</time>
      </trkpt>
      <trkpt lat="59.0881204605" lon="30.0237894058">
        <time>2026-04-22T10:16:18.000Z</time>
      </trkpt>
      <trkpt lat="59.0881419182" lon="30.0239181519">
        <time>2026-04-22T10:16:21.000Z</time>
      </trkpt>
      <trkpt lat="59.0881633759" lon="30.0240468979">
        <time>2026-04-22T10:16:23.000Z</time>
      </trkpt>
      <trkpt lat="59.0881633759" lon="30.0241971016">
        <time>2026-04-22T10:16:26.000Z</time>
      </trkpt>
      <trkpt lat="59.0882277489" lon="30.024368763">
        <time>2026-04-22T10:16:28.000Z</time>
      </trkpt>
      <trkpt lat="59.0882706642" lon="30.024433136">
        <time>2026-04-22T10:16:31.000Z</time>
      </trkpt>
      <trkpt lat="59.0882706642" lon="30.0244545937">
        <time>2026-04-22T10:16:33.000Z</time>
      </trkpt>
      <trkpt lat="59.0882921219" lon="30.0244545937">
        <time>2026-04-22T10:16:36.000Z</time>
      </trkpt>
      <trkpt lat="59.0882921219" lon="30.0244760513">
        <time>2026-04-22T10:16:38.000Z</time>
      </trkpt>
      <trkpt lat="59.0883135796" lon="30.024497509">
        <time>2026-04-22T10:16:41.000Z</time>
      </trkpt>
      <trkpt lat="59.0883350372" lon="30.024561882">
        <time>2026-04-22T10:16:43.000Z</time>
      </trkpt>
      <trkpt lat="59.0883350372" lon="30.024561882">
        <time>2026-04-22T10:16:46.000Z</time>
      </trkpt>
      <trkpt lat="59.0883350372" lon="30.0245833397">
        <time>2026-04-22T10:16:48.000Z</time>
      </trkpt>
      <trkpt lat="59.0883564949" lon="30.0246047974">
        <time>2026-04-22T10:16:51.000Z</time>
      </trkpt>
      <trkpt lat="59.0884208679" lon="30.024626255">
        <time>2026-04-22T10:16:56.000Z</time>
      </trkpt>
      <trkpt lat="59.0884852409" lon="30.0246477127">
        <time>2026-04-22T10:16:58.000Z</time>
      </trkpt>
      <trkpt lat="59.0885710716" lon="30.0247550011">
        <time>2026-04-22T10:17:06.000Z</time>
      </trkpt>
      <trkpt lat="59.0886354446" lon="30.0247550011">
        <time>2026-04-22T10:17:11.000Z</time>
      </trkpt>
      <trkpt lat="59.08867836" lon="30.0247550011">
        <time>2026-04-22T10:17:13.000Z</time>
      </trkpt>
      <trkpt lat="59.08867836" lon="30.0247335434">
        <time>2026-04-22T10:17:18.000Z</time>
      </trkpt>
      <trkpt lat="59.0885925293" lon="30.0246906281">
        <time>2026-04-22T10:17:26.000Z</time>
      </trkpt>
      <trkpt lat="59.088549614" lon="30.024626255">
        <time>2026-04-22T10:17:28.000Z</time>
      </trkpt>
      <trkpt lat="59.0884637833" lon="30.0245404243">
        <time>2026-04-22T10:17:31.000Z</time>
      </trkpt>
      <trkpt lat="59.0883779526" lon="30.024433136">
        <time>2026-04-22T10:17:33.000Z</time>
      </trkpt>
      <trkpt lat="59.0883564949" lon="30.0242185593">
        <time>2026-04-22T10:17:36.000Z</time>
      </trkpt>
      <trkpt lat="59.0883779526" lon="30.0240898132">
        <time>2026-04-22T10:17:38.000Z</time>
      </trkpt>
      <trkpt lat="59.0883350372" lon="30.0239610672">
        <time>2026-04-22T10:17:41.000Z</time>
      </trkpt>
      <trkpt lat="59.0882706642" lon="30.0238966942">
        <time>2026-04-22T10:17:43.000Z</time>
      </trkpt>
      <trkpt lat="59.0882277489" lon="30.0237679482">
        <time>2026-04-22T10:17:46.000Z</time>
      </trkpt>
      <trkpt lat="59.0882062912" lon="30.0236392021">
        <time>2026-04-22T10:17:48.000Z</time>
      </trkpt>
      <trkpt lat="59.0881204605" lon="30.0235533714">
        <time>2026-04-22T10:17:51.000Z</time>
      </trkpt>
      <trkpt lat="59.0880560875" lon="30.0234889984">
        <time>2026-04-22T10:17:53.000Z</time>
      </trkpt>
      <trkpt lat="59.0879702568" lon="30.0233602524">
        <time>2026-04-22T10:17:56.000Z</time>
      </trkpt>
      <trkpt lat="59.0879273415" lon="30.0232315063">
        <time>2026-04-22T10:17:58.000Z</time>
      </trkpt>
      <trkpt lat="59.0878844261" lon="30.023188591">
        <time>2026-04-22T10:18:01.000Z</time>
      </trkpt>
      <trkpt lat="59.0878415108" lon="30.0231671333">
        <time>2026-04-22T10:18:03.000Z</time>
      </trkpt>
      <trkpt lat="59.0877985954" lon="30.0231027603">
        <time>2026-04-22T10:18:06.000Z</time>
      </trkpt>
      <trkpt lat="59.0877985954" lon="30.0230169296">
        <time>2026-04-22T10:18:08.000Z</time>
      </trkpt>
      <trkpt lat="59.0877985954" lon="30.0229096413">
        <time>2026-04-22T10:18:11.000Z</time>
      </trkpt>
      <trkpt lat="59.0877771378" lon="30.0228452682">
        <time>2026-04-22T10:18:13.000Z</time>
      </trkpt>
      <trkpt lat="59.0877771378" lon="30.0228452682">
        <time>2026-04-22T10:18:16.000Z</time>
      </trkpt>
      <trkpt lat="59.0877771378" lon="30.0228238106">
        <time>2026-04-22T10:18:18.000Z</time>
      </trkpt>
      <trkpt lat="59.0877771378" lon="30.0228023529">
        <time>2026-04-22T10:18:21.000Z</time>
      </trkpt>
      <trkpt lat="59.0877985954" lon="30.0227165222">
        <time>2026-04-22T10:18:23.000Z</time>
      </trkpt>
      <trkpt lat="59.0877985954" lon="30.0226736069">
        <time>2026-04-22T10:18:26.000Z</time>
      </trkpt>
      <trkpt lat="59.0877771378" lon="30.0226306915">
        <time>2026-04-22T10:18:28.000Z</time>
      </trkpt>
      <trkpt lat="59.0877771378" lon="30.0226306915">
        <time>2026-04-22T10:18:31.000Z</time>
      </trkpt>
      <trkpt lat="59.0877771378" lon="30.0226306915">
        <time>2026-04-22T10:18:33.000Z</time>
      </trkpt>
      <trkpt lat="59.0877771378" lon="30.0225877762">
        <time>2026-04-22T10:18:36.000Z</time>
      </trkpt>
      <trkpt lat="59.0877985954" lon="30.0225019455">
        <time>2026-04-22T10:18:38.000Z</time>
      </trkpt>
      <trkpt lat="59.0877985954" lon="30.0224590302">
        <time>2026-04-22T10:18:41.000Z</time>
      </trkpt>
      <trkpt lat="59.0878200531" lon="30.0223946571">
        <time>2026-04-22T10:18:43.000Z</time>
      </trkpt>
      <trkpt lat="59.0878200531" lon="30.0223302841">
        <time>2026-04-22T10:18:46.000Z</time>
      </trkpt>
      <trkpt lat="59.0877985954" lon="30.0223088264">
        <time>2026-04-22T10:18:48.000Z</time>
      </trkpt>
      <trkpt lat="59.0877985954" lon="30.0222444534">
        <time>2026-04-22T10:18:51.000Z</time>
      </trkpt>
      <trkpt lat="59.0877985954" lon="30.0222229958">
        <time>2026-04-22T10:18:53.000Z</time>
      </trkpt>
      <trkpt lat="59.0877771378" lon="30.0222015381">
        <time>2026-04-22T10:18:56.000Z</time>
      </trkpt>
      <trkpt lat="59.0877556801" lon="30.0222015381">
        <time>2026-04-22T10:18:58.000Z</time>
      </trkpt>
      <trkpt lat="59.0877556801" lon="30.0221157074">
        <time>2026-04-22T10:19:01.000Z</time>
      </trkpt>
      <trkpt lat="59.0877556801" lon="30.0220727921">
        <time>2026-04-22T10:19:03.000Z</time>
      </trkpt>
      <trkpt lat="59.0877556801" lon="30.0220298767">
        <time>2026-04-22T10:19:06.000Z</time>
      </trkpt>
      <trkpt lat="59.0877556801" lon="30.0219869614">
        <time>2026-04-22T10:19:08.000Z</time>
      </trkpt>
      <trkpt lat="59.0877556801" lon="30.0219655037">
        <time>2026-04-22T10:19:11.000Z</time>
      </trkpt>
      <trkpt lat="59.0877771378" lon="30.0219655037">
        <time>2026-04-22T10:19:13.000Z</time>
      </trkpt>
      <trkpt lat="59.0877985954" lon="30.0219225883">
        <time>2026-04-22T10:19:16.000Z</time>
      </trkpt>
      <trkpt lat="59.0878200531" lon="30.0219225883">
        <time>2026-04-22T10:19:18.000Z</time>
      </trkpt>
      <trkpt lat="59.0878200531" lon="30.0219011307">
        <time>2026-04-22T10:19:21.000Z</time>
      </trkpt>
      <trkpt lat="59.0878415108" lon="30.021879673">
        <time>2026-04-22T10:19:23.000Z</time>
      </trkpt>
      <trkpt lat="59.0878629684" lon="30.0219011307">
        <time>2026-04-22T10:19:26.000Z</time>
      </trkpt>
      <trkpt lat="59.0878200531" lon="30.021879673">
        <time>2026-04-22T10:19:28.000Z</time>
      </trkpt>
      <trkpt lat="59.0877556801" lon="30.021879673">
        <time>2026-04-22T10:19:31.000Z</time>
      </trkpt>
      <trkpt lat="59.0877342224" lon="30.0219011307">
        <time>2026-04-22T10:19:33.000Z</time>
      </trkpt>
      <trkpt lat="59.0876698494" lon="30.021944046">
        <time>2026-04-22T10:19:36.000Z</time>
      </trkpt>
      <trkpt lat="59.0876054764" lon="30.0219655037">
        <time>2026-04-22T10:19:38.000Z</time>
      </trkpt>
      <trkpt lat="59.0875196457" lon="30.022008419">
        <time>2026-04-22T10:19:41.000Z</time>
      </trkpt>
      <trkpt lat="59.0874767303" lon="30.0219869614">
        <time>2026-04-22T10:19:43.000Z</time>
      </trkpt>
      <trkpt lat="59.087433815" lon="30.0219869614">
        <time>2026-04-22T10:19:46.000Z</time>
      </trkpt>
      <trkpt lat="59.0874123573" lon="30.0219655037">
        <time>2026-04-22T10:19:48.000Z</time>
      </trkpt>
      <trkpt lat="59.0873479843" lon="30.0219225883">
        <time>2026-04-22T10:19:51.000Z</time>
      </trkpt>
      <trkpt lat="59.087305069" lon="30.021879673">
        <time>2026-04-22T10:19:53.000Z</time>
      </trkpt>
      <trkpt lat="59.087305069" lon="30.021879673">
        <time>2026-04-22T10:19:56.000Z</time>
      </trkpt>
      <trkpt lat="59.0872836113" lon="30.0219225883">
        <time>2026-04-22T10:19:58.000Z</time>
      </trkpt>
      <trkpt lat="59.0872192383" lon="30.0219869614">
        <time>2026-04-22T10:20:01.000Z</time>
      </trkpt>
      <trkpt lat="59.0871977806" lon="30.022008419">
        <time>2026-04-22T10:20:03.000Z</time>
      </trkpt>
      <trkpt lat="59.0871548653" lon="30.0220727921">
        <time>2026-04-22T10:20:06.000Z</time>
      </trkpt>
      <trkpt lat="59.0871548653" lon="30.0220513344">
        <time>2026-04-22T10:20:08.000Z</time>
      </trkpt>
      <trkpt lat="59.0871334076" lon="30.0220513344">
        <time>2026-04-22T10:20:11.000Z</time>
      </trkpt>
      <trkpt lat="59.0870904922" lon="30.0220513344">
        <time>2026-04-22T10:20:13.000Z</time>
      </trkpt>
      <trkpt lat="59.0870475769" lon="30.0220727921">
        <time>2026-04-22T10:20:16.000Z</time>
      </trkpt>
      <trkpt lat="59.0870261192" lon="30.0220513344">
        <time>2026-04-22T10:20:18.000Z</time>
      </trkpt>
      <trkpt lat="59.0870475769" lon="30.0220513344">
        <time>2026-04-22T10:20:21.000Z</time>
      </trkpt>
      <trkpt lat="59.0870261192" lon="30.0220727921">
        <time>2026-04-22T10:20:23.000Z</time>
      </trkpt>
      <trkpt lat="59.0870261192" lon="30.0221371651">
        <time>2026-04-22T10:20:26.000Z</time>
      </trkpt>
      <trkpt lat="59.0870261192" lon="30.0222873688">
        <time>2026-04-22T10:20:28.000Z</time>
      </trkpt>
      <trkpt lat="59.0870046616" lon="30.0224161148">
        <time>2026-04-22T10:20:31.000Z</time>
      </trkpt>
      <trkpt lat="59.0870261192" lon="30.0225019455">
        <time>2026-04-22T10:20:33.000Z</time>
      </trkpt>
      <trkpt lat="59.0870046616" lon="30.0224375725">
        <time>2026-04-22T10:20:36.000Z</time>
      </trkpt>
      <trkpt lat="59.0869617462" lon="30.0223946571">
        <time>2026-04-22T10:20:38.000Z</time>
      </trkpt>
      <trkpt lat="59.0869188309" lon="30.0223302841">
        <time>2026-04-22T10:20:41.000Z</time>
      </trkpt>
      <trkpt lat="59.0868973732" lon="30.0222873688">
        <time>2026-04-22T10:20:43.000Z</time>
      </trkpt>
      <trkpt lat="59.0868759155" lon="30.0222444534">
        <time>2026-04-22T10:20:46.000Z</time>
      </trkpt>
      <trkpt lat="59.0868544579" lon="30.0222444534">
        <time>2026-04-22T10:20:48.000Z</time>
      </trkpt>
      <trkpt lat="59.0867900848" lon="30.0222015381">
        <time>2026-04-22T10:20:51.000Z</time>
      </trkpt>
      <trkpt lat="59.0867686272" lon="30.0222444534">
        <time>2026-04-22T10:20:53.000Z</time>
      </trkpt>
      <trkpt lat="59.0867686272" lon="30.0223088264">
        <time>2026-04-22T10:20:56.000Z</time>
      </trkpt>
      <trkpt lat="59.0867471695" lon="30.0224161148">
        <time>2026-04-22T10:20:58.000Z</time>
      </trkpt>
      <trkpt lat="59.0867471695" lon="30.0225019455">
        <time>2026-04-22T10:21:01.000Z</time>
      </trkpt>
      <trkpt lat="59.0867686272" lon="30.0225234032">
        <time>2026-04-22T10:21:03.000Z</time>
      </trkpt>
      <trkpt lat="59.0867471695" lon="30.0224590302">
        <time>2026-04-22T10:21:06.000Z</time>
      </trkpt>
      <trkpt lat="59.0867257118" lon="30.0224161148">
        <time>2026-04-22T10:21:08.000Z</time>
      </trkpt>
      <trkpt lat="59.0866827965" lon="30.0224161148">
        <time>2026-04-22T10:21:11.000Z</time>
      </trkpt>
      <trkpt lat="59.0866827965" lon="30.0224590302">
        <time>2026-04-22T10:21:13.000Z</time>
      </trkpt>
      <trkpt lat="59.0866827965" lon="30.0225234032">
        <time>2026-04-22T10:21:16.000Z</time>
      </trkpt>
      <trkpt lat="59.0866398811" lon="30.0225448608">
        <time>2026-04-22T10:21:18.000Z</time>
      </trkpt>
      <trkpt lat="59.0865755081" lon="30.0226092339">
        <time>2026-04-22T10:21:21.000Z</time>
      </trkpt>
      <trkpt lat="59.0865540504" lon="30.0226306915">
        <time>2026-04-22T10:21:23.000Z</time>
      </trkpt>
      <trkpt lat="59.0864896774" lon="30.0226521492">
        <time>2026-04-22T10:21:26.000Z</time>
      </trkpt>
      <trkpt lat="59.0864682198" lon="30.0226306915">
        <time>2026-04-22T10:21:28.000Z</time>
      </trkpt>
      <trkpt lat="59.0864682198" lon="30.0225663185">
        <time>2026-04-22T10:21:31.000Z</time>
      </trkpt>
      <trkpt lat="59.0864896774" lon="30.0225019455">
        <time>2026-04-22T10:21:33.000Z</time>
      </trkpt>
      <trkpt lat="59.0864682198" lon="30.0224590302">
        <time>2026-04-22T10:21:36.000Z</time>
      </trkpt>
      <trkpt lat="59.0864682198" lon="30.0224375725">
        <time>2026-04-22T10:21:38.000Z</time>
      </trkpt>
      <trkpt lat="59.0864038467" lon="30.0225019455">
        <time>2026-04-22T10:21:41.000Z</time>
      </trkpt>
      <trkpt lat="59.0863823891" lon="30.0225019455">
        <time>2026-04-22T10:21:43.000Z</time>
      </trkpt>
      <trkpt lat="59.0863609314" lon="30.0225019455">
        <time>2026-04-22T10:21:46.000Z</time>
      </trkpt>
      <trkpt lat="59.0863180161" lon="30.0225234032">
        <time>2026-04-22T10:21:48.000Z</time>
      </trkpt>
      <trkpt lat="59.0862751007" lon="30.0225019455">
        <time>2026-04-22T10:21:51.000Z</time>
      </trkpt>
      <trkpt lat="59.0862751007" lon="30.0225019455">
        <time>2026-04-22T10:21:53.000Z</time>
      </trkpt>
      <trkpt lat="59.086253643" lon="30.0224804878">
        <time>2026-04-22T10:21:56.000Z</time>
      </trkpt>
      <trkpt lat="59.0862321854" lon="30.0224590302">
        <time>2026-04-22T10:21:58.000Z</time>
      </trkpt>
      <trkpt lat="59.08618927" lon="30.0225234032">
        <time>2026-04-22T10:22:01.000Z</time>
      </trkpt>
      <trkpt lat="59.0861678123" lon="30.0225663185">
        <time>2026-04-22T10:22:03.000Z</time>
      </trkpt>
      <trkpt lat="59.0861678123" lon="30.0225877762">
        <time>2026-04-22T10:22:06.000Z</time>
      </trkpt>
      <trkpt lat="59.0861463547" lon="30.0226306915">
        <time>2026-04-22T10:22:08.000Z</time>
      </trkpt>
      <trkpt lat="59.086124897" lon="30.0226092339">
        <time>2026-04-22T10:22:11.000Z</time>
      </trkpt>
      <trkpt lat="59.0861034393" lon="30.0225877762">
        <time>2026-04-22T10:22:13.000Z</time>
      </trkpt>
      <trkpt lat="59.0860819817" lon="30.0226306915">
        <time>2026-04-22T10:22:16.000Z</time>
      </trkpt>
      <trkpt lat="59.0860819817" lon="30.0226736069">
        <time>2026-04-22T10:22:18.000Z</time>
      </trkpt>
      <trkpt lat="59.0861034393" lon="30.0226736069">
        <time>2026-04-22T10:22:21.000Z</time>
      </trkpt>
      <trkpt lat="59.085996151" lon="30.0226306915">
        <time>2026-04-22T10:22:26.000Z</time>
      </trkpt>
      <trkpt lat="59.0859746933" lon="30.0226306915">
        <time>2026-04-22T10:22:28.000Z</time>
      </trkpt>
      <trkpt lat="59.0859532356" lon="30.0226092339">
        <time>2026-04-22T10:22:31.000Z</time>
      </trkpt>
      <trkpt lat="59.085931778" lon="30.0225877762">
        <time>2026-04-22T10:22:33.000Z</time>
      </trkpt>
      <trkpt lat="59.0858888626" lon="30.0225663185">
        <time>2026-04-22T10:22:36.000Z</time>
      </trkpt>
      <trkpt lat="59.0858459473" lon="30.0225877762">
        <time>2026-04-22T10:22:38.000Z</time>
      </trkpt>
      <trkpt lat="59.0858459473" lon="30.0226306915">
        <time>2026-04-22T10:22:41.000Z</time>
      </trkpt>
      <trkpt lat="59.0858459473" lon="30.0226950645">
        <time>2026-04-22T10:22:43.000Z</time>
      </trkpt>
      <trkpt lat="59.0858030319" lon="30.0227379799">
        <time>2026-04-22T10:22:46.000Z</time>
      </trkpt>
      <trkpt lat="59.0857815742" lon="30.0227379799">
        <time>2026-04-22T10:22:48.000Z</time>
      </trkpt>
      <trkpt lat="59.0857172012" lon="30.0227594376">
        <time>2026-04-22T10:22:51.000Z</time>
      </trkpt>
      <trkpt lat="59.0856742859" lon="30.0227808952">
        <time>2026-04-22T10:22:53.000Z</time>
      </trkpt>
      <trkpt lat="59.0856099129" lon="30.0228238106">
        <time>2026-04-22T10:22:56.000Z</time>
      </trkpt>
      <trkpt lat="59.0855669975" lon="30.0228667259">
        <time>2026-04-22T10:22:58.000Z</time>
      </trkpt>
      <trkpt lat="59.0855240822" lon="30.0228881836">
        <time>2026-04-22T10:23:01.000Z</time>
      </trkpt>
      <trkpt lat="59.0855026245" lon="30.0228238106">
        <time>2026-04-22T10:23:03.000Z</time>
      </trkpt>
      <trkpt lat="59.0855026245" lon="30.0227808952">
        <time>2026-04-22T10:23:06.000Z</time>
      </trkpt>
      <trkpt lat="59.0855026245" lon="30.0228023529">
        <time>2026-04-22T10:23:08.000Z</time>
      </trkpt>
      <trkpt lat="59.0855026245" lon="30.0228023529">
        <time>2026-04-22T10:23:11.000Z</time>
      </trkpt>
      <trkpt lat="59.0855026245" lon="30.0228023529">
        <time>2026-04-22T10:23:13.000Z</time>
      </trkpt>
      <trkpt lat="59.0855026245" lon="30.0228023529">
        <time>2026-04-22T10:23:16.000Z</time>
      </trkpt>
      <trkpt lat="59.0854811668" lon="30.0228238106">
        <time>2026-04-22T10:23:18.000Z</time>
      </trkpt>
      <trkpt lat="59.0854597092" lon="30.0228238106">
        <time>2026-04-22T10:23:21.000Z</time>
      </trkpt>
      <trkpt lat="59.0854167938" lon="30.0228452682">
        <time>2026-04-22T10:23:23.000Z</time>
      </trkpt>
      <trkpt lat="59.0853738785" lon="30.0228023529">
        <time>2026-04-22T10:23:26.000Z</time>
      </trkpt>
      <trkpt lat="59.0853309631" lon="30.0227594376">
        <time>2026-04-22T10:23:28.000Z</time>
      </trkpt>
      <trkpt lat="59.0853095055" lon="30.0227379799">
        <time>2026-04-22T10:23:31.000Z</time>
      </trkpt>
      <trkpt lat="59.0852880478" lon="30.0228023529">
        <time>2026-04-22T10:23:33.000Z</time>
      </trkpt>
      <trkpt lat="59.0852880478" lon="30.0228667259">
        <time>2026-04-22T10:23:36.000Z</time>
      </trkpt>
      <trkpt lat="59.0852665901" lon="30.0229310989">
        <time>2026-04-22T10:23:38.000Z</time>
      </trkpt>
      <trkpt lat="59.0852022171" lon="30.0229740143">
        <time>2026-04-22T10:23:41.000Z</time>
      </trkpt>
      <trkpt lat="59.0851593018" lon="30.022995472">
        <time>2026-04-22T10:23:43.000Z</time>
      </trkpt>
      <trkpt lat="59.0851163864" lon="30.0229525566">
        <time>2026-04-22T10:23:46.000Z</time>
      </trkpt>
      <trkpt lat="59.0851163864" lon="30.0228881836">
        <time>2026-04-22T10:23:48.000Z</time>
      </trkpt>
      <trkpt lat="59.0851163864" lon="30.022995472">
        <time>2026-04-22T10:23:51.000Z</time>
      </trkpt>
      <trkpt lat="59.0851163864" lon="30.023059845">
        <time>2026-04-22T10:23:53.000Z</time>
      </trkpt>
      <trkpt lat="59.0851163864" lon="30.023059845">
        <time>2026-04-22T10:23:56.000Z</time>
      </trkpt>
      <trkpt lat="59.0850734711" lon="30.0230383873">
        <time>2026-04-22T10:23:58.000Z</time>
      </trkpt>
      <trkpt lat="59.0850305557" lon="30.0229740143">
        <time>2026-04-22T10:24:01.000Z</time>
      </trkpt>
      <trkpt lat="59.0850090981" lon="30.0229525566">
        <time>2026-04-22T10:24:03.000Z</time>
      </trkpt>
      <trkpt lat="59.0850090981" lon="30.0229096413">
        <time>2026-04-22T10:24:06.000Z</time>
      </trkpt>
      <trkpt lat="59.0850090981" lon="30.0229096413">
        <time>2026-04-22T10:24:08.000Z</time>
      </trkpt>
      <trkpt lat="59.0849876404" lon="30.0229310989">
        <time>2026-04-22T10:24:11.000Z</time>
      </trkpt>
      <trkpt lat="59.0849661827" lon="30.0229310989">
        <time>2026-04-22T10:24:13.000Z</time>
      </trkpt>
      <trkpt lat="59.0849661827" lon="30.0229310989">
        <time>2026-04-22T10:24:16.000Z</time>
      </trkpt>
      <trkpt lat="59.084944725" lon="30.022995472">
        <time>2026-04-22T10:24:18.000Z</time>
      </trkpt>
      <trkpt lat="59.0849018097" lon="30.0230383873">
        <time>2026-04-22T10:24:21.000Z</time>
      </trkpt>
      <trkpt lat="59.084880352" lon="30.0230169296">
        <time>2026-04-22T10:24:23.000Z</time>
      </trkpt>
      <trkpt lat="59.0848588943" lon="30.023059845">
        <time>2026-04-22T10:24:26.000Z</time>
      </trkpt>
      <trkpt lat="59.0848588943" lon="30.0230813026">
        <time>2026-04-22T10:24:28.000Z</time>
      </trkpt>
      <trkpt lat="59.0848588943" lon="30.0230383873">
        <time>2026-04-22T10:24:31.000Z</time>
      </trkpt>
      <trkpt lat="59.0848374367" lon="30.0230383873">
        <time>2026-04-22T10:24:33.000Z</time>
      </trkpt>
      <trkpt lat="59.0848374367" lon="30.0230383873">
        <time>2026-04-22T10:24:36.000Z</time>
      </trkpt>
      <trkpt lat="59.0848374367" lon="30.0230383873">
        <time>2026-04-22T10:24:38.000Z</time>
      </trkpt>
      <trkpt lat="59.0848374367" lon="30.0230383873">
        <time>2026-04-22T10:24:41.000Z</time>
      </trkpt>
      <trkpt lat="59.0847945213" lon="30.0230383873">
        <time>2026-04-22T10:24:43.000Z</time>
      </trkpt>
      <trkpt lat="59.0847945213" lon="30.0230383873">
        <time>2026-04-22T10:24:46.000Z</time>
      </trkpt>
      <trkpt lat="59.0847730637" lon="30.0230169296">
        <time>2026-04-22T10:24:48.000Z</time>
      </trkpt>
      <trkpt lat="59.0847730637" lon="30.0230383873">
        <time>2026-04-22T10:24:51.000Z</time>
      </trkpt>
      <trkpt lat="59.0847730637" lon="30.0230383873">
        <time>2026-04-22T10:24:53.000Z</time>
      </trkpt>
      <trkpt lat="59.0847730637" lon="30.0230383873">
        <time>2026-04-22T10:24:56.000Z</time>
      </trkpt>
      <trkpt lat="59.0847730637" lon="30.0230383873">
        <time>2026-04-22T10:24:58.000Z</time>
      </trkpt>
      <trkpt lat="59.0847730637" lon="30.0230383873">
        <time>2026-04-22T10:25:01.000Z</time>
      </trkpt>
      <trkpt lat="59.0847730637" lon="30.0230383873">
        <time>2026-04-22T10:25:03.000Z</time>
      </trkpt>
      <trkpt lat="59.0847945213" lon="30.0230813026">
        <time>2026-04-22T10:25:06.000Z</time>
      </trkpt>
      <trkpt lat="59.0847945213" lon="30.0230813026">
        <time>2026-04-22T10:25:08.000Z</time>
      </trkpt>
      <trkpt lat="59.0847945213" lon="30.0230813026">
        <time>2026-04-22T10:25:11.000Z</time>
      </trkpt>
      <trkpt lat="59.0847945213" lon="30.0230813026">
        <time>2026-04-22T10:25:13.000Z</time>
      </trkpt>
      <trkpt lat="59.0847945213" lon="30.0230813026">
        <time>2026-04-22T10:25:16.000Z</time>
      </trkpt>
      <trkpt lat="59.084751606" lon="30.0231456757">
        <time>2026-04-22T10:25:18.000Z</time>
      </trkpt>
      <trkpt lat="59.0847086906" lon="30.0232100487">
        <time>2026-04-22T10:25:21.000Z</time>
      </trkpt>
      <trkpt lat="59.084687233" lon="30.0231671333">
        <time>2026-04-22T10:25:23.000Z</time>
      </trkpt>
      <trkpt lat="59.0846443176" lon="30.0231671333">
        <time>2026-04-22T10:25:26.000Z</time>
      </trkpt>
      <trkpt lat="59.08462286" lon="30.023124218">
        <time>2026-04-22T10:25:28.000Z</time>
      </trkpt>
      <trkpt lat="59.0846014023" lon="30.0231027603">
        <time>2026-04-22T10:25:31.000Z</time>
      </trkpt>
      <trkpt lat="59.08462286" lon="30.0231456757">
        <time>2026-04-22T10:25:33.000Z</time>
      </trkpt>
      <trkpt lat="59.08462286" lon="30.0232315063">
        <time>2026-04-22T10:25:36.000Z</time>
      </trkpt>
      <trkpt lat="59.0845799446" lon="30.0232744217">
        <time>2026-04-22T10:25:38.000Z</time>
      </trkpt>
      <trkpt lat="59.0845584869" lon="30.0232315063">
        <time>2026-04-22T10:25:41.000Z</time>
      </trkpt>
      <trkpt lat="59.0845584869" lon="30.023252964">
        <time>2026-04-22T10:25:43.000Z</time>
      </trkpt>
      <trkpt lat="59.0845370293" lon="30.023317337">
        <time>2026-04-22T10:25:46.000Z</time>
      </trkpt>
      <trkpt lat="59.0845370293" lon="30.0233387947">
        <time>2026-04-22T10:25:48.000Z</time>
      </trkpt>
      <trkpt lat="59.0844941139" lon="30.0233817101">
        <time>2026-04-22T10:25:51.000Z</time>
      </trkpt>
      <trkpt lat="59.0844726562" lon="30.0234460831">
        <time>2026-04-22T10:25:53.000Z</time>
      </trkpt>
      <trkpt lat="59.0844941139" lon="30.0235104561">
        <time>2026-04-22T10:25:56.000Z</time>
      </trkpt>
      <trkpt lat="59.0844726562" lon="30.0235533714">
        <time>2026-04-22T10:25:58.000Z</time>
      </trkpt>
      <trkpt lat="59.0844726562" lon="30.0235319138">
        <time>2026-04-22T10:26:01.000Z</time>
      </trkpt>
      <trkpt lat="59.0844726562" lon="30.0235319138">
        <time>2026-04-22T10:26:03.000Z</time>
      </trkpt>
      <trkpt lat="59.0844082832" lon="30.0235962868">
        <time>2026-04-22T10:26:06.000Z</time>
      </trkpt>
      <trkpt lat="59.0844082832" lon="30.0236606598">
        <time>2026-04-22T10:26:08.000Z</time>
      </trkpt>
      <trkpt lat="59.0843868256" lon="30.0237250328">
        <time>2026-04-22T10:26:11.000Z</time>
      </trkpt>
      <trkpt lat="59.0843653679" lon="30.0236821175">
        <time>2026-04-22T10:26:13.000Z</time>
      </trkpt>
      <trkpt lat="59.0843653679" lon="30.0236177444">
        <time>2026-04-22T10:26:16.000Z</time>
      </trkpt>
      <trkpt lat="59.0843653679" lon="30.0235533714">
        <time>2026-04-22T10:26:18.000Z</time>
      </trkpt>
      <trkpt lat="59.0844082832" lon="30.0235319138">
        <time>2026-04-22T10:26:21.000Z</time>
      </trkpt>
      <trkpt lat="59.0843868256" lon="30.0234675407">
        <time>2026-04-22T10:26:23.000Z</time>
      </trkpt>
      <trkpt lat="59.0843653679" lon="30.0234246254">
        <time>2026-04-22T10:26:26.000Z</time>
      </trkpt>
      <trkpt lat="59.0843439102" lon="30.0234031677">
        <time>2026-04-22T10:26:28.000Z</time>
      </trkpt>
      <trkpt lat="59.0843224525" lon="30.0233817101">
        <time>2026-04-22T10:26:31.000Z</time>
      </trkpt>
      <trkpt lat="59.0843224525" lon="30.0233602524">
        <time>2026-04-22T10:26:33.000Z</time>
      </trkpt>
      <trkpt lat="59.0843009949" lon="30.0232958794">
        <time>2026-04-22T10:26:36.000Z</time>
      </trkpt>
      <trkpt lat="59.0843009949" lon="30.0232315063">
        <time>2026-04-22T10:26:38.000Z</time>
      </trkpt>
      <trkpt lat="59.0843009949" lon="30.023188591">
        <time>2026-04-22T10:26:41.000Z</time>
      </trkpt>
      <trkpt lat="59.0843009949" lon="30.0231671333">
        <time>2026-04-22T10:26:43.000Z</time>
      </trkpt>
      <trkpt lat="59.0843009949" lon="30.0232100487">
        <time>2026-04-22T10:26:46.000Z</time>
      </trkpt>
      <trkpt lat="59.0842795372" lon="30.0232744217">
        <time>2026-04-22T10:26:48.000Z</time>
      </trkpt>
      <trkpt lat="59.0842366219" lon="30.0232744217">
        <time>2026-04-22T10:26:51.000Z</time>
      </trkpt>
      <trkpt lat="59.0842151642" lon="30.0232958794">
        <time>2026-04-22T10:26:53.000Z</time>
      </trkpt>
      <trkpt lat="59.0841937065" lon="30.0232958794">
        <time>2026-04-22T10:26:56.000Z</time>
      </trkpt>
      <trkpt lat="59.0841722488" lon="30.0232744217">
        <time>2026-04-22T10:26:58.000Z</time>
      </trkpt>
      <trkpt lat="59.0841722488" lon="30.023252964">
        <time>2026-04-22T10:27:01.000Z</time>
      </trkpt>
      <trkpt lat="59.0841722488" lon="30.023252964">
        <time>2026-04-22T10:27:03.000Z</time>
      </trkpt>
      <trkpt lat="59.0841293335" lon="30.0232315063">
        <time>2026-04-22T10:27:06.000Z</time>
      </trkpt>
      <trkpt lat="59.0841078758" lon="30.023188591">
        <time>2026-04-22T10:27:08.000Z</time>
      </trkpt>
      <trkpt lat="59.0841078758" lon="30.023124218">
        <time>2026-04-22T10:27:11.000Z</time>
      </trkpt>
      <trkpt lat="59.0840864182" lon="30.0230813026">
        <time>2026-04-22T10:27:13.000Z</time>
      </trkpt>
      <trkpt lat="59.0840864182" lon="30.0230383873">
        <time>2026-04-22T10:27:16.000Z</time>
      </trkpt>
      <trkpt lat="59.0840435028" lon="30.0230169296">
        <time>2026-04-22T10:27:18.000Z</time>
      </trkpt>
      <trkpt lat="59.0840220451" lon="30.0229740143">
        <time>2026-04-22T10:27:21.000Z</time>
      </trkpt>
      <trkpt lat="59.0840005875" lon="30.0229096413">
        <time>2026-04-22T10:27:23.000Z</time>
      </trkpt>
      <trkpt lat="59.0840005875" lon="30.0228452682">
        <time>2026-04-22T10:27:26.000Z</time>
      </trkpt>
      <trkpt lat="59.0840005875" lon="30.0228023529">
        <time>2026-04-22T10:27:28.000Z</time>
      </trkpt>
      <trkpt lat="59.0840005875" lon="30.0228452682">
        <time>2026-04-22T10:27:31.000Z</time>
      </trkpt>
      <trkpt lat="59.0840005875" lon="30.0229096413">
        <time>2026-04-22T10:27:33.000Z</time>
      </trkpt>
      <trkpt lat="59.0840005875" lon="30.022995472">
        <time>2026-04-22T10:27:36.000Z</time>
      </trkpt>
      <trkpt lat="59.0840005875" lon="30.0230813026">
        <time>2026-04-22T10:27:38.000Z</time>
      </trkpt>
      <trkpt lat="59.0840005875" lon="30.0232315063">
        <time>2026-04-22T10:27:41.000Z</time>
      </trkpt>
      <trkpt lat="59.0840005875" lon="30.0233387947">
        <time>2026-04-22T10:27:43.000Z</time>
      </trkpt>
      <trkpt lat="59.0840005875" lon="30.0233817101">
        <time>2026-04-22T10:27:46.000Z</time>
      </trkpt>
      <trkpt lat="59.0839791298" lon="30.0234246254">
        <time>2026-04-22T10:27:48.000Z</time>
      </trkpt>
      <trkpt lat="59.0839791298" lon="30.0234675407">
        <time>2026-04-22T10:27:51.000Z</time>
      </trkpt>
      <trkpt lat="59.0839791298" lon="30.0234675407">
        <time>2026-04-22T10:27:53.000Z</time>
      </trkpt>
      <trkpt lat="59.0839576721" lon="30.0234460831">
        <time>2026-04-22T10:27:56.000Z</time>
      </trkpt>
      <trkpt lat="59.0839147568" lon="30.0234460831">
        <time>2026-04-22T10:27:58.000Z</time>
      </trkpt>
      <trkpt lat="59.0838932991" lon="30.0234675407">
        <time>2026-04-22T10:28:01.000Z</time>
      </trkpt>
      <trkpt lat="59.0838718414" lon="30.0234889984">
        <time>2026-04-22T10:28:03.000Z</time>
      </trkpt>
      <trkpt lat="59.0838718414" lon="30.0235104561">
        <time>2026-04-22T10:28:06.000Z</time>
      </trkpt>
      <trkpt lat="59.0838718414" lon="30.0235104561">
        <time>2026-04-22T10:28:08.000Z</time>
      </trkpt>
      <trkpt lat="59.0838289261" lon="30.0235319138">
        <time>2026-04-22T10:28:11.000Z</time>
      </trkpt>
      <trkpt lat="59.0838074684" lon="30.0235319138">
        <time>2026-04-22T10:28:13.000Z</time>
      </trkpt>
      <trkpt lat="59.0837860107" lon="30.0235319138">
        <time>2026-04-22T10:28:16.000Z</time>
      </trkpt>
      <trkpt lat="59.0837645531" lon="30.0235104561">
        <time>2026-04-22T10:28:18.000Z</time>
      </trkpt>
      <trkpt lat="59.0837430954" lon="30.0235319138">
        <time>2026-04-22T10:28:21.000Z</time>
      </trkpt>
      <trkpt lat="59.0837001801" lon="30.0235319138">
        <time>2026-04-22T10:28:23.000Z</time>
      </trkpt>
      <trkpt lat="59.0837001801" lon="30.0235319138">
        <time>2026-04-22T10:28:26.000Z</time>
      </trkpt>
      <trkpt lat="59.0836787224" lon="30.0235962868">
        <time>2026-04-22T10:28:28.000Z</time>
      </trkpt>
      <trkpt lat="59.0836787224" lon="30.0236392021">
        <time>2026-04-22T10:28:31.000Z</time>
      </trkpt>
      <trkpt lat="59.083635807" lon="30.0236606598">
        <time>2026-04-22T10:28:33.000Z</time>
      </trkpt>
      <trkpt lat="59.0836143494" lon="30.0237250328">
        <time>2026-04-22T10:28:36.000Z</time>
      </trkpt>
      <trkpt lat="59.083571434" lon="30.0237679482">
        <time>2026-04-22T10:28:38.000Z</time>
      </trkpt>
      <trkpt lat="59.0835499763" lon="30.0237894058">
        <time>2026-04-22T10:28:41.000Z</time>
      </trkpt>
      <trkpt lat="59.083507061" lon="30.0238108635">
        <time>2026-04-22T10:28:43.000Z</time>
      </trkpt>
      <trkpt lat="59.0834856033" lon="30.0237894058">
        <time>2026-04-22T10:28:46.000Z</time>
      </trkpt>
      <trkpt lat="59.0834856033" lon="30.0237464905">
        <time>2026-04-22T10:28:48.000Z</time>
      </trkpt>
      <trkpt lat="59.0834856033" lon="30.0237035751">
        <time>2026-04-22T10:28:51.000Z</time>
      </trkpt>
      <trkpt lat="59.0834856033" lon="30.0236821175">
        <time>2026-04-22T10:28:53.000Z</time>
      </trkpt>
      <trkpt lat="59.0834856033" lon="30.0236821175">
        <time>2026-04-22T10:28:56.000Z</time>
      </trkpt>
      <trkpt lat="59.0834856033" lon="30.0236821175">
        <time>2026-04-22T10:28:58.000Z</time>
      </trkpt>
      <trkpt lat="59.0834212303" lon="30.0236821175">
        <time>2026-04-22T10:29:01.000Z</time>
      </trkpt>
      <trkpt lat="59.083378315" lon="30.0237035751">
        <time>2026-04-22T10:29:03.000Z</time>
      </trkpt>
      <trkpt lat="59.0833568573" lon="30.0237464905">
        <time>2026-04-22T10:29:06.000Z</time>
      </trkpt>
      <trkpt lat="59.083313942" lon="30.0237035751">
        <time>2026-04-22T10:29:08.000Z</time>
      </trkpt>
      <trkpt lat="59.0833568573" lon="30.0237250328">
        <time>2026-04-22T10:29:11.000Z</time>
      </trkpt>
      <trkpt lat="59.083378315" lon="30.0237894058">
        <time>2026-04-22T10:29:13.000Z</time>
      </trkpt>
      <trkpt lat="59.0833997726" lon="30.0238108635">
        <time>2026-04-22T10:29:16.000Z</time>
      </trkpt>
      <trkpt lat="59.0833568573" lon="30.0238537788">
        <time>2026-04-22T10:29:18.000Z</time>
      </trkpt>
      <trkpt lat="59.083313942" lon="30.0238966942">
        <time>2026-04-22T10:29:21.000Z</time>
      </trkpt>
      <trkpt lat="59.0832710266" lon="30.0239181519">
        <time>2026-04-22T10:29:23.000Z</time>
      </trkpt>
      <trkpt lat="59.0832710266" lon="30.0238752365">
        <time>2026-04-22T10:29:26.000Z</time>
      </trkpt>
      <trkpt lat="59.0832281113" lon="30.0238108635">
        <time>2026-04-22T10:29:28.000Z</time>
      </trkpt>
      <trkpt lat="59.0832281113" lon="30.0238323212">
        <time>2026-04-22T10:29:31.000Z</time>
      </trkpt>
      <trkpt lat="59.0831851959" lon="30.0238108635">
        <time>2026-04-22T10:29:33.000Z</time>
      </trkpt>
      <trkpt lat="59.0831637383" lon="30.0238323212">
        <time>2026-04-22T10:29:36.000Z</time>
      </trkpt>
      <trkpt lat="59.0831422806" lon="30.0238108635">
        <time>2026-04-22T10:29:38.000Z</time>
      </trkpt>
      <trkpt lat="59.0831422806" lon="30.0238108635">
        <time>2026-04-22T10:29:41.000Z</time>
      </trkpt>
      <trkpt lat="59.0831208229" lon="30.0237894058">
        <time>2026-04-22T10:29:43.000Z</time>
      </trkpt>
      <trkpt lat="59.0830779076" lon="30.0237464905">
        <time>2026-04-22T10:29:46.000Z</time>
      </trkpt>
      <trkpt lat="59.0830349922" lon="30.0237464905">
        <time>2026-04-22T10:29:48.000Z</time>
      </trkpt>
      <trkpt lat="59.0829920769" lon="30.0237679482">
        <time>2026-04-22T10:29:51.000Z</time>
      </trkpt>
      <trkpt lat="59.0829706192" lon="30.0237464905">
        <time>2026-04-22T10:29:53.000Z</time>
      </trkpt>
      <trkpt lat="59.0829706192" lon="30.0237464905">
        <time>2026-04-22T10:29:56.000Z</time>
      </trkpt>
      <trkpt lat="59.0829491615" lon="30.0237679482">
        <time>2026-04-22T10:29:58.000Z</time>
      </trkpt>
      <trkpt lat="59.0829277039" lon="30.0237464905">
        <time>2026-04-22T10:30:01.000Z</time>
      </trkpt>
      <trkpt lat="59.0829277039" lon="30.0237464905">
        <time>2026-04-22T10:30:03.000Z</time>
      </trkpt>
      <trkpt lat="59.0829062462" lon="30.0237679482">
        <time>2026-04-22T10:30:06.000Z</time>
      </trkpt>
      <trkpt lat="59.0829062462" lon="30.0237679482">
        <time>2026-04-22T10:30:08.000Z</time>
      </trkpt>
      <trkpt lat="59.0829277039" lon="30.0237679482">
        <time>2026-04-22T10:30:11.000Z</time>
      </trkpt>
      <trkpt lat="59.0829277039" lon="30.0237679482">
        <time>2026-04-22T10:30:13.000Z</time>
      </trkpt>
      <trkpt lat="59.0829062462" lon="30.0237679482">
        <time>2026-04-22T10:30:16.000Z</time>
      </trkpt>
      <trkpt lat="59.0828204155" lon="30.0237464905">
        <time>2026-04-22T10:30:18.000Z</time>
      </trkpt>
      <trkpt lat="59.0827560425" lon="30.0236821175">
        <time>2026-04-22T10:30:21.000Z</time>
      </trkpt>
      <trkpt lat="59.0827131271" lon="30.0235962868">
        <time>2026-04-22T10:30:23.000Z</time>
      </trkpt>
      <trkpt lat="59.0826272964" lon="30.0235319138">
        <time>2026-04-22T10:30:26.000Z</time>
      </trkpt>
      <trkpt lat="59.0825843811" lon="30.0234889984">
        <time>2026-04-22T10:30:28.000Z</time>
      </trkpt>
      <trkpt lat="59.0825200081" lon="30.0234675407">
        <time>2026-04-22T10:30:31.000Z</time>
      </trkpt>
      <trkpt lat="59.0824770927" lon="30.0234889984">
        <time>2026-04-22T10:30:33.000Z</time>
      </trkpt>
      <trkpt lat="59.0824985504" lon="30.0235533714">
        <time>2026-04-22T10:30:36.000Z</time>
      </trkpt>
      <trkpt lat="59.0825200081" lon="30.0236177444">
        <time>2026-04-22T10:30:38.000Z</time>
      </trkpt>
      <trkpt lat="59.0825200081" lon="30.0236821175">
        <time>2026-04-22T10:30:41.000Z</time>
      </trkpt>
      <trkpt lat="59.0825414658" lon="30.0237250328">
        <time>2026-04-22T10:30:43.000Z</time>
      </trkpt>
      <trkpt lat="59.0825843811" lon="30.0237464905">
        <time>2026-04-22T10:30:46.000Z</time>
      </trkpt>
      <trkpt lat="59.0826058388" lon="30.0237679482">
        <time>2026-04-22T10:30:48.000Z</time>
      </trkpt>
      <trkpt lat="59.0826272964" lon="30.0237679482">
        <time>2026-04-22T10:30:51.000Z</time>
      </trkpt>
      <trkpt lat="59.0826272964" lon="30.0237679482">
        <time>2026-04-22T10:30:53.000Z</time>
      </trkpt>
      <trkpt lat="59.0826272964" lon="30.0237679482">
        <time>2026-04-22T10:30:56.000Z</time>
      </trkpt>
      <trkpt lat="59.0826272964" lon="30.0237679482">
        <time>2026-04-22T10:30:58.000Z</time>
      </trkpt>
      <trkpt lat="59.0826058388" lon="30.0237464905">
        <time>2026-04-22T10:31:01.000Z</time>
      </trkpt>
      <trkpt lat="59.0826058388" lon="30.0237250328">
        <time>2026-04-22T10:31:03.000Z</time>
      </trkpt>
      <trkpt lat="59.0826058388" lon="30.0237250328">
        <time>2026-04-22T10:31:06.000Z</time>
      </trkpt>
      <trkpt lat="59.0826058388" lon="30.0237035751">
        <time>2026-04-22T10:31:08.000Z</time>
      </trkpt>
      <trkpt lat="59.0826272964" lon="30.0236821175">
        <time>2026-04-22T10:31:11.000Z</time>
      </trkpt>
      <trkpt lat="59.0826272964" lon="30.0236606598">
        <time>2026-04-22T10:31:13.000Z</time>
      </trkpt>
      <trkpt lat="59.0826272964" lon="30.0236392021">
        <time>2026-04-22T10:31:16.000Z</time>
      </trkpt>
      <trkpt lat="59.0826272964" lon="30.0235962868">
        <time>2026-04-22T10:31:18.000Z</time>
      </trkpt>
      <trkpt lat="59.0826272964" lon="30.0235319138">
        <time>2026-04-22T10:31:21.000Z</time>
      </trkpt>
      <trkpt lat="59.0826272964" lon="30.0234675407">
        <time>2026-04-22T10:31:23.000Z</time>
      </trkpt>
      <trkpt lat="59.0826272964" lon="30.0233817101">
        <time>2026-04-22T10:31:26.000Z</time>
      </trkpt>
      <trkpt lat="59.0826272964" lon="30.0234031677">
        <time>2026-04-22T10:31:28.000Z</time>
      </trkpt>
      <trkpt lat="59.0826272964" lon="30.0233817101">
        <time>2026-04-22T10:31:31.000Z</time>
      </trkpt>
      <trkpt lat="59.0826272964" lon="30.0233817101">
        <time>2026-04-22T10:31:33.000Z</time>
      </trkpt>
      <trkpt lat="59.0826058388" lon="30.0234031677">
        <time>2026-04-22T10:31:36.000Z</time>
      </trkpt>
      <trkpt lat="59.0826058388" lon="30.0233817101">
        <time>2026-04-22T10:31:38.000Z</time>
      </trkpt>
      <trkpt lat="59.0826272964" lon="30.0232958794">
        <time>2026-04-22T10:31:41.000Z</time>
      </trkpt>
      <trkpt lat="59.0826487541" lon="30.0232100487">
        <time>2026-04-22T10:31:43.000Z</time>
      </trkpt>
      <trkpt lat="59.0826487541" lon="30.023124218">
        <time>2026-04-22T10:31:46.000Z</time>
      </trkpt>
      <trkpt lat="59.0826272964" lon="30.023059845">
        <time>2026-04-22T10:31:48.000Z</time>
      </trkpt>
      <trkpt lat="59.0826058388" lon="30.022995472">
        <time>2026-04-22T10:31:51.000Z</time>
      </trkpt>
      <trkpt lat="59.0825629234" lon="30.0229740143">
        <time>2026-04-22T10:31:53.000Z</time>
      </trkpt>
      <trkpt lat="59.0825414658" lon="30.0229525566">
        <time>2026-04-22T10:31:56.000Z</time>
      </trkpt>
      <trkpt lat="59.0825414658" lon="30.0229310989">
        <time>2026-04-22T10:31:58.000Z</time>
      </trkpt>
      <trkpt lat="59.0825414658" lon="30.0229310989">
        <time>2026-04-22T10:32:01.000Z</time>
      </trkpt>
      <trkpt lat="59.0825414658" lon="30.0229310989">
        <time>2026-04-22T10:32:03.000Z</time>
      </trkpt>
      <trkpt lat="59.0825629234" lon="30.0228238106">
        <time>2026-04-22T10:32:06.000Z</time>
      </trkpt>
      <trkpt lat="59.0825843811" lon="30.0227594376">
        <time>2026-04-22T10:32:08.000Z</time>
      </trkpt>
      <trkpt lat="59.0826058388" lon="30.0226736069">
        <time>2026-04-22T10:32:11.000Z</time>
      </trkpt>
      <trkpt lat="59.0826487541" lon="30.0226306915">
        <time>2026-04-22T10:32:13.000Z</time>
      </trkpt>
      <trkpt lat="59.0826487541" lon="30.0225663185">
        <time>2026-04-22T10:32:16.000Z</time>
      </trkpt>
      <trkpt lat="59.0826702118" lon="30.0225234032">
        <time>2026-04-22T10:32:18.000Z</time>
      </trkpt>
      <trkpt lat="59.0826702118" lon="30.0225234032">
        <time>2026-04-22T10:32:21.000Z</time>
      </trkpt>
      <trkpt lat="59.0826487541" lon="30.0225448608">
        <time>2026-04-22T10:32:23.000Z</time>
      </trkpt>
      <trkpt lat="59.0826487541" lon="30.0225448608">
        <time>2026-04-22T10:32:26.000Z</time>
      </trkpt>
      <trkpt lat="59.0826272964" lon="30.0225234032">
        <time>2026-04-22T10:32:28.000Z</time>
      </trkpt>
      <trkpt lat="59.0826058388" lon="30.0225448608">
        <time>2026-04-22T10:32:31.000Z</time>
      </trkpt>
      <trkpt lat="59.0826058388" lon="30.0224804878">
        <time>2026-04-22T10:32:33.000Z</time>
      </trkpt>
      <trkpt lat="59.0826058388" lon="30.0223946571">
        <time>2026-04-22T10:32:36.000Z</time>
      </trkpt>
      <trkpt lat="59.0826487541" lon="30.0223946571">
        <time>2026-04-22T10:32:38.000Z</time>
      </trkpt>
      <trkpt lat="59.0826487541" lon="30.0224804878">
        <time>2026-04-22T10:32:41.000Z</time>
      </trkpt>
      <trkpt lat="59.0827131271" lon="30.0225234032">
        <time>2026-04-22T10:32:43.000Z</time>
      </trkpt>
      <trkpt lat="59.0827345848" lon="30.0225234032">
        <time>2026-04-22T10:32:46.000Z</time>
      </trkpt>
      <trkpt lat="59.0827560425" lon="30.0225448608">
        <time>2026-04-22T10:32:48.000Z</time>
      </trkpt>
      <trkpt lat="59.0827989578" lon="30.0225448608">
        <time>2026-04-22T10:32:51.000Z</time>
      </trkpt>
      <trkpt lat="59.0828633308" lon="30.0225448608">
        <time>2026-04-22T10:32:53.000Z</time>
      </trkpt>
      <trkpt lat="59.0829062462" lon="30.0225877762">
        <time>2026-04-22T10:32:56.000Z</time>
      </trkpt>
      <trkpt lat="59.0829277039" lon="30.0225448608">
        <time>2026-04-22T10:32:58.000Z</time>
      </trkpt>
      <trkpt lat="59.0829277039" lon="30.0225019455">
        <time>2026-04-22T10:33:01.000Z</time>
      </trkpt>
      <trkpt lat="59.0829062462" lon="30.0224161148">
        <time>2026-04-22T10:33:03.000Z</time>
      </trkpt>
      <trkpt lat="59.0829062462" lon="30.0223517418">
        <time>2026-04-22T10:33:06.000Z</time>
      </trkpt>
      <trkpt lat="59.0829062462" lon="30.0223302841">
        <time>2026-04-22T10:33:08.000Z</time>
      </trkpt>
      <trkpt lat="59.0829277039" lon="30.0223517418">
        <time>2026-04-22T10:33:13.000Z</time>
      </trkpt>
      <trkpt lat="59.0829706192" lon="30.0223517418">
        <time>2026-04-22T10:33:16.000Z</time>
      </trkpt>
      <trkpt lat="59.0829706192" lon="30.0223302841">
        <time>2026-04-22T10:33:18.000Z</time>
      </trkpt>
      <trkpt lat="59.0830135345" lon="30.0223302841">
        <time>2026-04-22T10:33:21.000Z</time>
      </trkpt>
      <trkpt lat="59.0830349922" lon="30.0223088264">
        <time>2026-04-22T10:33:23.000Z</time>
      </trkpt>
      <trkpt lat="59.0830564499" lon="30.0223088264">
        <time>2026-04-22T10:33:26.000Z</time>
      </trkpt>
      <trkpt lat="59.0830564499" lon="30.0222873688">
        <time>2026-04-22T10:33:28.000Z</time>
      </trkpt>
      <trkpt lat="59.0830993652" lon="30.0222015381">
        <time>2026-04-22T10:33:31.000Z</time>
      </trkpt>
      <trkpt lat="59.0831208229" lon="30.0221800804">
        <time>2026-04-22T10:33:33.000Z</time>
      </trkpt>
      <trkpt lat="59.0831422806" lon="30.0221800804">
        <time>2026-04-22T10:33:36.000Z</time>
      </trkpt>
      <trkpt lat="59.0831422806" lon="30.0221800804">
        <time>2026-04-22T10:33:38.000Z</time>
      </trkpt>
      <trkpt lat="59.0831422806" lon="30.0222015381">
        <time>2026-04-22T10:33:41.000Z</time>
      </trkpt>
      <trkpt lat="59.0831637383" lon="30.0222659111">
        <time>2026-04-22T10:33:43.000Z</time>
      </trkpt>
      <trkpt lat="59.0831851959" lon="30.0222873688">
        <time>2026-04-22T10:33:46.000Z</time>
      </trkpt>
      <trkpt lat="59.0832066536" lon="30.0222659111">
        <time>2026-04-22T10:33:48.000Z</time>
      </trkpt>
      <trkpt lat="59.0832281113" lon="30.0222229958">
        <time>2026-04-22T10:33:51.000Z</time>
      </trkpt>
      <trkpt lat="59.0832495689" lon="30.0221800804">
        <time>2026-04-22T10:33:53.000Z</time>
      </trkpt>
      <trkpt lat="59.0832495689" lon="30.0222015381">
        <time>2026-04-22T10:33:56.000Z</time>
      </trkpt>
      <trkpt lat="59.0832495689" lon="30.0221800804">
        <time>2026-04-22T10:33:58.000Z</time>
      </trkpt>
      <trkpt lat="59.0832924843" lon="30.0221800804">
        <time>2026-04-22T10:34:01.000Z</time>
      </trkpt>
      <trkpt lat="59.0832924843" lon="30.0222229958">
        <time>2026-04-22T10:34:03.000Z</time>
      </trkpt>
      <trkpt lat="59.0832924843" lon="30.0222229958">
        <time>2026-04-22T10:34:06.000Z</time>
      </trkpt>
      <trkpt lat="59.0832924843" lon="30.0222229958">
        <time>2026-04-22T10:34:08.000Z</time>
      </trkpt>
      <trkpt lat="59.0832924843" lon="30.0222015381">
        <time>2026-04-22T10:34:11.000Z</time>
      </trkpt>
      <trkpt lat="59.0832710266" lon="30.0221800804">
        <time>2026-04-22T10:34:13.000Z</time>
      </trkpt>
      <trkpt lat="59.0832710266" lon="30.0221800804">
        <time>2026-04-22T10:34:16.000Z</time>
      </trkpt>
      <trkpt lat="59.0832924843" lon="30.0221800804">
        <time>2026-04-22T10:34:18.000Z</time>
      </trkpt>
      <trkpt lat="59.0832924843" lon="30.0221586227">
        <time>2026-04-22T10:34:21.000Z</time>
      </trkpt>
      <trkpt lat="59.083313942" lon="30.0221371651">
        <time>2026-04-22T10:34:23.000Z</time>
      </trkpt>
      <trkpt lat="59.0833353996" lon="30.0220727921">
        <time>2026-04-22T10:34:26.000Z</time>
      </trkpt>
      <trkpt lat="59.0833353996" lon="30.0220298767">
        <time>2026-04-22T10:34:28.000Z</time>
      </trkpt>
      <trkpt lat="59.0833568573" lon="30.0220298767">
        <time>2026-04-22T10:34:31.000Z</time>
      </trkpt>
      <trkpt lat="59.0833568573" lon="30.0219869614">
        <time>2026-04-22T10:34:33.000Z</time>
      </trkpt>
      <trkpt lat="59.0833568573" lon="30.0219011307">
        <time>2026-04-22T10:34:36.000Z</time>
      </trkpt>
      <trkpt lat="59.083378315" lon="30.0217938423">
        <time>2026-04-22T10:34:38.000Z</time>
      </trkpt>
      <trkpt lat="59.0834212303" lon="30.0217080116">
        <time>2026-04-22T10:34:41.000Z</time>
      </trkpt>
      <trkpt lat="59.0834641457" lon="30.0216436386">
        <time>2026-04-22T10:34:43.000Z</time>
      </trkpt>
      <trkpt lat="59.083442688" lon="30.0215792656">
        <time>2026-04-22T10:34:46.000Z</time>
      </trkpt>
      <trkpt lat="59.0833997726" lon="30.0215578079">
        <time>2026-04-22T10:34:48.000Z</time>
      </trkpt>
      <trkpt lat="59.083378315" lon="30.0214505196">
        <time>2026-04-22T10:34:51.000Z</time>
      </trkpt>
      <trkpt lat="59.0834212303" lon="30.0213003159">
        <time>2026-04-22T10:34:53.000Z</time>
      </trkpt>
      <trkpt lat="59.0833997726" lon="30.0211286545">
        <time>2026-04-22T10:34:56.000Z</time>
      </trkpt>
      <trkpt lat="59.0833997726" lon="30.0209355354">
        <time>2026-04-22T10:34:58.000Z</time>
      </trkpt>
      <trkpt lat="59.083378315" lon="30.0209355354">
        <time>2026-04-22T10:35:01.000Z</time>
      </trkpt>
      <trkpt lat="59.0833568573" lon="30.0209784508">
        <time>2026-04-22T10:35:03.000Z</time>
      </trkpt>
      <trkpt lat="59.0833997726" lon="30.0209999084">
        <time>2026-04-22T10:35:06.000Z</time>
      </trkpt>
      <trkpt lat="59.0833997726" lon="30.0210428238">
        <time>2026-04-22T10:35:08.000Z</time>
      </trkpt>
      <trkpt lat="59.0833997726" lon="30.0211501122">
        <time>2026-04-22T10:35:11.000Z</time>
      </trkpt>
      <trkpt lat="59.0834212303" lon="30.0212788582">
        <time>2026-04-22T10:35:13.000Z</time>
      </trkpt>
      <trkpt lat="59.0834212303" lon="30.0214505196">
        <time>2026-04-22T10:35:16.000Z</time>
      </trkpt>
      <trkpt lat="59.0834641457" lon="30.0215578079">
        <time>2026-04-22T10:35:18.000Z</time>
      </trkpt>
      <trkpt lat="59.083507061" lon="30.021686554">
        <time>2026-04-22T10:35:21.000Z</time>
      </trkpt>
      <trkpt lat="59.083507061" lon="30.0217938423">
        <time>2026-04-22T10:35:23.000Z</time>
      </trkpt>
      <trkpt lat="59.083507061" lon="30.0218367577">
        <time>2026-04-22T10:35:26.000Z</time>
      </trkpt>
      <trkpt lat="59.083507061" lon="30.021879673">
        <time>2026-04-22T10:35:28.000Z</time>
      </trkpt>
      <trkpt lat="59.083507061" lon="30.0219225883">
        <time>2026-04-22T10:35:31.000Z</time>
      </trkpt>
      <trkpt lat="59.0835285187" lon="30.0219655037">
        <time>2026-04-22T10:35:33.000Z</time>
      </trkpt>
      <trkpt lat="59.0835285187" lon="30.0219869614">
        <time>2026-04-22T10:35:36.000Z</time>
      </trkpt>
      <trkpt lat="59.0835285187" lon="30.0219869614">
        <time>2026-04-22T10:35:38.000Z</time>
      </trkpt>
      <trkpt lat="59.0835285187" lon="30.022008419">
        <time>2026-04-22T10:35:41.000Z</time>
      </trkpt>
      <trkpt lat="59.0835285187" lon="30.022008419">
        <time>2026-04-22T10:35:43.000Z</time>
      </trkpt>
      <trkpt lat="59.0835499763" lon="30.0220298767">
        <time>2026-04-22T10:35:46.000Z</time>
      </trkpt>
      <trkpt lat="59.0835499763" lon="30.0220513344">
        <time>2026-04-22T10:35:48.000Z</time>
      </trkpt>
      <trkpt lat="59.0835499763" lon="30.0220727921">
        <time>2026-04-22T10:35:51.000Z</time>
      </trkpt>
      <trkpt lat="59.0835499763" lon="30.0220727921">
        <time>2026-04-22T10:35:53.000Z</time>
      </trkpt>
      <trkpt lat="59.0835499763" lon="30.0220942497">
        <time>2026-04-22T10:35:56.000Z</time>
      </trkpt>
      <trkpt lat="59.0835499763" lon="30.0221371651">
        <time>2026-04-22T10:35:58.000Z</time>
      </trkpt>
      <trkpt lat="59.083571434" lon="30.0221586227">
        <time>2026-04-22T10:36:01.000Z</time>
      </trkpt>
      <trkpt lat="59.0835499763" lon="30.0221800804">
        <time>2026-04-22T10:36:03.000Z</time>
      </trkpt>
      <trkpt lat="59.083571434" lon="30.0222015381">
        <time>2026-04-22T10:36:06.000Z</time>
      </trkpt>
      <trkpt lat="59.083571434" lon="30.0222015381">
        <time>2026-04-22T10:36:08.000Z</time>
      </trkpt>
      <trkpt lat="59.083571434" lon="30.0221800804">
        <time>2026-04-22T10:36:11.000Z</time>
      </trkpt>
      <trkpt lat="59.083571434" lon="30.0221371651">
        <time>2026-04-22T10:36:13.000Z</time>
      </trkpt>
      <trkpt lat="59.0835928917" lon="30.0221586227">
        <time>2026-04-22T10:36:16.000Z</time>
      </trkpt>
      <trkpt lat="59.0835928917" lon="30.0221800804">
        <time>2026-04-22T10:36:18.000Z</time>
      </trkpt>
      <trkpt lat="59.0836143494" lon="30.0221800804">
        <time>2026-04-22T10:36:21.000Z</time>
      </trkpt>
      <trkpt lat="59.0836143494" lon="30.0222015381">
        <time>2026-04-22T10:36:23.000Z</time>
      </trkpt>
      <trkpt lat="59.083635807" lon="30.0222015381">
        <time>2026-04-22T10:36:26.000Z</time>
      </trkpt>
      <trkpt lat="59.083635807" lon="30.0222229958">
        <time>2026-04-22T10:36:28.000Z</time>
      </trkpt>
      <trkpt lat="59.0836572647" lon="30.0222229958">
        <time>2026-04-22T10:36:31.000Z</time>
      </trkpt>
      <trkpt lat="59.0836572647" lon="30.0222444534">
        <time>2026-04-22T10:36:33.000Z</time>
      </trkpt>
      <trkpt lat="59.0836787224" lon="30.0222659111">
        <time>2026-04-22T10:36:36.000Z</time>
      </trkpt>
      <trkpt lat="59.0836787224" lon="30.0222873688">
        <time>2026-04-22T10:36:38.000Z</time>
      </trkpt>
      <trkpt lat="59.0836787224" lon="30.0222659111">
        <time>2026-04-22T10:36:41.000Z</time>
      </trkpt>
      <trkpt lat="59.0837001801" lon="30.0222659111">
        <time>2026-04-22T10:36:43.000Z</time>
      </trkpt>
      <trkpt lat="59.0837001801" lon="30.0222659111">
        <time>2026-04-22T10:36:46.000Z</time>
      </trkpt>
      <trkpt lat="59.0837216377" lon="30.0222659111">
        <time>2026-04-22T10:36:48.000Z</time>
      </trkpt>
      <trkpt lat="59.0837216377" lon="30.0222659111">
        <time>2026-04-22T10:36:51.000Z</time>
      </trkpt>
      <trkpt lat="59.0837216377" lon="30.0222659111">
        <time>2026-04-22T10:36:53.000Z</time>
      </trkpt>
      <trkpt lat="59.0837216377" lon="30.0222873688">
        <time>2026-04-22T10:36:56.000Z</time>
      </trkpt>
      <trkpt lat="59.0837216377" lon="30.0223088264">
        <time>2026-04-22T10:36:58.000Z</time>
      </trkpt>
      <trkpt lat="59.0837216377" lon="30.0223517418">
        <time>2026-04-22T10:37:01.000Z</time>
      </trkpt>
      <trkpt lat="59.0837216377" lon="30.0223731995">
        <time>2026-04-22T10:37:03.000Z</time>
      </trkpt>
      <trkpt lat="59.0837430954" lon="30.0223946571">
        <time>2026-04-22T10:37:06.000Z</time>
      </trkpt>
      <trkpt lat="59.0837645531" lon="30.0224161148">
        <time>2026-04-22T10:37:08.000Z</time>
      </trkpt>
      <trkpt lat="59.0837645531" lon="30.0224161148">
        <time>2026-04-22T10:37:11.000Z</time>
      </trkpt>
      <trkpt lat="59.0837860107" lon="30.0224161148">
        <time>2026-04-22T10:37:13.000Z</time>
      </trkpt>
      <trkpt lat="59.0837860107" lon="30.0224161148">
        <time>2026-04-22T10:37:16.000Z</time>
      </trkpt>
      <trkpt lat="59.0837645531" lon="30.0224375725">
        <time>2026-04-22T10:37:18.000Z</time>
      </trkpt>
      <trkpt lat="59.0837860107" lon="30.0224161148">
        <time>2026-04-22T10:37:21.000Z</time>
      </trkpt>
      <trkpt lat="59.0837860107" lon="30.0223517418">
        <time>2026-04-22T10:37:23.000Z</time>
      </trkpt>
      <trkpt lat="59.0838074684" lon="30.0223517418">
        <time>2026-04-22T10:37:26.000Z</time>
      </trkpt>
      <trkpt lat="59.0838289261" lon="30.0223302841">
        <time>2026-04-22T10:37:28.000Z</time>
      </trkpt>
      <trkpt lat="59.0838503838" lon="30.0223302841">
        <time>2026-04-22T10:37:31.000Z</time>
      </trkpt>
      <trkpt lat="59.0838503838" lon="30.0223088264">
        <time>2026-04-22T10:37:33.000Z</time>
      </trkpt>
      <trkpt lat="59.0838503838" lon="30.0223302841">
        <time>2026-04-22T10:37:36.000Z</time>
      </trkpt>
      <trkpt lat="59.0838503838" lon="30.0223302841">
        <time>2026-04-22T10:37:38.000Z</time>
      </trkpt>
      <trkpt lat="59.0838503838" lon="30.0223517418">
        <time>2026-04-22T10:37:41.000Z</time>
      </trkpt>
      <trkpt lat="59.0838503838" lon="30.0223517418">
        <time>2026-04-22T10:37:43.000Z</time>
      </trkpt>
      <trkpt lat="59.0838718414" lon="30.0223731995">
        <time>2026-04-22T10:37:46.000Z</time>
      </trkpt>
      <trkpt lat="59.0838503838" lon="30.0223517418">
        <time>2026-04-22T10:37:48.000Z</time>
      </trkpt>
      <trkpt lat="59.0838503838" lon="30.0223517418">
        <time>2026-04-22T10:37:51.000Z</time>
      </trkpt>
      <trkpt lat="59.0838503838" lon="30.0223302841">
        <time>2026-04-22T10:37:53.000Z</time>
      </trkpt>
      <trkpt lat="59.0838932991" lon="30.0222444534">
        <time>2026-04-22T10:37:56.000Z</time>
      </trkpt>
      <trkpt lat="59.0839147568" lon="30.0221800804">
        <time>2026-04-22T10:37:58.000Z</time>
      </trkpt>
      <trkpt lat="59.0839362144" lon="30.0221586227">
        <time>2026-04-22T10:38:01.000Z</time>
      </trkpt>
      <trkpt lat="59.0839362144" lon="30.0221800804">
        <time>2026-04-22T10:38:03.000Z</time>
      </trkpt>
      <trkpt lat="59.0839576721" lon="30.0221586227">
        <time>2026-04-22T10:38:06.000Z</time>
      </trkpt>
      <trkpt lat="59.0840005875" lon="30.0221586227">
        <time>2026-04-22T10:38:08.000Z</time>
      </trkpt>
      <trkpt lat="59.0840220451" lon="30.0222229958">
        <time>2026-04-22T10:38:11.000Z</time>
      </trkpt>
      <trkpt lat="59.0840435028" lon="30.0222015381">
        <time>2026-04-22T10:38:13.000Z</time>
      </trkpt>
      <trkpt lat="59.0840649605" lon="30.0221157074">
        <time>2026-04-22T10:38:16.000Z</time>
      </trkpt>
      <trkpt lat="59.0840649605" lon="30.0220513344">
        <time>2026-04-22T10:38:18.000Z</time>
      </trkpt>
      <trkpt lat="59.0840435028" lon="30.0219869614">
        <time>2026-04-22T10:38:21.000Z</time>
      </trkpt>
      <trkpt lat="59.0840220451" lon="30.0219011307">
        <time>2026-04-22T10:38:23.000Z</time>
      </trkpt>
      <trkpt lat="59.0840005875" lon="30.021879673">
        <time>2026-04-22T10:38:26.000Z</time>
      </trkpt>
      <trkpt lat="59.0839791298" lon="30.0218153">
        <time>2026-04-22T10:38:28.000Z</time>
      </trkpt>
      <trkpt lat="59.0840005875" lon="30.0218367577">
        <time>2026-04-22T10:38:31.000Z</time>
      </trkpt>
      <trkpt lat="59.0840435028" lon="30.021879673">
        <time>2026-04-22T10:38:33.000Z</time>
      </trkpt>
      <trkpt lat="59.0841293335" lon="30.0219655037">
        <time>2026-04-22T10:38:36.000Z</time>
      </trkpt>
      <trkpt lat="59.0841722488" lon="30.0219869614">
        <time>2026-04-22T10:38:38.000Z</time>
      </trkpt>
      <trkpt lat="59.0842151642" lon="30.0219011307">
        <time>2026-04-22T10:38:41.000Z</time>
      </trkpt>
      <trkpt lat="59.0841937065" lon="30.0219011307">
        <time>2026-04-22T10:38:43.000Z</time>
      </trkpt>
      <trkpt lat="59.0841937065" lon="30.021879673">
        <time>2026-04-22T10:38:46.000Z</time>
      </trkpt>
      <trkpt lat="59.0841937065" lon="30.0218582153">
        <time>2026-04-22T10:38:48.000Z</time>
      </trkpt>
      <trkpt lat="59.0841937065" lon="30.0218367577">
        <time>2026-04-22T10:38:51.000Z</time>
      </trkpt>
      <trkpt lat="59.0841937065" lon="30.0217938423">
        <time>2026-04-22T10:38:53.000Z</time>
      </trkpt>
      <trkpt lat="59.0841722488" lon="30.0218367577">
        <time>2026-04-22T10:38:56.000Z</time>
      </trkpt>
      <trkpt lat="59.0841722488" lon="30.0218153">
        <time>2026-04-22T10:38:58.000Z</time>
      </trkpt>
      <trkpt lat="59.0841937065" lon="30.0218367577">
        <time>2026-04-22T10:39:01.000Z</time>
      </trkpt>
      <trkpt lat="59.0842151642" lon="30.0218582153">
        <time>2026-04-22T10:39:03.000Z</time>
      </trkpt>
      <trkpt lat="59.0842366219" lon="30.021879673">
        <time>2026-04-22T10:39:06.000Z</time>
      </trkpt>
      <trkpt lat="59.0842795372" lon="30.0218582153">
        <time>2026-04-22T10:39:08.000Z</time>
      </trkpt>
      <trkpt lat="59.0843224525" lon="30.0219225883">
        <time>2026-04-22T10:39:11.000Z</time>
      </trkpt>
      <trkpt lat="59.0843439102" lon="30.0219655037">
        <time>2026-04-22T10:39:13.000Z</time>
      </trkpt>
      <trkpt lat="59.0844082832" lon="30.0219869614">
        <time>2026-04-22T10:39:16.000Z</time>
      </trkpt>
      <trkpt lat="59.0844297409" lon="30.0219225883">
        <time>2026-04-22T10:39:18.000Z</time>
      </trkpt>
      <trkpt lat="59.0844082832" lon="30.0218153">
        <time>2026-04-22T10:39:21.000Z</time>
      </trkpt>
      <trkpt lat="59.0843868256" lon="30.0217723846">
        <time>2026-04-22T10:39:23.000Z</time>
      </trkpt>
      <trkpt lat="59.0843868256" lon="30.0217938423">
        <time>2026-04-22T10:39:26.000Z</time>
      </trkpt>
      <trkpt lat="59.0844082832" lon="30.0217938423">
        <time>2026-04-22T10:39:28.000Z</time>
      </trkpt>
      <trkpt lat="59.0844082832" lon="30.0218153">
        <time>2026-04-22T10:39:31.000Z</time>
      </trkpt>
      <trkpt lat="59.0844511986" lon="30.0218367577">
        <time>2026-04-22T10:39:33.000Z</time>
      </trkpt>
      <trkpt lat="59.0844726562" lon="30.0218582153">
        <time>2026-04-22T10:39:36.000Z</time>
      </trkpt>
      <trkpt lat="59.0844511986" lon="30.0218367577">
        <time>2026-04-22T10:39:38.000Z</time>
      </trkpt>
      <trkpt lat="59.0844511986" lon="30.0218582153">
        <time>2026-04-22T10:39:41.000Z</time>
      </trkpt>
      <trkpt lat="59.0844511986" lon="30.0218582153">
        <time>2026-04-22T10:39:43.000Z</time>
      </trkpt>
      <trkpt lat="59.0844511986" lon="30.0218582153">
        <time>2026-04-22T10:39:46.000Z</time>
      </trkpt>
      <trkpt lat="59.0844511986" lon="30.0218582153">
        <time>2026-04-22T10:39:48.000Z</time>
      </trkpt>
      <trkpt lat="59.0844941139" lon="30.0218367577">
        <time>2026-04-22T10:39:51.000Z</time>
      </trkpt>
      <trkpt lat="59.0845370293" lon="30.0218367577">
        <time>2026-04-22T10:39:53.000Z</time>
      </trkpt>
      <trkpt lat="59.0846014023" lon="30.0218153">
        <time>2026-04-22T10:39:56.000Z</time>
      </trkpt>
      <trkpt lat="59.0846443176" lon="30.0218153">
        <time>2026-04-22T10:39:58.000Z</time>
      </trkpt>
      <trkpt lat="59.0846443176" lon="30.0217938423">
        <time>2026-04-22T10:40:01.000Z</time>
      </trkpt>
      <trkpt lat="59.0846443176" lon="30.0217938423">
        <time>2026-04-22T10:40:03.000Z</time>
      </trkpt>
      <trkpt lat="59.0846443176" lon="30.0217723846">
        <time>2026-04-22T10:40:06.000Z</time>
      </trkpt>
      <trkpt lat="59.0846443176" lon="30.0217294693">
        <time>2026-04-22T10:40:08.000Z</time>
      </trkpt>
      <trkpt lat="59.0846657753" lon="30.021686554">
        <time>2026-04-22T10:40:11.000Z</time>
      </trkpt>
      <trkpt lat="59.084687233" lon="30.0216650963">
        <time>2026-04-22T10:40:13.000Z</time>
      </trkpt>
      <trkpt lat="59.084751606" lon="30.0216650963">
        <time>2026-04-22T10:40:16.000Z</time>
      </trkpt>
      <trkpt lat="59.084751606" lon="30.0216436386">
        <time>2026-04-22T10:40:18.000Z</time>
      </trkpt>
      <trkpt lat="59.084751606" lon="30.0216436386">
        <time>2026-04-22T10:40:21.000Z</time>
      </trkpt>
      <trkpt lat="59.0847301483" lon="30.0216436386">
        <time>2026-04-22T10:40:23.000Z</time>
      </trkpt>
      <trkpt lat="59.0847301483" lon="30.0216436386">
        <time>2026-04-22T10:40:26.000Z</time>
      </trkpt>
      <trkpt lat="59.0847301483" lon="30.0216436386">
        <time>2026-04-22T10:40:28.000Z</time>
      </trkpt>
      <trkpt lat="59.0847301483" lon="30.0216650963">
        <time>2026-04-22T10:40:31.000Z</time>
      </trkpt>
      <trkpt lat="59.0847086906" lon="30.0217080116">
        <time>2026-04-22T10:40:33.000Z</time>
      </trkpt>
      <trkpt lat="59.0847086906" lon="30.0217294693">
        <time>2026-04-22T10:40:36.000Z</time>
      </trkpt>
      <trkpt lat="59.084687233" lon="30.0217294693">
        <time>2026-04-22T10:40:38.000Z</time>
      </trkpt>
      <trkpt lat="59.0847086906" lon="30.0217080116">
        <time>2026-04-22T10:40:41.000Z</time>
      </trkpt>
      <trkpt lat="59.084751606" lon="30.0216436386">
        <time>2026-04-22T10:40:43.000Z</time>
      </trkpt>
      <trkpt lat="59.0847945213" lon="30.0216436386">
        <time>2026-04-22T10:40:46.000Z</time>
      </trkpt>
      <trkpt lat="59.084815979" lon="30.0216650963">
        <time>2026-04-22T10:40:48.000Z</time>
      </trkpt>
      <trkpt lat="59.084815979" lon="30.0216007233">
        <time>2026-04-22T10:40:51.000Z</time>
      </trkpt>
      <trkpt lat="59.084815979" lon="30.0215363503">
        <time>2026-04-22T10:40:53.000Z</time>
      </trkpt>
      <trkpt lat="59.0847730637" lon="30.0216007233">
        <time>2026-04-22T10:40:56.000Z</time>
      </trkpt>
      <trkpt lat="59.0847945213" lon="30.0216650963">
        <time>2026-04-22T10:40:58.000Z</time>
      </trkpt>
      <trkpt lat="59.0848374367" lon="30.0216650963">
        <time>2026-04-22T10:41:01.000Z</time>
      </trkpt>
      <trkpt lat="59.084880352" lon="30.0216650963">
        <time>2026-04-22T10:41:03.000Z</time>
      </trkpt>
      <trkpt lat="59.0848588943" lon="30.0216221809">
        <time>2026-04-22T10:41:06.000Z</time>
      </trkpt>
      <trkpt lat="59.084880352" lon="30.0216221809">
        <time>2026-04-22T10:41:08.000Z</time>
      </trkpt>
      <trkpt lat="59.084880352" lon="30.0215792656">
        <time>2026-04-22T10:41:11.000Z</time>
      </trkpt>
      <trkpt lat="59.084880352" lon="30.0216007233">
        <time>2026-04-22T10:41:13.000Z</time>
      </trkpt>
      <trkpt lat="59.0849018097" lon="30.0215792656">
        <time>2026-04-22T10:41:16.000Z</time>
      </trkpt>
      <trkpt lat="59.0849232674" lon="30.0215792656">
        <time>2026-04-22T10:41:18.000Z</time>
      </trkpt>
      <trkpt lat="59.0849876404" lon="30.0215792656">
        <time>2026-04-22T10:41:21.000Z</time>
      </trkpt>
      <trkpt lat="59.0850305557" lon="30.0215578079">
        <time>2026-04-22T10:41:23.000Z</time>
      </trkpt>
      <trkpt lat="59.0850520134" lon="30.0215792656">
        <time>2026-04-22T10:41:26.000Z</time>
      </trkpt>
      <trkpt lat="59.0850734711" lon="30.0215792656">
        <time>2026-04-22T10:41:28.000Z</time>
      </trkpt>
      <trkpt lat="59.0851163864" lon="30.0215578079">
        <time>2026-04-22T10:41:31.000Z</time>
      </trkpt>
      <trkpt lat="59.0851378441" lon="30.0215363503">
        <time>2026-04-22T10:41:33.000Z</time>
      </trkpt>
      <trkpt lat="59.0851593018" lon="30.0215363503">
        <time>2026-04-22T10:41:36.000Z</time>
      </trkpt>
      <trkpt lat="59.0851807594" lon="30.0215578079">
        <time>2026-04-22T10:41:38.000Z</time>
      </trkpt>
      <trkpt lat="59.0851807594" lon="30.0215363503">
        <time>2026-04-22T10:41:41.000Z</time>
      </trkpt>
      <trkpt lat="59.0851807594" lon="30.0215363503">
        <time>2026-04-22T10:41:43.000Z</time>
      </trkpt>
      <trkpt lat="59.0851807594" lon="30.0215363503">
        <time>2026-04-22T10:41:46.000Z</time>
      </trkpt>
      <trkpt lat="59.0851807594" lon="30.0215148926">
        <time>2026-04-22T10:41:48.000Z</time>
      </trkpt>
      <trkpt lat="59.0851593018" lon="30.0215363503">
        <time>2026-04-22T10:41:51.000Z</time>
      </trkpt>
      <trkpt lat="59.0851807594" lon="30.0215363503">
        <time>2026-04-22T10:41:53.000Z</time>
      </trkpt>
      <trkpt lat="59.0851807594" lon="30.0215578079">
        <time>2026-04-22T10:41:56.000Z</time>
      </trkpt>
      <trkpt lat="59.0851807594" lon="30.0215578079">
        <time>2026-04-22T10:41:58.000Z</time>
      </trkpt>
      <trkpt lat="59.0851807594" lon="30.0215792656">
        <time>2026-04-22T10:42:01.000Z</time>
      </trkpt>
      <trkpt lat="59.0851807594" lon="30.0215578079">
        <time>2026-04-22T10:42:03.000Z</time>
      </trkpt>
      <trkpt lat="59.0851807594" lon="30.0215578079">
        <time>2026-04-22T10:42:06.000Z</time>
      </trkpt>
      <trkpt lat="59.0851807594" lon="30.0215578079">
        <time>2026-04-22T10:42:08.000Z</time>
      </trkpt>
      <trkpt lat="59.0851807594" lon="30.0215578079">
        <time>2026-04-22T10:42:11.000Z</time>
      </trkpt>
      <trkpt lat="59.0852022171" lon="30.0215578079">
        <time>2026-04-22T10:42:13.000Z</time>
      </trkpt>
      <trkpt lat="59.0852236748" lon="30.0215792656">
        <time>2026-04-22T10:42:16.000Z</time>
      </trkpt>
      <trkpt lat="59.0852451324" lon="30.0215792656">
        <time>2026-04-22T10:42:18.000Z</time>
      </trkpt>
      <trkpt lat="59.0852236748" lon="30.0214719772">
        <time>2026-04-22T10:42:21.000Z</time>
      </trkpt>
      <trkpt lat="59.0852665901" lon="30.0213861465">
        <time>2026-04-22T10:42:23.000Z</time>
      </trkpt>
      <trkpt lat="59.0852880478" lon="30.0213217735">
        <time>2026-04-22T10:42:26.000Z</time>
      </trkpt>
      <trkpt lat="59.0853095055" lon="30.0212574005">
        <time>2026-04-22T10:42:28.000Z</time>
      </trkpt>
      <trkpt lat="59.0853095055" lon="30.0212574005">
        <time>2026-04-22T10:42:31.000Z</time>
      </trkpt>
      <trkpt lat="59.0853095055" lon="30.0212574005">
        <time>2026-04-22T10:42:33.000Z</time>
      </trkpt>
      <trkpt lat="59.0853095055" lon="30.0212359428">
        <time>2026-04-22T10:42:36.000Z</time>
      </trkpt>
      <trkpt lat="59.0853309631" lon="30.0212144852">
        <time>2026-04-22T10:42:38.000Z</time>
      </trkpt>
      <trkpt lat="59.0854167938" lon="30.0212144852">
        <time>2026-04-22T10:42:41.000Z</time>
      </trkpt>
      <trkpt lat="59.0854597092" lon="30.0212359428">
        <time>2026-04-22T10:42:43.000Z</time>
      </trkpt>
      <trkpt lat="59.0854811668" lon="30.0211930275">
        <time>2026-04-22T10:42:46.000Z</time>
      </trkpt>
      <trkpt lat="59.0855026245" lon="30.0212144852">
        <time>2026-04-22T10:42:48.000Z</time>
      </trkpt>
      <trkpt lat="59.0855240822" lon="30.0212359428">
        <time>2026-04-22T10:42:51.000Z</time>
      </trkpt>
      <trkpt lat="59.0855240822" lon="30.0213217735">
        <time>2026-04-22T10:42:53.000Z</time>
      </trkpt>
      <trkpt lat="59.0855669975" lon="30.0213646889">
        <time>2026-04-22T10:42:56.000Z</time>
      </trkpt>
      <trkpt lat="59.0855669975" lon="30.0214076042">
        <time>2026-04-22T10:42:58.000Z</time>
      </trkpt>
      <trkpt lat="59.0855669975" lon="30.0213646889">
        <time>2026-04-22T10:43:01.000Z</time>
      </trkpt>
      <trkpt lat="59.0855884552" lon="30.0213217735">
        <time>2026-04-22T10:43:03.000Z</time>
      </trkpt>
      <trkpt lat="59.0856313705" lon="30.0213646889">
        <time>2026-04-22T10:43:06.000Z</time>
      </trkpt>
      <trkpt lat="59.0856742859" lon="30.0214076042">
        <time>2026-04-22T10:43:08.000Z</time>
      </trkpt>
      <trkpt lat="59.0857172012" lon="30.0213646889">
        <time>2026-04-22T10:43:11.000Z</time>
      </trkpt>
      <trkpt lat="59.0857386589" lon="30.0213217735">
        <time>2026-04-22T10:43:13.000Z</time>
      </trkpt>
      <trkpt lat="59.0857815742" lon="30.0213217735">
        <time>2026-04-22T10:43:16.000Z</time>
      </trkpt>
      <trkpt lat="59.0858244896" lon="30.0213217735">
        <time>2026-04-22T10:43:18.000Z</time>
      </trkpt>
      <trkpt lat="59.0858674049" lon="30.0213432312">
        <time>2026-04-22T10:43:21.000Z</time>
      </trkpt>
      <trkpt lat="59.0858888626" lon="30.0213217735">
        <time>2026-04-22T10:43:23.000Z</time>
      </trkpt>
      <trkpt lat="59.0859103203" lon="30.0212788582">
        <time>2026-04-22T10:43:26.000Z</time>
      </trkpt>
      <trkpt lat="59.0859103203" lon="30.0212144852">
        <time>2026-04-22T10:43:28.000Z</time>
      </trkpt>
      <trkpt lat="59.0859103203" lon="30.0211501122">
        <time>2026-04-22T10:43:31.000Z</time>
      </trkpt>
      <trkpt lat="59.0859532356" lon="30.0210857391">
        <time>2026-04-22T10:43:33.000Z</time>
      </trkpt>
      <trkpt lat="59.0859746933" lon="30.0211071968">
        <time>2026-04-22T10:43:36.000Z</time>
      </trkpt>
      <trkpt lat="59.0860176086" lon="30.0211071968">
        <time>2026-04-22T10:43:38.000Z</time>
      </trkpt>
      <trkpt lat="59.0860390663" lon="30.0211286545">
        <time>2026-04-22T10:43:41.000Z</time>
      </trkpt>
      <trkpt lat="59.086060524" lon="30.0211715698">
        <time>2026-04-22T10:43:43.000Z</time>
      </trkpt>
      <trkpt lat="59.0860819817" lon="30.0211501122">
        <time>2026-04-22T10:43:46.000Z</time>
      </trkpt>
      <trkpt lat="59.0861034393" lon="30.0211501122">
        <time>2026-04-22T10:43:48.000Z</time>
      </trkpt>
      <trkpt lat="59.0860819817" lon="30.0211930275">
        <time>2026-04-22T10:43:51.000Z</time>
      </trkpt>
      <trkpt lat="59.0861034393" lon="30.0212144852">
        <time>2026-04-22T10:43:53.000Z</time>
      </trkpt>
      <trkpt lat="59.0861034393" lon="30.0212144852">
        <time>2026-04-22T10:43:56.000Z</time>
      </trkpt>
      <trkpt lat="59.0860819817" lon="30.0212359428">
        <time>2026-04-22T10:43:58.000Z</time>
      </trkpt>
      <trkpt lat="59.0860819817" lon="30.0212359428">
        <time>2026-04-22T10:44:01.000Z</time>
      </trkpt>
      <trkpt lat="59.0860819817" lon="30.0212359428">
        <time>2026-04-22T10:44:03.000Z</time>
      </trkpt>
      <trkpt lat="59.0860819817" lon="30.0212359428">
        <time>2026-04-22T10:44:06.000Z</time>
      </trkpt>
      <trkpt lat="59.0861034393" lon="30.0212574005">
        <time>2026-04-22T10:44:08.000Z</time>
      </trkpt>
      <trkpt lat="59.0861034393" lon="30.0212574005">
        <time>2026-04-22T10:44:11.000Z</time>
      </trkpt>
      <trkpt lat="59.0861034393" lon="30.0212788582">
        <time>2026-04-22T10:44:13.000Z</time>
      </trkpt>
      <trkpt lat="59.0861034393" lon="30.0212788582">
        <time>2026-04-22T10:44:16.000Z</time>
      </trkpt>
      <trkpt lat="59.0861034393" lon="30.0212788582">
        <time>2026-04-22T10:44:18.000Z</time>
      </trkpt>
      <trkpt lat="59.0861034393" lon="30.0212788582">
        <time>2026-04-22T10:44:21.000Z</time>
      </trkpt>
      <trkpt lat="59.0861034393" lon="30.0212788582">
        <time>2026-04-22T10:44:23.000Z</time>
      </trkpt>
      <trkpt lat="59.0861034393" lon="30.0212788582">
        <time>2026-04-22T10:44:26.000Z</time>
      </trkpt>
      <trkpt lat="59.0861034393" lon="30.0212788582">
        <time>2026-04-22T10:44:28.000Z</time>
      </trkpt>
      <trkpt lat="59.0861034393" lon="30.0212788582">
        <time>2026-04-22T10:44:31.000Z</time>
      </trkpt>
      <trkpt lat="59.0861034393" lon="30.0212788582">
        <time>2026-04-22T10:44:33.000Z</time>
      </trkpt>
      <trkpt lat="59.0861034393" lon="30.0212788582">
        <time>2026-04-22T10:44:36.000Z</time>
      </trkpt>
      <trkpt lat="59.0861034393" lon="30.0212788582">
        <time>2026-04-22T10:44:38.000Z</time>
      </trkpt>
      <trkpt lat="59.0861034393" lon="30.0212788582">
        <time>2026-04-22T10:44:41.000Z</time>
      </trkpt>
      <trkpt lat="59.0861034393" lon="30.0212788582">
        <time>2026-04-22T10:44:43.000Z</time>
      </trkpt>
      <trkpt lat="59.0861034393" lon="30.0212788582">
        <time>2026-04-22T10:44:46.000Z</time>
      </trkpt>
      <trkpt lat="59.0861034393" lon="30.0212788582">
        <time>2026-04-22T10:44:48.000Z</time>
      </trkpt>
      <trkpt lat="59.0861034393" lon="30.0213003159">
        <time>2026-04-22T10:44:51.000Z</time>
      </trkpt>
      <trkpt lat="59.086124897" lon="30.0213003159">
        <time>2026-04-22T10:44:53.000Z</time>
      </trkpt>
      <trkpt lat="59.086124897" lon="30.0213217735">
        <time>2026-04-22T10:44:56.000Z</time>
      </trkpt>
      <trkpt lat="59.086124897" lon="30.0213432312">
        <time>2026-04-22T10:44:58.000Z</time>
      </trkpt>
      <trkpt lat="59.086124897" lon="30.0213432312">
        <time>2026-04-22T10:45:01.000Z</time>
      </trkpt>
      <trkpt lat="59.086124897" lon="30.0213646889">
        <time>2026-04-22T10:45:03.000Z</time>
      </trkpt>
      <trkpt lat="59.0861463547" lon="30.0213646889">
        <time>2026-04-22T10:45:06.000Z</time>
      </trkpt>
      <trkpt lat="59.0861678123" lon="30.0213003159">
        <time>2026-04-22T10:45:08.000Z</time>
      </trkpt>
      <trkpt lat="59.0861678123" lon="30.0212359428">
        <time>2026-04-22T10:45:11.000Z</time>
      </trkpt>
      <trkpt lat="59.0861678123" lon="30.0211930275">
        <time>2026-04-22T10:45:13.000Z</time>
      </trkpt>
      <trkpt lat="59.0861463547" lon="30.0211930275">
        <time>2026-04-22T10:45:16.000Z</time>
      </trkpt>
      <trkpt lat="59.086124897" lon="30.0211501122">
        <time>2026-04-22T10:45:18.000Z</time>
      </trkpt>
      <trkpt lat="59.086124897" lon="30.0210428238">
        <time>2026-04-22T10:45:21.000Z</time>
      </trkpt>
      <trkpt lat="59.0861034393" lon="30.0209784508">
        <time>2026-04-22T10:45:23.000Z</time>
      </trkpt>
      <trkpt lat="59.0861034393" lon="30.0209569931">
        <time>2026-04-22T10:45:26.000Z</time>
      </trkpt>
      <trkpt lat="59.086124897" lon="30.0210213661">
        <time>2026-04-22T10:45:28.000Z</time>
      </trkpt>
      <trkpt lat="59.0861463547" lon="30.0210642815">
        <time>2026-04-22T10:45:31.000Z</time>
      </trkpt>
      <trkpt lat="59.0862321854" lon="30.0210428238">
        <time>2026-04-22T10:45:33.000Z</time>
      </trkpt>
      <trkpt lat="59.0862965584" lon="30.0210213661">
        <time>2026-04-22T10:45:36.000Z</time>
      </trkpt>
      <trkpt lat="59.0863180161" lon="30.0209999084">
        <time>2026-04-22T10:45:38.000Z</time>
      </trkpt>
      <trkpt lat="59.0863609314" lon="30.0210213661">
        <time>2026-04-22T10:45:41.000Z</time>
      </trkpt>
      <trkpt lat="59.0863823891" lon="30.0209999084">
        <time>2026-04-22T10:45:43.000Z</time>
      </trkpt>
      <trkpt lat="59.0864038467" lon="30.0209569931">
        <time>2026-04-22T10:45:46.000Z</time>
      </trkpt>
      <trkpt lat="59.0864038467" lon="30.0208711624">
        <time>2026-04-22T10:45:48.000Z</time>
      </trkpt>
      <trkpt lat="59.0864253044" lon="30.0208497047">
        <time>2026-04-22T10:45:51.000Z</time>
      </trkpt>
      <trkpt lat="59.0864253044" lon="30.0209140778">
        <time>2026-04-22T10:45:53.000Z</time>
      </trkpt>
      <trkpt lat="59.0864682198" lon="30.0208926201">
        <time>2026-04-22T10:45:56.000Z</time>
      </trkpt>
      <trkpt lat="59.0864896774" lon="30.0209140778">
        <time>2026-04-22T10:45:58.000Z</time>
      </trkpt>
      <trkpt lat="59.0864896774" lon="30.0209569931">
        <time>2026-04-22T10:46:01.000Z</time>
      </trkpt>
      <trkpt lat="59.0865325928" lon="30.0209999084">
        <time>2026-04-22T10:46:03.000Z</time>
      </trkpt>
      <trkpt lat="59.0865755081" lon="30.0209999084">
        <time>2026-04-22T10:46:06.000Z</time>
      </trkpt>
      <trkpt lat="59.0865969658" lon="30.0209784508">
        <time>2026-04-22T10:46:08.000Z</time>
      </trkpt>
      <trkpt lat="59.0866184235" lon="30.0209355354">
        <time>2026-04-22T10:46:11.000Z</time>
      </trkpt>
      <trkpt lat="59.0866398811" lon="30.0209140778">
        <time>2026-04-22T10:46:13.000Z</time>
      </trkpt>
      <trkpt lat="59.0866398811" lon="30.0208711624">
        <time>2026-04-22T10:46:16.000Z</time>
      </trkpt>
      <trkpt lat="59.0866613388" lon="30.0208497047">
        <time>2026-04-22T10:46:18.000Z</time>
      </trkpt>
      <trkpt lat="59.0866613388" lon="30.0208497047">
        <time>2026-04-22T10:46:21.000Z</time>
      </trkpt>
      <trkpt lat="59.0866827965" lon="30.0208282471">
        <time>2026-04-22T10:46:23.000Z</time>
      </trkpt>
      <trkpt lat="59.0867042542" lon="30.0208282471">
        <time>2026-04-22T10:46:26.000Z</time>
      </trkpt>
      <trkpt lat="59.0867471695" lon="30.0208067894">
        <time>2026-04-22T10:46:28.000Z</time>
      </trkpt>
      <trkpt lat="59.0867900848" lon="30.0208067894">
        <time>2026-04-22T10:46:31.000Z</time>
      </trkpt>
      <trkpt lat="59.0868115425" lon="30.0208282471">
        <time>2026-04-22T10:46:33.000Z</time>
      </trkpt>
      <trkpt lat="59.0868544579" lon="30.0208711624">
        <time>2026-04-22T10:46:36.000Z</time>
      </trkpt>
      <trkpt lat="59.0868973732" lon="30.0208926201">
        <time>2026-04-22T10:46:38.000Z</time>
      </trkpt>
      <trkpt lat="59.0868973732" lon="30.0208926201">
        <time>2026-04-22T10:46:41.000Z</time>
      </trkpt>
      <trkpt lat="59.0869188309" lon="30.0208711624">
        <time>2026-04-22T10:46:43.000Z</time>
      </trkpt>
      <trkpt lat="59.0869402885" lon="30.0208067894">
        <time>2026-04-22T10:46:46.000Z</time>
      </trkpt>
      <trkpt lat="59.0869402885" lon="30.0208067894">
        <time>2026-04-22T10:46:48.000Z</time>
      </trkpt>
      <trkpt lat="59.0869402885" lon="30.0208067894">
        <time>2026-04-22T10:46:51.000Z</time>
      </trkpt>
      <trkpt lat="59.0869402885" lon="30.0208067894">
        <time>2026-04-22T10:46:53.000Z</time>
      </trkpt>
      <trkpt lat="59.0869402885" lon="30.0208067894">
        <time>2026-04-22T10:46:56.000Z</time>
      </trkpt>
      <trkpt lat="59.0869617462" lon="30.0207853317">
        <time>2026-04-22T10:46:58.000Z</time>
      </trkpt>
      <trkpt lat="59.0869402885" lon="30.0207853317">
        <time>2026-04-22T10:47:01.000Z</time>
      </trkpt>
      <trkpt lat="59.0869402885" lon="30.0207853317">
        <time>2026-04-22T10:47:03.000Z</time>
      </trkpt>
      <trkpt lat="59.0869617462" lon="30.0207853317">
        <time>2026-04-22T10:47:06.000Z</time>
      </trkpt>
      <trkpt lat="59.0869617462" lon="30.0207853317">
        <time>2026-04-22T10:47:08.000Z</time>
      </trkpt>
      <trkpt lat="59.0870046616" lon="30.0207638741">
        <time>2026-04-22T10:47:11.000Z</time>
      </trkpt>
      <trkpt lat="59.0870475769" lon="30.0207424164">
        <time>2026-04-22T10:47:13.000Z</time>
      </trkpt>
      <trkpt lat="59.0870690346" lon="30.0207638741">
        <time>2026-04-22T10:47:16.000Z</time>
      </trkpt>
      <trkpt lat="59.0871119499" lon="30.0207853317">
        <time>2026-04-22T10:47:18.000Z</time>
      </trkpt>
      <trkpt lat="59.0871548653" lon="30.0207638741">
        <time>2026-04-22T10:47:21.000Z</time>
      </trkpt>
      <trkpt lat="59.0871548653" lon="30.0207638741">
        <time>2026-04-22T10:47:23.000Z</time>
      </trkpt>
      <trkpt lat="59.0871548653" lon="30.0207638741">
        <time>2026-04-22T10:47:26.000Z</time>
      </trkpt>
      <trkpt lat="59.0871763229" lon="30.0207638741">
        <time>2026-04-22T10:47:28.000Z</time>
      </trkpt>
      <trkpt lat="59.087240696" lon="30.0207638741">
        <time>2026-04-22T10:47:31.000Z</time>
      </trkpt>
      <trkpt lat="59.087240696" lon="30.020699501">
        <time>2026-04-22T10:47:33.000Z</time>
      </trkpt>
      <trkpt lat="59.0872836113" lon="30.0205492973">
        <time>2026-04-22T10:47:36.000Z</time>
      </trkpt>
      <trkpt lat="59.087305069" lon="30.0204634666">
        <time>2026-04-22T10:47:38.000Z</time>
      </trkpt>
      <trkpt lat="59.087305069" lon="30.0204849243">
        <time>2026-04-22T10:47:41.000Z</time>
      </trkpt>
      <trkpt lat="59.087305069" lon="30.0204849243">
        <time>2026-04-22T10:47:43.000Z</time>
      </trkpt>
      <trkpt lat="59.0873479843" lon="30.0204634666">
        <time>2026-04-22T10:47:46.000Z</time>
      </trkpt>
      <trkpt lat="59.0874123573" lon="30.020442009">
        <time>2026-04-22T10:47:48.000Z</time>
      </trkpt>
      <trkpt lat="59.0874552727" lon="30.0203561783">
        <time>2026-04-22T10:47:51.000Z</time>
      </trkpt>
      <trkpt lat="59.0874552727" lon="30.020377636">
        <time>2026-04-22T10:47:53.000Z</time>
      </trkpt>
      <trkpt lat="59.0874767303" lon="30.0204634666">
        <time>2026-04-22T10:47:56.000Z</time>
      </trkpt>
      <trkpt lat="59.0875411034" lon="30.0205278397">
        <time>2026-04-22T10:47:58.000Z</time>
      </trkpt>
      <trkpt lat="59.087562561" lon="30.020570755">
        <time>2026-04-22T10:48:01.000Z</time>
      </trkpt>
      <trkpt lat="59.0875840187" lon="30.0205922127">
        <time>2026-04-22T10:48:03.000Z</time>
      </trkpt>
      <trkpt lat="59.0876269341" lon="30.0205492973">
        <time>2026-04-22T10:48:06.000Z</time>
      </trkpt>
      <trkpt lat="59.0876913071" lon="30.020570755">
        <time>2026-04-22T10:48:08.000Z</time>
      </trkpt>
      <trkpt lat="59.0877342224" lon="30.0205492973">
        <time>2026-04-22T10:48:11.000Z</time>
      </trkpt>
      <trkpt lat="59.0877556801" lon="30.020506382">
        <time>2026-04-22T10:48:13.000Z</time>
      </trkpt>
      <trkpt lat="59.0877556801" lon="30.020506382">
        <time>2026-04-22T10:48:16.000Z</time>
      </trkpt>
      <trkpt lat="59.0877556801" lon="30.020506382">
        <time>2026-04-22T10:48:18.000Z</time>
      </trkpt>
      <trkpt lat="59.0877342224" lon="30.0204849243">
        <time>2026-04-22T10:48:21.000Z</time>
      </trkpt>
      <trkpt lat="59.0877342224" lon="30.0204205513">
        <time>2026-04-22T10:48:23.000Z</time>
      </trkpt>
      <trkpt lat="59.0877127647" lon="30.0203132629">
        <time>2026-04-22T10:48:26.000Z</time>
      </trkpt>
      <trkpt lat="59.0876698494" lon="30.0202703476">
        <time>2026-04-22T10:48:28.000Z</time>
      </trkpt>
      <trkpt lat="59.0876483917" lon="30.0202488899">
        <time>2026-04-22T10:48:31.000Z</time>
      </trkpt>
      <trkpt lat="59.0876054764" lon="30.0202059746">
        <time>2026-04-22T10:48:33.000Z</time>
      </trkpt>
      <trkpt lat="59.0875411034" lon="30.0201845169">
        <time>2026-04-22T10:48:36.000Z</time>
      </trkpt>
      <trkpt lat="59.0875196457" lon="30.0201201439">
        <time>2026-04-22T10:48:38.000Z</time>
      </trkpt>
      <trkpt lat="59.087498188" lon="30.0201630592">
        <time>2026-04-22T10:48:41.000Z</time>
      </trkpt>
      <trkpt lat="59.0875196457" lon="30.0201630592">
        <time>2026-04-22T10:48:43.000Z</time>
      </trkpt>
      <trkpt lat="59.087562561" lon="30.0201630592">
        <time>2026-04-22T10:48:46.000Z</time>
      </trkpt>
      <trkpt lat="59.0875840187" lon="30.0201201439">
        <time>2026-04-22T10:48:48.000Z</time>
      </trkpt>
      <trkpt lat="59.0875840187" lon="30.0200128555">
        <time>2026-04-22T10:48:51.000Z</time>
      </trkpt>
      <trkpt lat="59.087562561" lon="30.0199270248">
        <time>2026-04-22T10:48:53.000Z</time>
      </trkpt>
      <trkpt lat="59.0875840187" lon="30.0198411942">
        <time>2026-04-22T10:48:56.000Z</time>
      </trkpt>
      <trkpt lat="59.087562561" lon="30.0198197365">
        <time>2026-04-22T10:48:58.000Z</time>
      </trkpt>
      <trkpt lat="59.087562561" lon="30.0198197365">
        <time>2026-04-22T10:49:01.000Z</time>
      </trkpt>
      <trkpt lat="59.087562561" lon="30.0197982788">
        <time>2026-04-22T10:49:03.000Z</time>
      </trkpt>
      <trkpt lat="59.0875411034" lon="30.0197768211">
        <time>2026-04-22T10:49:06.000Z</time>
      </trkpt>
      <trkpt lat="59.087562561" lon="30.0197768211">
        <time>2026-04-22T10:49:08.000Z</time>
      </trkpt>
      <trkpt lat="59.0875840187" lon="30.0196909904">
        <time>2026-04-22T10:49:11.000Z</time>
      </trkpt>
      <trkpt lat="59.087562561" lon="30.0196480751">
        <time>2026-04-22T10:49:13.000Z</time>
      </trkpt>
      <trkpt lat="59.087562561" lon="30.0196695328">
        <time>2026-04-22T10:49:16.000Z</time>
      </trkpt>
      <trkpt lat="59.0876054764" lon="30.0196480751">
        <time>2026-04-22T10:49:18.000Z</time>
      </trkpt>
      <trkpt lat="59.0875840187" lon="30.0196051598">
        <time>2026-04-22T10:49:21.000Z</time>
      </trkpt>
      <trkpt lat="59.0875840187" lon="30.0196051598">
        <time>2026-04-22T10:49:23.000Z</time>
      </trkpt>
      <trkpt lat="59.0876054764" lon="30.0196051598">
        <time>2026-04-22T10:49:26.000Z</time>
      </trkpt>
      <trkpt lat="59.0876054764" lon="30.0196480751">
        <time>2026-04-22T10:49:28.000Z</time>
      </trkpt>
      <trkpt lat="59.0876054764" lon="30.0195837021">
        <time>2026-04-22T10:49:31.000Z</time>
      </trkpt>
      <trkpt lat="59.0876054764" lon="30.0194549561">
        <time>2026-04-22T10:49:33.000Z</time>
      </trkpt>
      <trkpt lat="59.0875411034" lon="30.0193476677">
        <time>2026-04-22T10:49:36.000Z</time>
      </trkpt>
      <trkpt lat="59.0875196457" lon="30.0192403793">
        <time>2026-04-22T10:49:38.000Z</time>
      </trkpt>
      <trkpt lat="59.087562561" lon="30.0192189217">
        <time>2026-04-22T10:49:41.000Z</time>
      </trkpt>
      <trkpt lat="59.0875411034" lon="30.0191760063">
        <time>2026-04-22T10:49:43.000Z</time>
      </trkpt>
      <trkpt lat="59.087498188" lon="30.0192189217">
        <time>2026-04-22T10:49:46.000Z</time>
      </trkpt>
      <trkpt lat="59.087498188" lon="30.0191760063">
        <time>2026-04-22T10:49:48.000Z</time>
      </trkpt>
      <trkpt lat="59.087498188" lon="30.019197464">
        <time>2026-04-22T10:49:51.000Z</time>
      </trkpt>
      <trkpt lat="59.087498188" lon="30.0191760063">
        <time>2026-04-22T10:49:53.000Z</time>
      </trkpt>
      <trkpt lat="59.0874767303" lon="30.019133091">
        <time>2026-04-22T10:49:56.000Z</time>
      </trkpt>
      <trkpt lat="59.0874767303" lon="30.019068718">
        <time>2026-04-22T10:49:58.000Z</time>
      </trkpt>
      <trkpt lat="59.087498188" lon="30.0189614296">
        <time>2026-04-22T10:50:01.000Z</time>
      </trkpt>
      <trkpt lat="59.0875196457" lon="30.0188541412">
        <time>2026-04-22T10:50:03.000Z</time>
      </trkpt>
      <trkpt lat="59.087498188" lon="30.0188541412">
        <time>2026-04-22T10:50:06.000Z</time>
      </trkpt>
      <trkpt lat="59.0874552727" lon="30.0188541412">
        <time>2026-04-22T10:50:08.000Z</time>
      </trkpt>
      <trkpt lat="59.087433815" lon="30.0188541412">
        <time>2026-04-22T10:50:11.000Z</time>
      </trkpt>
      <trkpt lat="59.087433815" lon="30.0188541412">
        <time>2026-04-22T10:50:13.000Z</time>
      </trkpt>
      <trkpt lat="59.087433815" lon="30.0188112259">
        <time>2026-04-22T10:50:16.000Z</time>
      </trkpt>
      <trkpt lat="59.087433815" lon="30.0188112259">
        <time>2026-04-22T10:50:18.000Z</time>
      </trkpt>
      <trkpt lat="59.087433815" lon="30.0188112259">
        <time>2026-04-22T10:50:21.000Z</time>
      </trkpt>
      <trkpt lat="59.087433815" lon="30.0188112259">
        <time>2026-04-22T10:50:23.000Z</time>
      </trkpt>
      <trkpt lat="59.087433815" lon="30.0188112259">
        <time>2026-04-22T10:50:26.000Z</time>
      </trkpt>
      <trkpt lat="59.087433815" lon="30.0188112259">
        <time>2026-04-22T10:50:28.000Z</time>
      </trkpt>
      <trkpt lat="59.087433815" lon="30.0188112259">
        <time>2026-04-22T10:50:31.000Z</time>
      </trkpt>
      <trkpt lat="59.087433815" lon="30.0188112259">
        <time>2026-04-22T10:50:33.000Z</time>
      </trkpt>
      <trkpt lat="59.087433815" lon="30.0188112259">
        <time>2026-04-22T10:50:36.000Z</time>
      </trkpt>
      <trkpt lat="59.087433815" lon="30.0188112259">
        <time>2026-04-22T10:50:38.000Z</time>
      </trkpt>
      <trkpt lat="59.087433815" lon="30.0188112259">
        <time>2026-04-22T10:50:41.000Z</time>
      </trkpt>
      <trkpt lat="59.087433815" lon="30.0188112259">
        <time>2026-04-22T10:50:43.000Z</time>
      </trkpt>
      <trkpt lat="59.087433815" lon="30.0188112259">
        <time>2026-04-22T10:50:46.000Z</time>
      </trkpt>
      <trkpt lat="59.087433815" lon="30.0188112259">
        <time>2026-04-22T10:50:48.000Z</time>
      </trkpt>
      <trkpt lat="59.0874552727" lon="30.0187468529">
        <time>2026-04-22T10:50:51.000Z</time>
      </trkpt>
      <trkpt lat="59.087433815" lon="30.0186824799">
        <time>2026-04-22T10:50:53.000Z</time>
      </trkpt>
      <trkpt lat="59.087433815" lon="30.0185751915">
        <time>2026-04-22T10:50:56.000Z</time>
      </trkpt>
      <trkpt lat="59.087433815" lon="30.0185108185">
        <time>2026-04-22T10:50:58.000Z</time>
      </trkpt>
      <trkpt lat="59.0874552727" lon="30.0184249878">
        <time>2026-04-22T10:51:01.000Z</time>
      </trkpt>
      <trkpt lat="59.0874767303" lon="30.0183606148">
        <time>2026-04-22T10:51:03.000Z</time>
      </trkpt>
      <trkpt lat="59.0874552727" lon="30.0183606148">
        <time>2026-04-22T10:51:06.000Z</time>
      </trkpt>
      <trkpt lat="59.0874767303" lon="30.0183176994">
        <time>2026-04-22T10:51:08.000Z</time>
      </trkpt>
      <trkpt lat="59.087498188" lon="30.0182747841">
        <time>2026-04-22T10:51:11.000Z</time>
      </trkpt>
      <trkpt lat="59.0875196457" lon="30.0182747841">
        <time>2026-04-22T10:51:13.000Z</time>
      </trkpt>
      <trkpt lat="59.0875196457" lon="30.0182104111">
        <time>2026-04-22T10:51:16.000Z</time>
      </trkpt>
      <trkpt lat="59.087498188" lon="30.0181245804">
        <time>2026-04-22T10:51:18.000Z</time>
      </trkpt>
      <trkpt lat="59.0874767303" lon="30.018081665">
        <time>2026-04-22T10:51:21.000Z</time>
      </trkpt>
      <trkpt lat="59.0874123573" lon="30.018081665">
        <time>2026-04-22T10:51:23.000Z</time>
      </trkpt>
      <trkpt lat="59.0873479843" lon="30.018017292">
        <time>2026-04-22T10:51:26.000Z</time>
      </trkpt>
      <trkpt lat="59.0873265266" lon="30.0179314613">
        <time>2026-04-22T10:51:28.000Z</time>
      </trkpt>
      <trkpt lat="59.0872621536" lon="30.0179100037">
        <time>2026-04-22T10:51:31.000Z</time>
      </trkpt>
      <trkpt lat="59.087240696" lon="30.0179314613">
        <time>2026-04-22T10:51:33.000Z</time>
      </trkpt>
      <trkpt lat="59.0872192383" lon="30.0179100037">
        <time>2026-04-22T10:51:36.000Z</time>
      </trkpt>
      <trkpt lat="59.0871977806" lon="30.0179100037">
        <time>2026-04-22T10:51:38.000Z</time>
      </trkpt>
      <trkpt lat="59.0871977806" lon="30.017888546">
        <time>2026-04-22T10:51:41.000Z</time>
      </trkpt>
      <trkpt lat="59.0872192383" lon="30.0178027153">
        <time>2026-04-22T10:51:43.000Z</time>
      </trkpt>
      <trkpt lat="59.087240696" lon="30.0177383423">
        <time>2026-04-22T10:51:46.000Z</time>
      </trkpt>
      <trkpt lat="59.0871977806" lon="30.0177168846">
        <time>2026-04-22T10:51:48.000Z</time>
      </trkpt>
      <trkpt lat="59.0871548653" lon="30.0178456306">
        <time>2026-04-22T10:51:51.000Z</time>
      </trkpt>
      <trkpt lat="59.0871548653" lon="30.0179314613">
        <time>2026-04-22T10:51:53.000Z</time>
      </trkpt>
      <trkpt lat="59.0871119499" lon="30.0179958344">
        <time>2026-04-22T10:51:56.000Z</time>
      </trkpt>
      <trkpt lat="59.0870475769" lon="30.0180387497">
        <time>2026-04-22T10:51:58.000Z</time>
      </trkpt>
      <trkpt lat="59.0869832039" lon="30.0181245804">
        <time>2026-04-22T10:52:01.000Z</time>
      </trkpt>
      <trkpt lat="59.0869832039" lon="30.018081665">
        <time>2026-04-22T10:52:03.000Z</time>
      </trkpt>
      <trkpt lat="59.0870046616" lon="30.018017292">
        <time>2026-04-22T10:52:06.000Z</time>
      </trkpt>
      <trkpt lat="59.0870046616" lon="30.0179958344">
        <time>2026-04-22T10:52:08.000Z</time>
      </trkpt>
      <trkpt lat="59.0870261192" lon="30.0179314613">
        <time>2026-04-22T10:52:11.000Z</time>
      </trkpt>
      <trkpt lat="59.0870046616" lon="30.0179100037">
        <time>2026-04-22T10:52:13.000Z</time>
      </trkpt>
      <trkpt lat="59.0869832039" lon="30.017888546">
        <time>2026-04-22T10:52:16.000Z</time>
      </trkpt>
      <trkpt lat="59.0870046616" lon="30.0178670883">
        <time>2026-04-22T10:52:18.000Z</time>
      </trkpt>
      <trkpt lat="59.0870046616" lon="30.0178670883">
        <time>2026-04-22T10:52:21.000Z</time>
      </trkpt>
      <trkpt lat="59.0870046616" lon="30.017824173">
        <time>2026-04-22T10:52:23.000Z</time>
      </trkpt>
      <trkpt lat="59.0869402885" lon="30.0177812576">
        <time>2026-04-22T10:52:26.000Z</time>
      </trkpt>
      <trkpt lat="59.0869188309" lon="30.017888546">
        <time>2026-04-22T10:52:28.000Z</time>
      </trkpt>
      <trkpt lat="59.0869188309" lon="30.0179958344">
        <time>2026-04-22T10:52:31.000Z</time>
      </trkpt>
      <trkpt lat="59.0869188309" lon="30.0180602074">
        <time>2026-04-22T10:52:33.000Z</time>
      </trkpt>
      <trkpt lat="59.0868973732" lon="30.0181031227">
        <time>2026-04-22T10:52:36.000Z</time>
      </trkpt>
      <trkpt lat="59.0868544579" lon="30.0181245804">
        <time>2026-04-22T10:52:38.000Z</time>
      </trkpt>
      <trkpt lat="59.0868544579" lon="30.0181031227">
        <time>2026-04-22T10:52:41.000Z</time>
      </trkpt>
      <trkpt lat="59.0868330002" lon="30.0180387497">
        <time>2026-04-22T10:52:43.000Z</time>
      </trkpt>
      <trkpt lat="59.0868115425" lon="30.018017292">
        <time>2026-04-22T10:52:46.000Z</time>
      </trkpt>
      <trkpt lat="59.0868115425" lon="30.0179743767">
        <time>2026-04-22T10:52:48.000Z</time>
      </trkpt>
      <trkpt lat="59.0867900848" lon="30.0179743767">
        <time>2026-04-22T10:52:51.000Z</time>
      </trkpt>
      <trkpt lat="59.0867471695" lon="30.0179314613">
        <time>2026-04-22T10:52:53.000Z</time>
      </trkpt>
      <trkpt lat="59.0867257118" lon="30.017952919">
        <time>2026-04-22T10:52:56.000Z</time>
      </trkpt>
      <trkpt lat="59.0867257118" lon="30.0179743767">
        <time>2026-04-22T10:52:58.000Z</time>
      </trkpt>
      <trkpt lat="59.0866613388" lon="30.0180602074">
        <time>2026-04-22T10:53:01.000Z</time>
      </trkpt>
      <trkpt lat="59.0866184235" lon="30.0181460381">
        <time>2026-04-22T10:53:03.000Z</time>
      </trkpt>
      <trkpt lat="59.0865969658" lon="30.0181889534">
        <time>2026-04-22T10:53:06.000Z</time>
      </trkpt>
      <trkpt lat="59.0865755081" lon="30.0181674957">
        <time>2026-04-22T10:53:08.000Z</time>
      </trkpt>
      <trkpt lat="59.0865540504" lon="30.0181031227">
        <time>2026-04-22T10:53:11.000Z</time>
      </trkpt>
      <trkpt lat="59.0865325928" lon="30.0181245804">
        <time>2026-04-22T10:53:13.000Z</time>
      </trkpt>
      <trkpt lat="59.0864682198" lon="30.0181674957">
        <time>2026-04-22T10:53:16.000Z</time>
      </trkpt>
      <trkpt lat="59.0864253044" lon="30.0182104111">
        <time>2026-04-22T10:53:18.000Z</time>
      </trkpt>
      <trkpt lat="59.0863609314" lon="30.0182533264">
        <time>2026-04-22T10:53:21.000Z</time>
      </trkpt>
      <trkpt lat="59.0862965584" lon="30.0182962418">
        <time>2026-04-22T10:53:23.000Z</time>
      </trkpt>
      <trkpt lat="59.0862751007" lon="30.0183606148">
        <time>2026-04-22T10:53:26.000Z</time>
      </trkpt>
      <trkpt lat="59.086253643" lon="30.0184035301">
        <time>2026-04-22T10:53:28.000Z</time>
      </trkpt>
      <trkpt lat="59.08618927" lon="30.0184035301">
        <time>2026-04-22T10:53:31.000Z</time>
      </trkpt>
      <trkpt lat="59.0861463547" lon="30.0183176994">
        <time>2026-04-22T10:53:33.000Z</time>
      </trkpt>
      <trkpt lat="59.0861463547" lon="30.0183391571">
        <time>2026-04-22T10:53:36.000Z</time>
      </trkpt>
      <trkpt lat="59.086124897" lon="30.0183391571">
        <time>2026-04-22T10:53:38.000Z</time>
      </trkpt>
      <trkpt lat="59.086124897" lon="30.0182962418">
        <time>2026-04-22T10:53:41.000Z</time>
      </trkpt>
      <trkpt lat="59.086124897" lon="30.0181889534">
        <time>2026-04-22T10:53:43.000Z</time>
      </trkpt>
      <trkpt lat="59.086124897" lon="30.018081665">
        <time>2026-04-22T10:53:46.000Z</time>
      </trkpt>
      <trkpt lat="59.0861678123" lon="30.0180387497">
        <time>2026-04-22T10:53:48.000Z</time>
      </trkpt>
      <trkpt lat="59.0861678123" lon="30.018081665">
        <time>2026-04-22T10:53:51.000Z</time>
      </trkpt>
      <trkpt lat="59.08618927" lon="30.0181245804">
        <time>2026-04-22T10:53:53.000Z</time>
      </trkpt>
      <trkpt lat="59.0861678123" lon="30.0181460381">
        <time>2026-04-22T10:53:56.000Z</time>
      </trkpt>
      <trkpt lat="59.0861463547" lon="30.0181889534">
        <time>2026-04-22T10:53:58.000Z</time>
      </trkpt>
      <trkpt lat="59.0861463547" lon="30.0181889534">
        <time>2026-04-22T10:54:01.000Z</time>
      </trkpt>
      <trkpt lat="59.0861463547" lon="30.0182318687">
        <time>2026-04-22T10:54:03.000Z</time>
      </trkpt>
      <trkpt lat="59.0861463547" lon="30.0182533264">
        <time>2026-04-22T10:54:06.000Z</time>
      </trkpt>
      <trkpt lat="59.0861463547" lon="30.0182533264">
        <time>2026-04-22T10:54:08.000Z</time>
      </trkpt>
      <trkpt lat="59.0860819817" lon="30.0182962418">
        <time>2026-04-22T10:54:11.000Z</time>
      </trkpt>
      <trkpt lat="59.0860390663" lon="30.0183176994">
        <time>2026-04-22T10:54:13.000Z</time>
      </trkpt>
      <trkpt lat="59.0860390663" lon="30.0182962418">
        <time>2026-04-22T10:54:16.000Z</time>
      </trkpt>
      <trkpt lat="59.0860390663" lon="30.0182962418">
        <time>2026-04-22T10:54:18.000Z</time>
      </trkpt>
      <trkpt lat="59.0860390663" lon="30.0182962418">
        <time>2026-04-22T10:54:21.000Z</time>
      </trkpt>
      <trkpt lat="59.0860390663" lon="30.0182962418">
        <time>2026-04-22T10:54:23.000Z</time>
      </trkpt>
      <trkpt lat="59.086060524" lon="30.0182962418">
        <time>2026-04-22T10:54:26.000Z</time>
      </trkpt>
      <trkpt lat="59.0861034393" lon="30.0182962418">
        <time>2026-04-22T10:54:28.000Z</time>
      </trkpt>
      <trkpt lat="59.086124897" lon="30.0183606148">
        <time>2026-04-22T10:54:31.000Z</time>
      </trkpt>
      <trkpt lat="59.0861678123" lon="30.0184464455">
        <time>2026-04-22T10:54:33.000Z</time>
      </trkpt>
      <trkpt lat="59.086124897" lon="30.0184893608">
        <time>2026-04-22T10:54:36.000Z</time>
      </trkpt>
      <trkpt lat="59.086124897" lon="30.0185537338">
        <time>2026-04-22T10:54:38.000Z</time>
      </trkpt>
      <trkpt lat="59.0861463547" lon="30.0186181068">
        <time>2026-04-22T10:54:41.000Z</time>
      </trkpt>
      <trkpt lat="59.0861463547" lon="30.0185966492">
        <time>2026-04-22T10:54:43.000Z</time>
      </trkpt>
      <trkpt lat="59.0861678123" lon="30.0186181068">
        <time>2026-04-22T10:54:46.000Z</time>
      </trkpt>
      <trkpt lat="59.0861678123" lon="30.0186395645">
        <time>2026-04-22T10:54:48.000Z</time>
      </trkpt>
      <trkpt lat="59.0862107277" lon="30.0186610222">
        <time>2026-04-22T10:54:51.000Z</time>
      </trkpt>
      <trkpt lat="59.0862107277" lon="30.0186395645">
        <time>2026-04-22T10:54:53.000Z</time>
      </trkpt>
      <trkpt lat="59.086253643" lon="30.0185966492">
        <time>2026-04-22T10:54:56.000Z</time>
      </trkpt>
      <trkpt lat="59.0862751007" lon="30.0186395645">
        <time>2026-04-22T10:54:58.000Z</time>
      </trkpt>
      <trkpt lat="59.0862965584" lon="30.0187468529">
        <time>2026-04-22T10:55:01.000Z</time>
      </trkpt>
      <trkpt lat="59.0863180161" lon="30.0188112259">
        <time>2026-04-22T10:55:03.000Z</time>
      </trkpt>
      <trkpt lat="59.0863609314" lon="30.0189185143">
        <time>2026-04-22T10:55:06.000Z</time>
      </trkpt>
      <trkpt lat="59.0863823891" lon="30.0189399719">
        <time>2026-04-22T10:55:08.000Z</time>
      </trkpt>
      <trkpt lat="59.0864253044" lon="30.0189399719">
        <time>2026-04-22T10:55:11.000Z</time>
      </trkpt>
      <trkpt lat="59.0864253044" lon="30.0188970566">
        <time>2026-04-22T10:55:13.000Z</time>
      </trkpt>
      <trkpt lat="59.0864682198" lon="30.0188755989">
        <time>2026-04-22T10:55:16.000Z</time>
      </trkpt>
      <trkpt lat="59.0865111351" lon="30.0188755989">
        <time>2026-04-22T10:55:18.000Z</time>
      </trkpt>
      <trkpt lat="59.0865325928" lon="30.0188541412">
        <time>2026-04-22T10:55:21.000Z</time>
      </trkpt>
      <trkpt lat="59.0865540504" lon="30.0188970566">
        <time>2026-04-22T10:55:23.000Z</time>
      </trkpt>
      <trkpt lat="59.0865325928" lon="30.0188755989">
        <time>2026-04-22T10:55:26.000Z</time>
      </trkpt>
      <trkpt lat="59.0865111351" lon="30.0188970566">
        <time>2026-04-22T10:55:28.000Z</time>
      </trkpt>
      <trkpt lat="59.0865111351" lon="30.0189399719">
        <time>2026-04-22T10:55:31.000Z</time>
      </trkpt>
      <trkpt lat="59.0865325928" lon="30.0189828873">
        <time>2026-04-22T10:55:33.000Z</time>
      </trkpt>
      <trkpt lat="59.0865755081" lon="30.0190043449">
        <time>2026-04-22T10:55:36.000Z</time>
      </trkpt>
      <trkpt lat="59.0865755081" lon="30.0190472603">
        <time>2026-04-22T10:55:38.000Z</time>
      </trkpt>
      <trkpt lat="59.0865755081" lon="30.019068718">
        <time>2026-04-22T10:55:41.000Z</time>
      </trkpt>
      <trkpt lat="59.0865755081" lon="30.0191116333">
        <time>2026-04-22T10:55:43.000Z</time>
      </trkpt>
      <trkpt lat="59.0865755081" lon="30.0191545486">
        <time>2026-04-22T10:55:46.000Z</time>
      </trkpt>
      <trkpt lat="59.0865969658" lon="30.0191760063">
        <time>2026-04-22T10:55:48.000Z</time>
      </trkpt>
      <trkpt lat="59.0866184235" lon="30.019197464">
        <time>2026-04-22T10:55:51.000Z</time>
      </trkpt>
      <trkpt lat="59.0866184235" lon="30.0191545486">
        <time>2026-04-22T10:55:53.000Z</time>
      </trkpt>
      <trkpt lat="59.0866613388" lon="30.019197464">
        <time>2026-04-22T10:55:56.000Z</time>
      </trkpt>
      <trkpt lat="59.0866827965" lon="30.0191545486">
        <time>2026-04-22T10:55:58.000Z</time>
      </trkpt>
      <trkpt lat="59.0867042542" lon="30.0191760063">
        <time>2026-04-22T10:56:01.000Z</time>
      </trkpt>
      <trkpt lat="59.0867257118" lon="30.0192189217">
        <time>2026-04-22T10:56:03.000Z</time>
      </trkpt>
      <trkpt lat="59.0867042542" lon="30.0193047523">
        <time>2026-04-22T10:56:06.000Z</time>
      </trkpt>
      <trkpt lat="59.0867257118" lon="30.0193691254">
        <time>2026-04-22T10:56:08.000Z</time>
      </trkpt>
      <trkpt lat="59.0867257118" lon="30.0194120407">
        <time>2026-04-22T10:56:11.000Z</time>
      </trkpt>
      <trkpt lat="59.0867257118" lon="30.019390583">
        <time>2026-04-22T10:56:13.000Z</time>
      </trkpt>
      <trkpt lat="59.0867686272" lon="30.0193691254">
        <time>2026-04-22T10:56:16.000Z</time>
      </trkpt>
      <trkpt lat="59.0867900848" lon="30.0193691254">
        <time>2026-04-22T10:56:18.000Z</time>
      </trkpt>
      <trkpt lat="59.0868115425" lon="30.0194120407">
        <time>2026-04-22T10:56:21.000Z</time>
      </trkpt>
      <trkpt lat="59.0868544579" lon="30.0194549561">
        <time>2026-04-22T10:56:23.000Z</time>
      </trkpt>
      <trkpt lat="59.0868759155" lon="30.0194764137">
        <time>2026-04-22T10:56:26.000Z</time>
      </trkpt>
      <trkpt lat="59.0868759155" lon="30.0194764137">
        <time>2026-04-22T10:56:28.000Z</time>
      </trkpt>
      <trkpt lat="59.0868759155" lon="30.0194764137">
        <time>2026-04-22T10:56:31.000Z</time>
      </trkpt>
      <trkpt lat="59.0868544579" lon="30.0194549561">
        <time>2026-04-22T10:56:33.000Z</time>
      </trkpt>
      <trkpt lat="59.0868330002" lon="30.0194764137">
        <time>2026-04-22T10:56:36.000Z</time>
      </trkpt>
      <trkpt lat="59.0867686272" lon="30.0195193291">
        <time>2026-04-22T10:56:38.000Z</time>
      </trkpt>
      <trkpt lat="59.0867257118" lon="30.0195407867">
        <time>2026-04-22T10:56:41.000Z</time>
      </trkpt>
      <trkpt lat="59.0866827965" lon="30.0195407867">
        <time>2026-04-22T10:56:43.000Z</time>
      </trkpt>
      <trkpt lat="59.0866827965" lon="30.0195193291">
        <time>2026-04-22T10:56:46.000Z</time>
      </trkpt>
      <trkpt lat="59.0866827965" lon="30.0195622444">
        <time>2026-04-22T10:56:48.000Z</time>
      </trkpt>
      <trkpt lat="59.0866613388" lon="30.0196051598">
        <time>2026-04-22T10:56:51.000Z</time>
      </trkpt>
      <trkpt lat="59.0865969658" lon="30.0196266174">
        <time>2026-04-22T10:56:53.000Z</time>
      </trkpt>
      <trkpt lat="59.0865969658" lon="30.0195622444">
        <time>2026-04-22T10:56:56.000Z</time>
      </trkpt>
      <trkpt lat="59.0865969658" lon="30.0194978714">
        <time>2026-04-22T10:56:58.000Z</time>
      </trkpt>
      <trkpt lat="59.0865540504" lon="30.0195193291">
        <time>2026-04-22T10:57:01.000Z</time>
      </trkpt>
      <trkpt lat="59.0865111351" lon="30.0195837021">
        <time>2026-04-22T10:57:03.000Z</time>
      </trkpt>
      <trkpt lat="59.0864682198" lon="30.0196266174">
        <time>2026-04-22T10:57:06.000Z</time>
      </trkpt>
      <trkpt lat="59.0864682198" lon="30.0196695328">
        <time>2026-04-22T10:57:08.000Z</time>
      </trkpt>
      <trkpt lat="59.0864467621" lon="30.0197339058">
        <time>2026-04-22T10:57:11.000Z</time>
      </trkpt>
      <trkpt lat="59.0864038467" lon="30.0197553635">
        <time>2026-04-22T10:57:13.000Z</time>
      </trkpt>
      <trkpt lat="59.0863609314" lon="30.0198197365">
        <time>2026-04-22T10:57:16.000Z</time>
      </trkpt>
      <trkpt lat="59.0863609314" lon="30.0199055672">
        <time>2026-04-22T10:57:18.000Z</time>
      </trkpt>
      <trkpt lat="59.0863394737" lon="30.0199484825">
        <time>2026-04-22T10:57:21.000Z</time>
      </trkpt>
      <trkpt lat="59.0862965584" lon="30.0200128555">
        <time>2026-04-22T10:57:23.000Z</time>
      </trkpt>
      <trkpt lat="59.0862321854" lon="30.0200772285">
        <time>2026-04-22T10:57:26.000Z</time>
      </trkpt>
      <trkpt lat="59.086253643" lon="30.0201630592">
        <time>2026-04-22T10:57:28.000Z</time>
      </trkpt>
      <trkpt lat="59.0862107277" lon="30.0202274323">
        <time>2026-04-22T10:57:31.000Z</time>
      </trkpt>
      <trkpt lat="59.0862321854" lon="30.0202703476">
        <time>2026-04-22T10:57:33.000Z</time>
      </trkpt>
      <trkpt lat="59.0862751007" lon="30.0202059746">
        <time>2026-04-22T10:57:36.000Z</time>
      </trkpt>
      <trkpt lat="59.0862107277" lon="30.0201416016">
        <time>2026-04-22T10:57:38.000Z</time>
      </trkpt>
      <trkpt lat="59.08618927" lon="30.0201201439">
        <time>2026-04-22T10:57:41.000Z</time>
      </trkpt>
      <trkpt lat="59.08618927" lon="30.0201201439">
        <time>2026-04-22T10:57:43.000Z</time>
      </trkpt>
      <trkpt lat="59.08618927" lon="30.0200772285">
        <time>2026-04-22T10:57:46.000Z</time>
      </trkpt>
      <trkpt lat="59.0862107277" lon="30.0199913979">
        <time>2026-04-22T10:57:48.000Z</time>
      </trkpt>
      <trkpt lat="59.0861678123" lon="30.0199055672">
        <time>2026-04-22T10:57:51.000Z</time>
      </trkpt>
      <trkpt lat="59.0861463547" lon="30.0199484825">
        <time>2026-04-22T10:57:53.000Z</time>
      </trkpt>
      <trkpt lat="59.0861463547" lon="30.0200557709">
        <time>2026-04-22T10:57:56.000Z</time>
      </trkpt>
      <trkpt lat="59.0862107277" lon="30.0201845169">
        <time>2026-04-22T10:57:58.000Z</time>
      </trkpt>
      <trkpt lat="59.0862107277" lon="30.0202488899">
        <time>2026-04-22T10:58:01.000Z</time>
      </trkpt>
      <trkpt lat="59.0862321854" lon="30.0203561783">
        <time>2026-04-22T10:58:03.000Z</time>
      </trkpt>
      <trkpt lat="59.08618927" lon="30.020442009">
        <time>2026-04-22T10:58:06.000Z</time>
      </trkpt>
      <trkpt lat="59.0861463547" lon="30.0204849243">
        <time>2026-04-22T10:58:08.000Z</time>
      </trkpt>
      <trkpt lat="59.0861463547" lon="30.0204849243">
        <time>2026-04-22T10:58:11.000Z</time>
      </trkpt>
      <trkpt lat="59.0861678123" lon="30.0205278397">
        <time>2026-04-22T10:58:13.000Z</time>
      </trkpt>
      <trkpt lat="59.0861678123" lon="30.0204205513">
        <time>2026-04-22T10:58:16.000Z</time>
      </trkpt>
      <trkpt lat="59.086124897" lon="30.020377636">
        <time>2026-04-22T10:58:18.000Z</time>
      </trkpt>
      <trkpt lat="59.0860819817" lon="30.0203990936">
        <time>2026-04-22T10:58:21.000Z</time>
      </trkpt>
      <trkpt lat="59.0860390663" lon="30.0203347206">
        <time>2026-04-22T10:58:23.000Z</time>
      </trkpt>
      <trkpt lat="59.085996151" lon="30.0201845169">
        <time>2026-04-22T10:58:26.000Z</time>
      </trkpt>
      <trkpt lat="59.0860176086" lon="30.0200986862">
        <time>2026-04-22T10:58:28.000Z</time>
      </trkpt>
      <trkpt lat="59.0860176086" lon="30.0200128555">
        <time>2026-04-22T10:58:31.000Z</time>
      </trkpt>
      <trkpt lat="59.0860176086" lon="30.0199484825">
        <time>2026-04-22T10:58:33.000Z</time>
      </trkpt>
      <trkpt lat="59.0860176086" lon="30.0199055672">
        <time>2026-04-22T10:58:36.000Z</time>
      </trkpt>
      <trkpt lat="59.0860176086" lon="30.0198841095">
        <time>2026-04-22T10:58:38.000Z</time>
      </trkpt>
      <trkpt lat="59.0860176086" lon="30.0199055672">
        <time>2026-04-22T10:58:41.000Z</time>
      </trkpt>
      <trkpt lat="59.0860176086" lon="30.0199055672">
        <time>2026-04-22T10:58:43.000Z</time>
      </trkpt>
      <trkpt lat="59.0860176086" lon="30.0199055672">
        <time>2026-04-22T10:58:46.000Z</time>
      </trkpt>
      <trkpt lat="59.0860176086" lon="30.0199055672">
        <time>2026-04-22T10:58:48.000Z</time>
      </trkpt>
      <trkpt lat="59.0860176086" lon="30.0199055672">
        <time>2026-04-22T10:58:51.000Z</time>
      </trkpt>
      <trkpt lat="59.0860176086" lon="30.0199055672">
        <time>2026-04-22T10:58:53.000Z</time>
      </trkpt>
      <trkpt lat="59.0860176086" lon="30.0199055672">
        <time>2026-04-22T10:58:56.000Z</time>
      </trkpt>
      <trkpt lat="59.0860176086" lon="30.0199055672">
        <time>2026-04-22T10:58:58.000Z</time>
      </trkpt>
      <trkpt lat="59.085996151" lon="30.0198841095">
        <time>2026-04-22T10:59:01.000Z</time>
      </trkpt>
      <trkpt lat="59.0859532356" lon="30.0199270248">
        <time>2026-04-22T10:59:03.000Z</time>
      </trkpt>
      <trkpt lat="59.0859103203" lon="30.0199484825">
        <time>2026-04-22T10:59:06.000Z</time>
      </trkpt>
      <trkpt lat="59.0858888626" lon="30.0199270248">
        <time>2026-04-22T10:59:08.000Z</time>
      </trkpt>
      <trkpt lat="59.0858674049" lon="30.0199484825">
        <time>2026-04-22T10:59:11.000Z</time>
      </trkpt>
      <trkpt lat="59.0858674049" lon="30.0199913979">
        <time>2026-04-22T10:59:13.000Z</time>
      </trkpt>
      <trkpt lat="59.0858459473" lon="30.0200343132">
        <time>2026-04-22T10:59:16.000Z</time>
      </trkpt>
      <trkpt lat="59.0858459473" lon="30.0200557709">
        <time>2026-04-22T10:59:18.000Z</time>
      </trkpt>
      <trkpt lat="59.0858459473" lon="30.0200343132">
        <time>2026-04-22T10:59:21.000Z</time>
      </trkpt>
      <trkpt lat="59.0858030319" lon="30.0200557709">
        <time>2026-04-22T10:59:23.000Z</time>
      </trkpt>
      <trkpt lat="59.0858030319" lon="30.0200986862">
        <time>2026-04-22T10:59:26.000Z</time>
      </trkpt>
      <trkpt lat="59.0857815742" lon="30.0201201439">
        <time>2026-04-22T10:59:28.000Z</time>
      </trkpt>
      <trkpt lat="59.0857815742" lon="30.0200772285">
        <time>2026-04-22T10:59:31.000Z</time>
      </trkpt>
      <trkpt lat="59.0857815742" lon="30.0200557709">
        <time>2026-04-22T10:59:33.000Z</time>
      </trkpt>
      <trkpt lat="59.0857386589" lon="30.0199913979">
        <time>2026-04-22T10:59:36.000Z</time>
      </trkpt>
      <trkpt lat="59.0856957436" lon="30.0200128555">
        <time>2026-04-22T10:59:38.000Z</time>
      </trkpt>
      <trkpt lat="59.0856313705" lon="30.0200772285">
        <time>2026-04-22T10:59:41.000Z</time>
      </trkpt>
      <trkpt lat="59.0855884552" lon="30.0200986862">
        <time>2026-04-22T10:59:43.000Z</time>
      </trkpt>
      <trkpt lat="59.0855669975" lon="30.0201630592">
        <time>2026-04-22T10:59:46.000Z</time>
      </trkpt>
      <trkpt lat="59.0855884552" lon="30.0201416016">
        <time>2026-04-22T10:59:48.000Z</time>
      </trkpt>
      <trkpt lat="59.0855455399" lon="30.0201201439">
        <time>2026-04-22T10:59:51.000Z</time>
      </trkpt>
      <trkpt lat="59.0855240822" lon="30.0200986862">
        <time>2026-04-22T10:59:53.000Z</time>
      </trkpt>
      <trkpt lat="59.0854811668" lon="30.0200986862">
        <time>2026-04-22T10:59:56.000Z</time>
      </trkpt>
      <trkpt lat="59.0854382515" lon="30.0201201439">
        <time>2026-04-22T10:59:58.000Z</time>
      </trkpt>
      <trkpt lat="59.0854382515" lon="30.0201845169">
        <time>2026-04-22T11:00:01.000Z</time>
      </trkpt>
      <trkpt lat="59.0854597092" lon="30.0202059746">
        <time>2026-04-22T11:00:03.000Z</time>
      </trkpt>
      <trkpt lat="59.0854597092" lon="30.0202703476">
        <time>2026-04-22T11:00:06.000Z</time>
      </trkpt>
      <trkpt lat="59.0854167938" lon="30.0203132629">
        <time>2026-04-22T11:00:08.000Z</time>
      </trkpt>
      <trkpt lat="59.0854167938" lon="30.0202918053">
        <time>2026-04-22T11:00:11.000Z</time>
      </trkpt>
      <trkpt lat="59.0854167938" lon="30.0202488899">
        <time>2026-04-22T11:00:13.000Z</time>
      </trkpt>
      <trkpt lat="59.0853738785" lon="30.0202488899">
        <time>2026-04-22T11:00:16.000Z</time>
      </trkpt>
      <trkpt lat="59.0853309631" lon="30.0202488899">
        <time>2026-04-22T11:00:18.000Z</time>
      </trkpt>
      <trkpt lat="59.0852880478" lon="30.0202274323">
        <time>2026-04-22T11:00:21.000Z</time>
      </trkpt>
      <trkpt lat="59.0852665901" lon="30.0202703476">
        <time>2026-04-22T11:00:23.000Z</time>
      </trkpt>
      <trkpt lat="59.0852236748" lon="30.0203132629">
        <time>2026-04-22T11:00:26.000Z</time>
      </trkpt>
      <trkpt lat="59.0852236748" lon="30.0202703476">
        <time>2026-04-22T11:00:28.000Z</time>
      </trkpt>
      <trkpt lat="59.0852236748" lon="30.0202918053">
        <time>2026-04-22T11:00:31.000Z</time>
      </trkpt>
      <trkpt lat="59.0852236748" lon="30.0202918053">
        <time>2026-04-22T11:00:33.000Z</time>
      </trkpt>
      <trkpt lat="59.0852022171" lon="30.0203347206">
        <time>2026-04-22T11:00:36.000Z</time>
      </trkpt>
      <trkpt lat="59.0851378441" lon="30.020377636">
        <time>2026-04-22T11:00:38.000Z</time>
      </trkpt>
      <trkpt lat="59.0850949287" lon="30.0203561783">
        <time>2026-04-22T11:00:41.000Z</time>
      </trkpt>
      <trkpt lat="59.0850520134" lon="30.0203347206">
        <time>2026-04-22T11:00:43.000Z</time>
      </trkpt>
      <trkpt lat="59.0850520134" lon="30.0202918053">
        <time>2026-04-22T11:00:46.000Z</time>
      </trkpt>
      <trkpt lat="59.0850305557" lon="30.0202488899">
        <time>2026-04-22T11:00:48.000Z</time>
      </trkpt>
      <trkpt lat="59.0850305557" lon="30.0201845169">
        <time>2026-04-22T11:00:51.000Z</time>
      </trkpt>
      <trkpt lat="59.0850305557" lon="30.0201416016">
        <time>2026-04-22T11:00:53.000Z</time>
      </trkpt>
      <trkpt lat="59.0849876404" lon="30.0201630592">
        <time>2026-04-22T11:00:56.000Z</time>
      </trkpt>
      <trkpt lat="59.0850090981" lon="30.0201630592">
        <time>2026-04-22T11:00:58.000Z</time>
      </trkpt>
      <trkpt lat="59.0849876404" lon="30.0201630592">
        <time>2026-04-22T11:01:01.000Z</time>
      </trkpt>
      <trkpt lat="59.0849876404" lon="30.0202059746">
        <time>2026-04-22T11:01:03.000Z</time>
      </trkpt>
      <trkpt lat="59.0849876404" lon="30.0202703476">
        <time>2026-04-22T11:01:06.000Z</time>
      </trkpt>
      <trkpt lat="59.0849876404" lon="30.0202488899">
        <time>2026-04-22T11:01:08.000Z</time>
      </trkpt>
      <trkpt lat="59.0849876404" lon="30.0202488899">
        <time>2026-04-22T11:01:11.000Z</time>
      </trkpt>
      <trkpt lat="59.0849876404" lon="30.0202488899">
        <time>2026-04-22T11:01:13.000Z</time>
      </trkpt>
      <trkpt lat="59.0849876404" lon="30.0202488899">
        <time>2026-04-22T11:01:16.000Z</time>
      </trkpt>
      <trkpt lat="59.0849876404" lon="30.0202488899">
        <time>2026-04-22T11:01:18.000Z</time>
      </trkpt>
      <trkpt lat="59.0849876404" lon="30.0202488899">
        <time>2026-04-22T11:01:21.000Z</time>
      </trkpt>
      <trkpt lat="59.0849876404" lon="30.0202274323">
        <time>2026-04-22T11:01:23.000Z</time>
      </trkpt>
      <trkpt lat="59.0849661827" lon="30.0201416016">
        <time>2026-04-22T11:01:26.000Z</time>
      </trkpt>
      <trkpt lat="59.084944725" lon="30.0200772285">
        <time>2026-04-22T11:01:28.000Z</time>
      </trkpt>
      <trkpt lat="59.0849232674" lon="30.0200128555">
        <time>2026-04-22T11:01:31.000Z</time>
      </trkpt>
      <trkpt lat="59.0849232674" lon="30.0200343132">
        <time>2026-04-22T11:01:33.000Z</time>
      </trkpt>
      <trkpt lat="59.0849232674" lon="30.0200343132">
        <time>2026-04-22T11:01:36.000Z</time>
      </trkpt>
      <trkpt lat="59.0849232674" lon="30.0199699402">
        <time>2026-04-22T11:01:38.000Z</time>
      </trkpt>
      <trkpt lat="59.0849232674" lon="30.0198626518">
        <time>2026-04-22T11:01:41.000Z</time>
      </trkpt>
      <trkpt lat="59.0849232674" lon="30.0197768211">
        <time>2026-04-22T11:01:43.000Z</time>
      </trkpt>
      <trkpt lat="59.084944725" lon="30.0196909904">
        <time>2026-04-22T11:01:46.000Z</time>
      </trkpt>
      <trkpt lat="59.084944725" lon="30.0196480751">
        <time>2026-04-22T11:01:48.000Z</time>
      </trkpt>
      <trkpt lat="59.084944725" lon="30.0196266174">
        <time>2026-04-22T11:01:51.000Z</time>
      </trkpt>
      <trkpt lat="59.0849661827" lon="30.0195622444">
        <time>2026-04-22T11:01:53.000Z</time>
      </trkpt>
      <trkpt lat="59.084944725" lon="30.0194764137">
        <time>2026-04-22T11:01:56.000Z</time>
      </trkpt>
      <trkpt lat="59.084944725" lon="30.0193476677">
        <time>2026-04-22T11:01:58.000Z</time>
      </trkpt>
      <trkpt lat="59.0849661827" lon="30.0192832947">
        <time>2026-04-22T11:02:01.000Z</time>
      </trkpt>
      <trkpt lat="59.0849876404" lon="30.0192403793">
        <time>2026-04-22T11:02:03.000Z</time>
      </trkpt>
      <trkpt lat="59.0849876404" lon="30.0192189217">
        <time>2026-04-22T11:02:06.000Z</time>
      </trkpt>
      <trkpt lat="59.0849876404" lon="30.019197464">
        <time>2026-04-22T11:02:08.000Z</time>
      </trkpt>
      <trkpt lat="59.084944725" lon="30.019197464">
        <time>2026-04-22T11:02:11.000Z</time>
      </trkpt>
      <trkpt lat="59.0849018097" lon="30.0192189217">
        <time>2026-04-22T11:02:13.000Z</time>
      </trkpt>
      <trkpt lat="59.0848588943" lon="30.0191760063">
        <time>2026-04-22T11:02:16.000Z</time>
      </trkpt>
      <trkpt lat="59.084815979" lon="30.0191545486">
        <time>2026-04-22T11:02:18.000Z</time>
      </trkpt>
      <trkpt lat="59.084815979" lon="30.0191760063">
        <time>2026-04-22T11:02:21.000Z</time>
      </trkpt>
      <trkpt lat="59.084815979" lon="30.0191760063">
        <time>2026-04-22T11:02:23.000Z</time>
      </trkpt>
      <trkpt lat="59.084815979" lon="30.0191760063">
        <time>2026-04-22T11:02:26.000Z</time>
      </trkpt>
      <trkpt lat="59.0848374367" lon="30.0191116333">
        <time>2026-04-22T11:02:28.000Z</time>
      </trkpt>
      <trkpt lat="59.0848374367" lon="30.0190258026">
        <time>2026-04-22T11:02:31.000Z</time>
      </trkpt>
      <trkpt lat="59.0848374367" lon="30.0190258026">
        <time>2026-04-22T11:02:33.000Z</time>
      </trkpt>
      <trkpt lat="59.0848374367" lon="30.0190258026">
        <time>2026-04-22T11:02:36.000Z</time>
      </trkpt>
      <trkpt lat="59.0848374367" lon="30.0190043449">
        <time>2026-04-22T11:02:38.000Z</time>
      </trkpt>
      <trkpt lat="59.0848588943" lon="30.0189399719">
        <time>2026-04-22T11:02:41.000Z</time>
      </trkpt>
      <trkpt lat="59.084880352" lon="30.0188970566">
        <time>2026-04-22T11:02:43.000Z</time>
      </trkpt>
      <trkpt lat="59.0849232674" lon="30.0188755989">
        <time>2026-04-22T11:02:46.000Z</time>
      </trkpt>
      <trkpt lat="59.084944725" lon="30.0188541412">
        <time>2026-04-22T11:02:48.000Z</time>
      </trkpt>
      <trkpt lat="59.0849661827" lon="30.0188112259">
        <time>2026-04-22T11:02:51.000Z</time>
      </trkpt>
      <trkpt lat="59.0850090981" lon="30.0187683105">
        <time>2026-04-22T11:02:53.000Z</time>
      </trkpt>
      <trkpt lat="59.0850090981" lon="30.0187039375">
        <time>2026-04-22T11:02:56.000Z</time>
      </trkpt>
      <trkpt lat="59.0850305557" lon="30.0186824799">
        <time>2026-04-22T11:02:58.000Z</time>
      </trkpt>
      <trkpt lat="59.0850734711" lon="30.0186610222">
        <time>2026-04-22T11:03:01.000Z</time>
      </trkpt>
      <trkpt lat="59.0850949287" lon="30.0187253952">
        <time>2026-04-22T11:03:03.000Z</time>
      </trkpt>
      <trkpt lat="59.0850949287" lon="30.0187253952">
        <time>2026-04-22T11:03:06.000Z</time>
      </trkpt>
      <trkpt lat="59.0850949287" lon="30.0187468529">
        <time>2026-04-22T11:03:08.000Z</time>
      </trkpt>
      <trkpt lat="59.0851163864" lon="30.0187897682">
        <time>2026-04-22T11:03:11.000Z</time>
      </trkpt>
      <trkpt lat="59.0851378441" lon="30.0188326836">
        <time>2026-04-22T11:03:13.000Z</time>
      </trkpt>
      <trkpt lat="59.0851593018" lon="30.0189185143">
        <time>2026-04-22T11:03:16.000Z</time>
      </trkpt>
      <trkpt lat="59.0851807594" lon="30.0189828873">
        <time>2026-04-22T11:03:18.000Z</time>
      </trkpt>
      <trkpt lat="59.0852236748" lon="30.0189828873">
        <time>2026-04-22T11:03:21.000Z</time>
      </trkpt>
      <trkpt lat="59.0852451324" lon="30.0190043449">
        <time>2026-04-22T11:03:23.000Z</time>
      </trkpt>
      <trkpt lat="59.0852451324" lon="30.0189828873">
        <time>2026-04-22T11:03:26.000Z</time>
      </trkpt>
      <trkpt lat="59.0852451324" lon="30.0189399719">
        <time>2026-04-22T11:03:28.000Z</time>
      </trkpt>
      <trkpt lat="59.0852665901" lon="30.0188970566">
        <time>2026-04-22T11:03:31.000Z</time>
      </trkpt>
      <trkpt lat="59.0852880478" lon="30.0188541412">
        <time>2026-04-22T11:03:33.000Z</time>
      </trkpt>
      <trkpt lat="59.0853095055" lon="30.0188326836">
        <time>2026-04-22T11:03:36.000Z</time>
      </trkpt>
      <trkpt lat="59.0853524208" lon="30.0187897682">
        <time>2026-04-22T11:03:38.000Z</time>
      </trkpt>
      <trkpt lat="59.0853738785" lon="30.0188112259">
        <time>2026-04-22T11:03:41.000Z</time>
      </trkpt>
      <trkpt lat="59.0853953362" lon="30.0188326836">
        <time>2026-04-22T11:03:43.000Z</time>
      </trkpt>
      <trkpt lat="59.0853953362" lon="30.0187897682">
        <time>2026-04-22T11:03:46.000Z</time>
      </trkpt>
      <trkpt lat="59.0853953362" lon="30.0187468529">
        <time>2026-04-22T11:03:48.000Z</time>
      </trkpt>
      <trkpt lat="59.0853953362" lon="30.0186824799">
        <time>2026-04-22T11:03:51.000Z</time>
      </trkpt>
      <trkpt lat="59.0854167938" lon="30.0186610222">
        <time>2026-04-22T11:03:53.000Z</time>
      </trkpt>
      <trkpt lat="59.0854597092" lon="30.0185966492">
        <time>2026-04-22T11:03:56.000Z</time>
      </trkpt>
      <trkpt lat="59.0855026245" lon="30.0185537338">
        <time>2026-04-22T11:03:58.000Z</time>
      </trkpt>
      <trkpt lat="59.0855026245" lon="30.0185537338">
        <time>2026-04-22T11:04:01.000Z</time>
      </trkpt>
      <trkpt lat="59.0855026245" lon="30.0185966492">
        <time>2026-04-22T11:04:03.000Z</time>
      </trkpt>
      <trkpt lat="59.0855026245" lon="30.0185966492">
        <time>2026-04-22T11:04:06.000Z</time>
      </trkpt>
      <trkpt lat="59.0855026245" lon="30.0186181068">
        <time>2026-04-22T11:04:08.000Z</time>
      </trkpt>
      <trkpt lat="59.0855455399" lon="30.0186610222">
        <time>2026-04-22T11:04:11.000Z</time>
      </trkpt>
      <trkpt lat="59.0855669975" lon="30.0186610222">
        <time>2026-04-22T11:04:13.000Z</time>
      </trkpt>
      <trkpt lat="59.0855884552" lon="30.0185966492">
        <time>2026-04-22T11:04:16.000Z</time>
      </trkpt>
      <trkpt lat="59.0856099129" lon="30.0185966492">
        <time>2026-04-22T11:04:18.000Z</time>
      </trkpt>
      <trkpt lat="59.0856099129" lon="30.0185751915">
        <time>2026-04-22T11:04:21.000Z</time>
      </trkpt>
      <trkpt lat="59.0856313705" lon="30.0185322762">
        <time>2026-04-22T11:04:23.000Z</time>
      </trkpt>
      <trkpt lat="59.0856313705" lon="30.0185322762">
        <time>2026-04-22T11:04:26.000Z</time>
      </trkpt>
      <trkpt lat="59.0856313705" lon="30.0185322762">
        <time>2026-04-22T11:04:28.000Z</time>
      </trkpt>
      <trkpt lat="59.0856313705" lon="30.0185322762">
        <time>2026-04-22T11:04:31.000Z</time>
      </trkpt>
      <trkpt lat="59.0856313705" lon="30.0185322762">
        <time>2026-04-22T11:04:33.000Z</time>
      </trkpt>
      <trkpt lat="59.0856313705" lon="30.0185322762">
        <time>2026-04-22T11:04:36.000Z</time>
      </trkpt>
      <trkpt lat="59.0856313705" lon="30.0185322762">
        <time>2026-04-22T11:04:38.000Z</time>
      </trkpt>
      <trkpt lat="59.0856313705" lon="30.0185322762">
        <time>2026-04-22T11:04:41.000Z</time>
      </trkpt>
      <trkpt lat="59.0856313705" lon="30.0185322762">
        <time>2026-04-22T11:04:43.000Z</time>
      </trkpt>
      <trkpt lat="59.0856099129" lon="30.0185108185">
        <time>2026-04-22T11:04:46.000Z</time>
      </trkpt>
      <trkpt lat="59.0855884552" lon="30.0185322762">
        <time>2026-04-22T11:04:48.000Z</time>
      </trkpt>
      <trkpt lat="59.0855884552" lon="30.0185537338">
        <time>2026-04-22T11:04:51.000Z</time>
      </trkpt>
      <trkpt lat="59.0855669975" lon="30.0185537338">
        <time>2026-04-22T11:04:53.000Z</time>
      </trkpt>
      <trkpt lat="59.0855884552" lon="30.0185751915">
        <time>2026-04-22T11:04:56.000Z</time>
      </trkpt>
      <trkpt lat="59.0855669975" lon="30.0185751915">
        <time>2026-04-22T11:04:58.000Z</time>
      </trkpt>
      <trkpt lat="59.0855884552" lon="30.0185751915">
        <time>2026-04-22T11:05:01.000Z</time>
      </trkpt>
      <trkpt lat="59.0855884552" lon="30.0185537338">
        <time>2026-04-22T11:05:03.000Z</time>
      </trkpt>
      <trkpt lat="59.0855884552" lon="30.0185537338">
        <time>2026-04-22T11:05:06.000Z</time>
      </trkpt>
      <trkpt lat="59.0855884552" lon="30.0185537338">
        <time>2026-04-22T11:05:08.000Z</time>
      </trkpt>
      <trkpt lat="59.0855884552" lon="30.0185537338">
        <time>2026-04-22T11:05:11.000Z</time>
      </trkpt>
      <trkpt lat="59.0855884552" lon="30.0185537338">
        <time>2026-04-22T11:05:13.000Z</time>
      </trkpt>
      <trkpt lat="59.0855884552" lon="30.0185537338">
        <time>2026-04-22T11:05:16.000Z</time>
      </trkpt>
      <trkpt lat="59.0855884552" lon="30.0185537338">
        <time>2026-04-22T11:05:18.000Z</time>
      </trkpt>
      <trkpt lat="59.0855884552" lon="30.0185537338">
        <time>2026-04-22T11:05:21.000Z</time>
      </trkpt>
      <trkpt lat="59.0856099129" lon="30.0185108185">
        <time>2026-04-22T11:05:23.000Z</time>
      </trkpt>
      <trkpt lat="59.0856313705" lon="30.0184464455">
        <time>2026-04-22T11:05:26.000Z</time>
      </trkpt>
      <trkpt lat="59.0856313705" lon="30.0184035301">
        <time>2026-04-22T11:05:28.000Z</time>
      </trkpt>
      <trkpt lat="59.0856313705" lon="30.0183391571">
        <time>2026-04-22T11:05:31.000Z</time>
      </trkpt>
      <trkpt lat="59.0856528282" lon="30.0182747841">
        <time>2026-04-22T11:05:33.000Z</time>
      </trkpt>
      <trkpt lat="59.0856528282" lon="30.0182747841">
        <time>2026-04-22T11:05:36.000Z</time>
      </trkpt>
      <trkpt lat="59.0856528282" lon="30.0182747841">
        <time>2026-04-22T11:05:38.000Z</time>
      </trkpt>
      <trkpt lat="59.0856099129" lon="30.0182747841">
        <time>2026-04-22T11:05:41.000Z</time>
      </trkpt>
      <trkpt lat="59.0855669975" lon="30.0182533264">
        <time>2026-04-22T11:05:43.000Z</time>
      </trkpt>
      <trkpt lat="59.0855669975" lon="30.0181460381">
        <time>2026-04-22T11:05:46.000Z</time>
      </trkpt>
      <trkpt lat="59.0855669975" lon="30.0180387497">
        <time>2026-04-22T11:05:48.000Z</time>
      </trkpt>
      <trkpt lat="59.0855669975" lon="30.0179314613">
        <time>2026-04-22T11:05:51.000Z</time>
      </trkpt>
      <trkpt lat="59.0855455399" lon="30.0179100037">
        <time>2026-04-22T11:05:53.000Z</time>
      </trkpt>
      <trkpt lat="59.0855240822" lon="30.0178670883">
        <time>2026-04-22T11:05:56.000Z</time>
      </trkpt>
      <trkpt lat="59.0855455399" lon="30.017824173">
        <time>2026-04-22T11:05:58.000Z</time>
      </trkpt>
      <trkpt lat="59.0855455399" lon="30.0177812576">
        <time>2026-04-22T11:06:01.000Z</time>
      </trkpt>
      <trkpt lat="59.0855669975" lon="30.0177812576">
        <time>2026-04-22T11:06:03.000Z</time>
      </trkpt>
      <trkpt lat="59.0855455399" lon="30.0177598">
        <time>2026-04-22T11:06:06.000Z</time>
      </trkpt>
      <trkpt lat="59.0855240822" lon="30.0177812576">
        <time>2026-04-22T11:06:08.000Z</time>
      </trkpt>
      <trkpt lat="59.0855240822" lon="30.0177598">
        <time>2026-04-22T11:06:11.000Z</time>
      </trkpt>
      <trkpt lat="59.0855240822" lon="30.0176739693">
        <time>2026-04-22T11:06:13.000Z</time>
      </trkpt>
      <trkpt lat="59.0855240822" lon="30.0175666809">
        <time>2026-04-22T11:06:16.000Z</time>
      </trkpt>
      <trkpt lat="59.0855240822" lon="30.0175023079">
        <time>2026-04-22T11:06:18.000Z</time>
      </trkpt>
      <trkpt lat="59.0855455399" lon="30.0174379349">
        <time>2026-04-22T11:06:21.000Z</time>
      </trkpt>
      <trkpt lat="59.0855669975" lon="30.0173521042">
        <time>2026-04-22T11:06:23.000Z</time>
      </trkpt>
      <trkpt lat="59.0855455399" lon="30.0173091888">
        <time>2026-04-22T11:06:26.000Z</time>
      </trkpt>
      <trkpt lat="59.0855026245" lon="30.0173521042">
        <time>2026-04-22T11:06:28.000Z</time>
      </trkpt>
      <trkpt lat="59.0854597092" lon="30.0173521042">
        <time>2026-04-22T11:06:31.000Z</time>
      </trkpt>
      <trkpt lat="59.0854382515" lon="30.0173091888">
        <time>2026-04-22T11:06:33.000Z</time>
      </trkpt>
      <trkpt lat="59.0854167938" lon="30.0172662735">
        <time>2026-04-22T11:06:36.000Z</time>
      </trkpt>
      <trkpt lat="59.0853953362" lon="30.0172662735">
        <time>2026-04-22T11:06:38.000Z</time>
      </trkpt>
      <trkpt lat="59.0853953362" lon="30.0172662735">
        <time>2026-04-22T11:06:41.000Z</time>
      </trkpt>
      <trkpt lat="59.0853953362" lon="30.0172662735">
        <time>2026-04-22T11:06:43.000Z</time>
      </trkpt>
      <trkpt lat="59.0853738785" lon="30.0172662735">
        <time>2026-04-22T11:06:46.000Z</time>
      </trkpt>
      <trkpt lat="59.0853524208" lon="30.0173306465">
        <time>2026-04-22T11:06:48.000Z</time>
      </trkpt>
      <trkpt lat="59.0853095055" lon="30.0173950195">
        <time>2026-04-22T11:06:51.000Z</time>
      </trkpt>
      <trkpt lat="59.0852880478" lon="30.0174164772">
        <time>2026-04-22T11:06:53.000Z</time>
      </trkpt>
      <trkpt lat="59.0852451324" lon="30.0173950195">
        <time>2026-04-22T11:06:56.000Z</time>
      </trkpt>
      <trkpt lat="59.0852022171" lon="30.0174379349">
        <time>2026-04-22T11:06:58.000Z</time>
      </trkpt>
      <trkpt lat="59.0851593018" lon="30.0174593925">
        <time>2026-04-22T11:07:01.000Z</time>
      </trkpt>
      <trkpt lat="59.0851378441" lon="30.0174164772">
        <time>2026-04-22T11:07:03.000Z</time>
      </trkpt>
      <trkpt lat="59.0851163864" lon="30.0173735619">
        <time>2026-04-22T11:07:06.000Z</time>
      </trkpt>
      <trkpt lat="59.0850949287" lon="30.0173091888">
        <time>2026-04-22T11:07:08.000Z</time>
      </trkpt>
      <trkpt lat="59.0850734711" lon="30.0172448158">
        <time>2026-04-22T11:07:11.000Z</time>
      </trkpt>
      <trkpt lat="59.0850734711" lon="30.0171589851">
        <time>2026-04-22T11:07:13.000Z</time>
      </trkpt>
      <trkpt lat="59.0850949287" lon="30.0171160698">
        <time>2026-04-22T11:07:16.000Z</time>
      </trkpt>
      <trkpt lat="59.0850949287" lon="30.0171804428">
        <time>2026-04-22T11:07:18.000Z</time>
      </trkpt>
      <trkpt lat="59.0850520134" lon="30.0172662735">
        <time>2026-04-22T11:07:21.000Z</time>
      </trkpt>
      <trkpt lat="59.0850305557" lon="30.0173735619">
        <time>2026-04-22T11:07:23.000Z</time>
      </trkpt>
      <trkpt lat="59.0849876404" lon="30.0174808502">
        <time>2026-04-22T11:07:26.000Z</time>
      </trkpt>
      <trkpt lat="59.0849661827" lon="30.0175666809">
        <time>2026-04-22T11:07:28.000Z</time>
      </trkpt>
      <trkpt lat="59.084944725" lon="30.0175452232">
        <time>2026-04-22T11:07:31.000Z</time>
      </trkpt>
      <trkpt lat="59.0849232674" lon="30.0175237656">
        <time>2026-04-22T11:07:33.000Z</time>
      </trkpt>
      <trkpt lat="59.0849232674" lon="30.0175023079">
        <time>2026-04-22T11:07:36.000Z</time>
      </trkpt>
      <trkpt lat="59.084880352" lon="30.0175023079">
        <time>2026-04-22T11:07:38.000Z</time>
      </trkpt>
      <trkpt lat="59.0848588943" lon="30.0175023079">
        <time>2026-04-22T11:07:41.000Z</time>
      </trkpt>
      <trkpt lat="59.0848588943" lon="30.0175023079">
        <time>2026-04-22T11:07:43.000Z</time>
      </trkpt>
      <trkpt lat="59.0848374367" lon="30.0174379349">
        <time>2026-04-22T11:07:46.000Z</time>
      </trkpt>
      <trkpt lat="59.084815979" lon="30.0173950195">
        <time>2026-04-22T11:07:48.000Z</time>
      </trkpt>
      <trkpt lat="59.0847945213" lon="30.0174379349">
        <time>2026-04-22T11:07:51.000Z</time>
      </trkpt>
      <trkpt lat="59.0847730637" lon="30.0174593925">
        <time>2026-04-22T11:07:53.000Z</time>
      </trkpt>
      <trkpt lat="59.0847086906" lon="30.0175452232">
        <time>2026-04-22T11:07:56.000Z</time>
      </trkpt>
      <trkpt lat="59.084687233" lon="30.0175881386">
        <time>2026-04-22T11:07:58.000Z</time>
      </trkpt>
      <trkpt lat="59.0846443176" lon="30.0176310539">
        <time>2026-04-22T11:08:01.000Z</time>
      </trkpt>
      <trkpt lat="59.0846443176" lon="30.0176739693">
        <time>2026-04-22T11:08:03.000Z</time>
      </trkpt>
      <trkpt lat="59.0846014023" lon="30.0176739693">
        <time>2026-04-22T11:08:06.000Z</time>
      </trkpt>
      <trkpt lat="59.0845584869" lon="30.0176525116">
        <time>2026-04-22T11:08:08.000Z</time>
      </trkpt>
      <trkpt lat="59.0845370293" lon="30.0175666809">
        <time>2026-04-22T11:08:11.000Z</time>
      </trkpt>
      <trkpt lat="59.0844941139" lon="30.0175452232">
        <time>2026-04-22T11:08:13.000Z</time>
      </trkpt>
      <trkpt lat="59.0844297409" lon="30.0176525116">
        <time>2026-04-22T11:08:16.000Z</time>
      </trkpt>
      <trkpt lat="59.0843653679" lon="30.0177168846">
        <time>2026-04-22T11:08:18.000Z</time>
      </trkpt>
      <trkpt lat="59.0843224525" lon="30.0177812576">
        <time>2026-04-22T11:08:21.000Z</time>
      </trkpt>
      <trkpt lat="59.0843009949" lon="30.0178027153">
        <time>2026-04-22T11:08:23.000Z</time>
      </trkpt>
      <trkpt lat="59.0843009949" lon="30.0178027153">
        <time>2026-04-22T11:08:26.000Z</time>
      </trkpt>
      <trkpt lat="59.0843439102" lon="30.0177812576">
        <time>2026-04-22T11:08:28.000Z</time>
      </trkpt>
      <trkpt lat="59.0844082832" lon="30.0175881386">
        <time>2026-04-22T11:08:31.000Z</time>
      </trkpt>
      <trkpt lat="59.0844941139" lon="30.0174379349">
        <time>2026-04-22T11:08:33.000Z</time>
      </trkpt>
      <trkpt lat="59.0845370293" lon="30.0172877312">
        <time>2026-04-22T11:08:36.000Z</time>
      </trkpt>
      <trkpt lat="59.0845370293" lon="30.0171804428">
        <time>2026-04-22T11:08:38.000Z</time>
      </trkpt>
      <trkpt lat="59.0845155716" lon="30.0171160698">
        <time>2026-04-22T11:08:41.000Z</time>
      </trkpt>
      <trkpt lat="59.0845370293" lon="30.0170516968">
        <time>2026-04-22T11:08:43.000Z</time>
      </trkpt>
      <trkpt lat="59.0845584869" lon="30.0169873238">
        <time>2026-04-22T11:08:46.000Z</time>
      </trkpt>
      <trkpt lat="59.0845799446" lon="30.0169229507">
        <time>2026-04-22T11:08:48.000Z</time>
      </trkpt>
      <trkpt lat="59.0845584869" lon="30.0168800354">
        <time>2026-04-22T11:08:51.000Z</time>
      </trkpt>
      <trkpt lat="59.0845370293" lon="30.0168156624">
        <time>2026-04-22T11:08:53.000Z</time>
      </trkpt>
      <trkpt lat="59.0845370293" lon="30.0167512894">
        <time>2026-04-22T11:08:56.000Z</time>
      </trkpt>
      <trkpt lat="59.0844941139" lon="30.016708374">
        <time>2026-04-22T11:08:58.000Z</time>
      </trkpt>
      <trkpt lat="59.0845155716" lon="30.016708374">
        <time>2026-04-22T11:09:01.000Z</time>
      </trkpt>
      <trkpt lat="59.0845155716" lon="30.0166869164">
        <time>2026-04-22T11:09:03.000Z</time>
      </trkpt>
      <trkpt lat="59.0845370293" lon="30.0166225433">
        <time>2026-04-22T11:09:06.000Z</time>
      </trkpt>
      <trkpt lat="59.0845584869" lon="30.016579628">
        <time>2026-04-22T11:09:08.000Z</time>
      </trkpt>
      <trkpt lat="59.0845799446" lon="30.016515255">
        <time>2026-04-22T11:09:11.000Z</time>
      </trkpt>
      <trkpt lat="59.0845799446" lon="30.016515255">
        <time>2026-04-22T11:09:13.000Z</time>
      </trkpt>
      <trkpt lat="59.0845799446" lon="30.016515255">
        <time>2026-04-22T11:09:16.000Z</time>
      </trkpt>
      <trkpt lat="59.0845584869" lon="30.0164723396">
        <time>2026-04-22T11:09:18.000Z</time>
      </trkpt>
      <trkpt lat="59.0845370293" lon="30.016450882">
        <time>2026-04-22T11:09:21.000Z</time>
      </trkpt>
      <trkpt lat="59.0845370293" lon="30.0164723396">
        <time>2026-04-22T11:09:23.000Z</time>
      </trkpt>
      <trkpt lat="59.0845799446" lon="30.0164723396">
        <time>2026-04-22T11:09:26.000Z</time>
      </trkpt>
      <trkpt lat="59.0846014023" lon="30.0164723396">
        <time>2026-04-22T11:09:28.000Z</time>
      </trkpt>
      <trkpt lat="59.0846014023" lon="30.016450882">
        <time>2026-04-22T11:09:31.000Z</time>
      </trkpt>
      <trkpt lat="59.08462286" lon="30.016450882">
        <time>2026-04-22T11:09:33.000Z</time>
      </trkpt>
      <trkpt lat="59.0846443176" lon="30.0164079666">
        <time>2026-04-22T11:09:36.000Z</time>
      </trkpt>
      <trkpt lat="59.0846657753" lon="30.0163650513">
        <time>2026-04-22T11:09:38.000Z</time>
      </trkpt>
      <trkpt lat="59.084687233" lon="30.0163006783">
        <time>2026-04-22T11:09:41.000Z</time>
      </trkpt>
      <trkpt lat="59.0847086906" lon="30.0162363052">
        <time>2026-04-22T11:09:43.000Z</time>
      </trkpt>
      <trkpt lat="59.0847301483" lon="30.0161719322">
        <time>2026-04-22T11:09:46.000Z</time>
      </trkpt>
      <trkpt lat="59.0847301483" lon="30.0161504745">
        <time>2026-04-22T11:09:48.000Z</time>
      </trkpt>
      <trkpt lat="59.084751606" lon="30.0161933899">
        <time>2026-04-22T11:09:51.000Z</time>
      </trkpt>
      <trkpt lat="59.0847730637" lon="30.0162363052">
        <time>2026-04-22T11:09:53.000Z</time>
      </trkpt>
      <trkpt lat="59.0847730637" lon="30.0163435936">
        <time>2026-04-22T11:09:56.000Z</time>
      </trkpt>
      <trkpt lat="59.0847945213" lon="30.0163650513">
        <time>2026-04-22T11:09:58.000Z</time>
      </trkpt>
      <trkpt lat="59.0847945213" lon="30.0163650513">
        <time>2026-04-22T11:10:01.000Z</time>
      </trkpt>
      <trkpt lat="59.0847945213" lon="30.0163650513">
        <time>2026-04-22T11:10:03.000Z</time>
      </trkpt>
      <trkpt lat="59.0847945213" lon="30.0163650513">
        <time>2026-04-22T11:10:06.000Z</time>
      </trkpt>
      <trkpt lat="59.0847945213" lon="30.0163865089">
        <time>2026-04-22T11:10:08.000Z</time>
      </trkpt>
      <trkpt lat="59.0847945213" lon="30.0164079666">
        <time>2026-04-22T11:10:11.000Z</time>
      </trkpt>
      <trkpt lat="59.084815979" lon="30.0164079666">
        <time>2026-04-22T11:10:13.000Z</time>
      </trkpt>
      <trkpt lat="59.0848374367" lon="30.0164294243">
        <time>2026-04-22T11:10:16.000Z</time>
      </trkpt>
      <trkpt lat="59.0848588943" lon="30.0164294243">
        <time>2026-04-22T11:10:18.000Z</time>
      </trkpt>
      <trkpt lat="59.0848588943" lon="30.0164294243">
        <time>2026-04-22T11:10:21.000Z</time>
      </trkpt>
      <trkpt lat="59.084880352" lon="30.0164294243">
        <time>2026-04-22T11:10:23.000Z</time>
      </trkpt>
      <trkpt lat="59.0849018097" lon="30.0164723396">
        <time>2026-04-22T11:10:26.000Z</time>
      </trkpt>
      <trkpt lat="59.0849232674" lon="30.0164937973">
        <time>2026-04-22T11:10:28.000Z</time>
      </trkpt>
      <trkpt lat="59.084944725" lon="30.016450882">
        <time>2026-04-22T11:10:31.000Z</time>
      </trkpt>
      <trkpt lat="59.0849661827" lon="30.0164079666">
        <time>2026-04-22T11:10:33.000Z</time>
      </trkpt>
      <trkpt lat="59.0849876404" lon="30.0163650513">
        <time>2026-04-22T11:10:36.000Z</time>
      </trkpt>
      <trkpt lat="59.0849876404" lon="30.0163435936">
        <time>2026-04-22T11:10:38.000Z</time>
      </trkpt>
      <trkpt lat="59.0849876404" lon="30.0163435936">
        <time>2026-04-22T11:10:41.000Z</time>
      </trkpt>
      <trkpt lat="59.0850305557" lon="30.0163221359">
        <time>2026-04-22T11:10:43.000Z</time>
      </trkpt>
      <trkpt lat="59.0850734711" lon="30.0162792206">
        <time>2026-04-22T11:10:46.000Z</time>
      </trkpt>
      <trkpt lat="59.0850949287" lon="30.0162577629">
        <time>2026-04-22T11:10:48.000Z</time>
      </trkpt>
      <trkpt lat="59.0851163864" lon="30.0162363052">
        <time>2026-04-22T11:10:51.000Z</time>
      </trkpt>
      <trkpt lat="59.0851378441" lon="30.0162577629">
        <time>2026-04-22T11:10:53.000Z</time>
      </trkpt>
      <trkpt lat="59.0851593018" lon="30.0162148476">
        <time>2026-04-22T11:10:56.000Z</time>
      </trkpt>
      <trkpt lat="59.0851807594" lon="30.0161719322">
        <time>2026-04-22T11:10:58.000Z</time>
      </trkpt>
      <trkpt lat="59.0852022171" lon="30.0160861015">
        <time>2026-04-22T11:11:01.000Z</time>
      </trkpt>
      <trkpt lat="59.0852022171" lon="30.0161290169">
        <time>2026-04-22T11:11:03.000Z</time>
      </trkpt>
      <trkpt lat="59.0852022171" lon="30.0161075592">
        <time>2026-04-22T11:11:06.000Z</time>
      </trkpt>
      <trkpt lat="59.0852451324" lon="30.0160217285">
        <time>2026-04-22T11:11:08.000Z</time>
      </trkpt>
      <trkpt lat="59.0852665901" lon="30.0159573555">
        <time>2026-04-22T11:11:11.000Z</time>
      </trkpt>
      <trkpt lat="59.0852880478" lon="30.0159358978">
        <time>2026-04-22T11:11:13.000Z</time>
      </trkpt>
      <trkpt lat="59.0852880478" lon="30.0160002708">
        <time>2026-04-22T11:11:16.000Z</time>
      </trkpt>
      <trkpt lat="59.0852451324" lon="30.0159788132">
        <time>2026-04-22T11:11:18.000Z</time>
      </trkpt>
      <trkpt lat="59.0852236748" lon="30.0158929825">
        <time>2026-04-22T11:11:21.000Z</time>
      </trkpt>
      <trkpt lat="59.0852236748" lon="30.0158286095">
        <time>2026-04-22T11:11:23.000Z</time>
      </trkpt>
      <trkpt lat="59.0851807594" lon="30.0157856941">
        <time>2026-04-22T11:11:26.000Z</time>
      </trkpt>
      <trkpt lat="59.0851807594" lon="30.0157213211">
        <time>2026-04-22T11:11:28.000Z</time>
      </trkpt>
      <trkpt lat="59.0851593018" lon="30.0156784058">
        <time>2026-04-22T11:11:31.000Z</time>
      </trkpt>
      <trkpt lat="59.0851593018" lon="30.0156784058">
        <time>2026-04-22T11:11:33.000Z</time>
      </trkpt>
      <trkpt lat="59.0851593018" lon="30.0156784058">
        <time>2026-04-22T11:11:36.000Z</time>
      </trkpt>
      <trkpt lat="59.0851593018" lon="30.0156784058">
        <time>2026-04-22T11:11:38.000Z</time>
      </trkpt>
      <trkpt lat="59.0851807594" lon="30.0156354904">
        <time>2026-04-22T11:11:41.000Z</time>
      </trkpt>
      <trkpt lat="59.0851807594" lon="30.0155282021">
        <time>2026-04-22T11:11:43.000Z</time>
      </trkpt>
      <trkpt lat="59.0852022171" lon="30.0154209137">
        <time>2026-04-22T11:11:46.000Z</time>
      </trkpt>
      <trkpt lat="59.0851807594" lon="30.0153565407">
        <time>2026-04-22T11:11:48.000Z</time>
      </trkpt>
      <trkpt lat="59.0852022171" lon="30.0152921677">
        <time>2026-04-22T11:11:51.000Z</time>
      </trkpt>
      <trkpt lat="59.0852022171" lon="30.01527071">
        <time>2026-04-22T11:11:53.000Z</time>
      </trkpt>
      <trkpt lat="59.0852022171" lon="30.0153136253">
        <time>2026-04-22T11:11:56.000Z</time>
      </trkpt>
      <trkpt lat="59.0852236748" lon="30.015335083">
        <time>2026-04-22T11:11:58.000Z</time>
      </trkpt>
      <trkpt lat="59.0852451324" lon="30.0153136253">
        <time>2026-04-22T11:12:01.000Z</time>
      </trkpt>
      <trkpt lat="59.0852236748" lon="30.01527071">
        <time>2026-04-22T11:12:03.000Z</time>
      </trkpt>
      <trkpt lat="59.0852236748" lon="30.015206337">
        <time>2026-04-22T11:12:06.000Z</time>
      </trkpt>
      <trkpt lat="59.0852022171" lon="30.015141964">
        <time>2026-04-22T11:12:08.000Z</time>
      </trkpt>
      <trkpt lat="59.0852022171" lon="30.015141964">
        <time>2026-04-22T11:12:11.000Z</time>
      </trkpt>
      <trkpt lat="59.0852022171" lon="30.015141964">
        <time>2026-04-22T11:12:13.000Z</time>
      </trkpt>
      <trkpt lat="59.0852022171" lon="30.0151205063">
        <time>2026-04-22T11:12:16.000Z</time>
      </trkpt>
      <trkpt lat="59.0852236748" lon="30.0150561333">
        <time>2026-04-22T11:12:18.000Z</time>
      </trkpt>
      <trkpt lat="59.0852236748" lon="30.0150132179">
        <time>2026-04-22T11:12:21.000Z</time>
      </trkpt>
      <trkpt lat="59.0851807594" lon="30.0149273872">
        <time>2026-04-22T11:12:23.000Z</time>
      </trkpt>
      <trkpt lat="59.0851378441" lon="30.0149059296">
        <time>2026-04-22T11:12:26.000Z</time>
      </trkpt>
      <trkpt lat="59.0851163864" lon="30.0148630142">
        <time>2026-04-22T11:12:28.000Z</time>
      </trkpt>
      <trkpt lat="59.0851163864" lon="30.0148200989">
        <time>2026-04-22T11:12:31.000Z</time>
      </trkpt>
      <trkpt lat="59.0851163864" lon="30.0148200989">
        <time>2026-04-22T11:12:33.000Z</time>
      </trkpt>
      <trkpt lat="59.0851163864" lon="30.0148200989">
        <time>2026-04-22T11:12:36.000Z</time>
      </trkpt>
      <trkpt lat="59.0851163864" lon="30.0148200989">
        <time>2026-04-22T11:12:38.000Z</time>
      </trkpt>
      <trkpt lat="59.0851378441" lon="30.0148200989">
        <time>2026-04-22T11:12:41.000Z</time>
      </trkpt>
      <trkpt lat="59.0851163864" lon="30.0147771835">
        <time>2026-04-22T11:12:43.000Z</time>
      </trkpt>
      <trkpt lat="59.0851163864" lon="30.0147557259">
        <time>2026-04-22T11:12:46.000Z</time>
      </trkpt>
      <trkpt lat="59.0851163864" lon="30.0147342682">
        <time>2026-04-22T11:12:48.000Z</time>
      </trkpt>
      <trkpt lat="59.0851163864" lon="30.0147557259">
        <time>2026-04-22T11:12:51.000Z</time>
      </trkpt>
      <trkpt lat="59.0850949287" lon="30.0147771835">
        <time>2026-04-22T11:12:53.000Z</time>
      </trkpt>
      <trkpt lat="59.0850949287" lon="30.0147771835">
        <time>2026-04-22T11:12:56.000Z</time>
      </trkpt>
      <trkpt lat="59.0850949287" lon="30.0147771835">
        <time>2026-04-22T11:12:58.000Z</time>
      </trkpt>
      <trkpt lat="59.0850949287" lon="30.0147771835">
        <time>2026-04-22T11:13:01.000Z</time>
      </trkpt>
      <trkpt lat="59.0850949287" lon="30.0147771835">
        <time>2026-04-22T11:13:03.000Z</time>
      </trkpt>
      <trkpt lat="59.0850949287" lon="30.0148200989">
        <time>2026-04-22T11:13:06.000Z</time>
      </trkpt>
      <trkpt lat="59.0850734711" lon="30.0148844719">
        <time>2026-04-22T11:13:08.000Z</time>
      </trkpt>
      <trkpt lat="59.0850520134" lon="30.0149488449">
        <time>2026-04-22T11:13:11.000Z</time>
      </trkpt>
      <trkpt lat="59.0850305557" lon="30.0149703026">
        <time>2026-04-22T11:13:13.000Z</time>
      </trkpt>
      <trkpt lat="59.0850090981" lon="30.0149488449">
        <time>2026-04-22T11:13:16.000Z</time>
      </trkpt>
      <trkpt lat="59.0849876404" lon="30.0149917603">
        <time>2026-04-22T11:13:18.000Z</time>
      </trkpt>
      <trkpt lat="59.0849876404" lon="30.0149703026">
        <time>2026-04-22T11:13:21.000Z</time>
      </trkpt>
      <trkpt lat="59.0849661827" lon="30.0149488449">
        <time>2026-04-22T11:13:23.000Z</time>
      </trkpt>
      <trkpt lat="59.0849876404" lon="30.0149488449">
        <time>2026-04-22T11:13:26.000Z</time>
      </trkpt>
      <trkpt lat="59.0849661827" lon="30.0149059296">
        <time>2026-04-22T11:13:28.000Z</time>
      </trkpt>
      <trkpt lat="59.084944725" lon="30.0149273872">
        <time>2026-04-22T11:13:31.000Z</time>
      </trkpt>
      <trkpt lat="59.0849018097" lon="30.0149273872">
        <time>2026-04-22T11:13:33.000Z</time>
      </trkpt>
      <trkpt lat="59.084880352" lon="30.0149488449">
        <time>2026-04-22T11:13:36.000Z</time>
      </trkpt>
      <trkpt lat="59.084880352" lon="30.0150132179">
        <time>2026-04-22T11:13:38.000Z</time>
      </trkpt>
      <trkpt lat="59.0848374367" lon="30.0150346756">
        <time>2026-04-22T11:13:41.000Z</time>
      </trkpt>
      <trkpt lat="59.0848374367" lon="30.0150132179">
        <time>2026-04-22T11:13:43.000Z</time>
      </trkpt>
      <trkpt lat="59.0847945213" lon="30.0150561333">
        <time>2026-04-22T11:13:46.000Z</time>
      </trkpt>
      <trkpt lat="59.0847730637" lon="30.0151205063">
        <time>2026-04-22T11:13:48.000Z</time>
      </trkpt>
      <trkpt lat="59.084751606" lon="30.015206337">
        <time>2026-04-22T11:13:51.000Z</time>
      </trkpt>
      <trkpt lat="59.0847301483" lon="30.0151634216">
        <time>2026-04-22T11:13:53.000Z</time>
      </trkpt>
      <trkpt lat="59.0847086906" lon="30.0150561333">
        <time>2026-04-22T11:13:56.000Z</time>
      </trkpt>
      <trkpt lat="59.0847086906" lon="30.0149703026">
        <time>2026-04-22T11:13:58.000Z</time>
      </trkpt>
      <trkpt lat="59.0846443176" lon="30.0149703026">
        <time>2026-04-22T11:14:01.000Z</time>
      </trkpt>
      <trkpt lat="59.0846014023" lon="30.0151205063">
        <time>2026-04-22T11:14:03.000Z</time>
      </trkpt>
      <trkpt lat="59.0845799446" lon="30.0152492523">
        <time>2026-04-22T11:14:06.000Z</time>
      </trkpt>
      <trkpt lat="59.0845584869" lon="30.0153136253">
        <time>2026-04-22T11:14:08.000Z</time>
      </trkpt>
      <trkpt lat="59.0845799446" lon="30.0153779984">
        <time>2026-04-22T11:14:11.000Z</time>
      </trkpt>
      <trkpt lat="59.0845799446" lon="30.015399456">
        <time>2026-04-22T11:14:13.000Z</time>
      </trkpt>
      <trkpt lat="59.0846014023" lon="30.0154852867">
        <time>2026-04-22T11:14:16.000Z</time>
      </trkpt>
      <trkpt lat="59.0846014023" lon="30.0156140327">
        <time>2026-04-22T11:14:18.000Z</time>
      </trkpt>
      <trkpt lat="59.0845584869" lon="30.0155925751">
        <time>2026-04-22T11:14:21.000Z</time>
      </trkpt>
      <trkpt lat="59.0845584869" lon="30.0154852867">
        <time>2026-04-22T11:14:23.000Z</time>
      </trkpt>
      <trkpt lat="59.0845155716" lon="30.0153565407">
        <time>2026-04-22T11:14:26.000Z</time>
      </trkpt>
      <trkpt lat="59.0845155716" lon="30.01527071">
        <time>2026-04-22T11:14:28.000Z</time>
      </trkpt>
      <trkpt lat="59.0844726562" lon="30.015206337">
        <time>2026-04-22T11:14:31.000Z</time>
      </trkpt>
      <trkpt lat="59.0844297409" lon="30.0151634216">
        <time>2026-04-22T11:14:33.000Z</time>
      </trkpt>
      <trkpt lat="59.0843868256" lon="30.0151634216">
        <time>2026-04-22T11:14:36.000Z</time>
      </trkpt>
      <trkpt lat="59.0843868256" lon="30.0151205063">
        <time>2026-04-22T11:14:38.000Z</time>
      </trkpt>
      <trkpt lat="59.0843439102" lon="30.0150561333">
        <time>2026-04-22T11:14:41.000Z</time>
      </trkpt>
      <trkpt lat="59.0843009949" lon="30.0150775909">
        <time>2026-04-22T11:14:43.000Z</time>
      </trkpt>
      <trkpt lat="59.0843009949" lon="30.0151205063">
        <time>2026-04-22T11:14:46.000Z</time>
      </trkpt>
      <trkpt lat="59.0843009949" lon="30.0151205063">
        <time>2026-04-22T11:14:48.000Z</time>
      </trkpt>
      <trkpt lat="59.0843009949" lon="30.0151205063">
        <time>2026-04-22T11:14:51.000Z</time>
      </trkpt>
      <trkpt lat="59.0843009949" lon="30.0150990486">
        <time>2026-04-22T11:14:53.000Z</time>
      </trkpt>
      <trkpt lat="59.0843224525" lon="30.0150132179">
        <time>2026-04-22T11:14:56.000Z</time>
      </trkpt>
      <trkpt lat="59.0843009949" lon="30.0149488449">
        <time>2026-04-22T11:14:58.000Z</time>
      </trkpt>
      <trkpt lat="59.0843224525" lon="30.0148844719">
        <time>2026-04-22T11:15:01.000Z</time>
      </trkpt>
      <trkpt lat="59.0843224525" lon="30.0148200989">
        <time>2026-04-22T11:15:03.000Z</time>
      </trkpt>
      <trkpt lat="59.0843009949" lon="30.0147986412">
        <time>2026-04-22T11:15:06.000Z</time>
      </trkpt>
      <trkpt lat="59.0842795372" lon="30.0147557259">
        <time>2026-04-22T11:15:08.000Z</time>
      </trkpt>
      <trkpt lat="59.0842795372" lon="30.0147771835">
        <time>2026-04-22T11:15:11.000Z</time>
      </trkpt>
      <trkpt lat="59.0842795372" lon="30.0147771835">
        <time>2026-04-22T11:15:13.000Z</time>
      </trkpt>
      <trkpt lat="59.0843009949" lon="30.0147342682">
        <time>2026-04-22T11:15:16.000Z</time>
      </trkpt>
      <trkpt lat="59.0843224525" lon="30.0147342682">
        <time>2026-04-22T11:15:18.000Z</time>
      </trkpt>
      <trkpt lat="59.0843224525" lon="30.0147128105">
        <time>2026-04-22T11:15:21.000Z</time>
      </trkpt>
      <trkpt lat="59.0843224525" lon="30.0146913528">
        <time>2026-04-22T11:15:23.000Z</time>
      </trkpt>
      <trkpt lat="59.0842580795" lon="30.0146698952">
        <time>2026-04-22T11:15:26.000Z</time>
      </trkpt>
      <trkpt lat="59.0842366219" lon="30.0145626068">
        <time>2026-04-22T11:15:28.000Z</time>
      </trkpt>
      <trkpt lat="59.0842366219" lon="30.0144767761">
        <time>2026-04-22T11:15:31.000Z</time>
      </trkpt>
      <trkpt lat="59.0842366219" lon="30.0144124031">
        <time>2026-04-22T11:15:33.000Z</time>
      </trkpt>
      <trkpt lat="59.0842366219" lon="30.0143694878">
        <time>2026-04-22T11:15:36.000Z</time>
      </trkpt>
      <trkpt lat="59.0842795372" lon="30.0143051147">
        <time>2026-04-22T11:15:38.000Z</time>
      </trkpt>
      <trkpt lat="59.0842795372" lon="30.0142192841">
        <time>2026-04-22T11:15:41.000Z</time>
      </trkpt>
      <trkpt lat="59.0842795372" lon="30.0141763687">
        <time>2026-04-22T11:15:43.000Z</time>
      </trkpt>
      <trkpt lat="59.0842580795" lon="30.0141334534">
        <time>2026-04-22T11:15:46.000Z</time>
      </trkpt>
      <trkpt lat="59.0842580795" lon="30.014090538">
        <time>2026-04-22T11:15:48.000Z</time>
      </trkpt>
      <trkpt lat="59.0842580795" lon="30.0140476227">
        <time>2026-04-22T11:15:51.000Z</time>
      </trkpt>
      <trkpt lat="59.0842580795" lon="30.014026165">
        <time>2026-04-22T11:15:53.000Z</time>
      </trkpt>
      <trkpt lat="59.0842151642" lon="30.0140047073">
        <time>2026-04-22T11:15:56.000Z</time>
      </trkpt>
      <trkpt lat="59.0841937065" lon="30.0139403343">
        <time>2026-04-22T11:15:58.000Z</time>
      </trkpt>
      <trkpt lat="59.0842151642" lon="30.0139188766">
        <time>2026-04-22T11:16:01.000Z</time>
      </trkpt>
      <trkpt lat="59.0842580795" lon="30.0139403343">
        <time>2026-04-22T11:16:03.000Z</time>
      </trkpt>
      <trkpt lat="59.0843009949" lon="30.0139188766">
        <time>2026-04-22T11:16:06.000Z</time>
      </trkpt>
      <trkpt lat="59.0843439102" lon="30.0138545036">
        <time>2026-04-22T11:16:08.000Z</time>
      </trkpt>
      <trkpt lat="59.0843439102" lon="30.013897419">
        <time>2026-04-22T11:16:11.000Z</time>
      </trkpt>
      <trkpt lat="59.0843868256" lon="30.013897419">
        <time>2026-04-22T11:16:13.000Z</time>
      </trkpt>
      <trkpt lat="59.0844082832" lon="30.013833046">
        <time>2026-04-22T11:16:16.000Z</time>
      </trkpt>
      <trkpt lat="59.0844511986" lon="30.0137901306">
        <time>2026-04-22T11:16:18.000Z</time>
      </trkpt>
      <trkpt lat="59.0844726562" lon="30.0138115883">
        <time>2026-04-22T11:16:21.000Z</time>
      </trkpt>
      <trkpt lat="59.0844726562" lon="30.0138115883">
        <time>2026-04-22T11:16:23.000Z</time>
      </trkpt>
      <trkpt lat="59.0844941139" lon="30.0138115883">
        <time>2026-04-22T11:16:26.000Z</time>
      </trkpt>
      <trkpt lat="59.0845155716" lon="30.0138115883">
        <time>2026-04-22T11:16:28.000Z</time>
      </trkpt>
      <trkpt lat="59.0845155716" lon="30.0137901306">
        <time>2026-04-22T11:16:31.000Z</time>
      </trkpt>
      <trkpt lat="59.0845370293" lon="30.0137686729">
        <time>2026-04-22T11:16:33.000Z</time>
      </trkpt>
      <trkpt lat="59.0845799446" lon="30.0136828423">
        <time>2026-04-22T11:16:36.000Z</time>
      </trkpt>
      <trkpt lat="59.0846014023" lon="30.0136184692">
        <time>2026-04-22T11:16:38.000Z</time>
      </trkpt>
      <trkpt lat="59.0846014023" lon="30.0135326385">
        <time>2026-04-22T11:16:41.000Z</time>
      </trkpt>
      <trkpt lat="59.0846014023" lon="30.0134897232">
        <time>2026-04-22T11:16:43.000Z</time>
      </trkpt>
      <trkpt lat="59.08462286" lon="30.0134682655">
        <time>2026-04-22T11:16:46.000Z</time>
      </trkpt>
      <trkpt lat="59.08462286" lon="30.0134682655">
        <time>2026-04-22T11:16:48.000Z</time>
      </trkpt>
      <trkpt lat="59.0846443176" lon="30.0135111809">
        <time>2026-04-22T11:16:51.000Z</time>
      </trkpt>
      <trkpt lat="59.084687233" lon="30.0135755539">
        <time>2026-04-22T11:16:53.000Z</time>
      </trkpt>
      <trkpt lat="59.0847301483" lon="30.0136184692">
        <time>2026-04-22T11:16:56.000Z</time>
      </trkpt>
      <trkpt lat="59.084751606" lon="30.0136613846">
        <time>2026-04-22T11:16:58.000Z</time>
      </trkpt>
      <trkpt lat="59.0847945213" lon="30.0136184692">
        <time>2026-04-22T11:17:01.000Z</time>
      </trkpt>
      <trkpt lat="59.0848374367" lon="30.0136184692">
        <time>2026-04-22T11:17:03.000Z</time>
      </trkpt>
      <trkpt lat="59.084880352" lon="30.0136399269">
        <time>2026-04-22T11:17:06.000Z</time>
      </trkpt>
      <trkpt lat="59.0849232674" lon="30.0136613846">
        <time>2026-04-22T11:17:08.000Z</time>
      </trkpt>
      <trkpt lat="59.0849661827" lon="30.0135970116">
        <time>2026-04-22T11:17:11.000Z</time>
      </trkpt>
      <trkpt lat="59.0849876404" lon="30.0135111809">
        <time>2026-04-22T11:17:13.000Z</time>
      </trkpt>
      <trkpt lat="59.0849876404" lon="30.0134897232">
        <time>2026-04-22T11:17:16.000Z</time>
      </trkpt>
      <trkpt lat="59.0849876404" lon="30.0134897232">
        <time>2026-04-22T11:17:18.000Z</time>
      </trkpt>
      <trkpt lat="59.0849876404" lon="30.0134682655">
        <time>2026-04-22T11:17:21.000Z</time>
      </trkpt>
      <trkpt lat="59.0849876404" lon="30.0134253502">
        <time>2026-04-22T11:17:23.000Z</time>
      </trkpt>
      <trkpt lat="59.0849661827" lon="30.0134253502">
        <time>2026-04-22T11:17:26.000Z</time>
      </trkpt>
      <trkpt lat="59.084944725" lon="30.0133824348">
        <time>2026-04-22T11:17:28.000Z</time>
      </trkpt>
      <trkpt lat="59.084944725" lon="30.0133180618">
        <time>2026-04-22T11:17:31.000Z</time>
      </trkpt>
      <trkpt lat="59.084944725" lon="30.0132536888">
        <time>2026-04-22T11:17:33.000Z</time>
      </trkpt>
      <trkpt lat="59.084944725" lon="30.0132107735">
        <time>2026-04-22T11:17:36.000Z</time>
      </trkpt>
      <trkpt lat="59.084944725" lon="30.0132107735">
        <time>2026-04-22T11:17:38.000Z</time>
      </trkpt>
      <trkpt lat="59.084880352" lon="30.0131678581">
        <time>2026-04-22T11:17:41.000Z</time>
      </trkpt>
      <trkpt lat="59.0848374367" lon="30.0131464005">
        <time>2026-04-22T11:17:43.000Z</time>
      </trkpt>
      <trkpt lat="59.084815979" lon="30.0130820274">
        <time>2026-04-22T11:17:46.000Z</time>
      </trkpt>
      <trkpt lat="59.0848588943" lon="30.0130391121">
        <time>2026-04-22T11:17:48.000Z</time>
      </trkpt>
      <trkpt lat="59.0848588943" lon="30.0129747391">
        <time>2026-04-22T11:17:51.000Z</time>
      </trkpt>
      <trkpt lat="59.0848588943" lon="30.0128889084">
        <time>2026-04-22T11:17:53.000Z</time>
      </trkpt>
      <trkpt lat="59.0848374367" lon="30.0128674507">
        <time>2026-04-22T11:17:56.000Z</time>
      </trkpt>
      <trkpt lat="59.0848374367" lon="30.012845993">
        <time>2026-04-22T11:17:58.000Z</time>
      </trkpt>
      <trkpt lat="59.0848374367" lon="30.0128030777">
        <time>2026-04-22T11:18:01.000Z</time>
      </trkpt>
      <trkpt lat="59.0848374367" lon="30.0127387047">
        <time>2026-04-22T11:18:03.000Z</time>
      </trkpt>
      <trkpt lat="59.0848374367" lon="30.0126957893">
        <time>2026-04-22T11:18:06.000Z</time>
      </trkpt>
      <trkpt lat="59.084815979" lon="30.012717247">
        <time>2026-04-22T11:18:08.000Z</time>
      </trkpt>
      <trkpt lat="59.0847945213" lon="30.012717247">
        <time>2026-04-22T11:18:11.000Z</time>
      </trkpt>
      <trkpt lat="59.0847730637" lon="30.0126743317">
        <time>2026-04-22T11:18:13.000Z</time>
      </trkpt>
      <trkpt lat="59.0847730637" lon="30.0126099586">
        <time>2026-04-22T11:18:16.000Z</time>
      </trkpt>
      <trkpt lat="59.0847730637" lon="30.012588501">
        <time>2026-04-22T11:18:18.000Z</time>
      </trkpt>
      <trkpt lat="59.084751606" lon="30.0125455856">
        <time>2026-04-22T11:18:21.000Z</time>
      </trkpt>
      <trkpt lat="59.0847301483" lon="30.0125455856">
        <time>2026-04-22T11:18:23.000Z</time>
      </trkpt>
      <trkpt lat="59.0847301483" lon="30.0125455856">
        <time>2026-04-22T11:18:26.000Z</time>
      </trkpt>
      <trkpt lat="59.0847301483" lon="30.0125455856">
        <time>2026-04-22T11:18:28.000Z</time>
      </trkpt>
      <trkpt lat="59.0847086906" lon="30.012588501">
        <time>2026-04-22T11:18:31.000Z</time>
      </trkpt>
      <trkpt lat="59.0847086906" lon="30.012588501">
        <time>2026-04-22T11:18:33.000Z</time>
      </trkpt>
      <trkpt lat="59.0847086906" lon="30.0125670433">
        <time>2026-04-22T11:18:36.000Z</time>
      </trkpt>
      <trkpt lat="59.0847086906" lon="30.0125670433">
        <time>2026-04-22T11:18:38.000Z</time>
      </trkpt>
      <trkpt lat="59.0847301483" lon="30.012524128">
        <time>2026-04-22T11:18:41.000Z</time>
      </trkpt>
      <trkpt lat="59.0847301483" lon="30.0125026703">
        <time>2026-04-22T11:18:43.000Z</time>
      </trkpt>
      <trkpt lat="59.0847301483" lon="30.0125026703">
        <time>2026-04-22T11:18:46.000Z</time>
      </trkpt>
      <trkpt lat="59.0847301483" lon="30.0125026703">
        <time>2026-04-22T11:18:48.000Z</time>
      </trkpt>
      <trkpt lat="59.0847301483" lon="30.0125026703">
        <time>2026-04-22T11:18:51.000Z</time>
      </trkpt>
      <trkpt lat="59.0847301483" lon="30.0125026703">
        <time>2026-04-22T11:18:53.000Z</time>
      </trkpt>
      <trkpt lat="59.0847301483" lon="30.0125026703">
        <time>2026-04-22T11:18:56.000Z</time>
      </trkpt>
      <trkpt lat="59.0847301483" lon="30.0125026703">
        <time>2026-04-22T11:18:58.000Z</time>
      </trkpt>
      <trkpt lat="59.0847301483" lon="30.0125026703">
        <time>2026-04-22T11:19:01.000Z</time>
      </trkpt>
      <trkpt lat="59.0847301483" lon="30.0125026703">
        <time>2026-04-22T11:19:03.000Z</time>
      </trkpt>
      <trkpt lat="59.0847301483" lon="30.0125026703">
        <time>2026-04-22T11:19:06.000Z</time>
      </trkpt>
      <trkpt lat="59.0847301483" lon="30.0125026703">
        <time>2026-04-22T11:19:08.000Z</time>
      </trkpt>
      <trkpt lat="59.0847301483" lon="30.0124812126">
        <time>2026-04-22T11:19:11.000Z</time>
      </trkpt>
      <trkpt lat="59.0847301483" lon="30.0124812126">
        <time>2026-04-22T11:19:13.000Z</time>
      </trkpt>
      <trkpt lat="59.0847301483" lon="30.0124812126">
        <time>2026-04-22T11:19:16.000Z</time>
      </trkpt>
      <trkpt lat="59.0847301483" lon="30.0124812126">
        <time>2026-04-22T11:19:18.000Z</time>
      </trkpt>
      <trkpt lat="59.0847301483" lon="30.0124812126">
        <time>2026-04-22T11:19:21.000Z</time>
      </trkpt>
      <trkpt lat="59.0847301483" lon="30.0124812126">
        <time>2026-04-22T11:19:23.000Z</time>
      </trkpt>
      <trkpt lat="59.0847301483" lon="30.0124812126">
        <time>2026-04-22T11:19:26.000Z</time>
      </trkpt>
      <trkpt lat="59.0847301483" lon="30.0124812126">
        <time>2026-04-22T11:19:28.000Z</time>
      </trkpt>
      <trkpt lat="59.0847301483" lon="30.0124812126">
        <time>2026-04-22T11:19:31.000Z</time>
      </trkpt>
      <trkpt lat="59.0847301483" lon="30.0124812126">
        <time>2026-04-22T11:19:33.000Z</time>
      </trkpt>
      <trkpt lat="59.0847301483" lon="30.0124812126">
        <time>2026-04-22T11:19:36.000Z</time>
      </trkpt>
      <trkpt lat="59.0847301483" lon="30.0124812126">
        <time>2026-04-22T11:19:38.000Z</time>
      </trkpt>
      <trkpt lat="59.0847301483" lon="30.0124812126">
        <time>2026-04-22T11:19:41.000Z</time>
      </trkpt>
      <trkpt lat="59.0847301483" lon="30.0124812126">
        <time>2026-04-22T11:19:43.000Z</time>
      </trkpt>
      <trkpt lat="59.0847301483" lon="30.0124812126">
        <time>2026-04-22T11:19:46.000Z</time>
      </trkpt>
      <trkpt lat="59.0847301483" lon="30.0124812126">
        <time>2026-04-22T11:19:48.000Z</time>
      </trkpt>
      <trkpt lat="59.0847301483" lon="30.0124812126">
        <time>2026-04-22T11:19:51.000Z</time>
      </trkpt>
      <trkpt lat="59.0847301483" lon="30.0124812126">
        <time>2026-04-22T11:19:53.000Z</time>
      </trkpt>
      <trkpt lat="59.0847301483" lon="30.0124812126">
        <time>2026-04-22T11:19:56.000Z</time>
      </trkpt>
      <trkpt lat="59.0847301483" lon="30.0124812126">
        <time>2026-04-22T11:19:58.000Z</time>
      </trkpt>
      <trkpt lat="59.0847301483" lon="30.0124812126">
        <time>2026-04-22T11:20:01.000Z</time>
      </trkpt>
      <trkpt lat="59.0847301483" lon="30.0125026703">
        <time>2026-04-22T11:20:03.000Z</time>
      </trkpt>
      <trkpt lat="59.0847301483" lon="30.0125026703">
        <time>2026-04-22T11:20:06.000Z</time>
      </trkpt>
      <trkpt lat="59.0847301483" lon="30.0125026703">
        <time>2026-04-22T11:20:08.000Z</time>
      </trkpt>
      <trkpt lat="59.0847301483" lon="30.0125026703">
        <time>2026-04-22T11:20:11.000Z</time>
      </trkpt>
      <trkpt lat="59.0847301483" lon="30.0125026703">
        <time>2026-04-22T11:20:13.000Z</time>
      </trkpt>
      <trkpt lat="59.0847301483" lon="30.0125026703">
        <time>2026-04-22T11:20:16.000Z</time>
      </trkpt>
      <trkpt lat="59.0847301483" lon="30.0125026703">
        <time>2026-04-22T11:20:18.000Z</time>
      </trkpt>
      <trkpt lat="59.0847301483" lon="30.0125026703">
        <time>2026-04-22T11:20:21.000Z</time>
      </trkpt>
      <trkpt lat="59.0847301483" lon="30.0125026703">
        <time>2026-04-22T11:20:23.000Z</time>
      </trkpt>
      <trkpt lat="59.0847301483" lon="30.0125026703">
        <time>2026-04-22T11:20:26.000Z</time>
      </trkpt>
      <trkpt lat="59.0847301483" lon="30.0125026703">
        <time>2026-04-22T11:20:28.000Z</time>
      </trkpt>
      <trkpt lat="59.0847301483" lon="30.0125026703">
        <time>2026-04-22T11:20:31.000Z</time>
      </trkpt>
      <trkpt lat="59.0847301483" lon="30.0125026703">
        <time>2026-04-22T11:20:33.000Z</time>
      </trkpt>
      <trkpt lat="59.0847301483" lon="30.0125026703">
        <time>2026-04-22T11:20:36.000Z</time>
      </trkpt>
      <trkpt lat="59.0847301483" lon="30.0125026703">
        <time>2026-04-22T11:20:38.000Z</time>
      </trkpt>
      <trkpt lat="59.0847301483" lon="30.0125026703">
        <time>2026-04-22T11:20:41.000Z</time>
      </trkpt>
      <trkpt lat="59.0847301483" lon="30.0125026703">
        <time>2026-04-22T11:20:43.000Z</time>
      </trkpt>
      <trkpt lat="59.0847301483" lon="30.0125026703">
        <time>2026-04-22T11:20:46.000Z</time>
      </trkpt>
      <trkpt lat="59.0847301483" lon="30.0125026703">
        <time>2026-04-22T11:20:48.000Z</time>
      </trkpt>
      <trkpt lat="59.0847301483" lon="30.0125026703">
        <time>2026-04-22T11:20:51.000Z</time>
      </trkpt>
      <trkpt lat="59.0847301483" lon="30.0125026703">
        <time>2026-04-22T11:20:53.000Z</time>
      </trkpt>
      <trkpt lat="59.0847301483" lon="30.0125026703">
        <time>2026-04-22T11:20:56.000Z</time>
      </trkpt>
      <trkpt lat="59.0847301483" lon="30.0125026703">
        <time>2026-04-22T11:20:58.000Z</time>
      </trkpt>
      <trkpt lat="59.0847301483" lon="30.0125026703">
        <time>2026-04-22T11:21:01.000Z</time>
      </trkpt>
      <trkpt lat="59.0847301483" lon="30.0125026703">
        <time>2026-04-22T11:21:03.000Z</time>
      </trkpt>
      <trkpt lat="59.0847301483" lon="30.0125026703">
        <time>2026-04-22T11:21:06.000Z</time>
      </trkpt>
      <trkpt lat="59.0847301483" lon="30.0125026703">
        <time>2026-04-22T11:21:08.000Z</time>
      </trkpt>
      <trkpt lat="59.0847301483" lon="30.0125026703">
        <time>2026-04-22T11:21:11.000Z</time>
      </trkpt>
      <trkpt lat="59.0847301483" lon="30.0125026703">
        <time>2026-04-22T11:21:13.000Z</time>
      </trkpt>
      <trkpt lat="59.0847301483" lon="30.0125026703">
        <time>2026-04-22T11:21:16.000Z</time>
      </trkpt>
      <trkpt lat="59.0847301483" lon="30.0125026703">
        <time>2026-04-22T11:21:18.000Z</time>
      </trkpt>
      <trkpt lat="59.0847301483" lon="30.0125026703">
        <time>2026-04-22T11:21:21.000Z</time>
      </trkpt>
      <trkpt lat="59.0847301483" lon="30.0125026703">
        <time>2026-04-22T11:21:23.000Z</time>
      </trkpt>
      <trkpt lat="59.0847301483" lon="30.0125026703">
        <time>2026-04-22T11:21:26.000Z</time>
      </trkpt>
      <trkpt lat="59.0847301483" lon="30.0125026703">
        <time>2026-04-22T11:21:28.000Z</time>
      </trkpt>
      <trkpt lat="59.0847301483" lon="30.0125026703">
        <time>2026-04-22T11:21:31.000Z</time>
      </trkpt>
      <trkpt lat="59.0847301483" lon="30.0125026703">
        <time>2026-04-22T11:21:33.000Z</time>
      </trkpt>
      <trkpt lat="59.0847301483" lon="30.0125026703">
        <time>2026-04-22T11:21:36.000Z</time>
      </trkpt>
      <trkpt lat="59.0847301483" lon="30.0125026703">
        <time>2026-04-22T11:21:38.000Z</time>
      </trkpt>
      <trkpt lat="59.0847301483" lon="30.0125026703">
        <time>2026-04-22T11:21:41.000Z</time>
      </trkpt>
      <trkpt lat="59.0847301483" lon="30.0125026703">
        <time>2026-04-22T11:21:43.000Z</time>
      </trkpt>
      <trkpt lat="59.0847301483" lon="30.0125026703">
        <time>2026-04-22T11:21:46.000Z</time>
      </trkpt>
      <trkpt lat="59.0847301483" lon="30.0125026703">
        <time>2026-04-22T11:21:48.000Z</time>
      </trkpt>
      <trkpt lat="59.0847301483" lon="30.0125026703">
        <time>2026-04-22T11:21:51.000Z</time>
      </trkpt>
      <trkpt lat="59.0847301483" lon="30.0125026703">
        <time>2026-04-22T11:21:53.000Z</time>
      </trkpt>
      <trkpt lat="59.0847301483" lon="30.0125026703">
        <time>2026-04-22T11:21:56.000Z</time>
      </trkpt>
      <trkpt lat="59.0847301483" lon="30.0125026703">
        <time>2026-04-22T11:21:58.000Z</time>
      </trkpt>
      <trkpt lat="59.0847301483" lon="30.0125026703">
        <time>2026-04-22T11:22:01.000Z</time>
      </trkpt>
      <trkpt lat="59.0847301483" lon="30.0125026703">
        <time>2026-04-22T11:22:03.000Z</time>
      </trkpt>
      <trkpt lat="59.0847301483" lon="30.0125026703">
        <time>2026-04-22T11:22:06.000Z</time>
      </trkpt>
      <trkpt lat="59.0847301483" lon="30.0125026703">
        <time>2026-04-22T11:22:08.000Z</time>
      </trkpt>
      <trkpt lat="59.0847301483" lon="30.0125026703">
        <time>2026-04-22T11:22:11.000Z</time>
      </trkpt>
      <trkpt lat="59.0847301483" lon="30.0125026703">
        <time>2026-04-22T11:22:13.000Z</time>
      </trkpt>
      <trkpt lat="59.0847301483" lon="30.0125026703">
        <time>2026-04-22T11:22:16.000Z</time>
      </trkpt>
      <trkpt lat="59.0847301483" lon="30.0125026703">
        <time>2026-04-22T11:22:18.000Z</time>
      </trkpt>
      <trkpt lat="59.0847301483" lon="30.0125026703">
        <time>2026-04-22T11:22:21.000Z</time>
      </trkpt>
      <trkpt lat="59.0847301483" lon="30.0125026703">
        <time>2026-04-22T11:22:23.000Z</time>
      </trkpt>
      <trkpt lat="59.0847301483" lon="30.0125026703">
        <time>2026-04-22T11:22:26.000Z</time>
      </trkpt>
      <trkpt lat="59.0847301483" lon="30.0125026703">
        <time>2026-04-22T11:22:28.000Z</time>
      </trkpt>
      <trkpt lat="59.0847301483" lon="30.0125026703">
        <time>2026-04-22T11:22:31.000Z</time>
      </trkpt>
      <trkpt lat="59.0847301483" lon="30.0125026703">
        <time>2026-04-22T11:22:33.000Z</time>
      </trkpt>
      <trkpt lat="59.0847301483" lon="30.0125026703">
        <time>2026-04-22T11:22:36.000Z</time>
      </trkpt>
      <trkpt lat="59.0847301483" lon="30.0125026703">
        <time>2026-04-22T11:22:38.000Z</time>
      </trkpt>
      <trkpt lat="59.0847301483" lon="30.0125026703">
        <time>2026-04-22T11:22:41.000Z</time>
      </trkpt>
      <trkpt lat="59.0847301483" lon="30.0125026703">
        <time>2026-04-22T11:22:43.000Z</time>
      </trkpt>
      <trkpt lat="59.0847301483" lon="30.0125026703">
        <time>2026-04-22T11:22:46.000Z</time>
      </trkpt>
      <trkpt lat="59.0847301483" lon="30.0125026703">
        <time>2026-04-22T11:22:48.000Z</time>
      </trkpt>
      <trkpt lat="59.0847301483" lon="30.0125026703">
        <time>2026-04-22T11:22:51.000Z</time>
      </trkpt>
      <trkpt lat="59.084751606" lon="30.012524128">
        <time>2026-04-22T11:22:53.000Z</time>
      </trkpt>
      <trkpt lat="59.084751606" lon="30.0125026703">
        <time>2026-04-22T11:22:56.000Z</time>
      </trkpt>
      <trkpt lat="59.0847730637" lon="30.0125026703">
        <time>2026-04-22T11:22:58.000Z</time>
      </trkpt>
      <trkpt lat="59.0847730637" lon="30.012524128">
        <time>2026-04-22T11:23:01.000Z</time>
      </trkpt>
      <trkpt lat="59.0847730637" lon="30.0125026703">
        <time>2026-04-22T11:23:03.000Z</time>
      </trkpt>
      <trkpt lat="59.0847730637" lon="30.0125026703">
        <time>2026-04-22T11:23:06.000Z</time>
      </trkpt>
      <trkpt lat="59.0847730637" lon="30.0124812126">
        <time>2026-04-22T11:23:08.000Z</time>
      </trkpt>
      <trkpt lat="59.0847730637" lon="30.0124812126">
        <time>2026-04-22T11:23:11.000Z</time>
      </trkpt>
      <trkpt lat="59.0847730637" lon="30.0124812126">
        <time>2026-04-22T11:23:13.000Z</time>
      </trkpt>
      <trkpt lat="59.0847730637" lon="30.0124812126">
        <time>2026-04-22T11:23:16.000Z</time>
      </trkpt>
      <trkpt lat="59.0847730637" lon="30.0124812126">
        <time>2026-04-22T11:23:18.000Z</time>
      </trkpt>
      <trkpt lat="59.0847730637" lon="30.0124812126">
        <time>2026-04-22T11:23:21.000Z</time>
      </trkpt>
      <trkpt lat="59.0847730637" lon="30.0124812126">
        <time>2026-04-22T11:23:23.000Z</time>
      </trkpt>
      <trkpt lat="59.0847730637" lon="30.0124812126">
        <time>2026-04-22T11:23:26.000Z</time>
      </trkpt>
      <trkpt lat="59.0847730637" lon="30.0124812126">
        <time>2026-04-22T11:23:28.000Z</time>
      </trkpt>
      <trkpt lat="59.0847730637" lon="30.0124812126">
        <time>2026-04-22T11:23:31.000Z</time>
      </trkpt>
      <trkpt lat="59.0847730637" lon="30.0124597549">
        <time>2026-04-22T11:23:33.000Z</time>
      </trkpt>
      <trkpt lat="59.084751606" lon="30.0124812126">
        <time>2026-04-22T11:23:36.000Z</time>
      </trkpt>
      <trkpt lat="59.084751606" lon="30.0124812126">
        <time>2026-04-22T11:23:38.000Z</time>
      </trkpt>
      <trkpt lat="59.084751606" lon="30.0124812126">
        <time>2026-04-22T11:23:41.000Z</time>
      </trkpt>
      <trkpt lat="59.084751606" lon="30.0124812126">
        <time>2026-04-22T11:23:43.000Z</time>
      </trkpt>
      <trkpt lat="59.084751606" lon="30.0124812126">
        <time>2026-04-22T11:23:46.000Z</time>
      </trkpt>
      <trkpt lat="59.084751606" lon="30.0124812126">
        <time>2026-04-22T11:23:48.000Z</time>
      </trkpt>
      <trkpt lat="59.084751606" lon="30.0124812126">
        <time>2026-04-22T11:23:51.000Z</time>
      </trkpt>
      <trkpt lat="59.084751606" lon="30.0124812126">
        <time>2026-04-22T11:23:53.000Z</time>
      </trkpt>
      <trkpt lat="59.084751606" lon="30.0124812126">
        <time>2026-04-22T11:23:56.000Z</time>
      </trkpt>
      <trkpt lat="59.084751606" lon="30.0124812126">
        <time>2026-04-22T11:23:58.000Z</time>
      </trkpt>
      <trkpt lat="59.084751606" lon="30.0124812126">
        <time>2026-04-22T11:24:01.000Z</time>
      </trkpt>
      <trkpt lat="59.084751606" lon="30.0124812126">
        <time>2026-04-22T11:24:03.000Z</time>
      </trkpt>
      <trkpt lat="59.084751606" lon="30.0124812126">
        <time>2026-04-22T11:24:06.000Z</time>
      </trkpt>
      <trkpt lat="59.084751606" lon="30.0124812126">
        <time>2026-04-22T11:24:08.000Z</time>
      </trkpt>
      <trkpt lat="59.084751606" lon="30.0124812126">
        <time>2026-04-22T11:24:11.000Z</time>
      </trkpt>
      <trkpt lat="59.084751606" lon="30.0124812126">
        <time>2026-04-22T11:24:13.000Z</time>
      </trkpt>
      <trkpt lat="59.084751606" lon="30.0124812126">
        <time>2026-04-22T11:24:16.000Z</time>
      </trkpt>
      <trkpt lat="59.084751606" lon="30.0124812126">
        <time>2026-04-22T11:24:18.000Z</time>
      </trkpt>
      <trkpt lat="59.084751606" lon="30.0124812126">
        <time>2026-04-22T11:24:21.000Z</time>
      </trkpt>
      <trkpt lat="59.084751606" lon="30.0124812126">
        <time>2026-04-22T11:24:23.000Z</time>
      </trkpt>
      <trkpt lat="59.084751606" lon="30.0124812126">
        <time>2026-04-22T11:24:26.000Z</time>
      </trkpt>
      <trkpt lat="59.084751606" lon="30.0124812126">
        <time>2026-04-22T11:24:28.000Z</time>
      </trkpt>
      <trkpt lat="59.084751606" lon="30.0124812126">
        <time>2026-04-22T11:24:31.000Z</time>
      </trkpt>
      <trkpt lat="59.084751606" lon="30.0124812126">
        <time>2026-04-22T11:24:33.000Z</time>
      </trkpt>
      <trkpt lat="59.084751606" lon="30.0125026703">
        <time>2026-04-22T11:24:36.000Z</time>
      </trkpt>
      <trkpt lat="59.084751606" lon="30.0125026703">
        <time>2026-04-22T11:24:38.000Z</time>
      </trkpt>
      <trkpt lat="59.084751606" lon="30.0125026703">
        <time>2026-04-22T11:24:41.000Z</time>
      </trkpt>
      <trkpt lat="59.084751606" lon="30.0125026703">
        <time>2026-04-22T11:24:43.000Z</time>
      </trkpt>
      <trkpt lat="59.084751606" lon="30.0125026703">
        <time>2026-04-22T11:24:46.000Z</time>
      </trkpt>
      <trkpt lat="59.084751606" lon="30.0125026703">
        <time>2026-04-22T11:24:48.000Z</time>
      </trkpt>
      <trkpt lat="59.084751606" lon="30.0125026703">
        <time>2026-04-22T11:24:51.000Z</time>
      </trkpt>
      <trkpt lat="59.084751606" lon="30.0125026703">
        <time>2026-04-22T11:24:53.000Z</time>
      </trkpt>
      <trkpt lat="59.084751606" lon="30.0125026703">
        <time>2026-04-22T11:24:56.000Z</time>
      </trkpt>
      <trkpt lat="59.084751606" lon="30.0125026703">
        <time>2026-04-22T11:24:58.000Z</time>
      </trkpt>
      <trkpt lat="59.084751606" lon="30.0125026703">
        <time>2026-04-22T11:25:01.000Z</time>
      </trkpt>
      <trkpt lat="59.084751606" lon="30.0125026703">
        <time>2026-04-22T11:25:03.000Z</time>
      </trkpt>
      <trkpt lat="59.084751606" lon="30.0125026703">
        <time>2026-04-22T11:25:06.000Z</time>
      </trkpt>
      <trkpt lat="59.084751606" lon="30.0125026703">
        <time>2026-04-22T11:25:08.000Z</time>
      </trkpt>
      <trkpt lat="59.084751606" lon="30.0124812126">
        <time>2026-04-22T11:25:11.000Z</time>
      </trkpt>
      <trkpt lat="59.084751606" lon="30.0124168396">
        <time>2026-04-22T11:25:13.000Z</time>
      </trkpt>
      <trkpt lat="59.084751606" lon="30.0123953819">
        <time>2026-04-22T11:25:16.000Z</time>
      </trkpt>
      <trkpt lat="59.084751606" lon="30.0123739243">
        <time>2026-04-22T11:25:18.000Z</time>
      </trkpt>
      <trkpt lat="59.084751606" lon="30.0123739243">
        <time>2026-04-22T11:25:21.000Z</time>
      </trkpt>
      <trkpt lat="59.084751606" lon="30.0123739243">
        <time>2026-04-22T11:25:23.000Z</time>
      </trkpt>
      <trkpt lat="59.084751606" lon="30.0123739243">
        <time>2026-04-22T11:25:26.000Z</time>
      </trkpt>
      <trkpt lat="59.084751606" lon="30.0123739243">
        <time>2026-04-22T11:25:28.000Z</time>
      </trkpt>
      <trkpt lat="59.084751606" lon="30.0123739243">
        <time>2026-04-22T11:25:31.000Z</time>
      </trkpt>
      <trkpt lat="59.084751606" lon="30.0123739243">
        <time>2026-04-22T11:25:33.000Z</time>
      </trkpt>
      <trkpt lat="59.084751606" lon="30.0123739243">
        <time>2026-04-22T11:25:36.000Z</time>
      </trkpt>
      <trkpt lat="59.084751606" lon="30.0123739243">
        <time>2026-04-22T11:25:38.000Z</time>
      </trkpt>
      <trkpt lat="59.084751606" lon="30.0123739243">
        <time>2026-04-22T11:25:41.000Z</time>
      </trkpt>
      <trkpt lat="59.084751606" lon="30.0123739243">
        <time>2026-04-22T11:25:43.000Z</time>
      </trkpt>
      <trkpt lat="59.084751606" lon="30.0123739243">
        <time>2026-04-22T11:25:46.000Z</time>
      </trkpt>
      <trkpt lat="59.084751606" lon="30.0123739243">
        <time>2026-04-22T11:25:48.000Z</time>
      </trkpt>
      <trkpt lat="59.084751606" lon="30.0123739243">
        <time>2026-04-22T11:25:51.000Z</time>
      </trkpt>
      <trkpt lat="59.084751606" lon="30.0123739243">
        <time>2026-04-22T11:25:53.000Z</time>
      </trkpt>
      <trkpt lat="59.084751606" lon="30.0124168396">
        <time>2026-04-22T11:25:56.000Z</time>
      </trkpt>
      <trkpt lat="59.084751606" lon="30.0124382973">
        <time>2026-04-22T11:25:58.000Z</time>
      </trkpt>
      <trkpt lat="59.084751606" lon="30.0124597549">
        <time>2026-04-22T11:26:01.000Z</time>
      </trkpt>
      <trkpt lat="59.084751606" lon="30.0124597549">
        <time>2026-04-22T11:26:03.000Z</time>
      </trkpt>
      <trkpt lat="59.084751606" lon="30.0124597549">
        <time>2026-04-22T11:26:06.000Z</time>
      </trkpt>
      <trkpt lat="59.084751606" lon="30.0124597549">
        <time>2026-04-22T11:26:08.000Z</time>
      </trkpt>
      <trkpt lat="59.084751606" lon="30.0124597549">
        <time>2026-04-22T11:26:11.000Z</time>
      </trkpt>
      <trkpt lat="59.084751606" lon="30.0124597549">
        <time>2026-04-22T11:26:13.000Z</time>
      </trkpt>
      <trkpt lat="59.084751606" lon="30.0124597549">
        <time>2026-04-22T11:26:16.000Z</time>
      </trkpt>
      <trkpt lat="59.084751606" lon="30.0124597549">
        <time>2026-04-22T11:26:18.000Z</time>
      </trkpt>
      <trkpt lat="59.084751606" lon="30.0124597549">
        <time>2026-04-22T11:26:21.000Z</time>
      </trkpt>
      <trkpt lat="59.084751606" lon="30.0124597549">
        <time>2026-04-22T11:26:23.000Z</time>
      </trkpt>
      <trkpt lat="59.084751606" lon="30.0124597549">
        <time>2026-04-22T11:26:26.000Z</time>
      </trkpt>
      <trkpt lat="59.084751606" lon="30.0124597549">
        <time>2026-04-22T11:26:28.000Z</time>
      </trkpt>
      <trkpt lat="59.084751606" lon="30.0124597549">
        <time>2026-04-22T11:26:31.000Z</time>
      </trkpt>
      <trkpt lat="59.084751606" lon="30.0124597549">
        <time>2026-04-22T11:26:33.000Z</time>
      </trkpt>
      <trkpt lat="59.084751606" lon="30.0124597549">
        <time>2026-04-22T11:26:36.000Z</time>
      </trkpt>
      <trkpt lat="59.0847301483" lon="30.0124812126">
        <time>2026-04-22T11:26:38.000Z</time>
      </trkpt>
      <trkpt lat="59.084687233" lon="30.0125455856">
        <time>2026-04-22T11:26:41.000Z</time>
      </trkpt>
      <trkpt lat="59.0846657753" lon="30.012588501">
        <time>2026-04-22T11:26:43.000Z</time>
      </trkpt>
      <trkpt lat="59.08462286" lon="30.0126099586">
        <time>2026-04-22T11:26:46.000Z</time>
      </trkpt>
      <trkpt lat="59.0846014023" lon="30.0126099586">
        <time>2026-04-22T11:26:48.000Z</time>
      </trkpt>
      <trkpt lat="59.0846014023" lon="30.0126099586">
        <time>2026-04-22T11:26:51.000Z</time>
      </trkpt>
      <trkpt lat="59.0846014023" lon="30.0126099586">
        <time>2026-04-22T11:26:53.000Z</time>
      </trkpt>
      <trkpt lat="59.0845799446" lon="30.0126099586">
        <time>2026-04-22T11:26:56.000Z</time>
      </trkpt>
      <trkpt lat="59.0845584869" lon="30.012652874">
        <time>2026-04-22T11:26:58.000Z</time>
      </trkpt>
      <trkpt lat="59.0845155716" lon="30.012652874">
        <time>2026-04-22T11:27:01.000Z</time>
      </trkpt>
      <trkpt lat="59.0844941139" lon="30.0126099586">
        <time>2026-04-22T11:27:03.000Z</time>
      </trkpt>
      <trkpt lat="59.0844726562" lon="30.012652874">
        <time>2026-04-22T11:27:06.000Z</time>
      </trkpt>
      <trkpt lat="59.0844511986" lon="30.0126957893">
        <time>2026-04-22T11:27:08.000Z</time>
      </trkpt>
      <trkpt lat="59.0844511986" lon="30.012652874">
        <time>2026-04-22T11:27:11.000Z</time>
      </trkpt>
      <trkpt lat="59.0844297409" lon="30.012652874">
        <time>2026-04-22T11:27:13.000Z</time>
      </trkpt>
      <trkpt lat="59.0844297409" lon="30.0126099586">
        <time>2026-04-22T11:27:16.000Z</time>
      </trkpt>
      <trkpt lat="59.0844297409" lon="30.0126099586">
        <time>2026-04-22T11:27:18.000Z</time>
      </trkpt>
      <trkpt lat="59.0843868256" lon="30.0126743317">
        <time>2026-04-22T11:27:21.000Z</time>
      </trkpt>
      <trkpt lat="59.0843439102" lon="30.0126957893">
        <time>2026-04-22T11:27:23.000Z</time>
      </trkpt>
      <trkpt lat="59.0843009949" lon="30.0126314163">
        <time>2026-04-22T11:27:26.000Z</time>
      </trkpt>
      <trkpt lat="59.0843009949" lon="30.0126099586">
        <time>2026-04-22T11:27:28.000Z</time>
      </trkpt>
      <trkpt lat="59.0843009949" lon="30.0126743317">
        <time>2026-04-22T11:27:31.000Z</time>
      </trkpt>
      <trkpt lat="59.0842795372" lon="30.012717247">
        <time>2026-04-22T11:27:33.000Z</time>
      </trkpt>
      <trkpt lat="59.0842366219" lon="30.01278162">
        <time>2026-04-22T11:27:36.000Z</time>
      </trkpt>
      <trkpt lat="59.0841937065" lon="30.0128030777">
        <time>2026-04-22T11:27:38.000Z</time>
      </trkpt>
      <trkpt lat="59.0841722488" lon="30.0128030777">
        <time>2026-04-22T11:27:41.000Z</time>
      </trkpt>
      <trkpt lat="59.0841722488" lon="30.0128245354">
        <time>2026-04-22T11:27:43.000Z</time>
      </trkpt>
      <trkpt lat="59.0841507912" lon="30.012845993">
        <time>2026-04-22T11:27:46.000Z</time>
      </trkpt>
      <trkpt lat="59.0841507912" lon="30.012845993">
        <time>2026-04-22T11:27:48.000Z</time>
      </trkpt>
      <trkpt lat="59.0841507912" lon="30.012845993">
        <time>2026-04-22T11:27:51.000Z</time>
      </trkpt>
      <trkpt lat="59.0841507912" lon="30.012845993">
        <time>2026-04-22T11:27:53.000Z</time>
      </trkpt>
      <trkpt lat="59.0841078758" lon="30.0127387047">
        <time>2026-04-22T11:27:56.000Z</time>
      </trkpt>
      <trkpt lat="59.0840864182" lon="30.012717247">
        <time>2026-04-22T11:27:58.000Z</time>
      </trkpt>
      <trkpt lat="59.0840649605" lon="30.0126957893">
        <time>2026-04-22T11:28:01.000Z</time>
      </trkpt>
      <trkpt lat="59.0840864182" lon="30.0126314163">
        <time>2026-04-22T11:28:03.000Z</time>
      </trkpt>
      <trkpt lat="59.0841078758" lon="30.0125670433">
        <time>2026-04-22T11:28:06.000Z</time>
      </trkpt>
      <trkpt lat="59.0841507912" lon="30.0124812126">
        <time>2026-04-22T11:28:08.000Z</time>
      </trkpt>
      <trkpt lat="59.0841722488" lon="30.0124168396">
        <time>2026-04-22T11:28:11.000Z</time>
      </trkpt>
      <trkpt lat="59.0841293335" lon="30.0123524666">
        <time>2026-04-22T11:28:13.000Z</time>
      </trkpt>
      <trkpt lat="59.0841078758" lon="30.0122666359">
        <time>2026-04-22T11:28:16.000Z</time>
      </trkpt>
      <trkpt lat="59.0841293335" lon="30.0122022629">
        <time>2026-04-22T11:28:18.000Z</time>
      </trkpt>
      <trkpt lat="59.0841722488" lon="30.0123095512">
        <time>2026-04-22T11:28:21.000Z</time>
      </trkpt>
      <trkpt lat="59.0842151642" lon="30.012524128">
        <time>2026-04-22T11:28:23.000Z</time>
      </trkpt>
      <trkpt lat="59.0841722488" lon="30.0126314163">
        <time>2026-04-22T11:28:26.000Z</time>
      </trkpt>
      <trkpt lat="59.0841078758" lon="30.0125026703">
        <time>2026-04-22T11:28:28.000Z</time>
      </trkpt>
      <trkpt lat="59.0840435028" lon="30.0124812126">
        <time>2026-04-22T11:28:31.000Z</time>
      </trkpt>
      <trkpt lat="59.0840220451" lon="30.0123953819">
        <time>2026-04-22T11:28:33.000Z</time>
      </trkpt>
      <trkpt lat="59.0840220451" lon="30.0123095512">
        <time>2026-04-22T11:28:36.000Z</time>
      </trkpt>
      <trkpt lat="59.0840005875" lon="30.0121808052">
        <time>2026-04-22T11:28:38.000Z</time>
      </trkpt>
      <trkpt lat="59.0840005875" lon="30.0120520592">
        <time>2026-04-22T11:28:41.000Z</time>
      </trkpt>
      <trkpt lat="59.0839576721" lon="30.0120520592">
        <time>2026-04-22T11:28:43.000Z</time>
      </trkpt>
      <trkpt lat="59.0838932991" lon="30.0121593475">
        <time>2026-04-22T11:28:46.000Z</time>
      </trkpt>
      <trkpt lat="59.0838289261" lon="30.0122666359">
        <time>2026-04-22T11:28:48.000Z</time>
      </trkpt>
      <trkpt lat="59.0837860107" lon="30.0122880936">
        <time>2026-04-22T11:28:51.000Z</time>
      </trkpt>
      <trkpt lat="59.0837430954" lon="30.0122237206">
        <time>2026-04-22T11:28:53.000Z</time>
      </trkpt>
      <trkpt lat="59.0837645531" lon="30.0120520592">
        <time>2026-04-22T11:28:56.000Z</time>
      </trkpt>
      <trkpt lat="59.0838289261" lon="30.0119233131">
        <time>2026-04-22T11:28:58.000Z</time>
      </trkpt>
      <trkpt lat="59.0838503838" lon="30.0118589401">
        <time>2026-04-22T11:29:01.000Z</time>
      </trkpt>
      <trkpt lat="59.0838503838" lon="30.0118589401">
        <time>2026-04-22T11:29:03.000Z</time>
      </trkpt>
      <trkpt lat="59.0838718414" lon="30.0117516518">
        <time>2026-04-22T11:29:06.000Z</time>
      </trkpt>
      <trkpt lat="59.0838718414" lon="30.0116658211">
        <time>2026-04-22T11:29:08.000Z</time>
      </trkpt>
      <trkpt lat="59.0838718414" lon="30.0116229057">
        <time>2026-04-22T11:29:11.000Z</time>
      </trkpt>
      <trkpt lat="59.0838503838" lon="30.011537075">
        <time>2026-04-22T11:29:13.000Z</time>
      </trkpt>
      <trkpt lat="59.0838503838" lon="30.011472702">
        <time>2026-04-22T11:29:16.000Z</time>
      </trkpt>
      <trkpt lat="59.0838503838" lon="30.011537075">
        <time>2026-04-22T11:29:18.000Z</time>
      </trkpt>
      <trkpt lat="59.0839147568" lon="30.011537075">
        <time>2026-04-22T11:29:21.000Z</time>
      </trkpt>
      <trkpt lat="59.0839576721" lon="30.011537075">
        <time>2026-04-22T11:29:23.000Z</time>
      </trkpt>
      <trkpt lat="59.0839791298" lon="30.0115585327">
        <time>2026-04-22T11:29:26.000Z</time>
      </trkpt>
      <trkpt lat="59.0840220451" lon="30.011537075">
        <time>2026-04-22T11:29:28.000Z</time>
      </trkpt>
      <trkpt lat="59.0840220451" lon="30.011472702">
        <time>2026-04-22T11:29:31.000Z</time>
      </trkpt>
      <trkpt lat="59.0840220451" lon="30.011408329">
        <time>2026-04-22T11:29:33.000Z</time>
      </trkpt>
      <trkpt lat="59.0840649605" lon="30.0113224983">
        <time>2026-04-22T11:29:36.000Z</time>
      </trkpt>
      <trkpt lat="59.0840864182" lon="30.0113010406">
        <time>2026-04-22T11:29:38.000Z</time>
      </trkpt>
      <trkpt lat="59.0841293335" lon="30.0113010406">
        <time>2026-04-22T11:29:41.000Z</time>
      </trkpt>
      <trkpt lat="59.0841722488" lon="30.011279583">
        <time>2026-04-22T11:29:43.000Z</time>
      </trkpt>
      <trkpt lat="59.0841937065" lon="30.011279583">
        <time>2026-04-22T11:29:46.000Z</time>
      </trkpt>
      <trkpt lat="59.0842151642" lon="30.011343956">
        <time>2026-04-22T11:29:48.000Z</time>
      </trkpt>
      <trkpt lat="59.0842366219" lon="30.011408329">
        <time>2026-04-22T11:29:51.000Z</time>
      </trkpt>
      <trkpt lat="59.0842366219" lon="30.0113868713">
        <time>2026-04-22T11:29:53.000Z</time>
      </trkpt>
      <trkpt lat="59.0842366219" lon="30.0113868713">
        <time>2026-04-22T11:29:56.000Z</time>
      </trkpt>
      <trkpt lat="59.0842580795" lon="30.0113868713">
        <time>2026-04-22T11:29:58.000Z</time>
      </trkpt>
      <trkpt lat="59.0842795372" lon="30.0113224983">
        <time>2026-04-22T11:30:01.000Z</time>
      </trkpt>
      <trkpt lat="59.0842795372" lon="30.011279583">
        <time>2026-04-22T11:30:03.000Z</time>
      </trkpt>
      <trkpt lat="59.0843009949" lon="30.011279583">
        <time>2026-04-22T11:30:06.000Z</time>
      </trkpt>
      <trkpt lat="59.0843224525" lon="30.0113010406">
        <time>2026-04-22T11:30:08.000Z</time>
      </trkpt>
      <trkpt lat="59.0843439102" lon="30.0113010406">
        <time>2026-04-22T11:30:11.000Z</time>
      </trkpt>
      <trkpt lat="59.0843653679" lon="30.0112581253">
        <time>2026-04-22T11:30:13.000Z</time>
      </trkpt>
      <trkpt lat="59.0843653679" lon="30.0112366676">
        <time>2026-04-22T11:30:16.000Z</time>
      </trkpt>
      <trkpt lat="59.0843868256" lon="30.0112366676">
        <time>2026-04-22T11:30:18.000Z</time>
      </trkpt>
      <trkpt lat="59.0843868256" lon="30.01121521">
        <time>2026-04-22T11:30:21.000Z</time>
      </trkpt>
      <trkpt lat="59.0844082832" lon="30.0111937523">
        <time>2026-04-22T11:30:23.000Z</time>
      </trkpt>
      <trkpt lat="59.0844511986" lon="30.0111508369">
        <time>2026-04-22T11:30:26.000Z</time>
      </trkpt>
      <trkpt lat="59.0844726562" lon="30.0111722946">
        <time>2026-04-22T11:30:28.000Z</time>
      </trkpt>
      <trkpt lat="59.0844941139" lon="30.0111079216">
        <time>2026-04-22T11:30:31.000Z</time>
      </trkpt>
      <trkpt lat="59.0845155716" lon="30.0110435486">
        <time>2026-04-22T11:30:33.000Z</time>
      </trkpt>
      <trkpt lat="59.0845584869" lon="30.0110006332">
        <time>2026-04-22T11:30:36.000Z</time>
      </trkpt>
      <trkpt lat="59.0845584869" lon="30.0110006332">
        <time>2026-04-22T11:30:38.000Z</time>
      </trkpt>
      <trkpt lat="59.0845584869" lon="30.0110006332">
        <time>2026-04-22T11:30:41.000Z</time>
      </trkpt>
      <trkpt lat="59.0845584869" lon="30.0110006332">
        <time>2026-04-22T11:30:43.000Z</time>
      </trkpt>
      <trkpt lat="59.0845370293" lon="30.0109362602">
        <time>2026-04-22T11:30:46.000Z</time>
      </trkpt>
      <trkpt lat="59.0845370293" lon="30.0108933449">
        <time>2026-04-22T11:30:48.000Z</time>
      </trkpt>
      <trkpt lat="59.0845370293" lon="30.0108289719">
        <time>2026-04-22T11:30:51.000Z</time>
      </trkpt>
      <trkpt lat="59.0845370293" lon="30.0108289719">
        <time>2026-04-22T11:30:53.000Z</time>
      </trkpt>
      <trkpt lat="59.0845584869" lon="30.0107860565">
        <time>2026-04-22T11:30:56.000Z</time>
      </trkpt>
      <trkpt lat="59.0845799446" lon="30.0107216835">
        <time>2026-04-22T11:30:58.000Z</time>
      </trkpt>
      <trkpt lat="59.0845584869" lon="30.0107002258">
        <time>2026-04-22T11:31:01.000Z</time>
      </trkpt>
      <trkpt lat="59.0845584869" lon="30.0107002258">
        <time>2026-04-22T11:31:03.000Z</time>
      </trkpt>
      <trkpt lat="59.0845584869" lon="30.0106787682">
        <time>2026-04-22T11:31:06.000Z</time>
      </trkpt>
      <trkpt lat="59.0845370293" lon="30.0106358528">
        <time>2026-04-22T11:31:08.000Z</time>
      </trkpt>
      <trkpt lat="59.0845370293" lon="30.0105929375">
        <time>2026-04-22T11:31:11.000Z</time>
      </trkpt>
      <trkpt lat="59.0845370293" lon="30.0105500221">
        <time>2026-04-22T11:31:13.000Z</time>
      </trkpt>
      <trkpt lat="59.0845370293" lon="30.0104641914">
        <time>2026-04-22T11:31:16.000Z</time>
      </trkpt>
      <trkpt lat="59.0845370293" lon="30.0103998184">
        <time>2026-04-22T11:31:18.000Z</time>
      </trkpt>
      <trkpt lat="59.0845584869" lon="30.0103354454">
        <time>2026-04-22T11:31:21.000Z</time>
      </trkpt>
      <trkpt lat="59.0845370293" lon="30.0103354454">
        <time>2026-04-22T11:31:23.000Z</time>
      </trkpt>
      <trkpt lat="59.0845370293" lon="30.0103139877">
        <time>2026-04-22T11:31:26.000Z</time>
      </trkpt>
      <trkpt lat="59.0845370293" lon="30.0103139877">
        <time>2026-04-22T11:31:28.000Z</time>
      </trkpt>
      <trkpt lat="59.0845370293" lon="30.0102710724">
        <time>2026-04-22T11:31:31.000Z</time>
      </trkpt>
      <trkpt lat="59.0845155716" lon="30.0102066994">
        <time>2026-04-22T11:31:33.000Z</time>
      </trkpt>
      <trkpt lat="59.0845155716" lon="30.0101208687">
        <time>2026-04-22T11:31:36.000Z</time>
      </trkpt>
      <trkpt lat="59.0845155716" lon="30.0101208687">
        <time>2026-04-22T11:31:38.000Z</time>
      </trkpt>
      <trkpt lat="59.0844941139" lon="30.010099411">
        <time>2026-04-22T11:31:41.000Z</time>
      </trkpt>
      <trkpt lat="59.0844941139" lon="30.010099411">
        <time>2026-04-22T11:31:43.000Z</time>
      </trkpt>
      <trkpt lat="59.0844941139" lon="30.010099411">
        <time>2026-04-22T11:31:46.000Z</time>
      </trkpt>
      <trkpt lat="59.0844941139" lon="30.010099411">
        <time>2026-04-22T11:31:48.000Z</time>
      </trkpt>
      <trkpt lat="59.0844941139" lon="30.010099411">
        <time>2026-04-22T11:31:51.000Z</time>
      </trkpt>
      <trkpt lat="59.0844941139" lon="30.010099411">
        <time>2026-04-22T11:31:53.000Z</time>
      </trkpt>
      <trkpt lat="59.0844941139" lon="30.010099411">
        <time>2026-04-22T11:31:56.000Z</time>
      </trkpt>
      <trkpt lat="59.0844941139" lon="30.010099411">
        <time>2026-04-22T11:31:58.000Z</time>
      </trkpt>
      <trkpt lat="59.0844941139" lon="30.010099411">
        <time>2026-04-22T11:32:01.000Z</time>
      </trkpt>
      <trkpt lat="59.0844941139" lon="30.010099411">
        <time>2026-04-22T11:32:03.000Z</time>
      </trkpt>
      <trkpt lat="59.0844941139" lon="30.010099411">
        <time>2026-04-22T11:32:06.000Z</time>
      </trkpt>
      <trkpt lat="59.0844941139" lon="30.010099411">
        <time>2026-04-22T11:32:08.000Z</time>
      </trkpt>
      <trkpt lat="59.0844941139" lon="30.010099411">
        <time>2026-04-22T11:32:11.000Z</time>
      </trkpt>
      <trkpt lat="59.0844726562" lon="30.0101208687">
        <time>2026-04-22T11:32:13.000Z</time>
      </trkpt>
      <trkpt lat="59.0844082832" lon="30.0101423264">
        <time>2026-04-22T11:32:16.000Z</time>
      </trkpt>
      <trkpt lat="59.0843653679" lon="30.0101208687">
        <time>2026-04-22T11:32:18.000Z</time>
      </trkpt>
      <trkpt lat="59.0843224525" lon="30.010099411">
        <time>2026-04-22T11:32:21.000Z</time>
      </trkpt>
      <trkpt lat="59.0843224525" lon="30.010099411">
        <time>2026-04-22T11:32:23.000Z</time>
      </trkpt>
      <trkpt lat="59.0843009949" lon="30.010099411">
        <time>2026-04-22T11:32:26.000Z</time>
      </trkpt>
      <trkpt lat="59.0843009949" lon="30.0101208687">
        <time>2026-04-22T11:32:28.000Z</time>
      </trkpt>
      <trkpt lat="59.0842580795" lon="30.010099411">
        <time>2026-04-22T11:32:31.000Z</time>
      </trkpt>
      <trkpt lat="59.0842151642" lon="30.0100564957">
        <time>2026-04-22T11:32:33.000Z</time>
      </trkpt>
      <trkpt lat="59.0842151642" lon="30.010099411">
        <time>2026-04-22T11:32:36.000Z</time>
      </trkpt>
      <trkpt lat="59.0842151642" lon="30.010163784">
        <time>2026-04-22T11:32:38.000Z</time>
      </trkpt>
      <trkpt lat="59.0841722488" lon="30.0102066994">
        <time>2026-04-22T11:32:41.000Z</time>
      </trkpt>
      <trkpt lat="59.0841722488" lon="30.0102496147">
        <time>2026-04-22T11:32:43.000Z</time>
      </trkpt>
      <trkpt lat="59.0841722488" lon="30.0102925301">
        <time>2026-04-22T11:32:46.000Z</time>
      </trkpt>
      <trkpt lat="59.0841722488" lon="30.0103569031">
        <time>2026-04-22T11:32:48.000Z</time>
      </trkpt>
      <trkpt lat="59.0841722488" lon="30.0103783607">
        <time>2026-04-22T11:32:51.000Z</time>
      </trkpt>
      <trkpt lat="59.0841722488" lon="30.0104212761">
        <time>2026-04-22T11:32:53.000Z</time>
      </trkpt>
      <trkpt lat="59.0841293335" lon="30.0104212761">
        <time>2026-04-22T11:32:56.000Z</time>
      </trkpt>
      <trkpt lat="59.0841293335" lon="30.0104641914">
        <time>2026-04-22T11:32:58.000Z</time>
      </trkpt>
      <trkpt lat="59.0840864182" lon="30.0105071068">
        <time>2026-04-22T11:33:01.000Z</time>
      </trkpt>
      <trkpt lat="59.0840864182" lon="30.0104427338">
        <time>2026-04-22T11:33:03.000Z</time>
      </trkpt>
      <trkpt lat="59.0840649605" lon="30.0104212761">
        <time>2026-04-22T11:33:06.000Z</time>
      </trkpt>
      <trkpt lat="59.0840649605" lon="30.0104212761">
        <time>2026-04-22T11:33:08.000Z</time>
      </trkpt>
      <trkpt lat="59.0840649605" lon="30.0104212761">
        <time>2026-04-22T11:33:11.000Z</time>
      </trkpt>
      <trkpt lat="59.0840864182" lon="30.0104427338">
        <time>2026-04-22T11:33:13.000Z</time>
      </trkpt>
      <trkpt lat="59.0840649605" lon="30.0105500221">
        <time>2026-04-22T11:33:16.000Z</time>
      </trkpt>
      <trkpt lat="59.0840220451" lon="30.0106143951">
        <time>2026-04-22T11:33:18.000Z</time>
      </trkpt>
      <trkpt lat="59.0840005875" lon="30.0105714798">
        <time>2026-04-22T11:33:21.000Z</time>
      </trkpt>
      <trkpt lat="59.0839791298" lon="30.0105714798">
        <time>2026-04-22T11:33:23.000Z</time>
      </trkpt>
      <trkpt lat="59.0839576721" lon="30.0105929375">
        <time>2026-04-22T11:33:26.000Z</time>
      </trkpt>
      <trkpt lat="59.0839362144" lon="30.0106143951">
        <time>2026-04-22T11:33:28.000Z</time>
      </trkpt>
      <trkpt lat="59.0839147568" lon="30.0105929375">
        <time>2026-04-22T11:33:31.000Z</time>
      </trkpt>
      <trkpt lat="59.0838718414" lon="30.0105714798">
        <time>2026-04-22T11:33:33.000Z</time>
      </trkpt>
      <trkpt lat="59.0838289261" lon="30.0105500221">
        <time>2026-04-22T11:33:36.000Z</time>
      </trkpt>
      <trkpt lat="59.0838074684" lon="30.0105929375">
        <time>2026-04-22T11:33:38.000Z</time>
      </trkpt>
      <trkpt lat="59.0838074684" lon="30.0106358528">
        <time>2026-04-22T11:33:41.000Z</time>
      </trkpt>
      <trkpt lat="59.0838074684" lon="30.0106143951">
        <time>2026-04-22T11:33:43.000Z</time>
      </trkpt>
      <trkpt lat="59.0838074684" lon="30.0105500221">
        <time>2026-04-22T11:33:46.000Z</time>
      </trkpt>
      <trkpt lat="59.0838074684" lon="30.0105071068">
        <time>2026-04-22T11:33:48.000Z</time>
      </trkpt>
      <trkpt lat="59.0838074684" lon="30.0105071068">
        <time>2026-04-22T11:33:51.000Z</time>
      </trkpt>
      <trkpt lat="59.0838074684" lon="30.0105071068">
        <time>2026-04-22T11:33:53.000Z</time>
      </trkpt>
      <trkpt lat="59.0838074684" lon="30.0105071068">
        <time>2026-04-22T11:33:56.000Z</time>
      </trkpt>
      <trkpt lat="59.0838074684" lon="30.0105071068">
        <time>2026-04-22T11:33:58.000Z</time>
      </trkpt>
      <trkpt lat="59.0838074684" lon="30.0105071068">
        <time>2026-04-22T11:34:01.000Z</time>
      </trkpt>
      <trkpt lat="59.0838074684" lon="30.0104856491">
        <time>2026-04-22T11:34:03.000Z</time>
      </trkpt>
      <trkpt lat="59.0837860107" lon="30.0104212761">
        <time>2026-04-22T11:34:06.000Z</time>
      </trkpt>
      <trkpt lat="59.0837860107" lon="30.0103998184">
        <time>2026-04-22T11:34:08.000Z</time>
      </trkpt>
      <trkpt lat="59.0837860107" lon="30.0103354454">
        <time>2026-04-22T11:34:11.000Z</time>
      </trkpt>
      <trkpt lat="59.0837860107" lon="30.0103139877">
        <time>2026-04-22T11:34:13.000Z</time>
      </trkpt>
      <trkpt lat="59.0837860107" lon="30.0102710724">
        <time>2026-04-22T11:34:16.000Z</time>
      </trkpt>
      <trkpt lat="59.0837645531" lon="30.0102496147">
        <time>2026-04-22T11:34:18.000Z</time>
      </trkpt>
      <trkpt lat="59.0837216377" lon="30.0102496147">
        <time>2026-04-22T11:34:21.000Z</time>
      </trkpt>
      <trkpt lat="59.0837001801" lon="30.0102496147">
        <time>2026-04-22T11:34:23.000Z</time>
      </trkpt>
      <trkpt lat="59.0836787224" lon="30.0102496147">
        <time>2026-04-22T11:34:26.000Z</time>
      </trkpt>
      <trkpt lat="59.0836787224" lon="30.0102066994">
        <time>2026-04-22T11:34:28.000Z</time>
      </trkpt>
      <trkpt lat="59.0836572647" lon="30.0101423264">
        <time>2026-04-22T11:34:31.000Z</time>
      </trkpt>
      <trkpt lat="59.083635807" lon="30.0101423264">
        <time>2026-04-22T11:34:33.000Z</time>
      </trkpt>
      <trkpt lat="59.083635807" lon="30.0101423264">
        <time>2026-04-22T11:34:36.000Z</time>
      </trkpt>
      <trkpt lat="59.0836572647" lon="30.010099411">
        <time>2026-04-22T11:34:38.000Z</time>
      </trkpt>
      <trkpt lat="59.0837001801" lon="30.0100779533">
        <time>2026-04-22T11:34:41.000Z</time>
      </trkpt>
      <trkpt lat="59.0837216377" lon="30.0100779533">
        <time>2026-04-22T11:34:43.000Z</time>
      </trkpt>
      <trkpt lat="59.0837216377" lon="30.0099921227">
        <time>2026-04-22T11:34:46.000Z</time>
      </trkpt>
      <trkpt lat="59.0837001801" lon="30.0098633766">
        <time>2026-04-22T11:34:48.000Z</time>
      </trkpt>
      <trkpt lat="59.0837001801" lon="30.0098633766">
        <time>2026-04-22T11:34:51.000Z</time>
      </trkpt>
      <trkpt lat="59.0837430954" lon="30.0098848343">
        <time>2026-04-22T11:34:53.000Z</time>
      </trkpt>
      <trkpt lat="59.0837860107" lon="30.009970665">
        <time>2026-04-22T11:34:56.000Z</time>
      </trkpt>
      <trkpt lat="59.0838718414" lon="30.0099277496">
        <time>2026-04-22T11:34:58.000Z</time>
      </trkpt>
      <trkpt lat="59.0838074684" lon="30.0098633766">
        <time>2026-04-22T11:35:01.000Z</time>
      </trkpt>
      <trkpt lat="59.0837430954" lon="30.0097990036">
        <time>2026-04-22T11:35:03.000Z</time>
      </trkpt>
      <trkpt lat="59.0837430954" lon="30.0097990036">
        <time>2026-04-22T11:35:06.000Z</time>
      </trkpt>
      <trkpt lat="59.0837860107" lon="30.0097560883">
        <time>2026-04-22T11:35:08.000Z</time>
      </trkpt>
      <trkpt lat="59.0838074684" lon="30.0097346306">
        <time>2026-04-22T11:35:11.000Z</time>
      </trkpt>
      <trkpt lat="59.0837430954" lon="30.0096487999">
        <time>2026-04-22T11:35:13.000Z</time>
      </trkpt>
      <trkpt lat="59.0836572647" lon="30.0096058846">
        <time>2026-04-22T11:35:16.000Z</time>
      </trkpt>
      <trkpt lat="59.0836143494" lon="30.0096058846">
        <time>2026-04-22T11:35:18.000Z</time>
      </trkpt>
      <trkpt lat="59.0836572647" lon="30.0095844269">
        <time>2026-04-22T11:35:21.000Z</time>
      </trkpt>
      <trkpt lat="59.0836787224" lon="30.0094556808">
        <time>2026-04-22T11:35:23.000Z</time>
      </trkpt>
      <trkpt lat="59.0836143494" lon="30.0093269348">
        <time>2026-04-22T11:35:26.000Z</time>
      </trkpt>
      <trkpt lat="59.083571434" lon="30.0092625618">
        <time>2026-04-22T11:35:28.000Z</time>
      </trkpt>
      <trkpt lat="59.0835285187" lon="30.0091552734">
        <time>2026-04-22T11:35:31.000Z</time>
      </trkpt>
      <trkpt lat="59.083571434" lon="30.0091767311">
        <time>2026-04-22T11:35:33.000Z</time>
      </trkpt>
      <trkpt lat="59.083635807" lon="30.0091981888">
        <time>2026-04-22T11:35:36.000Z</time>
      </trkpt>
      <trkpt lat="59.0837001801" lon="30.0091981888">
        <time>2026-04-22T11:35:38.000Z</time>
      </trkpt>
      <trkpt lat="59.0837645531" lon="30.0090909004">
        <time>2026-04-22T11:35:41.000Z</time>
      </trkpt>
      <trkpt lat="59.0838289261" lon="30.0089836121">
        <time>2026-04-22T11:35:43.000Z</time>
      </trkpt>
      <trkpt lat="59.0838503838" lon="30.008919239">
        <time>2026-04-22T11:35:46.000Z</time>
      </trkpt>
      <trkpt lat="59.0838503838" lon="30.0088119507">
        <time>2026-04-22T11:35:48.000Z</time>
      </trkpt>
      <trkpt lat="59.0838289261" lon="30.0087690353">
        <time>2026-04-22T11:35:51.000Z</time>
      </trkpt>
      <trkpt lat="59.0838074684" lon="30.008854866">
        <time>2026-04-22T11:35:53.000Z</time>
      </trkpt>
      <trkpt lat="59.0837860107" lon="30.0089406967">
        <time>2026-04-22T11:35:56.000Z</time>
      </trkpt>
      <trkpt lat="59.0838289261" lon="30.0090265274">
        <time>2026-04-22T11:35:58.000Z</time>
      </trkpt>
      <trkpt lat="59.0838503838" lon="30.0090909004">
        <time>2026-04-22T11:36:01.000Z</time>
      </trkpt>
      <trkpt lat="59.0838718414" lon="30.0090694427">
        <time>2026-04-22T11:36:03.000Z</time>
      </trkpt>
      <trkpt lat="59.0839147568" lon="30.0090694427">
        <time>2026-04-22T11:36:06.000Z</time>
      </trkpt>
      <trkpt lat="59.0839362144" lon="30.0090909004">
        <time>2026-04-22T11:36:08.000Z</time>
      </trkpt>
      <trkpt lat="59.0839791298" lon="30.0090479851">
        <time>2026-04-22T11:36:11.000Z</time>
      </trkpt>
      <trkpt lat="59.0840005875" lon="30.0089621544">
        <time>2026-04-22T11:36:13.000Z</time>
      </trkpt>
      <trkpt lat="59.0840220451" lon="30.0089406967">
        <time>2026-04-22T11:36:16.000Z</time>
      </trkpt>
      <trkpt lat="59.0840435028" lon="30.0089406967">
        <time>2026-04-22T11:36:18.000Z</time>
      </trkpt>
      <trkpt lat="59.0840649605" lon="30.008919239">
        <time>2026-04-22T11:36:21.000Z</time>
      </trkpt>
      <trkpt lat="59.0840435028" lon="30.0088977814">
        <time>2026-04-22T11:36:23.000Z</time>
      </trkpt>
      <trkpt lat="59.0840435028" lon="30.0088977814">
        <time>2026-04-22T11:36:26.000Z</time>
      </trkpt>
      <trkpt lat="59.0840435028" lon="30.0088977814">
        <time>2026-04-22T11:36:28.000Z</time>
      </trkpt>
      <trkpt lat="59.0840649605" lon="30.0088977814">
        <time>2026-04-22T11:36:31.000Z</time>
      </trkpt>
      <trkpt lat="59.0841078758" lon="30.0088763237">
        <time>2026-04-22T11:36:33.000Z</time>
      </trkpt>
      <trkpt lat="59.0841078758" lon="30.0088334084">
        <time>2026-04-22T11:36:36.000Z</time>
      </trkpt>
      <trkpt lat="59.0841078758" lon="30.0088763237">
        <time>2026-04-22T11:36:38.000Z</time>
      </trkpt>
      <trkpt lat="59.0841293335" lon="30.008919239">
        <time>2026-04-22T11:36:41.000Z</time>
      </trkpt>
      <trkpt lat="59.0841507912" lon="30.0088977814">
        <time>2026-04-22T11:36:43.000Z</time>
      </trkpt>
      <trkpt lat="59.0842151642" lon="30.008854866">
        <time>2026-04-22T11:36:46.000Z</time>
      </trkpt>
      <trkpt lat="59.0842151642" lon="30.0088334084">
        <time>2026-04-22T11:36:48.000Z</time>
      </trkpt>
      <trkpt lat="59.0842580795" lon="30.0088119507">
        <time>2026-04-22T11:36:51.000Z</time>
      </trkpt>
      <trkpt lat="59.0842795372" lon="30.008790493">
        <time>2026-04-22T11:36:53.000Z</time>
      </trkpt>
      <trkpt lat="59.0843009949" lon="30.0087690353">
        <time>2026-04-22T11:36:56.000Z</time>
      </trkpt>
      <trkpt lat="59.0843224525" lon="30.008790493">
        <time>2026-04-22T11:36:58.000Z</time>
      </trkpt>
      <trkpt lat="59.0843439102" lon="30.0087690353">
        <time>2026-04-22T11:37:01.000Z</time>
      </trkpt>
      <trkpt lat="59.0843653679" lon="30.00872612">
        <time>2026-04-22T11:37:03.000Z</time>
      </trkpt>
      <trkpt lat="59.0843868256" lon="30.00872612">
        <time>2026-04-22T11:37:06.000Z</time>
      </trkpt>
      <trkpt lat="59.0844297409" lon="30.0087475777">
        <time>2026-04-22T11:37:08.000Z</time>
      </trkpt>
      <trkpt lat="59.0844297409" lon="30.00872612">
        <time>2026-04-22T11:37:11.000Z</time>
      </trkpt>
      <trkpt lat="59.0844297409" lon="30.0087475777">
        <time>2026-04-22T11:37:13.000Z</time>
      </trkpt>
      <trkpt lat="59.0844511986" lon="30.00872612">
        <time>2026-04-22T11:37:16.000Z</time>
      </trkpt>
      <trkpt lat="59.0844941139" lon="30.0086402893">
        <time>2026-04-22T11:37:18.000Z</time>
      </trkpt>
      <trkpt lat="59.0844941139" lon="30.0084900856">
        <time>2026-04-22T11:37:21.000Z</time>
      </trkpt>
      <trkpt lat="59.0844941139" lon="30.0084042549">
        <time>2026-04-22T11:37:23.000Z</time>
      </trkpt>
      <trkpt lat="59.0844511986" lon="30.0083827972">
        <time>2026-04-22T11:37:26.000Z</time>
      </trkpt>
      <trkpt lat="59.0844511986" lon="30.0083184242">
        <time>2026-04-22T11:37:28.000Z</time>
      </trkpt>
      <trkpt lat="59.0844297409" lon="30.0082969666">
        <time>2026-04-22T11:37:31.000Z</time>
      </trkpt>
      <trkpt lat="59.0844082832" lon="30.0083184242">
        <time>2026-04-22T11:37:33.000Z</time>
      </trkpt>
      <trkpt lat="59.0843653679" lon="30.0082755089">
        <time>2026-04-22T11:37:36.000Z</time>
      </trkpt>
      <trkpt lat="59.0843224525" lon="30.0082325935">
        <time>2026-04-22T11:37:38.000Z</time>
      </trkpt>
      <trkpt lat="59.0843224525" lon="30.0082111359">
        <time>2026-04-22T11:37:41.000Z</time>
      </trkpt>
      <trkpt lat="59.0843224525" lon="30.0081467628">
        <time>2026-04-22T11:37:43.000Z</time>
      </trkpt>
      <trkpt lat="59.0843224525" lon="30.0081038475">
        <time>2026-04-22T11:37:46.000Z</time>
      </trkpt>
      <trkpt lat="59.0843009949" lon="30.0081038475">
        <time>2026-04-22T11:37:48.000Z</time>
      </trkpt>
      <trkpt lat="59.0843009949" lon="30.0081038475">
        <time>2026-04-22T11:37:51.000Z</time>
      </trkpt>
      <trkpt lat="59.0843009949" lon="30.0081038475">
        <time>2026-04-22T11:37:53.000Z</time>
      </trkpt>
      <trkpt lat="59.0843009949" lon="30.0080609322">
        <time>2026-04-22T11:37:56.000Z</time>
      </trkpt>
      <trkpt lat="59.0843009949" lon="30.0079965591">
        <time>2026-04-22T11:37:58.000Z</time>
      </trkpt>
      <trkpt lat="59.0843009949" lon="30.0079321861">
        <time>2026-04-22T11:38:01.000Z</time>
      </trkpt>
      <trkpt lat="59.0842795372" lon="30.0078678131">
        <time>2026-04-22T11:38:03.000Z</time>
      </trkpt>
      <trkpt lat="59.0842795372" lon="30.0078678131">
        <time>2026-04-22T11:38:06.000Z</time>
      </trkpt>
      <trkpt lat="59.0842795372" lon="30.0078678131">
        <time>2026-04-22T11:38:08.000Z</time>
      </trkpt>
      <trkpt lat="59.0843009949" lon="30.0078678131">
        <time>2026-04-22T11:38:11.000Z</time>
      </trkpt>
      <trkpt lat="59.0843224525" lon="30.0078248978">
        <time>2026-04-22T11:38:13.000Z</time>
      </trkpt>
      <trkpt lat="59.0843439102" lon="30.0077390671">
        <time>2026-04-22T11:38:16.000Z</time>
      </trkpt>
      <trkpt lat="59.0843653679" lon="30.0076746941">
        <time>2026-04-22T11:38:18.000Z</time>
      </trkpt>
      <trkpt lat="59.0843653679" lon="30.0076746941">
        <time>2026-04-22T11:38:21.000Z</time>
      </trkpt>
      <trkpt lat="59.0843439102" lon="30.0076532364">
        <time>2026-04-22T11:38:23.000Z</time>
      </trkpt>
      <trkpt lat="59.0843224525" lon="30.0075888634">
        <time>2026-04-22T11:38:26.000Z</time>
      </trkpt>
      <trkpt lat="59.0843224525" lon="30.0075888634">
        <time>2026-04-22T11:38:28.000Z</time>
      </trkpt>
      <trkpt lat="59.0843224525" lon="30.0075888634">
        <time>2026-04-22T11:38:31.000Z</time>
      </trkpt>
      <trkpt lat="59.0843009949" lon="30.0075888634">
        <time>2026-04-22T11:38:33.000Z</time>
      </trkpt>
      <trkpt lat="59.0843009949" lon="30.0075888634">
        <time>2026-04-22T11:38:36.000Z</time>
      </trkpt>
      <trkpt lat="59.0843009949" lon="30.0075888634">
        <time>2026-04-22T11:38:38.000Z</time>
      </trkpt>
      <trkpt lat="59.0843009949" lon="30.0075888634">
        <time>2026-04-22T11:38:41.000Z</time>
      </trkpt>
      <trkpt lat="59.0843009949" lon="30.0075888634">
        <time>2026-04-22T11:38:43.000Z</time>
      </trkpt>
      <trkpt lat="59.0843009949" lon="30.0075888634">
        <time>2026-04-22T11:38:46.000Z</time>
      </trkpt>
      <trkpt lat="59.0843009949" lon="30.0075888634">
        <time>2026-04-22T11:38:48.000Z</time>
      </trkpt>
      <trkpt lat="59.0843009949" lon="30.0075888634">
        <time>2026-04-22T11:38:51.000Z</time>
      </trkpt>
      <trkpt lat="59.0843009949" lon="30.0075888634">
        <time>2026-04-22T11:38:53.000Z</time>
      </trkpt>
      <trkpt lat="59.0843009949" lon="30.0075888634">
        <time>2026-04-22T11:38:56.000Z</time>
      </trkpt>
      <trkpt lat="59.0843009949" lon="30.0075888634">
        <time>2026-04-22T11:38:58.000Z</time>
      </trkpt>
      <trkpt lat="59.0842795372" lon="30.0076317787">
        <time>2026-04-22T11:39:01.000Z</time>
      </trkpt>
      <trkpt lat="59.0842366219" lon="30.0076317787">
        <time>2026-04-22T11:39:03.000Z</time>
      </trkpt>
      <trkpt lat="59.0841937065" lon="30.0075888634">
        <time>2026-04-22T11:39:06.000Z</time>
      </trkpt>
      <trkpt lat="59.0841937065" lon="30.007610321">
        <time>2026-04-22T11:39:08.000Z</time>
      </trkpt>
      <trkpt lat="59.0841722488" lon="30.0076317787">
        <time>2026-04-22T11:39:11.000Z</time>
      </trkpt>
      <trkpt lat="59.0841293335" lon="30.0076746941">
        <time>2026-04-22T11:39:13.000Z</time>
      </trkpt>
      <trkpt lat="59.0841078758" lon="30.0077176094">
        <time>2026-04-22T11:39:16.000Z</time>
      </trkpt>
      <trkpt lat="59.0841078758" lon="30.0077176094">
        <time>2026-04-22T11:39:18.000Z</time>
      </trkpt>
      <trkpt lat="59.0841078758" lon="30.0077176094">
        <time>2026-04-22T11:39:21.000Z</time>
      </trkpt>
      <trkpt lat="59.0841078758" lon="30.0077176094">
        <time>2026-04-22T11:39:23.000Z</time>
      </trkpt>
      <trkpt lat="59.0841078758" lon="30.0077176094">
        <time>2026-04-22T11:39:26.000Z</time>
      </trkpt>
      <trkpt lat="59.0841078758" lon="30.0077176094">
        <time>2026-04-22T11:39:28.000Z</time>
      </trkpt>
      <trkpt lat="59.0840864182" lon="30.0076961517">
        <time>2026-04-22T11:39:31.000Z</time>
      </trkpt>
      <trkpt lat="59.0840649605" lon="30.0076961517">
        <time>2026-04-22T11:39:33.000Z</time>
      </trkpt>
      <trkpt lat="59.0840220451" lon="30.0076961517">
        <time>2026-04-22T11:39:36.000Z</time>
      </trkpt>
      <trkpt lat="59.0840005875" lon="30.0077176094">
        <time>2026-04-22T11:39:38.000Z</time>
      </trkpt>
      <trkpt lat="59.0839576721" lon="30.0076961517">
        <time>2026-04-22T11:39:41.000Z</time>
      </trkpt>
      <trkpt lat="59.0839147568" lon="30.0076746941">
        <time>2026-04-22T11:39:43.000Z</time>
      </trkpt>
      <trkpt lat="59.0838718414" lon="30.0076746941">
        <time>2026-04-22T11:39:46.000Z</time>
      </trkpt>
      <trkpt lat="59.0838718414" lon="30.0077176094">
        <time>2026-04-22T11:39:48.000Z</time>
      </trkpt>
      <trkpt lat="59.0838718414" lon="30.0077605247">
        <time>2026-04-22T11:39:51.000Z</time>
      </trkpt>
      <trkpt lat="59.0838718414" lon="30.0077390671">
        <time>2026-04-22T11:39:53.000Z</time>
      </trkpt>
      <trkpt lat="59.0838503838" lon="30.0076746941">
        <time>2026-04-22T11:39:56.000Z</time>
      </trkpt>
      <trkpt lat="59.0838289261" lon="30.0076746941">
        <time>2026-04-22T11:39:58.000Z</time>
      </trkpt>
      <trkpt lat="59.0838074684" lon="30.0076746941">
        <time>2026-04-22T11:40:01.000Z</time>
      </trkpt>
      <trkpt lat="59.0837860107" lon="30.0076746941">
        <time>2026-04-22T11:40:03.000Z</time>
      </trkpt>
      <trkpt lat="59.0837645531" lon="30.0076317787">
        <time>2026-04-22T11:40:06.000Z</time>
      </trkpt>
      <trkpt lat="59.0837216377" lon="30.007610321">
        <time>2026-04-22T11:40:08.000Z</time>
      </trkpt>
      <trkpt lat="59.0836787224" lon="30.0076317787">
        <time>2026-04-22T11:40:11.000Z</time>
      </trkpt>
      <trkpt lat="59.0836572647" lon="30.0075888634">
        <time>2026-04-22T11:40:13.000Z</time>
      </trkpt>
      <trkpt lat="59.0836572647" lon="30.007610321">
        <time>2026-04-22T11:40:16.000Z</time>
      </trkpt>
      <trkpt lat="59.0836787224" lon="30.0076532364">
        <time>2026-04-22T11:40:18.000Z</time>
      </trkpt>
      <trkpt lat="59.0836572647" lon="30.0077390671">
        <time>2026-04-22T11:40:21.000Z</time>
      </trkpt>
      <trkpt lat="59.083635807" lon="30.0078248978">
        <time>2026-04-22T11:40:23.000Z</time>
      </trkpt>
      <trkpt lat="59.083635807" lon="30.0078463554">
        <time>2026-04-22T11:40:26.000Z</time>
      </trkpt>
      <trkpt lat="59.083635807" lon="30.0078248978">
        <time>2026-04-22T11:40:28.000Z</time>
      </trkpt>
      <trkpt lat="59.0835928917" lon="30.0077819824">
        <time>2026-04-22T11:40:31.000Z</time>
      </trkpt>
      <trkpt lat="59.0835928917" lon="30.0078248978">
        <time>2026-04-22T11:40:33.000Z</time>
      </trkpt>
      <trkpt lat="59.083571434" lon="30.0078463554">
        <time>2026-04-22T11:40:36.000Z</time>
      </trkpt>
      <trkpt lat="59.0835499763" lon="30.0078678131">
        <time>2026-04-22T11:40:38.000Z</time>
      </trkpt>
      <trkpt lat="59.083507061" lon="30.0078678131">
        <time>2026-04-22T11:40:41.000Z</time>
      </trkpt>
      <trkpt lat="59.0834856033" lon="30.0078892708">
        <time>2026-04-22T11:40:43.000Z</time>
      </trkpt>
      <trkpt lat="59.0834856033" lon="30.0078463554">
        <time>2026-04-22T11:40:46.000Z</time>
      </trkpt>
      <trkpt lat="59.0834641457" lon="30.0078463554">
        <time>2026-04-22T11:40:48.000Z</time>
      </trkpt>
      <trkpt lat="59.0834212303" lon="30.0078463554">
        <time>2026-04-22T11:40:51.000Z</time>
      </trkpt>
      <trkpt lat="59.0834212303" lon="30.0078248978">
        <time>2026-04-22T11:40:53.000Z</time>
      </trkpt>
      <trkpt lat="59.083442688" lon="30.0077605247">
        <time>2026-04-22T11:40:56.000Z</time>
      </trkpt>
      <trkpt lat="59.083442688" lon="30.0077176094">
        <time>2026-04-22T11:40:58.000Z</time>
      </trkpt>
      <trkpt lat="59.083442688" lon="30.0077390671">
        <time>2026-04-22T11:41:01.000Z</time>
      </trkpt>
      <trkpt lat="59.083442688" lon="30.0077390671">
        <time>2026-04-22T11:41:03.000Z</time>
      </trkpt>
      <trkpt lat="59.0834641457" lon="30.0077390671">
        <time>2026-04-22T11:41:06.000Z</time>
      </trkpt>
      <trkpt lat="59.0834856033" lon="30.0076532364">
        <time>2026-04-22T11:41:08.000Z</time>
      </trkpt>
      <trkpt lat="59.083507061" lon="30.007545948">
        <time>2026-04-22T11:41:11.000Z</time>
      </trkpt>
      <trkpt lat="59.083507061" lon="30.0075030327">
        <time>2026-04-22T11:41:13.000Z</time>
      </trkpt>
      <trkpt lat="59.0834856033" lon="30.007481575">
        <time>2026-04-22T11:41:16.000Z</time>
      </trkpt>
      <trkpt lat="59.0834641457" lon="30.0074386597">
        <time>2026-04-22T11:41:18.000Z</time>
      </trkpt>
      <trkpt lat="59.0834641457" lon="30.0073742867">
        <time>2026-04-22T11:41:21.000Z</time>
      </trkpt>
      <trkpt lat="59.0834641457" lon="30.0073742867">
        <time>2026-04-22T11:41:23.000Z</time>
      </trkpt>
      <trkpt lat="59.083442688" lon="30.007352829">
        <time>2026-04-22T11:41:26.000Z</time>
      </trkpt>
      <trkpt lat="59.083442688" lon="30.007352829">
        <time>2026-04-22T11:41:28.000Z</time>
      </trkpt>
      <trkpt lat="59.0834212303" lon="30.0073313713">
        <time>2026-04-22T11:41:31.000Z</time>
      </trkpt>
      <trkpt lat="59.0834212303" lon="30.0072455406">
        <time>2026-04-22T11:41:33.000Z</time>
      </trkpt>
      <trkpt lat="59.0833997726" lon="30.0071597099">
        <time>2026-04-22T11:41:36.000Z</time>
      </trkpt>
      <trkpt lat="59.083378315" lon="30.0071597099">
        <time>2026-04-22T11:41:38.000Z</time>
      </trkpt>
      <trkpt lat="59.0833997726" lon="30.0071167946">
        <time>2026-04-22T11:41:41.000Z</time>
      </trkpt>
      <trkpt lat="59.0833997726" lon="30.0070309639">
        <time>2026-04-22T11:41:43.000Z</time>
      </trkpt>
      <trkpt lat="59.083378315" lon="30.0069236755">
        <time>2026-04-22T11:41:46.000Z</time>
      </trkpt>
      <trkpt lat="59.083378315" lon="30.0069022179">
        <time>2026-04-22T11:41:48.000Z</time>
      </trkpt>
      <trkpt lat="59.083378315" lon="30.0068807602">
        <time>2026-04-22T11:41:51.000Z</time>
      </trkpt>
      <trkpt lat="59.083378315" lon="30.0068163872">
        <time>2026-04-22T11:41:53.000Z</time>
      </trkpt>
      <trkpt lat="59.083378315" lon="30.0067305565">
        <time>2026-04-22T11:41:56.000Z</time>
      </trkpt>
      <trkpt lat="59.0833568573" lon="30.0067305565">
        <time>2026-04-22T11:41:58.000Z</time>
      </trkpt>
      <trkpt lat="59.083378315" lon="30.0067090988">
        <time>2026-04-22T11:42:01.000Z</time>
      </trkpt>
      <trkpt lat="59.0833997726" lon="30.0067305565">
        <time>2026-04-22T11:42:03.000Z</time>
      </trkpt>
      <trkpt lat="59.0834212303" lon="30.0067090988">
        <time>2026-04-22T11:42:06.000Z</time>
      </trkpt>
      <trkpt lat="59.083442688" lon="30.0067520142">
        <time>2026-04-22T11:42:08.000Z</time>
      </trkpt>
      <trkpt lat="59.0834856033" lon="30.0067090988">
        <time>2026-04-22T11:42:11.000Z</time>
      </trkpt>
      <trkpt lat="59.0834856033" lon="30.0067090988">
        <time>2026-04-22T11:42:13.000Z</time>
      </trkpt>
      <trkpt lat="59.083507061" lon="30.0067305565">
        <time>2026-04-22T11:42:16.000Z</time>
      </trkpt>
      <trkpt lat="59.083507061" lon="30.0067090988">
        <time>2026-04-22T11:42:18.000Z</time>
      </trkpt>
      <trkpt lat="59.0835499763" lon="30.0067090988">
        <time>2026-04-22T11:42:21.000Z</time>
      </trkpt>
      <trkpt lat="59.083571434" lon="30.0066447258">
        <time>2026-04-22T11:42:23.000Z</time>
      </trkpt>
      <trkpt lat="59.0835928917" lon="30.0065803528">
        <time>2026-04-22T11:42:26.000Z</time>
      </trkpt>
      <trkpt lat="59.0835928917" lon="30.0065588951">
        <time>2026-04-22T11:42:28.000Z</time>
      </trkpt>
      <trkpt lat="59.0835928917" lon="30.0065803528">
        <time>2026-04-22T11:42:31.000Z</time>
      </trkpt>
      <trkpt lat="59.083571434" lon="30.0065803528">
        <time>2026-04-22T11:42:33.000Z</time>
      </trkpt>
      <trkpt lat="59.0836143494" lon="30.0065374374">
        <time>2026-04-22T11:42:36.000Z</time>
      </trkpt>
      <trkpt lat="59.083635807" lon="30.0065159798">
        <time>2026-04-22T11:42:38.000Z</time>
      </trkpt>
      <trkpt lat="59.0836787224" lon="30.0064945221">
        <time>2026-04-22T11:42:41.000Z</time>
      </trkpt>
      <trkpt lat="59.0837001801" lon="30.0064301491">
        <time>2026-04-22T11:42:43.000Z</time>
      </trkpt>
      <trkpt lat="59.0837216377" lon="30.0064301491">
        <time>2026-04-22T11:42:46.000Z</time>
      </trkpt>
      <trkpt lat="59.0837430954" lon="30.0064730644">
        <time>2026-04-22T11:42:48.000Z</time>
      </trkpt>
      <trkpt lat="59.0837645531" lon="30.0065159798">
        <time>2026-04-22T11:42:51.000Z</time>
      </trkpt>
      <trkpt lat="59.0837860107" lon="30.0065803528">
        <time>2026-04-22T11:42:53.000Z</time>
      </trkpt>
      <trkpt lat="59.0838074684" lon="30.0065588951">
        <time>2026-04-22T11:42:56.000Z</time>
      </trkpt>
      <trkpt lat="59.0838074684" lon="30.0065159798">
        <time>2026-04-22T11:42:58.000Z</time>
      </trkpt>
      <trkpt lat="59.0838289261" lon="30.0064945221">
        <time>2026-04-22T11:43:01.000Z</time>
      </trkpt>
      <trkpt lat="59.0838289261" lon="30.0064945221">
        <time>2026-04-22T11:43:03.000Z</time>
      </trkpt>
      <trkpt lat="59.0838718414" lon="30.0064945221">
        <time>2026-04-22T11:43:06.000Z</time>
      </trkpt>
      <trkpt lat="59.0838718414" lon="30.0065374374">
        <time>2026-04-22T11:43:08.000Z</time>
      </trkpt>
      <trkpt lat="59.0839362144" lon="30.0065374374">
        <time>2026-04-22T11:43:11.000Z</time>
      </trkpt>
      <trkpt lat="59.0839362144" lon="30.0065588951">
        <time>2026-04-22T11:43:13.000Z</time>
      </trkpt>
      <trkpt lat="59.0839576721" lon="30.0065374374">
        <time>2026-04-22T11:43:16.000Z</time>
      </trkpt>
      <trkpt lat="59.0839791298" lon="30.0064945221">
        <time>2026-04-22T11:43:18.000Z</time>
      </trkpt>
      <trkpt lat="59.0839791298" lon="30.0064301491">
        <time>2026-04-22T11:43:21.000Z</time>
      </trkpt>
      <trkpt lat="59.0840005875" lon="30.0064086914">
        <time>2026-04-22T11:43:23.000Z</time>
      </trkpt>
      <trkpt lat="59.0840220451" lon="30.0064730644">
        <time>2026-04-22T11:43:26.000Z</time>
      </trkpt>
      <trkpt lat="59.0840435028" lon="30.0064730644">
        <time>2026-04-22T11:43:28.000Z</time>
      </trkpt>
      <trkpt lat="59.0840435028" lon="30.0064516068">
        <time>2026-04-22T11:43:31.000Z</time>
      </trkpt>
      <trkpt lat="59.0840435028" lon="30.0064516068">
        <time>2026-04-22T11:43:33.000Z</time>
      </trkpt>
      <trkpt lat="59.0840435028" lon="30.0064516068">
        <time>2026-04-22T11:43:36.000Z</time>
      </trkpt>
      <trkpt lat="59.0840220451" lon="30.0064301491">
        <time>2026-04-22T11:43:38.000Z</time>
      </trkpt>
      <trkpt lat="59.0840005875" lon="30.0063657761">
        <time>2026-04-22T11:43:41.000Z</time>
      </trkpt>
      <trkpt lat="59.0840005875" lon="30.0063443184">
        <time>2026-04-22T11:43:43.000Z</time>
      </trkpt>
      <trkpt lat="59.0840005875" lon="30.0063228607">
        <time>2026-04-22T11:43:46.000Z</time>
      </trkpt>
      <trkpt lat="59.0840005875" lon="30.0062799454">
        <time>2026-04-22T11:43:48.000Z</time>
      </trkpt>
      <trkpt lat="59.0840005875" lon="30.0062155724">
        <time>2026-04-22T11:43:51.000Z</time>
      </trkpt>
      <trkpt lat="59.0840005875" lon="30.0061941147">
        <time>2026-04-22T11:43:53.000Z</time>
      </trkpt>
      <trkpt lat="59.0840005875" lon="30.0061297417">
        <time>2026-04-22T11:43:56.000Z</time>
      </trkpt>
      <trkpt lat="59.0840005875" lon="30.0060653687">
        <time>2026-04-22T11:43:58.000Z</time>
      </trkpt>
      <trkpt lat="59.0840005875" lon="30.0060009956">
        <time>2026-04-22T11:44:01.000Z</time>
      </trkpt>
      <trkpt lat="59.0839791298" lon="30.0059580803">
        <time>2026-04-22T11:44:03.000Z</time>
      </trkpt>
      <trkpt lat="59.0839791298" lon="30.0059366226">
        <time>2026-04-22T11:44:06.000Z</time>
      </trkpt>
      <trkpt lat="59.0840005875" lon="30.0059580803">
        <time>2026-04-22T11:44:08.000Z</time>
      </trkpt>
      <trkpt lat="59.0840220451" lon="30.0060009956">
        <time>2026-04-22T11:44:11.000Z</time>
      </trkpt>
      <trkpt lat="59.0840435028" lon="30.0060009956">
        <time>2026-04-22T11:44:13.000Z</time>
      </trkpt>
      <trkpt lat="59.0840649605" lon="30.0060009956">
        <time>2026-04-22T11:44:16.000Z</time>
      </trkpt>
      <trkpt lat="59.0840649605" lon="30.0059580803">
        <time>2026-04-22T11:44:18.000Z</time>
      </trkpt>
      <trkpt lat="59.0840649605" lon="30.0059151649">
        <time>2026-04-22T11:44:21.000Z</time>
      </trkpt>
      <trkpt lat="59.0840649605" lon="30.0058937073">
        <time>2026-04-22T11:44:23.000Z</time>
      </trkpt>
      <trkpt lat="59.0840649605" lon="30.0058722496">
        <time>2026-04-22T11:44:26.000Z</time>
      </trkpt>
      <trkpt lat="59.0840864182" lon="30.0058293343">
        <time>2026-04-22T11:44:28.000Z</time>
      </trkpt>
      <trkpt lat="59.0840864182" lon="30.0057864189">
        <time>2026-04-22T11:44:31.000Z</time>
      </trkpt>
      <trkpt lat="59.0841078758" lon="30.0057435036">
        <time>2026-04-22T11:44:33.000Z</time>
      </trkpt>
      <trkpt lat="59.0841078758" lon="30.0057005882">
        <time>2026-04-22T11:44:36.000Z</time>
      </trkpt>
      <trkpt lat="59.0840864182" lon="30.0056362152">
        <time>2026-04-22T11:44:38.000Z</time>
      </trkpt>
      <trkpt lat="59.0840864182" lon="30.0055718422">
        <time>2026-04-22T11:44:41.000Z</time>
      </trkpt>
      <trkpt lat="59.0840649605" lon="30.0055503845">
        <time>2026-04-22T11:44:43.000Z</time>
      </trkpt>
      <trkpt lat="59.0840435028" lon="30.0055289268">
        <time>2026-04-22T11:44:46.000Z</time>
      </trkpt>
      <trkpt lat="59.0840435028" lon="30.0055074692">
        <time>2026-04-22T11:44:48.000Z</time>
      </trkpt>
      <trkpt lat="59.0840435028" lon="30.0055074692">
        <time>2026-04-22T11:44:51.000Z</time>
      </trkpt>
      <trkpt lat="59.0840220451" lon="30.0054430962">
        <time>2026-04-22T11:44:53.000Z</time>
      </trkpt>
      <trkpt lat="59.0840435028" lon="30.0054216385">
        <time>2026-04-22T11:44:56.000Z</time>
      </trkpt>
      <trkpt lat="59.0840435028" lon="30.0053787231">
        <time>2026-04-22T11:44:58.000Z</time>
      </trkpt>
      <trkpt lat="59.0840435028" lon="30.0052928925">
        <time>2026-04-22T11:45:01.000Z</time>
      </trkpt>
      <trkpt lat="59.0840435028" lon="30.0052714348">
        <time>2026-04-22T11:45:03.000Z</time>
      </trkpt>
      <trkpt lat="59.0840220451" lon="30.0052714348">
        <time>2026-04-22T11:45:06.000Z</time>
      </trkpt>
      <trkpt lat="59.0840220451" lon="30.0052714348">
        <time>2026-04-22T11:45:08.000Z</time>
      </trkpt>
      <trkpt lat="59.0840220451" lon="30.0052499771">
        <time>2026-04-22T11:45:11.000Z</time>
      </trkpt>
      <trkpt lat="59.0840005875" lon="30.0052285194">
        <time>2026-04-22T11:45:13.000Z</time>
      </trkpt>
      <trkpt lat="59.0840005875" lon="30.0052285194">
        <time>2026-04-22T11:45:16.000Z</time>
      </trkpt>
      <trkpt lat="59.0840005875" lon="30.0052285194">
        <time>2026-04-22T11:45:18.000Z</time>
      </trkpt>
      <trkpt lat="59.0840005875" lon="30.0052285194">
        <time>2026-04-22T11:45:21.000Z</time>
      </trkpt>
      <trkpt lat="59.0840005875" lon="30.0052285194">
        <time>2026-04-22T11:45:23.000Z</time>
      </trkpt>
      <trkpt lat="59.0840005875" lon="30.0052285194">
        <time>2026-04-22T11:45:26.000Z</time>
      </trkpt>
      <trkpt lat="59.0840005875" lon="30.0052285194">
        <time>2026-04-22T11:45:28.000Z</time>
      </trkpt>
      <trkpt lat="59.0840005875" lon="30.0052285194">
        <time>2026-04-22T11:45:31.000Z</time>
      </trkpt>
      <trkpt lat="59.0840005875" lon="30.0052285194">
        <time>2026-04-22T11:45:33.000Z</time>
      </trkpt>
      <trkpt lat="59.0840005875" lon="30.0052285194">
        <time>2026-04-22T11:45:36.000Z</time>
      </trkpt>
      <trkpt lat="59.0840005875" lon="30.0052285194">
        <time>2026-04-22T11:45:38.000Z</time>
      </trkpt>
      <trkpt lat="59.0840005875" lon="30.0052285194">
        <time>2026-04-22T11:45:41.000Z</time>
      </trkpt>
      <trkpt lat="59.0840005875" lon="30.0052285194">
        <time>2026-04-22T11:45:43.000Z</time>
      </trkpt>
      <trkpt lat="59.0840005875" lon="30.0052285194">
        <time>2026-04-22T11:45:46.000Z</time>
      </trkpt>
      <trkpt lat="59.0840005875" lon="30.0052285194">
        <time>2026-04-22T11:45:48.000Z</time>
      </trkpt>
      <trkpt lat="59.0840005875" lon="30.0052285194">
        <time>2026-04-22T11:45:51.000Z</time>
      </trkpt>
      <trkpt lat="59.0839791298" lon="30.0052070618">
        <time>2026-04-22T11:45:53.000Z</time>
      </trkpt>
      <trkpt lat="59.0839576721" lon="30.0051856041">
        <time>2026-04-22T11:45:56.000Z</time>
      </trkpt>
      <trkpt lat="59.0839147568" lon="30.0051641464">
        <time>2026-04-22T11:45:58.000Z</time>
      </trkpt>
      <trkpt lat="59.0838932991" lon="30.0050783157">
        <time>2026-04-22T11:46:01.000Z</time>
      </trkpt>
      <trkpt lat="59.0838503838" lon="30.0050354004">
        <time>2026-04-22T11:46:03.000Z</time>
      </trkpt>
      <trkpt lat="59.0838074684" lon="30.0049710274">
        <time>2026-04-22T11:46:06.000Z</time>
      </trkpt>
      <trkpt lat="59.0837860107" lon="30.004863739">
        <time>2026-04-22T11:46:08.000Z</time>
      </trkpt>
      <trkpt lat="59.0837645531" lon="30.0047779083">
        <time>2026-04-22T11:46:11.000Z</time>
      </trkpt>
      <trkpt lat="59.0837645531" lon="30.0047564507">
        <time>2026-04-22T11:46:13.000Z</time>
      </trkpt>
      <trkpt lat="59.0838289261" lon="30.0047135353">
        <time>2026-04-22T11:46:16.000Z</time>
      </trkpt>
      <trkpt lat="59.0838289261" lon="30.0046920776">
        <time>2026-04-22T11:46:18.000Z</time>
      </trkpt>
      <trkpt lat="59.0838289261" lon="30.0046920776">
        <time>2026-04-22T11:46:21.000Z</time>
      </trkpt>
      <trkpt lat="59.0838289261" lon="30.0046920776">
        <time>2026-04-22T11:46:23.000Z</time>
      </trkpt>
      <trkpt lat="59.0838289261" lon="30.0046491623">
        <time>2026-04-22T11:46:26.000Z</time>
      </trkpt>
      <trkpt lat="59.0838718414" lon="30.0045847893">
        <time>2026-04-22T11:46:28.000Z</time>
      </trkpt>
      <trkpt lat="59.0838503838" lon="30.0045633316">
        <time>2026-04-22T11:46:31.000Z</time>
      </trkpt>
      <trkpt lat="59.0838503838" lon="30.0045633316">
        <time>2026-04-22T11:46:33.000Z</time>
      </trkpt>
      <trkpt lat="59.0838503838" lon="30.0045633316">
        <time>2026-04-22T11:46:36.000Z</time>
      </trkpt>
      <trkpt lat="59.0838503838" lon="30.0046277046">
        <time>2026-04-22T11:46:38.000Z</time>
      </trkpt>
      <trkpt lat="59.0838074684" lon="30.00467062">
        <time>2026-04-22T11:46:41.000Z</time>
      </trkpt>
      <trkpt lat="59.0837860107" lon="30.0047564507">
        <time>2026-04-22T11:46:43.000Z</time>
      </trkpt>
      <trkpt lat="59.0837860107" lon="30.0049066544">
        <time>2026-04-22T11:46:46.000Z</time>
      </trkpt>
      <trkpt lat="59.0837645531" lon="30.0050354004">
        <time>2026-04-22T11:46:48.000Z</time>
      </trkpt>
      <trkpt lat="59.0837430954" lon="30.0051426888">
        <time>2026-04-22T11:46:51.000Z</time>
      </trkpt>
      <trkpt lat="59.0837430954" lon="30.0052070618">
        <time>2026-04-22T11:46:53.000Z</time>
      </trkpt>
      <trkpt lat="59.0837216377" lon="30.0052499771">
        <time>2026-04-22T11:46:56.000Z</time>
      </trkpt>
      <trkpt lat="59.0837001801" lon="30.0052285194">
        <time>2026-04-22T11:46:58.000Z</time>
      </trkpt>
      <trkpt lat="59.0836787224" lon="30.0051856041">
        <time>2026-04-22T11:47:01.000Z</time>
      </trkpt>
      <trkpt lat="59.0836572647" lon="30.0052285194">
        <time>2026-04-22T11:47:03.000Z</time>
      </trkpt>
      <trkpt lat="59.0836143494" lon="30.0052928925">
        <time>2026-04-22T11:47:06.000Z</time>
      </trkpt>
      <trkpt lat="59.0835928917" lon="30.0052499771">
        <time>2026-04-22T11:47:08.000Z</time>
      </trkpt>
      <trkpt lat="59.083571434" lon="30.0052070618">
        <time>2026-04-22T11:47:11.000Z</time>
      </trkpt>
      <trkpt lat="59.083571434" lon="30.0051212311">
        <time>2026-04-22T11:47:13.000Z</time>
      </trkpt>
      <trkpt lat="59.0835499763" lon="30.0050354004">
        <time>2026-04-22T11:47:16.000Z</time>
      </trkpt>
      <trkpt lat="59.0835499763" lon="30.0050354004">
        <time>2026-04-22T11:47:18.000Z</time>
      </trkpt>
      <trkpt lat="59.0835285187" lon="30.0050354004">
        <time>2026-04-22T11:47:21.000Z</time>
      </trkpt>
      <trkpt lat="59.0835499763" lon="30.0050354004">
        <time>2026-04-22T11:47:23.000Z</time>
      </trkpt>
      <trkpt lat="59.0835499763" lon="30.0050568581">
        <time>2026-04-22T11:47:26.000Z</time>
      </trkpt>
      <trkpt lat="59.083507061" lon="30.0051212311">
        <time>2026-04-22T11:47:28.000Z</time>
      </trkpt>
      <trkpt lat="59.083442688" lon="30.0053143501">
        <time>2026-04-22T11:47:31.000Z</time>
      </trkpt>
      <trkpt lat="59.0833997726" lon="30.0054216385">
        <time>2026-04-22T11:47:33.000Z</time>
      </trkpt>
      <trkpt lat="59.0833568573" lon="30.0055074692">
        <time>2026-04-22T11:47:36.000Z</time>
      </trkpt>
      <trkpt lat="59.0833353996" lon="30.0055289268">
        <time>2026-04-22T11:47:38.000Z</time>
      </trkpt>
      <trkpt lat="59.0832710266" lon="30.0055074692">
        <time>2026-04-22T11:47:41.000Z</time>
      </trkpt>
      <trkpt lat="59.0832066536" lon="30.0055074692">
        <time>2026-04-22T11:47:43.000Z</time>
      </trkpt>
      <trkpt lat="59.0831637383" lon="30.0054860115">
        <time>2026-04-22T11:47:46.000Z</time>
      </trkpt>
      <trkpt lat="59.0831422806" lon="30.0054645538">
        <time>2026-04-22T11:47:48.000Z</time>
      </trkpt>
      <trkpt lat="59.0831208229" lon="30.0054430962">
        <time>2026-04-22T11:47:51.000Z</time>
      </trkpt>
      <trkpt lat="59.0831422806" lon="30.0054860115">
        <time>2026-04-22T11:47:53.000Z</time>
      </trkpt>
      <trkpt lat="59.0831422806" lon="30.0055074692">
        <time>2026-04-22T11:47:56.000Z</time>
      </trkpt>
      <trkpt lat="59.0831637383" lon="30.0054860115">
        <time>2026-04-22T11:47:58.000Z</time>
      </trkpt>
      <trkpt lat="59.0831851959" lon="30.0054216385">
        <time>2026-04-22T11:48:01.000Z</time>
      </trkpt>
      <trkpt lat="59.0831637383" lon="30.0053787231">
        <time>2026-04-22T11:48:03.000Z</time>
      </trkpt>
      <trkpt lat="59.0831422806" lon="30.0052714348">
        <time>2026-04-22T11:48:06.000Z</time>
      </trkpt>
      <trkpt lat="59.0830993652" lon="30.0052285194">
        <time>2026-04-22T11:48:08.000Z</time>
      </trkpt>
      <trkpt lat="59.0830779076" lon="30.0052285194">
        <time>2026-04-22T11:48:11.000Z</time>
      </trkpt>
      <trkpt lat="59.0830779076" lon="30.0052070618">
        <time>2026-04-22T11:48:13.000Z</time>
      </trkpt>
      <trkpt lat="59.0830779076" lon="30.0052070618">
        <time>2026-04-22T11:48:16.000Z</time>
      </trkpt>
      <trkpt lat="59.0830564499" lon="30.0051641464">
        <time>2026-04-22T11:48:18.000Z</time>
      </trkpt>
      <trkpt lat="59.0830349922" lon="30.0050997734">
        <time>2026-04-22T11:48:21.000Z</time>
      </trkpt>
      <trkpt lat="59.0830135345" lon="30.004992485">
        <time>2026-04-22T11:48:23.000Z</time>
      </trkpt>
      <trkpt lat="59.0830564499" lon="30.0049710274">
        <time>2026-04-22T11:48:26.000Z</time>
      </trkpt>
      <trkpt lat="59.0830564499" lon="30.004928112">
        <time>2026-04-22T11:48:28.000Z</time>
      </trkpt>
      <trkpt lat="59.0829920769" lon="30.0048851967">
        <time>2026-04-22T11:48:31.000Z</time>
      </trkpt>
      <trkpt lat="59.0829277039" lon="30.0049066544">
        <time>2026-04-22T11:48:33.000Z</time>
      </trkpt>
      <trkpt lat="59.0828633308" lon="30.004863739">
        <time>2026-04-22T11:48:36.000Z</time>
      </trkpt>
      <trkpt lat="59.0828847885" lon="30.004799366">
        <time>2026-04-22T11:48:38.000Z</time>
      </trkpt>
      <trkpt lat="59.0829491615" lon="30.0047135353">
        <time>2026-04-22T11:48:41.000Z</time>
      </trkpt>
      <trkpt lat="59.0830135345" lon="30.00467062">
        <time>2026-04-22T11:48:43.000Z</time>
      </trkpt>
      <trkpt lat="59.0830564499" lon="30.0046277046">
        <time>2026-04-22T11:48:46.000Z</time>
      </trkpt>
      <trkpt lat="59.0830779076" lon="30.0045847893">
        <time>2026-04-22T11:48:48.000Z</time>
      </trkpt>
      <trkpt lat="59.0830779076" lon="30.0045204163">
        <time>2026-04-22T11:48:51.000Z</time>
      </trkpt>
      <trkpt lat="59.0830993652" lon="30.0044989586">
        <time>2026-04-22T11:48:53.000Z</time>
      </trkpt>
      <trkpt lat="59.0830779076" lon="30.0044560432">
        <time>2026-04-22T11:48:56.000Z</time>
      </trkpt>
      <trkpt lat="59.0830564499" lon="30.0044345856">
        <time>2026-04-22T11:48:58.000Z</time>
      </trkpt>
      <trkpt lat="59.0830564499" lon="30.0044131279">
        <time>2026-04-22T11:49:01.000Z</time>
      </trkpt>
      <trkpt lat="59.0830564499" lon="30.0043702126">
        <time>2026-04-22T11:49:03.000Z</time>
      </trkpt>
      <trkpt lat="59.0830564499" lon="30.0043058395">
        <time>2026-04-22T11:49:06.000Z</time>
      </trkpt>
      <trkpt lat="59.0830564499" lon="30.0042414665">
        <time>2026-04-22T11:49:08.000Z</time>
      </trkpt>
      <trkpt lat="59.0830779076" lon="30.0042200089">
        <time>2026-04-22T11:49:11.000Z</time>
      </trkpt>
      <trkpt lat="59.0830993652" lon="30.0041770935">
        <time>2026-04-22T11:49:13.000Z</time>
      </trkpt>
      <trkpt lat="59.0830993652" lon="30.0041341782">
        <time>2026-04-22T11:49:16.000Z</time>
      </trkpt>
      <trkpt lat="59.0830993652" lon="30.0041341782">
        <time>2026-04-22T11:49:18.000Z</time>
      </trkpt>
      <trkpt lat="59.0830779076" lon="30.0041127205">
        <time>2026-04-22T11:49:21.000Z</time>
      </trkpt>
      <trkpt lat="59.0830993652" lon="30.0041127205">
        <time>2026-04-22T11:49:23.000Z</time>
      </trkpt>
      <trkpt lat="59.0830993652" lon="30.0041127205">
        <time>2026-04-22T11:49:26.000Z</time>
      </trkpt>
      <trkpt lat="59.0831208229" lon="30.0041556358">
        <time>2026-04-22T11:49:28.000Z</time>
      </trkpt>
      <trkpt lat="59.0831422806" lon="30.0041556358">
        <time>2026-04-22T11:49:31.000Z</time>
      </trkpt>
      <trkpt lat="59.0831851959" lon="30.0041341782">
        <time>2026-04-22T11:49:33.000Z</time>
      </trkpt>
      <trkpt lat="59.0832066536" lon="30.0040912628">
        <time>2026-04-22T11:49:36.000Z</time>
      </trkpt>
      <trkpt lat="59.0832281113" lon="30.0040912628">
        <time>2026-04-22T11:49:38.000Z</time>
      </trkpt>
      <trkpt lat="59.0832710266" lon="30.0040483475">
        <time>2026-04-22T11:49:41.000Z</time>
      </trkpt>
      <trkpt lat="59.0832924843" lon="30.0040054321">
        <time>2026-04-22T11:49:43.000Z</time>
      </trkpt>
      <trkpt lat="59.0832924843" lon="30.0040054321">
        <time>2026-04-22T11:49:46.000Z</time>
      </trkpt>
      <trkpt lat="59.0832924843" lon="30.0040054321">
        <time>2026-04-22T11:49:48.000Z</time>
      </trkpt>
      <trkpt lat="59.083313942" lon="30.0040268898">
        <time>2026-04-22T11:49:51.000Z</time>
      </trkpt>
      <trkpt lat="59.0833568573" lon="30.0040483475">
        <time>2026-04-22T11:49:53.000Z</time>
      </trkpt>
      <trkpt lat="59.0833997726" lon="30.0040483475">
        <time>2026-04-22T11:49:56.000Z</time>
      </trkpt>
      <trkpt lat="59.0834212303" lon="30.0041127205">
        <time>2026-04-22T11:49:58.000Z</time>
      </trkpt>
      <trkpt lat="59.0834856033" lon="30.0041341782">
        <time>2026-04-22T11:50:01.000Z</time>
      </trkpt>
      <trkpt lat="59.0834856033" lon="30.0040912628">
        <time>2026-04-22T11:50:03.000Z</time>
      </trkpt>
      <trkpt lat="59.0834856033" lon="30.0040483475">
        <time>2026-04-22T11:50:06.000Z</time>
      </trkpt>
      <trkpt lat="59.0834856033" lon="30.0040054321">
        <time>2026-04-22T11:50:08.000Z</time>
      </trkpt>
      <trkpt lat="59.0834856033" lon="30.0039839745">
        <time>2026-04-22T11:50:11.000Z</time>
      </trkpt>
      <trkpt lat="59.083507061" lon="30.0039839745">
        <time>2026-04-22T11:50:13.000Z</time>
      </trkpt>
      <trkpt lat="59.0835499763" lon="30.0039196014">
        <time>2026-04-22T11:50:16.000Z</time>
      </trkpt>
      <trkpt lat="59.083571434" lon="30.0039196014">
        <time>2026-04-22T11:50:18.000Z</time>
      </trkpt>
      <trkpt lat="59.0835928917" lon="30.0039410591">
        <time>2026-04-22T11:50:21.000Z</time>
      </trkpt>
      <trkpt lat="59.0836143494" lon="30.0039196014">
        <time>2026-04-22T11:50:23.000Z</time>
      </trkpt>
      <trkpt lat="59.0836143494" lon="30.0038981438">
        <time>2026-04-22T11:50:26.000Z</time>
      </trkpt>
      <trkpt lat="59.083635807" lon="30.0038766861">
        <time>2026-04-22T11:50:28.000Z</time>
      </trkpt>
      <trkpt lat="59.0836572647" lon="30.0037908554">
        <time>2026-04-22T11:50:31.000Z</time>
      </trkpt>
      <trkpt lat="59.0836787224" lon="30.0037479401">
        <time>2026-04-22T11:50:33.000Z</time>
      </trkpt>
      <trkpt lat="59.0837001801" lon="30.0037908554">
        <time>2026-04-22T11:50:36.000Z</time>
      </trkpt>
      <trkpt lat="59.0837001801" lon="30.0038552284">
        <time>2026-04-22T11:50:38.000Z</time>
      </trkpt>
      <trkpt lat="59.0837645531" lon="30.0038337708">
        <time>2026-04-22T11:50:41.000Z</time>
      </trkpt>
      <trkpt lat="59.0838074684" lon="30.0038337708">
        <time>2026-04-22T11:50:43.000Z</time>
      </trkpt>
      <trkpt lat="59.0838503838" lon="30.0038337708">
        <time>2026-04-22T11:50:46.000Z</time>
      </trkpt>
      <trkpt lat="59.0838932991" lon="30.0037908554">
        <time>2026-04-22T11:50:48.000Z</time>
      </trkpt>
      <trkpt lat="59.0838932991" lon="30.0037264824">
        <time>2026-04-22T11:50:51.000Z</time>
      </trkpt>
      <trkpt lat="59.0838718414" lon="30.0037050247">
        <time>2026-04-22T11:50:53.000Z</time>
      </trkpt>
      <trkpt lat="59.0838503838" lon="30.003619194">
        <time>2026-04-22T11:50:56.000Z</time>
      </trkpt>
      <trkpt lat="59.0838289261" lon="30.003554821">
        <time>2026-04-22T11:50:58.000Z</time>
      </trkpt>
      <trkpt lat="59.0838074684" lon="30.0035119057">
        <time>2026-04-22T11:51:01.000Z</time>
      </trkpt>
      <trkpt lat="59.0837860107" lon="30.0034689903">
        <time>2026-04-22T11:51:03.000Z</time>
      </trkpt>
      <trkpt lat="59.0837645531" lon="30.0034689903">
        <time>2026-04-22T11:51:06.000Z</time>
      </trkpt>
      <trkpt lat="59.0837430954" lon="30.0034475327">
        <time>2026-04-22T11:51:08.000Z</time>
      </trkpt>
      <trkpt lat="59.0837430954" lon="30.003361702">
        <time>2026-04-22T11:51:11.000Z</time>
      </trkpt>
      <trkpt lat="59.0837430954" lon="30.0032758713">
        <time>2026-04-22T11:51:13.000Z</time>
      </trkpt>
      <trkpt lat="59.0837430954" lon="30.0031900406">
        <time>2026-04-22T11:51:16.000Z</time>
      </trkpt>
      <trkpt lat="59.0837430954" lon="30.0031256676">
        <time>2026-04-22T11:51:18.000Z</time>
      </trkpt>
      <trkpt lat="59.0837001801" lon="30.0030398369">
        <time>2026-04-22T11:51:21.000Z</time>
      </trkpt>
      <trkpt lat="59.0837001801" lon="30.0029540062">
        <time>2026-04-22T11:51:23.000Z</time>
      </trkpt>
      <trkpt lat="59.0837001801" lon="30.0029325485">
        <time>2026-04-22T11:51:26.000Z</time>
      </trkpt>
      <trkpt lat="59.0837430954" lon="30.0028896332">
        <time>2026-04-22T11:51:28.000Z</time>
      </trkpt>
      <trkpt lat="59.0837001801" lon="30.0028681755">
        <time>2026-04-22T11:51:31.000Z</time>
      </trkpt>
      <trkpt lat="59.0836787224" lon="30.0028896332">
        <time>2026-04-22T11:51:33.000Z</time>
      </trkpt>
      <trkpt lat="59.083635807" lon="30.0028896332">
        <time>2026-04-22T11:51:36.000Z</time>
      </trkpt>
      <trkpt lat="59.0836143494" lon="30.0028896332">
        <time>2026-04-22T11:51:38.000Z</time>
      </trkpt>
      <trkpt lat="59.083635807" lon="30.0028038025">
        <time>2026-04-22T11:51:41.000Z</time>
      </trkpt>
      <trkpt lat="59.0835928917" lon="30.0027823448">
        <time>2026-04-22T11:51:43.000Z</time>
      </trkpt>
      <trkpt lat="59.083571434" lon="30.0027179718">
        <time>2026-04-22T11:51:46.000Z</time>
      </trkpt>
      <trkpt lat="59.0835499763" lon="30.0027179718">
        <time>2026-04-22T11:51:48.000Z</time>
      </trkpt>
      <trkpt lat="59.0835499763" lon="30.0027179718">
        <time>2026-04-22T11:51:51.000Z</time>
      </trkpt>
      <trkpt lat="59.0835499763" lon="30.0027179718">
        <time>2026-04-22T11:51:53.000Z</time>
      </trkpt>
      <trkpt lat="59.0835499763" lon="30.0027179718">
        <time>2026-04-22T11:51:56.000Z</time>
      </trkpt>
      <trkpt lat="59.0835499763" lon="30.0027179718">
        <time>2026-04-22T11:51:58.000Z</time>
      </trkpt>
      <trkpt lat="59.0835499763" lon="30.0027179718">
        <time>2026-04-22T11:52:01.000Z</time>
      </trkpt>
      <trkpt lat="59.0835499763" lon="30.0027179718">
        <time>2026-04-22T11:52:03.000Z</time>
      </trkpt>
      <trkpt lat="59.0835499763" lon="30.0027179718">
        <time>2026-04-22T11:52:06.000Z</time>
      </trkpt>
      <trkpt lat="59.0835499763" lon="30.0027179718">
        <time>2026-04-22T11:52:08.000Z</time>
      </trkpt>
      <trkpt lat="59.0835499763" lon="30.0027179718">
        <time>2026-04-22T11:52:11.000Z</time>
      </trkpt>
      <trkpt lat="59.0835499763" lon="30.0027179718">
        <time>2026-04-22T11:52:13.000Z</time>
      </trkpt>
      <trkpt lat="59.0835499763" lon="30.0027179718">
        <time>2026-04-22T11:52:16.000Z</time>
      </trkpt>
      <trkpt lat="59.0835499763" lon="30.0027179718">
        <time>2026-04-22T11:52:18.000Z</time>
      </trkpt>
      <trkpt lat="59.0835499763" lon="30.0027179718">
        <time>2026-04-22T11:52:21.000Z</time>
      </trkpt>
      <trkpt lat="59.0835499763" lon="30.0027179718">
        <time>2026-04-22T11:52:23.000Z</time>
      </trkpt>
      <trkpt lat="59.0835499763" lon="30.0027179718">
        <time>2026-04-22T11:52:26.000Z</time>
      </trkpt>
      <trkpt lat="59.0835499763" lon="30.0027179718">
        <time>2026-04-22T11:52:28.000Z</time>
      </trkpt>
      <trkpt lat="59.0835499763" lon="30.0027179718">
        <time>2026-04-22T11:52:31.000Z</time>
      </trkpt>
      <trkpt lat="59.0835499763" lon="30.0027179718">
        <time>2026-04-22T11:52:33.000Z</time>
      </trkpt>
      <trkpt lat="59.0835499763" lon="30.0027179718">
        <time>2026-04-22T11:52:36.000Z</time>
      </trkpt>
      <trkpt lat="59.0835499763" lon="30.0027179718">
        <time>2026-04-22T11:52:38.000Z</time>
      </trkpt>
      <trkpt lat="59.0835499763" lon="30.0027179718">
        <time>2026-04-22T11:52:41.000Z</time>
      </trkpt>
      <trkpt lat="59.0835499763" lon="30.0027179718">
        <time>2026-04-22T11:52:43.000Z</time>
      </trkpt>
      <trkpt lat="59.0835285187" lon="30.0026750565">
        <time>2026-04-22T11:52:46.000Z</time>
      </trkpt>
      <trkpt lat="59.0835285187" lon="30.0026750565">
        <time>2026-04-22T11:52:48.000Z</time>
      </trkpt>
      <trkpt lat="59.0835285187" lon="30.0026750565">
        <time>2026-04-22T11:52:51.000Z</time>
      </trkpt>
      <trkpt lat="59.0834856033" lon="30.0026965141">
        <time>2026-04-22T11:52:53.000Z</time>
      </trkpt>
      <trkpt lat="59.0834641457" lon="30.0026750565">
        <time>2026-04-22T11:52:56.000Z</time>
      </trkpt>
      <trkpt lat="59.083442688" lon="30.0026965141">
        <time>2026-04-22T11:52:58.000Z</time>
      </trkpt>
      <trkpt lat="59.083442688" lon="30.0026965141">
        <time>2026-04-22T11:53:01.000Z</time>
      </trkpt>
      <trkpt lat="59.083442688" lon="30.0027179718">
        <time>2026-04-22T11:53:03.000Z</time>
      </trkpt>
      <trkpt lat="59.0834212303" lon="30.0027823448">
        <time>2026-04-22T11:53:06.000Z</time>
      </trkpt>
      <trkpt lat="59.0833997726" lon="30.0027823448">
        <time>2026-04-22T11:53:08.000Z</time>
      </trkpt>
      <trkpt lat="59.0833568573" lon="30.0027608871">
        <time>2026-04-22T11:53:11.000Z</time>
      </trkpt>
      <trkpt lat="59.0833568573" lon="30.0027608871">
        <time>2026-04-22T11:53:13.000Z</time>
      </trkpt>
      <trkpt lat="59.0833353996" lon="30.0027608871">
        <time>2026-04-22T11:53:16.000Z</time>
      </trkpt>
      <trkpt lat="59.0833353996" lon="30.0027179718">
        <time>2026-04-22T11:53:18.000Z</time>
      </trkpt>
      <trkpt lat="59.0832924843" lon="30.0026965141">
        <time>2026-04-22T11:53:21.000Z</time>
      </trkpt>
      <trkpt lat="59.0832710266" lon="30.0026535988">
        <time>2026-04-22T11:53:23.000Z</time>
      </trkpt>
      <trkpt lat="59.0832710266" lon="30.0026750565">
        <time>2026-04-22T11:53:26.000Z</time>
      </trkpt>
      <trkpt lat="59.0832710266" lon="30.0027608871">
        <time>2026-04-22T11:53:28.000Z</time>
      </trkpt>
      <trkpt lat="59.0832710266" lon="30.0028252602">
        <time>2026-04-22T11:53:31.000Z</time>
      </trkpt>
      <trkpt lat="59.0832281113" lon="30.0028038025">
        <time>2026-04-22T11:53:33.000Z</time>
      </trkpt>
      <trkpt lat="59.0832066536" lon="30.0028252602">
        <time>2026-04-22T11:53:36.000Z</time>
      </trkpt>
      <trkpt lat="59.0832066536" lon="30.0028467178">
        <time>2026-04-22T11:53:38.000Z</time>
      </trkpt>
      <trkpt lat="59.0831851959" lon="30.0028252602">
        <time>2026-04-22T11:53:41.000Z</time>
      </trkpt>
      <trkpt lat="59.0831637383" lon="30.0028252602">
        <time>2026-04-22T11:53:43.000Z</time>
      </trkpt>
      <trkpt lat="59.0831422806" lon="30.0028467178">
        <time>2026-04-22T11:53:46.000Z</time>
      </trkpt>
      <trkpt lat="59.0831208229" lon="30.0028038025">
        <time>2026-04-22T11:53:48.000Z</time>
      </trkpt>
      <trkpt lat="59.0830993652" lon="30.0027608871">
        <time>2026-04-22T11:53:51.000Z</time>
      </trkpt>
      <trkpt lat="59.0830779076" lon="30.0027179718">
        <time>2026-04-22T11:53:53.000Z</time>
      </trkpt>
      <trkpt lat="59.0830564499" lon="30.0027179718">
        <time>2026-04-22T11:53:56.000Z</time>
      </trkpt>
      <trkpt lat="59.0830349922" lon="30.0027823448">
        <time>2026-04-22T11:53:58.000Z</time>
      </trkpt>
      <trkpt lat="59.0830349922" lon="30.0028038025">
        <time>2026-04-22T11:54:01.000Z</time>
      </trkpt>
      <trkpt lat="59.0830349922" lon="30.0028896332">
        <time>2026-04-22T11:54:03.000Z</time>
      </trkpt>
      <trkpt lat="59.0829920769" lon="30.0029540062">
        <time>2026-04-22T11:54:06.000Z</time>
      </trkpt>
      <trkpt lat="59.0829706192" lon="30.0029969215">
        <time>2026-04-22T11:54:08.000Z</time>
      </trkpt>
      <trkpt lat="59.0829277039" lon="30.0030398369">
        <time>2026-04-22T11:54:11.000Z</time>
      </trkpt>
      <trkpt lat="59.0829062462" lon="30.0030827522">
        <time>2026-04-22T11:54:13.000Z</time>
      </trkpt>
      <trkpt lat="59.0828633308" lon="30.0030612946">
        <time>2026-04-22T11:54:16.000Z</time>
      </trkpt>
      <trkpt lat="59.0828847885" lon="30.0030398369">
        <time>2026-04-22T11:54:18.000Z</time>
      </trkpt>
      <trkpt lat="59.0828847885" lon="30.0030183792">
        <time>2026-04-22T11:54:21.000Z</time>
      </trkpt>
      <trkpt lat="59.0828633308" lon="30.0029969215">
        <time>2026-04-22T11:54:23.000Z</time>
      </trkpt>
      <trkpt lat="59.0828204155" lon="30.0029540062">
        <time>2026-04-22T11:54:26.000Z</time>
      </trkpt>
      <trkpt lat="59.0828204155" lon="30.0029110909">
        <time>2026-04-22T11:54:28.000Z</time>
      </trkpt>
      <trkpt lat="59.0827989578" lon="30.0028467178">
        <time>2026-04-22T11:54:31.000Z</time>
      </trkpt>
      <trkpt lat="59.0828418732" lon="30.0027608871">
        <time>2026-04-22T11:54:33.000Z</time>
      </trkpt>
      <trkpt lat="59.0828633308" lon="30.0026965141">
        <time>2026-04-22T11:54:36.000Z</time>
      </trkpt>
      <trkpt lat="59.0828847885" lon="30.0026535988">
        <time>2026-04-22T11:54:38.000Z</time>
      </trkpt>
      <trkpt lat="59.0829062462" lon="30.0025677681">
        <time>2026-04-22T11:54:41.000Z</time>
      </trkpt>
      <trkpt lat="59.0829062462" lon="30.0025248528">
        <time>2026-04-22T11:54:43.000Z</time>
      </trkpt>
      <trkpt lat="59.0829062462" lon="30.0024819374">
        <time>2026-04-22T11:54:46.000Z</time>
      </trkpt>
      <trkpt lat="59.0829062462" lon="30.0024390221">
        <time>2026-04-22T11:54:48.000Z</time>
      </trkpt>
      <trkpt lat="59.0828633308" lon="30.0023961067">
        <time>2026-04-22T11:54:51.000Z</time>
      </trkpt>
      <trkpt lat="59.0828633308" lon="30.0023531914">
        <time>2026-04-22T11:54:53.000Z</time>
      </trkpt>
      <trkpt lat="59.0828633308" lon="30.0023317337">
        <time>2026-04-22T11:54:56.000Z</time>
      </trkpt>
      <trkpt lat="59.0828418732" lon="30.0023317337">
        <time>2026-04-22T11:54:58.000Z</time>
      </trkpt>
      <trkpt lat="59.0828204155" lon="30.0022888184">
        <time>2026-04-22T11:55:01.000Z</time>
      </trkpt>
      <trkpt lat="59.0827989578" lon="30.002245903">
        <time>2026-04-22T11:55:03.000Z</time>
      </trkpt>
      <trkpt lat="59.0827775002" lon="30.00218153">
        <time>2026-04-22T11:55:06.000Z</time>
      </trkpt>
      <trkpt lat="59.0827775002" lon="30.00218153">
        <time>2026-04-22T11:55:08.000Z</time>
      </trkpt>
      <trkpt lat="59.0827989578" lon="30.00218153">
        <time>2026-04-22T11:55:11.000Z</time>
      </trkpt>
      <trkpt lat="59.0828204155" lon="30.0021600723">
        <time>2026-04-22T11:55:13.000Z</time>
      </trkpt>
      <trkpt lat="59.0827989578" lon="30.0021386147">
        <time>2026-04-22T11:55:16.000Z</time>
      </trkpt>
      <trkpt lat="59.0827989578" lon="30.0020956993">
        <time>2026-04-22T11:55:18.000Z</time>
      </trkpt>
      <trkpt lat="59.0827775002" lon="30.002052784">
        <time>2026-04-22T11:55:21.000Z</time>
      </trkpt>
      <trkpt lat="59.0827775002" lon="30.0020098686">
        <time>2026-04-22T11:55:23.000Z</time>
      </trkpt>
      <trkpt lat="59.0827989578" lon="30.0019454956">
        <time>2026-04-22T11:55:26.000Z</time>
      </trkpt>
      <trkpt lat="59.0827775002" lon="30.0018811226">
        <time>2026-04-22T11:55:28.000Z</time>
      </trkpt>
      <trkpt lat="59.0827775002" lon="30.0018596649">
        <time>2026-04-22T11:55:31.000Z</time>
      </trkpt>
      <trkpt lat="59.0827989578" lon="30.0017952919">
        <time>2026-04-22T11:55:33.000Z</time>
      </trkpt>
      <trkpt lat="59.0827989578" lon="30.0018167496">
        <time>2026-04-22T11:55:36.000Z</time>
      </trkpt>
      <trkpt lat="59.0827775002" lon="30.0017952919">
        <time>2026-04-22T11:55:38.000Z</time>
      </trkpt>
      <trkpt lat="59.0827775002" lon="30.0017309189">
        <time>2026-04-22T11:55:41.000Z</time>
      </trkpt>
      <trkpt lat="59.0827775002" lon="30.0017094612">
        <time>2026-04-22T11:55:43.000Z</time>
      </trkpt>
      <trkpt lat="59.0827560425" lon="30.0017738342">
        <time>2026-04-22T11:55:46.000Z</time>
      </trkpt>
      <trkpt lat="59.0827989578" lon="30.0017738342">
        <time>2026-04-22T11:55:48.000Z</time>
      </trkpt>
      <trkpt lat="59.0828418732" lon="30.0017952919">
        <time>2026-04-22T11:55:51.000Z</time>
      </trkpt>
      <trkpt lat="59.0828633308" lon="30.0017952919">
        <time>2026-04-22T11:55:53.000Z</time>
      </trkpt>
      <trkpt lat="59.0828847885" lon="30.0017738342">
        <time>2026-04-22T11:55:56.000Z</time>
      </trkpt>
      <trkpt lat="59.0829062462" lon="30.0017738342">
        <time>2026-04-22T11:55:58.000Z</time>
      </trkpt>
      <trkpt lat="59.0829491615" lon="30.0017094612">
        <time>2026-04-22T11:56:01.000Z</time>
      </trkpt>
      <trkpt lat="59.0829920769" lon="30.0016665459">
        <time>2026-04-22T11:56:03.000Z</time>
      </trkpt>
      <trkpt lat="59.0829920769" lon="30.0016450882">
        <time>2026-04-22T11:56:06.000Z</time>
      </trkpt>
      <trkpt lat="59.0830135345" lon="30.0016236305">
        <time>2026-04-22T11:56:08.000Z</time>
      </trkpt>
      <trkpt lat="59.0830349922" lon="30.0016450882">
        <time>2026-04-22T11:56:11.000Z</time>
      </trkpt>
      <trkpt lat="59.0830564499" lon="30.0016450882">
        <time>2026-04-22T11:56:13.000Z</time>
      </trkpt>
      <trkpt lat="59.0830779076" lon="30.0016236305">
        <time>2026-04-22T11:56:16.000Z</time>
      </trkpt>
      <trkpt lat="59.0830779076" lon="30.0016021729">
        <time>2026-04-22T11:56:18.000Z</time>
      </trkpt>
      <trkpt lat="59.0831208229" lon="30.0015592575">
        <time>2026-04-22T11:56:21.000Z</time>
      </trkpt>
      <trkpt lat="59.0831637383" lon="30.0015163422">
        <time>2026-04-22T11:56:23.000Z</time>
      </trkpt>
      <trkpt lat="59.0831637383" lon="30.0015163422">
        <time>2026-04-22T11:56:26.000Z</time>
      </trkpt>
      <trkpt lat="59.0831637383" lon="30.0015163422">
        <time>2026-04-22T11:56:28.000Z</time>
      </trkpt>
      <trkpt lat="59.0832066536" lon="30.0015163422">
        <time>2026-04-22T11:56:31.000Z</time>
      </trkpt>
      <trkpt lat="59.0832495689" lon="30.0014519691">
        <time>2026-04-22T11:56:33.000Z</time>
      </trkpt>
      <trkpt lat="59.0832710266" lon="30.0014305115">
        <time>2026-04-22T11:56:36.000Z</time>
      </trkpt>
      <trkpt lat="59.0832924843" lon="30.0014519691">
        <time>2026-04-22T11:56:38.000Z</time>
      </trkpt>
      <trkpt lat="59.0832924843" lon="30.0015377998">
        <time>2026-04-22T11:56:41.000Z</time>
      </trkpt>
      <trkpt lat="59.0833353996" lon="30.0015592575">
        <time>2026-04-22T11:56:43.000Z</time>
      </trkpt>
      <trkpt lat="59.083378315" lon="30.0015377998">
        <time>2026-04-22T11:56:46.000Z</time>
      </trkpt>
      <trkpt lat="59.0833997726" lon="30.0015807152">
        <time>2026-04-22T11:56:48.000Z</time>
      </trkpt>
      <trkpt lat="59.0833997726" lon="30.0015592575">
        <time>2026-04-22T11:56:51.000Z</time>
      </trkpt>
      <trkpt lat="59.0833997726" lon="30.0015377998">
        <time>2026-04-22T11:56:53.000Z</time>
      </trkpt>
      <trkpt lat="59.0833997726" lon="30.0015377998">
        <time>2026-04-22T11:56:56.000Z</time>
      </trkpt>
      <trkpt lat="59.0833997726" lon="30.0015377998">
        <time>2026-04-22T11:56:58.000Z</time>
      </trkpt>
      <trkpt lat="59.0834212303" lon="30.0015163422">
        <time>2026-04-22T11:57:01.000Z</time>
      </trkpt>
      <trkpt lat="59.083442688" lon="30.0014948845">
        <time>2026-04-22T11:57:03.000Z</time>
      </trkpt>
      <trkpt lat="59.0834856033" lon="30.0015163422">
        <time>2026-04-22T11:57:06.000Z</time>
      </trkpt>
      <trkpt lat="59.083507061" lon="30.0015377998">
        <time>2026-04-22T11:57:08.000Z</time>
      </trkpt>
      <trkpt lat="59.0835285187" lon="30.0014948845">
        <time>2026-04-22T11:57:11.000Z</time>
      </trkpt>
      <trkpt lat="59.083507061" lon="30.0014519691">
        <time>2026-04-22T11:57:13.000Z</time>
      </trkpt>
      <trkpt lat="59.0834641457" lon="30.0014090538">
        <time>2026-04-22T11:57:16.000Z</time>
      </trkpt>
      <trkpt lat="59.083442688" lon="30.0013232231">
        <time>2026-04-22T11:57:18.000Z</time>
      </trkpt>
      <trkpt lat="59.0834212303" lon="30.0012373924">
        <time>2026-04-22T11:57:21.000Z</time>
      </trkpt>
      <trkpt lat="59.0834212303" lon="30.0011515617">
        <time>2026-04-22T11:57:23.000Z</time>
      </trkpt>
      <trkpt lat="59.0834212303" lon="30.0011301041">
        <time>2026-04-22T11:57:26.000Z</time>
      </trkpt>
      <trkpt lat="59.0834212303" lon="30.0011301041">
        <time>2026-04-22T11:57:28.000Z</time>
      </trkpt>
      <trkpt lat="59.0834212303" lon="30.0010871887">
        <time>2026-04-22T11:57:31.000Z</time>
      </trkpt>
      <trkpt lat="59.083442688" lon="30.0010442734">
        <time>2026-04-22T11:57:33.000Z</time>
      </trkpt>
      <trkpt lat="59.0834641457" lon="30.001001358">
        <time>2026-04-22T11:57:36.000Z</time>
      </trkpt>
      <trkpt lat="59.0834641457" lon="30.000936985">
        <time>2026-04-22T11:57:38.000Z</time>
      </trkpt>
      <trkpt lat="59.0834641457" lon="30.0009155273">
        <time>2026-04-22T11:57:41.000Z</time>
      </trkpt>
      <trkpt lat="59.0834641457" lon="30.000872612">
        <time>2026-04-22T11:57:43.000Z</time>
      </trkpt>
      <trkpt lat="59.0834641457" lon="30.000808239">
        <time>2026-04-22T11:57:46.000Z</time>
      </trkpt>
      <trkpt lat="59.0834856033" lon="30.0007867813">
        <time>2026-04-22T11:57:48.000Z</time>
      </trkpt>
      <trkpt lat="59.0834641457" lon="30.0007653236">
        <time>2026-04-22T11:57:51.000Z</time>
      </trkpt>
      <trkpt lat="59.0834641457" lon="30.000743866">
        <time>2026-04-22T11:57:53.000Z</time>
      </trkpt>
      <trkpt lat="59.0834641457" lon="30.000679493">
        <time>2026-04-22T11:57:56.000Z</time>
      </trkpt>
      <trkpt lat="59.0834212303" lon="30.0006365776">
        <time>2026-04-22T11:57:58.000Z</time>
      </trkpt>
      <trkpt lat="59.0833997726" lon="30.0005507469">
        <time>2026-04-22T11:58:01.000Z</time>
      </trkpt>
      <trkpt lat="59.0834212303" lon="30.0004863739">
        <time>2026-04-22T11:58:03.000Z</time>
      </trkpt>
      <trkpt lat="59.0834212303" lon="30.0005078316">
        <time>2026-04-22T11:58:06.000Z</time>
      </trkpt>
      <trkpt lat="59.0833997726" lon="30.0004863739">
        <time>2026-04-22T11:58:08.000Z</time>
      </trkpt>
      <trkpt lat="59.0833997726" lon="30.0004649162">
        <time>2026-04-22T11:58:11.000Z</time>
      </trkpt>
      <trkpt lat="59.0834212303" lon="30.0004220009">
        <time>2026-04-22T11:58:13.000Z</time>
      </trkpt>
      <trkpt lat="59.0834212303" lon="30.0003147125">
        <time>2026-04-22T11:58:16.000Z</time>
      </trkpt>
      <trkpt lat="59.0834212303" lon="30.0002503395">
        <time>2026-04-22T11:58:18.000Z</time>
      </trkpt>
      <trkpt lat="59.083442688" lon="30.0002074242">
        <time>2026-04-22T11:58:21.000Z</time>
      </trkpt>
      <trkpt lat="59.083442688" lon="30.0001859665">
        <time>2026-04-22T11:58:23.000Z</time>
      </trkpt>
      <trkpt lat="59.083442688" lon="30.0001859665">
        <time>2026-04-22T11:58:26.000Z</time>
      </trkpt>
      <trkpt lat="59.083442688" lon="30.0001859665">
        <time>2026-04-22T11:58:28.000Z</time>
      </trkpt>
      <trkpt lat="59.083442688" lon="30.0001859665">
        <time>2026-04-22T11:58:31.000Z</time>
      </trkpt>
      <trkpt lat="59.083442688" lon="30.0001859665">
        <time>2026-04-22T11:58:33.000Z</time>
      </trkpt>
      <trkpt lat="59.083442688" lon="30.0001859665">
        <time>2026-04-22T11:58:36.000Z</time>
      </trkpt>
      <trkpt lat="59.083442688" lon="30.0001859665">
        <time>2026-04-22T11:58:38.000Z</time>
      </trkpt>
      <trkpt lat="59.083442688" lon="30.0001859665">
        <time>2026-04-22T11:58:41.000Z</time>
      </trkpt>
      <trkpt lat="59.083442688" lon="30.0001859665">
        <time>2026-04-22T11:58:43.000Z</time>
      </trkpt>
      <trkpt lat="59.083442688" lon="30.0001859665">
        <time>2026-04-22T11:58:46.000Z</time>
      </trkpt>
      <trkpt lat="59.083442688" lon="30.0001859665">
        <time>2026-04-22T11:58:48.000Z</time>
      </trkpt>
      <trkpt lat="59.0834212303" lon="30.0001859665">
        <time>2026-04-22T11:58:51.000Z</time>
      </trkpt>
      <trkpt lat="59.0834212303" lon="30.0002074242">
        <time>2026-04-22T11:58:53.000Z</time>
      </trkpt>
      <trkpt lat="59.0834212303" lon="30.0002288818">
        <time>2026-04-22T11:58:56.000Z</time>
      </trkpt>
      <trkpt lat="59.0834212303" lon="30.0002503395">
        <time>2026-04-22T11:58:58.000Z</time>
      </trkpt>
      <trkpt lat="59.0834212303" lon="30.0002503395">
        <time>2026-04-22T11:59:01.000Z</time>
      </trkpt>
      <trkpt lat="59.083378315" lon="30.0002288818">
        <time>2026-04-22T11:59:03.000Z</time>
      </trkpt>
      <trkpt lat="59.0833568573" lon="30.0002288818">
        <time>2026-04-22T11:59:06.000Z</time>
      </trkpt>
      <trkpt lat="59.0833353996" lon="30.0002288818">
        <time>2026-04-22T11:59:08.000Z</time>
      </trkpt>
      <trkpt lat="59.0832924843" lon="30.0002503395">
        <time>2026-04-22T11:59:11.000Z</time>
      </trkpt>
      <trkpt lat="59.0832924843" lon="30.0002717972">
        <time>2026-04-22T11:59:13.000Z</time>
      </trkpt>
      <trkpt lat="59.0832495689" lon="30.0002288818">
        <time>2026-04-22T11:59:16.000Z</time>
      </trkpt>
      <trkpt lat="59.0832066536" lon="30.0002288818">
        <time>2026-04-22T11:59:18.000Z</time>
      </trkpt>
      <trkpt lat="59.0831637383" lon="30.0002503395">
        <time>2026-04-22T11:59:21.000Z</time>
      </trkpt>
      <trkpt lat="59.0831637383" lon="30.0002717972">
        <time>2026-04-22T11:59:23.000Z</time>
      </trkpt>
      <trkpt lat="59.0831422806" lon="30.0002717972">
        <time>2026-04-22T11:59:26.000Z</time>
      </trkpt>
      <trkpt lat="59.0831208229" lon="30.0003361702">
        <time>2026-04-22T11:59:28.000Z</time>
      </trkpt>
      <trkpt lat="59.0830993652" lon="30.0003361702">
        <time>2026-04-22T11:59:31.000Z</time>
      </trkpt>
      <trkpt lat="59.0830779076" lon="30.0003576279">
        <time>2026-04-22T11:59:33.000Z</time>
      </trkpt>
      <trkpt lat="59.0830779076" lon="30.0004005432">
        <time>2026-04-22T11:59:36.000Z</time>
      </trkpt>
      <trkpt lat="59.0830779076" lon="30.0004434586">
        <time>2026-04-22T11:59:38.000Z</time>
      </trkpt>
      <trkpt lat="59.0830779076" lon="30.0004649162">
        <time>2026-04-22T11:59:41.000Z</time>
      </trkpt>
      <trkpt lat="59.0830349922" lon="30.0004649162">
        <time>2026-04-22T11:59:43.000Z</time>
      </trkpt>
      <trkpt lat="59.0829920769" lon="30.0004434586">
        <time>2026-04-22T11:59:46.000Z</time>
      </trkpt>
      <trkpt lat="59.0829706192" lon="30.0004863739">
        <time>2026-04-22T11:59:48.000Z</time>
      </trkpt>
      <trkpt lat="59.0829062462" lon="30.0005292892">
        <time>2026-04-22T11:59:51.000Z</time>
      </trkpt>
      <trkpt lat="59.0828847885" lon="30.0005078316">
        <time>2026-04-22T11:59:53.000Z</time>
      </trkpt>
      <trkpt lat="59.0828847885" lon="30.0005078316">
        <time>2026-04-22T11:59:56.000Z</time>
      </trkpt>
      <trkpt lat="59.0828847885" lon="30.0005507469">
        <time>2026-04-22T11:59:58.000Z</time>
      </trkpt>
      <trkpt lat="59.0828633308" lon="30.0005936623">
        <time>2026-04-22T12:00:01.000Z</time>
      </trkpt>
      <trkpt lat="59.0828418732" lon="30.0006365776">
        <time>2026-04-22T12:00:03.000Z</time>
      </trkpt>
      <trkpt lat="59.0828204155" lon="30.0005936623">
        <time>2026-04-22T12:00:06.000Z</time>
      </trkpt>
      <trkpt lat="59.0828204155" lon="30.0005507469">
        <time>2026-04-22T12:00:08.000Z</time>
      </trkpt>
      <trkpt lat="59.0827989578" lon="30.0005292892">
        <time>2026-04-22T12:00:11.000Z</time>
      </trkpt>
      <trkpt lat="59.0827775002" lon="30.0005078316">
        <time>2026-04-22T12:00:13.000Z</time>
      </trkpt>
      <trkpt lat="59.0827560425" lon="30.0004434586">
        <time>2026-04-22T12:00:16.000Z</time>
      </trkpt>
      <trkpt lat="59.0827345848" lon="30.0003790855">
        <time>2026-04-22T12:00:18.000Z</time>
      </trkpt>
      <trkpt lat="59.0826916695" lon="30.0004005432">
        <time>2026-04-22T12:00:21.000Z</time>
      </trkpt>
      <trkpt lat="59.0826702118" lon="30.0004220009">
        <time>2026-04-22T12:00:23.000Z</time>
      </trkpt>
      <trkpt lat="59.0826058388" lon="30.0004649162">
        <time>2026-04-22T12:00:26.000Z</time>
      </trkpt>
      <trkpt lat="59.0825843811" lon="30.0005078316">
        <time>2026-04-22T12:00:28.000Z</time>
      </trkpt>
      <trkpt lat="59.0825414658" lon="30.0005936623">
        <time>2026-04-22T12:00:31.000Z</time>
      </trkpt>
      <trkpt lat="59.0825414658" lon="30.0005722046">
        <time>2026-04-22T12:00:33.000Z</time>
      </trkpt>
      <trkpt lat="59.0825200081" lon="30.0004863739">
        <time>2026-04-22T12:00:36.000Z</time>
      </trkpt>
      <trkpt lat="59.0825200081" lon="30.0003790855">
        <time>2026-04-22T12:00:38.000Z</time>
      </trkpt>
      <trkpt lat="59.0824985504" lon="30.0003576279">
        <time>2026-04-22T12:00:41.000Z</time>
      </trkpt>
      <trkpt lat="59.0824770927" lon="30.0003576279">
        <time>2026-04-22T12:00:43.000Z</time>
      </trkpt>
      <trkpt lat="59.0824770927" lon="30.0003576279">
        <time>2026-04-22T12:00:46.000Z</time>
      </trkpt>
      <trkpt lat="59.0824985504" lon="30.0003361702">
        <time>2026-04-22T12:00:48.000Z</time>
      </trkpt>
      <trkpt lat="59.0825200081" lon="30.0002503395">
        <time>2026-04-22T12:00:51.000Z</time>
      </trkpt>
      <trkpt lat="59.0825414658" lon="30.0002074242">
        <time>2026-04-22T12:00:53.000Z</time>
      </trkpt>
      <trkpt lat="59.0825414658" lon="30.0001215935">
        <time>2026-04-22T12:00:56.000Z</time>
      </trkpt>
      <trkpt lat="59.0825414658" lon="30.0000357628">
        <time>2026-04-22T12:00:58.000Z</time>
      </trkpt>
      <trkpt lat="59.0825200081" lon="29.9999284744">
        <time>2026-04-22T12:01:01.000Z</time>
      </trkpt>
      <trkpt lat="59.0824985504" lon="29.9999284744">
        <time>2026-04-22T12:01:03.000Z</time>
      </trkpt>
      <trkpt lat="59.0824770927" lon="29.9999070168">
        <time>2026-04-22T12:01:06.000Z</time>
      </trkpt>
      <trkpt lat="59.0824770927" lon="29.9998855591">
        <time>2026-04-22T12:01:08.000Z</time>
      </trkpt>
      <trkpt lat="59.0824770927" lon="29.9998426437">
        <time>2026-04-22T12:01:11.000Z</time>
      </trkpt>
      <trkpt lat="59.0824985504" lon="29.999756813">
        <time>2026-04-22T12:01:13.000Z</time>
      </trkpt>
      <trkpt lat="59.0824770927" lon="29.9996709824">
        <time>2026-04-22T12:01:16.000Z</time>
      </trkpt>
      <trkpt lat="59.0824341774" lon="29.9996495247">
        <time>2026-04-22T12:01:18.000Z</time>
      </trkpt>
      <trkpt lat="59.0824341774" lon="29.9996066093">
        <time>2026-04-22T12:01:21.000Z</time>
      </trkpt>
      <trkpt lat="59.0824341774" lon="29.999499321">
        <time>2026-04-22T12:01:23.000Z</time>
      </trkpt>
      <trkpt lat="59.0824127197" lon="29.9994778633">
        <time>2026-04-22T12:01:26.000Z</time>
      </trkpt>
      <trkpt lat="59.0824341774" lon="29.9994778633">
        <time>2026-04-22T12:01:28.000Z</time>
      </trkpt>
      <trkpt lat="59.0823912621" lon="29.9994564056">
        <time>2026-04-22T12:01:31.000Z</time>
      </trkpt>
      <trkpt lat="59.0824127197" lon="29.9993920326">
        <time>2026-04-22T12:01:33.000Z</time>
      </trkpt>
      <trkpt lat="59.0824556351" lon="29.9993062019">
        <time>2026-04-22T12:01:36.000Z</time>
      </trkpt>
      <trkpt lat="59.0824985504" lon="29.9992632866">
        <time>2026-04-22T12:01:38.000Z</time>
      </trkpt>
      <trkpt lat="59.0825414658" lon="29.9993062019">
        <time>2026-04-22T12:01:41.000Z</time>
      </trkpt>
      <trkpt lat="59.0825843811" lon="29.9992847443">
        <time>2026-04-22T12:01:43.000Z</time>
      </trkpt>
      <trkpt lat="59.0825629234" lon="29.9992847443">
        <time>2026-04-22T12:01:46.000Z</time>
      </trkpt>
      <trkpt lat="59.0825843811" lon="29.9992418289">
        <time>2026-04-22T12:01:48.000Z</time>
      </trkpt>
      <trkpt lat="59.0826058388" lon="29.9991774559">
        <time>2026-04-22T12:01:51.000Z</time>
      </trkpt>
      <trkpt lat="59.0826058388" lon="29.9991774559">
        <time>2026-04-22T12:01:53.000Z</time>
      </trkpt>
      <trkpt lat="59.0826487541" lon="29.9991559982">
        <time>2026-04-22T12:01:56.000Z</time>
      </trkpt>
      <trkpt lat="59.0826916695" lon="29.9990916252">
        <time>2026-04-22T12:01:58.000Z</time>
      </trkpt>
      <trkpt lat="59.0827345848" lon="29.9991345406">
        <time>2026-04-22T12:02:01.000Z</time>
      </trkpt>
      <trkpt lat="59.0827560425" lon="29.9991559982">
        <time>2026-04-22T12:02:03.000Z</time>
      </trkpt>
      <trkpt lat="59.0827560425" lon="29.9991774559">
        <time>2026-04-22T12:02:06.000Z</time>
      </trkpt>
      <trkpt lat="59.0827989578" lon="29.9991774559">
        <time>2026-04-22T12:02:08.000Z</time>
      </trkpt>
      <trkpt lat="59.0828633308" lon="29.9991130829">
        <time>2026-04-22T12:02:11.000Z</time>
      </trkpt>
      <trkpt lat="59.0828847885" lon="29.9990701675">
        <time>2026-04-22T12:02:13.000Z</time>
      </trkpt>
      <trkpt lat="59.0829062462" lon="29.9990272522">
        <time>2026-04-22T12:02:16.000Z</time>
      </trkpt>
      <trkpt lat="59.0829062462" lon="29.9990487099">
        <time>2026-04-22T12:02:18.000Z</time>
      </trkpt>
      <trkpt lat="59.0829491615" lon="29.9990487099">
        <time>2026-04-22T12:02:21.000Z</time>
      </trkpt>
      <trkpt lat="59.0829491615" lon="29.9990272522">
        <time>2026-04-22T12:02:23.000Z</time>
      </trkpt>
      <trkpt lat="59.0829277039" lon="29.9990916252">
        <time>2026-04-22T12:02:26.000Z</time>
      </trkpt>
      <trkpt lat="59.0829491615" lon="29.9990916252">
        <time>2026-04-22T12:02:28.000Z</time>
      </trkpt>
      <trkpt lat="59.0829920769" lon="29.9991345406">
        <time>2026-04-22T12:02:31.000Z</time>
      </trkpt>
      <trkpt lat="59.0830349922" lon="29.9991345406">
        <time>2026-04-22T12:02:33.000Z</time>
      </trkpt>
      <trkpt lat="59.0830564499" lon="29.9991130829">
        <time>2026-04-22T12:02:36.000Z</time>
      </trkpt>
      <trkpt lat="59.0830779076" lon="29.9991130829">
        <time>2026-04-22T12:02:38.000Z</time>
      </trkpt>
      <trkpt lat="59.0830993652" lon="29.9990701675">
        <time>2026-04-22T12:02:41.000Z</time>
      </trkpt>
      <trkpt lat="59.0830993652" lon="29.9990916252">
        <time>2026-04-22T12:02:43.000Z</time>
      </trkpt>
      <trkpt lat="59.0830993652" lon="29.9990916252">
        <time>2026-04-22T12:02:46.000Z</time>
      </trkpt>
      <trkpt lat="59.0831208229" lon="29.9990701675">
        <time>2026-04-22T12:02:48.000Z</time>
      </trkpt>
      <trkpt lat="59.0831422806" lon="29.9990272522">
        <time>2026-04-22T12:02:51.000Z</time>
      </trkpt>
      <trkpt lat="59.0831637383" lon="29.9990057945">
        <time>2026-04-22T12:02:53.000Z</time>
      </trkpt>
      <trkpt lat="59.0832066536" lon="29.9989843369">
        <time>2026-04-22T12:02:56.000Z</time>
      </trkpt>
      <trkpt lat="59.0832495689" lon="29.9989414215">
        <time>2026-04-22T12:02:58.000Z</time>
      </trkpt>
      <trkpt lat="59.0832924843" lon="29.9988985062">
        <time>2026-04-22T12:03:01.000Z</time>
      </trkpt>
      <trkpt lat="59.0833353996" lon="29.9988555908">
        <time>2026-04-22T12:03:03.000Z</time>
      </trkpt>
      <trkpt lat="59.0833568573" lon="29.9987697601">
        <time>2026-04-22T12:03:06.000Z</time>
      </trkpt>
      <trkpt lat="59.0833568573" lon="29.9987053871">
        <time>2026-04-22T12:03:08.000Z</time>
      </trkpt>
      <trkpt lat="59.0833997726" lon="29.9986410141">
        <time>2026-04-22T12:03:11.000Z</time>
      </trkpt>
      <trkpt lat="59.0834212303" lon="29.9986624718">
        <time>2026-04-22T12:03:13.000Z</time>
      </trkpt>
      <trkpt lat="59.0834212303" lon="29.9986624718">
        <time>2026-04-22T12:03:16.000Z</time>
      </trkpt>
      <trkpt lat="59.0834212303" lon="29.9986624718">
        <time>2026-04-22T12:03:18.000Z</time>
      </trkpt>
      <trkpt lat="59.083378315" lon="29.9986410141">
        <time>2026-04-22T12:03:21.000Z</time>
      </trkpt>
      <trkpt lat="59.083378315" lon="29.9986624718">
        <time>2026-04-22T12:03:23.000Z</time>
      </trkpt>
      <trkpt lat="59.083378315" lon="29.9986410141">
        <time>2026-04-22T12:03:26.000Z</time>
      </trkpt>
      <trkpt lat="59.083378315" lon="29.9986195564">
        <time>2026-04-22T12:03:28.000Z</time>
      </trkpt>
      <trkpt lat="59.0833353996" lon="29.9985766411">
        <time>2026-04-22T12:03:31.000Z</time>
      </trkpt>
      <trkpt lat="59.0832924843" lon="29.9985551834">
        <time>2026-04-22T12:03:33.000Z</time>
      </trkpt>
      <trkpt lat="59.0832495689" lon="29.9984693527">
        <time>2026-04-22T12:03:36.000Z</time>
      </trkpt>
      <trkpt lat="59.0832281113" lon="29.9983620644">
        <time>2026-04-22T12:03:38.000Z</time>
      </trkpt>
      <trkpt lat="59.0831851959" lon="29.9982762337">
        <time>2026-04-22T12:03:41.000Z</time>
      </trkpt>
      <trkpt lat="59.0831422806" lon="29.998254776">
        <time>2026-04-22T12:03:43.000Z</time>
      </trkpt>
      <trkpt lat="59.0831208229" lon="29.9981689453">
        <time>2026-04-22T12:03:46.000Z</time>
      </trkpt>
      <trkpt lat="59.0831208229" lon="29.998061657">
        <time>2026-04-22T12:03:48.000Z</time>
      </trkpt>
      <trkpt lat="59.0831422806" lon="29.9979972839">
        <time>2026-04-22T12:03:51.000Z</time>
      </trkpt>
      <trkpt lat="59.0831851959" lon="29.9979329109">
        <time>2026-04-22T12:03:53.000Z</time>
      </trkpt>
      <trkpt lat="59.0832066536" lon="29.9979114532">
        <time>2026-04-22T12:03:56.000Z</time>
      </trkpt>
      <trkpt lat="59.0832066536" lon="29.9979114532">
        <time>2026-04-22T12:03:58.000Z</time>
      </trkpt>
      <trkpt lat="59.0831851959" lon="29.9978685379">
        <time>2026-04-22T12:04:01.000Z</time>
      </trkpt>
      <trkpt lat="59.0831637383" lon="29.9978256226">
        <time>2026-04-22T12:04:03.000Z</time>
      </trkpt>
      <trkpt lat="59.0831637383" lon="29.9978041649">
        <time>2026-04-22T12:04:06.000Z</time>
      </trkpt>
      <trkpt lat="59.0831637383" lon="29.9978041649">
        <time>2026-04-22T12:04:08.000Z</time>
      </trkpt>
      <trkpt lat="59.0831637383" lon="29.9978041649">
        <time>2026-04-22T12:04:11.000Z</time>
      </trkpt>
      <trkpt lat="59.0831851959" lon="29.9977612495">
        <time>2026-04-22T12:04:13.000Z</time>
      </trkpt>
      <trkpt lat="59.0831637383" lon="29.9976968765">
        <time>2026-04-22T12:04:16.000Z</time>
      </trkpt>
      <trkpt lat="59.0831637383" lon="29.9976539612">
        <time>2026-04-22T12:04:18.000Z</time>
      </trkpt>
      <trkpt lat="59.0831637383" lon="29.9976539612">
        <time>2026-04-22T12:04:21.000Z</time>
      </trkpt>
      <trkpt lat="59.0831637383" lon="29.9976539612">
        <time>2026-04-22T12:04:23.000Z</time>
      </trkpt>
      <trkpt lat="59.0831637383" lon="29.9976539612">
        <time>2026-04-22T12:04:26.000Z</time>
      </trkpt>
      <trkpt lat="59.0831422806" lon="29.9976539612">
        <time>2026-04-22T12:04:28.000Z</time>
      </trkpt>
      <trkpt lat="59.0830779076" lon="29.9976325035">
        <time>2026-04-22T12:04:31.000Z</time>
      </trkpt>
      <trkpt lat="59.0830564499" lon="29.9975895882">
        <time>2026-04-22T12:04:33.000Z</time>
      </trkpt>
      <trkpt lat="59.0830564499" lon="29.9975895882">
        <time>2026-04-22T12:04:36.000Z</time>
      </trkpt>
      <trkpt lat="59.0830564499" lon="29.9976110458">
        <time>2026-04-22T12:04:38.000Z</time>
      </trkpt>
      <trkpt lat="59.0830349922" lon="29.9976754189">
        <time>2026-04-22T12:04:41.000Z</time>
      </trkpt>
      <trkpt lat="59.0830564499" lon="29.9977397919">
        <time>2026-04-22T12:04:43.000Z</time>
      </trkpt>
      <trkpt lat="59.0830564499" lon="29.9978041649">
        <time>2026-04-22T12:04:46.000Z</time>
      </trkpt>
      <trkpt lat="59.0830564499" lon="29.9978470802">
        <time>2026-04-22T12:04:48.000Z</time>
      </trkpt>
      <trkpt lat="59.0830564499" lon="29.9978899956">
        <time>2026-04-22T12:04:51.000Z</time>
      </trkpt>
      <trkpt lat="59.0830564499" lon="29.9978685379">
        <time>2026-04-22T12:04:53.000Z</time>
      </trkpt>
      <trkpt lat="59.0830779076" lon="29.9978685379">
        <time>2026-04-22T12:04:56.000Z</time>
      </trkpt>
      <trkpt lat="59.0830779076" lon="29.9978470802">
        <time>2026-04-22T12:04:58.000Z</time>
      </trkpt>
      <trkpt lat="59.0830779076" lon="29.9978470802">
        <time>2026-04-22T12:05:01.000Z</time>
      </trkpt>
      <trkpt lat="59.0830993652" lon="29.9978470802">
        <time>2026-04-22T12:05:03.000Z</time>
      </trkpt>
      <trkpt lat="59.0830993652" lon="29.9978470802">
        <time>2026-04-22T12:05:06.000Z</time>
      </trkpt>
      <trkpt lat="59.0830993652" lon="29.9978470802">
        <time>2026-04-22T12:05:08.000Z</time>
      </trkpt>
      <trkpt lat="59.0830993652" lon="29.9978470802">
        <time>2026-04-22T12:05:11.000Z</time>
      </trkpt>
      <trkpt lat="59.0830993652" lon="29.9978470802">
        <time>2026-04-22T12:05:13.000Z</time>
      </trkpt>
      <trkpt lat="59.0830779076" lon="29.9978470802">
        <time>2026-04-22T12:05:16.000Z</time>
      </trkpt>
      <trkpt lat="59.0830779076" lon="29.9978470802">
        <time>2026-04-22T12:05:18.000Z</time>
      </trkpt>
      <trkpt lat="59.0830779076" lon="29.9978470802">
        <time>2026-04-22T12:05:21.000Z</time>
      </trkpt>
      <trkpt lat="59.0830779076" lon="29.9978470802">
        <time>2026-04-22T12:05:23.000Z</time>
      </trkpt>
      <trkpt lat="59.0830779076" lon="29.9978470802">
        <time>2026-04-22T12:05:26.000Z</time>
      </trkpt>
      <trkpt lat="59.0830779076" lon="29.9978470802">
        <time>2026-04-22T12:05:28.000Z</time>
      </trkpt>
      <trkpt lat="59.0830779076" lon="29.9978470802">
        <time>2026-04-22T12:05:31.000Z</time>
      </trkpt>
      <trkpt lat="59.0830779076" lon="29.9978470802">
        <time>2026-04-22T12:05:33.000Z</time>
      </trkpt>
      <trkpt lat="59.0830779076" lon="29.9978470802">
        <time>2026-04-22T12:05:36.000Z</time>
      </trkpt>
      <trkpt lat="59.0830779076" lon="29.9978470802">
        <time>2026-04-22T12:05:38.000Z</time>
      </trkpt>
      <trkpt lat="59.0830779076" lon="29.9978685379">
        <time>2026-04-22T12:05:41.000Z</time>
      </trkpt>
      <trkpt lat="59.0830779076" lon="29.9978685379">
        <time>2026-04-22T12:05:43.000Z</time>
      </trkpt>
      <trkpt lat="59.0830779076" lon="29.9978685379">
        <time>2026-04-22T12:05:46.000Z</time>
      </trkpt>
      <trkpt lat="59.0830779076" lon="29.9978685379">
        <time>2026-04-22T12:05:48.000Z</time>
      </trkpt>
      <trkpt lat="59.0830779076" lon="29.9978685379">
        <time>2026-04-22T12:05:51.000Z</time>
      </trkpt>
      <trkpt lat="59.0830564499" lon="29.9978685379">
        <time>2026-04-22T12:05:53.000Z</time>
      </trkpt>
      <trkpt lat="59.0830564499" lon="29.9978685379">
        <time>2026-04-22T12:05:56.000Z</time>
      </trkpt>
      <trkpt lat="59.0830564499" lon="29.9978685379">
        <time>2026-04-22T12:05:58.000Z</time>
      </trkpt>
      <trkpt lat="59.0830564499" lon="29.9978685379">
        <time>2026-04-22T12:06:01.000Z</time>
      </trkpt>
      <trkpt lat="59.0830564499" lon="29.9978685379">
        <time>2026-04-22T12:06:03.000Z</time>
      </trkpt>
      <trkpt lat="59.0830564499" lon="29.9978685379">
        <time>2026-04-22T12:06:06.000Z</time>
      </trkpt>
      <trkpt lat="59.0830564499" lon="29.9978685379">
        <time>2026-04-22T12:06:08.000Z</time>
      </trkpt>
      <trkpt lat="59.0830564499" lon="29.9978685379">
        <time>2026-04-22T12:06:11.000Z</time>
      </trkpt>
      <trkpt lat="59.0830564499" lon="29.9978685379">
        <time>2026-04-22T12:06:13.000Z</time>
      </trkpt>
      <trkpt lat="59.0830349922" lon="29.9978685379">
        <time>2026-04-22T12:06:16.000Z</time>
      </trkpt>
      <trkpt lat="59.0830349922" lon="29.9978685379">
        <time>2026-04-22T12:06:18.000Z</time>
      </trkpt>
      <trkpt lat="59.0830349922" lon="29.9978685379">
        <time>2026-04-22T12:06:21.000Z</time>
      </trkpt>
      <trkpt lat="59.0830349922" lon="29.9978685379">
        <time>2026-04-22T12:06:23.000Z</time>
      </trkpt>
      <trkpt lat="59.0830349922" lon="29.9978685379">
        <time>2026-04-22T12:06:26.000Z</time>
      </trkpt>
      <trkpt lat="59.0830349922" lon="29.9978470802">
        <time>2026-04-22T12:06:28.000Z</time>
      </trkpt>
      <trkpt lat="59.0830349922" lon="29.9978470802">
        <time>2026-04-22T12:06:31.000Z</time>
      </trkpt>
      <trkpt lat="59.0830349922" lon="29.9978470802">
        <time>2026-04-22T12:06:33.000Z</time>
      </trkpt>
      <trkpt lat="59.0830349922" lon="29.9978470802">
        <time>2026-04-22T12:06:36.000Z</time>
      </trkpt>
      <trkpt lat="59.0830349922" lon="29.9978470802">
        <time>2026-04-22T12:06:38.000Z</time>
      </trkpt>
      <trkpt lat="59.0830349922" lon="29.9978470802">
        <time>2026-04-22T12:06:41.000Z</time>
      </trkpt>
      <trkpt lat="59.0830349922" lon="29.9978470802">
        <time>2026-04-22T12:06:43.000Z</time>
      </trkpt>
      <trkpt lat="59.0830349922" lon="29.9978470802">
        <time>2026-04-22T12:06:46.000Z</time>
      </trkpt>
      <trkpt lat="59.0830349922" lon="29.9978470802">
        <time>2026-04-22T12:06:48.000Z</time>
      </trkpt>
      <trkpt lat="59.0830349922" lon="29.9978470802">
        <time>2026-04-22T12:06:51.000Z</time>
      </trkpt>
      <trkpt lat="59.0830349922" lon="29.9978470802">
        <time>2026-04-22T12:06:53.000Z</time>
      </trkpt>
      <trkpt lat="59.0830349922" lon="29.9978470802">
        <time>2026-04-22T12:06:56.000Z</time>
      </trkpt>
      <trkpt lat="59.0830349922" lon="29.9978470802">
        <time>2026-04-22T12:06:58.000Z</time>
      </trkpt>
      <trkpt lat="59.0830349922" lon="29.9978470802">
        <time>2026-04-22T12:07:01.000Z</time>
      </trkpt>
      <trkpt lat="59.0830349922" lon="29.9978470802">
        <time>2026-04-22T12:07:03.000Z</time>
      </trkpt>
      <trkpt lat="59.0830349922" lon="29.9978685379">
        <time>2026-04-22T12:07:06.000Z</time>
      </trkpt>
      <trkpt lat="59.0830349922" lon="29.9978685379">
        <time>2026-04-22T12:07:08.000Z</time>
      </trkpt>
      <trkpt lat="59.0830349922" lon="29.9978685379">
        <time>2026-04-22T12:07:11.000Z</time>
      </trkpt>
      <trkpt lat="59.0830349922" lon="29.9978685379">
        <time>2026-04-22T12:07:13.000Z</time>
      </trkpt>
      <trkpt lat="59.0830564499" lon="29.9978685379">
        <time>2026-04-22T12:07:16.000Z</time>
      </trkpt>
      <trkpt lat="59.0830564499" lon="29.9978685379">
        <time>2026-04-22T12:07:18.000Z</time>
      </trkpt>
      <trkpt lat="59.0830564499" lon="29.9978685379">
        <time>2026-04-22T12:07:21.000Z</time>
      </trkpt>
      <trkpt lat="59.0830564499" lon="29.9978685379">
        <time>2026-04-22T12:07:23.000Z</time>
      </trkpt>
      <trkpt lat="59.0830135345" lon="29.9978899956">
        <time>2026-04-22T12:07:26.000Z</time>
      </trkpt>
      <trkpt lat="59.0829920769" lon="29.9978685379">
        <time>2026-04-22T12:07:28.000Z</time>
      </trkpt>
      <trkpt lat="59.0829706192" lon="29.9978256226">
        <time>2026-04-22T12:07:31.000Z</time>
      </trkpt>
      <trkpt lat="59.0829277039" lon="29.9978041649">
        <time>2026-04-22T12:07:33.000Z</time>
      </trkpt>
      <trkpt lat="59.0828847885" lon="29.9978256226">
        <time>2026-04-22T12:07:36.000Z</time>
      </trkpt>
      <trkpt lat="59.0828418732" lon="29.9978256226">
        <time>2026-04-22T12:07:38.000Z</time>
      </trkpt>
      <trkpt lat="59.0828418732" lon="29.9978256226">
        <time>2026-04-22T12:07:41.000Z</time>
      </trkpt>
      <trkpt lat="59.0828418732" lon="29.9978041649">
        <time>2026-04-22T12:07:43.000Z</time>
      </trkpt>
      <trkpt lat="59.0828204155" lon="29.9978041649">
        <time>2026-04-22T12:07:46.000Z</time>
      </trkpt>
      <trkpt lat="59.0828204155" lon="29.9978041649">
        <time>2026-04-22T12:07:48.000Z</time>
      </trkpt>
      <trkpt lat="59.0828204155" lon="29.9978041649">
        <time>2026-04-22T12:07:51.000Z</time>
      </trkpt>
      <trkpt lat="59.0827989578" lon="29.9978256226">
        <time>2026-04-22T12:07:53.000Z</time>
      </trkpt>
      <trkpt lat="59.0827775002" lon="29.9978899956">
        <time>2026-04-22T12:07:56.000Z</time>
      </trkpt>
      <trkpt lat="59.0827345848" lon="29.9979758263">
        <time>2026-04-22T12:07:58.000Z</time>
      </trkpt>
      <trkpt lat="59.0827131271" lon="29.998061657">
        <time>2026-04-22T12:08:01.000Z</time>
      </trkpt>
      <trkpt lat="59.0826702118" lon="29.9980831146">
        <time>2026-04-22T12:08:03.000Z</time>
      </trkpt>
      <trkpt lat="59.0826487541" lon="29.9980187416">
        <time>2026-04-22T12:08:06.000Z</time>
      </trkpt>
      <trkpt lat="59.0825843811" lon="29.9979972839">
        <time>2026-04-22T12:08:08.000Z</time>
      </trkpt>
      <trkpt lat="59.0825843811" lon="29.9979758263">
        <time>2026-04-22T12:08:11.000Z</time>
      </trkpt>
      <trkpt lat="59.0825843811" lon="29.9979758263">
        <time>2026-04-22T12:08:13.000Z</time>
      </trkpt>
      <trkpt lat="59.0825843811" lon="29.9979972839">
        <time>2026-04-22T12:08:16.000Z</time>
      </trkpt>
      <trkpt lat="59.0825414658" lon="29.9980401993">
        <time>2026-04-22T12:08:18.000Z</time>
      </trkpt>
      <trkpt lat="59.0824985504" lon="29.998061657">
        <time>2026-04-22T12:08:21.000Z</time>
      </trkpt>
      <trkpt lat="59.0824556351" lon="29.9981474876">
        <time>2026-04-22T12:08:23.000Z</time>
      </trkpt>
      <trkpt lat="59.0823912621" lon="29.9982118607">
        <time>2026-04-22T12:08:26.000Z</time>
      </trkpt>
      <trkpt lat="59.0823483467" lon="29.9981689453">
        <time>2026-04-22T12:08:28.000Z</time>
      </trkpt>
      <trkpt lat="59.0823483467" lon="29.998190403">
        <time>2026-04-22T12:08:31.000Z</time>
      </trkpt>
      <trkpt lat="59.0823483467" lon="29.9982118607">
        <time>2026-04-22T12:08:33.000Z</time>
      </trkpt>
      <trkpt lat="59.082326889" lon="29.9981689453">
        <time>2026-04-22T12:08:36.000Z</time>
      </trkpt>
      <trkpt lat="59.0823054314" lon="29.9980831146">
        <time>2026-04-22T12:08:38.000Z</time>
      </trkpt>
      <trkpt lat="59.0822839737" lon="29.998061657">
        <time>2026-04-22T12:08:41.000Z</time>
      </trkpt>
      <trkpt lat="59.0822839737" lon="29.9980187416">
        <time>2026-04-22T12:08:43.000Z</time>
      </trkpt>
      <trkpt lat="59.0822839737" lon="29.9979758263">
        <time>2026-04-22T12:08:46.000Z</time>
      </trkpt>
      <trkpt lat="59.0822839737" lon="29.9979758263">
        <time>2026-04-22T12:08:48.000Z</time>
      </trkpt>
      <trkpt lat="59.0822839737" lon="29.9979543686">
        <time>2026-04-22T12:08:51.000Z</time>
      </trkpt>
      <trkpt lat="59.0822839737" lon="29.9979543686">
        <time>2026-04-22T12:08:53.000Z</time>
      </trkpt>
      <trkpt lat="59.082262516" lon="29.9979114532">
        <time>2026-04-22T12:08:56.000Z</time>
      </trkpt>
      <trkpt lat="59.0822410583" lon="29.9979114532">
        <time>2026-04-22T12:08:58.000Z</time>
      </trkpt>
      <trkpt lat="59.0821766853" lon="29.9979543686">
        <time>2026-04-22T12:09:01.000Z</time>
      </trkpt>
      <trkpt lat="59.0821766853" lon="29.9978899956">
        <time>2026-04-22T12:09:03.000Z</time>
      </trkpt>
      <trkpt lat="59.0821766853" lon="29.9977397919">
        <time>2026-04-22T12:09:06.000Z</time>
      </trkpt>
      <trkpt lat="59.0822196007" lon="29.9976539612">
        <time>2026-04-22T12:09:08.000Z</time>
      </trkpt>
      <trkpt lat="59.0822410583" lon="29.9975466728">
        <time>2026-04-22T12:09:11.000Z</time>
      </trkpt>
      <trkpt lat="59.0822410583" lon="29.9975037575">
        <time>2026-04-22T12:09:13.000Z</time>
      </trkpt>
      <trkpt lat="59.082262516" lon="29.9973964691">
        <time>2026-04-22T12:09:16.000Z</time>
      </trkpt>
      <trkpt lat="59.0822410583" lon="29.9973750114">
        <time>2026-04-22T12:09:18.000Z</time>
      </trkpt>
      <trkpt lat="59.082262516" lon="29.9973535538">
        <time>2026-04-22T12:09:21.000Z</time>
      </trkpt>
      <trkpt lat="59.0822839737" lon="29.9973320961">
        <time>2026-04-22T12:09:23.000Z</time>
      </trkpt>
      <trkpt lat="59.082262516" lon="29.9973320961">
        <time>2026-04-22T12:09:26.000Z</time>
      </trkpt>
      <trkpt lat="59.082262516" lon="29.9972677231">
        <time>2026-04-22T12:09:28.000Z</time>
      </trkpt>
      <trkpt lat="59.0822839737" lon="29.9971818924">
        <time>2026-04-22T12:09:31.000Z</time>
      </trkpt>
      <trkpt lat="59.0822839737" lon="29.9971389771">
        <time>2026-04-22T12:09:33.000Z</time>
      </trkpt>
      <trkpt lat="59.082262516" lon="29.9970960617">
        <time>2026-04-22T12:09:36.000Z</time>
      </trkpt>
      <trkpt lat="59.082262516" lon="29.9971175194">
        <time>2026-04-22T12:09:38.000Z</time>
      </trkpt>
      <trkpt lat="59.082262516" lon="29.9970960617">
        <time>2026-04-22T12:09:41.000Z</time>
      </trkpt>
      <trkpt lat="59.082262516" lon="29.9971175194">
        <time>2026-04-22T12:09:43.000Z</time>
      </trkpt>
      <trkpt lat="59.082262516" lon="29.9971175194">
        <time>2026-04-22T12:09:46.000Z</time>
      </trkpt>
      <trkpt lat="59.082262516" lon="29.9971175194">
        <time>2026-04-22T12:09:48.000Z</time>
      </trkpt>
      <trkpt lat="59.082262516" lon="29.9971175194">
        <time>2026-04-22T12:09:51.000Z</time>
      </trkpt>
      <trkpt lat="59.082262516" lon="29.9971175194">
        <time>2026-04-22T12:09:53.000Z</time>
      </trkpt>
      <trkpt lat="59.082262516" lon="29.9971175194">
        <time>2026-04-22T12:09:56.000Z</time>
      </trkpt>
      <trkpt lat="59.0823054314" lon="29.9970531464">
        <time>2026-04-22T12:09:58.000Z</time>
      </trkpt>
      <trkpt lat="59.0823912621" lon="29.9969673157">
        <time>2026-04-22T12:10:01.000Z</time>
      </trkpt>
      <trkpt lat="59.0824341774" lon="29.9969029427">
        <time>2026-04-22T12:10:03.000Z</time>
      </trkpt>
      <trkpt lat="59.0824985504" lon="29.9968600273">
        <time>2026-04-22T12:10:06.000Z</time>
      </trkpt>
      <trkpt lat="59.0825200081" lon="29.996817112">
        <time>2026-04-22T12:10:08.000Z</time>
      </trkpt>
      <trkpt lat="59.0825414658" lon="29.996752739">
        <time>2026-04-22T12:10:11.000Z</time>
      </trkpt>
      <trkpt lat="59.0825629234" lon="29.996752739">
        <time>2026-04-22T12:10:13.000Z</time>
      </trkpt>
      <trkpt lat="59.0826058388" lon="29.996752739">
        <time>2026-04-22T12:10:16.000Z</time>
      </trkpt>
      <trkpt lat="59.0826487541" lon="29.9967741966">
        <time>2026-04-22T12:10:18.000Z</time>
      </trkpt>
      <trkpt lat="59.0827345848" lon="29.996817112">
        <time>2026-04-22T12:10:21.000Z</time>
      </trkpt>
      <trkpt lat="59.0827560425" lon="29.9967741966">
        <time>2026-04-22T12:10:23.000Z</time>
      </trkpt>
      <trkpt lat="59.0827560425" lon="29.9967741966">
        <time>2026-04-22T12:10:26.000Z</time>
      </trkpt>
      <trkpt lat="59.0827989578" lon="29.996752739">
        <time>2026-04-22T12:10:28.000Z</time>
      </trkpt>
      <trkpt lat="59.0827989578" lon="29.9967098236">
        <time>2026-04-22T12:10:31.000Z</time>
      </trkpt>
      <trkpt lat="59.0828204155" lon="29.9966454506">
        <time>2026-04-22T12:10:33.000Z</time>
      </trkpt>
      <trkpt lat="59.0827989578" lon="29.9966025352">
        <time>2026-04-22T12:10:36.000Z</time>
      </trkpt>
      <trkpt lat="59.0828204155" lon="29.9965381622">
        <time>2026-04-22T12:10:38.000Z</time>
      </trkpt>
      <trkpt lat="59.0828418732" lon="29.9964308739">
        <time>2026-04-22T12:10:41.000Z</time>
      </trkpt>
      <trkpt lat="59.0828418732" lon="29.9963879585">
        <time>2026-04-22T12:10:43.000Z</time>
      </trkpt>
      <trkpt lat="59.0828418732" lon="29.9963879585">
        <time>2026-04-22T12:10:46.000Z</time>
      </trkpt>
      <trkpt lat="59.0828633308" lon="29.9963665009">
        <time>2026-04-22T12:10:48.000Z</time>
      </trkpt>
      <trkpt lat="59.0828633308" lon="29.9963235855">
        <time>2026-04-22T12:10:51.000Z</time>
      </trkpt>
      <trkpt lat="59.0829062462" lon="29.9962806702">
        <time>2026-04-22T12:10:53.000Z</time>
      </trkpt>
      <trkpt lat="59.0829062462" lon="29.9962592125">
        <time>2026-04-22T12:10:56.000Z</time>
      </trkpt>
      <trkpt lat="59.0829062462" lon="29.9962592125">
        <time>2026-04-22T12:10:58.000Z</time>
      </trkpt>
      <trkpt lat="59.0829277039" lon="29.9962806702">
        <time>2026-04-22T12:11:01.000Z</time>
      </trkpt>
      <trkpt lat="59.0829491615" lon="29.9962592125">
        <time>2026-04-22T12:11:03.000Z</time>
      </trkpt>
      <trkpt lat="59.0829706192" lon="29.9962162971">
        <time>2026-04-22T12:11:06.000Z</time>
      </trkpt>
      <trkpt lat="59.0830135345" lon="29.9961948395">
        <time>2026-04-22T12:11:08.000Z</time>
      </trkpt>
      <trkpt lat="59.0830349922" lon="29.9960660934">
        <time>2026-04-22T12:11:11.000Z</time>
      </trkpt>
      <trkpt lat="59.0830135345" lon="29.9960660934">
        <time>2026-04-22T12:11:13.000Z</time>
      </trkpt>
      <trkpt lat="59.0829706192" lon="29.9961304665">
        <time>2026-04-22T12:11:16.000Z</time>
      </trkpt>
      <trkpt lat="59.0828847885" lon="29.9961090088">
        <time>2026-04-22T12:11:18.000Z</time>
      </trkpt>
      <trkpt lat="59.0829062462" lon="29.9961304665">
        <time>2026-04-22T12:11:21.000Z</time>
      </trkpt>
      <trkpt lat="59.0829062462" lon="29.9960660934">
        <time>2026-04-22T12:11:23.000Z</time>
      </trkpt>
      <trkpt lat="59.0829062462" lon="29.9959373474">
        <time>2026-04-22T12:11:26.000Z</time>
      </trkpt>
      <trkpt lat="59.0829277039" lon="29.9958729744">
        <time>2026-04-22T12:11:28.000Z</time>
      </trkpt>
      <trkpt lat="59.0829277039" lon="29.9959588051">
        <time>2026-04-22T12:11:31.000Z</time>
      </trkpt>
      <trkpt lat="59.0829062462" lon="29.9959802628">
        <time>2026-04-22T12:11:33.000Z</time>
      </trkpt>
      <trkpt lat="59.0829062462" lon="29.9959373474">
        <time>2026-04-22T12:11:36.000Z</time>
      </trkpt>
      <trkpt lat="59.0829062462" lon="29.9958944321">
        <time>2026-04-22T12:11:38.000Z</time>
      </trkpt>
      <trkpt lat="59.0828847885" lon="29.9958944321">
        <time>2026-04-22T12:11:41.000Z</time>
      </trkpt>
      <trkpt lat="59.0828633308" lon="29.9958515167">
        <time>2026-04-22T12:11:43.000Z</time>
      </trkpt>
      <trkpt lat="59.0828633308" lon="29.995701313">
        <time>2026-04-22T12:11:46.000Z</time>
      </trkpt>
      <trkpt lat="59.0828204155" lon="29.995572567">
        <time>2026-04-22T12:11:48.000Z</time>
      </trkpt>
      <trkpt lat="59.0827775002" lon="29.9955940247">
        <time>2026-04-22T12:11:51.000Z</time>
      </trkpt>
      <trkpt lat="59.0827989578" lon="29.9956154823">
        <time>2026-04-22T12:11:53.000Z</time>
      </trkpt>
      <trkpt lat="59.0827989578" lon="29.9956154823">
        <time>2026-04-22T12:11:56.000Z</time>
      </trkpt>
      <trkpt lat="59.0827989578" lon="29.9956154823">
        <time>2026-04-22T12:11:58.000Z</time>
      </trkpt>
      <trkpt lat="59.0827775002" lon="29.9956154823">
        <time>2026-04-22T12:12:01.000Z</time>
      </trkpt>
      <trkpt lat="59.0827775002" lon="29.9956154823">
        <time>2026-04-22T12:12:03.000Z</time>
      </trkpt>
      <trkpt lat="59.0827775002" lon="29.9956154823">
        <time>2026-04-22T12:12:06.000Z</time>
      </trkpt>
      <trkpt lat="59.0827775002" lon="29.9956154823">
        <time>2026-04-22T12:12:08.000Z</time>
      </trkpt>
      <trkpt lat="59.0827775002" lon="29.9956154823">
        <time>2026-04-22T12:12:11.000Z</time>
      </trkpt>
      <trkpt lat="59.0827775002" lon="29.9956154823">
        <time>2026-04-22T12:12:13.000Z</time>
      </trkpt>
      <trkpt lat="59.0827775002" lon="29.9956154823">
        <time>2026-04-22T12:12:16.000Z</time>
      </trkpt>
      <trkpt lat="59.0827775002" lon="29.9956154823">
        <time>2026-04-22T12:12:18.000Z</time>
      </trkpt>
      <trkpt lat="59.0827775002" lon="29.9956154823">
        <time>2026-04-22T12:12:21.000Z</time>
      </trkpt>
      <trkpt lat="59.0827775002" lon="29.9956154823">
        <time>2026-04-22T12:12:23.000Z</time>
      </trkpt>
      <trkpt lat="59.0827775002" lon="29.9956154823">
        <time>2026-04-22T12:12:26.000Z</time>
      </trkpt>
      <trkpt lat="59.0827131271" lon="29.9955940247">
        <time>2026-04-22T12:12:28.000Z</time>
      </trkpt>
      <trkpt lat="59.0826487541" lon="29.9955940247">
        <time>2026-04-22T12:12:31.000Z</time>
      </trkpt>
      <trkpt lat="59.0825843811" lon="29.995572567">
        <time>2026-04-22T12:12:33.000Z</time>
      </trkpt>
      <trkpt lat="59.0825843811" lon="29.9955511093">
        <time>2026-04-22T12:12:36.000Z</time>
      </trkpt>
      <trkpt lat="59.0825843811" lon="29.9955511093">
        <time>2026-04-22T12:12:38.000Z</time>
      </trkpt>
      <trkpt lat="59.0825414658" lon="29.9955296516">
        <time>2026-04-22T12:12:41.000Z</time>
      </trkpt>
      <trkpt lat="59.0824985504" lon="29.9954867363">
        <time>2026-04-22T12:12:43.000Z</time>
      </trkpt>
      <trkpt lat="59.0824556351" lon="29.995508194">
        <time>2026-04-22T12:12:46.000Z</time>
      </trkpt>
      <trkpt lat="59.0824341774" lon="29.995508194">
        <time>2026-04-22T12:12:48.000Z</time>
      </trkpt>
      <trkpt lat="59.0824341774" lon="29.995508194">
        <time>2026-04-22T12:12:51.000Z</time>
      </trkpt>
      <trkpt lat="59.0823912621" lon="29.9955296516">
        <time>2026-04-22T12:12:53.000Z</time>
      </trkpt>
      <trkpt lat="59.0823483467" lon="29.9955511093">
        <time>2026-04-22T12:12:56.000Z</time>
      </trkpt>
      <trkpt lat="59.082326889" lon="29.9955940247">
        <time>2026-04-22T12:12:58.000Z</time>
      </trkpt>
      <trkpt lat="59.0823054314" lon="29.9955940247">
        <time>2026-04-22T12:13:01.000Z</time>
      </trkpt>
      <trkpt lat="59.0823054314" lon="29.99563694">
        <time>2026-04-22T12:13:03.000Z</time>
      </trkpt>
      <trkpt lat="59.082262516" lon="29.9956798553">
        <time>2026-04-22T12:13:06.000Z</time>
      </trkpt>
      <trkpt lat="59.0822196007" lon="29.9957227707">
        <time>2026-04-22T12:13:08.000Z</time>
      </trkpt>
      <trkpt lat="59.0821766853" lon="29.995765686">
        <time>2026-04-22T12:13:11.000Z</time>
      </trkpt>
      <trkpt lat="59.08213377" lon="29.9957871437">
        <time>2026-04-22T12:13:13.000Z</time>
      </trkpt>
      <trkpt lat="59.0820908546" lon="29.9958086014">
        <time>2026-04-22T12:13:16.000Z</time>
      </trkpt>
      <trkpt lat="59.082069397" lon="29.9958300591">
        <time>2026-04-22T12:13:18.000Z</time>
      </trkpt>
      <trkpt lat="59.082069397" lon="29.9958300591">
        <time>2026-04-22T12:13:21.000Z</time>
      </trkpt>
      <trkpt lat="59.082069397" lon="29.9958300591">
        <time>2026-04-22T12:13:23.000Z</time>
      </trkpt>
      <trkpt lat="59.0820264816" lon="29.9958515167">
        <time>2026-04-22T12:13:26.000Z</time>
      </trkpt>
      <trkpt lat="59.0819835663" lon="29.9958729744">
        <time>2026-04-22T12:13:28.000Z</time>
      </trkpt>
      <trkpt lat="59.0819191933" lon="29.9959158897">
        <time>2026-04-22T12:13:31.000Z</time>
      </trkpt>
      <trkpt lat="59.0818977356" lon="29.9958944321">
        <time>2026-04-22T12:13:33.000Z</time>
      </trkpt>
      <trkpt lat="59.0819406509" lon="29.9958729744">
        <time>2026-04-22T12:13:36.000Z</time>
      </trkpt>
      <trkpt lat="59.082005024" lon="29.9957871437">
        <time>2026-04-22T12:13:38.000Z</time>
      </trkpt>
      <trkpt lat="59.0819835663" lon="29.995765686">
        <time>2026-04-22T12:13:41.000Z</time>
      </trkpt>
      <trkpt lat="59.0819835663" lon="29.995765686">
        <time>2026-04-22T12:13:43.000Z</time>
      </trkpt>
      <trkpt lat="59.0819621086" lon="29.9957227707">
        <time>2026-04-22T12:13:46.000Z</time>
      </trkpt>
      <trkpt lat="59.0819191933" lon="29.99563694">
        <time>2026-04-22T12:13:48.000Z</time>
      </trkpt>
      <trkpt lat="59.0818977356" lon="29.9956154823">
        <time>2026-04-22T12:13:51.000Z</time>
      </trkpt>
      <trkpt lat="59.0819191933" lon="29.9956154823">
        <time>2026-04-22T12:13:53.000Z</time>
      </trkpt>
      <trkpt lat="59.0819406509" lon="29.9955511093">
        <time>2026-04-22T12:13:56.000Z</time>
      </trkpt>
      <trkpt lat="59.0819406509" lon="29.995508194">
        <time>2026-04-22T12:13:58.000Z</time>
      </trkpt>
      <trkpt lat="59.0819621086" lon="29.9954652786">
        <time>2026-04-22T12:14:01.000Z</time>
      </trkpt>
      <trkpt lat="59.0819621086" lon="29.9954009056">
        <time>2026-04-22T12:14:03.000Z</time>
      </trkpt>
      <trkpt lat="59.0819621086" lon="29.9953365326">
        <time>2026-04-22T12:14:06.000Z</time>
      </trkpt>
      <trkpt lat="59.0819406509" lon="29.9952721596">
        <time>2026-04-22T12:14:08.000Z</time>
      </trkpt>
      <trkpt lat="59.0819406509" lon="29.9951863289">
        <time>2026-04-22T12:14:11.000Z</time>
      </trkpt>
      <trkpt lat="59.0819406509" lon="29.9951219559">
        <time>2026-04-22T12:14:13.000Z</time>
      </trkpt>
      <trkpt lat="59.0819191933" lon="29.9950575829">
        <time>2026-04-22T12:14:16.000Z</time>
      </trkpt>
      <trkpt lat="59.0818762779" lon="29.9950575829">
        <time>2026-04-22T12:14:18.000Z</time>
      </trkpt>
      <trkpt lat="59.0818977356" lon="29.9950361252">
        <time>2026-04-22T12:14:21.000Z</time>
      </trkpt>
      <trkpt lat="59.0818977356" lon="29.9950361252">
        <time>2026-04-22T12:14:23.000Z</time>
      </trkpt>
      <trkpt lat="59.0819191933" lon="29.9950361252">
        <time>2026-04-22T12:14:26.000Z</time>
      </trkpt>
      <trkpt lat="59.0819621086" lon="29.9950361252">
        <time>2026-04-22T12:14:28.000Z</time>
      </trkpt>
      <trkpt lat="59.0819835663" lon="29.9950790405">
        <time>2026-04-22T12:14:31.000Z</time>
      </trkpt>
      <trkpt lat="59.0819835663" lon="29.9951004982">
        <time>2026-04-22T12:14:33.000Z</time>
      </trkpt>
      <trkpt lat="59.0819835663" lon="29.9951004982">
        <time>2026-04-22T12:14:36.000Z</time>
      </trkpt>
      <trkpt lat="59.0819835663" lon="29.9950790405">
        <time>2026-04-22T12:14:38.000Z</time>
      </trkpt>
      <trkpt lat="59.0819835663" lon="29.9949717522">
        <time>2026-04-22T12:14:41.000Z</time>
      </trkpt>
      <trkpt lat="59.0819621086" lon="29.9948859215">
        <time>2026-04-22T12:14:43.000Z</time>
      </trkpt>
      <trkpt lat="59.0819621086" lon="29.9948859215">
        <time>2026-04-22T12:14:46.000Z</time>
      </trkpt>
      <trkpt lat="59.0819835663" lon="29.9948644638">
        <time>2026-04-22T12:14:48.000Z</time>
      </trkpt>
      <trkpt lat="59.082005024" lon="29.9947786331">
        <time>2026-04-22T12:14:51.000Z</time>
      </trkpt>
      <trkpt lat="59.0819835663" lon="29.9947571754">
        <time>2026-04-22T12:14:53.000Z</time>
      </trkpt>
      <trkpt lat="59.0819835663" lon="29.9947142601">
        <time>2026-04-22T12:14:56.000Z</time>
      </trkpt>
      <trkpt lat="59.082005024" lon="29.9947357178">
        <time>2026-04-22T12:14:58.000Z</time>
      </trkpt>
      <trkpt lat="59.0819835663" lon="29.9946928024">
        <time>2026-04-22T12:15:01.000Z</time>
      </trkpt>
      <trkpt lat="59.0819835663" lon="29.9946284294">
        <time>2026-04-22T12:15:03.000Z</time>
      </trkpt>
      <trkpt lat="59.082005024" lon="29.9945855141">
        <time>2026-04-22T12:15:06.000Z</time>
      </trkpt>
      <trkpt lat="59.082005024" lon="29.9945855141">
        <time>2026-04-22T12:15:08.000Z</time>
      </trkpt>
      <trkpt lat="59.082005024" lon="29.9945855141">
        <time>2026-04-22T12:15:11.000Z</time>
      </trkpt>
      <trkpt lat="59.082005024" lon="29.9945855141">
        <time>2026-04-22T12:15:13.000Z</time>
      </trkpt>
      <trkpt lat="59.0820264816" lon="29.9946284294">
        <time>2026-04-22T12:15:16.000Z</time>
      </trkpt>
      <trkpt lat="59.0820264816" lon="29.9946713448">
        <time>2026-04-22T12:15:18.000Z</time>
      </trkpt>
      <trkpt lat="59.0820264816" lon="29.9946928024">
        <time>2026-04-22T12:15:21.000Z</time>
      </trkpt>
      <trkpt lat="59.0820264816" lon="29.9946713448">
        <time>2026-04-22T12:15:23.000Z</time>
      </trkpt>
      <trkpt lat="59.0820264816" lon="29.9946713448">
        <time>2026-04-22T12:15:26.000Z</time>
      </trkpt>
      <trkpt lat="59.0820264816" lon="29.9946713448">
        <time>2026-04-22T12:15:28.000Z</time>
      </trkpt>
      <trkpt lat="59.0820264816" lon="29.9947142601">
        <time>2026-04-22T12:15:31.000Z</time>
      </trkpt>
      <trkpt lat="59.0820479393" lon="29.9947357178">
        <time>2026-04-22T12:15:33.000Z</time>
      </trkpt>
      <trkpt lat="59.0820908546" lon="29.9947571754">
        <time>2026-04-22T12:15:36.000Z</time>
      </trkpt>
      <trkpt lat="59.0821123123" lon="29.9947786331">
        <time>2026-04-22T12:15:38.000Z</time>
      </trkpt>
      <trkpt lat="59.0821123123" lon="29.9948215485">
        <time>2026-04-22T12:15:41.000Z</time>
      </trkpt>
      <trkpt lat="59.08213377" lon="29.9948215485">
        <time>2026-04-22T12:15:43.000Z</time>
      </trkpt>
      <trkpt lat="59.0821552277" lon="29.9947786331">
        <time>2026-04-22T12:15:46.000Z</time>
      </trkpt>
      <trkpt lat="59.0821552277" lon="29.9947142601">
        <time>2026-04-22T12:15:48.000Z</time>
      </trkpt>
      <trkpt lat="59.0821766853" lon="29.9946284294">
        <time>2026-04-22T12:15:51.000Z</time>
      </trkpt>
      <trkpt lat="59.0821766853" lon="29.9945425987">
        <time>2026-04-22T12:15:53.000Z</time>
      </trkpt>
      <trkpt lat="59.0821766853" lon="29.9944996834">
        <time>2026-04-22T12:15:56.000Z</time>
      </trkpt>
      <trkpt lat="59.0821766853" lon="29.9945211411">
        <time>2026-04-22T12:15:58.000Z</time>
      </trkpt>
      <trkpt lat="59.0822196007" lon="29.9945855141">
        <time>2026-04-22T12:16:01.000Z</time>
      </trkpt>
      <trkpt lat="59.0822410583" lon="29.9945855141">
        <time>2026-04-22T12:16:03.000Z</time>
      </trkpt>
      <trkpt lat="59.0822839737" lon="29.9946069717">
        <time>2026-04-22T12:16:06.000Z</time>
      </trkpt>
      <trkpt lat="59.082326889" lon="29.9946069717">
        <time>2026-04-22T12:16:08.000Z</time>
      </trkpt>
      <trkpt lat="59.082326889" lon="29.9945640564">
        <time>2026-04-22T12:16:11.000Z</time>
      </trkpt>
      <trkpt lat="59.0823698044" lon="29.9945425987">
        <time>2026-04-22T12:16:13.000Z</time>
      </trkpt>
      <trkpt lat="59.0824127197" lon="29.9944996834">
        <time>2026-04-22T12:16:16.000Z</time>
      </trkpt>
      <trkpt lat="59.0824341774" lon="29.994456768">
        <time>2026-04-22T12:16:18.000Z</time>
      </trkpt>
      <trkpt lat="59.0824556351" lon="29.994456768">
        <time>2026-04-22T12:16:21.000Z</time>
      </trkpt>
      <trkpt lat="59.0824985504" lon="29.9944782257">
        <time>2026-04-22T12:16:23.000Z</time>
      </trkpt>
      <trkpt lat="59.0825200081" lon="29.9945425987">
        <time>2026-04-22T12:16:26.000Z</time>
      </trkpt>
      <trkpt lat="59.0825414658" lon="29.9944782257">
        <time>2026-04-22T12:16:28.000Z</time>
      </trkpt>
      <trkpt lat="59.0825414658" lon="29.994456768">
        <time>2026-04-22T12:16:31.000Z</time>
      </trkpt>
      <trkpt lat="59.0825629234" lon="29.994456768">
        <time>2026-04-22T12:16:33.000Z</time>
      </trkpt>
      <trkpt lat="59.0825629234" lon="29.994456768">
        <time>2026-04-22T12:16:36.000Z</time>
      </trkpt>
      <trkpt lat="59.0825629234" lon="29.994456768">
        <time>2026-04-22T12:16:38.000Z</time>
      </trkpt>
      <trkpt lat="59.0825629234" lon="29.9944353104">
        <time>2026-04-22T12:16:41.000Z</time>
      </trkpt>
      <trkpt lat="59.0825629234" lon="29.9944353104">
        <time>2026-04-22T12:16:43.000Z</time>
      </trkpt>
      <trkpt lat="59.0825843811" lon="29.9944353104">
        <time>2026-04-22T12:16:46.000Z</time>
      </trkpt>
      <trkpt lat="59.0825843811" lon="29.994392395">
        <time>2026-04-22T12:16:48.000Z</time>
      </trkpt>
      <trkpt lat="59.0825843811" lon="29.9943065643">
        <time>2026-04-22T12:16:51.000Z</time>
      </trkpt>
      <trkpt lat="59.0825629234" lon="29.9942421913">
        <time>2026-04-22T12:16:53.000Z</time>
      </trkpt>
      <trkpt lat="59.0825414658" lon="29.9941134453">
        <time>2026-04-22T12:16:56.000Z</time>
      </trkpt>
      <trkpt lat="59.0825414658" lon="29.9940276146">
        <time>2026-04-22T12:16:58.000Z</time>
      </trkpt>
      <trkpt lat="59.0824770927" lon="29.9939417839">
        <time>2026-04-22T12:17:01.000Z</time>
      </trkpt>
      <trkpt lat="59.0824985504" lon="29.9938559532">
        <time>2026-04-22T12:17:03.000Z</time>
      </trkpt>
      <trkpt lat="59.0825414658" lon="29.9938344955">
        <time>2026-04-22T12:17:06.000Z</time>
      </trkpt>
      <trkpt lat="59.0826058388" lon="29.9937915802">
        <time>2026-04-22T12:17:08.000Z</time>
      </trkpt>
      <trkpt lat="59.0825843811" lon="29.9937486649">
        <time>2026-04-22T12:17:11.000Z</time>
      </trkpt>
      <trkpt lat="59.0825843811" lon="29.9936842918">
        <time>2026-04-22T12:17:13.000Z</time>
      </trkpt>
      <trkpt lat="59.0826058388" lon="29.9936628342">
        <time>2026-04-22T12:17:16.000Z</time>
      </trkpt>
      <trkpt lat="59.0825843811" lon="29.9936199188">
        <time>2026-04-22T12:17:18.000Z</time>
      </trkpt>
      <trkpt lat="59.0826058388" lon="29.9935770035">
        <time>2026-04-22T12:17:21.000Z</time>
      </trkpt>
      <trkpt lat="59.0826058388" lon="29.9935770035">
        <time>2026-04-22T12:17:23.000Z</time>
      </trkpt>
      <trkpt lat="59.0826058388" lon="29.9935770035">
        <time>2026-04-22T12:17:26.000Z</time>
      </trkpt>
      <trkpt lat="59.0826272964" lon="29.9935770035">
        <time>2026-04-22T12:17:28.000Z</time>
      </trkpt>
      <trkpt lat="59.0826058388" lon="29.9935555458">
        <time>2026-04-22T12:17:31.000Z</time>
      </trkpt>
      <trkpt lat="59.0826058388" lon="29.9935340881">
        <time>2026-04-22T12:17:33.000Z</time>
      </trkpt>
      <trkpt lat="59.0826058388" lon="29.9935340881">
        <time>2026-04-22T12:17:36.000Z</time>
      </trkpt>
      <trkpt lat="59.0826272964" lon="29.9935126305">
        <time>2026-04-22T12:17:38.000Z</time>
      </trkpt>
      <trkpt lat="59.0826058388" lon="29.9934697151">
        <time>2026-04-22T12:17:41.000Z</time>
      </trkpt>
      <trkpt lat="59.0825629234" lon="29.9934267998">
        <time>2026-04-22T12:17:43.000Z</time>
      </trkpt>
      <trkpt lat="59.0824985504" lon="29.9933838844">
        <time>2026-04-22T12:17:46.000Z</time>
      </trkpt>
      <trkpt lat="59.0824556351" lon="29.9932551384">
        <time>2026-04-22T12:17:48.000Z</time>
      </trkpt>
      <trkpt lat="59.0824341774" lon="29.99314785">
        <time>2026-04-22T12:17:51.000Z</time>
      </trkpt>
      <trkpt lat="59.0824127197" lon="29.9931049347">
        <time>2026-04-22T12:17:53.000Z</time>
      </trkpt>
      <trkpt lat="59.0824127197" lon="29.9930620193">
        <time>2026-04-22T12:17:56.000Z</time>
      </trkpt>
      <trkpt lat="59.0824127197" lon="29.9930620193">
        <time>2026-04-22T12:17:58.000Z</time>
      </trkpt>
      <trkpt lat="59.0824341774" lon="29.9930405617">
        <time>2026-04-22T12:18:01.000Z</time>
      </trkpt>
      <trkpt lat="59.0824341774" lon="29.9930405617">
        <time>2026-04-22T12:18:03.000Z</time>
      </trkpt>
      <trkpt lat="59.0824341774" lon="29.9930405617">
        <time>2026-04-22T12:18:06.000Z</time>
      </trkpt>
      <trkpt lat="59.0824341774" lon="29.9930405617">
        <time>2026-04-22T12:18:08.000Z</time>
      </trkpt>
      <trkpt lat="59.0824341774" lon="29.9930405617">
        <time>2026-04-22T12:18:11.000Z</time>
      </trkpt>
      <trkpt lat="59.0824341774" lon="29.9930405617">
        <time>2026-04-22T12:18:13.000Z</time>
      </trkpt>
      <trkpt lat="59.0824341774" lon="29.9930405617">
        <time>2026-04-22T12:18:16.000Z</time>
      </trkpt>
      <trkpt lat="59.0824341774" lon="29.9930405617">
        <time>2026-04-22T12:18:18.000Z</time>
      </trkpt>
      <trkpt lat="59.0824341774" lon="29.9930405617">
        <time>2026-04-22T12:18:21.000Z</time>
      </trkpt>
      <trkpt lat="59.0824341774" lon="29.9930405617">
        <time>2026-04-22T12:18:23.000Z</time>
      </trkpt>
      <trkpt lat="59.0824341774" lon="29.9930405617">
        <time>2026-04-22T12:18:26.000Z</time>
      </trkpt>
      <trkpt lat="59.0824341774" lon="29.9930405617">
        <time>2026-04-22T12:18:28.000Z</time>
      </trkpt>
      <trkpt lat="59.0824341774" lon="29.9930405617">
        <time>2026-04-22T12:18:31.000Z</time>
      </trkpt>
      <trkpt lat="59.0824341774" lon="29.9930405617">
        <time>2026-04-22T12:18:33.000Z</time>
      </trkpt>
      <trkpt lat="59.0824341774" lon="29.9930405617">
        <time>2026-04-22T12:18:36.000Z</time>
      </trkpt>
      <trkpt lat="59.0824341774" lon="29.9930405617">
        <time>2026-04-22T12:18:38.000Z</time>
      </trkpt>
      <trkpt lat="59.0824341774" lon="29.9930405617">
        <time>2026-04-22T12:18:41.000Z</time>
      </trkpt>
      <trkpt lat="59.0824341774" lon="29.9930405617">
        <time>2026-04-22T12:18:46.000Z</time>
      </trkpt>
      <trkpt lat="59.0824341774" lon="29.9930405617">
        <time>2026-04-22T12:18:48.000Z</time>
      </trkpt>
      <trkpt lat="59.0824341774" lon="29.9930405617">
        <time>2026-04-22T12:18:51.000Z</time>
      </trkpt>
      <trkpt lat="59.0824341774" lon="29.9930405617">
        <time>2026-04-22T12:18:53.000Z</time>
      </trkpt>
      <trkpt lat="59.0824341774" lon="29.9930405617">
        <time>2026-04-22T12:18:56.000Z</time>
      </trkpt>
      <trkpt lat="59.0824341774" lon="29.9930405617">
        <time>2026-04-22T12:18:58.000Z</time>
      </trkpt>
      <trkpt lat="59.0824341774" lon="29.9930405617">
        <time>2026-04-22T12:19:01.000Z</time>
      </trkpt>
      <trkpt lat="59.0824341774" lon="29.9930405617">
        <time>2026-04-22T12:19:03.000Z</time>
      </trkpt>
      <trkpt lat="59.0824341774" lon="29.9930405617">
        <time>2026-04-22T12:19:06.000Z</time>
      </trkpt>
      <trkpt lat="59.0824341774" lon="29.9930405617">
        <time>2026-04-22T12:19:08.000Z</time>
      </trkpt>
      <trkpt lat="59.0824341774" lon="29.9930405617">
        <time>2026-04-22T12:19:11.000Z</time>
      </trkpt>
      <trkpt lat="59.0824341774" lon="29.9930405617">
        <time>2026-04-22T12:19:13.000Z</time>
      </trkpt>
      <trkpt lat="59.0824341774" lon="29.9930405617">
        <time>2026-04-22T12:19:16.000Z</time>
      </trkpt>
      <trkpt lat="59.0824341774" lon="29.9930405617">
        <time>2026-04-22T12:19:18.000Z</time>
      </trkpt>
      <trkpt lat="59.0824341774" lon="29.993019104">
        <time>2026-04-22T12:19:21.000Z</time>
      </trkpt>
      <trkpt lat="59.0824556351" lon="29.9929118156">
        <time>2026-04-22T12:19:23.000Z</time>
      </trkpt>
      <trkpt lat="59.0825200081" lon="29.9927830696">
        <time>2026-04-22T12:19:26.000Z</time>
      </trkpt>
      <trkpt lat="59.0825414658" lon="29.9926543236">
        <time>2026-04-22T12:19:28.000Z</time>
      </trkpt>
      <trkpt lat="59.0825629234" lon="29.9926757813">
        <time>2026-04-22T12:19:31.000Z</time>
      </trkpt>
      <trkpt lat="59.0825843811" lon="29.9925899506">
        <time>2026-04-22T12:19:33.000Z</time>
      </trkpt>
      <trkpt lat="59.0826272964" lon="29.9924826622">
        <time>2026-04-22T12:19:36.000Z</time>
      </trkpt>
      <trkpt lat="59.0826487541" lon="29.9923968315">
        <time>2026-04-22T12:19:38.000Z</time>
      </trkpt>
      <trkpt lat="59.0826916695" lon="29.9922895432">
        <time>2026-04-22T12:19:41.000Z</time>
      </trkpt>
      <trkpt lat="59.0827131271" lon="29.9922251701">
        <time>2026-04-22T12:19:43.000Z</time>
      </trkpt>
      <trkpt lat="59.0827131271" lon="29.9922680855">
        <time>2026-04-22T12:19:46.000Z</time>
      </trkpt>
      <trkpt lat="59.0827131271" lon="29.9922680855">
        <time>2026-04-22T12:19:48.000Z</time>
      </trkpt>
      <trkpt lat="59.0825843811" lon="29.9922895432">
        <time>2026-04-22T12:19:53.000Z</time>
      </trkpt>
      <trkpt lat="59.0825200081" lon="29.9923753738">
        <time>2026-04-22T12:19:56.000Z</time>
      </trkpt>
      <trkpt lat="59.0824341774" lon="29.9924612045">
        <time>2026-04-22T12:19:58.000Z</time>
      </trkpt>
      <trkpt lat="59.0823698044" lon="29.9925255775">
        <time>2026-04-22T12:20:01.000Z</time>
      </trkpt>
      <trkpt lat="59.0822839737" lon="29.9926114082">
        <time>2026-04-22T12:20:03.000Z</time>
      </trkpt>
      <trkpt lat="59.0822196007" lon="29.9927186966">
        <time>2026-04-22T12:20:06.000Z</time>
      </trkpt>
      <trkpt lat="59.082198143" lon="29.992825985">
        <time>2026-04-22T12:20:08.000Z</time>
      </trkpt>
      <trkpt lat="59.0821766853" lon="29.9929332733">
        <time>2026-04-22T12:20:11.000Z</time>
      </trkpt>
      <trkpt lat="59.0821552277" lon="29.9929976463">
        <time>2026-04-22T12:20:13.000Z</time>
      </trkpt>
      <trkpt lat="59.0821552277" lon="29.9930405617">
        <time>2026-04-22T12:20:16.000Z</time>
      </trkpt>
      <trkpt lat="59.08213377" lon="29.993083477">
        <time>2026-04-22T12:20:18.000Z</time>
      </trkpt>
      <trkpt lat="59.08213377" lon="29.9930620193">
        <time>2026-04-22T12:20:21.000Z</time>
      </trkpt>
      <trkpt lat="59.08213377" lon="29.9930620193">
        <time>2026-04-22T12:20:23.000Z</time>
      </trkpt>
      <trkpt lat="59.08213377" lon="29.9931049347">
        <time>2026-04-22T12:20:26.000Z</time>
      </trkpt>
      <trkpt lat="59.08213377" lon="29.9931907654">
        <time>2026-04-22T12:20:28.000Z</time>
      </trkpt>
      <trkpt lat="59.08213377" lon="29.9932980537">
        <time>2026-04-22T12:20:31.000Z</time>
      </trkpt>
      <trkpt lat="59.0820908546" lon="29.9933624268">
        <time>2026-04-22T12:20:33.000Z</time>
      </trkpt>
      <trkpt lat="59.0820479393" lon="29.9934053421">
        <time>2026-04-22T12:20:36.000Z</time>
      </trkpt>
      <trkpt lat="59.082005024" lon="29.9934482574">
        <time>2026-04-22T12:20:38.000Z</time>
      </trkpt>
      <trkpt lat="59.0819835663" lon="29.9934482574">
        <time>2026-04-22T12:20:41.000Z</time>
      </trkpt>
      <trkpt lat="59.0819835663" lon="29.9934911728">
        <time>2026-04-22T12:20:43.000Z</time>
      </trkpt>
      <trkpt lat="59.0819621086" lon="29.9934267998">
        <time>2026-04-22T12:20:46.000Z</time>
      </trkpt>
      <trkpt lat="59.0819621086" lon="29.9934053421">
        <time>2026-04-22T12:20:48.000Z</time>
      </trkpt>
      <trkpt lat="59.0819621086" lon="29.9934053421">
        <time>2026-04-22T12:20:51.000Z</time>
      </trkpt>
      <trkpt lat="59.0819191933" lon="29.9934482574">
        <time>2026-04-22T12:20:53.000Z</time>
      </trkpt>
      <trkpt lat="59.0818548203" lon="29.9935340881">
        <time>2026-04-22T12:20:56.000Z</time>
      </trkpt>
      <trkpt lat="59.0817904472" lon="29.9935984612">
        <time>2026-04-22T12:20:58.000Z</time>
      </trkpt>
      <trkpt lat="59.0817689896" lon="29.9936199188">
        <time>2026-04-22T12:21:01.000Z</time>
      </trkpt>
      <trkpt lat="59.0817689896" lon="29.9936199188">
        <time>2026-04-22T12:21:03.000Z</time>
      </trkpt>
      <trkpt lat="59.0817260742" lon="29.9935770035">
        <time>2026-04-22T12:21:06.000Z</time>
      </trkpt>
      <trkpt lat="59.0817260742" lon="29.9935555458">
        <time>2026-04-22T12:21:08.000Z</time>
      </trkpt>
      <trkpt lat="59.0816831589" lon="29.9935555458">
        <time>2026-04-22T12:21:11.000Z</time>
      </trkpt>
      <trkpt lat="59.0816402435" lon="29.9935340881">
        <time>2026-04-22T12:21:13.000Z</time>
      </trkpt>
      <trkpt lat="59.0816187859" lon="29.9935555458">
        <time>2026-04-22T12:21:16.000Z</time>
      </trkpt>
      <trkpt lat="59.0816187859" lon="29.9936199188">
        <time>2026-04-22T12:21:18.000Z</time>
      </trkpt>
      <trkpt lat="59.0815973282" lon="29.9936413765">
        <time>2026-04-22T12:21:21.000Z</time>
      </trkpt>
      <trkpt lat="59.0816187859" lon="29.9936842918">
        <time>2026-04-22T12:21:23.000Z</time>
      </trkpt>
      <trkpt lat="59.0816617012" lon="29.9937701225">
        <time>2026-04-22T12:21:26.000Z</time>
      </trkpt>
      <trkpt lat="59.0817260742" lon="29.9938774109">
        <time>2026-04-22T12:21:28.000Z</time>
      </trkpt>
      <trkpt lat="59.0818119049" lon="29.9939417839">
        <time>2026-04-22T12:21:33.000Z</time>
      </trkpt>
      <trkpt lat="59.0818977356" lon="29.9940061569">
        <time>2026-04-22T12:21:36.000Z</time>
      </trkpt>
      <trkpt lat="59.0819191933" lon="29.9940061569">
        <time>2026-04-22T12:21:38.000Z</time>
      </trkpt>
      <trkpt lat="59.0818977356" lon="29.9939846992">
        <time>2026-04-22T12:21:41.000Z</time>
      </trkpt>
      <trkpt lat="59.0818333626" lon="29.9939203262">
        <time>2026-04-22T12:21:46.000Z</time>
      </trkpt>
      <trkpt lat="59.0818119049" lon="29.9937915802">
        <time>2026-04-22T12:21:48.000Z</time>
      </trkpt>
      <trkpt lat="59.0817689896" lon="29.9935770035">
        <time>2026-04-22T12:21:51.000Z</time>
      </trkpt>
      <trkpt lat="59.0817046165" lon="29.9934053421">
        <time>2026-04-22T12:21:53.000Z</time>
      </trkpt>
      <trkpt lat="59.0816617012" lon="29.9932551384">
        <time>2026-04-22T12:21:56.000Z</time>
      </trkpt>
      <trkpt lat="59.0816617012" lon="29.9932336807">
        <time>2026-04-22T12:21:58.000Z</time>
      </trkpt>
      <trkpt lat="59.0816831589" lon="29.99314785">
        <time>2026-04-22T12:22:01.000Z</time>
      </trkpt>
      <trkpt lat="59.0816617012" lon="29.9931263924">
        <time>2026-04-22T12:22:03.000Z</time>
      </trkpt>
      <trkpt lat="59.0816187859" lon="29.993083477">
        <time>2026-04-22T12:22:06.000Z</time>
      </trkpt>
      <trkpt lat="59.0816187859" lon="29.993019104">
        <time>2026-04-22T12:22:08.000Z</time>
      </trkpt>
      <trkpt lat="59.0816187859" lon="29.9929761887">
        <time>2026-04-22T12:22:11.000Z</time>
      </trkpt>
      <trkpt lat="59.0816402435" lon="29.992890358">
        <time>2026-04-22T12:22:13.000Z</time>
      </trkpt>
      <trkpt lat="59.0816402435" lon="29.9928045273">
        <time>2026-04-22T12:22:16.000Z</time>
      </trkpt>
      <trkpt lat="59.0816402435" lon="29.9927830696">
        <time>2026-04-22T12:22:18.000Z</time>
      </trkpt>
      <trkpt lat="59.0815973282" lon="29.9927830696">
        <time>2026-04-22T12:22:21.000Z</time>
      </trkpt>
      <trkpt lat="59.0815758705" lon="29.9927616119">
        <time>2026-04-22T12:22:23.000Z</time>
      </trkpt>
      <trkpt lat="59.0815758705" lon="29.9926972389">
        <time>2026-04-22T12:22:26.000Z</time>
      </trkpt>
      <trkpt lat="59.0815758705" lon="29.9926328659">
        <time>2026-04-22T12:22:28.000Z</time>
      </trkpt>
      <trkpt lat="59.0815544128" lon="29.9926114082">
        <time>2026-04-22T12:22:31.000Z</time>
      </trkpt>
      <trkpt lat="59.0815329552" lon="29.9925684929">
        <time>2026-04-22T12:22:33.000Z</time>
      </trkpt>
      <trkpt lat="59.0815114975" lon="29.9925041199">
        <time>2026-04-22T12:22:36.000Z</time>
      </trkpt>
      <trkpt lat="59.0814900398" lon="29.9924182892">
        <time>2026-04-22T12:22:38.000Z</time>
      </trkpt>
      <trkpt lat="59.0815114975" lon="29.9924182892">
        <time>2026-04-22T12:22:41.000Z</time>
      </trkpt>
      <trkpt lat="59.0815114975" lon="29.9923968315">
        <time>2026-04-22T12:22:43.000Z</time>
      </trkpt>
      <trkpt lat="59.0815329552" lon="29.9923968315">
        <time>2026-04-22T12:22:46.000Z</time>
      </trkpt>
      <trkpt lat="59.0815329552" lon="29.9923539162">
        <time>2026-04-22T12:22:48.000Z</time>
      </trkpt>
      <trkpt lat="59.0815544128" lon="29.9923753738">
        <time>2026-04-22T12:22:51.000Z</time>
      </trkpt>
      <trkpt lat="59.0815544128" lon="29.9923539162">
        <time>2026-04-22T12:22:53.000Z</time>
      </trkpt>
      <trkpt lat="59.0815544128" lon="29.9922895432">
        <time>2026-04-22T12:22:56.000Z</time>
      </trkpt>
      <trkpt lat="59.0815329552" lon="29.9922251701">
        <time>2026-04-22T12:22:58.000Z</time>
      </trkpt>
      <trkpt lat="59.0815114975" lon="29.9921393394">
        <time>2026-04-22T12:23:01.000Z</time>
      </trkpt>
      <trkpt lat="59.0814900398" lon="29.9920749664">
        <time>2026-04-22T12:23:03.000Z</time>
      </trkpt>
      <trkpt lat="59.0814685822" lon="29.9920749664">
        <time>2026-04-22T12:23:06.000Z</time>
      </trkpt>
      <trkpt lat="59.0814685822" lon="29.9920320511">
        <time>2026-04-22T12:23:08.000Z</time>
      </trkpt>
      <trkpt lat="59.0814685822" lon="29.9919891357">
        <time>2026-04-22T12:23:11.000Z</time>
      </trkpt>
      <trkpt lat="59.0814685822" lon="29.9919676781">
        <time>2026-04-22T12:23:13.000Z</time>
      </trkpt>
      <trkpt lat="59.0814900398" lon="29.9919247627">
        <time>2026-04-22T12:23:16.000Z</time>
      </trkpt>
      <trkpt lat="59.0815114975" lon="29.9919033051">
        <time>2026-04-22T12:23:18.000Z</time>
      </trkpt>
      <trkpt lat="59.0815114975" lon="29.991838932">
        <time>2026-04-22T12:23:21.000Z</time>
      </trkpt>
      <trkpt lat="59.0815329552" lon="29.9917960167">
        <time>2026-04-22T12:23:23.000Z</time>
      </trkpt>
      <trkpt lat="59.0815544128" lon="29.9917960167">
        <time>2026-04-22T12:23:26.000Z</time>
      </trkpt>
      <trkpt lat="59.0815758705" lon="29.991838932">
        <time>2026-04-22T12:23:28.000Z</time>
      </trkpt>
      <trkpt lat="59.0815544128" lon="29.9918174744">
        <time>2026-04-22T12:23:31.000Z</time>
      </trkpt>
      <trkpt lat="59.0815758705" lon="29.9917960167">
        <time>2026-04-22T12:23:33.000Z</time>
      </trkpt>
      <trkpt lat="59.0815758705" lon="29.9918174744">
        <time>2026-04-22T12:23:36.000Z</time>
      </trkpt>
      <trkpt lat="59.0815544128" lon="29.9918174744">
        <time>2026-04-22T12:23:38.000Z</time>
      </trkpt>
      <trkpt lat="59.0815114975" lon="29.9917960167">
        <time>2026-04-22T12:23:41.000Z</time>
      </trkpt>
      <trkpt lat="59.0815114975" lon="29.9918174744">
        <time>2026-04-22T12:23:43.000Z</time>
      </trkpt>
      <trkpt lat="59.0815114975" lon="29.9918174744">
        <time>2026-04-22T12:23:46.000Z</time>
      </trkpt>
      <trkpt lat="59.0815114975" lon="29.9918174744">
        <time>2026-04-22T12:23:48.000Z</time>
      </trkpt>
      <trkpt lat="59.0815329552" lon="29.9918174744">
        <time>2026-04-22T12:23:51.000Z</time>
      </trkpt>
      <trkpt lat="59.0815758705" lon="29.991838932">
        <time>2026-04-22T12:23:53.000Z</time>
      </trkpt>
      <trkpt lat="59.0815973282" lon="29.9918603897">
        <time>2026-04-22T12:23:56.000Z</time>
      </trkpt>
      <trkpt lat="59.0816187859" lon="29.9918603897">
        <time>2026-04-22T12:23:58.000Z</time>
      </trkpt>
      <trkpt lat="59.0815973282" lon="29.991838932">
        <time>2026-04-22T12:24:01.000Z</time>
      </trkpt>
      <trkpt lat="59.0816187859" lon="29.991838932">
        <time>2026-04-22T12:24:03.000Z</time>
      </trkpt>
      <trkpt lat="59.0816617012" lon="29.991838932">
        <time>2026-04-22T12:24:06.000Z</time>
      </trkpt>
      <trkpt lat="59.0816831589" lon="29.9918603897">
        <time>2026-04-22T12:24:08.000Z</time>
      </trkpt>
      <trkpt lat="59.0816831589" lon="29.9918603897">
        <time>2026-04-22T12:24:11.000Z</time>
      </trkpt>
      <trkpt lat="59.0816831589" lon="29.9918603897">
        <time>2026-04-22T12:24:13.000Z</time>
      </trkpt>
      <trkpt lat="59.0816831589" lon="29.9918818474">
        <time>2026-04-22T12:24:16.000Z</time>
      </trkpt>
      <trkpt lat="59.0817046165" lon="29.9919676781">
        <time>2026-04-22T12:24:18.000Z</time>
      </trkpt>
      <trkpt lat="59.0817046165" lon="29.9920964241">
        <time>2026-04-22T12:24:21.000Z</time>
      </trkpt>
      <trkpt lat="59.0817475319" lon="29.9921393394">
        <time>2026-04-22T12:24:23.000Z</time>
      </trkpt>
      <trkpt lat="59.0817689896" lon="29.9921607971">
        <time>2026-04-22T12:24:26.000Z</time>
      </trkpt>
      <trkpt lat="59.0818119049" lon="29.9921607971">
        <time>2026-04-22T12:24:28.000Z</time>
      </trkpt>
      <trkpt lat="59.0818548203" lon="29.9922037125">
        <time>2026-04-22T12:24:31.000Z</time>
      </trkpt>
      <trkpt lat="59.0818977356" lon="29.9922037125">
        <time>2026-04-22T12:24:33.000Z</time>
      </trkpt>
      <trkpt lat="59.0818977356" lon="29.9922037125">
        <time>2026-04-22T12:24:36.000Z</time>
      </trkpt>
      <trkpt lat="59.0818977356" lon="29.9922251701">
        <time>2026-04-22T12:24:38.000Z</time>
      </trkpt>
      <trkpt lat="59.0819191933" lon="29.9922680855">
        <time>2026-04-22T12:24:41.000Z</time>
      </trkpt>
      <trkpt lat="59.0819406509" lon="29.9923110008">
        <time>2026-04-22T12:24:43.000Z</time>
      </trkpt>
      <trkpt lat="59.0819835663" lon="29.9923110008">
        <time>2026-04-22T12:24:46.000Z</time>
      </trkpt>
      <trkpt lat="59.0820264816" lon="29.9922680855">
        <time>2026-04-22T12:24:48.000Z</time>
      </trkpt>
      <trkpt lat="59.082069397" lon="29.9922037125">
        <time>2026-04-22T12:24:51.000Z</time>
      </trkpt>
      <trkpt lat="59.0820908546" lon="29.9921393394">
        <time>2026-04-22T12:24:53.000Z</time>
      </trkpt>
      <trkpt lat="59.0820908546" lon="29.9921178818">
        <time>2026-04-22T12:24:56.000Z</time>
      </trkpt>
      <trkpt lat="59.08213377" lon="29.9920964241">
        <time>2026-04-22T12:24:58.000Z</time>
      </trkpt>
      <trkpt lat="59.082198143" lon="29.9920749664">
        <time>2026-04-22T12:25:01.000Z</time>
      </trkpt>
      <trkpt lat="59.082198143" lon="29.9919891357">
        <time>2026-04-22T12:25:03.000Z</time>
      </trkpt>
      <trkpt lat="59.0821766853" lon="29.9918603897">
        <time>2026-04-22T12:25:06.000Z</time>
      </trkpt>
      <trkpt lat="59.0822196007" lon="29.991838932">
        <time>2026-04-22T12:25:08.000Z</time>
      </trkpt>
      <trkpt lat="59.0821766853" lon="29.991774559">
        <time>2026-04-22T12:25:11.000Z</time>
      </trkpt>
      <trkpt lat="59.0822196007" lon="29.9916887283">
        <time>2026-04-22T12:25:13.000Z</time>
      </trkpt>
      <trkpt lat="59.082198143" lon="29.9916028976">
        <time>2026-04-22T12:25:16.000Z</time>
      </trkpt>
      <trkpt lat="59.0822196007" lon="29.9915599823">
        <time>2026-04-22T12:25:18.000Z</time>
      </trkpt>
      <trkpt lat="59.0822196007" lon="29.991645813">
        <time>2026-04-22T12:25:21.000Z</time>
      </trkpt>
      <trkpt lat="59.0822410583" lon="29.9917316437">
        <time>2026-04-22T12:25:23.000Z</time>
      </trkpt>
      <trkpt lat="59.082262516" lon="29.991838932">
        <time>2026-04-22T12:25:26.000Z</time>
      </trkpt>
      <trkpt lat="59.0823054314" lon="29.9918818474">
        <time>2026-04-22T12:25:28.000Z</time>
      </trkpt>
      <trkpt lat="59.0823483467" lon="29.9918603897">
        <time>2026-04-22T12:25:31.000Z</time>
      </trkpt>
      <trkpt lat="59.0823483467" lon="29.9918603897">
        <time>2026-04-22T12:25:33.000Z</time>
      </trkpt>
      <trkpt lat="59.082326889" lon="29.9918174744">
        <time>2026-04-22T12:25:36.000Z</time>
      </trkpt>
      <trkpt lat="59.0823483467" lon="29.9917316437">
        <time>2026-04-22T12:25:38.000Z</time>
      </trkpt>
      <trkpt lat="59.0823483467" lon="29.9916887283">
        <time>2026-04-22T12:25:41.000Z</time>
      </trkpt>
      <trkpt lat="59.082326889" lon="29.9916672707">
        <time>2026-04-22T12:25:43.000Z</time>
      </trkpt>
      <trkpt lat="59.082326889" lon="29.9916028976">
        <time>2026-04-22T12:25:46.000Z</time>
      </trkpt>
      <trkpt lat="59.082326889" lon="29.991517067">
        <time>2026-04-22T12:25:48.000Z</time>
      </trkpt>
      <trkpt lat="59.082326889" lon="29.9914741516">
        <time>2026-04-22T12:25:51.000Z</time>
      </trkpt>
      <trkpt lat="59.082326889" lon="29.9914312363">
        <time>2026-04-22T12:25:53.000Z</time>
      </trkpt>
      <trkpt lat="59.082326889" lon="29.9914097786">
        <time>2026-04-22T12:25:56.000Z</time>
      </trkpt>
      <trkpt lat="59.0823054314" lon="29.9913668633">
        <time>2026-04-22T12:25:58.000Z</time>
      </trkpt>
      <trkpt lat="59.082262516" lon="29.9913024902">
        <time>2026-04-22T12:26:01.000Z</time>
      </trkpt>
      <trkpt lat="59.0822839737" lon="29.9912381172">
        <time>2026-04-22T12:26:03.000Z</time>
      </trkpt>
      <trkpt lat="59.082326889" lon="29.9912166595">
        <time>2026-04-22T12:26:06.000Z</time>
      </trkpt>
      <trkpt lat="59.0823698044" lon="29.9911737442">
        <time>2026-04-22T12:26:08.000Z</time>
      </trkpt>
      <trkpt lat="59.0823698044" lon="29.9910664558">
        <time>2026-04-22T12:26:11.000Z</time>
      </trkpt>
      <trkpt lat="59.0824127197" lon="29.9910020828">
        <time>2026-04-22T12:26:13.000Z</time>
      </trkpt>
      <trkpt lat="59.0824127197" lon="29.9910020828">
        <time>2026-04-22T12:26:16.000Z</time>
      </trkpt>
      <trkpt lat="59.0824127197" lon="29.9910020828">
        <time>2026-04-22T12:26:18.000Z</time>
      </trkpt>
      <trkpt lat="59.0824127197" lon="29.9910020828">
        <time>2026-04-22T12:26:21.000Z</time>
      </trkpt>
      <trkpt lat="59.0824127197" lon="29.9909806252">
        <time>2026-04-22T12:26:23.000Z</time>
      </trkpt>
      <trkpt lat="59.0824556351" lon="29.9908947945">
        <time>2026-04-22T12:26:26.000Z</time>
      </trkpt>
      <trkpt lat="59.0824556351" lon="29.9908733368">
        <time>2026-04-22T12:26:28.000Z</time>
      </trkpt>
      <trkpt lat="59.0824770927" lon="29.9908947945">
        <time>2026-04-22T12:26:31.000Z</time>
      </trkpt>
      <trkpt lat="59.0825200081" lon="29.9908733368">
        <time>2026-04-22T12:26:33.000Z</time>
      </trkpt>
      <trkpt lat="59.0825414658" lon="29.9908304214">
        <time>2026-04-22T12:26:36.000Z</time>
      </trkpt>
      <trkpt lat="59.0825414658" lon="29.9907660484">
        <time>2026-04-22T12:26:38.000Z</time>
      </trkpt>
      <trkpt lat="59.0825629234" lon="29.9907016754">
        <time>2026-04-22T12:26:41.000Z</time>
      </trkpt>
      <trkpt lat="59.0825629234" lon="29.9906158447">
        <time>2026-04-22T12:26:43.000Z</time>
      </trkpt>
      <trkpt lat="59.0825200081" lon="29.9905729294">
        <time>2026-04-22T12:26:46.000Z</time>
      </trkpt>
      <trkpt lat="59.0824770927" lon="29.9904870987">
        <time>2026-04-22T12:26:48.000Z</time>
      </trkpt>
      <trkpt lat="59.0824770927" lon="29.9904441833">
        <time>2026-04-22T12:26:51.000Z</time>
      </trkpt>
      <trkpt lat="59.0824770927" lon="29.990401268">
        <time>2026-04-22T12:26:53.000Z</time>
      </trkpt>
      <trkpt lat="59.0824985504" lon="29.990336895">
        <time>2026-04-22T12:26:56.000Z</time>
      </trkpt>
      <trkpt lat="59.0824985504" lon="29.990272522">
        <time>2026-04-22T12:26:58.000Z</time>
      </trkpt>
      <trkpt lat="59.0825200081" lon="29.9902510643">
        <time>2026-04-22T12:27:01.000Z</time>
      </trkpt>
      <trkpt lat="59.0825414658" lon="29.990208149">
        <time>2026-04-22T12:27:03.000Z</time>
      </trkpt>
      <trkpt lat="59.0825414658" lon="29.9901652336">
        <time>2026-04-22T12:27:06.000Z</time>
      </trkpt>
      <trkpt lat="59.0825414658" lon="29.9901223183">
        <time>2026-04-22T12:27:08.000Z</time>
      </trkpt>
      <trkpt lat="59.0825414658" lon="29.9900794029">
        <time>2026-04-22T12:27:11.000Z</time>
      </trkpt>
      <trkpt lat="59.0825629234" lon="29.9900579453">
        <time>2026-04-22T12:27:13.000Z</time>
      </trkpt>
      <trkpt lat="59.0825843811" lon="29.9900364876">
        <time>2026-04-22T12:27:16.000Z</time>
      </trkpt>
      <trkpt lat="59.0826058388" lon="29.9899935722">
        <time>2026-04-22T12:27:18.000Z</time>
      </trkpt>
      <trkpt lat="59.0826272964" lon="29.9899506569">
        <time>2026-04-22T12:27:21.000Z</time>
      </trkpt>
      <trkpt lat="59.0826272964" lon="29.9899077415">
        <time>2026-04-22T12:27:23.000Z</time>
      </trkpt>
      <trkpt lat="59.0826272964" lon="29.9898433685">
        <time>2026-04-22T12:27:26.000Z</time>
      </trkpt>
      <trkpt lat="59.0826272964" lon="29.9898004532">
        <time>2026-04-22T12:27:28.000Z</time>
      </trkpt>
      <trkpt lat="59.0826272964" lon="29.9897146225">
        <time>2026-04-22T12:27:31.000Z</time>
      </trkpt>
      <trkpt lat="59.0826487541" lon="29.9896502495">
        <time>2026-04-22T12:27:33.000Z</time>
      </trkpt>
      <trkpt lat="59.0826702118" lon="29.9896073341">
        <time>2026-04-22T12:27:36.000Z</time>
      </trkpt>
      <trkpt lat="59.0826916695" lon="29.9896502495">
        <time>2026-04-22T12:27:38.000Z</time>
      </trkpt>
      <trkpt lat="59.0827560425" lon="29.9896717072">
        <time>2026-04-22T12:27:41.000Z</time>
      </trkpt>
      <trkpt lat="59.0828204155" lon="29.9896931648">
        <time>2026-04-22T12:27:43.000Z</time>
      </trkpt>
      <trkpt lat="59.0828418732" lon="29.9896502495">
        <time>2026-04-22T12:27:46.000Z</time>
      </trkpt>
      <trkpt lat="59.0828633308" lon="29.9895429611">
        <time>2026-04-22T12:27:48.000Z</time>
      </trkpt>
      <trkpt lat="59.0829062462" lon="29.9895215034">
        <time>2026-04-22T12:27:51.000Z</time>
      </trkpt>
      <trkpt lat="59.0829062462" lon="29.9895215034">
        <time>2026-04-22T12:27:53.000Z</time>
      </trkpt>
      <trkpt lat="59.0829062462" lon="29.9895215034">
        <time>2026-04-22T12:27:56.000Z</time>
      </trkpt>
      <trkpt lat="59.0829062462" lon="29.9895215034">
        <time>2026-04-22T12:27:58.000Z</time>
      </trkpt>
      <trkpt lat="59.0829062462" lon="29.9895215034">
        <time>2026-04-22T12:28:01.000Z</time>
      </trkpt>
      <trkpt lat="59.0829062462" lon="29.9895215034">
        <time>2026-04-22T12:28:03.000Z</time>
      </trkpt>
      <trkpt lat="59.0829277039" lon="29.9895000458">
        <time>2026-04-22T12:28:06.000Z</time>
      </trkpt>
      <trkpt lat="59.0829062462" lon="29.9895000458">
        <time>2026-04-22T12:28:08.000Z</time>
      </trkpt>
      <trkpt lat="59.0828847885" lon="29.9895000458">
        <time>2026-04-22T12:28:11.000Z</time>
      </trkpt>
      <trkpt lat="59.0828633308" lon="29.9894785881">
        <time>2026-04-22T12:28:13.000Z</time>
      </trkpt>
      <trkpt lat="59.0828418732" lon="29.9894571304">
        <time>2026-04-22T12:28:16.000Z</time>
      </trkpt>
      <trkpt lat="59.0827989578" lon="29.9894571304">
        <time>2026-04-22T12:28:18.000Z</time>
      </trkpt>
      <trkpt lat="59.0827989578" lon="29.9894571304">
        <time>2026-04-22T12:28:21.000Z</time>
      </trkpt>
      <trkpt lat="59.0827989578" lon="29.9894571304">
        <time>2026-04-22T12:28:23.000Z</time>
      </trkpt>
      <trkpt lat="59.0828204155" lon="29.9894571304">
        <time>2026-04-22T12:28:26.000Z</time>
      </trkpt>
      <trkpt lat="59.0828633308" lon="29.9894571304">
        <time>2026-04-22T12:28:28.000Z</time>
      </trkpt>
      <trkpt lat="59.0828847885" lon="29.9895000458">
        <time>2026-04-22T12:28:31.000Z</time>
      </trkpt>
      <trkpt lat="59.0829062462" lon="29.9895215034">
        <time>2026-04-22T12:28:33.000Z</time>
      </trkpt>
      <trkpt lat="59.0829491615" lon="29.9895215034">
        <time>2026-04-22T12:28:36.000Z</time>
      </trkpt>
      <trkpt lat="59.0829920769" lon="29.9895429611">
        <time>2026-04-22T12:28:38.000Z</time>
      </trkpt>
      <trkpt lat="59.0830564499" lon="29.9895644188">
        <time>2026-04-22T12:28:41.000Z</time>
      </trkpt>
      <trkpt lat="59.0830993652" lon="29.9895644188">
        <time>2026-04-22T12:28:43.000Z</time>
      </trkpt>
      <trkpt lat="59.0831637383" lon="29.9895644188">
        <time>2026-04-22T12:28:46.000Z</time>
      </trkpt>
      <trkpt lat="59.0832281113" lon="29.9895858765">
        <time>2026-04-22T12:28:48.000Z</time>
      </trkpt>
      <trkpt lat="59.0832495689" lon="29.9896287918">
        <time>2026-04-22T12:28:51.000Z</time>
      </trkpt>
      <trkpt lat="59.0832924843" lon="29.9896717072">
        <time>2026-04-22T12:28:53.000Z</time>
      </trkpt>
      <trkpt lat="59.0833353996" lon="29.9896717072">
        <time>2026-04-22T12:28:56.000Z</time>
      </trkpt>
      <trkpt lat="59.083378315" lon="29.9896717072">
        <time>2026-04-22T12:28:58.000Z</time>
      </trkpt>
      <trkpt lat="59.083378315" lon="29.9896931648">
        <time>2026-04-22T12:29:01.000Z</time>
      </trkpt>
      <trkpt lat="59.083378315" lon="29.9896931648">
        <time>2026-04-22T12:29:03.000Z</time>
      </trkpt>
      <trkpt lat="59.083378315" lon="29.9896931648">
        <time>2026-04-22T12:29:06.000Z</time>
      </trkpt>
      <trkpt lat="59.083378315" lon="29.9896931648">
        <time>2026-04-22T12:29:08.000Z</time>
      </trkpt>
      <trkpt lat="59.083378315" lon="29.9896931648">
        <time>2026-04-22T12:29:11.000Z</time>
      </trkpt>
      <trkpt lat="59.0833997726" lon="29.9896931648">
        <time>2026-04-22T12:29:13.000Z</time>
      </trkpt>
      <trkpt lat="59.0834212303" lon="29.9896717072">
        <time>2026-04-22T12:29:16.000Z</time>
      </trkpt>
      <trkpt lat="59.0834212303" lon="29.9896717072">
        <time>2026-04-22T12:29:18.000Z</time>
      </trkpt>
      <trkpt lat="59.083442688" lon="29.9896717072">
        <time>2026-04-22T12:29:21.000Z</time>
      </trkpt>
      <trkpt lat="59.0834641457" lon="29.9896717072">
        <time>2026-04-22T12:29:23.000Z</time>
      </trkpt>
      <trkpt lat="59.083507061" lon="29.9896717072">
        <time>2026-04-22T12:29:26.000Z</time>
      </trkpt>
      <trkpt lat="59.0835499763" lon="29.9897146225">
        <time>2026-04-22T12:29:28.000Z</time>
      </trkpt>
      <trkpt lat="59.0835928917" lon="29.9897360802">
        <time>2026-04-22T12:29:31.000Z</time>
      </trkpt>
      <trkpt lat="59.0836572647" lon="29.9897575378">
        <time>2026-04-22T12:29:33.000Z</time>
      </trkpt>
      <trkpt lat="59.0836787224" lon="29.9897575378">
        <time>2026-04-22T12:29:36.000Z</time>
      </trkpt>
      <trkpt lat="59.0836787224" lon="29.9896931648">
        <time>2026-04-22T12:29:38.000Z</time>
      </trkpt>
      <trkpt lat="59.0836787224" lon="29.9896931648">
        <time>2026-04-22T12:29:41.000Z</time>
      </trkpt>
      <trkpt lat="59.0837001801" lon="29.9897575378">
        <time>2026-04-22T12:29:43.000Z</time>
      </trkpt>
      <trkpt lat="59.0837430954" lon="29.9897789955">
        <time>2026-04-22T12:29:46.000Z</time>
      </trkpt>
      <trkpt lat="59.0838074684" lon="29.9898004532">
        <time>2026-04-22T12:29:48.000Z</time>
      </trkpt>
      <trkpt lat="59.0838289261" lon="29.9897789955">
        <time>2026-04-22T12:29:51.000Z</time>
      </trkpt>
      <trkpt lat="59.0838289261" lon="29.9897789955">
        <time>2026-04-22T12:29:53.000Z</time>
      </trkpt>
      <trkpt lat="59.0838289261" lon="29.9898004532">
        <time>2026-04-22T12:29:56.000Z</time>
      </trkpt>
      <trkpt lat="59.0838289261" lon="29.9898004532">
        <time>2026-04-22T12:29:58.000Z</time>
      </trkpt>
      <trkpt lat="59.0838289261" lon="29.9898219109">
        <time>2026-04-22T12:30:01.000Z</time>
      </trkpt>
      <trkpt lat="59.0838718414" lon="29.9898219109">
        <time>2026-04-22T12:30:03.000Z</time>
      </trkpt>
      <trkpt lat="59.0839147568" lon="29.9898433685">
        <time>2026-04-22T12:30:06.000Z</time>
      </trkpt>
      <trkpt lat="59.0839576721" lon="29.9898219109">
        <time>2026-04-22T12:30:08.000Z</time>
      </trkpt>
      <trkpt lat="59.0840005875" lon="29.9898433685">
        <time>2026-04-22T12:30:11.000Z</time>
      </trkpt>
      <trkpt lat="59.0840220451" lon="29.9898433685">
        <time>2026-04-22T12:30:13.000Z</time>
      </trkpt>
      <trkpt lat="59.0840649605" lon="29.9898648262">
        <time>2026-04-22T12:30:16.000Z</time>
      </trkpt>
      <trkpt lat="59.0840864182" lon="29.9898862839">
        <time>2026-04-22T12:30:18.000Z</time>
      </trkpt>
      <trkpt lat="59.0841507912" lon="29.9899077415">
        <time>2026-04-22T12:30:21.000Z</time>
      </trkpt>
      <trkpt lat="59.0841937065" lon="29.9899077415">
        <time>2026-04-22T12:30:23.000Z</time>
      </trkpt>
      <trkpt lat="59.0842366219" lon="29.9899291992">
        <time>2026-04-22T12:30:26.000Z</time>
      </trkpt>
      <trkpt lat="59.0842795372" lon="29.9899291992">
        <time>2026-04-22T12:30:28.000Z</time>
      </trkpt>
      <trkpt lat="59.0843439102" lon="29.9899721146">
        <time>2026-04-22T12:30:31.000Z</time>
      </trkpt>
      <trkpt lat="59.0843868256" lon="29.9899721146">
        <time>2026-04-22T12:30:33.000Z</time>
      </trkpt>
      <trkpt lat="59.0843868256" lon="29.9899721146">
        <time>2026-04-22T12:30:36.000Z</time>
      </trkpt>
      <trkpt lat="59.0843868256" lon="29.9899721146">
        <time>2026-04-22T12:30:38.000Z</time>
      </trkpt>
      <trkpt lat="59.0844297409" lon="29.9899935722">
        <time>2026-04-22T12:30:41.000Z</time>
      </trkpt>
      <trkpt lat="59.0844511986" lon="29.9900579453">
        <time>2026-04-22T12:30:43.000Z</time>
      </trkpt>
      <trkpt lat="59.0844726562" lon="29.9900579453">
        <time>2026-04-22T12:30:46.000Z</time>
      </trkpt>
      <trkpt lat="59.0844726562" lon="29.9900579453">
        <time>2026-04-22T12:30:48.000Z</time>
      </trkpt>
      <trkpt lat="59.0844511986" lon="29.9900150299">
        <time>2026-04-22T12:30:51.000Z</time>
      </trkpt>
      <trkpt lat="59.0844511986" lon="29.9899506569">
        <time>2026-04-22T12:30:53.000Z</time>
      </trkpt>
      <trkpt lat="59.0844726562" lon="29.9899721146">
        <time>2026-04-22T12:30:56.000Z</time>
      </trkpt>
      <trkpt lat="59.0844941139" lon="29.9900364876">
        <time>2026-04-22T12:30:58.000Z</time>
      </trkpt>
      <trkpt lat="59.0845370293" lon="29.9900364876">
        <time>2026-04-22T12:31:01.000Z</time>
      </trkpt>
      <trkpt lat="59.0845799446" lon="29.9900794029">
        <time>2026-04-22T12:31:03.000Z</time>
      </trkpt>
      <trkpt lat="59.0846014023" lon="29.9900579453">
        <time>2026-04-22T12:31:06.000Z</time>
      </trkpt>
      <trkpt lat="59.08462286" lon="29.9900364876">
        <time>2026-04-22T12:31:08.000Z</time>
      </trkpt>
      <trkpt lat="59.0846443176" lon="29.9900150299">
        <time>2026-04-22T12:31:11.000Z</time>
      </trkpt>
      <trkpt lat="59.0846657753" lon="29.9900364876">
        <time>2026-04-22T12:31:13.000Z</time>
      </trkpt>
      <trkpt lat="59.0846657753" lon="29.9900579453">
        <time>2026-04-22T12:31:16.000Z</time>
      </trkpt>
      <trkpt lat="59.084687233" lon="29.9900579453">
        <time>2026-04-22T12:31:18.000Z</time>
      </trkpt>
      <trkpt lat="59.0847301483" lon="29.9900579453">
        <time>2026-04-22T12:31:21.000Z</time>
      </trkpt>
      <trkpt lat="59.0847945213" lon="29.9900579453">
        <time>2026-04-22T12:31:23.000Z</time>
      </trkpt>
      <trkpt lat="59.0848374367" lon="29.9900579453">
        <time>2026-04-22T12:31:26.000Z</time>
      </trkpt>
      <trkpt lat="59.084880352" lon="29.9900794029">
        <time>2026-04-22T12:31:28.000Z</time>
      </trkpt>
      <trkpt lat="59.0849232674" lon="29.9900794029">
        <time>2026-04-22T12:31:31.000Z</time>
      </trkpt>
      <trkpt lat="59.0849661827" lon="29.9900794029">
        <time>2026-04-22T12:31:33.000Z</time>
      </trkpt>
      <trkpt lat="59.0849661827" lon="29.9901223183">
        <time>2026-04-22T12:31:36.000Z</time>
      </trkpt>
      <trkpt lat="59.0850090981" lon="29.9901437759">
        <time>2026-04-22T12:31:38.000Z</time>
      </trkpt>
      <trkpt lat="59.0850734711" lon="29.9901437759">
        <time>2026-04-22T12:31:41.000Z</time>
      </trkpt>
      <trkpt lat="59.0851163864" lon="29.9901866913">
        <time>2026-04-22T12:31:43.000Z</time>
      </trkpt>
      <trkpt lat="59.0851378441" lon="29.9901866913">
        <time>2026-04-22T12:31:46.000Z</time>
      </trkpt>
      <trkpt lat="59.0851807594" lon="29.9901866913">
        <time>2026-04-22T12:31:48.000Z</time>
      </trkpt>
      <trkpt lat="59.0852236748" lon="29.9901652336">
        <time>2026-04-22T12:31:51.000Z</time>
      </trkpt>
      <trkpt lat="59.0852451324" lon="29.9901223183">
        <time>2026-04-22T12:31:53.000Z</time>
      </trkpt>
      <trkpt lat="59.0852236748" lon="29.9901437759">
        <time>2026-04-22T12:31:56.000Z</time>
      </trkpt>
      <trkpt lat="59.0852236748" lon="29.9901437759">
        <time>2026-04-22T12:31:58.000Z</time>
      </trkpt>
      <trkpt lat="59.0852451324" lon="29.9901652336">
        <time>2026-04-22T12:32:01.000Z</time>
      </trkpt>
      <trkpt lat="59.0852880478" lon="29.9901652336">
        <time>2026-04-22T12:32:03.000Z</time>
      </trkpt>
      <trkpt lat="59.0853095055" lon="29.9901652336">
        <time>2026-04-22T12:32:06.000Z</time>
      </trkpt>
      <trkpt lat="59.0853095055" lon="29.9902296066">
        <time>2026-04-22T12:32:08.000Z</time>
      </trkpt>
      <trkpt lat="59.0853953362" lon="29.990272522">
        <time>2026-04-22T12:32:11.000Z</time>
      </trkpt>
      <trkpt lat="59.0854597092" lon="29.990336895">
        <time>2026-04-22T12:32:13.000Z</time>
      </trkpt>
      <trkpt lat="59.0855240822" lon="29.990336895">
        <time>2026-04-22T12:32:16.000Z</time>
      </trkpt>
      <trkpt lat="59.0855455399" lon="29.9903154373">
        <time>2026-04-22T12:32:18.000Z</time>
      </trkpt>
      <trkpt lat="59.0856099129" lon="29.9903154373">
        <time>2026-04-22T12:32:21.000Z</time>
      </trkpt>
      <trkpt lat="59.0856313705" lon="29.9903154373">
        <time>2026-04-22T12:32:23.000Z</time>
      </trkpt>
      <trkpt lat="59.0856528282" lon="29.9903583527">
        <time>2026-04-22T12:32:26.000Z</time>
      </trkpt>
      <trkpt lat="59.0856742859" lon="29.9903798103">
        <time>2026-04-22T12:32:28.000Z</time>
      </trkpt>
      <trkpt lat="59.0856742859" lon="29.9903798103">
        <time>2026-04-22T12:32:31.000Z</time>
      </trkpt>
      <trkpt lat="59.0857172012" lon="29.9903798103">
        <time>2026-04-22T12:32:33.000Z</time>
      </trkpt>
      <trkpt lat="59.0857601166" lon="29.990401268">
        <time>2026-04-22T12:32:36.000Z</time>
      </trkpt>
      <trkpt lat="59.0858030319" lon="29.9904441833">
        <time>2026-04-22T12:32:38.000Z</time>
      </trkpt>
      <trkpt lat="59.0858674049" lon="29.9904441833">
        <time>2026-04-22T12:32:41.000Z</time>
      </trkpt>
      <trkpt lat="59.0859532356" lon="29.9904441833">
        <time>2026-04-22T12:32:43.000Z</time>
      </trkpt>
      <trkpt lat="59.085996151" lon="29.990465641">
        <time>2026-04-22T12:32:46.000Z</time>
      </trkpt>
      <trkpt lat="59.0860390663" lon="29.990401268">
        <time>2026-04-22T12:32:48.000Z</time>
      </trkpt>
      <trkpt lat="59.085996151" lon="29.9903154373">
        <time>2026-04-22T12:32:51.000Z</time>
      </trkpt>
      <trkpt lat="59.085931778" lon="29.9903154373">
        <time>2026-04-22T12:32:53.000Z</time>
      </trkpt>
      <trkpt lat="59.0858888626" lon="29.990272522">
        <time>2026-04-22T12:32:56.000Z</time>
      </trkpt>
      <trkpt lat="59.0859103203" lon="29.9901652336">
        <time>2026-04-22T12:32:58.000Z</time>
      </trkpt>
      <trkpt lat="59.085931778" lon="29.9900579453">
        <time>2026-04-22T12:33:01.000Z</time>
      </trkpt>
      <trkpt lat="59.0859746933" lon="29.9899721146">
        <time>2026-04-22T12:33:03.000Z</time>
      </trkpt>
      <trkpt lat="59.086060524" lon="29.9899506569">
        <time>2026-04-22T12:33:06.000Z</time>
      </trkpt>
      <trkpt lat="59.086124897" lon="29.9899935722">
        <time>2026-04-22T12:33:08.000Z</time>
      </trkpt>
      <trkpt lat="59.08618927" lon="29.9901223183">
        <time>2026-04-22T12:33:11.000Z</time>
      </trkpt>
      <trkpt lat="59.0862107277" lon="29.9903154373">
        <time>2026-04-22T12:33:13.000Z</time>
      </trkpt>
      <trkpt lat="59.0862107277" lon="29.9904870987">
        <time>2026-04-22T12:33:16.000Z</time>
      </trkpt>
      <trkpt lat="59.0862321854" lon="29.9905729294">
        <time>2026-04-22T12:33:18.000Z</time>
      </trkpt>
      <trkpt lat="59.0862751007" lon="29.9905729294">
        <time>2026-04-22T12:33:21.000Z</time>
      </trkpt>
      <trkpt lat="59.0862965584" lon="29.9905943871">
        <time>2026-04-22T12:33:23.000Z</time>
      </trkpt>
      <trkpt lat="59.0862965584" lon="29.9905729294">
        <time>2026-04-22T12:33:26.000Z</time>
      </trkpt>
      <trkpt lat="59.0862965584" lon="29.9905729294">
        <time>2026-04-22T12:33:28.000Z</time>
      </trkpt>
      <trkpt lat="59.0863180161" lon="29.9905729294">
        <time>2026-04-22T12:33:31.000Z</time>
      </trkpt>
      <trkpt lat="59.0863394737" lon="29.9905943871">
        <time>2026-04-22T12:33:33.000Z</time>
      </trkpt>
      <trkpt lat="59.0864038467" lon="29.9906373024">
        <time>2026-04-22T12:33:36.000Z</time>
      </trkpt>
      <trkpt lat="59.0864682198" lon="29.9906373024">
        <time>2026-04-22T12:33:38.000Z</time>
      </trkpt>
      <trkpt lat="59.0865111351" lon="29.9906587601">
        <time>2026-04-22T12:33:41.000Z</time>
      </trkpt>
      <trkpt lat="59.0865755081" lon="29.9906587601">
        <time>2026-04-22T12:33:43.000Z</time>
      </trkpt>
      <trkpt lat="59.0866184235" lon="29.9906802177">
        <time>2026-04-22T12:33:46.000Z</time>
      </trkpt>
      <trkpt lat="59.0866613388" lon="29.9907016754">
        <time>2026-04-22T12:33:48.000Z</time>
      </trkpt>
      <trkpt lat="59.0866827965" lon="29.9907016754">
        <time>2026-04-22T12:33:51.000Z</time>
      </trkpt>
      <trkpt lat="59.0866827965" lon="29.9907016754">
        <time>2026-04-22T12:33:53.000Z</time>
      </trkpt>
      <trkpt lat="59.0866827965" lon="29.9907016754">
        <time>2026-04-22T12:33:56.000Z</time>
      </trkpt>
      <trkpt lat="59.0866827965" lon="29.9907016754">
        <time>2026-04-22T12:33:58.000Z</time>
      </trkpt>
      <trkpt lat="59.0867042542" lon="29.9907231331">
        <time>2026-04-22T12:34:01.000Z</time>
      </trkpt>
      <trkpt lat="59.0867471695" lon="29.9907445908">
        <time>2026-04-22T12:34:03.000Z</time>
      </trkpt>
      <trkpt lat="59.0868115425" lon="29.9907660484">
        <time>2026-04-22T12:34:06.000Z</time>
      </trkpt>
      <trkpt lat="59.0868544579" lon="29.9907875061">
        <time>2026-04-22T12:34:08.000Z</time>
      </trkpt>
      <trkpt lat="59.0868973732" lon="29.9907660484">
        <time>2026-04-22T12:34:11.000Z</time>
      </trkpt>
      <trkpt lat="59.0869402885" lon="29.9907875061">
        <time>2026-04-22T12:34:13.000Z</time>
      </trkpt>
      <trkpt lat="59.0869832039" lon="29.9908304214">
        <time>2026-04-22T12:34:16.000Z</time>
      </trkpt>
      <trkpt lat="59.0869832039" lon="29.9908304214">
        <time>2026-04-22T12:34:18.000Z</time>
      </trkpt>
      <trkpt lat="59.0869832039" lon="29.9908304214">
        <time>2026-04-22T12:34:21.000Z</time>
      </trkpt>
      <trkpt lat="59.0870046616" lon="29.9908304214">
        <time>2026-04-22T12:34:23.000Z</time>
      </trkpt>
      <trkpt lat="59.0870261192" lon="29.9908518791">
        <time>2026-04-22T12:34:26.000Z</time>
      </trkpt>
      <trkpt lat="59.0870904922" lon="29.9908733368">
        <time>2026-04-22T12:34:28.000Z</time>
      </trkpt>
      <trkpt lat="59.0871334076" lon="29.9908947945">
        <time>2026-04-22T12:34:31.000Z</time>
      </trkpt>
      <trkpt lat="59.0871548653" lon="29.9908947945">
        <time>2026-04-22T12:34:33.000Z</time>
      </trkpt>
      <trkpt lat="59.0871977806" lon="29.9909162521">
        <time>2026-04-22T12:34:36.000Z</time>
      </trkpt>
      <trkpt lat="59.087240696" lon="29.9909377098">
        <time>2026-04-22T12:34:38.000Z</time>
      </trkpt>
      <trkpt lat="59.0872836113" lon="29.9909591675">
        <time>2026-04-22T12:34:41.000Z</time>
      </trkpt>
      <trkpt lat="59.0873265266" lon="29.9909591675">
        <time>2026-04-22T12:34:43.000Z</time>
      </trkpt>
      <trkpt lat="59.087369442" lon="29.9909806252">
        <time>2026-04-22T12:34:46.000Z</time>
      </trkpt>
      <trkpt lat="59.087369442" lon="29.9909806252">
        <time>2026-04-22T12:34:48.000Z</time>
      </trkpt>
      <trkpt lat="59.0873908997" lon="29.9909806252">
        <time>2026-04-22T12:34:51.000Z</time>
      </trkpt>
      <trkpt lat="59.0874123573" lon="29.9910020828">
        <time>2026-04-22T12:34:53.000Z</time>
      </trkpt>
      <trkpt lat="59.0874767303" lon="29.9910235405">
        <time>2026-04-22T12:34:56.000Z</time>
      </trkpt>
      <trkpt lat="59.0875196457" lon="29.9910235405">
        <time>2026-04-22T12:34:58.000Z</time>
      </trkpt>
      <trkpt lat="59.087562561" lon="29.9910235405">
        <time>2026-04-22T12:35:01.000Z</time>
      </trkpt>
      <trkpt lat="59.0875840187" lon="29.9910235405">
        <time>2026-04-22T12:35:03.000Z</time>
      </trkpt>
      <trkpt lat="59.0876054764" lon="29.9910020828">
        <time>2026-04-22T12:35:06.000Z</time>
      </trkpt>
      <trkpt lat="59.0876483917" lon="29.9910235405">
        <time>2026-04-22T12:35:08.000Z</time>
      </trkpt>
      <trkpt lat="59.0876913071" lon="29.9910449982">
        <time>2026-04-22T12:35:11.000Z</time>
      </trkpt>
      <trkpt lat="59.0877342224" lon="29.9910449982">
        <time>2026-04-22T12:35:13.000Z</time>
      </trkpt>
      <trkpt lat="59.0877985954" lon="29.9910449982">
        <time>2026-04-22T12:35:16.000Z</time>
      </trkpt>
      <trkpt lat="59.0878415108" lon="29.9910664558">
        <time>2026-04-22T12:35:18.000Z</time>
      </trkpt>
      <trkpt lat="59.0878629684" lon="29.9910879135">
        <time>2026-04-22T12:35:21.000Z</time>
      </trkpt>
      <trkpt lat="59.0878629684" lon="29.9910879135">
        <time>2026-04-22T12:35:23.000Z</time>
      </trkpt>
      <trkpt lat="59.0878629684" lon="29.9910879135">
        <time>2026-04-22T12:35:26.000Z</time>
      </trkpt>
      <trkpt lat="59.0878629684" lon="29.9910879135">
        <time>2026-04-22T12:35:28.000Z</time>
      </trkpt>
      <trkpt lat="59.0878415108" lon="29.9910879135">
        <time>2026-04-22T12:35:31.000Z</time>
      </trkpt>
      <trkpt lat="59.0878200531" lon="29.9910664558">
        <time>2026-04-22T12:35:33.000Z</time>
      </trkpt>
      <trkpt lat="59.0878200531" lon="29.9910664558">
        <time>2026-04-22T12:35:36.000Z</time>
      </trkpt>
      <trkpt lat="59.0878629684" lon="29.9910879135">
        <time>2026-04-22T12:35:38.000Z</time>
      </trkpt>
      <trkpt lat="59.0879273415" lon="29.9910879135">
        <time>2026-04-22T12:35:41.000Z</time>
      </trkpt>
      <trkpt lat="59.0879702568" lon="29.9911093712">
        <time>2026-04-22T12:35:43.000Z</time>
      </trkpt>
      <trkpt lat="59.0880346298" lon="29.9911308289">
        <time>2026-04-22T12:35:46.000Z</time>
      </trkpt>
      <trkpt lat="59.0880775452" lon="29.9911522865">
        <time>2026-04-22T12:35:48.000Z</time>
      </trkpt>
      <trkpt lat="59.0881204605" lon="29.9911952019">
        <time>2026-04-22T12:35:51.000Z</time>
      </trkpt>
      <trkpt lat="59.0881633759" lon="29.9912166595">
        <time>2026-04-22T12:35:53.000Z</time>
      </trkpt>
      <trkpt lat="59.0882062912" lon="29.9912381172">
        <time>2026-04-22T12:35:56.000Z</time>
      </trkpt>
      <trkpt lat="59.0882921219" lon="29.9912381172">
        <time>2026-04-22T12:36:01.000Z</time>
      </trkpt>
      <trkpt lat="59.0883135796" lon="29.9912810326">
        <time>2026-04-22T12:36:03.000Z</time>
      </trkpt>
      <trkpt lat="59.0883135796" lon="29.9912810326">
        <time>2026-04-22T12:36:06.000Z</time>
      </trkpt>
      <trkpt lat="59.0883135796" lon="29.9912595749">
        <time>2026-04-22T12:36:08.000Z</time>
      </trkpt>
      <trkpt lat="59.0883564949" lon="29.9912810326">
        <time>2026-04-22T12:36:11.000Z</time>
      </trkpt>
      <trkpt lat="59.0883779526" lon="29.9913024902">
        <time>2026-04-22T12:36:13.000Z</time>
      </trkpt>
      <trkpt lat="59.0883994102" lon="29.9913024902">
        <time>2026-04-22T12:36:16.000Z</time>
      </trkpt>
      <trkpt lat="59.0884208679" lon="29.9912810326">
        <time>2026-04-22T12:36:18.000Z</time>
      </trkpt>
      <trkpt lat="59.0884637833" lon="29.9912810326">
        <time>2026-04-22T12:36:21.000Z</time>
      </trkpt>
      <trkpt lat="59.0885066986" lon="29.9913024902">
        <time>2026-04-22T12:36:23.000Z</time>
      </trkpt>
      <trkpt lat="59.088549614" lon="29.9913239479">
        <time>2026-04-22T12:36:26.000Z</time>
      </trkpt>
      <trkpt lat="59.0885925293" lon="29.9913454056">
        <time>2026-04-22T12:36:28.000Z</time>
      </trkpt>
      <trkpt lat="59.0886354446" lon="29.9913454056">
        <time>2026-04-22T12:36:31.000Z</time>
      </trkpt>
      <trkpt lat="59.08867836" lon="29.9913668633">
        <time>2026-04-22T12:36:33.000Z</time>
      </trkpt>
      <trkpt lat="59.0887212753" lon="29.9913883209">
        <time>2026-04-22T12:36:36.000Z</time>
      </trkpt>
      <trkpt lat="59.0887641907" lon="29.9913883209">
        <time>2026-04-22T12:36:38.000Z</time>
      </trkpt>
      <trkpt lat="59.088807106" lon="29.9913883209">
        <time>2026-04-22T12:36:41.000Z</time>
      </trkpt>
      <trkpt lat="59.088807106" lon="29.9913883209">
        <time>2026-04-22T12:36:43.000Z</time>
      </trkpt>
      <trkpt lat="59.088807106" lon="29.9913668633">
        <time>2026-04-22T12:36:46.000Z</time>
      </trkpt>
      <trkpt lat="59.088807106" lon="29.9913883209">
        <time>2026-04-22T12:36:48.000Z</time>
      </trkpt>
      <trkpt lat="59.0888285637" lon="29.9913883209">
        <time>2026-04-22T12:36:51.000Z</time>
      </trkpt>
      <trkpt lat="59.0888929367" lon="29.9914097786">
        <time>2026-04-22T12:36:53.000Z</time>
      </trkpt>
      <trkpt lat="59.0889573097" lon="29.9914526939">
        <time>2026-04-22T12:36:56.000Z</time>
      </trkpt>
      <trkpt lat="59.0890216827" lon="29.9914526939">
        <time>2026-04-22T12:36:58.000Z</time>
      </trkpt>
      <trkpt lat="59.0890645981" lon="29.9914526939">
        <time>2026-04-22T12:37:01.000Z</time>
      </trkpt>
      <trkpt lat="59.0891075134" lon="29.9914956093">
        <time>2026-04-22T12:37:03.000Z</time>
      </trkpt>
      <trkpt lat="59.0891504288" lon="29.991517067">
        <time>2026-04-22T12:37:06.000Z</time>
      </trkpt>
      <trkpt lat="59.0891504288" lon="29.9915385246">
        <time>2026-04-22T12:37:08.000Z</time>
      </trkpt>
      <trkpt lat="59.0891718864" lon="29.9915385246">
        <time>2026-04-22T12:37:11.000Z</time>
      </trkpt>
      <trkpt lat="59.0891718864" lon="29.9915385246">
        <time>2026-04-22T12:37:13.000Z</time>
      </trkpt>
      <trkpt lat="59.0892148018" lon="29.9915599823">
        <time>2026-04-22T12:37:16.000Z</time>
      </trkpt>
      <trkpt lat="59.0892577171" lon="29.9915599823">
        <time>2026-04-22T12:37:18.000Z</time>
      </trkpt>
      <trkpt lat="59.0893006325" lon="29.9915599823">
        <time>2026-04-22T12:37:21.000Z</time>
      </trkpt>
      <trkpt lat="59.0893650055" lon="29.9915599823">
        <time>2026-04-22T12:37:23.000Z</time>
      </trkpt>
      <trkpt lat="59.0893864632" lon="29.9916028976">
        <time>2026-04-22T12:37:26.000Z</time>
      </trkpt>
      <trkpt lat="59.0894508362" lon="29.9916243553">
        <time>2026-04-22T12:37:28.000Z</time>
      </trkpt>
      <trkpt lat="59.0894937515" lon="29.9916243553">
        <time>2026-04-22T12:37:31.000Z</time>
      </trkpt>
      <trkpt lat="59.0895366669" lon="29.991645813">
        <time>2026-04-22T12:37:33.000Z</time>
      </trkpt>
      <trkpt lat="59.0895795822" lon="29.991645813">
        <time>2026-04-22T12:37:36.000Z</time>
      </trkpt>
      <trkpt lat="59.0896010399" lon="29.9916887283">
        <time>2026-04-22T12:37:38.000Z</time>
      </trkpt>
      <trkpt lat="59.0896439552" lon="29.9916887283">
        <time>2026-04-22T12:37:41.000Z</time>
      </trkpt>
      <trkpt lat="59.0896224976" lon="29.9916887283">
        <time>2026-04-22T12:37:43.000Z</time>
      </trkpt>
      <trkpt lat="59.0896224976" lon="29.9916887283">
        <time>2026-04-22T12:37:46.000Z</time>
      </trkpt>
      <trkpt lat="59.0896224976" lon="29.9916887283">
        <time>2026-04-22T12:37:48.000Z</time>
      </trkpt>
      <trkpt lat="59.0896868706" lon="29.9917316437">
        <time>2026-04-22T12:37:51.000Z</time>
      </trkpt>
      <trkpt lat="59.0897083282" lon="29.9917316437">
        <time>2026-04-22T12:37:53.000Z</time>
      </trkpt>
      <trkpt lat="59.0897512436" lon="29.9917531013">
        <time>2026-04-22T12:37:56.000Z</time>
      </trkpt>
      <trkpt lat="59.0897727013" lon="29.9917316437">
        <time>2026-04-22T12:37:58.000Z</time>
      </trkpt>
      <trkpt lat="59.0897727013" lon="29.991710186">
        <time>2026-04-22T12:38:01.000Z</time>
      </trkpt>
      <trkpt lat="59.0897727013" lon="29.9916887283">
        <time>2026-04-22T12:38:03.000Z</time>
      </trkpt>
      <trkpt lat="59.0897941589" lon="29.9916672707">
        <time>2026-04-22T12:38:06.000Z</time>
      </trkpt>
      <trkpt lat="59.0897941589" lon="29.9916672707">
        <time>2026-04-22T12:38:08.000Z</time>
      </trkpt>
      <trkpt lat="59.0897941589" lon="29.9916672707">
        <time>2026-04-22T12:38:11.000Z</time>
      </trkpt>
      <trkpt lat="59.0897941589" lon="29.9917316437">
        <time>2026-04-22T12:38:13.000Z</time>
      </trkpt>
      <trkpt lat="59.0898370743" lon="29.9917316437">
        <time>2026-04-22T12:38:16.000Z</time>
      </trkpt>
      <trkpt lat="59.0899014473" lon="29.9917531013">
        <time>2026-04-22T12:38:18.000Z</time>
      </trkpt>
      <trkpt lat="59.089922905" lon="29.9917960167">
        <time>2026-04-22T12:38:21.000Z</time>
      </trkpt>
      <trkpt lat="59.0899658203" lon="29.9918174744">
        <time>2026-04-22T12:38:23.000Z</time>
      </trkpt>
      <trkpt lat="59.089987278" lon="29.9918174744">
        <time>2026-04-22T12:38:26.000Z</time>
      </trkpt>
      <trkpt lat="59.0900087357" lon="29.9918174744">
        <time>2026-04-22T12:38:28.000Z</time>
      </trkpt>
      <trkpt lat="59.0900301933" lon="29.9917960167">
        <time>2026-04-22T12:38:31.000Z</time>
      </trkpt>
      <trkpt lat="59.0900731087" lon="29.9918174744">
        <time>2026-04-22T12:38:33.000Z</time>
      </trkpt>
      <trkpt lat="59.090116024" lon="29.9918174744">
        <time>2026-04-22T12:38:36.000Z</time>
      </trkpt>
      <trkpt lat="59.0901589394" lon="29.9918174744">
        <time>2026-04-22T12:38:38.000Z</time>
      </trkpt>
      <trkpt lat="59.0902018547" lon="29.991838932">
        <time>2026-04-22T12:38:41.000Z</time>
      </trkpt>
      <trkpt lat="59.0902447701" lon="29.9918603897">
        <time>2026-04-22T12:38:43.000Z</time>
      </trkpt>
      <trkpt lat="59.0902662277" lon="29.9918818474">
        <time>2026-04-22T12:38:46.000Z</time>
      </trkpt>
      <trkpt lat="59.0902876854" lon="29.9918818474">
        <time>2026-04-22T12:38:48.000Z</time>
      </trkpt>
      <trkpt lat="59.0902876854" lon="29.9918818474">
        <time>2026-04-22T12:38:51.000Z</time>
      </trkpt>
      <trkpt lat="59.0902876854" lon="29.9918818474">
        <time>2026-04-22T12:38:53.000Z</time>
      </trkpt>
      <trkpt lat="59.0902876854" lon="29.9918818474">
        <time>2026-04-22T12:38:56.000Z</time>
      </trkpt>
      <trkpt lat="59.0902876854" lon="29.9918818474">
        <time>2026-04-22T12:38:58.000Z</time>
      </trkpt>
      <trkpt lat="59.0902876854" lon="29.9918818474">
        <time>2026-04-22T12:39:01.000Z</time>
      </trkpt>
      <trkpt lat="59.0902876854" lon="29.9918818474">
        <time>2026-04-22T12:39:03.000Z</time>
      </trkpt>
      <trkpt lat="59.0902876854" lon="29.9918818474">
        <time>2026-04-22T12:39:06.000Z</time>
      </trkpt>
      <trkpt lat="59.0903520584" lon="29.9919033051">
        <time>2026-04-22T12:39:08.000Z</time>
      </trkpt>
      <trkpt lat="59.0903949738" lon="29.9919033051">
        <time>2026-04-22T12:39:11.000Z</time>
      </trkpt>
      <trkpt lat="59.0904378891" lon="29.9919247627">
        <time>2026-04-22T12:39:13.000Z</time>
      </trkpt>
      <trkpt lat="59.0904808044" lon="29.9919462204">
        <time>2026-04-22T12:39:16.000Z</time>
      </trkpt>
      <trkpt lat="59.0905022621" lon="29.9919891357">
        <time>2026-04-22T12:39:18.000Z</time>
      </trkpt>
      <trkpt lat="59.0905451775" lon="29.9919891357">
        <time>2026-04-22T12:39:21.000Z</time>
      </trkpt>
      <trkpt lat="59.0905666351" lon="29.9919676781">
        <time>2026-04-22T12:39:23.000Z</time>
      </trkpt>
      <trkpt lat="59.0906095505" lon="29.9919676781">
        <time>2026-04-22T12:39:26.000Z</time>
      </trkpt>
      <trkpt lat="59.0906310081" lon="29.9919676781">
        <time>2026-04-22T12:39:28.000Z</time>
      </trkpt>
      <trkpt lat="59.0906524658" lon="29.9919891357">
        <time>2026-04-22T12:39:31.000Z</time>
      </trkpt>
      <trkpt lat="59.0906524658" lon="29.9919891357">
        <time>2026-04-22T12:39:33.000Z</time>
      </trkpt>
      <trkpt lat="59.0906739235" lon="29.9919891357">
        <time>2026-04-22T12:39:36.000Z</time>
      </trkpt>
      <trkpt lat="59.0906953812" lon="29.9919891357">
        <time>2026-04-22T12:39:38.000Z</time>
      </trkpt>
      <trkpt lat="59.0907168388" lon="29.9920105934">
        <time>2026-04-22T12:39:41.000Z</time>
      </trkpt>
      <trkpt lat="59.0907382965" lon="29.9920320511">
        <time>2026-04-22T12:39:43.000Z</time>
      </trkpt>
      <trkpt lat="59.0907812119" lon="29.9920535088">
        <time>2026-04-22T12:39:46.000Z</time>
      </trkpt>
      <trkpt lat="59.0908026695" lon="29.9920535088">
        <time>2026-04-22T12:39:48.000Z</time>
      </trkpt>
      <trkpt lat="59.0908241272" lon="29.9920320511">
        <time>2026-04-22T12:39:51.000Z</time>
      </trkpt>
      <trkpt lat="59.0908670425" lon="29.9920535088">
        <time>2026-04-22T12:39:53.000Z</time>
      </trkpt>
      <trkpt lat="59.0909099579" lon="29.9920749664">
        <time>2026-04-22T12:39:56.000Z</time>
      </trkpt>
      <trkpt lat="59.0909528732" lon="29.9921178818">
        <time>2026-04-22T12:39:58.000Z</time>
      </trkpt>
      <trkpt lat="59.0910172462" lon="29.9921178818">
        <time>2026-04-22T12:40:01.000Z</time>
      </trkpt>
      <trkpt lat="59.0910816193" lon="29.9921393394">
        <time>2026-04-22T12:40:03.000Z</time>
      </trkpt>
      <trkpt lat="59.0910816193" lon="29.9921607971">
        <time>2026-04-22T12:40:06.000Z</time>
      </trkpt>
      <trkpt lat="59.0911030769" lon="29.9921393394">
        <time>2026-04-22T12:40:08.000Z</time>
      </trkpt>
      <trkpt lat="59.0911245346" lon="29.9921393394">
        <time>2026-04-22T12:40:11.000Z</time>
      </trkpt>
      <trkpt lat="59.0911459923" lon="29.9921822548">
        <time>2026-04-22T12:40:13.000Z</time>
      </trkpt>
      <trkpt lat="59.09116745" lon="29.9921822548">
        <time>2026-04-22T12:40:16.000Z</time>
      </trkpt>
      <trkpt lat="59.09116745" lon="29.9921822548">
        <time>2026-04-22T12:40:18.000Z</time>
      </trkpt>
      <trkpt lat="59.09116745" lon="29.9922037125">
        <time>2026-04-22T12:40:21.000Z</time>
      </trkpt>
      <trkpt lat="59.0912103653" lon="29.9922251701">
        <time>2026-04-22T12:40:23.000Z</time>
      </trkpt>
      <trkpt lat="59.0912532806" lon="29.9922251701">
        <time>2026-04-22T12:40:26.000Z</time>
      </trkpt>
      <trkpt lat="59.091296196" lon="29.9922466278">
        <time>2026-04-22T12:40:28.000Z</time>
      </trkpt>
      <trkpt lat="59.091360569" lon="29.9922680855">
        <time>2026-04-22T12:40:31.000Z</time>
      </trkpt>
      <trkpt lat="59.0914034843" lon="29.9922466278">
        <time>2026-04-22T12:40:33.000Z</time>
      </trkpt>
      <trkpt lat="59.0914034843" lon="29.9922251701">
        <time>2026-04-22T12:40:36.000Z</time>
      </trkpt>
      <trkpt lat="59.0914034843" lon="29.9922251701">
        <time>2026-04-22T12:40:38.000Z</time>
      </trkpt>
      <trkpt lat="59.0914678574" lon="29.9922466278">
        <time>2026-04-22T12:40:41.000Z</time>
      </trkpt>
      <trkpt lat="59.0915107727" lon="29.9922895432">
        <time>2026-04-22T12:40:43.000Z</time>
      </trkpt>
      <trkpt lat="59.091553688" lon="29.9923324585">
        <time>2026-04-22T12:40:46.000Z</time>
      </trkpt>
      <trkpt lat="59.0915966034" lon="29.9923324585">
        <time>2026-04-22T12:40:48.000Z</time>
      </trkpt>
      <trkpt lat="59.0916180611" lon="29.9923539162">
        <time>2026-04-22T12:40:51.000Z</time>
      </trkpt>
      <trkpt lat="59.0916609764" lon="29.9923539162">
        <time>2026-04-22T12:40:53.000Z</time>
      </trkpt>
      <trkpt lat="59.0916395187" lon="29.9923539162">
        <time>2026-04-22T12:40:56.000Z</time>
      </trkpt>
      <trkpt lat="59.0916395187" lon="29.9923539162">
        <time>2026-04-22T12:40:58.000Z</time>
      </trkpt>
      <trkpt lat="59.0916395187" lon="29.9923539162">
        <time>2026-04-22T12:41:01.000Z</time>
      </trkpt>
      <trkpt lat="59.0916824341" lon="29.9923324585">
        <time>2026-04-22T12:41:03.000Z</time>
      </trkpt>
      <trkpt lat="59.0917468071" lon="29.9923324585">
        <time>2026-04-22T12:41:06.000Z</time>
      </trkpt>
      <trkpt lat="59.0917682648" lon="29.9923539162">
        <time>2026-04-22T12:41:08.000Z</time>
      </trkpt>
      <trkpt lat="59.0918111801" lon="29.9923324585">
        <time>2026-04-22T12:41:11.000Z</time>
      </trkpt>
      <trkpt lat="59.0918326378" lon="29.9922895432">
        <time>2026-04-22T12:41:13.000Z</time>
      </trkpt>
      <trkpt lat="59.0918111801" lon="29.9922251701">
        <time>2026-04-22T12:41:16.000Z</time>
      </trkpt>
      <trkpt lat="59.0918111801" lon="29.9922251701">
        <time>2026-04-22T12:41:18.000Z</time>
      </trkpt>
      <trkpt lat="59.0918111801" lon="29.9921822548">
        <time>2026-04-22T12:41:21.000Z</time>
      </trkpt>
      <trkpt lat="59.0918111801" lon="29.9921607971">
        <time>2026-04-22T12:41:23.000Z</time>
      </trkpt>
      <trkpt lat="59.0918111801" lon="29.9920964241">
        <time>2026-04-22T12:41:26.000Z</time>
      </trkpt>
      <trkpt lat="59.0918111801" lon="29.9920964241">
        <time>2026-04-22T12:41:28.000Z</time>
      </trkpt>
      <trkpt lat="59.0918111801" lon="29.9920964241">
        <time>2026-04-22T12:41:31.000Z</time>
      </trkpt>
      <trkpt lat="59.0917897224" lon="29.9920964241">
        <time>2026-04-22T12:41:33.000Z</time>
      </trkpt>
      <trkpt lat="59.0917897224" lon="29.9920749664">
        <time>2026-04-22T12:41:36.000Z</time>
      </trkpt>
      <trkpt lat="59.0917897224" lon="29.9920749664">
        <time>2026-04-22T12:41:38.000Z</time>
      </trkpt>
      <trkpt lat="59.0917897224" lon="29.9920749664">
        <time>2026-04-22T12:41:41.000Z</time>
      </trkpt>
      <trkpt lat="59.0917897224" lon="29.9920749664">
        <time>2026-04-22T12:41:43.000Z</time>
      </trkpt>
      <trkpt lat="59.0917897224" lon="29.9920749664">
        <time>2026-04-22T12:41:46.000Z</time>
      </trkpt>
      <trkpt lat="59.0917897224" lon="29.9920749664">
        <time>2026-04-22T12:41:48.000Z</time>
      </trkpt>
      <trkpt lat="59.0917897224" lon="29.9920749664">
        <time>2026-04-22T12:41:51.000Z</time>
      </trkpt>
      <trkpt lat="59.0917897224" lon="29.9920320511">
        <time>2026-04-22T12:41:53.000Z</time>
      </trkpt>
      <trkpt lat="59.0917897224" lon="29.9920105934">
        <time>2026-04-22T12:41:56.000Z</time>
      </trkpt>
      <trkpt lat="59.0917897224" lon="29.9920105934">
        <time>2026-04-22T12:41:58.000Z</time>
      </trkpt>
      <trkpt lat="59.0917897224" lon="29.9920105934">
        <time>2026-04-22T12:42:01.000Z</time>
      </trkpt>
      <trkpt lat="59.0917897224" lon="29.9920105934">
        <time>2026-04-22T12:42:03.000Z</time>
      </trkpt>
      <trkpt lat="59.0917897224" lon="29.9920105934">
        <time>2026-04-22T12:42:06.000Z</time>
      </trkpt>
      <trkpt lat="59.0917897224" lon="29.9920105934">
        <time>2026-04-22T12:42:08.000Z</time>
      </trkpt>
      <trkpt lat="59.0917897224" lon="29.9919891357">
        <time>2026-04-22T12:42:11.000Z</time>
      </trkpt>
      <trkpt lat="59.0917897224" lon="29.9919891357">
        <time>2026-04-22T12:42:13.000Z</time>
      </trkpt>
      <trkpt lat="59.0917897224" lon="29.9919891357">
        <time>2026-04-22T12:42:16.000Z</time>
      </trkpt>
      <trkpt lat="59.0917897224" lon="29.9919891357">
        <time>2026-04-22T12:42:18.000Z</time>
      </trkpt>
      <trkpt lat="59.0918111801" lon="29.9919676781">
        <time>2026-04-22T12:42:21.000Z</time>
      </trkpt>
      <trkpt lat="59.0918540955" lon="29.9918818474">
        <time>2026-04-22T12:42:23.000Z</time>
      </trkpt>
      <trkpt lat="59.0918755531" lon="29.991838932">
        <time>2026-04-22T12:42:26.000Z</time>
      </trkpt>
      <trkpt lat="59.0918970108" lon="29.9917960167">
        <time>2026-04-22T12:42:28.000Z</time>
      </trkpt>
      <trkpt lat="59.0918970108" lon="29.9917960167">
        <time>2026-04-22T12:42:31.000Z</time>
      </trkpt>
      <trkpt lat="59.0918970108" lon="29.9917960167">
        <time>2026-04-22T12:42:33.000Z</time>
      </trkpt>
      <trkpt lat="59.0918970108" lon="29.9917960167">
        <time>2026-04-22T12:42:36.000Z</time>
      </trkpt>
      <trkpt lat="59.0918970108" lon="29.991774559">
        <time>2026-04-22T12:42:38.000Z</time>
      </trkpt>
      <trkpt lat="59.0919184685" lon="29.991774559">
        <time>2026-04-22T12:42:41.000Z</time>
      </trkpt>
      <trkpt lat="59.0919184685" lon="29.991774559">
        <time>2026-04-22T12:42:43.000Z</time>
      </trkpt>
      <trkpt lat="59.0919184685" lon="29.991774559">
        <time>2026-04-22T12:42:46.000Z</time>
      </trkpt>
      <trkpt lat="59.0919184685" lon="29.991774559">
        <time>2026-04-22T12:42:48.000Z</time>
      </trkpt>
      <trkpt lat="59.0918970108" lon="29.991774559">
        <time>2026-04-22T12:42:51.000Z</time>
      </trkpt>
      <trkpt lat="59.0918970108" lon="29.9917960167">
        <time>2026-04-22T12:42:53.000Z</time>
      </trkpt>
      <trkpt lat="59.0918755531" lon="29.9917960167">
        <time>2026-04-22T12:42:56.000Z</time>
      </trkpt>
      <trkpt lat="59.0918755531" lon="29.9917960167">
        <time>2026-04-22T12:42:58.000Z</time>
      </trkpt>
      <trkpt lat="59.0918755531" lon="29.9917960167">
        <time>2026-04-22T12:43:01.000Z</time>
      </trkpt>
      <trkpt lat="59.0918755531" lon="29.9917960167">
        <time>2026-04-22T12:43:03.000Z</time>
      </trkpt>
      <trkpt lat="59.0918755531" lon="29.9917960167">
        <time>2026-04-22T12:43:06.000Z</time>
      </trkpt>
      <trkpt lat="59.0918755531" lon="29.9917960167">
        <time>2026-04-22T12:43:08.000Z</time>
      </trkpt>
      <trkpt lat="59.0918755531" lon="29.9917960167">
        <time>2026-04-22T12:43:11.000Z</time>
      </trkpt>
      <trkpt lat="59.0918540955" lon="29.9918174744">
        <time>2026-04-22T12:43:13.000Z</time>
      </trkpt>
      <trkpt lat="59.0918540955" lon="29.9918174744">
        <time>2026-04-22T12:43:16.000Z</time>
      </trkpt>
      <trkpt lat="59.0918540955" lon="29.9918174744">
        <time>2026-04-22T12:43:18.000Z</time>
      </trkpt>
      <trkpt lat="59.0918540955" lon="29.9917960167">
        <time>2026-04-22T12:43:21.000Z</time>
      </trkpt>
      <trkpt lat="59.0918326378" lon="29.991838932">
        <time>2026-04-22T12:43:23.000Z</time>
      </trkpt>
      <trkpt lat="59.0918111801" lon="29.9918818474">
        <time>2026-04-22T12:43:26.000Z</time>
      </trkpt>
      <trkpt lat="59.0918111801" lon="29.9919033051">
        <time>2026-04-22T12:43:28.000Z</time>
      </trkpt>
      <trkpt lat="59.0918111801" lon="29.9919676781">
        <time>2026-04-22T12:43:31.000Z</time>
      </trkpt>
      <trkpt lat="59.0918111801" lon="29.9920320511">
        <time>2026-04-22T12:43:33.000Z</time>
      </trkpt>
      <trkpt lat="59.0918326378" lon="29.9920535088">
        <time>2026-04-22T12:43:36.000Z</time>
      </trkpt>
      <trkpt lat="59.0918111801" lon="29.9920535088">
        <time>2026-04-22T12:43:38.000Z</time>
      </trkpt>
      <trkpt lat="59.0918111801" lon="29.9921393394">
        <time>2026-04-22T12:43:41.000Z</time>
      </trkpt>
      <trkpt lat="59.0918326378" lon="29.9922037125">
        <time>2026-04-22T12:43:43.000Z</time>
      </trkpt>
      <trkpt lat="59.0918326378" lon="29.9923110008">
        <time>2026-04-22T12:43:46.000Z</time>
      </trkpt>
      <trkpt lat="59.0918326378" lon="29.9923110008">
        <time>2026-04-22T12:43:48.000Z</time>
      </trkpt>
      <trkpt lat="59.0918326378" lon="29.9923110008">
        <time>2026-04-22T12:43:51.000Z</time>
      </trkpt>
      <trkpt lat="59.0918540955" lon="29.9923753738">
        <time>2026-04-22T12:43:53.000Z</time>
      </trkpt>
      <trkpt lat="59.0918540955" lon="29.9924397469">
        <time>2026-04-22T12:43:56.000Z</time>
      </trkpt>
      <trkpt lat="59.0918755531" lon="29.9924612045">
        <time>2026-04-22T12:43:58.000Z</time>
      </trkpt>
      <trkpt lat="59.0918970108" lon="29.9924826622">
        <time>2026-04-22T12:44:01.000Z</time>
      </trkpt>
      <trkpt lat="59.0919184685" lon="29.9925041199">
        <time>2026-04-22T12:44:03.000Z</time>
      </trkpt>
      <trkpt lat="59.0919184685" lon="29.9924826622">
        <time>2026-04-22T12:44:06.000Z</time>
      </trkpt>
      <trkpt lat="59.0919184685" lon="29.9924826622">
        <time>2026-04-22T12:44:08.000Z</time>
      </trkpt>
      <trkpt lat="59.0919399261" lon="29.9925041199">
        <time>2026-04-22T12:44:11.000Z</time>
      </trkpt>
      <trkpt lat="59.0919399261" lon="29.9924826622">
        <time>2026-04-22T12:44:13.000Z</time>
      </trkpt>
      <trkpt lat="59.0919399261" lon="29.9924826622">
        <time>2026-04-22T12:44:16.000Z</time>
      </trkpt>
      <trkpt lat="59.0918970108" lon="29.9925470352">
        <time>2026-04-22T12:44:18.000Z</time>
      </trkpt>
      <trkpt lat="59.0918970108" lon="29.9926114082">
        <time>2026-04-22T12:44:21.000Z</time>
      </trkpt>
      <trkpt lat="59.0918755531" lon="29.9926543236">
        <time>2026-04-22T12:44:23.000Z</time>
      </trkpt>
      <trkpt lat="59.0919184685" lon="29.9927401543">
        <time>2026-04-22T12:44:26.000Z</time>
      </trkpt>
      <trkpt lat="59.0919184685" lon="29.9928045273">
        <time>2026-04-22T12:44:28.000Z</time>
      </trkpt>
      <trkpt lat="59.0919399261" lon="29.9927830696">
        <time>2026-04-22T12:44:31.000Z</time>
      </trkpt>
      <trkpt lat="59.0919399261" lon="29.9927616119">
        <time>2026-04-22T12:44:33.000Z</time>
      </trkpt>
      <trkpt lat="59.0919828415" lon="29.992825985">
        <time>2026-04-22T12:44:36.000Z</time>
      </trkpt>
      <trkpt lat="59.0920257568" lon="29.9928474426">
        <time>2026-04-22T12:44:38.000Z</time>
      </trkpt>
      <trkpt lat="59.0920042992" lon="29.9928474426">
        <time>2026-04-22T12:44:41.000Z</time>
      </trkpt>
      <trkpt lat="59.0919828415" lon="29.9928474426">
        <time>2026-04-22T12:44:43.000Z</time>
      </trkpt>
      <trkpt lat="59.0919613838" lon="29.9928689003">
        <time>2026-04-22T12:44:46.000Z</time>
      </trkpt>
      <trkpt lat="59.0919399261" lon="29.992890358">
        <time>2026-04-22T12:44:48.000Z</time>
      </trkpt>
      <trkpt lat="59.0919399261" lon="29.9929118156">
        <time>2026-04-22T12:44:51.000Z</time>
      </trkpt>
      <trkpt lat="59.0919184685" lon="29.9929118156">
        <time>2026-04-22T12:44:53.000Z</time>
      </trkpt>
      <trkpt lat="59.0919184685" lon="29.9929332733">
        <time>2026-04-22T12:44:56.000Z</time>
      </trkpt>
      <trkpt lat="59.0919399261" lon="29.9929332733">
        <time>2026-04-22T12:44:58.000Z</time>
      </trkpt>
      <trkpt lat="59.0919399261" lon="29.9929332733">
        <time>2026-04-22T12:45:01.000Z</time>
      </trkpt>
      <trkpt lat="59.0919399261" lon="29.992954731">
        <time>2026-04-22T12:45:03.000Z</time>
      </trkpt>
      <trkpt lat="59.0919613838" lon="29.992954731">
        <time>2026-04-22T12:45:06.000Z</time>
      </trkpt>
      <trkpt lat="59.0919613838" lon="29.9929976463">
        <time>2026-04-22T12:45:08.000Z</time>
      </trkpt>
      <trkpt lat="59.0919828415" lon="29.993019104">
        <time>2026-04-22T12:45:11.000Z</time>
      </trkpt>
      <trkpt lat="59.0919828415" lon="29.9930620193">
        <time>2026-04-22T12:45:13.000Z</time>
      </trkpt>
      <trkpt lat="59.0920257568" lon="29.993083477">
        <time>2026-04-22T12:45:16.000Z</time>
      </trkpt>
      <trkpt lat="59.0920686722" lon="29.9931263924">
        <time>2026-04-22T12:45:18.000Z</time>
      </trkpt>
      <trkpt lat="59.0920901299" lon="29.9931263924">
        <time>2026-04-22T12:45:21.000Z</time>
      </trkpt>
      <trkpt lat="59.0920901299" lon="29.9931263924">
        <time>2026-04-22T12:45:23.000Z</time>
      </trkpt>
      <trkpt lat="59.0921330452" lon="29.9931263924">
        <time>2026-04-22T12:45:26.000Z</time>
      </trkpt>
      <trkpt lat="59.0921545029" lon="29.9931693077">
        <time>2026-04-22T12:45:28.000Z</time>
      </trkpt>
      <trkpt lat="59.0921974182" lon="29.9931263924">
        <time>2026-04-22T12:45:31.000Z</time>
      </trkpt>
      <trkpt lat="59.0922188759" lon="29.993083477">
        <time>2026-04-22T12:45:33.000Z</time>
      </trkpt>
      <trkpt lat="59.0922617912" lon="29.9930405617">
        <time>2026-04-22T12:45:36.000Z</time>
      </trkpt>
      <trkpt lat="59.0922832489" lon="29.993019104">
        <time>2026-04-22T12:45:38.000Z</time>
      </trkpt>
      <trkpt lat="59.0923047066" lon="29.9930620193">
        <time>2026-04-22T12:45:41.000Z</time>
      </trkpt>
      <trkpt lat="59.0923476219" lon="29.9930405617">
        <time>2026-04-22T12:45:43.000Z</time>
      </trkpt>
      <trkpt lat="59.0923690796" lon="29.9929976463">
        <time>2026-04-22T12:45:46.000Z</time>
      </trkpt>
      <trkpt lat="59.0924119949" lon="29.9929761887">
        <time>2026-04-22T12:45:48.000Z</time>
      </trkpt>
      <trkpt lat="59.0924549103" lon="29.9929976463">
        <time>2026-04-22T12:45:51.000Z</time>
      </trkpt>
      <trkpt lat="59.0924549103" lon="29.9929976463">
        <time>2026-04-22T12:45:53.000Z</time>
      </trkpt>
      <trkpt lat="59.0924549103" lon="29.9929976463">
        <time>2026-04-22T12:45:56.000Z</time>
      </trkpt>
      <trkpt lat="59.0924978256" lon="29.9929976463">
        <time>2026-04-22T12:45:58.000Z</time>
      </trkpt>
      <trkpt lat="59.0925192833" lon="29.993019104">
        <time>2026-04-22T12:46:01.000Z</time>
      </trkpt>
      <trkpt lat="59.0925192833" lon="29.9929976463">
        <time>2026-04-22T12:46:03.000Z</time>
      </trkpt>
      <trkpt lat="59.0924978256" lon="29.992954731">
        <time>2026-04-22T12:46:06.000Z</time>
      </trkpt>
      <trkpt lat="59.0925192833" lon="29.9928689003">
        <time>2026-04-22T12:46:08.000Z</time>
      </trkpt>
      <trkpt lat="59.092540741" lon="29.9927186966">
        <time>2026-04-22T12:46:11.000Z</time>
      </trkpt>
      <trkpt lat="59.0925836563" lon="29.9926972389">
        <time>2026-04-22T12:46:13.000Z</time>
      </trkpt>
      <trkpt lat="59.092605114" lon="29.9926543236">
        <time>2026-04-22T12:46:16.000Z</time>
      </trkpt>
      <trkpt lat="59.0926265717" lon="29.9926114082">
        <time>2026-04-22T12:46:18.000Z</time>
      </trkpt>
      <trkpt lat="59.0926480293" lon="29.9926114082">
        <time>2026-04-22T12:46:21.000Z</time>
      </trkpt>
      <trkpt lat="59.092669487" lon="29.9926328659">
        <time>2026-04-22T12:46:23.000Z</time>
      </trkpt>
      <trkpt lat="59.0927124023" lon="29.9926328659">
        <time>2026-04-22T12:46:26.000Z</time>
      </trkpt>
      <trkpt lat="59.09273386" lon="29.9926543236">
        <time>2026-04-22T12:46:28.000Z</time>
      </trkpt>
      <trkpt lat="59.0927767754" lon="29.9926543236">
        <time>2026-04-22T12:46:31.000Z</time>
      </trkpt>
      <trkpt lat="59.092798233" lon="29.9926543236">
        <time>2026-04-22T12:46:33.000Z</time>
      </trkpt>
      <trkpt lat="59.0928196907" lon="29.9926114082">
        <time>2026-04-22T12:46:36.000Z</time>
      </trkpt>
      <trkpt lat="59.0928196907" lon="29.9926114082">
        <time>2026-04-22T12:46:38.000Z</time>
      </trkpt>
      <trkpt lat="59.0928411484" lon="29.9926543236">
        <time>2026-04-22T12:46:41.000Z</time>
      </trkpt>
      <trkpt lat="59.092862606" lon="29.9926757813">
        <time>2026-04-22T12:46:43.000Z</time>
      </trkpt>
      <trkpt lat="59.0929055214" lon="29.9926757813">
        <time>2026-04-22T12:46:46.000Z</time>
      </trkpt>
      <trkpt lat="59.0929055214" lon="29.9927401543">
        <time>2026-04-22T12:46:48.000Z</time>
      </trkpt>
      <trkpt lat="59.0929269791" lon="29.9928045273">
        <time>2026-04-22T12:46:51.000Z</time>
      </trkpt>
      <trkpt lat="59.0929698944" lon="29.9928045273">
        <time>2026-04-22T12:46:53.000Z</time>
      </trkpt>
      <trkpt lat="59.0929913521" lon="29.992890358">
        <time>2026-04-22T12:46:56.000Z</time>
      </trkpt>
      <trkpt lat="59.0930342674" lon="29.992890358">
        <time>2026-04-22T12:46:58.000Z</time>
      </trkpt>
      <trkpt lat="59.0930557251" lon="29.992825985">
        <time>2026-04-22T12:47:01.000Z</time>
      </trkpt>
      <trkpt lat="59.0930771828" lon="29.9929118156">
        <time>2026-04-22T12:47:03.000Z</time>
      </trkpt>
      <trkpt lat="59.0931200981" lon="29.9929118156">
        <time>2026-04-22T12:47:06.000Z</time>
      </trkpt>
      <trkpt lat="59.0931630135" lon="29.9928474426">
        <time>2026-04-22T12:47:08.000Z</time>
      </trkpt>
      <trkpt lat="59.0931844711" lon="29.9928474426">
        <time>2026-04-22T12:47:11.000Z</time>
      </trkpt>
      <trkpt lat="59.0932273865" lon="29.9928689003">
        <time>2026-04-22T12:47:13.000Z</time>
      </trkpt>
      <trkpt lat="59.0932273865" lon="29.9929118156">
        <time>2026-04-22T12:47:16.000Z</time>
      </trkpt>
      <trkpt lat="59.0932703018" lon="29.992890358">
        <time>2026-04-22T12:47:18.000Z</time>
      </trkpt>
      <trkpt lat="59.0932703018" lon="29.992825985">
        <time>2026-04-22T12:47:21.000Z</time>
      </trkpt>
      <trkpt lat="59.0932917595" lon="29.992825985">
        <time>2026-04-22T12:47:23.000Z</time>
      </trkpt>
      <trkpt lat="59.0933132172" lon="29.9928045273">
        <time>2026-04-22T12:47:26.000Z</time>
      </trkpt>
      <trkpt lat="59.0933346748" lon="29.9927830696">
        <time>2026-04-22T12:47:28.000Z</time>
      </trkpt>
      <trkpt lat="59.0933561325" lon="29.9927616119">
        <time>2026-04-22T12:47:31.000Z</time>
      </trkpt>
      <trkpt lat="59.0933561325" lon="29.9927401543">
        <time>2026-04-22T12:47:33.000Z</time>
      </trkpt>
      <trkpt lat="59.0933346748" lon="29.9926543236">
        <time>2026-04-22T12:47:36.000Z</time>
      </trkpt>
      <trkpt lat="59.0933132172" lon="29.9925470352">
        <time>2026-04-22T12:47:38.000Z</time>
      </trkpt>
      <trkpt lat="59.0933132172" lon="29.9925041199">
        <time>2026-04-22T12:47:41.000Z</time>
      </trkpt>
      <trkpt lat="59.0933132172" lon="29.9924182892">
        <time>2026-04-22T12:47:43.000Z</time>
      </trkpt>
      <trkpt lat="59.0932917595" lon="29.9923539162">
        <time>2026-04-22T12:47:46.000Z</time>
      </trkpt>
      <trkpt lat="59.0932917595" lon="29.9923110008">
        <time>2026-04-22T12:47:48.000Z</time>
      </trkpt>
      <trkpt lat="59.0932703018" lon="29.9922037125">
        <time>2026-04-22T12:47:51.000Z</time>
      </trkpt>
      <trkpt lat="59.0932703018" lon="29.9921178818">
        <time>2026-04-22T12:47:53.000Z</time>
      </trkpt>
      <trkpt lat="59.0932488441" lon="29.9920535088">
        <time>2026-04-22T12:47:56.000Z</time>
      </trkpt>
      <trkpt lat="59.0932273865" lon="29.9919891357">
        <time>2026-04-22T12:47:58.000Z</time>
      </trkpt>
      <trkpt lat="59.0932273865" lon="29.9919247627">
        <time>2026-04-22T12:48:01.000Z</time>
      </trkpt>
      <trkpt lat="59.0932273865" lon="29.9919247627">
        <time>2026-04-22T12:48:03.000Z</time>
      </trkpt>
      <trkpt lat="59.0932059288" lon="29.991838932">
        <time>2026-04-22T12:48:06.000Z</time>
      </trkpt>
      <trkpt lat="59.0931844711" lon="29.9917531013">
        <time>2026-04-22T12:48:08.000Z</time>
      </trkpt>
      <trkpt lat="59.0931630135" lon="29.991710186">
        <time>2026-04-22T12:48:11.000Z</time>
      </trkpt>
      <trkpt lat="59.0931415558" lon="29.9916243553">
        <time>2026-04-22T12:48:13.000Z</time>
      </trkpt>
      <trkpt lat="59.0931415558" lon="29.991517067">
        <time>2026-04-22T12:48:16.000Z</time>
      </trkpt>
      <trkpt lat="59.0931200981" lon="29.9914526939">
        <time>2026-04-22T12:48:18.000Z</time>
      </trkpt>
      <trkpt lat="59.0930986404" lon="29.9913668633">
        <time>2026-04-22T12:48:21.000Z</time>
      </trkpt>
      <trkpt lat="59.0930986404" lon="29.9913024902">
        <time>2026-04-22T12:48:23.000Z</time>
      </trkpt>
      <trkpt lat="59.0930771828" lon="29.9912381172">
        <time>2026-04-22T12:48:26.000Z</time>
      </trkpt>
      <trkpt lat="59.0930771828" lon="29.9911522865">
        <time>2026-04-22T12:48:28.000Z</time>
      </trkpt>
      <trkpt lat="59.0930557251" lon="29.9910664558">
        <time>2026-04-22T12:48:31.000Z</time>
      </trkpt>
      <trkpt lat="59.0930557251" lon="29.9910449982">
        <time>2026-04-22T12:48:33.000Z</time>
      </trkpt>
      <trkpt lat="59.0930342674" lon="29.9910020828">
        <time>2026-04-22T12:48:36.000Z</time>
      </trkpt>
      <trkpt lat="59.0930342674" lon="29.9909377098">
        <time>2026-04-22T12:48:38.000Z</time>
      </trkpt>
      <trkpt lat="59.0930342674" lon="29.9908947945">
        <time>2026-04-22T12:48:41.000Z</time>
      </trkpt>
      <trkpt lat="59.0930342674" lon="29.9908733368">
        <time>2026-04-22T12:48:43.000Z</time>
      </trkpt>
      <trkpt lat="59.0930342674" lon="29.9908947945">
        <time>2026-04-22T12:48:46.000Z</time>
      </trkpt>
      <trkpt lat="59.0930342674" lon="29.9908947945">
        <time>2026-04-22T12:48:48.000Z</time>
      </trkpt>
      <trkpt lat="59.0930342674" lon="29.9908947945">
        <time>2026-04-22T12:48:51.000Z</time>
      </trkpt>
    </trkseg>
  </trk>
</gpx>
